<?xml version='1.0' encoding='UTF-8'?><gpx version="1.1" creator="JPX - https://github.com/jenetics/jpx" xmlns="http://www.topografix.com/GPX/1/1"><trk><trkseg><trkpt lat="45.48507441026193" lon="8.69725594611653"><ele>155.0</ele><time>2026-04-19T11:38:51.003Z</time></trkpt><trkpt lat="45.48501428833786" lon="8.697301343175752"><ele>155.0</ele><time>2026-04-19T11:38:57.003Z</time></trkpt><trkpt lat="45.48504313005691" lon="8.697424365504816"><ele>155.0</ele><time>2026-04-19T11:39:38.004Z</time></trkpt><trkpt lat="45.48501391072311" lon="8.69754093533225"><ele>155.0</ele><time>2026-04-19T11:39:44.004Z</time></trkpt><trkpt lat="45.48493238250868" lon="8.697525008610958"><ele>155.0</ele><time>2026-04-19T11:39:46.004Z</time></trkpt><trkpt lat="45.484827068098674" lon="8.697447585874503"><ele>155.0</ele><time>2026-04-19T11:39:48.004Z</time></trkpt><trkpt lat="45.4847552402648" lon="8.69740100372129"><ele>155.0</ele><time>2026-04-19T11:39:49.004Z</time></trkpt><trkpt lat="45.48468816586768" lon="8.697380441726933"><ele>155.0</ele><time>2026-04-19T11:39:50.004Z</time></trkpt><trkpt lat="45.48459951205143" lon="8.69735663995835"><ele>155.0</ele><time>2026-04-19T11:39:51.004Z</time></trkpt><trkpt lat="45.48450198961595" lon="8.697337151772068"><ele>155.0</ele><time>2026-04-19T11:39:52.004Z</time></trkpt><trkpt lat="45.48433976522034" lon="8.69727787289143"><ele>155.0</ele><time>2026-04-19T11:39:54.004Z</time></trkpt><trkpt lat="45.48423839513134" lon="8.697234582883372"><ele>155.25</ele><time>2026-04-19T11:39:55.004Z</time></trkpt><trkpt lat="45.48409131687559" lon="8.69718399874281"><ele>155.5</ele><time>2026-04-19T11:39:56.004Z</time></trkpt><trkpt lat="45.483978990319336" lon="8.697135377574726"><ele>155.75</ele><time>2026-04-19T11:39:57.004Z</time></trkpt><trkpt lat="45.48385807936692" lon="8.697094200369463"><ele>156.0</ele><time>2026-04-19T11:39:58.004Z</time></trkpt><trkpt lat="45.48374768396003" lon="8.697053805787125"><ele>155.6</ele><time>2026-04-19T11:39:59.004Z</time></trkpt><trkpt lat="45.48363750043103" lon="8.69700575445649"><ele>155.2</ele><time>2026-04-19T11:40:00.004Z</time></trkpt><trkpt lat="45.48352973331885" lon="8.696969153812669"><ele>154.8</ele><time>2026-04-19T11:40:01.004Z</time></trkpt><trkpt lat="45.483425114128536" lon="8.69693186878406"><ele>154.4</ele><time>2026-04-19T11:40:02.004Z</time></trkpt><trkpt lat="45.48332681899499" lon="8.696891404523035"><ele>154.0</ele><time>2026-04-19T11:40:03.004Z</time></trkpt><trkpt lat="45.48322906966402" lon="8.696857899898207"><ele>154.0</ele><time>2026-04-19T11:40:04.004Z</time></trkpt><trkpt lat="45.483132580457024" lon="8.696829886474449"><ele>154.0</ele><time>2026-04-19T11:40:05.004Z</time></trkpt><trkpt lat="45.48304837852796" lon="8.696797898780954"><ele>154.0</ele><time>2026-04-19T11:40:06.004Z</time></trkpt><trkpt lat="45.48298749370028" lon="8.696751997553557"><ele>154.0</ele><time>2026-04-19T11:40:07.004Z</time></trkpt><trkpt lat="45.482927807322504" lon="8.696675939752057"><ele>154.0</ele><time>2026-04-19T11:40:08.005Z</time></trkpt><trkpt lat="45.48287167160707" lon="8.69656556457455"><ele>154.0</ele><time>2026-04-19T11:40:09.005Z</time></trkpt><trkpt lat="45.482809917256496" lon="8.696443590696253"><ele>154.0</ele><time>2026-04-19T11:40:10.005Z</time></trkpt><trkpt lat="45.48274929484215" lon="8.696320257895819"><ele>154.0</ele><time>2026-04-19T11:40:11.005Z</time></trkpt><trkpt lat="45.48268464024241" lon="8.696193452993985"><ele>154.0</ele><time>2026-04-19T11:40:12.005Z</time></trkpt><trkpt lat="45.48261346782236" lon="8.696066353881607"><ele>154.0</ele><time>2026-04-19T11:40:13.005Z</time></trkpt><trkpt lat="45.48254203519084" lon="8.695926470011708"><ele>154.0</ele><time>2026-04-19T11:40:14.005Z</time></trkpt><trkpt lat="45.482483666827825" lon="8.695774288460822"><ele>154.0</ele><time>2026-04-19T11:40:15.005Z</time></trkpt><trkpt lat="45.482427050645114" lon="8.695610552981814"><ele>154.0</ele><time>2026-04-19T11:40:16.005Z</time></trkpt><trkpt lat="45.48236204156093" lon="8.695451910281825"><ele>154.0</ele><time>2026-04-19T11:40:17.005Z</time></trkpt><trkpt lat="45.482309316449474" lon="8.695277497932482"><ele>154.5</ele><time>2026-04-19T11:40:18.005Z</time></trkpt><trkpt lat="45.482254116619764" lon="8.69510847508723"><ele>155.0</ele><time>2026-04-19T11:40:19.005Z</time></trkpt><trkpt lat="45.482206781383056" lon="8.694942830772623"><ele>155.5</ele><time>2026-04-19T11:40:20.005Z</time></trkpt><trkpt lat="45.48216159492037" lon="8.694772869392926"><ele>156.0</ele><time>2026-04-19T11:40:21.005Z</time></trkpt><trkpt lat="45.482115598255355" lon="8.694602196629873"><ele>155.25</ele><time>2026-04-19T11:40:22.005Z</time></trkpt><trkpt lat="45.482077082251855" lon="8.694418859359276"><ele>154.5</ele><time>2026-04-19T11:40:23.005Z</time></trkpt><trkpt lat="45.482034388144" lon="8.694235823759922"><ele>153.75</ele><time>2026-04-19T11:40:24.005Z</time></trkpt><trkpt lat="45.481986372719106" lon="8.694060850179705"><ele>153.0</ele><time>2026-04-19T11:40:25.005Z</time></trkpt><trkpt lat="45.48193763868259" lon="8.693883922212859"><ele>153.0</ele><time>2026-04-19T11:40:26.005Z</time></trkpt><trkpt lat="45.48188861884359" lon="8.693712542332339"><ele>153.0</ele><time>2026-04-19T11:40:27.005Z</time></trkpt><trkpt lat="45.481837302740445" lon="8.693536242847474"><ele>153.0</ele><time>2026-04-19T11:40:28.005Z</time></trkpt><trkpt lat="45.481788748603556" lon="8.693351926022874"><ele>153.0</ele><time>2026-04-19T11:40:29.005Z</time></trkpt><trkpt lat="45.481738024681476" lon="8.69316582025598"><ele>153.25</ele><time>2026-04-19T11:40:30.005Z</time></trkpt><trkpt lat="45.48169019701624" lon="8.6929736466067"><ele>153.5</ele><time>2026-04-19T11:40:31.005Z</time></trkpt><trkpt lat="45.48164516190824" lon="8.692781617235035"><ele>153.75</ele><time>2026-04-19T11:40:32.005Z</time></trkpt><trkpt lat="45.48159352816402" lon="8.692590290139323"><ele>154.0</ele><time>2026-04-19T11:40:33.005Z</time></trkpt><trkpt lat="45.48154249179466" lon="8.692400622918331"><ele>154.0</ele><time>2026-04-19T11:40:34.005Z</time></trkpt><trkpt lat="45.481497891960714" lon="8.692216536340752"><ele>154.0</ele><time>2026-04-19T11:40:35.005Z</time></trkpt><trkpt lat="45.48145399026002" lon="8.692031053033004"><ele>154.0</ele><time>2026-04-19T11:40:36.005Z</time></trkpt><trkpt lat="45.481404940524506" lon="8.691845598726077"><ele>154.0</ele><time>2026-04-19T11:40:37.005Z</time></trkpt><trkpt lat="45.481355952005885" lon="8.691665066779295"><ele>154.0</ele><time>2026-04-19T11:40:38.005Z</time></trkpt><trkpt lat="45.48131103713989" lon="8.691497713053973"><ele>154.0</ele><time>2026-04-19T11:40:39.005Z</time></trkpt><trkpt lat="45.481275024909195" lon="8.691341276945654"><ele>154.0</ele><time>2026-04-19T11:40:40.005Z</time></trkpt><trkpt lat="45.48122886274798" lon="8.691190476927602"><ele>154.0</ele><time>2026-04-19T11:40:41.005Z</time></trkpt><trkpt lat="45.481185808896406" lon="8.691043254096835"><ele>154.6</ele><time>2026-04-19T11:40:42.005Z</time></trkpt><trkpt lat="45.48114274413137" lon="8.690892477690106"><ele>155.2</ele><time>2026-04-19T11:40:43.005Z</time></trkpt><trkpt lat="45.48110503357323" lon="8.690746722840657"><ele>155.79999999999998</ele><time>2026-04-19T11:40:44.005Z</time></trkpt><trkpt lat="45.48106332599061" lon="8.6905987778328"><ele>156.4</ele><time>2026-04-19T11:40:45.005Z</time></trkpt><trkpt lat="45.48102754868273" lon="8.690464481031098"><ele>157.0</ele><time>2026-04-19T11:40:46.005Z</time></trkpt><trkpt lat="45.48100015515159" lon="8.690335299738944"><ele>156.66666666666669</ele><time>2026-04-19T11:40:47.005Z</time></trkpt><trkpt lat="45.48097609612526" lon="8.690213647176082"><ele>156.33333333333334</ele><time>2026-04-19T11:40:48.005Z</time></trkpt><trkpt lat="45.48095458815295" lon="8.690108761134715"><ele>156.0</ele><time>2026-04-19T11:40:49.005Z</time></trkpt><trkpt lat="45.48093031534376" lon="8.690018217459702"><ele>155.66666666666666</ele><time>2026-04-19T11:40:50.005Z</time></trkpt><trkpt lat="45.48092154871828" lon="8.689857556475063"><ele>155.33333333333331</ele><time>2026-04-19T11:40:52.005Z</time></trkpt><trkpt lat="45.48095529635366" lon="8.689781691810092"><ele>155.0</ele><time>2026-04-19T11:40:53.006Z</time></trkpt><trkpt lat="45.481005443171945" lon="8.689695043702681"><ele>155.0</ele><time>2026-04-19T11:40:54.006Z</time></trkpt><trkpt lat="45.48106709261562" lon="8.689594791420808"><ele>155.0</ele><time>2026-04-19T11:40:55.006Z</time></trkpt><trkpt lat="45.48115345793925" lon="8.689477515470454"><ele>155.0</ele><time>2026-04-19T11:40:56.006Z</time></trkpt><trkpt lat="45.48123535437392" lon="8.689356125377206"><ele>155.0</ele><time>2026-04-19T11:40:57.006Z</time></trkpt><trkpt lat="45.48130338953911" lon="8.689226290014247"><ele>155.0</ele><time>2026-04-19T11:40:58.006Z</time></trkpt><trkpt lat="45.481381963102805" lon="8.689101458332999"><ele>154.75</ele><time>2026-04-19T11:40:59.006Z</time></trkpt><trkpt lat="45.48146033769114" lon="8.68897150801443"><ele>154.5</ele><time>2026-04-19T11:41:00.006Z</time></trkpt><trkpt lat="45.48153916332416" lon="8.688836312102021"><ele>154.25</ele><time>2026-04-19T11:41:01.006Z</time></trkpt><trkpt lat="45.48162220186612" lon="8.688704435491612"><ele>154.0</ele><time>2026-04-19T11:41:02.006Z</time></trkpt><trkpt lat="45.48171544876843" lon="8.68856958007151"><ele>154.0</ele><time>2026-04-19T11:41:03.006Z</time></trkpt><trkpt lat="45.481813095673445" lon="8.688432391697493"><ele>154.0</ele><time>2026-04-19T11:41:04.006Z</time></trkpt><trkpt lat="45.48189922967557" lon="8.688293618829805"><ele>154.0</ele><time>2026-04-19T11:41:05.006Z</time></trkpt><trkpt lat="45.48198263162765" lon="8.688154010237264"><ele>154.0</ele><time>2026-04-19T11:41:06.006Z</time></trkpt><trkpt lat="45.482069441867004" lon="8.688024881025084"><ele>154.0</ele><time>2026-04-19T11:41:07.006Z</time></trkpt><trkpt lat="45.48215000568009" lon="8.6878972489315"><ele>154.0</ele><time>2026-04-19T11:41:08.006Z</time></trkpt><trkpt lat="45.48224105928058" lon="8.687761287797523"><ele>154.0</ele><time>2026-04-19T11:41:09.006Z</time></trkpt><trkpt lat="45.482332437855476" lon="8.687617078784385"><ele>154.0</ele><time>2026-04-19T11:41:10.006Z</time></trkpt><trkpt lat="45.48242190641274" lon="8.687464554094834"><ele>154.0</ele><time>2026-04-19T11:41:11.006Z</time></trkpt><trkpt lat="45.48251533524393" lon="8.687310567927453"><ele>154.0</ele><time>2026-04-19T11:41:12.006Z</time></trkpt><trkpt lat="45.482608818761506" lon="8.687167733371002"><ele>154.0</ele><time>2026-04-19T11:41:13.006Z</time></trkpt><trkpt lat="45.482703713927016" lon="8.687020817248852"><ele>154.0</ele><time>2026-04-19T11:41:14.006Z</time></trkpt><trkpt lat="45.48279964240019" lon="8.686879283805268"><ele>154.0</ele><time>2026-04-19T11:41:15.006Z</time></trkpt><trkpt lat="45.48289167122764" lon="8.686736194073287"><ele>154.0</ele><time>2026-04-19T11:41:16.006Z</time></trkpt><trkpt lat="45.48298150708942" lon="8.686599827362778"><ele>154.0</ele><time>2026-04-19T11:41:17.006Z</time></trkpt><trkpt lat="45.48307180993652" lon="8.686456015089014"><ele>154.0</ele><time>2026-04-19T11:41:18.006Z</time></trkpt><trkpt lat="45.483164068418255" lon="8.68630845880582"><ele>154.0</ele><time>2026-04-19T11:41:19.006Z</time></trkpt><trkpt lat="45.48325764230426" lon="8.686162800037698"><ele>154.0</ele><time>2026-04-19T11:41:20.006Z</time></trkpt><trkpt lat="45.48335007891155" lon="8.686019520141146"><ele>154.0</ele><time>2026-04-19T11:41:21.006Z</time></trkpt><trkpt lat="45.48344552240916" lon="8.685877412236096"><ele>154.0</ele><time>2026-04-19T11:41:22.006Z</time></trkpt><trkpt lat="45.48353736614541" lon="8.68573266532326"><ele>154.25</ele><time>2026-04-19T11:41:23.006Z</time></trkpt><trkpt lat="45.483629701789056" lon="8.685587812195443"><ele>154.5</ele><time>2026-04-19T11:41:24.006Z</time></trkpt><trkpt lat="45.48372431918222" lon="8.685442396781774"><ele>154.75</ele><time>2026-04-19T11:41:25.006Z</time></trkpt><trkpt lat="45.48381480162312" lon="8.685296120409278"><ele>155.0</ele><time>2026-04-19T11:41:26.006Z</time></trkpt><trkpt lat="45.48390912481158" lon="8.685146821324755"><ele>155.0</ele><time>2026-04-19T11:41:27.006Z</time></trkpt><trkpt lat="45.48399990673111" lon="8.684995959145928"><ele>155.0</ele><time>2026-04-19T11:41:28.006Z</time></trkpt><trkpt lat="45.48409974968868" lon="8.684844372256881"><ele>155.0</ele><time>2026-04-19T11:41:29.006Z</time></trkpt><trkpt lat="45.48419442569895" lon="8.684693725996691"><ele>155.0</ele><time>2026-04-19T11:41:30.006Z</time></trkpt><trkpt lat="45.484296160911555" lon="8.684544079952673"><ele>155.0</ele><time>2026-04-19T11:41:31.006Z</time></trkpt><trkpt lat="45.48439304720737" lon="8.684396888510998"><ele>155.0</ele><time>2026-04-19T11:41:32.006Z</time></trkpt><trkpt lat="45.484489077738736" lon="8.68424121782199"><ele>155.0</ele><time>2026-04-19T11:41:33.006Z</time></trkpt><trkpt lat="45.48458681687255" lon="8.684089451297739"><ele>155.0</ele><time>2026-04-19T11:41:34.006Z</time></trkpt><trkpt lat="45.48468439696268" lon="8.683935022184924"><ele>155.0</ele><time>2026-04-19T11:41:35.006Z</time></trkpt><trkpt lat="45.48477891606294" lon="8.683773506511574"><ele>155.0</ele><time>2026-04-19T11:41:36.006Z</time></trkpt><trkpt lat="45.484878046258444" lon="8.68362052245981"><ele>155.0</ele><time>2026-04-19T11:41:37.006Z</time></trkpt><trkpt lat="45.48497545275013" lon="8.683469209109086"><ele>155.0</ele><time>2026-04-19T11:41:38.007Z</time></trkpt><trkpt lat="45.48507317188333" lon="8.683315430001695"><ele>155.0</ele><time>2026-04-19T11:41:39.007Z</time></trkpt><trkpt lat="45.485173451599" lon="8.683160423841558"><ele>155.0</ele><time>2026-04-19T11:41:40.007Z</time></trkpt><trkpt lat="45.4852722331542" lon="8.683010961363923"><ele>155.0</ele><time>2026-04-19T11:41:41.007Z</time></trkpt><trkpt lat="45.485367582638624" lon="8.682856223509074"><ele>155.0</ele><time>2026-04-19T11:41:42.007Z</time></trkpt><trkpt lat="45.48546104258599" lon="8.682698450804262"><ele>155.0</ele><time>2026-04-19T11:41:43.007Z</time></trkpt><trkpt lat="45.48555710469787" lon="8.682538726443909"><ele>155.0</ele><time>2026-04-19T11:41:44.007Z</time></trkpt><trkpt lat="45.48565606607883" lon="8.682379272176902"><ele>155.0</ele><time>2026-04-19T11:41:45.007Z</time></trkpt><trkpt lat="45.485755344704806" lon="8.682222746868351"><ele>155.0</ele><time>2026-04-19T11:41:46.007Z</time></trkpt><trkpt lat="45.485857387044256" lon="8.682065871617754"><ele>154.66666666666666</ele><time>2026-04-19T11:41:47.007Z</time></trkpt><trkpt lat="45.48596284370321" lon="8.68190524065733"><ele>154.33333333333334</ele><time>2026-04-19T11:41:48.007Z</time></trkpt><trkpt lat="45.48606226132687" lon="8.681745798421437"><ele>154.0</ele><time>2026-04-19T11:41:49.007Z</time></trkpt><trkpt lat="45.48616466775111" lon="8.681584439726224"><ele>154.0</ele><time>2026-04-19T11:41:50.007Z</time></trkpt><trkpt lat="45.48626710065108" lon="8.681422596799623"><ele>154.0</ele><time>2026-04-19T11:41:51.007Z</time></trkpt><trkpt lat="45.4863715145201" lon="8.681261082462143"><ele>154.0</ele><time>2026-04-19T11:41:52.007Z</time></trkpt><trkpt lat="45.486474965003424" lon="8.681095379519775"><ele>154.66666666666669</ele><time>2026-04-19T11:41:53.007Z</time></trkpt><trkpt lat="45.48657750655868" lon="8.680931204009902"><ele>155.33333333333334</ele><time>2026-04-19T11:41:54.007Z</time></trkpt><trkpt lat="45.48668188788317" lon="8.680767705156677"><ele>156.0</ele><time>2026-04-19T11:41:55.007Z</time></trkpt><trkpt lat="45.486790148176475" lon="8.680604654130898"><ele>156.0</ele><time>2026-04-19T11:41:56.007Z</time></trkpt><trkpt lat="45.48689694039374" lon="8.680440159500542"><ele>156.0</ele><time>2026-04-19T11:41:57.007Z</time></trkpt><trkpt lat="45.487003218887004" lon="8.680272405378744"><ele>156.0</ele><time>2026-04-19T11:41:58.007Z</time></trkpt><trkpt lat="45.48711085093356" lon="8.680100227445793"><ele>156.0</ele><time>2026-04-19T11:41:59.007Z</time></trkpt><trkpt lat="45.4872184872131" lon="8.679928567690357"><ele>156.0</ele><time>2026-04-19T11:42:00.007Z</time></trkpt><trkpt lat="45.48732552489396" lon="8.679757459822088"><ele>156.0</ele><time>2026-04-19T11:42:01.007Z</time></trkpt><trkpt lat="45.487434271988576" lon="8.67958324313968"><ele>156.66666666666666</ele><time>2026-04-19T11:42:02.007Z</time></trkpt><trkpt lat="45.487540008781515" lon="8.67941235384561"><ele>157.33333333333331</ele><time>2026-04-19T11:42:03.007Z</time></trkpt><trkpt lat="45.48764882537531" lon="8.679240865931535"><ele>158.0</ele><time>2026-04-19T11:42:04.007Z</time></trkpt><trkpt lat="45.48775863282489" lon="8.67906853753054"><ele>158.0</ele><time>2026-04-19T11:42:05.007Z</time></trkpt><trkpt lat="45.487869329989074" lon="8.67889531414552"><ele>158.0</ele><time>2026-04-19T11:42:06.007Z</time></trkpt><trkpt lat="45.48797782340806" lon="8.678722380121563"><ele>158.0</ele><time>2026-04-19T11:42:07.007Z</time></trkpt><trkpt lat="45.48809174583337" lon="8.678552932887152"><ele>158.0</ele><time>2026-04-19T11:42:08.007Z</time></trkpt><trkpt lat="45.488204784669854" lon="8.67837915074834"><ele>158.0</ele><time>2026-04-19T11:42:09.007Z</time></trkpt><trkpt lat="45.48831742819983" lon="8.678201832035896"><ele>158.0</ele><time>2026-04-19T11:42:10.007Z</time></trkpt><trkpt lat="45.48842597227878" lon="8.678027961604515"><ele>158.0</ele><time>2026-04-19T11:42:11.007Z</time></trkpt><trkpt lat="45.488534362940214" lon="8.67785700725592"><ele>158.0</ele><time>2026-04-19T11:42:12.007Z</time></trkpt><trkpt lat="45.48864077007786" lon="8.677675813836183"><ele>158.0</ele><time>2026-04-19T11:42:13.007Z</time></trkpt><trkpt lat="45.48874886531468" lon="8.677501414006587"><ele>157.33333333333331</ele><time>2026-04-19T11:42:14.007Z</time></trkpt><trkpt lat="45.48885849109013" lon="8.6773224060653"><ele>156.66666666666666</ele><time>2026-04-19T11:42:15.007Z</time></trkpt><trkpt lat="45.48896899079244" lon="8.677149143477745"><ele>156.0</ele><time>2026-04-19T11:42:16.007Z</time></trkpt><trkpt lat="45.489079137923845" lon="8.67698157224505"><ele>156.33333333333334</ele><time>2026-04-19T11:42:17.007Z</time></trkpt><trkpt lat="45.48918618145631" lon="8.676822987217832"><ele>156.66666666666669</ele><time>2026-04-19T11:42:18.007Z</time></trkpt><trkpt lat="45.489298428706334" lon="8.676648835939064"><ele>157.0</ele><time>2026-04-19T11:42:19.007Z</time></trkpt><trkpt lat="45.489405304170035" lon="8.676477828950368"><ele>157.0</ele><time>2026-04-19T11:42:20.007Z</time></trkpt><trkpt lat="45.48951495950376" lon="8.67631157253591"><ele>157.0</ele><time>2026-04-19T11:42:21.007Z</time></trkpt><trkpt lat="45.4896309038108" lon="8.676146240525574"><ele>157.0</ele><time>2026-04-19T11:42:22.008Z</time></trkpt><trkpt lat="45.48975172922036" lon="8.675985955091083"><ele>157.0</ele><time>2026-04-19T11:42:23.008Z</time></trkpt><trkpt lat="45.48988348555025" lon="8.675829657927123"><ele>157.0</ele><time>2026-04-19T11:42:24.008Z</time></trkpt><trkpt lat="45.49002323577936" lon="8.675681847561119"><ele>157.0</ele><time>2026-04-19T11:42:25.008Z</time></trkpt><trkpt lat="45.49016507911504" lon="8.675541062958983"><ele>157.0</ele><time>2026-04-19T11:42:26.008Z</time></trkpt><trkpt lat="45.49030595145039" lon="8.675404501113297"><ele>157.0</ele><time>2026-04-19T11:42:27.008Z</time></trkpt><trkpt lat="45.49045038418352" lon="8.675276207875994"><ele>157.0</ele><time>2026-04-19T11:42:28.008Z</time></trkpt><trkpt lat="45.490601351936036" lon="8.675153980591634"><ele>157.0</ele><time>2026-04-19T11:42:29.008Z</time></trkpt><trkpt lat="45.49074952900295" lon="8.675027791684329"><ele>157.0</ele><time>2026-04-19T11:42:30.008Z</time></trkpt><trkpt lat="45.49089480518447" lon="8.67489628928477"><ele>157.0</ele><time>2026-04-19T11:42:31.008Z</time></trkpt><trkpt lat="45.49104084895017" lon="8.674771252434068"><ele>157.0</ele><time>2026-04-19T11:42:32.008Z</time></trkpt><trkpt lat="45.4911867094801" lon="8.674649873878726"><ele>157.0</ele><time>2026-04-19T11:42:33.008Z</time></trkpt><trkpt lat="45.49133126578946" lon="8.674523325597825"><ele>157.0</ele><time>2026-04-19T11:42:34.008Z</time></trkpt><trkpt lat="45.49148008440017" lon="8.674398316905197"><ele>157.66666666666669</ele><time>2026-04-19T11:42:35.008Z</time></trkpt><trkpt lat="45.49162766426903" lon="8.674268151711601"><ele>158.33333333333334</ele><time>2026-04-19T11:42:36.008Z</time></trkpt><trkpt lat="45.491774799435234" lon="8.674139369025562"><ele>159.0</ele><time>2026-04-19T11:42:37.008Z</time></trkpt><trkpt lat="45.49191727681057" lon="8.674007844877561"><ele>159.0</ele><time>2026-04-19T11:42:38.008Z</time></trkpt><trkpt lat="45.49206190859459" lon="8.673881295287426"><ele>159.0</ele><time>2026-04-19T11:42:39.008Z</time></trkpt><trkpt lat="45.4922102213172" lon="8.67375943150184"><ele>159.0</ele><time>2026-04-19T11:42:40.008Z</time></trkpt><trkpt lat="45.49235636494296" lon="8.673641208344792"><ele>158.33333333333334</ele><time>2026-04-19T11:42:41.008Z</time></trkpt><trkpt lat="45.49250008923976" lon="8.673518143241665"><ele>157.66666666666669</ele><time>2026-04-19T11:42:42.008Z</time></trkpt><trkpt lat="45.49264079878692" lon="8.673397266943896"><ele>157.0</ele><time>2026-04-19T11:42:43.008Z</time></trkpt><trkpt lat="45.49278197886614" lon="8.673273024420077"><ele>157.33333333333334</ele><time>2026-04-19T11:42:44.008Z</time></trkpt><trkpt lat="45.49292374225869" lon="8.673150597274496"><ele>157.66666666666666</ele><time>2026-04-19T11:42:45.008Z</time></trkpt><trkpt lat="45.49306376188806" lon="8.673029562515367"><ele>158.0</ele><time>2026-04-19T11:42:46.008Z</time></trkpt><trkpt lat="45.49320498016615" lon="8.672906213967144"><ele>158.0</ele><time>2026-04-19T11:42:47.008Z</time></trkpt><trkpt lat="45.49334736476426" lon="8.672784187453408"><ele>158.0</ele><time>2026-04-19T11:42:48.008Z</time></trkpt><trkpt lat="45.49349463613061" lon="8.67267145970234"><ele>158.0</ele><time>2026-04-19T11:42:49.008Z</time></trkpt><trkpt lat="45.49364632800526" lon="8.67257822126119"><ele>158.66666666666666</ele><time>2026-04-19T11:42:50.008Z</time></trkpt><trkpt lat="45.493807205850885" lon="8.672498047338514"><ele>159.33333333333334</ele><time>2026-04-19T11:42:51.008Z</time></trkpt><trkpt lat="45.49396744443289" lon="8.672431921543074"><ele>160.0</ele><time>2026-04-19T11:42:52.008Z</time></trkpt><trkpt lat="45.4941309601624" lon="8.67238547162545"><ele>160.0</ele><time>2026-04-19T11:42:53.008Z</time></trkpt><trkpt lat="45.494295291393925" lon="8.672350366724698"><ele>160.0</ele><time>2026-04-19T11:42:54.008Z</time></trkpt><trkpt lat="45.494462404127205" lon="8.67233801125194"><ele>160.0</ele><time>2026-04-19T11:42:55.008Z</time></trkpt><trkpt lat="45.49463149880573" lon="8.672347396599873"><ele>160.33333333333334</ele><time>2026-04-19T11:42:56.008Z</time></trkpt><trkpt lat="45.49479976779008" lon="8.672371564632233"><ele>160.66666666666666</ele><time>2026-04-19T11:42:57.008Z</time></trkpt><trkpt lat="45.49495747458313" lon="8.672404807753296"><ele>161.0</ele><time>2026-04-19T11:42:58.008Z</time></trkpt><trkpt lat="45.495107196891034" lon="8.672440719879814"><ele>161.0</ele><time>2026-04-19T11:42:59.008Z</time></trkpt><trkpt lat="45.495255710357114" lon="8.672474699918984"><ele>161.0</ele><time>2026-04-19T11:43:00.008Z</time></trkpt><trkpt lat="45.49540614624575" lon="8.672509643220982"><ele>161.0</ele><time>2026-04-19T11:43:01.008Z</time></trkpt><trkpt lat="45.4955579066166" lon="8.672543214640829"><ele>160.33333333333331</ele><time>2026-04-19T11:43:02.008Z</time></trkpt><trkpt lat="45.495708668588485" lon="8.672577032440069"><ele>159.66666666666666</ele><time>2026-04-19T11:43:03.008Z</time></trkpt><trkpt lat="45.49585794575174" lon="8.672612072667278"><ele>159.0</ele><time>2026-04-19T11:43:04.008Z</time></trkpt><trkpt lat="45.496008793247626" lon="8.672648230394492"><ele>159.0</ele><time>2026-04-19T11:43:05.008Z</time></trkpt><trkpt lat="45.496155889893025" lon="8.67268049851849"><ele>159.0</ele><time>2026-04-19T11:43:06.008Z</time></trkpt><trkpt lat="45.49630274558211" lon="8.672709176354145"><ele>159.0</ele><time>2026-04-19T11:43:07.009Z</time></trkpt><trkpt lat="45.49644809266361" lon="8.672740459869987"><ele>159.0</ele><time>2026-04-19T11:43:08.009Z</time></trkpt><trkpt lat="45.49659144087137" lon="8.672771365063136"><ele>159.5</ele><time>2026-04-19T11:43:09.009Z</time></trkpt><trkpt lat="45.4967379013422" lon="8.672806210494242"><ele>160.0</ele><time>2026-04-19T11:43:10.009Z</time></trkpt><trkpt lat="45.4968837109722" lon="8.672837882945018"><ele>160.5</ele><time>2026-04-19T11:43:11.009Z</time></trkpt><trkpt lat="45.49702673162466" lon="8.672863247666136"><ele>161.0</ele><time>2026-04-19T11:43:12.009Z</time></trkpt><trkpt lat="45.49717137719684" lon="8.67287802949507"><ele>161.0</ele><time>2026-04-19T11:43:13.009Z</time></trkpt><trkpt lat="45.49731567235886" lon="8.672880300571356"><ele>161.0</ele><time>2026-04-19T11:43:14.009Z</time></trkpt><trkpt lat="45.49746325889795" lon="8.672871102925871"><ele>161.0</ele><time>2026-04-19T11:43:15.009Z</time></trkpt><trkpt lat="45.49761027491739" lon="8.67284119442045"><ele>161.0</ele><time>2026-04-19T11:43:16.009Z</time></trkpt><trkpt lat="45.49775559394445" lon="8.672801939643723"><ele>160.75</ele><time>2026-04-19T11:43:17.009Z</time></trkpt><trkpt lat="45.49789700787953" lon="8.672750067273647"><ele>160.5</ele><time>2026-04-19T11:43:18.009Z</time></trkpt><trkpt lat="45.49803687789757" lon="8.672687609654394"><ele>160.25</ele><time>2026-04-19T11:43:19.009Z</time></trkpt><trkpt lat="45.49816919110429" lon="8.672615408828372"><ele>160.0</ele><time>2026-04-19T11:43:20.009Z</time></trkpt><trkpt lat="45.49829692074341" lon="8.672535504847126"><ele>160.75</ele><time>2026-04-19T11:43:21.009Z</time></trkpt><trkpt lat="45.49841414190516" lon="8.672462381279933"><ele>161.5</ele><time>2026-04-19T11:43:22.009Z</time></trkpt><trkpt lat="45.49852065722131" lon="8.672392035180113"><ele>162.25</ele><time>2026-04-19T11:43:23.009Z</time></trkpt><trkpt lat="45.498618319134124" lon="8.672324491620838"><ele>163.0</ele><time>2026-04-19T11:43:24.009Z</time></trkpt><trkpt lat="45.49870964115748" lon="8.672258581269807"><ele>163.0</ele><time>2026-04-19T11:43:25.009Z</time></trkpt><trkpt lat="45.498795130386924" lon="8.672196368342345"><ele>163.0</ele><time>2026-04-19T11:43:26.009Z</time></trkpt><trkpt lat="45.498877082348585" lon="8.672139591783576"><ele>163.0</ele><time>2026-04-19T11:43:27.009Z</time></trkpt><trkpt lat="45.49896442917193" lon="8.67211299347009"><ele>163.0</ele><time>2026-04-19T11:43:28.009Z</time></trkpt><trkpt lat="45.499040643091426" lon="8.672129432694078"><ele>163.0</ele><time>2026-04-19T11:43:29.009Z</time></trkpt><trkpt lat="45.49910202936431" lon="8.672172823546184"><ele>163.0</ele><time>2026-04-19T11:43:30.009Z</time></trkpt><trkpt lat="45.49921695385221" lon="8.672142945956683"><ele>163.0</ele><time>2026-04-19T11:43:32.009Z</time></trkpt><trkpt lat="45.49927620762563" lon="8.672048288291336"><ele>163.0</ele><time>2026-04-19T11:43:33.009Z</time></trkpt><trkpt lat="45.49933150297298" lon="8.671934806912251"><ele>163.0</ele><time>2026-04-19T11:43:34.009Z</time></trkpt><trkpt lat="45.49938372775098" lon="8.671821668206029"><ele>163.0</ele><time>2026-04-19T11:43:35.009Z</time></trkpt><trkpt lat="45.499460658325745" lon="8.671717949081899"><ele>163.0</ele><time>2026-04-19T11:43:36.009Z</time></trkpt><trkpt lat="45.499557270293565" lon="8.671621742554885"><ele>163.0</ele><time>2026-04-19T11:43:37.009Z</time></trkpt><trkpt lat="45.49966774119866" lon="8.6715380460036"><ele>163.0</ele><time>2026-04-19T11:43:38.009Z</time></trkpt><trkpt lat="45.49978408402712" lon="8.671490179703474"><ele>163.0</ele><time>2026-04-19T11:43:39.009Z</time></trkpt><trkpt lat="45.49990607850667" lon="8.671434599368755"><ele>163.0</ele><time>2026-04-19T11:43:40.009Z</time></trkpt><trkpt lat="45.500026432148175" lon="8.671371368544287"><ele>163.0</ele><time>2026-04-19T11:43:41.009Z</time></trkpt><trkpt lat="45.500146076865285" lon="8.671309273123887"><ele>163.0</ele><time>2026-04-19T11:43:42.009Z</time></trkpt><trkpt lat="45.500260151073576" lon="8.671251641355449"><ele>163.0</ele><time>2026-04-19T11:43:43.009Z</time></trkpt><trkpt lat="45.500379989337254" lon="8.671195653248615"><ele>163.0</ele><time>2026-04-19T11:43:44.009Z</time></trkpt><trkpt lat="45.50050535433857" lon="8.67113516561148"><ele>163.0</ele><time>2026-04-19T11:43:45.009Z</time></trkpt><trkpt lat="45.50063459215762" lon="8.671067809452241"><ele>163.0</ele><time>2026-04-19T11:43:46.009Z</time></trkpt><trkpt lat="45.50076840445551" lon="8.671002298509869"><ele>163.0</ele><time>2026-04-19T11:43:47.009Z</time></trkpt><trkpt lat="45.5009004019203" lon="8.670933380372846"><ele>163.0</ele><time>2026-04-19T11:43:48.009Z</time></trkpt><trkpt lat="45.50102979796183" lon="8.670864161202674"><ele>163.0</ele><time>2026-04-19T11:43:49.009Z</time></trkpt><trkpt lat="45.50116092307554" lon="8.670794583619227"><ele>163.0</ele><time>2026-04-19T11:43:50.009Z</time></trkpt><trkpt lat="45.50129009041393" lon="8.670724748029915"><ele>163.0</ele><time>2026-04-19T11:43:51.009Z</time></trkpt><trkpt lat="45.50141465930162" lon="8.670659411025756"><ele>163.0</ele><time>2026-04-19T11:43:52.01Z</time></trkpt><trkpt lat="45.50153822836397" lon="8.67059729428113"><ele>162.75</ele><time>2026-04-19T11:43:53.01Z</time></trkpt><trkpt lat="45.501663710424715" lon="8.670537117406532"><ele>162.5</ele><time>2026-04-19T11:43:54.01Z</time></trkpt><trkpt lat="45.50179072633739" lon="8.670478133906396"><ele>162.25</ele><time>2026-04-19T11:43:55.01Z</time></trkpt><trkpt lat="45.50191865660756" lon="8.670417362069784"><ele>162.0</ele><time>2026-04-19T11:43:56.01Z</time></trkpt><trkpt lat="45.502045191011085" lon="8.670356799883713"><ele>162.25</ele><time>2026-04-19T11:43:57.01Z</time></trkpt><trkpt lat="45.502170765088344" lon="8.670294018105869"><ele>162.5</ele><time>2026-04-19T11:43:58.01Z</time></trkpt><trkpt lat="45.50229462472337" lon="8.670226524818789"><ele>162.75</ele><time>2026-04-19T11:43:59.01Z</time></trkpt><trkpt lat="45.50242078608899" lon="8.670164429056253"><ele>163.0</ele><time>2026-04-19T11:44:00.01Z</time></trkpt><trkpt lat="45.502551117898534" lon="8.670106202345766"><ele>163.0</ele><time>2026-04-19T11:44:01.01Z</time></trkpt><trkpt lat="45.50268024176855" lon="8.67003881373454"><ele>163.0</ele><time>2026-04-19T11:44:02.01Z</time></trkpt><trkpt lat="45.502811071719165" lon="8.669974546803045"><ele>163.0</ele><time>2026-04-19T11:44:03.01Z</time></trkpt><trkpt lat="45.502944979088966" lon="8.669907645743256"><ele>163.0</ele><time>2026-04-19T11:44:04.01Z</time></trkpt><trkpt lat="45.50307878549908" lon="8.669844612628046"><ele>163.0</ele><time>2026-04-19T11:44:05.01Z</time></trkpt><trkpt lat="45.50321522235655" lon="8.669788204354655"><ele>163.0</ele><time>2026-04-19T11:44:06.01Z</time></trkpt><trkpt lat="45.50335641365006" lon="8.669723830291584"><ele>163.0</ele><time>2026-04-19T11:44:07.01Z</time></trkpt><trkpt lat="45.50349706305638" lon="8.669659984661077"><ele>163.0</ele><time>2026-04-19T11:44:08.01Z</time></trkpt><trkpt lat="45.50363723043703" lon="8.66959913714085"><ele>163.0</ele><time>2026-04-19T11:44:09.01Z</time></trkpt><trkpt lat="45.503777179867065" lon="8.669534041639567"><ele>163.0</ele><time>2026-04-19T11:44:10.01Z</time></trkpt><trkpt lat="45.50391611506393" lon="8.669465134722119"><ele>163.0</ele><time>2026-04-19T11:44:11.01Z</time></trkpt><trkpt lat="45.50405532820931" lon="8.669395083177163"><ele>163.0</ele><time>2026-04-19T11:44:12.01Z</time></trkpt><trkpt lat="45.5041945017168" lon="8.669320181256188"><ele>163.0</ele><time>2026-04-19T11:44:13.01Z</time></trkpt><trkpt lat="45.504333530842324" lon="8.669247009249322"><ele>163.0</ele><time>2026-04-19T11:44:14.01Z</time></trkpt><trkpt lat="45.50447200775428" lon="8.669176887701939"><ele>163.0</ele><time>2026-04-19T11:44:15.01Z</time></trkpt><trkpt lat="45.50461218137527" lon="8.669106639208936"><ele>163.0</ele><time>2026-04-19T11:44:16.01Z</time></trkpt><trkpt lat="45.504752227907964" lon="8.669037552409913"><ele>162.66666666666669</ele><time>2026-04-19T11:44:17.01Z</time></trkpt><trkpt lat="45.50489339305764" lon="8.668964103123184"><ele>162.33333333333334</ele><time>2026-04-19T11:44:18.01Z</time></trkpt><trkpt lat="45.505031426056505" lon="8.668883330159012"><ele>162.0</ele><time>2026-04-19T11:44:19.01Z</time></trkpt><trkpt lat="45.50517042676619" lon="8.668794849407409"><ele>162.0</ele><time>2026-04-19T11:44:20.01Z</time></trkpt><trkpt lat="45.50530741299259" lon="8.668710713176097"><ele>162.0</ele><time>2026-04-19T11:44:21.01Z</time></trkpt><trkpt lat="45.505444807687425" lon="8.668631841870994"><ele>162.0</ele><time>2026-04-19T11:44:22.01Z</time></trkpt><trkpt lat="45.50558142227821" lon="8.668554925557414"><ele>162.0</ele><time>2026-04-19T11:44:23.01Z</time></trkpt><trkpt lat="45.505717945731504" lon="8.668480563993873"><ele>162.5</ele><time>2026-04-19T11:44:24.01Z</time></trkpt><trkpt lat="45.505856159847255" lon="8.668410430039577"><ele>163.0</ele><time>2026-04-19T11:44:25.01Z</time></trkpt><trkpt lat="45.50599597491251" lon="8.668335384696276"><ele>163.5</ele><time>2026-04-19T11:44:26.01Z</time></trkpt><trkpt lat="45.50613669029532" lon="8.66827148277382"><ele>164.0</ele><time>2026-04-19T11:44:27.01Z</time></trkpt><trkpt lat="45.50626957470416" lon="8.668216144534881"><ele>164.5</ele><time>2026-04-19T11:44:28.01Z</time></trkpt><trkpt lat="45.50639642356939" lon="8.668155427733078"><ele>165.0</ele><time>2026-04-19T11:44:29.01Z</time></trkpt><trkpt lat="45.50652459200138" lon="8.668088589464817"><ele>165.5</ele><time>2026-04-19T11:44:30.01Z</time></trkpt><trkpt lat="45.506655995482305" lon="8.668013870017793"><ele>166.0</ele><time>2026-04-19T11:44:31.01Z</time></trkpt><trkpt lat="45.50678836577766" lon="8.667944021334632"><ele>166.0</ele><time>2026-04-19T11:44:32.01Z</time></trkpt><trkpt lat="45.50692292051421" lon="8.667877104847058"><ele>166.0</ele><time>2026-04-19T11:44:33.01Z</time></trkpt><trkpt lat="45.50705702257639" lon="8.667808773435937"><ele>166.0</ele><time>2026-04-19T11:44:34.01Z</time></trkpt><trkpt lat="45.50719591422246" lon="8.667746625561778"><ele>166.0</ele><time>2026-04-19T11:44:35.01Z</time></trkpt><trkpt lat="45.50733775358837" lon="8.667684198934731"><ele>166.0</ele><time>2026-04-19T11:44:36.01Z</time></trkpt><trkpt lat="45.507482215302794" lon="8.66761999891139"><ele>166.0</ele><time>2026-04-19T11:44:37.011Z</time></trkpt><trkpt lat="45.50762441730612" lon="8.667559625203099"><ele>166.0</ele><time>2026-04-19T11:44:38.011Z</time></trkpt><trkpt lat="45.507763776422124" lon="8.667493689498459"><ele>166.0</ele><time>2026-04-19T11:44:39.011Z</time></trkpt><trkpt lat="45.50790079722502" lon="8.667421824893822"><ele>165.5</ele><time>2026-04-19T11:44:40.011Z</time></trkpt><trkpt lat="45.508039344296144" lon="8.667352970713676"><ele>165.0</ele><time>2026-04-19T11:44:41.011Z</time></trkpt><trkpt lat="45.50817681008417" lon="8.667280822777837"><ele>164.5</ele><time>2026-04-19T11:44:42.011Z</time></trkpt><trkpt lat="45.50831550997047" lon="8.667212644296193"><ele>164.0</ele><time>2026-04-19T11:44:43.011Z</time></trkpt><trkpt lat="45.50845430116523" lon="8.667146286373653"><ele>164.0</ele><time>2026-04-19T11:44:44.011Z</time></trkpt><trkpt lat="45.50859384468263" lon="8.667082747022139"><ele>164.0</ele><time>2026-04-19T11:44:45.011Z</time></trkpt><trkpt lat="45.50873519313339" lon="8.667017319892652"><ele>164.0</ele><time>2026-04-19T11:44:46.011Z</time></trkpt><trkpt lat="45.50887720332239" lon="8.66695612722133"><ele>164.0</ele><time>2026-04-19T11:44:47.011Z</time></trkpt><trkpt lat="45.50900648861737" lon="8.66689613755866"><ele>164.25</ele><time>2026-04-19T11:44:48.011Z</time></trkpt><trkpt lat="45.50913018473137" lon="8.66683774081801"><ele>164.5</ele><time>2026-04-19T11:44:49.011Z</time></trkpt><trkpt lat="45.50924830285519" lon="8.666779867857036"><ele>164.75</ele><time>2026-04-19T11:44:50.011Z</time></trkpt><trkpt lat="45.509361009291396" lon="8.666734405720431"><ele>165.0</ele><time>2026-04-19T11:44:51.011Z</time></trkpt><trkpt lat="45.50946844123874" lon="8.666696555703536"><ele>165.0</ele><time>2026-04-19T11:44:52.011Z</time></trkpt><trkpt lat="45.509571422976784" lon="8.666681201986467"><ele>165.0</ele><time>2026-04-19T11:44:53.011Z</time></trkpt><trkpt lat="45.509668567096355" lon="8.666705031310165"><ele>165.0</ele><time>2026-04-19T11:44:54.011Z</time></trkpt><trkpt lat="45.50974939376301" lon="8.666725788915285"><ele>165.0</ele><time>2026-04-19T11:44:55.011Z</time></trkpt><trkpt lat="45.50981561958712" lon="8.666702213587985"><ele>165.0</ele><time>2026-04-19T11:44:56.011Z</time></trkpt><trkpt lat="45.50988461569426" lon="8.666625235206217"><ele>165.0</ele><time>2026-04-19T11:44:57.011Z</time></trkpt><trkpt lat="45.50996038066916" lon="8.666521187566225"><ele>165.75</ele><time>2026-04-19T11:44:58.011Z</time></trkpt><trkpt lat="45.51004965487816" lon="8.666441502278357"><ele>166.5</ele><time>2026-04-19T11:44:59.011Z</time></trkpt><trkpt lat="45.51015204964967" lon="8.66638272930475"><ele>167.25</ele><time>2026-04-19T11:45:00.011Z</time></trkpt><trkpt lat="45.51026622893364" lon="8.666331577546252"><ele>168.0</ele><time>2026-04-19T11:45:01.011Z</time></trkpt><trkpt lat="45.51038198854382" lon="8.666266370833869"><ele>168.0</ele><time>2026-04-19T11:45:02.011Z</time></trkpt><trkpt lat="45.51050014697231" lon="8.666188812158095"><ele>168.0</ele><time>2026-04-19T11:45:03.011Z</time></trkpt><trkpt lat="45.510614451182825" lon="8.666109180669993"><ele>168.0</ele><time>2026-04-19T11:45:04.011Z</time></trkpt><trkpt lat="45.51073376083096" lon="8.666016190981727"><ele>168.0</ele><time>2026-04-19T11:45:05.011Z</time></trkpt><trkpt lat="45.510855311123926" lon="8.665911848750206"><ele>167.25</ele><time>2026-04-19T11:45:06.011Z</time></trkpt><trkpt lat="45.51097592382013" lon="8.665798265254681"><ele>166.5</ele><time>2026-04-19T11:45:07.011Z</time></trkpt><trkpt lat="45.51109694449575" lon="8.665669879972057"><ele>165.75</ele><time>2026-04-19T11:45:08.011Z</time></trkpt><trkpt lat="45.51121283173255" lon="8.665530831037948"><ele>165.0</ele><time>2026-04-19T11:45:09.011Z</time></trkpt><trkpt lat="45.511320550877905" lon="8.6653863528066"><ele>165.0</ele><time>2026-04-19T11:45:10.011Z</time></trkpt><trkpt lat="45.51142680348027" lon="8.66522734657253"><ele>165.0</ele><time>2026-04-19T11:45:11.011Z</time></trkpt><trkpt lat="45.5115324587835" lon="8.665059454914163"><ele>165.0</ele><time>2026-04-19T11:45:12.011Z</time></trkpt><trkpt lat="45.511639477754684" lon="8.664889001772284"><ele>165.0</ele><time>2026-04-19T11:45:13.011Z</time></trkpt><trkpt lat="45.511745849029076" lon="8.664720118591609"><ele>165.0</ele><time>2026-04-19T11:45:14.011Z</time></trkpt><trkpt lat="45.51185014845313" lon="8.664546254439106"><ele>165.0</ele><time>2026-04-19T11:45:15.011Z</time></trkpt><trkpt lat="45.51195367461216" lon="8.664374563052478"><ele>165.33333333333334</ele><time>2026-04-19T11:45:16.011Z</time></trkpt><trkpt lat="45.51205881585405" lon="8.66420710873962"><ele>165.66666666666669</ele><time>2026-04-19T11:45:17.011Z</time></trkpt><trkpt lat="45.5121638535444" lon="8.664041640864376"><ele>166.0</ele><time>2026-04-19T11:45:18.011Z</time></trkpt><trkpt lat="45.5122690480819" lon="8.66387070393018"><ele>166.33333333333334</ele><time>2026-04-19T11:45:19.011Z</time></trkpt><trkpt lat="45.51237355256578" lon="8.663698271078509"><ele>166.66666666666666</ele><time>2026-04-19T11:45:20.011Z</time></trkpt><trkpt lat="45.51247692428599" lon="8.663524047127522"><ele>167.0</ele><time>2026-04-19T11:45:21.012Z</time></trkpt><trkpt lat="45.512582394895205" lon="8.663345117331536"><ele>167.0</ele><time>2026-04-19T11:45:22.012Z</time></trkpt><trkpt lat="45.512692517059" lon="8.663173017638567"><ele>167.0</ele><time>2026-04-19T11:45:23.012Z</time></trkpt><trkpt lat="45.512805837370166" lon="8.663008238452226"><ele>167.0</ele><time>2026-04-19T11:45:24.012Z</time></trkpt><trkpt lat="45.5129248569074" lon="8.662850348177694"><ele>167.0</ele><time>2026-04-19T11:45:25.012Z</time></trkpt><trkpt lat="45.51304902725983" lon="8.66270113521315"><ele>167.0</ele><time>2026-04-19T11:45:26.012Z</time></trkpt><trkpt lat="45.513168374859056" lon="8.662550177808397"><ele>167.0</ele><time>2026-04-19T11:45:27.012Z</time></trkpt><trkpt lat="45.513288255948574" lon="8.662404374955303"><ele>167.0</ele><time>2026-04-19T11:45:28.012Z</time></trkpt><trkpt lat="45.513401505194295" lon="8.662245021503992"><ele>167.0</ele><time>2026-04-19T11:45:29.012Z</time></trkpt><trkpt lat="45.513516161455605" lon="8.662078365528266"><ele>167.0</ele><time>2026-04-19T11:45:30.012Z</time></trkpt><trkpt lat="45.51362544439609" lon="8.66190114645659"><ele>166.33333333333331</ele><time>2026-04-19T11:45:31.012Z</time></trkpt><trkpt lat="45.51373308238053" lon="8.6617306979159"><ele>165.66666666666666</ele><time>2026-04-19T11:45:32.012Z</time></trkpt><trkpt lat="45.51385741546438" lon="8.661593036945366"><ele>165.0</ele><time>2026-04-19T11:45:33.012Z</time></trkpt><trkpt lat="45.513992582899434" lon="8.661471134550922"><ele>164.33333333333334</ele><time>2026-04-19T11:45:34.012Z</time></trkpt><trkpt lat="45.51413357445116" lon="8.661356554029902"><ele>163.66666666666669</ele><time>2026-04-19T11:45:35.012Z</time></trkpt><trkpt lat="45.51428037083201" lon="8.661248268389498"><ele>163.0</ele><time>2026-04-19T11:45:36.012Z</time></trkpt><trkpt lat="45.51442746800242" lon="8.661143943420164"><ele>163.66666666666669</ele><time>2026-04-19T11:45:37.012Z</time></trkpt><trkpt lat="45.51457665022253" lon="8.66103655387848"><ele>164.33333333333334</ele><time>2026-04-19T11:45:38.012Z</time></trkpt><trkpt lat="45.51472787201654" lon="8.660929470133857"><ele>165.0</ele><time>2026-04-19T11:45:39.012Z</time></trkpt><trkpt lat="45.51487943394844" lon="8.660822342099161"><ele>165.0</ele><time>2026-04-19T11:45:40.012Z</time></trkpt><trkpt lat="45.515031068192116" lon="8.660715269714494"><ele>165.0</ele><time>2026-04-19T11:45:41.012Z</time></trkpt><trkpt lat="45.5151810288703" lon="8.660609217688675"><ele>165.0</ele><time>2026-04-19T11:45:42.012Z</time></trkpt><trkpt lat="45.51533181591632" lon="8.66050059008408"><ele>164.66666666666666</ele><time>2026-04-19T11:45:43.012Z</time></trkpt><trkpt lat="45.515481976970825" lon="8.660393045845261"><ele>164.33333333333331</ele><time>2026-04-19T11:45:44.012Z</time></trkpt><trkpt lat="45.51563490913155" lon="8.660285920469423"><ele>164.0</ele><time>2026-04-19T11:45:45.012Z</time></trkpt><trkpt lat="45.515787923063826" lon="8.660179744208211"><ele>164.0</ele><time>2026-04-19T11:45:46.012Z</time></trkpt><trkpt lat="45.51594017550642" lon="8.660072720911009"><ele>164.0</ele><time>2026-04-19T11:45:47.012Z</time></trkpt><trkpt lat="45.516092361636765" lon="8.659966875730928"><ele>164.0</ele><time>2026-04-19T11:45:48.012Z</time></trkpt><trkpt lat="45.51624740411983" lon="8.659867258499911"><ele>164.33333333333331</ele><time>2026-04-19T11:45:49.012Z</time></trkpt><trkpt lat="45.516407902896155" lon="8.659771766966381"><ele>164.66666666666666</ele><time>2026-04-19T11:45:50.012Z</time></trkpt><trkpt lat="45.51656830502148" lon="8.659680122597512"><ele>165.0</ele><time>2026-04-19T11:45:51.012Z</time></trkpt><trkpt lat="45.51672643933494" lon="8.65959292290975"><ele>165.0</ele><time>2026-04-19T11:45:52.012Z</time></trkpt><trkpt lat="45.516883100353546" lon="8.659502360571864"><ele>165.0</ele><time>2026-04-19T11:45:53.012Z</time></trkpt><trkpt lat="45.51703984459107" lon="8.659409414241654"><ele>165.0</ele><time>2026-04-19T11:45:54.012Z</time></trkpt><trkpt lat="45.517198731661004" lon="8.65931693107723"><ele>166.0</ele><time>2026-04-19T11:45:55.012Z</time></trkpt><trkpt lat="45.517358364284746" lon="8.659229038558617"><ele>167.0</ele><time>2026-04-19T11:45:56.012Z</time></trkpt><trkpt lat="45.517521364427054" lon="8.659150226120241"><ele>168.0</ele><time>2026-04-19T11:45:57.012Z</time></trkpt><trkpt lat="45.51768563401902" lon="8.659081104064942"><ele>168.0</ele><time>2026-04-19T11:45:58.012Z</time></trkpt><trkpt lat="45.517852401265834" lon="8.659021476778804"><ele>168.0</ele><time>2026-04-19T11:45:59.012Z</time></trkpt><trkpt lat="45.518016925574436" lon="8.658968611418754"><ele>168.0</ele><time>2026-04-19T11:46:00.012Z</time></trkpt><trkpt lat="45.51817940138037" lon="8.658914403261441"><ele>167.66666666666666</ele><time>2026-04-19T11:46:01.012Z</time></trkpt><trkpt lat="45.518340742341245" lon="8.658858788725823"><ele>167.33333333333331</ele><time>2026-04-19T11:46:02.012Z</time></trkpt><trkpt lat="45.51850345298836" lon="8.6588017046968"><ele>167.0</ele><time>2026-04-19T11:46:03.012Z</time></trkpt><trkpt lat="45.51866851766472" lon="8.65874458832821"><ele>166.66666666666666</ele><time>2026-04-19T11:46:04.012Z</time></trkpt><trkpt lat="45.5188341199095" lon="8.658690268869398"><ele>166.33333333333334</ele><time>2026-04-19T11:46:05.012Z</time></trkpt><trkpt lat="45.51900040872576" lon="8.658642127035142"><ele>166.0</ele><time>2026-04-19T11:46:06.013Z</time></trkpt><trkpt lat="45.519169669097735" lon="8.658598315622442"><ele>165.66666666666669</ele><time>2026-04-19T11:46:07.013Z</time></trkpt><trkpt lat="45.5193401999869" lon="8.658557937498522"><ele>165.33333333333334</ele><time>2026-04-19T11:46:08.013Z</time></trkpt><trkpt lat="45.51951260992503" lon="8.658520288567484"><ele>165.0</ele><time>2026-04-19T11:46:09.013Z</time></trkpt><trkpt lat="45.51968540578494" lon="8.658486219906049"><ele>166.0</ele><time>2026-04-19T11:46:10.013Z</time></trkpt><trkpt lat="45.519857348225464" lon="8.658452050371773"><ele>167.0</ele><time>2026-04-19T11:46:11.013Z</time></trkpt><trkpt lat="45.52003180369868" lon="8.658420396010817"><ele>168.0</ele><time>2026-04-19T11:46:12.013Z</time></trkpt><trkpt lat="45.52020593836216" lon="8.658393203127225"><ele>168.0</ele><time>2026-04-19T11:46:13.013Z</time></trkpt><trkpt lat="45.5203818063479" lon="8.658370710933431"><ele>168.0</ele><time>2026-04-19T11:46:14.013Z</time></trkpt><trkpt lat="45.52055600654517" lon="8.658352347126442"><ele>168.0</ele><time>2026-04-19T11:46:15.013Z</time></trkpt><trkpt lat="45.520728708537256" lon="8.658337296142015"><ele>168.0</ele><time>2026-04-19T11:46:16.013Z</time></trkpt><trkpt lat="45.52089672739495" lon="8.6583253717678"><ele>168.0</ele><time>2026-04-19T11:46:17.013Z</time></trkpt><trkpt lat="45.52106091881815" lon="8.65831464342924"><ele>168.0</ele><time>2026-04-19T11:46:18.013Z</time></trkpt><trkpt lat="45.52121963575365" lon="8.658308334054132"><ele>168.5</ele><time>2026-04-19T11:46:19.013Z</time></trkpt><trkpt lat="45.521366430634714" lon="8.658302808309536"><ele>169.0</ele><time>2026-04-19T11:46:20.013Z</time></trkpt><trkpt lat="45.52150727593502" lon="8.658296376210586"><ele>169.5</ele><time>2026-04-19T11:46:21.013Z</time></trkpt><trkpt lat="45.52165542823054" lon="8.65829805259199"><ele>170.0</ele><time>2026-04-19T11:46:22.013Z</time></trkpt><trkpt lat="45.521800938088035" lon="8.658303008822108"><ele>170.0</ele><time>2026-04-19T11:46:23.013Z</time></trkpt><trkpt lat="45.521948706122814" lon="8.658296483046493"><ele>170.0</ele><time>2026-04-19T11:46:24.013Z</time></trkpt><trkpt lat="45.52209986863394" lon="8.658284247341058"><ele>170.0</ele><time>2026-04-19T11:46:25.013Z</time></trkpt><trkpt lat="45.52225660190131" lon="8.65828192964877"><ele>170.33333333333331</ele><time>2026-04-19T11:46:26.013Z</time></trkpt><trkpt lat="45.522415236572634" lon="8.658286527153468"><ele>170.66666666666666</ele><time>2026-04-19T11:46:27.013Z</time></trkpt><trkpt lat="45.52257266849682" lon="8.658287557670949"><ele>171.0</ele><time>2026-04-19T11:46:28.013Z</time></trkpt><trkpt lat="45.522732668123204" lon="8.65828322702323"><ele>171.0</ele><time>2026-04-19T11:46:29.013Z</time></trkpt><trkpt lat="45.52289586590035" lon="8.65828142930591"><ele>171.0</ele><time>2026-04-19T11:46:30.013Z</time></trkpt><trkpt lat="45.5230608273417" lon="8.658284606988808"><ele>171.0</ele><time>2026-04-19T11:46:31.013Z</time></trkpt><trkpt lat="45.523226599103744" lon="8.658287982927483"><ele>172.0</ele><time>2026-04-19T11:46:32.013Z</time></trkpt><trkpt lat="45.52339207360051" lon="8.65829153630403"><ele>173.0</ele><time>2026-04-19T11:46:33.013Z</time></trkpt><trkpt lat="45.523556778772544" lon="8.658292394324963"><ele>174.0</ele><time>2026-04-19T11:46:34.013Z</time></trkpt><trkpt lat="45.52372253720325" lon="8.658293527516422"><ele>173.66666666666666</ele><time>2026-04-19T11:46:35.013Z</time></trkpt><trkpt lat="45.52388730759794" lon="8.658294648948468"><ele>173.33333333333331</ele><time>2026-04-19T11:46:36.013Z</time></trkpt><trkpt lat="45.524052686586124" lon="8.658296945502912"><ele>173.0</ele><time>2026-04-19T11:46:37.013Z</time></trkpt><trkpt lat="45.52421983416769" lon="8.658297605688261"><ele>173.0</ele><time>2026-04-19T11:46:38.013Z</time></trkpt><trkpt lat="45.5243859221432" lon="8.65829227459025"><ele>173.0</ele><time>2026-04-19T11:46:39.013Z</time></trkpt><trkpt lat="45.52454901110513" lon="8.658289721913977"><ele>173.0</ele><time>2026-04-19T11:46:40.013Z</time></trkpt><trkpt lat="45.52470858204181" lon="8.658289049766628"><ele>174.0</ele><time>2026-04-19T11:46:41.013Z</time></trkpt><trkpt lat="45.52486457058249" lon="8.658282459298139"><ele>175.0</ele><time>2026-04-19T11:46:42.013Z</time></trkpt><trkpt lat="45.525014568169034" lon="8.658253180414214"><ele>176.0</ele><time>2026-04-19T11:46:43.013Z</time></trkpt><trkpt lat="45.52515910889918" lon="8.658207826953122"><ele>176.0</ele><time>2026-04-19T11:46:44.013Z</time></trkpt><trkpt lat="45.52529771143834" lon="8.658138978728767"><ele>176.0</ele><time>2026-04-19T11:46:45.013Z</time></trkpt><trkpt lat="45.52543247238428" lon="8.658052340104287"><ele>176.0</ele><time>2026-04-19T11:46:46.013Z</time></trkpt><trkpt lat="45.52557069084483" lon="8.657959358438042"><ele>176.0</ele><time>2026-04-19T11:46:47.013Z</time></trkpt><trkpt lat="45.5257170971917" lon="8.657877999089473"><ele>175.66666666666666</ele><time>2026-04-19T11:46:48.013Z</time></trkpt><trkpt lat="45.52586688164013" lon="8.657815171025197"><ele>175.33333333333334</ele><time>2026-04-19T11:46:49.013Z</time></trkpt><trkpt lat="45.52601989600814" lon="8.657762847757976"><ele>175.0</ele><time>2026-04-19T11:46:50.013Z</time></trkpt><trkpt lat="45.526172717703254" lon="8.657717096338661"><ele>175.0</ele><time>2026-04-19T11:46:51.014Z</time></trkpt><trkpt lat="45.52632295017445" lon="8.657660996582191"><ele>175.0</ele><time>2026-04-19T11:46:52.014Z</time></trkpt><trkpt lat="45.52646991681194" lon="8.657578336220087"><ele>175.0</ele><time>2026-04-19T11:46:53.014Z</time></trkpt><trkpt lat="45.52661518117782" lon="8.657479008542463"><ele>175.0</ele><time>2026-04-19T11:46:54.014Z</time></trkpt><trkpt lat="45.5267604117854" lon="8.657365569269379"><ele>175.0</ele><time>2026-04-19T11:46:55.014Z</time></trkpt><trkpt lat="45.52690474741139" lon="8.657236320096985"><ele>175.0</ele><time>2026-04-19T11:46:56.014Z</time></trkpt><trkpt lat="45.527050970413285" lon="8.657103158759252"><ele>175.0</ele><time>2026-04-19T11:46:57.014Z</time></trkpt><trkpt lat="45.52719967833422" lon="8.656972176790898"><ele>175.0</ele><time>2026-04-19T11:46:58.014Z</time></trkpt><trkpt lat="45.52734778354214" lon="8.656841823921027"><ele>175.0</ele><time>2026-04-19T11:46:59.014Z</time></trkpt><trkpt lat="45.527497477033805" lon="8.65671451358039"><ele>175.0</ele><time>2026-04-19T11:47:00.014Z</time></trkpt><trkpt lat="45.527646264672356" lon="8.656586397216325"><ele>175.0</ele><time>2026-04-19T11:47:01.014Z</time></trkpt><trkpt lat="45.5277927767569" lon="8.65645430226667"><ele>175.0</ele><time>2026-04-19T11:47:02.014Z</time></trkpt><trkpt lat="45.527936025438855" lon="8.656325973989498"><ele>175.66666666666669</ele><time>2026-04-19T11:47:03.014Z</time></trkpt><trkpt lat="45.52807985542215" lon="8.656199332658225"><ele>176.33333333333334</ele><time>2026-04-19T11:47:04.014Z</time></trkpt><trkpt lat="45.52822410331534" lon="8.656075504188813"><ele>177.0</ele><time>2026-04-19T11:47:05.014Z</time></trkpt><trkpt lat="45.52837020048764" lon="8.655951946683327"><ele>177.0</ele><time>2026-04-19T11:47:06.014Z</time></trkpt><trkpt lat="45.52851571809119" lon="8.65582354669569"><ele>177.0</ele><time>2026-04-19T11:47:07.014Z</time></trkpt><trkpt lat="45.52866048285366" lon="8.65569708504945"><ele>177.0</ele><time>2026-04-19T11:47:08.014Z</time></trkpt><trkpt lat="45.52880658334636" lon="8.655571519401215"><ele>177.33333333333334</ele><time>2026-04-19T11:47:09.014Z</time></trkpt><trkpt lat="45.52895276848232" lon="8.65544452213802"><ele>177.66666666666669</ele><time>2026-04-19T11:47:10.014Z</time></trkpt><trkpt lat="45.52909810988545" lon="8.655317613472022"><ele>178.0</ele><time>2026-04-19T11:47:11.014Z</time></trkpt><trkpt lat="45.529246049223865" lon="8.65518994737099"><ele>177.0</ele><time>2026-04-19T11:47:12.014Z</time></trkpt><trkpt lat="45.529392852629925" lon="8.655063087610282"><ele>176.0</ele><time>2026-04-19T11:47:13.014Z</time></trkpt><trkpt lat="45.52954071935294" lon="8.654936216397692"><ele>175.0</ele><time>2026-04-19T11:47:14.014Z</time></trkpt><trkpt lat="45.52969038908281" lon="8.65480853238611"><ele>175.0</ele><time>2026-04-19T11:47:15.014Z</time></trkpt><trkpt lat="45.52984181805323" lon="8.654682301356551"><ele>175.0</ele><time>2026-04-19T11:47:16.014Z</time></trkpt><trkpt lat="45.52999196327597" lon="8.654554961654739"><ele>175.0</ele><time>2026-04-19T11:47:17.014Z</time></trkpt><trkpt lat="45.53014153253183" lon="8.65442622563624"><ele>174.66666666666669</ele><time>2026-04-19T11:47:18.014Z</time></trkpt><trkpt lat="45.53029167708442" lon="8.654300749528687"><ele>174.33333333333334</ele><time>2026-04-19T11:47:19.014Z</time></trkpt><trkpt lat="45.53044157654511" lon="8.654180127335268"><ele>174.0</ele><time>2026-04-19T11:47:20.014Z</time></trkpt><trkpt lat="45.530589822792216" lon="8.654068699179481"><ele>174.0</ele><time>2026-04-19T11:47:21.014Z</time></trkpt><trkpt lat="45.530728390123755" lon="8.653977296352432"><ele>174.0</ele><time>2026-04-19T11:47:22.014Z</time></trkpt><trkpt lat="45.53086461162" lon="8.65390762768483"><ele>174.0</ele><time>2026-04-19T11:47:23.014Z</time></trkpt><trkpt lat="45.53099828477308" lon="8.653870353719835"><ele>174.0</ele><time>2026-04-19T11:47:24.014Z</time></trkpt><trkpt lat="45.53112906538186" lon="8.65387057929775"><ele>174.25</ele><time>2026-04-19T11:47:25.014Z</time></trkpt><trkpt lat="45.53126181187196" lon="8.653892130888266"><ele>174.5</ele><time>2026-04-19T11:47:26.014Z</time></trkpt><trkpt lat="45.53139523339092" lon="8.653922623129354"><ele>174.75</ele><time>2026-04-19T11:47:27.014Z</time></trkpt><trkpt lat="45.531533202214064" lon="8.653903293929334"><ele>175.0</ele><time>2026-04-19T11:47:28.014Z</time></trkpt><trkpt lat="45.53167205786096" lon="8.653861332873326"><ele>175.0</ele><time>2026-04-19T11:47:29.014Z</time></trkpt><trkpt lat="45.53181569365023" lon="8.653857994844435"><ele>175.0</ele><time>2026-04-19T11:47:30.014Z</time></trkpt><trkpt lat="45.53196030906995" lon="8.653894468407252"><ele>175.0</ele><time>2026-04-19T11:47:31.014Z</time></trkpt><trkpt lat="45.53210334425176" lon="8.653949324019539"><ele>175.0</ele><time>2026-04-19T11:47:32.014Z</time></trkpt><trkpt lat="45.53224810171907" lon="8.654012976640322"><ele>176.0</ele><time>2026-04-19T11:47:33.014Z</time></trkpt><trkpt lat="45.532394976977535" lon="8.65408225584849"><ele>177.0</ele><time>2026-04-19T11:47:34.014Z</time></trkpt><trkpt lat="45.53254476894324" lon="8.654158555983056"><ele>178.0</ele><time>2026-04-19T11:47:35.014Z</time></trkpt><trkpt lat="45.5326957634456" lon="8.654239678225242"><ele>178.0</ele><time>2026-04-19T11:47:36.015Z</time></trkpt><trkpt lat="45.532853427683925" lon="8.654318070657506"><ele>178.0</ele><time>2026-04-19T11:47:37.015Z</time></trkpt><trkpt lat="45.533010255048026" lon="8.654392855936546"><ele>178.0</ele><time>2026-04-19T11:47:38.015Z</time></trkpt><trkpt lat="45.533169176719674" lon="8.654466117146391"><ele>179.33333333333334</ele><time>2026-04-19T11:47:39.015Z</time></trkpt><trkpt lat="45.53333236609426" lon="8.654539574212054"><ele>180.66666666666666</ele><time>2026-04-19T11:47:40.015Z</time></trkpt><trkpt lat="45.53349708285092" lon="8.654616978777206"><ele>182.0</ele><time>2026-04-19T11:47:41.015Z</time></trkpt><trkpt lat="45.53366232868833" lon="8.654696864522343"><ele>181.0</ele><time>2026-04-19T11:47:42.015Z</time></trkpt><trkpt lat="45.53382943871213" lon="8.65477764807683"><ele>180.0</ele><time>2026-04-19T11:47:43.015Z</time></trkpt><trkpt lat="45.53399676632284" lon="8.65485734217584"><ele>179.0</ele><time>2026-04-19T11:47:44.015Z</time></trkpt><trkpt lat="45.53416665609863" lon="8.654936731406126"><ele>179.0</ele><time>2026-04-19T11:47:45.015Z</time></trkpt><trkpt lat="45.534336697672934" lon="8.655015585145037"><ele>179.0</ele><time>2026-04-19T11:47:46.015Z</time></trkpt><trkpt lat="45.534504602164525" lon="8.655091262124893"><ele>179.0</ele><time>2026-04-19T11:47:47.015Z</time></trkpt><trkpt lat="45.53467381898161" lon="8.65517038999171"><ele>178.33333333333331</ele><time>2026-04-19T11:47:48.015Z</time></trkpt><trkpt lat="45.53484350087972" lon="8.655247601658127"><ele>177.66666666666666</ele><time>2026-04-19T11:47:49.015Z</time></trkpt><trkpt lat="45.535015703366945" lon="8.65531664834868"><ele>177.0</ele><time>2026-04-19T11:47:50.015Z</time></trkpt><trkpt lat="45.53519384526564" lon="8.65536348540563"><ele>177.0</ele><time>2026-04-19T11:47:51.015Z</time></trkpt><trkpt lat="45.53537289403981" lon="8.655379377718102"><ele>177.0</ele><time>2026-04-19T11:47:52.015Z</time></trkpt><trkpt lat="45.53555257806008" lon="8.655376095244304"><ele>177.0</ele><time>2026-04-19T11:47:53.015Z</time></trkpt><trkpt lat="45.53573214989112" lon="8.655355275335273"><ele>177.0</ele><time>2026-04-19T11:47:54.015Z</time></trkpt><trkpt lat="45.53591225959977" lon="8.655318089765528"><ele>177.0</ele><time>2026-04-19T11:47:55.015Z</time></trkpt><trkpt lat="45.536089992173736" lon="8.655263633240713"><ele>177.0</ele><time>2026-04-19T11:47:56.015Z</time></trkpt><trkpt lat="45.53626569894414" lon="8.655191421690967"><ele>177.66666666666666</ele><time>2026-04-19T11:47:57.015Z</time></trkpt><trkpt lat="45.53643874003344" lon="8.655108644901057"><ele>178.33333333333331</ele><time>2026-04-19T11:47:58.015Z</time></trkpt><trkpt lat="45.53661312199965" lon="8.655029691819951"><ele>179.0</ele><time>2026-04-19T11:47:59.015Z</time></trkpt><trkpt lat="45.536790504693336" lon="8.654963897759485"><ele>179.0</ele><time>2026-04-19T11:48:00.015Z</time></trkpt><trkpt lat="45.53697010084951" lon="8.654893191243227"><ele>179.0</ele><time>2026-04-19T11:48:01.015Z</time></trkpt><trkpt lat="45.53715016408317" lon="8.654821497105402"><ele>179.0</ele><time>2026-04-19T11:48:02.015Z</time></trkpt><trkpt lat="45.53733394579483" lon="8.65474472596738"><ele>178.66666666666666</ele><time>2026-04-19T11:48:03.015Z</time></trkpt><trkpt lat="45.53751987708285" lon="8.654669167218074"><ele>178.33333333333334</ele><time>2026-04-19T11:48:04.015Z</time></trkpt><trkpt lat="45.537705423626974" lon="8.654592551950351"><ele>178.0</ele><time>2026-04-19T11:48:05.015Z</time></trkpt><trkpt lat="45.53789075292684" lon="8.654516257204522"><ele>178.66666666666669</ele><time>2026-04-19T11:48:06.015Z</time></trkpt><trkpt lat="45.53807861693078" lon="8.654440454827627"><ele>179.33333333333334</ele><time>2026-04-19T11:48:07.015Z</time></trkpt><trkpt lat="45.538267943405145" lon="8.654361627742698"><ele>180.0</ele><time>2026-04-19T11:48:08.015Z</time></trkpt><trkpt lat="45.53845807749786" lon="8.654281846724345"><ele>180.0</ele><time>2026-04-19T11:48:09.015Z</time></trkpt><trkpt lat="45.5386473424157" lon="8.654197838248894"><ele>180.0</ele><time>2026-04-19T11:48:10.015Z</time></trkpt><trkpt lat="45.53883601844239" lon="8.654113555629943"><ele>180.0</ele><time>2026-04-19T11:48:11.015Z</time></trkpt><trkpt lat="45.53902461483131" lon="8.654030524192628"><ele>179.66666666666666</ele><time>2026-04-19T11:48:12.015Z</time></trkpt><trkpt lat="45.53921531217256" lon="8.653950978890826"><ele>179.33333333333331</ele><time>2026-04-19T11:48:13.015Z</time></trkpt><trkpt lat="45.539407501759264" lon="8.653873285855296"><ele>179.0</ele><time>2026-04-19T11:48:14.015Z</time></trkpt><trkpt lat="45.53959678056753" lon="8.653795263935814"><ele>179.0</ele><time>2026-04-19T11:48:15.015Z</time></trkpt><trkpt lat="45.5397876805749" lon="8.653715205122616"><ele>179.0</ele><time>2026-04-19T11:48:16.015Z</time></trkpt><trkpt lat="45.53997946148933" lon="8.653637038806016"><ele>179.0</ele><time>2026-04-19T11:48:17.015Z</time></trkpt><trkpt lat="45.54017191424093" lon="8.653555620356116"><ele>178.66666666666666</ele><time>2026-04-19T11:48:18.015Z</time></trkpt><trkpt lat="45.54036623371462" lon="8.65347891610396"><ele>178.33333333333334</ele><time>2026-04-19T11:48:19.015Z</time></trkpt><trkpt lat="45.54055995758734" lon="8.65340476294502"><ele>178.0</ele><time>2026-04-19T11:48:20.016Z</time></trkpt><trkpt lat="45.540753763880055" lon="8.653325045474968"><ele>178.0</ele><time>2026-04-19T11:48:21.016Z</time></trkpt><trkpt lat="45.54094505253178" lon="8.65324356787818"><ele>178.0</ele><time>2026-04-19T11:48:22.016Z</time></trkpt><trkpt lat="45.541136569312386" lon="8.653160289498725"><ele>178.0</ele><time>2026-04-19T11:48:23.016Z</time></trkpt><trkpt lat="45.541328305813096" lon="8.653080718772138"><ele>176.66666666666669</ele><time>2026-04-19T11:48:24.016Z</time></trkpt><trkpt lat="45.54151895128717" lon="8.653001767676665"><ele>175.33333333333334</ele><time>2026-04-19T11:48:25.016Z</time></trkpt><trkpt lat="45.54170921275984" lon="8.652919564733352"><ele>174.0</ele><time>2026-04-19T11:48:26.016Z</time></trkpt><trkpt lat="45.54189970099957" lon="8.652837029364768"><ele>176.66666666666666</ele><time>2026-04-19T11:48:27.016Z</time></trkpt><trkpt lat="45.542089981649156" lon="8.652756338964146"><ele>179.33333333333331</ele><time>2026-04-19T11:48:28.016Z</time></trkpt><trkpt lat="45.54228155691925" lon="8.652673096307003"><ele>182.0</ele><time>2026-04-19T11:48:29.016Z</time></trkpt><trkpt lat="45.54247229522904" lon="8.652590801245177"><ele>182.0</ele><time>2026-04-19T11:48:30.016Z</time></trkpt><trkpt lat="45.5426652613609" lon="8.652508178331647"><ele>182.0</ele><time>2026-04-19T11:48:31.016Z</time></trkpt><trkpt lat="45.54285723247679" lon="8.652426649847303"><ele>182.0</ele><time>2026-04-19T11:48:32.016Z</time></trkpt><trkpt lat="45.54305229299901" lon="8.652342373871214"><ele>182.0</ele><time>2026-04-19T11:48:33.016Z</time></trkpt><trkpt lat="45.5432418408655" lon="8.65226002034573"><ele>182.0</ele><time>2026-04-19T11:48:34.016Z</time></trkpt><trkpt lat="45.543435574122014" lon="8.652184026322658"><ele>182.0</ele><time>2026-04-19T11:48:35.016Z</time></trkpt><trkpt lat="45.5436297156477" lon="8.65210690724243"><ele>182.66666666666666</ele><time>2026-04-19T11:48:36.016Z</time></trkpt><trkpt lat="45.54382336015618" lon="8.652024835468513"><ele>183.33333333333334</ele><time>2026-04-19T11:48:37.016Z</time></trkpt><trkpt lat="45.54401795682422" lon="8.651945663643254"><ele>184.0</ele><time>2026-04-19T11:48:38.016Z</time></trkpt><trkpt lat="45.54421144901208" lon="8.651870620917474"><ele>184.33333333333334</ele><time>2026-04-19T11:48:39.016Z</time></trkpt><trkpt lat="45.544408155527" lon="8.651800950379101"><ele>184.66666666666666</ele><time>2026-04-19T11:48:40.016Z</time></trkpt><trkpt lat="45.54460803803851" lon="8.65173411945305"><ele>185.0</ele><time>2026-04-19T11:48:41.016Z</time></trkpt><trkpt lat="45.54480245017524" lon="8.651666668737555"><ele>184.0</ele><time>2026-04-19T11:48:42.016Z</time></trkpt><trkpt lat="45.54499655566434" lon="8.651606056218688"><ele>183.0</ele><time>2026-04-19T11:48:43.016Z</time></trkpt><trkpt lat="45.545191823249624" lon="8.651543571461234"><ele>182.0</ele><time>2026-04-19T11:48:44.016Z</time></trkpt><trkpt lat="45.54538634768354" lon="8.651481077817254"><ele>181.66666666666666</ele><time>2026-04-19T11:48:45.016Z</time></trkpt><trkpt lat="45.54557906307899" lon="8.651418992428114"><ele>181.33333333333334</ele><time>2026-04-19T11:48:46.016Z</time></trkpt><trkpt lat="45.5457728706673" lon="8.65135716857987"><ele>181.0</ele><time>2026-04-19T11:48:47.016Z</time></trkpt><trkpt lat="45.54596479568977" lon="8.651294171014195"><ele>181.0</ele><time>2026-04-19T11:48:48.016Z</time></trkpt><trkpt lat="45.54615822050983" lon="8.65122762403944"><ele>181.0</ele><time>2026-04-19T11:48:49.016Z</time></trkpt><trkpt lat="45.546350142883895" lon="8.65115689971572"><ele>181.0</ele><time>2026-04-19T11:48:50.016Z</time></trkpt><trkpt lat="45.54654459031282" lon="8.651082773743836"><ele>181.33333333333334</ele><time>2026-04-19T11:48:51.016Z</time></trkpt><trkpt lat="45.5467402765398" lon="8.651008497429748"><ele>181.66666666666666</ele><time>2026-04-19T11:48:52.016Z</time></trkpt><trkpt lat="45.54693542144639" lon="8.650937323793611"><ele>182.0</ele><time>2026-04-19T11:48:53.016Z</time></trkpt><trkpt lat="45.54713502118081" lon="8.65086687727552"><ele>182.66666666666666</ele><time>2026-04-19T11:48:54.016Z</time></trkpt><trkpt lat="45.54733255811907" lon="8.650793715706595"><ele>183.33333333333334</ele><time>2026-04-19T11:48:55.016Z</time></trkpt><trkpt lat="45.5475314294417" lon="8.6507207669086"><ele>184.0</ele><time>2026-04-19T11:48:56.016Z</time></trkpt><trkpt lat="45.54772835640183" lon="8.650650548621366"><ele>184.66666666666669</ele><time>2026-04-19T11:48:57.016Z</time></trkpt><trkpt lat="45.54792706792082" lon="8.650580456243716"><ele>185.33333333333334</ele><time>2026-04-19T11:48:58.016Z</time></trkpt><trkpt lat="45.54812396567894" lon="8.65051085615594"><ele>186.0</ele><time>2026-04-19T11:48:59.016Z</time></trkpt><trkpt lat="45.54832095130655" lon="8.650436991512038"><ele>186.0</ele><time>2026-04-19T11:49:00.016Z</time></trkpt><trkpt lat="45.54851815127374" lon="8.650367768820413"><ele>186.0</ele><time>2026-04-19T11:49:01.016Z</time></trkpt><trkpt lat="45.54871287151317" lon="8.650297630708843"><ele>186.0</ele><time>2026-04-19T11:49:02.016Z</time></trkpt><trkpt lat="45.54890490864034" lon="8.650226950333055"><ele>185.33333333333334</ele><time>2026-04-19T11:49:03.016Z</time></trkpt><trkpt lat="45.54909792852519" lon="8.650155515392056"><ele>184.66666666666669</ele><time>2026-04-19T11:49:04.016Z</time></trkpt><trkpt lat="45.54929015010375" lon="8.650086924427868"><ele>184.0</ele><time>2026-04-19T11:49:05.017Z</time></trkpt><trkpt lat="45.549480018817746" lon="8.6500131535207"><ele>183.66666666666669</ele><time>2026-04-19T11:49:06.017Z</time></trkpt><trkpt lat="45.54967174551578" lon="8.649940121563459"><ele>183.33333333333334</ele><time>2026-04-19T11:49:07.017Z</time></trkpt><trkpt lat="45.549861556057245" lon="8.649867039825438"><ele>183.0</ele><time>2026-04-19T11:49:08.017Z</time></trkpt><trkpt lat="45.550050347279665" lon="8.649798015970605"><ele>183.0</ele><time>2026-04-19T11:49:09.017Z</time></trkpt><trkpt lat="45.55024165842399" lon="8.649729943909021"><ele>183.0</ele><time>2026-04-19T11:49:10.017Z</time></trkpt><trkpt lat="45.55043249891809" lon="8.649662049973454"><ele>183.0</ele><time>2026-04-19T11:49:11.017Z</time></trkpt><trkpt lat="45.55062253920611" lon="8.649593414801462"><ele>183.0</ele><time>2026-04-19T11:49:12.017Z</time></trkpt><trkpt lat="45.55081146795983" lon="8.649522229013298"><ele>183.0</ele><time>2026-04-19T11:49:13.017Z</time></trkpt><trkpt lat="45.551000227153445" lon="8.649452086874657"><ele>183.0</ele><time>2026-04-19T11:49:14.017Z</time></trkpt><trkpt lat="45.55118799261388" lon="8.64938330221261"><ele>183.0</ele><time>2026-04-19T11:49:15.017Z</time></trkpt><trkpt lat="45.5513766546656" lon="8.649317484487783"><ele>183.0</ele><time>2026-04-19T11:49:16.017Z</time></trkpt><trkpt lat="45.551564902018406" lon="8.649250026467143"><ele>183.0</ele><time>2026-04-19T11:49:17.017Z</time></trkpt><trkpt lat="45.55175438553806" lon="8.649180265062412"><ele>183.0</ele><time>2026-04-19T11:49:18.017Z</time></trkpt><trkpt lat="45.55194390681865" lon="8.649111081974072"><ele>183.0</ele><time>2026-04-19T11:49:19.017Z</time></trkpt><trkpt lat="45.55213327487472" lon="8.649040925608439"><ele>183.0</ele><time>2026-04-19T11:49:20.017Z</time></trkpt><trkpt lat="45.55232325446767" lon="8.648972015687919"><ele>183.33333333333334</ele><time>2026-04-19T11:49:21.017Z</time></trkpt><trkpt lat="45.552514768744544" lon="8.648906591256589"><ele>183.66666666666669</ele><time>2026-04-19T11:49:22.017Z</time></trkpt><trkpt lat="45.552705180260894" lon="8.648843905005899"><ele>184.0</ele><time>2026-04-19T11:49:23.017Z</time></trkpt><trkpt lat="45.552896700163174" lon="8.64878612812833"><ele>184.33333333333334</ele><time>2026-04-19T11:49:24.017Z</time></trkpt><trkpt lat="45.55308701298793" lon="8.648726992688829"><ele>184.66666666666666</ele><time>2026-04-19T11:49:25.017Z</time></trkpt><trkpt lat="45.55327814017438" lon="8.64866346121368"><ele>185.0</ele><time>2026-04-19T11:49:26.017Z</time></trkpt><trkpt lat="45.55346867711491" lon="8.648594009020238"><ele>184.66666666666666</ele><time>2026-04-19T11:49:27.017Z</time></trkpt><trkpt lat="45.55365944580411" lon="8.64852256706079"><ele>184.33333333333334</ele><time>2026-04-19T11:49:28.017Z</time></trkpt><trkpt lat="45.5538504561528" lon="8.648458168591587"><ele>184.0</ele><time>2026-04-19T11:49:29.017Z</time></trkpt><trkpt lat="45.55404410842304" lon="8.648409881014485"><ele>184.0</ele><time>2026-04-19T11:49:30.017Z</time></trkpt><trkpt lat="45.55423817389441" lon="8.6483733997448"><ele>184.0</ele><time>2026-04-19T11:49:31.017Z</time></trkpt><trkpt lat="45.55443509135113" lon="8.648351546043617"><ele>184.0</ele><time>2026-04-19T11:49:32.017Z</time></trkpt><trkpt lat="45.55463369204521" lon="8.648337344245634"><ele>184.66666666666669</ele><time>2026-04-19T11:49:33.017Z</time></trkpt><trkpt lat="45.55483635538692" lon="8.64832936078713"><ele>185.33333333333334</ele><time>2026-04-19T11:49:34.017Z</time></trkpt><trkpt lat="45.555040175601334" lon="8.648326709427131"><ele>186.0</ele><time>2026-04-19T11:49:35.017Z</time></trkpt><trkpt lat="45.555244213526876" lon="8.648331345090059"><ele>186.0</ele><time>2026-04-19T11:49:36.017Z</time></trkpt><trkpt lat="45.555444520105" lon="8.648337841476412"><ele>186.0</ele><time>2026-04-19T11:49:37.017Z</time></trkpt><trkpt lat="45.555641912153874" lon="8.648342135859886"><ele>186.0</ele><time>2026-04-19T11:49:38.017Z</time></trkpt><trkpt lat="45.55583424450565" lon="8.648345611334701"><ele>186.0</ele><time>2026-04-19T11:49:39.017Z</time></trkpt><trkpt lat="45.556023201960485" lon="8.648355500145005"><ele>186.0</ele><time>2026-04-19T11:49:40.017Z</time></trkpt><trkpt lat="45.55621186420387" lon="8.648362067849451"><ele>186.0</ele><time>2026-04-19T11:49:41.017Z</time></trkpt><trkpt lat="45.556400360098124" lon="8.648364049163463"><ele>186.33333333333334</ele><time>2026-04-19T11:49:42.017Z</time></trkpt><trkpt lat="45.55659229025183" lon="8.64836193921567"><ele>186.66666666666669</ele><time>2026-04-19T11:49:43.017Z</time></trkpt><trkpt lat="45.55678700988714" lon="8.648344868139105"><ele>187.0</ele><time>2026-04-19T11:49:44.017Z</time></trkpt><trkpt lat="45.556980831310966" lon="8.64831126740436"><ele>187.66666666666669</ele><time>2026-04-19T11:49:45.017Z</time></trkpt><trkpt lat="45.55717576943933" lon="8.648260419968222"><ele>188.33333333333334</ele><time>2026-04-19T11:49:46.017Z</time></trkpt><trkpt lat="45.55737048417808" lon="8.648200115679042"><ele>189.0</ele><time>2026-04-19T11:49:47.017Z</time></trkpt><trkpt lat="45.55756525436506" lon="8.648128549109561"><ele>189.0</ele><time>2026-04-19T11:49:48.017Z</time></trkpt><trkpt lat="45.55776040572293" lon="8.648046941740908"><ele>189.0</ele><time>2026-04-19T11:49:49.017Z</time></trkpt><trkpt lat="45.557953879865465" lon="8.647956350006437"><ele>189.0</ele><time>2026-04-19T11:49:50.018Z</time></trkpt><trkpt lat="45.558148782271026" lon="8.647856703396181"><ele>188.66666666666666</ele><time>2026-04-19T11:49:51.018Z</time></trkpt><trkpt lat="45.55834511982467" lon="8.647757509139751"><ele>188.33333333333331</ele><time>2026-04-19T11:49:52.018Z</time></trkpt><trkpt lat="45.55853947074861" lon="8.647661359301468"><ele>188.0</ele><time>2026-04-19T11:49:53.018Z</time></trkpt><trkpt lat="45.55873385245298" lon="8.647568015879699"><ele>188.0</ele><time>2026-04-19T11:49:54.018Z</time></trkpt><trkpt lat="45.55892934668971" lon="8.647468096026195"><ele>188.0</ele><time>2026-04-19T11:49:55.018Z</time></trkpt><trkpt lat="45.55912366285758" lon="8.647369207268456"><ele>188.0</ele><time>2026-04-19T11:49:56.018Z</time></trkpt><trkpt lat="45.559317936058925" lon="8.647272699645251"><ele>188.0</ele><time>2026-04-19T11:49:57.018Z</time></trkpt><trkpt lat="45.55951033721205" lon="8.647179722080748"><ele>188.0</ele><time>2026-04-19T11:49:58.018Z</time></trkpt><trkpt lat="45.55970206368338" lon="8.647089883384018"><ele>188.0</ele><time>2026-04-19T11:49:59.018Z</time></trkpt><trkpt lat="45.55989418770036" lon="8.647001812577445"><ele>187.33333333333331</ele><time>2026-04-19T11:50:00.018Z</time></trkpt><trkpt lat="45.56008416560437" lon="8.646909071003003"><ele>186.66666666666666</ele><time>2026-04-19T11:50:01.018Z</time></trkpt><trkpt lat="45.56027141516615" lon="8.64681447063543"><ele>186.0</ele><time>2026-04-19T11:50:02.018Z</time></trkpt><trkpt lat="45.560460114332976" lon="8.646719157037671"><ele>185.66666666666666</ele><time>2026-04-19T11:50:03.018Z</time></trkpt><trkpt lat="45.56064726301255" lon="8.646626895298862"><ele>185.33333333333331</ele><time>2026-04-19T11:50:04.018Z</time></trkpt><trkpt lat="45.56083651048753" lon="8.646539570041904"><ele>185.0</ele><time>2026-04-19T11:50:05.018Z</time></trkpt><trkpt lat="45.56102525717245" lon="8.646454132639786"><ele>185.66666666666666</ele><time>2026-04-19T11:50:06.018Z</time></trkpt><trkpt lat="45.56121342217877" lon="8.646368307585302"><ele>186.33333333333334</ele><time>2026-04-19T11:50:07.018Z</time></trkpt><trkpt lat="45.5614006104407" lon="8.646276181059534"><ele>187.0</ele><time>2026-04-19T11:50:08.018Z</time></trkpt><trkpt lat="45.561587147193336" lon="8.646182425280625"><ele>187.0</ele><time>2026-04-19T11:50:09.018Z</time></trkpt><trkpt lat="45.561774263651444" lon="8.646090346128345"><ele>187.0</ele><time>2026-04-19T11:50:10.018Z</time></trkpt><trkpt lat="45.56196151190425" lon="8.645997262190898"><ele>187.0</ele><time>2026-04-19T11:50:11.018Z</time></trkpt><trkpt lat="45.56214799403144" lon="8.645906215109864"><ele>188.0</ele><time>2026-04-19T11:50:12.018Z</time></trkpt><trkpt lat="45.562333496206605" lon="8.645813329167929"><ele>189.0</ele><time>2026-04-19T11:50:13.018Z</time></trkpt><trkpt lat="45.562517977912506" lon="8.64572154794837"><ele>190.0</ele><time>2026-04-19T11:50:14.018Z</time></trkpt><trkpt lat="45.56269806632787" lon="8.645633250971898"><ele>190.0</ele><time>2026-04-19T11:50:15.018Z</time></trkpt><trkpt lat="45.5628742503111" lon="8.645547044759462"><ele>190.0</ele><time>2026-04-19T11:50:16.018Z</time></trkpt><trkpt lat="45.56304706764434" lon="8.645462092649804"><ele>190.0</ele><time>2026-04-19T11:50:17.018Z</time></trkpt><trkpt lat="45.56321504111226" lon="8.645376355098296"><ele>190.33333333333334</ele><time>2026-04-19T11:50:18.018Z</time></trkpt><trkpt lat="45.56337636431366" lon="8.64529526391204"><ele>190.66666666666666</ele><time>2026-04-19T11:50:19.018Z</time></trkpt><trkpt lat="45.56352838109068" lon="8.645220043724311"><ele>191.0</ele><time>2026-04-19T11:50:20.018Z</time></trkpt><trkpt lat="45.56367024180441" lon="8.645151051308943"><ele>191.25</ele><time>2026-04-19T11:50:21.018Z</time></trkpt><trkpt lat="45.56380162258957" lon="8.645086141262631"><ele>191.5</ele><time>2026-04-19T11:50:22.018Z</time></trkpt><trkpt lat="45.56392164601169" lon="8.645024138476952"><ele>191.75</ele><time>2026-04-19T11:50:23.018Z</time></trkpt><trkpt lat="45.56403284863904" lon="8.644963635112168"><ele>192.0</ele><time>2026-04-19T11:50:24.018Z</time></trkpt><trkpt lat="45.56413482252616" lon="8.644912283519236"><ele>192.0</ele><time>2026-04-19T11:50:25.018Z</time></trkpt><trkpt lat="45.564232382927216" lon="8.644875520548046"><ele>192.0</ele><time>2026-04-19T11:50:26.018Z</time></trkpt><trkpt lat="45.5643249401664" lon="8.644870291582716"><ele>192.0</ele><time>2026-04-19T11:50:27.018Z</time></trkpt><trkpt lat="45.56440683750726" lon="8.644893838573886"><ele>192.0</ele><time>2026-04-19T11:50:28.018Z</time></trkpt><trkpt lat="45.56447453581924" lon="8.644924366313354"><ele>192.0</ele><time>2026-04-19T11:50:29.018Z</time></trkpt><trkpt lat="45.564579448058566" lon="8.64489869800541"><ele>191.8</ele><time>2026-04-19T11:50:31.018Z</time></trkpt><trkpt lat="45.564596677447014" lon="8.644729552229789"><ele>191.6</ele><time>2026-04-19T11:50:33.018Z</time></trkpt><trkpt lat="45.564566586223854" lon="8.644627993083189"><ele>191.4</ele><time>2026-04-19T11:50:34.018Z</time></trkpt><trkpt lat="45.564547702776096" lon="8.64451317251755"><ele>191.20000000000002</ele><time>2026-04-19T11:50:35.019Z</time></trkpt><trkpt lat="45.56454692322493" lon="8.644377526075768"><ele>191.0</ele><time>2026-04-19T11:50:36.019Z</time></trkpt><trkpt lat="45.5645502279043" lon="8.644229715798334"><ele>191.0</ele><time>2026-04-19T11:50:37.019Z</time></trkpt><trkpt lat="45.56454994959776" lon="8.644075002451999"><ele>191.0</ele><time>2026-04-19T11:50:38.019Z</time></trkpt><trkpt lat="45.564550463819494" lon="8.643925266056947"><ele>191.0</ele><time>2026-04-19T11:50:39.019Z</time></trkpt><trkpt lat="45.56454790445285" lon="8.643760639601007"><ele>191.0</ele><time>2026-04-19T11:50:40.019Z</time></trkpt><trkpt lat="45.56454482071511" lon="8.643587696011235"><ele>190.75</ele><time>2026-04-19T11:50:41.019Z</time></trkpt><trkpt lat="45.56454370074443" lon="8.643411600877593"><ele>190.5</ele><time>2026-04-19T11:50:42.019Z</time></trkpt><trkpt lat="45.56454580816688" lon="8.643234861673182"><ele>190.25</ele><time>2026-04-19T11:50:43.019Z</time></trkpt><trkpt lat="45.56454485077472" lon="8.643058507866366"><ele>190.0</ele><time>2026-04-19T11:50:44.019Z</time></trkpt><trkpt lat="45.56454578759798" lon="8.642883993036293"><ele>190.2</ele><time>2026-04-19T11:50:45.019Z</time></trkpt><trkpt lat="45.56454651842603" lon="8.642716128639536"><ele>190.4</ele><time>2026-04-19T11:50:46.019Z</time></trkpt><trkpt lat="45.564546705697886" lon="8.642564060454015"><ele>190.60000000000002</ele><time>2026-04-19T11:50:47.019Z</time></trkpt><trkpt lat="45.56454758973422" lon="8.642425445011021"><ele>190.8</ele><time>2026-04-19T11:50:48.019Z</time></trkpt><trkpt lat="45.56454558128602" lon="8.642298501738166"><ele>191.0</ele><time>2026-04-19T11:50:49.019Z</time></trkpt><trkpt lat="45.56454258404734" lon="8.642181580004635"><ele>191.0</ele><time>2026-04-19T11:50:50.019Z</time></trkpt><trkpt lat="45.564544516849764" lon="8.642070901327267"><ele>191.0</ele><time>2026-04-19T11:50:51.019Z</time></trkpt><trkpt lat="45.56454532855223" lon="8.641934041145346"><ele>191.0</ele><time>2026-04-19T11:50:53.019Z</time></trkpt><trkpt lat="45.564544215601124" lon="8.641821652139754"><ele>191.0</ele><time>2026-04-19T11:50:57.019Z</time></trkpt><trkpt lat="45.56452475976673" lon="8.641678871515921"><ele>191.0</ele><time>2026-04-19T11:50:59.019Z</time></trkpt><trkpt lat="45.56451195891487" lon="8.641572682832695"><ele>191.0</ele><time>2026-04-19T11:51:00.019Z</time></trkpt><trkpt lat="45.56449470884456" lon="8.641473896409565"><ele>190.8</ele><time>2026-04-19T11:51:01.019Z</time></trkpt><trkpt lat="45.56448137583364" lon="8.641373103785321"><ele>190.60000000000002</ele><time>2026-04-19T11:51:02.019Z</time></trkpt><trkpt lat="45.564464563378216" lon="8.641262107287009"><ele>190.4</ele><time>2026-04-19T11:51:03.019Z</time></trkpt><trkpt lat="45.56444547405053" lon="8.641132188730605"><ele>190.2</ele><time>2026-04-19T11:51:04.019Z</time></trkpt><trkpt lat="45.564416008640556" lon="8.640990390750561"><ele>190.0</ele><time>2026-04-19T11:51:05.019Z</time></trkpt><trkpt lat="45.56438789531478" lon="8.640843955633944"><ele>190.0</ele><time>2026-04-19T11:51:06.019Z</time></trkpt><trkpt lat="45.56436184918947" lon="8.640689663432548"><ele>190.0</ele><time>2026-04-19T11:51:07.019Z</time></trkpt><trkpt lat="45.56433438423179" lon="8.640523533126487"><ele>190.0</ele><time>2026-04-19T11:51:08.019Z</time></trkpt><trkpt lat="45.56430504020069" lon="8.640348549072495"><ele>190.0</ele><time>2026-04-19T11:51:09.019Z</time></trkpt><trkpt lat="45.564277842379994" lon="8.64017507981411"><ele>190.0</ele><time>2026-04-19T11:51:10.019Z</time></trkpt><trkpt lat="45.56425548750231" lon="8.640018081401493"><ele>190.0</ele><time>2026-04-19T11:51:11.019Z</time></trkpt><trkpt lat="45.5642323294551" lon="8.639869262804572"><ele>190.0</ele><time>2026-04-19T11:51:12.019Z</time></trkpt><trkpt lat="45.56420506607251" lon="8.63974078743283"><ele>190.0</ele><time>2026-04-19T11:51:13.019Z</time></trkpt><trkpt lat="45.56417911803873" lon="8.639622758249258"><ele>190.0</ele><time>2026-04-19T11:51:14.019Z</time></trkpt><trkpt lat="45.56417662367713" lon="8.639521727692648"><ele>191.4</ele><time>2026-04-19T11:51:15.019Z</time></trkpt><trkpt lat="45.56422807423204" lon="8.639382788120948"><ele>192.8</ele><time>2026-04-19T11:51:17.019Z</time></trkpt><trkpt lat="45.56429292033655" lon="8.639348125575307"><ele>194.2</ele><time>2026-04-19T11:51:18.019Z</time></trkpt><trkpt lat="45.56437514751363" lon="8.63931941859399"><ele>195.6</ele><time>2026-04-19T11:51:19.02Z</time></trkpt><trkpt lat="45.56447846355309" lon="8.639295506199113"><ele>197.0</ele><time>2026-04-19T11:51:20.02Z</time></trkpt><trkpt lat="45.56459668297789" lon="8.639266492236276"><ele>197.5</ele><time>2026-04-19T11:51:21.02Z</time></trkpt><trkpt lat="45.56472541342758" lon="8.639237435710218"><ele>198.0</ele><time>2026-04-19T11:51:22.02Z</time></trkpt><trkpt lat="45.564846437370264" lon="8.639208531994909"><ele>198.5</ele><time>2026-04-19T11:51:23.02Z</time></trkpt><trkpt lat="45.56497886148909" lon="8.639173544999679"><ele>199.0</ele><time>2026-04-19T11:51:24.02Z</time></trkpt><trkpt lat="45.56511424173646" lon="8.639135568595659"><ele>199.0</ele><time>2026-04-19T11:51:25.02Z</time></trkpt><trkpt lat="45.565258112477586" lon="8.639100842082179"><ele>199.0</ele><time>2026-04-19T11:51:26.02Z</time></trkpt><trkpt lat="45.56540363348584" lon="8.63907045756293"><ele>199.0</ele><time>2026-04-19T11:51:27.02Z</time></trkpt><trkpt lat="45.56554478154255" lon="8.639045056798686"><ele>199.0</ele><time>2026-04-19T11:51:28.02Z</time></trkpt><trkpt lat="45.565694940403084" lon="8.639022168754266"><ele>198.5</ele><time>2026-04-19T11:51:29.02Z</time></trkpt><trkpt lat="45.56583844546329" lon="8.6389941084857"><ele>198.0</ele><time>2026-04-19T11:51:30.02Z</time></trkpt><trkpt lat="45.565976759589255" lon="8.638968331155166"><ele>197.5</ele><time>2026-04-19T11:51:31.02Z</time></trkpt><trkpt lat="45.566114481978516" lon="8.63892996934875"><ele>197.0</ele><time>2026-04-19T11:51:32.02Z</time></trkpt><trkpt lat="45.56624054773556" lon="8.638907965340065"><ele>196.25</ele><time>2026-04-19T11:51:33.02Z</time></trkpt><trkpt lat="45.56635572900147" lon="8.63888502510635"><ele>195.5</ele><time>2026-04-19T11:51:34.02Z</time></trkpt><trkpt lat="45.56647790540322" lon="8.638859914429196"><ele>194.75</ele><time>2026-04-19T11:51:35.02Z</time></trkpt><trkpt lat="45.56660529362206" lon="8.63882764626568"><ele>194.0</ele><time>2026-04-19T11:51:36.02Z</time></trkpt><trkpt lat="45.566734291625494" lon="8.638798161728724"><ele>194.0</ele><time>2026-04-19T11:51:37.02Z</time></trkpt><trkpt lat="45.56686659013708" lon="8.638753138879512"><ele>194.0</ele><time>2026-04-19T11:51:38.02Z</time></trkpt><trkpt lat="45.56699746763716" lon="8.638689691161584"><ele>194.0</ele><time>2026-04-19T11:51:39.02Z</time></trkpt><trkpt lat="45.5671310962937" lon="8.638611792188234"><ele>194.0</ele><time>2026-04-19T11:51:40.02Z</time></trkpt><trkpt lat="45.567268156148934" lon="8.638529266020816"><ele>197.0</ele><time>2026-04-19T11:51:41.02Z</time></trkpt><trkpt lat="45.567407540525856" lon="8.638441606958594"><ele>200.0</ele><time>2026-04-19T11:51:42.02Z</time></trkpt><trkpt lat="45.56754685171097" lon="8.638348764024267"><ele>203.0</ele><time>2026-04-19T11:51:43.02Z</time></trkpt><trkpt lat="45.5676919581085" lon="8.638262986078239"><ele>203.0</ele><time>2026-04-19T11:51:44.02Z</time></trkpt><trkpt lat="45.56783647891433" lon="8.638177372650281"><ele>203.0</ele><time>2026-04-19T11:51:45.02Z</time></trkpt><trkpt lat="45.56797885789703" lon="8.638090213384883"><ele>203.0</ele><time>2026-04-19T11:51:46.02Z</time></trkpt><trkpt lat="45.568122549491875" lon="8.638007648268077"><ele>201.75</ele><time>2026-04-19T11:51:47.02Z</time></trkpt><trkpt lat="45.56826279359011" lon="8.637924213412704"><ele>200.5</ele><time>2026-04-19T11:51:48.02Z</time></trkpt><trkpt lat="45.56839251094397" lon="8.637845916382677"><ele>199.25</ele><time>2026-04-19T11:51:49.02Z</time></trkpt><trkpt lat="45.56851192589439" lon="8.637772078414638"><ele>198.0</ele><time>2026-04-19T11:51:50.02Z</time></trkpt><trkpt lat="45.56862230771608" lon="8.637702150072943"><ele>198.8</ele><time>2026-04-19T11:51:51.02Z</time></trkpt><trkpt lat="45.56872605609429" lon="8.637636310277045"><ele>199.60000000000002</ele><time>2026-04-19T11:51:52.02Z</time></trkpt><trkpt lat="45.5688233742951" lon="8.637580410598858"><ele>200.39999999999998</ele><time>2026-04-19T11:51:53.02Z</time></trkpt><trkpt lat="45.56891275034871" lon="8.637536642826223"><ele>201.2</ele><time>2026-04-19T11:51:54.02Z</time></trkpt><trkpt lat="45.569003479571954" lon="8.637499013148188"><ele>202.0</ele><time>2026-04-19T11:51:55.02Z</time></trkpt><trkpt lat="45.56909764081406" lon="8.637472962160533"><ele>201.99999999999997</ele><time>2026-04-19T11:51:56.02Z</time></trkpt><trkpt lat="45.5691979869695" lon="8.637457718718025"><ele>202.0</ele><time>2026-04-19T11:51:57.02Z</time></trkpt><trkpt lat="45.56929803175157" lon="8.63744172329254"><ele>202.0</ele><time>2026-04-19T11:51:58.02Z</time></trkpt><trkpt lat="45.569392437438914" lon="8.637431974737813"><ele>202.0</ele><time>2026-04-19T11:51:59.02Z</time></trkpt><trkpt lat="45.569473772056746" lon="8.637433825895382"><ele>201.99999999999997</ele><time>2026-04-19T11:52:00.02Z</time></trkpt><trkpt lat="45.56953748100827" lon="8.637431539670532"><ele>202.0</ele><time>2026-04-19T11:52:01.02Z</time></trkpt><trkpt lat="45.56962523621514" lon="8.637367607182199"><ele>201.99999999999997</ele><time>2026-04-19T11:52:03.02Z</time></trkpt><trkpt lat="45.56961574655705" lon="8.637274220334252"><ele>202.0</ele><time>2026-04-19T11:52:05.021Z</time></trkpt><trkpt lat="45.56954921216973" lon="8.637190462629643"><ele>202.0</ele><time>2026-04-19T11:52:07.021Z</time></trkpt><trkpt lat="45.569485079089624" lon="8.637089493445297"><ele>202.0</ele><time>2026-04-19T11:52:09.021Z</time></trkpt><trkpt lat="45.569445456359404" lon="8.637014549956257"><ele>201.99999999999997</ele><time>2026-04-19T11:52:10.021Z</time></trkpt><trkpt lat="45.569391301653226" lon="8.63693495092306"><ele>202.0</ele><time>2026-04-19T11:52:11.021Z</time></trkpt><trkpt lat="45.569330335247415" lon="8.636851044060995"><ele>203.39999999999998</ele><time>2026-04-19T11:52:12.021Z</time></trkpt><trkpt lat="45.56927586333318" lon="8.636770975242497"><ele>204.79999999999998</ele><time>2026-04-19T11:52:13.021Z</time></trkpt><trkpt lat="45.569215640668794" lon="8.6366651030214"><ele>206.2</ele><time>2026-04-19T11:52:14.021Z</time></trkpt><trkpt lat="45.5691676518898" lon="8.636533802033341"><ele>207.6</ele><time>2026-04-19T11:52:15.021Z</time></trkpt><trkpt lat="45.56913284775046" lon="8.636389396681972"><ele>209.0</ele><time>2026-04-19T11:52:16.021Z</time></trkpt><trkpt lat="45.56910135855349" lon="8.63625092523183"><ele>209.6</ele><time>2026-04-19T11:52:17.021Z</time></trkpt><trkpt lat="45.56907427400464" lon="8.636132503071632"><ele>210.2</ele><time>2026-04-19T11:52:18.021Z</time></trkpt><trkpt lat="45.56904868239521" lon="8.636023264563969"><ele>210.79999999999998</ele><time>2026-04-19T11:52:19.021Z</time></trkpt><trkpt lat="45.56902055049483" lon="8.635928545829834"><ele>211.39999999999998</ele><time>2026-04-19T11:52:20.021Z</time></trkpt><trkpt lat="45.56898909844311" lon="8.635775012424725"><ele>212.0</ele><time>2026-04-19T11:52:22.021Z</time></trkpt><trkpt lat="45.56905398776397" lon="8.635668786399668"><ele>212.0</ele><time>2026-04-19T11:52:24.021Z</time></trkpt><trkpt lat="45.56918752544988" lon="8.635629807145161"><ele>212.0</ele><time>2026-04-19T11:52:26.021Z</time></trkpt><trkpt lat="45.56926318883675" lon="8.635603225578572"><ele>212.0</ele><time>2026-04-19T11:52:27.021Z</time></trkpt><trkpt lat="45.56935424292541" lon="8.635562144005027"><ele>212.0</ele><time>2026-04-19T11:52:28.021Z</time></trkpt><trkpt lat="45.56945860776314" lon="8.635517991652698"><ele>212.0</ele><time>2026-04-19T11:52:29.021Z</time></trkpt><trkpt lat="45.56956358439018" lon="8.635475144614347"><ele>212.75</ele><time>2026-04-19T11:52:30.021Z</time></trkpt><trkpt lat="45.569669430514146" lon="8.635431413078239"><ele>213.5</ele><time>2026-04-19T11:52:31.021Z</time></trkpt><trkpt lat="45.56978671670498" lon="8.635374897738107"><ele>214.25</ele><time>2026-04-19T11:52:32.021Z</time></trkpt><trkpt lat="45.569909888433706" lon="8.635299570803307"><ele>215.0</ele><time>2026-04-19T11:52:33.021Z</time></trkpt><trkpt lat="45.57002700545114" lon="8.63521628558324"><ele>215.0</ele><time>2026-04-19T11:52:34.021Z</time></trkpt><trkpt lat="45.57014863988807" lon="8.63511940891229"><ele>215.0</ele><time>2026-04-19T11:52:35.021Z</time></trkpt><trkpt lat="45.570287405539005" lon="8.635052743326568"><ele>215.0</ele><time>2026-04-19T11:52:36.021Z</time></trkpt><trkpt lat="45.5704330436525" lon="8.635021177111806"><ele>215.0</ele><time>2026-04-19T11:52:37.021Z</time></trkpt><trkpt lat="45.57058280069951" lon="8.635050566778194"><ele>216.33333333333334</ele><time>2026-04-19T11:52:38.021Z</time></trkpt><trkpt lat="45.57073212091415" lon="8.635103219723845"><ele>217.66666666666669</ele><time>2026-04-19T11:52:39.021Z</time></trkpt><trkpt lat="45.570887076989685" lon="8.635151983660581"><ele>219.0</ele><time>2026-04-19T11:52:40.021Z</time></trkpt><trkpt lat="45.571036966800506" lon="8.635190430943188"><ele>219.66666666666669</ele><time>2026-04-19T11:52:41.021Z</time></trkpt><trkpt lat="45.57119248266503" lon="8.635224804584055"><ele>220.33333333333334</ele><time>2026-04-19T11:52:42.021Z</time></trkpt><trkpt lat="45.571349933426745" lon="8.635262498417314"><ele>221.0</ele><time>2026-04-19T11:52:43.021Z</time></trkpt><trkpt lat="45.57150596473588" lon="8.63530539361988"><ele>221.33333333333334</ele><time>2026-04-19T11:52:44.021Z</time></trkpt><trkpt lat="45.57166529765627" lon="8.63534842170345"><ele>221.66666666666669</ele><time>2026-04-19T11:52:45.021Z</time></trkpt><trkpt lat="45.571824059755365" lon="8.635392639375548"><ele>222.0</ele><time>2026-04-19T11:52:46.021Z</time></trkpt><trkpt lat="45.57197090459855" lon="8.635432599953884"><ele>221.75</ele><time>2026-04-19T11:52:47.021Z</time></trkpt><trkpt lat="45.57210543811285" lon="8.635472044896876"><ele>221.5</ele><time>2026-04-19T11:52:48.021Z</time></trkpt><trkpt lat="45.57223212601194" lon="8.635505479053506"><ele>221.25</ele><time>2026-04-19T11:52:49.022Z</time></trkpt><trkpt lat="45.57235116119946" lon="8.635526288362339"><ele>221.0</ele><time>2026-04-19T11:52:50.022Z</time></trkpt><trkpt lat="45.57247448120345" lon="8.635514621570454"><ele>221.0</ele><time>2026-04-19T11:52:51.022Z</time></trkpt><trkpt lat="45.57260026597456" lon="8.635466094390367"><ele>221.0</ele><time>2026-04-19T11:52:52.022Z</time></trkpt><trkpt lat="45.57272545643359" lon="8.635384409425827"><ele>221.0</ele><time>2026-04-19T11:52:53.022Z</time></trkpt><trkpt lat="45.57285933869907" lon="8.635298792816725"><ele>221.0</ele><time>2026-04-19T11:52:54.022Z</time></trkpt><trkpt lat="45.572999810794805" lon="8.635211210498511"><ele>220.66666666666669</ele><time>2026-04-19T11:52:55.022Z</time></trkpt><trkpt lat="45.573147927635574" lon="8.635125021085983"><ele>220.33333333333331</ele><time>2026-04-19T11:52:56.022Z</time></trkpt><trkpt lat="45.57329522646249" lon="8.635034378137517"><ele>220.0</ele><time>2026-04-19T11:52:57.022Z</time></trkpt><trkpt lat="45.57343567679018" lon="8.634951108267792"><ele>220.0</ele><time>2026-04-19T11:52:58.022Z</time></trkpt><trkpt lat="45.573565791473904" lon="8.634879972756002"><ele>220.0</ele><time>2026-04-19T11:52:59.022Z</time></trkpt><trkpt lat="45.573692422639326" lon="8.634824811056621"><ele>220.0</ele><time>2026-04-19T11:53:00.022Z</time></trkpt><trkpt lat="45.573807241822934" lon="8.63477015572204"><ele>220.0</ele><time>2026-04-19T11:53:01.022Z</time></trkpt><trkpt lat="45.573905590292185" lon="8.634697954952873"><ele>219.99999999999997</ele><time>2026-04-19T11:53:02.022Z</time></trkpt><trkpt lat="45.573985562217544" lon="8.634616470116521"><ele>220.0</ele><time>2026-04-19T11:53:03.022Z</time></trkpt><trkpt lat="45.574058373905565" lon="8.634546120554747"><ele>220.0</ele><time>2026-04-19T11:53:04.022Z</time></trkpt><trkpt lat="45.574122562545966" lon="8.634483031731508"><ele>220.0</ele><time>2026-04-19T11:53:05.022Z</time></trkpt><trkpt lat="45.57417845098566" lon="8.634421342706009"><ele>219.99999999999997</ele><time>2026-04-19T11:53:06.022Z</time></trkpt><trkpt lat="45.57421658624745" lon="8.634335120791215"><ele>220.0</ele><time>2026-04-19T11:53:07.022Z</time></trkpt><trkpt lat="45.57423848613109" lon="8.634214342175312"><ele>219.99999999999997</ele><time>2026-04-19T11:53:08.022Z</time></trkpt><trkpt lat="45.574253621045266" lon="8.63409577791379"><ele>220.0</ele><time>2026-04-19T11:53:09.022Z</time></trkpt><trkpt lat="45.574293329637186" lon="8.633998194471816"><ele>220.0</ele><time>2026-04-19T11:53:10.022Z</time></trkpt><trkpt lat="45.574363723769245" lon="8.63395653639159"><ele>220.0</ele><time>2026-04-19T11:53:11.022Z</time></trkpt><trkpt lat="45.5744369154604" lon="8.633969884521354"><ele>219.99999999999997</ele><time>2026-04-19T11:53:12.022Z</time></trkpt><trkpt lat="45.57451847754341" lon="8.63403009992196"><ele>220.0</ele><time>2026-04-19T11:53:13.022Z</time></trkpt><trkpt lat="45.57461296261852" lon="8.634096120920141"><ele>220.25</ele><time>2026-04-19T11:53:14.022Z</time></trkpt><trkpt lat="45.57472186443998" lon="8.634159941617801"><ele>220.5</ele><time>2026-04-19T11:53:15.022Z</time></trkpt><trkpt lat="45.574838712385414" lon="8.634230900654892"><ele>220.75</ele><time>2026-04-19T11:53:16.022Z</time></trkpt><trkpt lat="45.5749647971116" lon="8.63429592990479"><ele>221.0</ele><time>2026-04-19T11:53:17.022Z</time></trkpt><trkpt lat="45.575087773351356" lon="8.6343340761504"><ele>221.0</ele><time>2026-04-19T11:53:18.022Z</time></trkpt><trkpt lat="45.57522877133489" lon="8.634343027092557"><ele>221.0</ele><time>2026-04-19T11:53:19.022Z</time></trkpt><trkpt lat="45.5753813528811" lon="8.634341261102216"><ele>221.0</ele><time>2026-04-19T11:53:20.022Z</time></trkpt><trkpt lat="45.5755414987568" lon="8.634336165238219"><ele>221.66666666666669</ele><time>2026-04-19T11:53:21.022Z</time></trkpt><trkpt lat="45.575708741628624" lon="8.63433605729819"><ele>222.33333333333331</ele><time>2026-04-19T11:53:22.022Z</time></trkpt><trkpt lat="45.57587622946951" lon="8.634339309680907"><ele>223.0</ele><time>2026-04-19T11:53:23.022Z</time></trkpt><trkpt lat="45.5760392209016" lon="8.634342978005598"><ele>223.5</ele><time>2026-04-19T11:53:24.022Z</time></trkpt><trkpt lat="45.57619061789" lon="8.634344271084117"><ele>224.0</ele><time>2026-04-19T11:53:25.022Z</time></trkpt><trkpt lat="45.576331270202814" lon="8.6343413829148"><ele>224.5</ele><time>2026-04-19T11:53:26.022Z</time></trkpt><trkpt lat="45.576462123491766" lon="8.634342717200827"><ele>225.0</ele><time>2026-04-19T11:53:27.022Z</time></trkpt><trkpt lat="45.57658359144565" lon="8.634346593882697"><ele>225.0</ele><time>2026-04-19T11:53:28.022Z</time></trkpt><trkpt lat="45.57669699942072" lon="8.634345986248928"><ele>225.0</ele><time>2026-04-19T11:53:29.022Z</time></trkpt><trkpt lat="45.57679732505831" lon="8.634338466564312"><ele>225.0</ele><time>2026-04-19T11:53:30.022Z</time></trkpt><trkpt lat="45.57687858578728" lon="8.634306642597487"><ele>225.0</ele><time>2026-04-19T11:53:31.022Z</time></trkpt><trkpt lat="45.57693112683136" lon="8.63423897619654"><ele>225.0</ele><time>2026-04-19T11:53:32.022Z</time></trkpt><trkpt lat="45.576956418634424" lon="8.634149703602008"><ele>225.0</ele><time>2026-04-19T11:53:33.022Z</time></trkpt><trkpt lat="45.57695402988534" lon="8.634034741106246"><ele>225.0</ele><time>2026-04-19T11:53:34.023Z</time></trkpt><trkpt lat="45.57694023136532" lon="8.633907727710078"><ele>225.0</ele><time>2026-04-19T11:53:35.023Z</time></trkpt><trkpt lat="45.57692597340353" lon="8.633761155952726"><ele>225.0</ele><time>2026-04-19T11:53:36.023Z</time></trkpt><trkpt lat="45.57690989179115" lon="8.633596940076508"><ele>225.0</ele><time>2026-04-19T11:53:37.023Z</time></trkpt><trkpt lat="45.5768887690744" lon="8.63343596529395"><ele>225.0</ele><time>2026-04-19T11:53:38.023Z</time></trkpt><trkpt lat="45.57686192532523" lon="8.633294448822062"><ele>224.66666666666666</ele><time>2026-04-19T11:53:39.023Z</time></trkpt><trkpt lat="45.57683898079245" lon="8.633170573724838"><ele>224.33333333333331</ele><time>2026-04-19T11:53:40.023Z</time></trkpt><trkpt lat="45.57685064032892" lon="8.633068169562"><ele>224.0</ele><time>2026-04-19T11:53:41.023Z</time></trkpt><trkpt lat="45.5768865861925" lon="8.632984453437189"><ele>223.66666666666666</ele><time>2026-04-19T11:53:42.023Z</time></trkpt><trkpt lat="45.57694847593335" lon="8.632931012895778"><ele>223.33333333333331</ele><time>2026-04-19T11:53:43.023Z</time></trkpt><trkpt lat="45.57703785812314" lon="8.632914664607723"><ele>223.0</ele><time>2026-04-19T11:53:44.023Z</time></trkpt><trkpt lat="45.57715091213359" lon="8.632932843113878"><ele>223.0</ele><time>2026-04-19T11:53:45.023Z</time></trkpt><trkpt lat="45.57727930225333" lon="8.632955240752972"><ele>223.0</ele><time>2026-04-19T11:53:46.023Z</time></trkpt><trkpt lat="45.57742085683606" lon="8.632976406428485"><ele>223.0</ele><time>2026-04-19T11:53:47.023Z</time></trkpt><trkpt lat="45.57756524032804" lon="8.63299788442373"><ele>223.0</ele><time>2026-04-19T11:53:48.023Z</time></trkpt><trkpt lat="45.57770580961528" lon="8.633017029224916"><ele>222.66666666666666</ele><time>2026-04-19T11:53:49.023Z</time></trkpt><trkpt lat="45.577854631562396" lon="8.633029008006211"><ele>222.33333333333331</ele><time>2026-04-19T11:53:50.023Z</time></trkpt><trkpt lat="45.578015334668514" lon="8.63304028532132"><ele>222.0</ele><time>2026-04-19T11:53:51.023Z</time></trkpt><trkpt lat="45.578165799443" lon="8.633055643276355"><ele>222.0</ele><time>2026-04-19T11:53:52.023Z</time></trkpt><trkpt lat="45.57832563053821" lon="8.633073351857956"><ele>222.0</ele><time>2026-04-19T11:53:53.023Z</time></trkpt><trkpt lat="45.5784925397656" lon="8.633091742972375"><ele>222.0</ele><time>2026-04-19T11:53:54.023Z</time></trkpt><trkpt lat="45.578659859160375" lon="8.633108809920937"><ele>222.33333333333331</ele><time>2026-04-19T11:53:55.023Z</time></trkpt><trkpt lat="45.57882386399737" lon="8.633125353335085"><ele>222.66666666666666</ele><time>2026-04-19T11:53:56.023Z</time></trkpt><trkpt lat="45.578985097661864" lon="8.63314077392323"><ele>223.0</ele><time>2026-04-19T11:53:57.023Z</time></trkpt><trkpt lat="45.57914635390557" lon="8.633155701324114"><ele>223.0</ele><time>2026-04-19T11:53:58.023Z</time></trkpt><trkpt lat="45.5793088725323" lon="8.633171857669359"><ele>223.0</ele><time>2026-04-19T11:53:59.023Z</time></trkpt><trkpt lat="45.57947007535851" lon="8.633189866567696"><ele>223.0</ele><time>2026-04-19T11:54:00.023Z</time></trkpt><trkpt lat="45.579632407733804" lon="8.633212582780702"><ele>223.66666666666666</ele><time>2026-04-19T11:54:01.023Z</time></trkpt><trkpt lat="45.579796533964725" lon="8.633245957668224"><ele>224.33333333333331</ele><time>2026-04-19T11:54:02.023Z</time></trkpt><trkpt lat="45.57996281648056" lon="8.633286845010735"><ele>225.0</ele><time>2026-04-19T11:54:03.023Z</time></trkpt><trkpt lat="45.58013006500904" lon="8.633324586393224"><ele>225.0</ele><time>2026-04-19T11:54:04.023Z</time></trkpt><trkpt lat="45.5802983452343" lon="8.633359637296714"><ele>225.0</ele><time>2026-04-19T11:54:05.023Z</time></trkpt><trkpt lat="45.58046990624133" lon="8.633390564109655"><ele>225.0</ele><time>2026-04-19T11:54:06.023Z</time></trkpt><trkpt lat="45.58064271900255" lon="8.633423383184677"><ele>224.66666666666669</ele><time>2026-04-19T11:54:07.023Z</time></trkpt><trkpt lat="45.58081398826164" lon="8.63345707073312"><ele>224.33333333333334</ele><time>2026-04-19T11:54:08.023Z</time></trkpt><trkpt lat="45.58098360143037" lon="8.633491074789994"><ele>224.0</ele><time>2026-04-19T11:54:09.023Z</time></trkpt><trkpt lat="45.581150227143496" lon="8.633522323727055"><ele>224.33333333333334</ele><time>2026-04-19T11:54:10.023Z</time></trkpt><trkpt lat="45.58131580042695" lon="8.63355417145225"><ele>224.66666666666669</ele><time>2026-04-19T11:54:11.023Z</time></trkpt><trkpt lat="45.58147935693477" lon="8.6335836646914"><ele>225.0</ele><time>2026-04-19T11:54:12.023Z</time></trkpt><trkpt lat="45.58164070212588" lon="8.633613555388882"><ele>225.0</ele><time>2026-04-19T11:54:13.023Z</time></trkpt><trkpt lat="45.58179823604661" lon="8.633645027287436"><ele>225.0</ele><time>2026-04-19T11:54:14.023Z</time></trkpt><trkpt lat="45.58194694647462" lon="8.63367874285964"><ele>225.0</ele><time>2026-04-19T11:54:15.023Z</time></trkpt><trkpt lat="45.58208757402566" lon="8.633714300700305"><ele>224.5</ele><time>2026-04-19T11:54:16.023Z</time></trkpt><trkpt lat="45.582219396882394" lon="8.633745818916944"><ele>224.0</ele><time>2026-04-19T11:54:17.023Z</time></trkpt><trkpt lat="45.582342670807954" lon="8.633771649326995"><ele>223.5</ele><time>2026-04-19T11:54:18.024Z</time></trkpt><trkpt lat="45.58246527457986" lon="8.633795067516468"><ele>223.0</ele><time>2026-04-19T11:54:19.024Z</time></trkpt><trkpt lat="45.58258514907747" lon="8.633817456236821"><ele>223.0</ele><time>2026-04-19T11:54:20.024Z</time></trkpt><trkpt lat="45.582706575759296" lon="8.633823991227603"><ele>223.0</ele><time>2026-04-19T11:54:21.024Z</time></trkpt><trkpt lat="45.58283592390782" lon="8.633805956989857"><ele>223.0</ele><time>2026-04-19T11:54:22.024Z</time></trkpt><trkpt lat="45.582971872676005" lon="8.63377120647263"><ele>223.0</ele><time>2026-04-19T11:54:23.024Z</time></trkpt><trkpt lat="45.58310903557799" lon="8.633731258744557"><ele>223.25</ele><time>2026-04-19T11:54:24.024Z</time></trkpt><trkpt lat="45.58325012378019" lon="8.633690480129582"><ele>223.5</ele><time>2026-04-19T11:54:25.024Z</time></trkpt><trkpt lat="45.58339364643738" lon="8.633648970556086"><ele>223.75</ele><time>2026-04-19T11:54:26.024Z</time></trkpt><trkpt lat="45.583535447539646" lon="8.633607460172376"><ele>224.0</ele><time>2026-04-19T11:54:27.024Z</time></trkpt><trkpt lat="45.58366773775924" lon="8.633570147179418"><ele>224.75</ele><time>2026-04-19T11:54:28.024Z</time></trkpt><trkpt lat="45.583792489313446" lon="8.633532965254547"><ele>225.5</ele><time>2026-04-19T11:54:29.024Z</time></trkpt><trkpt lat="45.58390946155322" lon="8.633498609409402"><ele>226.25</ele><time>2026-04-19T11:54:30.024Z</time></trkpt><trkpt lat="45.58401436165647" lon="8.63346545563701"><ele>227.0</ele><time>2026-04-19T11:54:31.024Z</time></trkpt><trkpt lat="45.58411474358554" lon="8.633446077570227"><ele>227.0</ele><time>2026-04-19T11:54:32.024Z</time></trkpt><trkpt lat="45.584213521108246" lon="8.633445209704702"><ele>227.0</ele><time>2026-04-19T11:54:33.024Z</time></trkpt><trkpt lat="45.58430750456207" lon="8.633460889658146"><ele>227.0</ele><time>2026-04-19T11:54:34.024Z</time></trkpt><trkpt lat="45.5844004298561" lon="8.633530265917846"><ele>227.0</ele><time>2026-04-19T11:54:35.024Z</time></trkpt><trkpt lat="45.58449097861769" lon="8.633625417516331"><ele>227.0</ele><time>2026-04-19T11:54:36.024Z</time></trkpt><trkpt lat="45.58459081547282" lon="8.633720575484089"><ele>226.75</ele><time>2026-04-19T11:54:37.024Z</time></trkpt><trkpt lat="45.58470083267141" lon="8.633796809765956"><ele>226.5</ele><time>2026-04-19T11:54:38.024Z</time></trkpt><trkpt lat="45.584821232856434" lon="8.633837740388675"><ele>226.25</ele><time>2026-04-19T11:54:39.024Z</time></trkpt><trkpt lat="45.58495339441098" lon="8.633860933520516"><ele>226.0</ele><time>2026-04-19T11:54:40.024Z</time></trkpt><trkpt lat="45.585089670247534" lon="8.633883753991874"><ele>226.0</ele><time>2026-04-19T11:54:41.024Z</time></trkpt><trkpt lat="45.585231046124306" lon="8.633912155793531"><ele>226.0</ele><time>2026-04-19T11:54:42.024Z</time></trkpt><trkpt lat="45.58537314438514" lon="8.633940232285804"><ele>226.0</ele><time>2026-04-19T11:54:43.024Z</time></trkpt><trkpt lat="45.58551104977604" lon="8.633967327060386"><ele>226.0</ele><time>2026-04-19T11:54:44.024Z</time></trkpt><trkpt lat="45.58565313193939" lon="8.633994218989757"><ele>226.75</ele><time>2026-04-19T11:54:45.024Z</time></trkpt><trkpt lat="45.58579945504695" lon="8.63402202724325"><ele>227.5</ele><time>2026-04-19T11:54:46.024Z</time></trkpt><trkpt lat="45.585933268860366" lon="8.634035398421526"><ele>228.25</ele><time>2026-04-19T11:54:47.024Z</time></trkpt><trkpt lat="45.58606060174159" lon="8.63405635697805"><ele>229.0</ele><time>2026-04-19T11:54:48.024Z</time></trkpt><trkpt lat="45.58618173644032" lon="8.63409603852846"><ele>229.25</ele><time>2026-04-19T11:54:49.024Z</time></trkpt><trkpt lat="45.58631297120693" lon="8.634124697253966"><ele>229.5</ele><time>2026-04-19T11:54:50.024Z</time></trkpt><trkpt lat="45.58645028184694" lon="8.634130612516584"><ele>229.75</ele><time>2026-04-19T11:54:51.024Z</time></trkpt><trkpt lat="45.586594304127146" lon="8.634133988881253"><ele>230.0</ele><time>2026-04-19T11:54:52.024Z</time></trkpt><trkpt lat="45.58673939594127" lon="8.634134388825272"><ele>230.0</ele><time>2026-04-19T11:54:53.024Z</time></trkpt><trkpt lat="45.5868864039999" lon="8.634132006532324"><ele>230.0</ele><time>2026-04-19T11:54:54.024Z</time></trkpt><trkpt lat="45.58703446426139" lon="8.634127284389223"><ele>230.0</ele><time>2026-04-19T11:54:55.024Z</time></trkpt><trkpt lat="45.587182680705396" lon="8.634121692352192"><ele>230.0</ele><time>2026-04-19T11:54:56.024Z</time></trkpt><trkpt lat="45.58733131212996" lon="8.63411850843178"><ele>230.5</ele><time>2026-04-19T11:54:57.024Z</time></trkpt><trkpt lat="45.587478358591014" lon="8.634113240845673"><ele>231.0</ele><time>2026-04-19T11:54:58.024Z</time></trkpt><trkpt lat="45.5876256971799" lon="8.634107638371402"><ele>231.5</ele><time>2026-04-19T11:54:59.024Z</time></trkpt><trkpt lat="45.58777283340448" lon="8.634096508224667"><ele>232.0</ele><time>2026-04-19T11:55:00.024Z</time></trkpt><trkpt lat="45.587917161288026" lon="8.634094958240139"><ele>232.0</ele><time>2026-04-19T11:55:01.024Z</time></trkpt><trkpt lat="45.58806058715801" lon="8.634107183415006"><ele>232.0</ele><time>2026-04-19T11:55:02.024Z</time></trkpt><trkpt lat="45.588202069824185" lon="8.634139400689216"><ele>232.0</ele><time>2026-04-19T11:55:03.025Z</time></trkpt><trkpt lat="45.58834125200572" lon="8.634191145135853"><ele>232.0</ele><time>2026-04-19T11:55:04.025Z</time></trkpt><trkpt lat="45.588480850529514" lon="8.634250414117599"><ele>232.0</ele><time>2026-04-19T11:55:05.025Z</time></trkpt><trkpt lat="45.58862289921499" lon="8.6343075105632"><ele>232.0</ele><time>2026-04-19T11:55:06.025Z</time></trkpt><trkpt lat="45.58876743155335" lon="8.634365591451814"><ele>232.0</ele><time>2026-04-19T11:55:07.025Z</time></trkpt><trkpt lat="45.58891047629813" lon="8.634423669927994"><ele>232.0</ele><time>2026-04-19T11:55:08.025Z</time></trkpt><trkpt lat="45.58905203556724" lon="8.634481490664285"><ele>232.0</ele><time>2026-04-19T11:55:09.025Z</time></trkpt><trkpt lat="45.5891837291454" lon="8.634535184161383"><ele>232.0</ele><time>2026-04-19T11:55:10.025Z</time></trkpt><trkpt lat="45.58930541545365" lon="8.634582790398621"><ele>232.0</ele><time>2026-04-19T11:55:11.025Z</time></trkpt><trkpt lat="45.58941712493871" lon="8.634626569018542"><ele>232.0</ele><time>2026-04-19T11:55:12.025Z</time></trkpt><trkpt lat="45.58952867158596" lon="8.634653993415837"><ele>232.25</ele><time>2026-04-19T11:55:13.025Z</time></trkpt><trkpt lat="45.58965186026264" lon="8.634659170042468"><ele>232.5</ele><time>2026-04-19T11:55:14.025Z</time></trkpt><trkpt lat="45.58978039205391" lon="8.634635957581441"><ele>232.75</ele><time>2026-04-19T11:55:15.025Z</time></trkpt><trkpt lat="45.58991508712598" lon="8.634603070584857"><ele>233.0</ele><time>2026-04-19T11:55:16.025Z</time></trkpt><trkpt lat="45.59005082663733" lon="8.634576900074904"><ele>233.0</ele><time>2026-04-19T11:55:17.025Z</time></trkpt><trkpt lat="45.59019063435185" lon="8.63455122424003"><ele>233.0</ele><time>2026-04-19T11:55:18.025Z</time></trkpt><trkpt lat="45.590328560888196" lon="8.634520969334062"><ele>233.0</ele><time>2026-04-19T11:55:19.025Z</time></trkpt><trkpt lat="45.59045744407855" lon="8.634480417037837"><ele>233.0</ele><time>2026-04-19T11:55:20.025Z</time></trkpt><trkpt lat="45.590579055394976" lon="8.634453597881812"><ele>233.2</ele><time>2026-04-19T11:55:21.025Z</time></trkpt><trkpt lat="45.59069320831868" lon="8.634432643447948"><ele>233.4</ele><time>2026-04-19T11:55:22.025Z</time></trkpt><trkpt lat="45.59080720219031" lon="8.634410020949042"><ele>233.59999999999997</ele><time>2026-04-19T11:55:23.025Z</time></trkpt><trkpt lat="45.590916964077856" lon="8.634388858719952"><ele>233.79999999999998</ele><time>2026-04-19T11:55:24.025Z</time></trkpt><trkpt lat="45.59102133337174" lon="8.634390763876352"><ele>234.0</ele><time>2026-04-19T11:55:25.025Z</time></trkpt><trkpt lat="45.591107235306076" lon="8.634432748075985"><ele>234.0</ele><time>2026-04-19T11:55:26.025Z</time></trkpt><trkpt lat="45.591183944265445" lon="8.634506500061628"><ele>233.99999999999997</ele><time>2026-04-19T11:55:27.025Z</time></trkpt><trkpt lat="45.59126361993561" lon="8.634602448642408"><ele>233.99999999999997</ele><time>2026-04-19T11:55:28.025Z</time></trkpt><trkpt lat="45.59136021469243" lon="8.634705300380931"><ele>234.0</ele><time>2026-04-19T11:55:29.025Z</time></trkpt><trkpt lat="45.591458883827116" lon="8.634804258035796"><ele>234.0</ele><time>2026-04-19T11:55:30.025Z</time></trkpt><trkpt lat="45.59155097029047" lon="8.634909101326654"><ele>234.0</ele><time>2026-04-19T11:55:31.025Z</time></trkpt><trkpt lat="45.59162153516805" lon="8.63503765194434"><ele>234.0</ele><time>2026-04-19T11:55:32.025Z</time></trkpt><trkpt lat="45.59168097296481" lon="8.635193699999515"><ele>234.0</ele><time>2026-04-19T11:55:33.025Z</time></trkpt><trkpt lat="45.59173324313808" lon="8.635357786728179"><ele>234.0</ele><time>2026-04-19T11:55:34.025Z</time></trkpt><trkpt lat="45.59178561111004" lon="8.6355282154453"><ele>233.79999999999998</ele><time>2026-04-19T11:55:35.025Z</time></trkpt><trkpt lat="45.5918428078954" lon="8.6356707649519"><ele>233.59999999999997</ele><time>2026-04-19T11:55:36.025Z</time></trkpt><trkpt lat="45.59189597123209" lon="8.635798573348417"><ele>233.4</ele><time>2026-04-19T11:55:37.025Z</time></trkpt><trkpt lat="45.59196161989314" lon="8.635903677214145"><ele>233.2</ele><time>2026-04-19T11:55:38.025Z</time></trkpt><trkpt lat="45.59206195832379" lon="8.635975949011037"><ele>233.0</ele><time>2026-04-19T11:55:39.025Z</time></trkpt><trkpt lat="45.592172970406885" lon="8.636018810823328"><ele>233.0</ele><time>2026-04-19T11:55:40.025Z</time></trkpt><trkpt lat="45.5922976245983" lon="8.636028251510114"><ele>233.0</ele><time>2026-04-19T11:55:41.025Z</time></trkpt><trkpt lat="45.5924184007593" lon="8.636028007437538"><ele>233.0</ele><time>2026-04-19T11:55:42.025Z</time></trkpt><trkpt lat="45.592543095936556" lon="8.636034811416197"><ele>233.0</ele><time>2026-04-19T11:55:43.025Z</time></trkpt><trkpt lat="45.59267633002615" lon="8.636045787216812"><ele>233.0</ele><time>2026-04-19T11:55:44.025Z</time></trkpt><trkpt lat="45.592814207285485" lon="8.636060317072863"><ele>233.0</ele><time>2026-04-19T11:55:45.025Z</time></trkpt><trkpt lat="45.59295470697117" lon="8.636070491033546"><ele>233.0</ele><time>2026-04-19T11:55:46.025Z</time></trkpt><trkpt lat="45.59309741345057" lon="8.636075859973747"><ele>233.0</ele><time>2026-04-19T11:55:47.025Z</time></trkpt><trkpt lat="45.59324277183479" lon="8.636074219127243"><ele>233.25</ele><time>2026-04-19T11:55:48.026Z</time></trkpt><trkpt lat="45.59338765946784" lon="8.636077181880427"><ele>233.5</ele><time>2026-04-19T11:55:49.026Z</time></trkpt><trkpt lat="45.59352827147945" lon="8.636085432729205"><ele>233.75</ele><time>2026-04-19T11:55:50.026Z</time></trkpt><trkpt lat="45.59366365819821" lon="8.636093823334779"><ele>234.0</ele><time>2026-04-19T11:55:51.026Z</time></trkpt><trkpt lat="45.59379218177401" lon="8.636088192363875"><ele>234.0</ele><time>2026-04-19T11:55:52.026Z</time></trkpt><trkpt lat="45.593919341508666" lon="8.636067324139175"><ele>234.0</ele><time>2026-04-19T11:55:53.026Z</time></trkpt><trkpt lat="45.594050548567395" lon="8.636028764510762"><ele>234.0</ele><time>2026-04-19T11:55:54.026Z</time></trkpt><trkpt lat="45.59418030757351" lon="8.635993734898678"><ele>234.0</ele><time>2026-04-19T11:55:55.026Z</time></trkpt><trkpt lat="45.59429727360798" lon="8.635961909543031"><ele>234.0</ele><time>2026-04-19T11:55:56.026Z</time></trkpt><trkpt lat="45.594405376985414" lon="8.635933207093508"><ele>233.99999999999997</ele><time>2026-04-19T11:55:57.026Z</time></trkpt><trkpt lat="45.59450535527753" lon="8.63590768023253"><ele>233.99999999999997</ele><time>2026-04-19T11:55:58.026Z</time></trkpt><trkpt lat="45.59459402259491" lon="8.63585845655012"><ele>234.0</ele><time>2026-04-19T11:55:59.026Z</time></trkpt><trkpt lat="45.59466096465645" lon="8.635773776542479"><ele>234.0</ele><time>2026-04-19T11:56:00.026Z</time></trkpt><trkpt lat="45.594713340083395" lon="8.635669734679011"><ele>233.5</ele><time>2026-04-19T11:56:01.026Z</time></trkpt><trkpt lat="45.594766339795186" lon="8.635541825623486"><ele>233.0</ele><time>2026-04-19T11:56:02.026Z</time></trkpt><trkpt lat="45.594825340725805" lon="8.63539473201288"><ele>232.5</ele><time>2026-04-19T11:56:03.026Z</time></trkpt><trkpt lat="45.59489229337711" lon="8.63524432027392"><ele>232.0</ele><time>2026-04-19T11:56:04.026Z</time></trkpt><trkpt lat="45.59495301323041" lon="8.635097778751984"><ele>231.99999999999997</ele><time>2026-04-19T11:56:05.026Z</time></trkpt><trkpt lat="45.59500491052782" lon="8.634961208905718"><ele>232.0</ele><time>2026-04-19T11:56:06.026Z</time></trkpt><trkpt lat="45.595050141329445" lon="8.634842941537146"><ele>232.0</ele><time>2026-04-19T11:56:07.026Z</time></trkpt><trkpt lat="45.59508271421087" lon="8.634744155700728"><ele>232.0</ele><time>2026-04-19T11:56:08.026Z</time></trkpt><trkpt lat="45.59511245815479" lon="8.634663342946963"><ele>231.99999999999997</ele><time>2026-04-19T11:56:09.026Z</time></trkpt><trkpt lat="45.59516687696435" lon="8.634558275914241"><ele>232.0</ele><time>2026-04-19T11:56:11.026Z</time></trkpt><trkpt lat="45.59523424444418" lon="8.634628254290574"><ele>231.99999999999997</ele><time>2026-04-19T11:56:14.026Z</time></trkpt><trkpt lat="45.595244186318936" lon="8.634723027342469"><ele>232.0</ele><time>2026-04-19T11:56:15.026Z</time></trkpt><trkpt lat="45.59520416275827" lon="8.634813076764132"><ele>232.0</ele><time>2026-04-19T11:56:16.026Z</time></trkpt><trkpt lat="45.59515322363767" lon="8.634932316886312"><ele>232.0</ele><time>2026-04-19T11:56:18.026Z</time></trkpt><trkpt lat="45.59518042010996" lon="8.635064129093223"><ele>231.99999999999997</ele><time>2026-04-19T11:56:20.026Z</time></trkpt><trkpt lat="45.595250468424645" lon="8.635062403080747"><ele>232.0</ele><time>2026-04-19T11:56:22.026Z</time></trkpt><trkpt lat="45.595283478952844" lon="8.634974276871198"><ele>231.99999999999997</ele><time>2026-04-19T11:56:24.026Z</time></trkpt><trkpt lat="45.59529049429053" lon="8.634877705352904"><ele>232.0</ele><time>2026-04-19T11:56:25.026Z</time></trkpt><trkpt lat="45.59529936644244" lon="8.634751938719806"><ele>232.0</ele><time>2026-04-19T11:56:26.026Z</time></trkpt><trkpt lat="45.5953219509467" lon="8.63463703238911"><ele>232.0</ele><time>2026-04-19T11:56:27.026Z</time></trkpt><trkpt lat="45.595330485649114" lon="8.63452376956929"><ele>231.99999999999997</ele><time>2026-04-19T11:56:28.026Z</time></trkpt><trkpt lat="45.59530804362005" lon="8.634390227657738"><ele>232.0</ele><time>2026-04-19T11:56:29.026Z</time></trkpt><trkpt lat="45.59526209410661" lon="8.634245926077817"><ele>232.75</ele><time>2026-04-19T11:56:30.026Z</time></trkpt><trkpt lat="45.595206125491366" lon="8.634108083092416"><ele>233.5</ele><time>2026-04-19T11:56:31.026Z</time></trkpt><trkpt lat="45.595159667760015" lon="8.633957568692436"><ele>234.25</ele><time>2026-04-19T11:56:32.026Z</time></trkpt><trkpt lat="45.595114808054774" lon="8.633798147413088"><ele>235.0</ele><time>2026-04-19T11:56:33.027Z</time></trkpt><trkpt lat="45.5950683385554" lon="8.633642417333855"><ele>235.25</ele><time>2026-04-19T11:56:34.027Z</time></trkpt><trkpt lat="45.59502039119793" lon="8.633475329450143"><ele>235.5</ele><time>2026-04-19T11:56:35.027Z</time></trkpt><trkpt lat="45.594977681396614" lon="8.633298499694135"><ele>235.75</ele><time>2026-04-19T11:56:36.027Z</time></trkpt><trkpt lat="45.59494736433687" lon="8.63311299949232"><ele>236.0</ele><time>2026-04-19T11:56:37.027Z</time></trkpt><trkpt lat="45.59493056788495" lon="8.632916237941723"><ele>236.5</ele><time>2026-04-19T11:56:38.027Z</time></trkpt><trkpt lat="45.59492446829707" lon="8.632709546229597"><ele>237.0</ele><time>2026-04-19T11:56:39.027Z</time></trkpt><trkpt lat="45.59492043869566" lon="8.63249602875955"><ele>237.5</ele><time>2026-04-19T11:56:40.027Z</time></trkpt><trkpt lat="45.5949211348307" lon="8.632285016643417"><ele>238.0</ele><time>2026-04-19T11:56:41.027Z</time></trkpt><trkpt lat="45.59492638971579" lon="8.632082320440517"><ele>238.0</ele><time>2026-04-19T11:56:42.027Z</time></trkpt><trkpt lat="45.594926062266474" lon="8.63186916671274"><ele>238.0</ele><time>2026-04-19T11:56:43.027Z</time></trkpt><trkpt lat="45.594916592705424" lon="8.63164466195031"><ele>238.0</ele><time>2026-04-19T11:56:44.027Z</time></trkpt><trkpt lat="45.59490423740965" lon="8.631430481141498"><ele>238.0</ele><time>2026-04-19T11:56:45.027Z</time></trkpt><trkpt lat="45.5948882107019" lon="8.631216994280738"><ele>238.0</ele><time>2026-04-19T11:56:46.027Z</time></trkpt><trkpt lat="45.59488169220315" lon="8.631010103403987"><ele>238.0</ele><time>2026-04-19T11:56:46.985Z</time></trkpt><trkpt lat="45.59487741423858" lon="8.63079398927564"><ele>238.0</ele><time>2026-04-19T11:56:47.986Z</time></trkpt><trkpt lat="45.59486810402236" lon="8.630579100254847"><ele>237.66666666666666</ele><time>2026-04-19T11:56:48.986Z</time></trkpt><trkpt lat="45.59486560881033" lon="8.630362715386537"><ele>237.33333333333331</ele><time>2026-04-19T11:56:49.986Z</time></trkpt><trkpt lat="45.59486310272905" lon="8.630147916385715"><ele>237.0</ele><time>2026-04-19T11:56:50.986Z</time></trkpt><trkpt lat="45.59485919068743" lon="8.629936379977588"><ele>237.5</ele><time>2026-04-19T11:56:51.986Z</time></trkpt><trkpt lat="45.59485680382445" lon="8.629726221081565"><ele>238.0</ele><time>2026-04-19T11:56:52.986Z</time></trkpt><trkpt lat="45.594856815292914" lon="8.62951488581355"><ele>238.5</ele><time>2026-04-19T11:56:53.986Z</time></trkpt><trkpt lat="45.594853786501105" lon="8.629297785171488"><ele>239.0</ele><time>2026-04-19T11:56:54.986Z</time></trkpt><trkpt lat="45.594854700485065" lon="8.629077181759918"><ele>239.0</ele><time>2026-04-19T11:56:55.986Z</time></trkpt><trkpt lat="45.59484957564114" lon="8.628860068758609"><ele>239.0</ele><time>2026-04-19T11:56:56.986Z</time></trkpt><trkpt lat="45.59484341103628" lon="8.628643063389916"><ele>239.0</ele><time>2026-04-19T11:56:57.986Z</time></trkpt><trkpt lat="45.59483550153579" lon="8.628423804865998"><ele>238.25</ele><time>2026-04-19T11:56:58.986Z</time></trkpt><trkpt lat="45.59483043929276" lon="8.628210252700159"><ele>237.5</ele><time>2026-04-19T11:56:59.986Z</time></trkpt><trkpt lat="45.59482671147171" lon="8.628003536973319"><ele>236.75</ele><time>2026-04-19T11:57:00.986Z</time></trkpt><trkpt lat="45.5948217203894" lon="8.62780591872301"><ele>236.0</ele><time>2026-04-19T11:57:01.986Z</time></trkpt><trkpt lat="45.5948165111422" lon="8.627616830745714"><ele>235.25</ele><time>2026-04-19T11:57:02.986Z</time></trkpt><trkpt lat="45.59481117778768" lon="8.627438568068719"><ele>234.5</ele><time>2026-04-19T11:57:03.986Z</time></trkpt><trkpt lat="45.59480754484782" lon="8.62726671157962"><ele>233.75</ele><time>2026-04-19T11:57:04.986Z</time></trkpt><trkpt lat="45.59480341991787" lon="8.627109376568377"><ele>233.0</ele><time>2026-04-19T11:57:05.986Z</time></trkpt><trkpt lat="45.594803033110125" lon="8.62697111331708"><ele>232.50000000000003</ele><time>2026-04-19T11:57:06.986Z</time></trkpt><trkpt lat="45.59481586959223" lon="8.626850299308032"><ele>232.0</ele><time>2026-04-19T11:57:07.986Z</time></trkpt><trkpt lat="45.59484618324463" lon="8.626746075343663"><ele>231.5</ele><time>2026-04-19T11:57:08.986Z</time></trkpt><trkpt lat="45.59490125890771" lon="8.626669765557486"><ele>231.0</ele><time>2026-04-19T11:57:09.986Z</time></trkpt><trkpt lat="45.594977149417055" lon="8.626628556982663"><ele>230.50000000000003</ele><time>2026-04-19T11:57:10.986Z</time></trkpt><trkpt lat="45.59505736936465" lon="8.626626299585704"><ele>230.0</ele><time>2026-04-19T11:57:11.986Z</time></trkpt><trkpt lat="45.59516028845028" lon="8.626623534411115"><ele>230.0</ele><time>2026-04-19T11:57:12.986Z</time></trkpt><trkpt lat="45.59527143668503" lon="8.626621808550977"><ele>230.0</ele><time>2026-04-19T11:57:13.986Z</time></trkpt><trkpt lat="45.59539375184203" lon="8.626613316603894"><ele>230.0</ele><time>2026-04-19T11:57:14.986Z</time></trkpt><trkpt lat="45.59552593314843" lon="8.626605472274148"><ele>230.0</ele><time>2026-04-19T11:57:15.986Z</time></trkpt><trkpt lat="45.59566332833946" lon="8.626600765284818"><ele>230.0</ele><time>2026-04-19T11:57:16.986Z</time></trkpt><trkpt lat="45.59579501946068" lon="8.626598000528586"><ele>230.0</ele><time>2026-04-19T11:57:17.986Z</time></trkpt><trkpt lat="45.59593565885195" lon="8.62659109463918"><ele>230.0</ele><time>2026-04-19T11:57:18.986Z</time></trkpt><trkpt lat="45.59608057597694" lon="8.626578873454163"><ele>230.0</ele><time>2026-04-19T11:57:19.986Z</time></trkpt><trkpt lat="45.596224221653834" lon="8.626554045700756"><ele>230.5</ele><time>2026-04-19T11:57:20.986Z</time></trkpt><trkpt lat="45.59636601943111" lon="8.626506062779269"><ele>231.0</ele><time>2026-04-19T11:57:21.986Z</time></trkpt><trkpt lat="45.596509964584726" lon="8.626450085155495"><ele>231.5</ele><time>2026-04-19T11:57:22.986Z</time></trkpt><trkpt lat="45.596657258008825" lon="8.626393555310948"><ele>232.0</ele><time>2026-04-19T11:57:23.986Z</time></trkpt><trkpt lat="45.59680649605258" lon="8.626332518335243"><ele>232.0</ele><time>2026-04-19T11:57:24.986Z</time></trkpt><trkpt lat="45.59695645287313" lon="8.626265655344627"><ele>232.0</ele><time>2026-04-19T11:57:25.986Z</time></trkpt><trkpt lat="45.59710685202492" lon="8.626202325128538"><ele>232.0</ele><time>2026-04-19T11:57:26.986Z</time></trkpt><trkpt lat="45.597258494171406" lon="8.626140784333607"><ele>230.66666666666666</ele><time>2026-04-19T11:57:27.986Z</time></trkpt><trkpt lat="45.59741120441048" lon="8.626082312483732"><ele>229.33333333333331</ele><time>2026-04-19T11:57:28.986Z</time></trkpt><trkpt lat="45.59756263665363" lon="8.62602311538013"><ele>228.0</ele><time>2026-04-19T11:57:29.986Z</time></trkpt><trkpt lat="45.59770970113325" lon="8.625962963592487"><ele>228.5</ele><time>2026-04-19T11:57:30.986Z</time></trkpt><trkpt lat="45.59784647620968" lon="8.62590092125145"><ele>229.0</ele><time>2026-04-19T11:57:31.986Z</time></trkpt><trkpt lat="45.59798120817626" lon="8.62582725075293"><ele>229.5</ele><time>2026-04-19T11:57:32.987Z</time></trkpt><trkpt lat="45.59810027274305" lon="8.625727875128913"><ele>230.0</ele><time>2026-04-19T11:57:33.982Z</time></trkpt><trkpt lat="45.59821119692985" lon="8.625605366005177"><ele>230.0</ele><time>2026-04-19T11:57:34.983Z</time></trkpt><trkpt lat="45.598312008727994" lon="8.625479861832849"><ele>230.0</ele><time>2026-04-19T11:57:35.983Z</time></trkpt><trkpt lat="45.59841050751816" lon="8.625370682149663"><ele>230.0</ele><time>2026-04-19T11:57:36.983Z</time></trkpt><trkpt lat="45.598509635108144" lon="8.62528918820705"><ele>230.0</ele><time>2026-04-19T11:57:37.983Z</time></trkpt><trkpt lat="45.598608624316824" lon="8.625218834577169"><ele>230.6</ele><time>2026-04-19T11:57:38.983Z</time></trkpt><trkpt lat="45.598706719606405" lon="8.625166058401819"><ele>231.2</ele><time>2026-04-19T11:57:39.982Z</time></trkpt><trkpt lat="45.59880745618936" lon="8.625114342443647"><ele>231.8</ele><time>2026-04-19T11:57:40.982Z</time></trkpt><trkpt lat="45.5989090573089" lon="8.625063723952563"><ele>232.4</ele><time>2026-04-19T11:57:41.982Z</time></trkpt><trkpt lat="45.59901078899692" lon="8.625021408080562"><ele>233.0</ele><time>2026-04-19T11:57:42.982Z</time></trkpt><trkpt lat="45.59911934661104" lon="8.62497939286778"><ele>233.0</ele><time>2026-04-19T11:57:43.982Z</time></trkpt><trkpt lat="45.59922712748695" lon="8.624941711438275"><ele>233.0</ele><time>2026-04-19T11:57:44.982Z</time></trkpt><trkpt lat="45.59933206923203" lon="8.624901977988037"><ele>233.0</ele><time>2026-04-19T11:57:45.982Z</time></trkpt><trkpt lat="45.59944476736644" lon="8.624861091558259"><ele>233.0</ele><time>2026-04-19T11:57:46.982Z</time></trkpt><trkpt lat="45.59955539188638" lon="8.624812744033543"><ele>232.75</ele><time>2026-04-19T11:57:47.982Z</time></trkpt><trkpt lat="45.599669137628645" lon="8.6247601756624"><ele>232.5</ele><time>2026-04-19T11:57:48.982Z</time></trkpt><trkpt lat="45.59979049374142" lon="8.624712563355132"><ele>232.25</ele><time>2026-04-19T11:57:49.982Z</time></trkpt><trkpt lat="45.59991229624068" lon="8.624667260156384"><ele>232.0</ele><time>2026-04-19T11:57:50.982Z</time></trkpt><trkpt lat="45.6000331022835" lon="8.624621929772331"><ele>232.0</ele><time>2026-04-19T11:57:51.982Z</time></trkpt><trkpt lat="45.6001518820329" lon="8.624563555350067"><ele>232.0</ele><time>2026-04-19T11:57:52.982Z</time></trkpt><trkpt lat="45.600271331264274" lon="8.624507837884424"><ele>232.0</ele><time>2026-04-19T11:57:53.982Z</time></trkpt><trkpt lat="45.60039215368725" lon="8.624449235711145"><ele>232.0</ele><time>2026-04-19T11:57:54.982Z</time></trkpt><trkpt lat="45.600510051067296" lon="8.624395956014867"><ele>231.75</ele><time>2026-04-19T11:57:55.982Z</time></trkpt><trkpt lat="45.600630235787555" lon="8.624347403605032"><ele>231.5</ele><time>2026-04-19T11:57:56.982Z</time></trkpt><trkpt lat="45.600750007742356" lon="8.62429457683032"><ele>231.25</ele><time>2026-04-19T11:57:57.982Z</time></trkpt><trkpt lat="45.60087062047513" lon="8.624237062701045"><ele>231.0</ele><time>2026-04-19T11:57:58.982Z</time></trkpt><trkpt lat="45.60099188982622" lon="8.624181319086514"><ele>231.0</ele><time>2026-04-19T11:57:59.982Z</time></trkpt><trkpt lat="45.60111323232858" lon="8.624130145520748"><ele>231.0</ele><time>2026-04-19T11:58:00.982Z</time></trkpt><trkpt lat="45.60123177308369" lon="8.624083962664718"><ele>231.0</ele><time>2026-04-19T11:58:01.982Z</time></trkpt><trkpt lat="45.60133939916974" lon="8.624038779187984"><ele>231.0</ele><time>2026-04-19T11:58:02.982Z</time></trkpt><trkpt lat="45.60144569995106" lon="8.623994943331056"><ele>231.25</ele><time>2026-04-19T11:58:03.982Z</time></trkpt><trkpt lat="45.60155890801273" lon="8.623945721978298"><ele>231.5</ele><time>2026-04-19T11:58:04.982Z</time></trkpt><trkpt lat="45.601679857543196" lon="8.623895277160818"><ele>231.75</ele><time>2026-04-19T11:58:05.982Z</time></trkpt><trkpt lat="45.60181087032147" lon="8.623833688825703"><ele>232.0</ele><time>2026-04-19T11:58:06.982Z</time></trkpt><trkpt lat="45.60194848604863" lon="8.623766886862201"><ele>232.0</ele><time>2026-04-19T11:58:07.982Z</time></trkpt><trkpt lat="45.6020979774138" lon="8.623698513928774"><ele>232.0</ele><time>2026-04-19T11:58:08.982Z</time></trkpt><trkpt lat="45.60225038237461" lon="8.623626727575681"><ele>232.0</ele><time>2026-04-19T11:58:09.982Z</time></trkpt><trkpt lat="45.60239811253428" lon="8.62355824550484"><ele>232.0</ele><time>2026-04-19T11:58:10.982Z</time></trkpt><trkpt lat="45.602542810197" lon="8.623490237525163"><ele>232.0</ele><time>2026-04-19T11:58:11.982Z</time></trkpt><trkpt lat="45.6026880692105" lon="8.623422964599358"><ele>232.0</ele><time>2026-04-19T11:58:12.982Z</time></trkpt><trkpt lat="45.60283123143648" lon="8.623355448725192"><ele>231.75</ele><time>2026-04-19T11:58:13.982Z</time></trkpt><trkpt lat="45.60297505019151" lon="8.62328884640371"><ele>231.5</ele><time>2026-04-19T11:58:14.982Z</time></trkpt><trkpt lat="45.60311554372561" lon="8.623228433546473"><ele>231.25</ele><time>2026-04-19T11:58:15.982Z</time></trkpt><trkpt lat="45.60325806794426" lon="8.623168039305414"><ele>231.0</ele><time>2026-04-19T11:58:16.982Z</time></trkpt><trkpt lat="45.603403547374626" lon="8.623105323321095"><ele>231.0</ele><time>2026-04-19T11:58:17.982Z</time></trkpt><trkpt lat="45.60355487750019" lon="8.62304066018682"><ele>231.0</ele><time>2026-04-19T11:58:18.982Z</time></trkpt><trkpt lat="45.603712477193525" lon="8.622970721095808"><ele>231.0</ele><time>2026-04-19T11:58:19.983Z</time></trkpt><trkpt lat="45.6038752187486" lon="8.622892433502905"><ele>231.33333333333331</ele><time>2026-04-19T11:58:20.983Z</time></trkpt><trkpt lat="45.604040427929164" lon="8.622816835680927"><ele>231.66666666666666</ele><time>2026-04-19T11:58:21.983Z</time></trkpt><trkpt lat="45.604208203404056" lon="8.622742051636619"><ele>232.0</ele><time>2026-04-19T11:58:22.983Z</time></trkpt><trkpt lat="45.604377944892065" lon="8.622669405623677"><ele>232.66666666666666</ele><time>2026-04-19T11:58:23.983Z</time></trkpt><trkpt lat="45.6045523399759" lon="8.622602109769804"><ele>233.33333333333331</ele><time>2026-04-19T11:58:24.983Z</time></trkpt><trkpt lat="45.60472983969026" lon="8.622537458816815"><ele>234.0</ele><time>2026-04-19T11:58:25.983Z</time></trkpt><trkpt lat="45.60490846641611" lon="8.622471353509892"><ele>234.0</ele><time>2026-04-19T11:58:26.983Z</time></trkpt><trkpt lat="45.60508712075349" lon="8.622403316018607"><ele>234.0</ele><time>2026-04-19T11:58:27.983Z</time></trkpt><trkpt lat="45.605264378921376" lon="8.622332403969278"><ele>234.0</ele><time>2026-04-19T11:58:28.983Z</time></trkpt><trkpt lat="45.60543843376821" lon="8.622261682624773"><ele>233.66666666666669</ele><time>2026-04-19T11:58:29.983Z</time></trkpt><trkpt lat="45.60561012297426" lon="8.62219482340467"><ele>233.33333333333334</ele><time>2026-04-19T11:58:30.983Z</time></trkpt><trkpt lat="45.60578322196031" lon="8.622129242929777"><ele>233.0</ele><time>2026-04-19T11:58:31.983Z</time></trkpt><trkpt lat="45.60595471483882" lon="8.622057582290342"><ele>233.33333333333334</ele><time>2026-04-19T11:58:32.983Z</time></trkpt><trkpt lat="45.606127409691545" lon="8.621977685139447"><ele>233.66666666666669</ele><time>2026-04-19T11:58:33.983Z</time></trkpt><trkpt lat="45.60630060566141" lon="8.621896040910048"><ele>234.0</ele><time>2026-04-19T11:58:34.983Z</time></trkpt><trkpt lat="45.606472745737946" lon="8.62180496501172"><ele>234.33333333333331</ele><time>2026-04-19T11:58:35.983Z</time></trkpt><trkpt lat="45.6066431382094" lon="8.621708561543217"><ele>234.66666666666666</ele><time>2026-04-19T11:58:36.983Z</time></trkpt><trkpt lat="45.60681286585391" lon="8.621603902748312"><ele>235.0</ele><time>2026-04-19T11:58:37.983Z</time></trkpt><trkpt lat="45.606980719632126" lon="8.621495154440517"><ele>235.0</ele><time>2026-04-19T11:58:38.983Z</time></trkpt><trkpt lat="45.60714815919993" lon="8.621387083159252"><ele>235.0</ele><time>2026-04-19T11:58:39.983Z</time></trkpt><trkpt lat="45.60731690242773" lon="8.621279889038147"><ele>235.0</ele><time>2026-04-19T11:58:40.983Z</time></trkpt><trkpt lat="45.60748651946107" lon="8.621171825281124"><ele>235.0</ele><time>2026-04-19T11:58:41.983Z</time></trkpt><trkpt lat="45.60765966803442" lon="8.621068534384719"><ele>235.0</ele><time>2026-04-19T11:58:42.983Z</time></trkpt><trkpt lat="45.60784144605977" lon="8.620975521379236"><ele>235.0</ele><time>2026-04-19T11:58:43.983Z</time></trkpt><trkpt lat="45.60802146522154" lon="8.62088822321489"><ele>235.0</ele><time>2026-04-19T11:58:44.983Z</time></trkpt><trkpt lat="45.60820259385379" lon="8.620802420474483"><ele>235.0</ele><time>2026-04-19T11:58:45.983Z</time></trkpt><trkpt lat="45.60838392986024" lon="8.620717088828908"><ele>235.0</ele><time>2026-04-19T11:58:46.983Z</time></trkpt><trkpt lat="45.60856529247427" lon="8.620631366621815"><ele>235.0</ele><time>2026-04-19T11:58:47.983Z</time></trkpt><trkpt lat="45.60874603591124" lon="8.620544284729911"><ele>235.0</ele><time>2026-04-19T11:58:48.983Z</time></trkpt><trkpt lat="45.60892737767288" lon="8.620457210476891"><ele>235.0</ele><time>2026-04-19T11:58:49.983Z</time></trkpt><trkpt lat="45.609107672638245" lon="8.62037398636654"><ele>235.0</ele><time>2026-04-19T11:58:50.983Z</time></trkpt><trkpt lat="45.60928681596475" lon="8.620292607101158"><ele>235.0</ele><time>2026-04-19T11:58:51.983Z</time></trkpt><trkpt lat="45.609465793451164" lon="8.620212688649644"><ele>235.0</ele><time>2026-04-19T11:58:52.983Z</time></trkpt><trkpt lat="45.60964500938335" lon="8.6201316965834"><ele>235.33333333333331</ele><time>2026-04-19T11:58:53.983Z</time></trkpt><trkpt lat="45.60982345384744" lon="8.620050267512063"><ele>235.66666666666669</ele><time>2026-04-19T11:58:54.983Z</time></trkpt><trkpt lat="45.61000012920468" lon="8.619963608970398"><ele>236.0</ele><time>2026-04-19T11:58:55.983Z</time></trkpt><trkpt lat="45.61017207779214" lon="8.61986232193883"><ele>236.0</ele><time>2026-04-19T11:58:56.983Z</time></trkpt><trkpt lat="45.61033459377502" lon="8.619740815968646"><ele>236.0</ele><time>2026-04-19T11:58:57.983Z</time></trkpt><trkpt lat="45.61048834503747" lon="8.619598325380657"><ele>236.0</ele><time>2026-04-19T11:58:58.983Z</time></trkpt><trkpt lat="45.61063156932386" lon="8.619436960518799"><ele>236.0</ele><time>2026-04-19T11:58:59.983Z</time></trkpt><trkpt lat="45.61076830372153" lon="8.619260660286873"><ele>236.0</ele><time>2026-04-19T11:59:00.983Z</time></trkpt><trkpt lat="45.61089999108428" lon="8.619075594506489"><ele>236.0</ele><time>2026-04-19T11:59:01.983Z</time></trkpt><trkpt lat="45.6110252226236" lon="8.61888536821078"><ele>236.0</ele><time>2026-04-19T11:59:02.983Z</time></trkpt><trkpt lat="45.61114864268092" lon="8.618692143979757"><ele>236.0</ele><time>2026-04-19T11:59:03.983Z</time></trkpt><trkpt lat="45.61127115526731" lon="8.61850162058872"><ele>236.0</ele><time>2026-04-19T11:59:04.984Z</time></trkpt><trkpt lat="45.6113947958171" lon="8.618313445161295"><ele>236.33333333333334</ele><time>2026-04-19T11:59:05.984Z</time></trkpt><trkpt lat="45.61151975248677" lon="8.61812383496576"><ele>236.66666666666669</ele><time>2026-04-19T11:59:06.984Z</time></trkpt><trkpt lat="45.61164444533864" lon="8.617933501126942"><ele>237.0</ele><time>2026-04-19T11:59:07.984Z</time></trkpt><trkpt lat="45.611767456806085" lon="8.617741750608676"><ele>237.33333333333331</ele><time>2026-04-19T11:59:08.984Z</time></trkpt><trkpt lat="45.61189074434264" lon="8.617549637218689"><ele>237.66666666666666</ele><time>2026-04-19T11:59:09.984Z</time></trkpt><trkpt lat="45.61201406693228" lon="8.617357724592717"><ele>238.0</ele><time>2026-04-19T11:59:10.984Z</time></trkpt><trkpt lat="45.61214023135526" lon="8.617164828263617"><ele>238.66666666666666</ele><time>2026-04-19T11:59:11.984Z</time></trkpt><trkpt lat="45.612265847178705" lon="8.616973068516304"><ele>239.33333333333331</ele><time>2026-04-19T11:59:12.984Z</time></trkpt><trkpt lat="45.61239207045615" lon="8.616778255112672"><ele>240.0</ele><time>2026-04-19T11:59:13.984Z</time></trkpt><trkpt lat="45.612517986596906" lon="8.616583953631554"><ele>240.0</ele><time>2026-04-19T11:59:14.984Z</time></trkpt><trkpt lat="45.61264233852801" lon="8.616389962195953"><ele>240.0</ele><time>2026-04-19T11:59:15.984Z</time></trkpt><trkpt lat="45.61276692039346" lon="8.616193421188656"><ele>240.0</ele><time>2026-04-19T11:59:16.984Z</time></trkpt><trkpt lat="45.61289164810353" lon="8.615994115897614"><ele>239.66666666666669</ele><time>2026-04-19T11:59:17.984Z</time></trkpt><trkpt lat="45.6130199243869" lon="8.61579699158031"><ele>239.33333333333334</ele><time>2026-04-19T11:59:18.984Z</time></trkpt><trkpt lat="45.6131481316361" lon="8.615600828591107"><ele>239.0</ele><time>2026-04-19T11:59:19.984Z</time></trkpt><trkpt lat="45.61327535380437" lon="8.615401190183233"><ele>239.33333333333334</ele><time>2026-04-19T11:59:20.984Z</time></trkpt><trkpt lat="45.61340139617471" lon="8.615200505831986"><ele>239.66666666666669</ele><time>2026-04-19T11:59:21.984Z</time></trkpt><trkpt lat="45.613529493520645" lon="8.615001954002643"><ele>240.0</ele><time>2026-04-19T11:59:22.984Z</time></trkpt><trkpt lat="45.61365888715411" lon="8.614804595545039"><ele>240.0</ele><time>2026-04-19T11:59:23.984Z</time></trkpt><trkpt lat="45.613787832457966" lon="8.614608645845067"><ele>240.0</ele><time>2026-04-19T11:59:24.984Z</time></trkpt><trkpt lat="45.613915215164745" lon="8.614412610243626"><ele>240.0</ele><time>2026-04-19T11:59:25.984Z</time></trkpt><trkpt lat="45.614042722110796" lon="8.614213881834555"><ele>240.0</ele><time>2026-04-19T11:59:26.984Z</time></trkpt><trkpt lat="45.61417005887701" lon="8.614013592742499"><ele>240.0</ele><time>2026-04-19T11:59:27.984Z</time></trkpt><trkpt lat="45.614299084987486" lon="8.613817319166479"><ele>240.0</ele><time>2026-04-19T11:59:28.984Z</time></trkpt><trkpt lat="45.614425171116714" lon="8.613620432792407"><ele>239.66666666666669</ele><time>2026-04-19T11:59:29.984Z</time></trkpt><trkpt lat="45.614549380478124" lon="8.61342520470731"><ele>239.33333333333334</ele><time>2026-04-19T11:59:30.984Z</time></trkpt><trkpt lat="45.614674804049116" lon="8.613229941257387"><ele>239.0</ele><time>2026-04-19T11:59:31.984Z</time></trkpt><trkpt lat="45.61480058758861" lon="8.61303783521902"><ele>239.0</ele><time>2026-04-19T11:59:32.984Z</time></trkpt><trkpt lat="45.61492972130469" lon="8.612853936342258"><ele>239.0</ele><time>2026-04-19T11:59:33.984Z</time></trkpt><trkpt lat="45.615068950864696" lon="8.612689612736576"><ele>239.0</ele><time>2026-04-19T11:59:34.984Z</time></trkpt><trkpt lat="45.61521737427046" lon="8.612548200711792"><ele>239.33333333333334</ele><time>2026-04-19T11:59:35.984Z</time></trkpt><trkpt lat="45.61537134274924" lon="8.612422408035004"><ele>239.66666666666669</ele><time>2026-04-19T11:59:36.984Z</time></trkpt><trkpt lat="45.61552574532713" lon="8.612300094676101"><ele>240.0</ele><time>2026-04-19T11:59:37.984Z</time></trkpt><trkpt lat="45.615680646906554" lon="8.612175319283425"><ele>240.0</ele><time>2026-04-19T11:59:38.984Z</time></trkpt><trkpt lat="45.61583552561081" lon="8.612051247345066"><ele>240.0</ele><time>2026-04-19T11:59:39.981Z</time></trkpt><trkpt lat="45.61599228887748" lon="8.611926002235869"><ele>240.0</ele><time>2026-04-19T11:59:40.98Z</time></trkpt><trkpt lat="45.61614873816301" lon="8.61180071347114"><ele>240.0</ele><time>2026-04-19T11:59:41.981Z</time></trkpt><trkpt lat="45.616303097607194" lon="8.611675046843782"><ele>240.0</ele><time>2026-04-19T11:59:42.981Z</time></trkpt><trkpt lat="45.616454612788765" lon="8.61155590723755"><ele>240.0</ele><time>2026-04-19T11:59:43.98Z</time></trkpt><trkpt lat="45.61659945827503" lon="8.611449717873574"><ele>240.0</ele><time>2026-04-19T11:59:44.98Z</time></trkpt><trkpt lat="45.6167376987356" lon="8.611357494974447"><ele>240.0</ele><time>2026-04-19T11:59:45.98Z</time></trkpt><trkpt lat="45.61687099487465" lon="8.611276461676521"><ele>240.0</ele><time>2026-04-19T11:59:46.981Z</time></trkpt><trkpt lat="45.61699726902476" lon="8.611204647243436"><ele>240.0</ele><time>2026-04-19T11:59:47.981Z</time></trkpt><trkpt lat="45.61711386241969" lon="8.611136137384625"><ele>240.4</ele><time>2026-04-19T11:59:48.98Z</time></trkpt><trkpt lat="45.61722091089748" lon="8.611077357783481"><ele>240.8</ele><time>2026-04-19T11:59:49.98Z</time></trkpt><trkpt lat="45.617316264196965" lon="8.611028945065996"><ele>241.2</ele><time>2026-04-19T11:59:50.98Z</time></trkpt><trkpt lat="45.61740926530555" lon="8.610996287165696"><ele>241.6</ele><time>2026-04-19T11:59:51.98Z</time></trkpt><trkpt lat="45.617496272305026" lon="8.610994461547532"><ele>242.0</ele><time>2026-04-19T11:59:52.98Z</time></trkpt><trkpt lat="45.61757197401457" lon="8.610994991980654"><ele>242.0</ele><time>2026-04-19T11:59:53.98Z</time></trkpt><trkpt lat="45.617659487795535" lon="8.610898643688568"><ele>242.0</ele><time>2026-04-19T11:59:55.98Z</time></trkpt><trkpt lat="45.61766303530053" lon="8.610796480318616"><ele>242.0</ele><time>2026-04-19T11:59:56.98Z</time></trkpt><trkpt lat="45.61763167573779" lon="8.610680299231156"><ele>242.0</ele><time>2026-04-19T11:59:57.98Z</time></trkpt><trkpt lat="45.61760672468629" lon="8.61053783653446"><ele>242.0</ele><time>2026-04-19T11:59:58.98Z</time></trkpt><trkpt lat="45.61759800762751" lon="8.610384968500526"><ele>241.75</ele><time>2026-04-19T11:59:59.98Z</time></trkpt><trkpt lat="45.61758846637279" lon="8.61022852006238"><ele>241.5</ele><time>2026-04-19T12:00:00.98Z</time></trkpt><trkpt lat="45.61756911339657" lon="8.610058191111586"><ele>241.25</ele><time>2026-04-19T12:00:01.98Z</time></trkpt><trkpt lat="45.61753708393607" lon="8.609878285650948"><ele>241.0</ele><time>2026-04-19T12:00:02.98Z</time></trkpt><trkpt lat="45.61750658618519" lon="8.609694525114046"><ele>241.0</ele><time>2026-04-19T12:00:03.98Z</time></trkpt><trkpt lat="45.61747752864368" lon="8.609508730958886"><ele>241.0</ele><time>2026-04-19T12:00:04.98Z</time></trkpt><trkpt lat="45.61745371654405" lon="8.609328553175997"><ele>241.0</ele><time>2026-04-19T12:00:05.98Z</time></trkpt><trkpt lat="45.61743751887023" lon="8.60913413058939"><ele>241.0</ele><time>2026-04-19T12:00:06.98Z</time></trkpt><trkpt lat="45.61743731934409" lon="8.608935634303398"><ele>241.25</ele><time>2026-04-19T12:00:07.98Z</time></trkpt><trkpt lat="45.61744220267479" lon="8.608734438587925"><ele>241.5</ele><time>2026-04-19T12:00:08.98Z</time></trkpt><trkpt lat="45.61745071868719" lon="8.608532504951876"><ele>241.75</ele><time>2026-04-19T12:00:09.98Z</time></trkpt><trkpt lat="45.617459483767036" lon="8.608334411017703"><ele>242.0</ele><time>2026-04-19T12:00:10.98Z</time></trkpt><trkpt lat="45.61747248527879" lon="8.60814022163627"><ele>242.5</ele><time>2026-04-19T12:00:11.98Z</time></trkpt><trkpt lat="45.6174862538398" lon="8.607947035344418"><ele>243.0</ele><time>2026-04-19T12:00:12.981Z</time></trkpt><trkpt lat="45.617503810324806" lon="8.607759675806392"><ele>243.5</ele><time>2026-04-19T12:00:13.981Z</time></trkpt><trkpt lat="45.61752532976384" lon="8.607585296328422"><ele>244.0</ele><time>2026-04-19T12:00:14.981Z</time></trkpt><trkpt lat="45.61754788391732" lon="8.607430677086992"><ele>244.6</ele><time>2026-04-19T12:00:15.981Z</time></trkpt><trkpt lat="45.617569538923206" lon="8.607287742113645"><ele>245.2</ele><time>2026-04-19T12:00:16.981Z</time></trkpt><trkpt lat="45.61759250215007" lon="8.607163020137582"><ele>245.79999999999998</ele><time>2026-04-19T12:00:17.981Z</time></trkpt><trkpt lat="45.617608564424145" lon="8.607040852118022"><ele>246.39999999999998</ele><time>2026-04-19T12:00:18.981Z</time></trkpt><trkpt lat="45.61762218614948" lon="8.606909553303234"><ele>247.0</ele><time>2026-04-19T12:00:19.981Z</time></trkpt><trkpt lat="45.61762875380421" lon="8.606774612096382"><ele>247.49999999999997</ele><time>2026-04-19T12:00:20.981Z</time></trkpt><trkpt lat="45.61762959975268" lon="8.606634289413348"><ele>248.0</ele><time>2026-04-19T12:00:21.981Z</time></trkpt><trkpt lat="45.61762538027719" lon="8.606494904540002"><ele>248.5</ele><time>2026-04-19T12:00:22.981Z</time></trkpt><trkpt lat="45.617626661460264" lon="8.606373114259682"><ele>249.0</ele><time>2026-04-19T12:00:23.981Z</time></trkpt><trkpt lat="45.617639767234515" lon="8.606265518010089"><ele>249.49999999999997</ele><time>2026-04-19T12:00:24.981Z</time></trkpt><trkpt lat="45.61767156115834" lon="8.606172076695602"><ele>250.0</ele><time>2026-04-19T12:00:25.981Z</time></trkpt><trkpt lat="45.61772764809156" lon="8.606095697467225"><ele>250.0</ele><time>2026-04-19T12:00:26.981Z</time></trkpt><trkpt lat="45.617797053192284" lon="8.606036226413837"><ele>250.0</ele><time>2026-04-19T12:00:27.981Z</time></trkpt><trkpt lat="45.61786825470258" lon="8.605988163435635"><ele>250.0</ele><time>2026-04-19T12:00:28.981Z</time></trkpt><trkpt lat="45.61793436652193" lon="8.60595261024721"><ele>250.0</ele><time>2026-04-19T12:00:29.981Z</time></trkpt><trkpt lat="45.61800540365581" lon="8.605925499709919"><ele>250.0</ele><time>2026-04-19T12:00:30.981Z</time></trkpt><trkpt lat="45.618074894889446" lon="8.605901605308047"><ele>250.0</ele><time>2026-04-19T12:00:31.981Z</time></trkpt><trkpt lat="45.618136047362285" lon="8.60586361512321"><ele>250.0</ele><time>2026-04-19T12:00:32.981Z</time></trkpt><trkpt lat="45.61819678912024" lon="8.60576674488639"><ele>250.16666666666666</ele><time>2026-04-19T12:00:34.981Z</time></trkpt><trkpt lat="45.61816277329321" lon="8.605653915414944"><ele>250.33333333333331</ele><time>2026-04-19T12:00:36.981Z</time></trkpt><trkpt lat="45.6181326562793" lon="8.605566676292513"><ele>250.5</ele><time>2026-04-19T12:00:37.981Z</time></trkpt><trkpt lat="45.61810822677452" lon="8.605456417993922"><ele>250.66666666666669</ele><time>2026-04-19T12:00:38.981Z</time></trkpt><trkpt lat="45.61808632050507" lon="8.605341917118093"><ele>250.83333333333334</ele><time>2026-04-19T12:00:39.981Z</time></trkpt><trkpt lat="45.61805917356674" lon="8.605244936043803"><ele>251.0</ele><time>2026-04-19T12:00:40.981Z</time></trkpt><trkpt lat="45.61802266535694" lon="8.605099526326528"><ele>251.20000000000002</ele><time>2026-04-19T12:00:42.981Z</time></trkpt><trkpt lat="45.61804481406885" lon="8.604987353820775"><ele>251.40000000000003</ele><time>2026-04-19T12:00:46.981Z</time></trkpt><trkpt lat="45.61814296285832" lon="8.60496335028022"><ele>251.6</ele><time>2026-04-19T12:00:48.981Z</time></trkpt><trkpt lat="45.61825390814316" lon="8.604929259188077"><ele>251.8</ele><time>2026-04-19T12:00:50.981Z</time></trkpt><trkpt lat="45.61832760839931" lon="8.604898422958561"><ele>252.0</ele><time>2026-04-19T12:00:51.981Z</time></trkpt><trkpt lat="45.6184082902142" lon="8.604865038758563"><ele>252.0</ele><time>2026-04-19T12:00:52.981Z</time></trkpt><trkpt lat="45.61848396529671" lon="8.604810777323026"><ele>252.0</ele><time>2026-04-19T12:00:53.981Z</time></trkpt><trkpt lat="45.618569365925794" lon="8.604763075582301"><ele>252.0</ele><time>2026-04-19T12:00:54.981Z</time></trkpt><trkpt lat="45.6186709840819" lon="8.604717166715114"><ele>252.0</ele><time>2026-04-19T12:00:55.981Z</time></trkpt><trkpt lat="45.618777300277145" lon="8.604664976657919"><ele>252.0</ele><time>2026-04-19T12:00:56.981Z</time></trkpt><trkpt lat="45.618874025000686" lon="8.604619333100398"><ele>252.25</ele><time>2026-04-19T12:00:57.982Z</time></trkpt><trkpt lat="45.61897848182171" lon="8.604562652899691"><ele>252.5</ele><time>2026-04-19T12:00:58.982Z</time></trkpt><trkpt lat="45.619082532038654" lon="8.604496521402455"><ele>252.75</ele><time>2026-04-19T12:00:59.982Z</time></trkpt><trkpt lat="45.619183746173185" lon="8.60442869523794"><ele>253.0</ele><time>2026-04-19T12:01:00.982Z</time></trkpt><trkpt lat="45.619289097743966" lon="8.604359164278188"><ele>253.0</ele><time>2026-04-19T12:01:01.982Z</time></trkpt><trkpt lat="45.619378753087716" lon="8.604299331272921"><ele>253.0</ele><time>2026-04-19T12:01:02.982Z</time></trkpt><trkpt lat="45.61947314426507" lon="8.604238558418535"><ele>253.0</ele><time>2026-04-19T12:01:03.982Z</time></trkpt><trkpt lat="45.61957752352359" lon="8.60418222808182"><ele>253.0</ele><time>2026-04-19T12:01:04.982Z</time></trkpt><trkpt lat="45.61968768981488" lon="8.604122514265981"><ele>253.0</ele><time>2026-04-19T12:01:05.982Z</time></trkpt><trkpt lat="45.61979445715927" lon="8.604059660216564"><ele>253.4</ele><time>2026-04-19T12:01:06.982Z</time></trkpt><trkpt lat="45.619892117542236" lon="8.603999688118101"><ele>253.8</ele><time>2026-04-19T12:01:07.982Z</time></trkpt><trkpt lat="45.61998651167346" lon="8.603951626954196"><ele>254.2</ele><time>2026-04-19T12:01:08.982Z</time></trkpt><trkpt lat="45.62007595019087" lon="8.603904747524943"><ele>254.6</ele><time>2026-04-19T12:01:09.982Z</time></trkpt><trkpt lat="45.620155902355016" lon="8.603864031594899"><ele>255.0</ele><time>2026-04-19T12:01:10.982Z</time></trkpt><trkpt lat="45.62023547763473" lon="8.603835235437042"><ele>255.0</ele><time>2026-04-19T12:01:11.982Z</time></trkpt><trkpt lat="45.62031293580865" lon="8.603815359907655"><ele>255.0</ele><time>2026-04-19T12:01:12.982Z</time></trkpt><trkpt lat="45.620389559768135" lon="8.603804392410314"><ele>255.0</ele><time>2026-04-19T12:01:13.982Z</time></trkpt><trkpt lat="45.62046339854157" lon="8.603802204722298"><ele>255.0</ele><time>2026-04-19T12:01:14.982Z</time></trkpt><trkpt lat="45.62053025910333" lon="8.603805390613198"><ele>255.0</ele><time>2026-04-19T12:01:15.982Z</time></trkpt><trkpt lat="45.62059740386638" lon="8.60380548295857"><ele>255.0</ele><time>2026-04-19T12:01:16.982Z</time></trkpt><trkpt lat="45.620684551940094" lon="8.603814266855675"><ele>255.16666666666666</ele><time>2026-04-19T12:01:18.982Z</time></trkpt><trkpt lat="45.620749840080585" lon="8.603787867697928"><ele>255.33333333333331</ele><time>2026-04-19T12:01:21.982Z</time></trkpt><trkpt lat="45.62084838141331" lon="8.60373580892562"><ele>255.5</ele><time>2026-04-19T12:01:23.982Z</time></trkpt><trkpt lat="45.620902894782894" lon="8.603677924865208"><ele>255.66666666666666</ele><time>2026-04-19T12:01:24.982Z</time></trkpt><trkpt lat="45.6209666159044" lon="8.60362549847571"><ele>255.83333333333331</ele><time>2026-04-19T12:01:25.982Z</time></trkpt><trkpt lat="45.62103674159524" lon="8.603591138499961"><ele>256.0</ele><time>2026-04-19T12:01:26.982Z</time></trkpt><trkpt lat="45.621131623720686" lon="8.603556350286894"><ele>255.8</ele><time>2026-04-19T12:01:27.982Z</time></trkpt><trkpt lat="45.62122696373563" lon="8.603523627670207"><ele>255.60000000000002</ele><time>2026-04-19T12:01:28.982Z</time></trkpt><trkpt lat="45.621319440738525" lon="8.603491684599126"><ele>255.4</ele><time>2026-04-19T12:01:29.982Z</time></trkpt><trkpt lat="45.62141376496166" lon="8.603454195307156"><ele>255.2</ele><time>2026-04-19T12:01:30.982Z</time></trkpt><trkpt lat="45.62151532843595" lon="8.603412379130907"><ele>255.0</ele><time>2026-04-19T12:01:31.982Z</time></trkpt><trkpt lat="45.62161790443811" lon="8.603361317718694"><ele>255.0</ele><time>2026-04-19T12:01:32.982Z</time></trkpt><trkpt lat="45.621717224976486" lon="8.60330250711232"><ele>255.0</ele><time>2026-04-19T12:01:33.982Z</time></trkpt><trkpt lat="45.62181622050289" lon="8.603258954998125"><ele>255.0</ele><time>2026-04-19T12:01:34.982Z</time></trkpt><trkpt lat="45.621919898274946" lon="8.603218578106134"><ele>255.0</ele><time>2026-04-19T12:01:35.982Z</time></trkpt><trkpt lat="45.62202497763276" lon="8.603174021724259"><ele>255.0</ele><time>2026-04-19T12:01:36.982Z</time></trkpt><trkpt lat="45.62212924079245" lon="8.60310249837736"><ele>255.5</ele><time>2026-04-19T12:01:37.982Z</time></trkpt><trkpt lat="45.622236808174975" lon="8.603046859614947"><ele>256.0</ele><time>2026-04-19T12:01:38.982Z</time></trkpt><trkpt lat="45.622346214205" lon="8.602985613040872"><ele>256.5</ele><time>2026-04-19T12:01:39.982Z</time></trkpt><trkpt lat="45.622461010941024" lon="8.602920503875316"><ele>257.0</ele><time>2026-04-19T12:01:40.982Z</time></trkpt><trkpt lat="45.622579418740074" lon="8.60285244212363"><ele>256.25</ele><time>2026-04-19T12:01:41.982Z</time></trkpt><trkpt lat="45.62269644524814" lon="8.602776362154527"><ele>255.5</ele><time>2026-04-19T12:01:42.983Z</time></trkpt><trkpt lat="45.62281544673894" lon="8.602691143004646"><ele>254.75</ele><time>2026-04-19T12:01:43.983Z</time></trkpt><trkpt lat="45.62293816486721" lon="8.602606886771829"><ele>254.0</ele><time>2026-04-19T12:01:44.983Z</time></trkpt><trkpt lat="45.623057430287915" lon="8.602515341186976"><ele>254.0</ele><time>2026-04-19T12:01:45.979Z</time></trkpt><trkpt lat="45.623175874926126" lon="8.60242009525997"><ele>254.0</ele><time>2026-04-19T12:01:46.979Z</time></trkpt><trkpt lat="45.62328814307283" lon="8.602320380422684"><ele>254.0</ele><time>2026-04-19T12:01:47.979Z</time></trkpt><trkpt lat="45.623391391019624" lon="8.602224995117458"><ele>254.0</ele><time>2026-04-19T12:01:48.979Z</time></trkpt><trkpt lat="45.62349154231836" lon="8.602141900169403"><ele>254.0</ele><time>2026-04-19T12:01:49.978Z</time></trkpt><trkpt lat="45.62358708186856" lon="8.602070344988931"><ele>253.99999999999997</ele><time>2026-04-19T12:01:50.978Z</time></trkpt><trkpt lat="45.62367695014485" lon="8.602003938164351"><ele>253.99999999999997</ele><time>2026-04-19T12:01:51.978Z</time></trkpt><trkpt lat="45.62375422546466" lon="8.601931325106918"><ele>254.0</ele><time>2026-04-19T12:01:52.978Z</time></trkpt><trkpt lat="45.62380188593696" lon="8.60183685725231"><ele>254.0</ele><time>2026-04-19T12:01:53.978Z</time></trkpt><trkpt lat="45.623820930827165" lon="8.601699992257846"><ele>254.39999999999998</ele><time>2026-04-19T12:01:54.979Z</time></trkpt><trkpt lat="45.623817524358415" lon="8.601546095703267"><ele>254.79999999999998</ele><time>2026-04-19T12:01:55.978Z</time></trkpt><trkpt lat="45.62380892702705" lon="8.601393815854424"><ele>255.20000000000002</ele><time>2026-04-19T12:01:56.978Z</time></trkpt><trkpt lat="45.62380897242198" lon="8.601252861320843"><ele>255.60000000000002</ele><time>2026-04-19T12:01:57.979Z</time></trkpt><trkpt lat="45.623830516900796" lon="8.601117407463386"><ele>256.0</ele><time>2026-04-19T12:01:58.978Z</time></trkpt><trkpt lat="45.623881055568354" lon="8.600991418157072"><ele>256.0</ele><time>2026-04-19T12:01:59.978Z</time></trkpt><trkpt lat="45.6239704788498" lon="8.60089016560953"><ele>256.0</ele><time>2026-04-19T12:02:00.978Z</time></trkpt><trkpt lat="45.624072524285914" lon="8.600803559163953"><ele>256.0</ele><time>2026-04-19T12:02:01.978Z</time></trkpt><trkpt lat="45.62417054339184" lon="8.600715656505077"><ele>256.0</ele><time>2026-04-19T12:02:02.978Z</time></trkpt><trkpt lat="45.62427058554963" lon="8.600627810098322"><ele>256.0</ele><time>2026-04-19T12:02:03.978Z</time></trkpt><trkpt lat="45.62437740816019" lon="8.600527208148657"><ele>256.0</ele><time>2026-04-19T12:02:04.978Z</time></trkpt><trkpt lat="45.62448227899353" lon="8.600412067008484"><ele>256.0</ele><time>2026-04-19T12:02:05.978Z</time></trkpt><trkpt lat="45.62457836151726" lon="8.600277334738001"><ele>256.0</ele><time>2026-04-19T12:02:06.978Z</time></trkpt><trkpt lat="45.62464715502152" lon="8.600106972038501"><ele>256.75</ele><time>2026-04-19T12:02:07.978Z</time></trkpt><trkpt lat="45.62469344250615" lon="8.599919141524062"><ele>257.5</ele><time>2026-04-19T12:02:08.978Z</time></trkpt><trkpt lat="45.624724580242045" lon="8.599724847329131"><ele>258.25</ele><time>2026-04-19T12:02:09.978Z</time></trkpt><trkpt lat="45.62475740391175" lon="8.599525419141045"><ele>259.0</ele><time>2026-04-19T12:02:10.978Z</time></trkpt><trkpt lat="45.62478823619907" lon="8.599325823824776"><ele>259.25</ele><time>2026-04-19T12:02:11.978Z</time></trkpt><trkpt lat="45.624821084789765" lon="8.599124173004716"><ele>259.5</ele><time>2026-04-19T12:02:12.978Z</time></trkpt><trkpt lat="45.624855179228334" lon="8.598912670021232"><ele>259.75</ele><time>2026-04-19T12:02:13.979Z</time></trkpt><trkpt lat="45.62488886358189" lon="8.598699554164234"><ele>260.0</ele><time>2026-04-19T12:02:14.979Z</time></trkpt><trkpt lat="45.62492547427479" lon="8.598481935497771"><ele>260.6666666666667</ele><time>2026-04-19T12:02:15.979Z</time></trkpt><trkpt lat="45.62496093798633" lon="8.59826550063059"><ele>261.3333333333333</ele><time>2026-04-19T12:02:16.979Z</time></trkpt><trkpt lat="45.62499554647813" lon="8.598046768522194"><ele>262.0</ele><time>2026-04-19T12:02:17.979Z</time></trkpt><trkpt lat="45.625031123071174" lon="8.597829807200839"><ele>263.0</ele><time>2026-04-19T12:02:18.979Z</time></trkpt><trkpt lat="45.62506790084967" lon="8.597614296513836"><ele>264.0</ele><time>2026-04-19T12:02:19.979Z</time></trkpt><trkpt lat="45.62510363267701" lon="8.597398164576608"><ele>265.0</ele><time>2026-04-19T12:02:20.979Z</time></trkpt><trkpt lat="45.62513771562456" lon="8.597186300706733"><ele>267.5</ele><time>2026-04-19T12:02:21.979Z</time></trkpt><trkpt lat="45.62517237481509" lon="8.59697723432489"><ele>270.0</ele><time>2026-04-19T12:02:22.979Z</time></trkpt><trkpt lat="45.62520722237941" lon="8.596772413013092"><ele>272.5</ele><time>2026-04-19T12:02:23.979Z</time></trkpt><trkpt lat="45.62524301907321" lon="8.596567074929371"><ele>275.0</ele><time>2026-04-19T12:02:24.979Z</time></trkpt><trkpt lat="45.6252775982258" lon="8.596364481472463"><ele>276.25</ele><time>2026-04-19T12:02:25.979Z</time></trkpt><trkpt lat="45.625311091037744" lon="8.596160041556699"><ele>277.5</ele><time>2026-04-19T12:02:26.979Z</time></trkpt><trkpt lat="45.625343808442715" lon="8.595963684863458"><ele>278.75</ele><time>2026-04-19T12:02:27.979Z</time></trkpt><trkpt lat="45.62537153873058" lon="8.595778956208267"><ele>280.0</ele><time>2026-04-19T12:02:28.979Z</time></trkpt><trkpt lat="45.62539543025882" lon="8.59561128238148"><ele>280.2</ele><time>2026-04-19T12:02:29.979Z</time></trkpt><trkpt lat="45.62541794201763" lon="8.595456973106806"><ele>280.4</ele><time>2026-04-19T12:02:30.979Z</time></trkpt><trkpt lat="45.625442384978534" lon="8.595308776116692"><ele>280.6</ele><time>2026-04-19T12:02:31.979Z</time></trkpt><trkpt lat="45.625464562078946" lon="8.59516869753862"><ele>280.8</ele><time>2026-04-19T12:02:32.979Z</time></trkpt><trkpt lat="45.62548484366134" lon="8.595036222481818"><ele>281.0</ele><time>2026-04-19T12:02:33.979Z</time></trkpt><trkpt lat="45.62550371221752" lon="8.594926748054723"><ele>281.33333333333337</ele><time>2026-04-19T12:02:34.979Z</time></trkpt><trkpt lat="45.62552733324518" lon="8.594830648062308"><ele>281.6666666666667</ele><time>2026-04-19T12:02:35.979Z</time></trkpt><trkpt lat="45.62556130112752" lon="8.59473727472517"><ele>282.0</ele><time>2026-04-19T12:02:36.979Z</time></trkpt><trkpt lat="45.62561253579418" lon="8.594656609409428"><ele>282.3333333333333</ele><time>2026-04-19T12:02:37.979Z</time></trkpt><trkpt lat="45.62568103617164" lon="8.594596579162927"><ele>282.66666666666663</ele><time>2026-04-19T12:02:38.979Z</time></trkpt><trkpt lat="45.62575405536628" lon="8.594528196020589"><ele>283.0</ele><time>2026-04-19T12:02:39.979Z</time></trkpt><trkpt lat="45.625811163534166" lon="8.594425000027776"><ele>283.0</ele><time>2026-04-19T12:02:40.979Z</time></trkpt><trkpt lat="45.62584919604463" lon="8.59429265627739"><ele>283.0</ele><time>2026-04-19T12:02:41.979Z</time></trkpt><trkpt lat="45.62585744062329" lon="8.594134900814952"><ele>283.0</ele><time>2026-04-19T12:02:42.979Z</time></trkpt><trkpt lat="45.62584655288891" lon="8.5939674192381"><ele>283.0</ele><time>2026-04-19T12:02:43.979Z</time></trkpt><trkpt lat="45.62583536151398" lon="8.593804702441197"><ele>283.0</ele><time>2026-04-19T12:02:44.979Z</time></trkpt><trkpt lat="45.62582517487807" lon="8.593630489277311"><ele>283.0</ele><time>2026-04-19T12:02:45.979Z</time></trkpt><trkpt lat="45.62581713584665" lon="8.593451152164112"><ele>283.0</ele><time>2026-04-19T12:02:46.979Z</time></trkpt><trkpt lat="45.62580869937169" lon="8.593280850685971"><ele>283.0</ele><time>2026-04-19T12:02:47.979Z</time></trkpt><trkpt lat="45.62580245221276" lon="8.593121222261074"><ele>283.0</ele><time>2026-04-19T12:02:48.979Z</time></trkpt><trkpt lat="45.62580599381611" lon="8.592967625957984"><ele>282.25</ele><time>2026-04-19T12:02:49.979Z</time></trkpt><trkpt lat="45.62583053986783" lon="8.592822727027697"><ele>281.5</ele><time>2026-04-19T12:02:50.979Z</time></trkpt><trkpt lat="45.625888419378455" lon="8.59269131934708"><ele>280.75</ele><time>2026-04-19T12:02:51.979Z</time></trkpt><trkpt lat="45.625973809924815" lon="8.592568612384026"><ele>280.0</ele><time>2026-04-19T12:02:52.979Z</time></trkpt><trkpt lat="45.62607312611562" lon="8.592454599780394"><ele>280.0</ele><time>2026-04-19T12:02:53.979Z</time></trkpt><trkpt lat="45.626172019615204" lon="8.592362809022495"><ele>280.0</ele><time>2026-04-19T12:02:54.979Z</time></trkpt><trkpt lat="45.62625559926062" lon="8.592253599911627"><ele>280.0</ele><time>2026-04-19T12:02:55.979Z</time></trkpt><trkpt lat="45.62629301856781" lon="8.59210646600227"><ele>280.0</ele><time>2026-04-19T12:02:56.979Z</time></trkpt><trkpt lat="45.626295358040835" lon="8.591952472121951"><ele>280.0</ele><time>2026-04-19T12:02:57.979Z</time></trkpt><trkpt lat="45.62629018475344" lon="8.591792857316921"><ele>280.0</ele><time>2026-04-19T12:02:58.98Z</time></trkpt><trkpt lat="45.62628812406006" lon="8.59162956311641"><ele>280.0</ele><time>2026-04-19T12:02:59.98Z</time></trkpt><trkpt lat="45.62628224849302" lon="8.59145718544165"><ele>280.0</ele><time>2026-04-19T12:03:00.98Z</time></trkpt><trkpt lat="45.626280557883376" lon="8.591286433509323"><ele>280.0</ele><time>2026-04-19T12:03:01.98Z</time></trkpt><trkpt lat="45.62628091316219" lon="8.591116216773733"><ele>281.5</ele><time>2026-04-19T12:03:02.98Z</time></trkpt><trkpt lat="45.626301574286586" lon="8.59095326635252"><ele>283.0</ele><time>2026-04-19T12:03:03.98Z</time></trkpt><trkpt lat="45.62634134505898" lon="8.5907932882663"><ele>284.5</ele><time>2026-04-19T12:03:04.98Z</time></trkpt><trkpt lat="45.6263879995299" lon="8.59063050626518"><ele>286.0</ele><time>2026-04-19T12:03:05.98Z</time></trkpt><trkpt lat="45.62643835704784" lon="8.5904618242453"><ele>287.0</ele><time>2026-04-19T12:03:06.98Z</time></trkpt><trkpt lat="45.62648654435905" lon="8.59029016653436"><ele>288.0</ele><time>2026-04-19T12:03:07.98Z</time></trkpt><trkpt lat="45.62653446683455" lon="8.590112850268099"><ele>289.0</ele><time>2026-04-19T12:03:08.98Z</time></trkpt><trkpt lat="45.62658241804068" lon="8.589929710285869"><ele>290.0</ele><time>2026-04-19T12:03:09.98Z</time></trkpt><trkpt lat="45.626621575065606" lon="8.58973669955158"><ele>290.0</ele><time>2026-04-19T12:03:10.98Z</time></trkpt><trkpt lat="45.6266539849438" lon="8.589532971984754"><ele>290.0</ele><time>2026-04-19T12:03:11.98Z</time></trkpt><trkpt lat="45.626685639300675" lon="8.589323030268154"><ele>290.0</ele><time>2026-04-19T12:03:12.98Z</time></trkpt><trkpt lat="45.626715880773105" lon="8.589110110745178"><ele>290.0</ele><time>2026-04-19T12:03:13.98Z</time></trkpt><trkpt lat="45.62674449677078" lon="8.588895246446725"><ele>290.33333333333337</ele><time>2026-04-19T12:03:14.98Z</time></trkpt><trkpt lat="45.62677396029595" lon="8.58868057593182"><ele>290.6666666666667</ele><time>2026-04-19T12:03:15.98Z</time></trkpt><trkpt lat="45.62680464468868" lon="8.588469082267574"><ele>291.0</ele><time>2026-04-19T12:03:16.98Z</time></trkpt><trkpt lat="45.62683231336722" lon="8.588263757407539"><ele>290.5</ele><time>2026-04-19T12:03:17.98Z</time></trkpt><trkpt lat="45.6268554332311" lon="8.58807137300895"><ele>290.0</ele><time>2026-04-19T12:03:18.98Z</time></trkpt><trkpt lat="45.62687651946192" lon="8.587884831472373"><ele>289.5</ele><time>2026-04-19T12:03:19.98Z</time></trkpt><trkpt lat="45.62689701126868" lon="8.587707492347816"><ele>289.0</ele><time>2026-04-19T12:03:20.98Z</time></trkpt><trkpt lat="45.626929055685615" lon="8.587544623060273"><ele>289.2</ele><time>2026-04-19T12:03:21.98Z</time></trkpt><trkpt lat="45.62698117983379" lon="8.587403968024992"><ele>289.4</ele><time>2026-04-19T12:03:22.98Z</time></trkpt><trkpt lat="45.62705939893327" lon="8.587305390364211"><ele>289.6</ele><time>2026-04-19T12:03:23.98Z</time></trkpt><trkpt lat="45.62715468094431" lon="8.58725777278211"><ele>289.8</ele><time>2026-04-19T12:03:24.98Z</time></trkpt><trkpt lat="45.627267981780136" lon="8.587253637357287"><ele>290.0</ele><time>2026-04-19T12:03:25.98Z</time></trkpt><trkpt lat="45.62739016550719" lon="8.587256072384628"><ele>290.0</ele><time>2026-04-19T12:03:26.98Z</time></trkpt><trkpt lat="45.62751736017109" lon="8.587253891520906"><ele>290.0</ele><time>2026-04-19T12:03:27.98Z</time></trkpt><trkpt lat="45.62763562322541" lon="8.587235107816333"><ele>290.0</ele><time>2026-04-19T12:03:28.98Z</time></trkpt><trkpt lat="45.62773912996112" lon="8.587187951708342"><ele>290.0</ele><time>2026-04-19T12:03:29.98Z</time></trkpt><trkpt lat="45.627829765992" lon="8.587110188790168"><ele>290.5</ele><time>2026-04-19T12:03:30.98Z</time></trkpt><trkpt lat="45.627910336295585" lon="8.586989098616993"><ele>291.0</ele><time>2026-04-19T12:03:31.98Z</time></trkpt><trkpt lat="45.62799325162149" lon="8.586851657376508"><ele>291.5</ele><time>2026-04-19T12:03:32.98Z</time></trkpt><trkpt lat="45.62806293347714" lon="8.58671748321367"><ele>292.0</ele><time>2026-04-19T12:03:33.98Z</time></trkpt><trkpt lat="45.62811805221634" lon="8.586571397912452"><ele>292.0</ele><time>2026-04-19T12:03:34.98Z</time></trkpt><trkpt lat="45.62815854464963" lon="8.586400839041858"><ele>292.0</ele><time>2026-04-19T12:03:35.98Z</time></trkpt><trkpt lat="45.62817770186649" lon="8.586226228634496"><ele>292.0</ele><time>2026-04-19T12:03:36.98Z</time></trkpt><trkpt lat="45.62817269008117" lon="8.586050426589813"><ele>292.0</ele><time>2026-04-19T12:03:37.98Z</time></trkpt><trkpt lat="45.62814029096026" lon="8.585880661935887"><ele>290.25</ele><time>2026-04-19T12:03:38.98Z</time></trkpt><trkpt lat="45.628089106451014" lon="8.585708343144306"><ele>288.5</ele><time>2026-04-19T12:03:39.98Z</time></trkpt><trkpt lat="45.62804054979997" lon="8.58552494537601"><ele>286.75</ele><time>2026-04-19T12:03:40.98Z</time></trkpt><trkpt lat="45.62799021249803" lon="8.585334957951956"><ele>285.0</ele><time>2026-04-19T12:03:41.98Z</time></trkpt><trkpt lat="45.62793794841178" lon="8.585137814342334"><ele>283.5</ele><time>2026-04-19T12:03:42.98Z</time></trkpt><trkpt lat="45.62788867919702" lon="8.584936596334042"><ele>282.0</ele><time>2026-04-19T12:03:43.981Z</time></trkpt><trkpt lat="45.62784194706196" lon="8.584738497354218"><ele>280.5</ele><time>2026-04-19T12:03:44.981Z</time></trkpt><trkpt lat="45.6277944888497" lon="8.584544316551156"><ele>279.0</ele><time>2026-04-19T12:03:45.981Z</time></trkpt><trkpt lat="45.627747612791644" lon="8.584350144611735"><ele>276.0</ele><time>2026-04-19T12:03:46.981Z</time></trkpt><trkpt lat="45.62770259860852" lon="8.584157309856176"><ele>273.0</ele><time>2026-04-19T12:03:47.981Z</time></trkpt><trkpt lat="45.62766243997587" lon="8.58397847790002"><ele>270.0</ele><time>2026-04-19T12:03:48.981Z</time></trkpt><trkpt lat="45.62763179967901" lon="8.58381394014645"><ele>267.0</ele><time>2026-04-19T12:03:49.981Z</time></trkpt><trkpt lat="45.627634060406216" lon="8.583662139548748"><ele>267.0</ele><time>2026-04-19T12:03:50.981Z</time></trkpt><trkpt lat="45.62766973632518" lon="8.583518723393796"><ele>267.0</ele><time>2026-04-19T12:03:51.977Z</time></trkpt><trkpt lat="45.627737970652404" lon="8.58341383214637"><ele>267.0</ele><time>2026-04-19T12:03:52.977Z</time></trkpt><trkpt lat="45.62782900773677" lon="8.583347337635987"><ele>267.0</ele><time>2026-04-19T12:03:53.977Z</time></trkpt><trkpt lat="45.627935969987725" lon="8.583296370343"><ele>267.0</ele><time>2026-04-19T12:03:54.977Z</time></trkpt><trkpt lat="45.628050264685406" lon="8.583240454740189"><ele>266.8</ele><time>2026-04-19T12:03:55.977Z</time></trkpt><trkpt lat="45.62816898655176" lon="8.58318726336046"><ele>266.6</ele><time>2026-04-19T12:03:56.977Z</time></trkpt><trkpt lat="45.62827417432786" lon="8.583125508410028"><ele>266.40000000000003</ele><time>2026-04-19T12:03:57.977Z</time></trkpt><trkpt lat="45.62835917199327" lon="8.583045223572178"><ele>266.2</ele><time>2026-04-19T12:03:58.977Z</time></trkpt><trkpt lat="45.62841164364199" lon="8.582933948022934"><ele>266.0</ele><time>2026-04-19T12:03:59.977Z</time></trkpt><trkpt lat="45.62844943062657" lon="8.58280860457189"><ele>266.0</ele><time>2026-04-19T12:04:00.978Z</time></trkpt><trkpt lat="45.62847913042771" lon="8.582663364295076"><ele>266.0</ele><time>2026-04-19T12:04:01.977Z</time></trkpt><trkpt lat="45.62851123785777" lon="8.582499737555985"><ele>266.0</ele><time>2026-04-19T12:04:02.977Z</time></trkpt><trkpt lat="45.62854051847518" lon="8.582322202807587"><ele>266.0</ele><time>2026-04-19T12:04:03.977Z</time></trkpt><trkpt lat="45.628574510021316" lon="8.582140541684655"><ele>267.0</ele><time>2026-04-19T12:04:04.977Z</time></trkpt><trkpt lat="45.6286071243287" lon="8.581959205456322"><ele>268.0</ele><time>2026-04-19T12:04:05.977Z</time></trkpt><trkpt lat="45.62864078800377" lon="8.58176643385967"><ele>269.0</ele><time>2026-04-19T12:04:06.977Z</time></trkpt><trkpt lat="45.62867662225316" lon="8.58156480682577"><ele>270.0</ele><time>2026-04-19T12:04:07.977Z</time></trkpt><trkpt lat="45.628718069490766" lon="8.581360184270276"><ele>270.6666666666667</ele><time>2026-04-19T12:04:08.977Z</time></trkpt><trkpt lat="45.628760244268264" lon="8.581146834092536"><ele>271.33333333333337</ele><time>2026-04-19T12:04:09.977Z</time></trkpt><trkpt lat="45.62880212373727" lon="8.580930654041032"><ele>272.0</ele><time>2026-04-19T12:04:10.977Z</time></trkpt><trkpt lat="45.62884303321227" lon="8.580715837654841"><ele>272.0</ele><time>2026-04-19T12:04:11.977Z</time></trkpt><trkpt lat="45.62888991323953" lon="8.580502644228652"><ele>272.0</ele><time>2026-04-19T12:04:12.977Z</time></trkpt><trkpt lat="45.628936502845974" lon="8.58028484686033"><ele>272.0</ele><time>2026-04-19T12:04:13.977Z</time></trkpt><trkpt lat="45.62897655384583" lon="8.580086494962744"><ele>272.75</ele><time>2026-04-19T12:04:14.977Z</time></trkpt><trkpt lat="45.62901025657742" lon="8.57991033440115"><ele>273.5</ele><time>2026-04-19T12:04:15.977Z</time></trkpt><trkpt lat="45.6290352138826" lon="8.579749683370515"><ele>274.25</ele><time>2026-04-19T12:04:16.977Z</time></trkpt><trkpt lat="45.629043700485525" lon="8.579591828550221"><ele>275.0</ele><time>2026-04-19T12:04:17.977Z</time></trkpt><trkpt lat="45.629032616171486" lon="8.579423942535223"><ele>274.5</ele><time>2026-04-19T12:04:18.977Z</time></trkpt><trkpt lat="45.629003477914935" lon="8.579251285062183"><ele>274.0</ele><time>2026-04-19T12:04:19.977Z</time></trkpt><trkpt lat="45.628966458857036" lon="8.579067712718988"><ele>273.5</ele><time>2026-04-19T12:04:20.977Z</time></trkpt><trkpt lat="45.62893062660433" lon="8.578870351773512"><ele>273.0</ele><time>2026-04-19T12:04:21.977Z</time></trkpt><trkpt lat="45.62890781850375" lon="8.578663434645652"><ele>273.0</ele><time>2026-04-19T12:04:22.977Z</time></trkpt><trkpt lat="45.62888397529821" lon="8.578451426353343"><ele>273.0</ele><time>2026-04-19T12:04:23.977Z</time></trkpt><trkpt lat="45.62886072949563" lon="8.578234449906043"><ele>273.0</ele><time>2026-04-19T12:04:24.977Z</time></trkpt><trkpt lat="45.62884065000736" lon="8.578015569594427"><ele>271.5</ele><time>2026-04-19T12:04:25.977Z</time></trkpt><trkpt lat="45.628818079961235" lon="8.577798414700224"><ele>270.0</ele><time>2026-04-19T12:04:26.978Z</time></trkpt><trkpt lat="45.62879784180475" lon="8.57758957632542"><ele>268.5</ele><time>2026-04-19T12:04:27.978Z</time></trkpt><trkpt lat="45.62877891622247" lon="8.57739035019032"><ele>267.0</ele><time>2026-04-19T12:04:28.978Z</time></trkpt><trkpt lat="45.62876105501895" lon="8.577199830614159"><ele>266.25</ele><time>2026-04-19T12:04:29.978Z</time></trkpt><trkpt lat="45.62874840045634" lon="8.577018018966118"><ele>265.5</ele><time>2026-04-19T12:04:30.978Z</time></trkpt><trkpt lat="45.62875796942246" lon="8.576845373999001"><ele>264.75</ele><time>2026-04-19T12:04:31.978Z</time></trkpt><trkpt lat="45.628796302344014" lon="8.576701554055944"><ele>264.0</ele><time>2026-04-19T12:04:32.978Z</time></trkpt><trkpt lat="45.62886205609183" lon="8.576599730551477"><ele>264.0</ele><time>2026-04-19T12:04:33.978Z</time></trkpt><trkpt lat="45.6289522298733" lon="8.576526635774028"><ele>264.0</ele><time>2026-04-19T12:04:34.978Z</time></trkpt><trkpt lat="45.62905447118527" lon="8.576447521456064"><ele>264.0</ele><time>2026-04-19T12:04:35.978Z</time></trkpt><trkpt lat="45.629166659855585" lon="8.576363877724175"><ele>264.0</ele><time>2026-04-19T12:04:36.978Z</time></trkpt><trkpt lat="45.629288431391174" lon="8.576279060278674"><ele>264.0</ele><time>2026-04-19T12:04:37.978Z</time></trkpt><trkpt lat="45.62941777627389" lon="8.57619814079856"><ele>264.0</ele><time>2026-04-19T12:04:38.978Z</time></trkpt><trkpt lat="45.62955380022593" lon="8.57611329780573"><ele>264.0</ele><time>2026-04-19T12:04:39.978Z</time></trkpt><trkpt lat="45.62969349617333" lon="8.576030616218405"><ele>264.0</ele><time>2026-04-19T12:04:40.978Z</time></trkpt><trkpt lat="45.62983517705557" lon="8.575944851075143"><ele>264.3333333333333</ele><time>2026-04-19T12:04:41.978Z</time></trkpt><trkpt lat="45.629977003532716" lon="8.575857636120434"><ele>264.66666666666663</ele><time>2026-04-19T12:04:42.978Z</time></trkpt><trkpt lat="45.630115244254554" lon="8.57575948812586"><ele>265.0</ele><time>2026-04-19T12:04:43.978Z</time></trkpt><trkpt lat="45.630245891092684" lon="8.575635003866054"><ele>265.0</ele><time>2026-04-19T12:04:44.978Z</time></trkpt><trkpt lat="45.63037210229685" lon="8.575500315320545"><ele>265.0</ele><time>2026-04-19T12:04:45.978Z</time></trkpt><trkpt lat="45.63049971404081" lon="8.575369317373157"><ele>265.0</ele><time>2026-04-19T12:04:46.978Z</time></trkpt><trkpt lat="45.630635081181254" lon="8.575254569156124"><ele>265.0</ele><time>2026-04-19T12:04:47.978Z</time></trkpt><trkpt lat="45.63077736161819" lon="8.575158119230084"><ele>265.0</ele><time>2026-04-19T12:04:48.978Z</time></trkpt><trkpt lat="45.6309234257853" lon="8.57506808013579"><ele>265.0</ele><time>2026-04-19T12:04:49.978Z</time></trkpt><trkpt lat="45.63106275215084" lon="8.574984305673148"><ele>266.0</ele><time>2026-04-19T12:04:50.978Z</time></trkpt><trkpt lat="45.6312072003501" lon="8.574894262774686"><ele>267.0</ele><time>2026-04-19T12:04:51.978Z</time></trkpt><trkpt lat="45.6313504273971" lon="8.574803081291815"><ele>268.0</ele><time>2026-04-19T12:04:52.978Z</time></trkpt><trkpt lat="45.6314813426923" lon="8.57470630982302"><ele>268.0</ele><time>2026-04-19T12:04:53.978Z</time></trkpt><trkpt lat="45.63159909675861" lon="8.574586474824297"><ele>268.0</ele><time>2026-04-19T12:04:54.978Z</time></trkpt><trkpt lat="45.63170314045822" lon="8.57443417723948"><ele>268.0</ele><time>2026-04-19T12:04:55.978Z</time></trkpt><trkpt lat="45.63179565206774" lon="8.574262371565146"><ele>268.0</ele><time>2026-04-19T12:04:56.978Z</time></trkpt><trkpt lat="45.63189540126609" lon="8.57410329603643"><ele>268.0</ele><time>2026-04-19T12:04:57.978Z</time></trkpt><trkpt lat="45.63201777713436" lon="8.573965013506145"><ele>268.0</ele><time>2026-04-19T12:04:58.978Z</time></trkpt><trkpt lat="45.63214928737536" lon="8.573841667001812"><ele>268.0</ele><time>2026-04-19T12:04:59.978Z</time></trkpt><trkpt lat="45.632285708364094" lon="8.573716135564423"><ele>267.3333333333333</ele><time>2026-04-19T12:05:00.978Z</time></trkpt><trkpt lat="45.632424363057495" lon="8.573590697729971"><ele>266.6666666666667</ele><time>2026-04-19T12:05:01.978Z</time></trkpt><trkpt lat="45.63256712937942" lon="8.573463525752546"><ele>266.0</ele><time>2026-04-19T12:05:02.978Z</time></trkpt><trkpt lat="45.632713722008084" lon="8.573340895512635"><ele>267.0</ele><time>2026-04-19T12:05:03.978Z</time></trkpt><trkpt lat="45.63286149936603" lon="8.573218560216818"><ele>268.0</ele><time>2026-04-19T12:05:04.978Z</time></trkpt><trkpt lat="45.63300793564531" lon="8.573097590157618"><ele>269.0</ele><time>2026-04-19T12:05:05.978Z</time></trkpt><trkpt lat="45.633155850467375" lon="8.572975025049452"><ele>268.6666666666667</ele><time>2026-04-19T12:05:06.978Z</time></trkpt><trkpt lat="45.63329907851702" lon="8.57285368612247"><ele>268.3333333333333</ele><time>2026-04-19T12:05:07.978Z</time></trkpt><trkpt lat="45.6334325273029" lon="8.572739499629673"><ele>268.0</ele><time>2026-04-19T12:05:08.978Z</time></trkpt><trkpt lat="45.633563451316384" lon="8.572646376352324"><ele>268.25</ele><time>2026-04-19T12:05:09.978Z</time></trkpt><trkpt lat="45.63369564279726" lon="8.5725801161978"><ele>268.5</ele><time>2026-04-19T12:05:10.978Z</time></trkpt><trkpt lat="45.63383406672893" lon="8.572553594826383"><ele>268.75</ele><time>2026-04-19T12:05:11.978Z</time></trkpt><trkpt lat="45.63397941790006" lon="8.572556820598532"><ele>269.0</ele><time>2026-04-19T12:05:12.979Z</time></trkpt><trkpt lat="45.634126888938" lon="8.572584678184402"><ele>269.0</ele><time>2026-04-19T12:05:13.979Z</time></trkpt><trkpt lat="45.634278448636316" lon="8.572594442649025"><ele>269.0</ele><time>2026-04-19T12:05:14.979Z</time></trkpt><trkpt lat="45.63443209836543" lon="8.572565960466966"><ele>269.0</ele><time>2026-04-19T12:05:15.979Z</time></trkpt><trkpt lat="45.634577270619125" lon="8.572522950707866"><ele>269.25</ele><time>2026-04-19T12:05:16.979Z</time></trkpt><trkpt lat="45.63471015538044" lon="8.572482623578386"><ele>269.5</ele><time>2026-04-19T12:05:17.979Z</time></trkpt><trkpt lat="45.63482988252869" lon="8.57243798632554"><ele>269.75</ele><time>2026-04-19T12:05:18.979Z</time></trkpt><trkpt lat="45.634929570646776" lon="8.572365616353663"><ele>270.0</ele><time>2026-04-19T12:05:19.979Z</time></trkpt><trkpt lat="45.6350094595242" lon="8.572249363742017"><ele>270.0</ele><time>2026-04-19T12:05:20.979Z</time></trkpt><trkpt lat="45.63507010850447" lon="8.572099313635524"><ele>270.0</ele><time>2026-04-19T12:05:21.979Z</time></trkpt><trkpt lat="45.635110620576654" lon="8.571928353357515"><ele>270.0</ele><time>2026-04-19T12:05:22.979Z</time></trkpt><trkpt lat="45.63512829271148" lon="8.57176557328447"><ele>270.0</ele><time>2026-04-19T12:05:23.979Z</time></trkpt><trkpt lat="45.63511485793761" lon="8.571611159119623"><ele>270.0</ele><time>2026-04-19T12:05:24.979Z</time></trkpt><trkpt lat="45.635070945926145" lon="8.571464060625784"><ele>270.0</ele><time>2026-04-19T12:05:25.979Z</time></trkpt><trkpt lat="45.63499696835445" lon="8.571330076956473"><ele>270.0</ele><time>2026-04-19T12:05:26.979Z</time></trkpt><trkpt lat="45.63491453790882" lon="8.571198122919768"><ele>270.0</ele><time>2026-04-19T12:05:27.979Z</time></trkpt><trkpt lat="45.63484472358022" lon="8.57107142466922"><ele>270.0</ele><time>2026-04-19T12:05:28.979Z</time></trkpt><trkpt lat="45.63478860821608" lon="8.570941725139411"><ele>270.0</ele><time>2026-04-19T12:05:29.979Z</time></trkpt><trkpt lat="45.63474120127569" lon="8.570801963114386"><ele>270.0</ele><time>2026-04-19T12:05:30.979Z</time></trkpt><trkpt lat="45.63470494328267" lon="8.570656326462283"><ele>270.0</ele><time>2026-04-19T12:05:31.979Z</time></trkpt><trkpt lat="45.63467928297534" lon="8.570502704398777"><ele>270.0</ele><time>2026-04-19T12:05:32.979Z</time></trkpt><trkpt lat="45.634677656715155" lon="8.570328238432419"><ele>270.0</ele><time>2026-04-19T12:05:33.979Z</time></trkpt><trkpt lat="45.63468847012629" lon="8.570140569202163"><ele>270.0</ele><time>2026-04-19T12:05:34.979Z</time></trkpt><trkpt lat="45.634701839473536" lon="8.569935888493351"><ele>270.0</ele><time>2026-04-19T12:05:35.979Z</time></trkpt><trkpt lat="45.63471406359152" lon="8.569723269772426"><ele>270.0</ele><time>2026-04-19T12:05:36.979Z</time></trkpt><trkpt lat="45.63472952591738" lon="8.569508506123233"><ele>269.5</ele><time>2026-04-19T12:05:37.979Z</time></trkpt><trkpt lat="45.63474043722261" lon="8.569302609383291"><ele>269.0</ele><time>2026-04-19T12:05:38.979Z</time></trkpt><trkpt lat="45.634745512634005" lon="8.569091155147715"><ele>268.5</ele><time>2026-04-19T12:05:39.979Z</time></trkpt><trkpt lat="45.634754689710235" lon="8.568883263408468"><ele>268.0</ele><time>2026-04-19T12:05:40.979Z</time></trkpt><trkpt lat="45.634764542181834" lon="8.568688113367672"><ele>267.25</ele><time>2026-04-19T12:05:41.979Z</time></trkpt><trkpt lat="45.634772111369095" lon="8.568499427519153"><ele>266.5</ele><time>2026-04-19T12:05:42.979Z</time></trkpt><trkpt lat="45.63477001734369" lon="8.568318146752949"><ele>265.75</ele><time>2026-04-19T12:05:43.979Z</time></trkpt><trkpt lat="45.634743376471135" lon="8.568135906738107"><ele>265.0</ele><time>2026-04-19T12:05:44.979Z</time></trkpt><trkpt lat="45.63468800607132" lon="8.567959880035769"><ele>265.0</ele><time>2026-04-19T12:05:45.979Z</time></trkpt><trkpt lat="45.63461920553773" lon="8.567789259436603"><ele>265.0</ele><time>2026-04-19T12:05:46.979Z</time></trkpt><trkpt lat="45.634534438443644" lon="8.56762922850231"><ele>265.0</ele><time>2026-04-19T12:05:47.979Z</time></trkpt><trkpt lat="45.63445141885688" lon="8.567470774962603"><ele>265.0</ele><time>2026-04-19T12:05:48.979Z</time></trkpt><trkpt lat="45.634375962131735" lon="8.56730732069421"><ele>265.0</ele><time>2026-04-19T12:05:49.979Z</time></trkpt><trkpt lat="45.63431534872873" lon="8.56714180252329"><ele>265.0</ele><time>2026-04-19T12:05:50.979Z</time></trkpt><trkpt lat="45.63425638638693" lon="8.566975054892106"><ele>265.0</ele><time>2026-04-19T12:05:51.979Z</time></trkpt><trkpt lat="45.63419885485815" lon="8.566810648801242"><ele>265.0</ele><time>2026-04-19T12:05:52.979Z</time></trkpt><trkpt lat="45.63413792031741" lon="8.566647750559994"><ele>264.75</ele><time>2026-04-19T12:05:53.979Z</time></trkpt><trkpt lat="45.634073246389455" lon="8.566484801223663"><ele>264.5</ele><time>2026-04-19T12:05:54.979Z</time></trkpt><trkpt lat="45.63401080676284" lon="8.566317852775299"><ele>264.25</ele><time>2026-04-19T12:05:55.979Z</time></trkpt><trkpt lat="45.6339522198813" lon="8.566148964227118"><ele>264.0</ele><time>2026-04-19T12:05:56.979Z</time></trkpt><trkpt lat="45.63389610787166" lon="8.565971613469737"><ele>264.0</ele><time>2026-04-19T12:05:57.976Z</time></trkpt><trkpt lat="45.63384490530998" lon="8.565791351000367"><ele>264.0</ele><time>2026-04-19T12:05:58.976Z</time></trkpt><trkpt lat="45.633799598724345" lon="8.565607457129872"><ele>264.0</ele><time>2026-04-19T12:05:59.976Z</time></trkpt><trkpt lat="45.633755751411734" lon="8.565421299493764"><ele>264.0</ele><time>2026-04-19T12:06:00.976Z</time></trkpt><trkpt lat="45.63371627418012" lon="8.565232483355189"><ele>263.75</ele><time>2026-04-19T12:06:01.976Z</time></trkpt><trkpt lat="45.63368969380648" lon="8.565037079387988"><ele>263.5</ele><time>2026-04-19T12:06:02.976Z</time></trkpt><trkpt lat="45.63367183474696" lon="8.564838951383692"><ele>263.25</ele><time>2026-04-19T12:06:03.976Z</time></trkpt><trkpt lat="45.63365841848386" lon="8.564635956206326"><ele>263.0</ele><time>2026-04-19T12:06:04.976Z</time></trkpt><trkpt lat="45.633641460868006" lon="8.564437152472093"><ele>263.0</ele><time>2026-04-19T12:06:05.977Z</time></trkpt><trkpt lat="45.633619415373516" lon="8.564247876180886"><ele>263.0</ele><time>2026-04-19T12:06:06.976Z</time></trkpt><trkpt lat="45.63359562902458" lon="8.564069152274435"><ele>263.0</ele><time>2026-04-19T12:06:07.976Z</time></trkpt><trkpt lat="45.63357614708339" lon="8.563893998966188"><ele>263.0</ele><time>2026-04-19T12:06:08.976Z</time></trkpt><trkpt lat="45.63357275218811" lon="8.563711743856944"><ele>262.75</ele><time>2026-04-19T12:06:09.976Z</time></trkpt><trkpt lat="45.633587265884806" lon="8.563520458231674"><ele>262.5</ele><time>2026-04-19T12:06:10.976Z</time></trkpt><trkpt lat="45.63362344770451" lon="8.563330607086776"><ele>262.25</ele><time>2026-04-19T12:06:11.976Z</time></trkpt><trkpt lat="45.633678959015306" lon="8.563137513525577"><ele>262.0</ele><time>2026-04-19T12:06:12.976Z</time></trkpt><trkpt lat="45.63372629084607" lon="8.56293385301478"><ele>262.0</ele><time>2026-04-19T12:06:13.976Z</time></trkpt><trkpt lat="45.63377553304033" lon="8.562729097598485"><ele>262.0</ele><time>2026-04-19T12:06:14.976Z</time></trkpt><trkpt lat="45.633835580541735" lon="8.562530433246096"><ele>262.0</ele><time>2026-04-19T12:06:15.976Z</time></trkpt><trkpt lat="45.6339131290126" lon="8.562349420802283"><ele>262.0</ele><time>2026-04-19T12:06:16.976Z</time></trkpt><trkpt lat="45.63399653797366" lon="8.562193719107452"><ele>262.0</ele><time>2026-04-19T12:06:17.976Z</time></trkpt><trkpt lat="45.63409450654659" lon="8.56207597959068"><ele>262.0</ele><time>2026-04-19T12:06:18.976Z</time></trkpt><trkpt lat="45.63420135968518" lon="8.561997925358732"><ele>262.0</ele><time>2026-04-19T12:06:19.976Z</time></trkpt><trkpt lat="45.63429025552748" lon="8.561916523971798"><ele>261.75</ele><time>2026-04-19T12:06:20.976Z</time></trkpt><trkpt lat="45.63435803743455" lon="8.561793461191161"><ele>261.5</ele><time>2026-04-19T12:06:21.976Z</time></trkpt><trkpt lat="45.63441534620438" lon="8.561634774574243"><ele>261.25</ele><time>2026-04-19T12:06:22.976Z</time></trkpt><trkpt lat="45.63446463883687" lon="8.561460089415108"><ele>261.0</ele><time>2026-04-19T12:06:23.976Z</time></trkpt><trkpt lat="45.634513995687406" lon="8.561278710388493"><ele>261.25</ele><time>2026-04-19T12:06:24.976Z</time></trkpt><trkpt lat="45.63456341986067" lon="8.561091585753262"><ele>261.5</ele><time>2026-04-19T12:06:25.976Z</time></trkpt><trkpt lat="45.63460832865854" lon="8.560906412845618"><ele>261.75</ele><time>2026-04-19T12:06:26.976Z</time></trkpt><trkpt lat="45.6346500465444" lon="8.560720255511917"><ele>262.0</ele><time>2026-04-19T12:06:27.976Z</time></trkpt><trkpt lat="45.63468336361007" lon="8.56053209652465"><ele>262.0</ele><time>2026-04-19T12:06:28.976Z</time></trkpt><trkpt lat="45.63471066884891" lon="8.560351426065198"><ele>262.0</ele><time>2026-04-19T12:06:29.976Z</time></trkpt><trkpt lat="45.63473915865042" lon="8.560173981231118"><ele>262.0</ele><time>2026-04-19T12:06:30.976Z</time></trkpt><trkpt lat="45.63478073737905" lon="8.560009311723677"><ele>262.0</ele><time>2026-04-19T12:06:31.976Z</time></trkpt><trkpt lat="45.63483908503177" lon="8.559862606535546"><ele>262.0</ele><time>2026-04-19T12:06:32.976Z</time></trkpt><trkpt lat="45.63490556307992" lon="8.559718196889255"><ele>262.0</ele><time>2026-04-19T12:06:33.976Z</time></trkpt><trkpt lat="45.63495547915626" lon="8.559561577498194"><ele>262.0</ele><time>2026-04-19T12:06:34.976Z</time></trkpt><trkpt lat="45.63498633485974" lon="8.559391859950736"><ele>262.0</ele><time>2026-04-19T12:06:35.976Z</time></trkpt><trkpt lat="45.63499127895223" lon="8.559208386954424"><ele>261.75</ele><time>2026-04-19T12:06:36.976Z</time></trkpt><trkpt lat="45.634975357543944" lon="8.559019882278992"><ele>261.5</ele><time>2026-04-19T12:06:37.976Z</time></trkpt><trkpt lat="45.6349440396237" lon="8.558837039885642"><ele>261.25</ele><time>2026-04-19T12:06:38.976Z</time></trkpt><trkpt lat="45.6349092117286" lon="8.558643745686586"><ele>261.0</ele><time>2026-04-19T12:06:39.977Z</time></trkpt><trkpt lat="45.63487295715178" lon="8.558442554803165"><ele>261.25</ele><time>2026-04-19T12:06:40.977Z</time></trkpt><trkpt lat="45.63483082509318" lon="8.558241139550578"><ele>261.5</ele><time>2026-04-19T12:06:41.977Z</time></trkpt><trkpt lat="45.63477563710336" lon="8.558043114351664"><ele>261.75</ele><time>2026-04-19T12:06:42.977Z</time></trkpt><trkpt lat="45.63471735593485" lon="8.557850545220067"><ele>262.0</ele><time>2026-04-19T12:06:43.977Z</time></trkpt><trkpt lat="45.63466611837431" lon="8.55766489566309"><ele>262.0</ele><time>2026-04-19T12:06:44.977Z</time></trkpt><trkpt lat="45.63460687340173" lon="8.557475131728404"><ele>262.0</ele><time>2026-04-19T12:06:45.977Z</time></trkpt><trkpt lat="45.634547497956284" lon="8.55728432156636"><ele>262.0</ele><time>2026-04-19T12:06:46.977Z</time></trkpt><trkpt lat="45.634488878714315" lon="8.55709600250581"><ele>262.0</ele><time>2026-04-19T12:06:47.977Z</time></trkpt><trkpt lat="45.634434320873275" lon="8.556901753127233"><ele>261.25</ele><time>2026-04-19T12:06:48.977Z</time></trkpt><trkpt lat="45.634390411248695" lon="8.556701934238493"><ele>260.5</ele><time>2026-04-19T12:06:49.977Z</time></trkpt><trkpt lat="45.634352555994845" lon="8.556496557276049"><ele>259.75</ele><time>2026-04-19T12:06:50.977Z</time></trkpt><trkpt lat="45.634322252454595" lon="8.556290771006266"><ele>259.0</ele><time>2026-04-19T12:06:51.977Z</time></trkpt><trkpt lat="45.634292578385256" lon="8.556078295727186"><ele>258.66666666666663</ele><time>2026-04-19T12:06:52.977Z</time></trkpt><trkpt lat="45.634265598584285" lon="8.555862415741592"><ele>258.3333333333333</ele><time>2026-04-19T12:06:53.977Z</time></trkpt><trkpt lat="45.63423430695012" lon="8.555644197460152"><ele>258.0</ele><time>2026-04-19T12:06:54.977Z</time></trkpt><trkpt lat="45.63420363951178" lon="8.555431651732222"><ele>258.75</ele><time>2026-04-19T12:06:55.977Z</time></trkpt><trkpt lat="45.63417587415129" lon="8.555223676412808"><ele>259.5</ele><time>2026-04-19T12:06:56.977Z</time></trkpt><trkpt lat="45.634149039483894" lon="8.555014623133967"><ele>260.25</ele><time>2026-04-19T12:06:57.977Z</time></trkpt><trkpt lat="45.63412089169546" lon="8.554806853750954"><ele>261.0</ele><time>2026-04-19T12:06:58.977Z</time></trkpt><trkpt lat="45.634092015546884" lon="8.554597608277582"><ele>260.75</ele><time>2026-04-19T12:06:59.977Z</time></trkpt><trkpt lat="45.63406207969763" lon="8.55438920713213"><ele>260.5</ele><time>2026-04-19T12:07:00.977Z</time></trkpt><trkpt lat="45.63403559783802" lon="8.554180236551192"><ele>260.25</ele><time>2026-04-19T12:07:01.977Z</time></trkpt><trkpt lat="45.63401105297101" lon="8.553968123343363"><ele>260.0</ele><time>2026-04-19T12:07:02.977Z</time></trkpt><trkpt lat="45.633989429686935" lon="8.553751116176588"><ele>259.6666666666667</ele><time>2026-04-19T12:07:03.977Z</time></trkpt><trkpt lat="45.633972186191976" lon="8.553532905554682"><ele>259.3333333333333</ele><time>2026-04-19T12:07:04.977Z</time></trkpt><trkpt lat="45.633954380376046" lon="8.553311844585854"><ele>259.0</ele><time>2026-04-19T12:07:05.977Z</time></trkpt><trkpt lat="45.63393303133489" lon="8.553091845975837"><ele>259.0</ele><time>2026-04-19T12:07:06.977Z</time></trkpt><trkpt lat="45.63391340042204" lon="8.552870848810695"><ele>259.0</ele><time>2026-04-19T12:07:07.977Z</time></trkpt><trkpt lat="45.633894227404255" lon="8.55265094828275"><ele>259.0</ele><time>2026-04-19T12:07:08.977Z</time></trkpt><trkpt lat="45.633880076567806" lon="8.552428484965995"><ele>259.0</ele><time>2026-04-19T12:07:09.977Z</time></trkpt><trkpt lat="45.63387002466093" lon="8.552205587112674"><ele>259.0</ele><time>2026-04-19T12:07:10.977Z</time></trkpt><trkpt lat="45.63386401866969" lon="8.551983945570438"><ele>259.0</ele><time>2026-04-19T12:07:11.977Z</time></trkpt><trkpt lat="45.633862483326375" lon="8.551760706407926"><ele>259.3333333333333</ele><time>2026-04-19T12:07:12.977Z</time></trkpt><trkpt lat="45.633861934011364" lon="8.551534247734473"><ele>259.6666666666667</ele><time>2026-04-19T12:07:13.977Z</time></trkpt><trkpt lat="45.63385602276768" lon="8.551313925954386"><ele>260.0</ele><time>2026-04-19T12:07:14.977Z</time></trkpt><trkpt lat="45.63384769044867" lon="8.551092459210972"><ele>260.0</ele><time>2026-04-19T12:07:15.977Z</time></trkpt><trkpt lat="45.63383588594258" lon="8.550872025568392"><ele>260.0</ele><time>2026-04-19T12:07:16.977Z</time></trkpt><trkpt lat="45.63382687995962" lon="8.550647480702276"><ele>260.0</ele><time>2026-04-19T12:07:17.977Z</time></trkpt><trkpt lat="45.633816358147186" lon="8.550422407493397"><ele>260.6666666666667</ele><time>2026-04-19T12:07:18.977Z</time></trkpt><trkpt lat="45.633802728149576" lon="8.550200872446691"><ele>261.3333333333333</ele><time>2026-04-19T12:07:19.977Z</time></trkpt><trkpt lat="45.63378683802877" lon="8.549979806898586"><ele>262.0</ele><time>2026-04-19T12:07:20.977Z</time></trkpt><trkpt lat="45.63376685973869" lon="8.54975977406109"><ele>262.0</ele><time>2026-04-19T12:07:21.977Z</time></trkpt><trkpt lat="45.633746928951695" lon="8.549541916227207"><ele>262.0</ele><time>2026-04-19T12:07:22.977Z</time></trkpt><trkpt lat="45.633722681018185" lon="8.54932360609079"><ele>262.0</ele><time>2026-04-19T12:07:23.977Z</time></trkpt><trkpt lat="45.63370132627094" lon="8.549101217467856"><ele>262.0</ele><time>2026-04-19T12:07:24.978Z</time></trkpt><trkpt lat="45.63367982006487" lon="8.548878243413695"><ele>262.0</ele><time>2026-04-19T12:07:25.978Z</time></trkpt><trkpt lat="45.633657774740875" lon="8.548654593883573"><ele>262.0</ele><time>2026-04-19T12:07:26.978Z</time></trkpt><trkpt lat="45.63363697692015" lon="8.54843060588233"><ele>262.0</ele><time>2026-04-19T12:07:27.978Z</time></trkpt><trkpt lat="45.633618617690786" lon="8.54820527949682"><ele>262.0</ele><time>2026-04-19T12:07:28.978Z</time></trkpt><trkpt lat="45.63360394827871" lon="8.5479799611248"><ele>262.0</ele><time>2026-04-19T12:07:29.978Z</time></trkpt><trkpt lat="45.63359103613245" lon="8.547754878360152"><ele>262.66666666666663</ele><time>2026-04-19T12:07:30.978Z</time></trkpt><trkpt lat="45.63357740236184" lon="8.547530593837411"><ele>263.3333333333333</ele><time>2026-04-19T12:07:31.978Z</time></trkpt><trkpt lat="45.633564690585814" lon="8.547307628557295"><ele>264.0</ele><time>2026-04-19T12:07:32.978Z</time></trkpt><trkpt lat="45.633553806910925" lon="8.547085325795742"><ele>263.3333333333333</ele><time>2026-04-19T12:07:33.978Z</time></trkpt><trkpt lat="45.63354420120421" lon="8.546863044258963"><ele>262.66666666666663</ele><time>2026-04-19T12:07:34.978Z</time></trkpt><trkpt lat="45.633537572849114" lon="8.546639641907161"><ele>262.0</ele><time>2026-04-19T12:07:35.978Z</time></trkpt><trkpt lat="45.63352948850739" lon="8.54641733073446"><ele>262.0</ele><time>2026-04-19T12:07:36.978Z</time></trkpt><trkpt lat="45.633517160151" lon="8.546196865788257"><ele>262.0</ele><time>2026-04-19T12:07:37.978Z</time></trkpt><trkpt lat="45.63350891731711" lon="8.54597724999611"><ele>262.0</ele><time>2026-04-19T12:07:38.978Z</time></trkpt><trkpt lat="45.63350189995051" lon="8.545759592129325"><ele>262.0</ele><time>2026-04-19T12:07:39.978Z</time></trkpt><trkpt lat="45.63349316831862" lon="8.5455471415845"><ele>262.0</ele><time>2026-04-19T12:07:40.978Z</time></trkpt><trkpt lat="45.63348258924361" lon="8.545339386965432"><ele>262.0</ele><time>2026-04-19T12:07:41.978Z</time></trkpt><trkpt lat="45.63346792637665" lon="8.545141616281338"><ele>262.0</ele><time>2026-04-19T12:07:42.978Z</time></trkpt><trkpt lat="45.63344806603075" lon="8.544954840396855"><ele>262.25</ele><time>2026-04-19T12:07:43.978Z</time></trkpt><trkpt lat="45.63343059220728" lon="8.544779142882863"><ele>262.5</ele><time>2026-04-19T12:07:44.978Z</time></trkpt><trkpt lat="45.63341619192799" lon="8.544610041597352"><ele>262.75</ele><time>2026-04-19T12:07:45.978Z</time></trkpt><trkpt lat="45.63340573654582" lon="8.544449782798699"><ele>263.0</ele><time>2026-04-19T12:07:46.978Z</time></trkpt><trkpt lat="45.633399656116346" lon="8.544295761628888"><ele>263.0</ele><time>2026-04-19T12:07:47.978Z</time></trkpt><trkpt lat="45.633397318492186" lon="8.54414216868909"><ele>263.0</ele><time>2026-04-19T12:07:48.978Z</time></trkpt><trkpt lat="45.63340734863573" lon="8.543991601854536"><ele>263.0</ele><time>2026-04-19T12:07:49.978Z</time></trkpt><trkpt lat="45.633425265003474" lon="8.543843409802562"><ele>263.0</ele><time>2026-04-19T12:07:50.978Z</time></trkpt><trkpt lat="45.63345241809167" lon="8.54370132897557"><ele>263.0</ele><time>2026-04-19T12:07:51.978Z</time></trkpt><trkpt lat="45.63349505632764" lon="8.543563486168113"><ele>262.6</ele><time>2026-04-19T12:07:52.978Z</time></trkpt><trkpt lat="45.63355381784853" lon="8.543440319955188"><ele>262.20000000000005</ele><time>2026-04-19T12:07:53.978Z</time></trkpt><trkpt lat="45.63362166891383" lon="8.54332208557169"><ele>261.8</ele><time>2026-04-19T12:07:54.978Z</time></trkpt><trkpt lat="45.63367716914251" lon="8.543188735322056"><ele>261.40000000000003</ele><time>2026-04-19T12:07:55.978Z</time></trkpt><trkpt lat="45.63372483305511" lon="8.543047053719924"><ele>261.0</ele><time>2026-04-19T12:07:56.978Z</time></trkpt><trkpt lat="45.63377189566032" lon="8.542897779729351"><ele>260.6</ele><time>2026-04-19T12:07:57.978Z</time></trkpt><trkpt lat="45.63380928693098" lon="8.542748707468423"><ele>260.20000000000005</ele><time>2026-04-19T12:07:58.978Z</time></trkpt><trkpt lat="45.63384140968854" lon="8.54260354822698"><ele>259.79999999999995</ele><time>2026-04-19T12:07:59.978Z</time></trkpt><trkpt lat="45.63387647689714" lon="8.54246391869077"><ele>259.4</ele><time>2026-04-19T12:08:00.978Z</time></trkpt><trkpt lat="45.63391879298753" lon="8.54232561983717"><ele>259.0</ele><time>2026-04-19T12:08:01.978Z</time></trkpt><trkpt lat="45.63396093521915" lon="8.542175062942535"><ele>258.5</ele><time>2026-04-19T12:08:02.978Z</time></trkpt><trkpt lat="45.634006101724076" lon="8.542016175523642"><ele>258.0</ele><time>2026-04-19T12:08:03.975Z</time></trkpt><trkpt lat="45.63405851482234" lon="8.541857785185751"><ele>257.5</ele><time>2026-04-19T12:08:04.975Z</time></trkpt><trkpt lat="45.63410772458317" lon="8.541702315322057"><ele>257.0</ele><time>2026-04-19T12:08:05.975Z</time></trkpt><trkpt lat="45.634140521287506" lon="8.541546132547559"><ele>257.0</ele><time>2026-04-19T12:08:06.975Z</time></trkpt><trkpt lat="45.63414679762343" lon="8.54138298193752"><ele>257.0</ele><time>2026-04-19T12:08:07.975Z</time></trkpt><trkpt lat="45.63413989646598" lon="8.541227814585582"><ele>257.0</ele><time>2026-04-19T12:08:08.975Z</time></trkpt><trkpt lat="45.6341071585697" lon="8.541067696346236"><ele>257.0</ele><time>2026-04-19T12:08:09.975Z</time></trkpt><trkpt lat="45.63408449110743" lon="8.54090908189703"><ele>257.0</ele><time>2026-04-19T12:08:10.975Z</time></trkpt><trkpt lat="45.63407537706748" lon="8.540769941945852"><ele>257.0</ele><time>2026-04-19T12:08:11.975Z</time></trkpt><trkpt lat="45.634070799083226" lon="8.540650889097945"><ele>257.0</ele><time>2026-04-19T12:08:12.975Z</time></trkpt><trkpt lat="45.63406626728987" lon="8.540556278697034"><ele>257.0</ele><time>2026-04-19T12:08:13.975Z</time></trkpt><trkpt lat="45.63405735469443" lon="8.540434064169368"><ele>257.0</ele><time>2026-04-19T12:08:15.975Z</time></trkpt><trkpt lat="45.63402663901562" lon="8.540339858279339"><ele>257.0</ele><time>2026-04-19T12:08:49.975Z</time></trkpt><trkpt lat="45.63400782142192" lon="8.540193335519465"><ele>257.0</ele><time>2026-04-19T12:08:51.975Z</time></trkpt><trkpt lat="45.63399931376526" lon="8.540094040635436"><ele>257.0</ele><time>2026-04-19T12:08:52.976Z</time></trkpt><trkpt lat="45.6339879707517" lon="8.539987901322545"><ele>257.0</ele><time>2026-04-19T12:08:53.976Z</time></trkpt><trkpt lat="45.63397472911121" lon="8.539871321178609"><ele>257.0</ele><time>2026-04-19T12:08:54.976Z</time></trkpt><trkpt lat="45.633968792317376" lon="8.539737866178163"><ele>257.0</ele><time>2026-04-19T12:08:55.976Z</time></trkpt><trkpt lat="45.633972894793814" lon="8.539601937639802"><ele>257.0</ele><time>2026-04-19T12:08:56.976Z</time></trkpt><trkpt lat="45.63398012048915" lon="8.539457573888775"><ele>256.6</ele><time>2026-04-19T12:08:57.976Z</time></trkpt><trkpt lat="45.63399278050757" lon="8.539308279912806"><ele>256.2</ele><time>2026-04-19T12:08:58.976Z</time></trkpt><trkpt lat="45.634008015808455" lon="8.539155453516459"><ele>255.8</ele><time>2026-04-19T12:08:59.976Z</time></trkpt><trkpt lat="45.63402368892284" lon="8.539000789774763"><ele>255.4</ele><time>2026-04-19T12:09:00.976Z</time></trkpt><trkpt lat="45.634041270129664" lon="8.538840174836393"><ele>255.0</ele><time>2026-04-19T12:09:01.976Z</time></trkpt><trkpt lat="45.634043854182764" lon="8.538680052644306"><ele>255.0</ele><time>2026-04-19T12:09:02.976Z</time></trkpt><trkpt lat="45.63403149602703" lon="8.538507769911721"><ele>255.0</ele><time>2026-04-19T12:09:03.976Z</time></trkpt><trkpt lat="45.634013270422386" lon="8.538333602521138"><ele>255.0</ele><time>2026-04-19T12:09:04.976Z</time></trkpt><trkpt lat="45.633997696039046" lon="8.538158315582733"><ele>255.0</ele><time>2026-04-19T12:09:05.976Z</time></trkpt><trkpt lat="45.63398359477758" lon="8.537978367353505"><ele>255.5</ele><time>2026-04-19T12:09:06.976Z</time></trkpt><trkpt lat="45.63397209983833" lon="8.537792676042653"><ele>256.0</ele><time>2026-04-19T12:09:07.976Z</time></trkpt><trkpt lat="45.63396484677403" lon="8.537595704801925"><ele>256.5</ele><time>2026-04-19T12:09:08.976Z</time></trkpt><trkpt lat="45.633955763073736" lon="8.537387336685475"><ele>257.0</ele><time>2026-04-19T12:09:09.976Z</time></trkpt><trkpt lat="45.63393863257179" lon="8.53717292367029"><ele>258.33333333333337</ele><time>2026-04-19T12:09:10.976Z</time></trkpt><trkpt lat="45.63392508640319" lon="8.536957321415656"><ele>259.6666666666667</ele><time>2026-04-19T12:09:11.976Z</time></trkpt><trkpt lat="45.63390679797198" lon="8.53673529980899"><ele>261.0</ele><time>2026-04-19T12:09:12.976Z</time></trkpt><trkpt lat="45.63389170746018" lon="8.5365085094263"><ele>261.0</ele><time>2026-04-19T12:09:13.976Z</time></trkpt><trkpt lat="45.633876689385225" lon="8.536296051491586"><ele>261.0</ele><time>2026-04-19T12:09:14.976Z</time></trkpt><trkpt lat="45.63386131092118" lon="8.536079022124781"><ele>261.0</ele><time>2026-04-19T12:09:15.976Z</time></trkpt><trkpt lat="45.633847872907644" lon="8.535858364779603"><ele>261.5</ele><time>2026-04-19T12:09:16.976Z</time></trkpt><trkpt lat="45.63383502629463" lon="8.535639602045038"><ele>262.0</ele><time>2026-04-19T12:09:17.976Z</time></trkpt><trkpt lat="45.63382054186907" lon="8.535431110159578"><ele>262.5</ele><time>2026-04-19T12:09:18.976Z</time></trkpt><trkpt lat="45.633806640090135" lon="8.535225085971602"><ele>263.0</ele><time>2026-04-19T12:09:19.976Z</time></trkpt><trkpt lat="45.633790660223255" lon="8.535018560341554"><ele>263.0</ele><time>2026-04-19T12:09:20.976Z</time></trkpt><trkpt lat="45.63377728716208" lon="8.534806394405368"><ele>263.0</ele><time>2026-04-19T12:09:21.976Z</time></trkpt><trkpt lat="45.63376241521779" lon="8.534587457597514"><ele>263.0</ele><time>2026-04-19T12:09:22.976Z</time></trkpt><trkpt lat="45.633746622209856" lon="8.534361726803827"><ele>262.33333333333337</ele><time>2026-04-19T12:09:23.976Z</time></trkpt><trkpt lat="45.63372963180853" lon="8.534132197331523"><ele>261.6666666666667</ele><time>2026-04-19T12:09:24.976Z</time></trkpt><trkpt lat="45.63371237597485" lon="8.533898210111058"><ele>261.0</ele><time>2026-04-19T12:09:25.976Z</time></trkpt><trkpt lat="45.63369141672841" lon="8.533660675763963"><ele>260.6666666666667</ele><time>2026-04-19T12:09:26.976Z</time></trkpt><trkpt lat="45.63367253574093" lon="8.533421826148981"><ele>260.33333333333337</ele><time>2026-04-19T12:09:27.976Z</time></trkpt><trkpt lat="45.63366407256953" lon="8.533177333736463"><ele>260.0</ele><time>2026-04-19T12:09:28.976Z</time></trkpt><trkpt lat="45.6336691803117" lon="8.532931915836759"><ele>260.33333333333337</ele><time>2026-04-19T12:09:29.976Z</time></trkpt><trkpt lat="45.633701805385755" lon="8.532687889686654"><ele>260.6666666666667</ele><time>2026-04-19T12:09:30.976Z</time></trkpt><trkpt lat="45.633745712275484" lon="8.532446549012821"><ele>261.0</ele><time>2026-04-19T12:09:31.976Z</time></trkpt><trkpt lat="45.63379135344685" lon="8.53220400329974"><ele>261.3333333333333</ele><time>2026-04-19T12:09:32.976Z</time></trkpt><trkpt lat="45.63383434060486" lon="8.531958798282686"><ele>261.66666666666663</ele><time>2026-04-19T12:09:33.976Z</time></trkpt><trkpt lat="45.63387904631873" lon="8.531709457178776"><ele>262.0</ele><time>2026-04-19T12:09:34.976Z</time></trkpt><trkpt lat="45.63392703070239" lon="8.531459137200015"><ele>261.3333333333333</ele><time>2026-04-19T12:09:35.976Z</time></trkpt><trkpt lat="45.63397435390447" lon="8.53120810087095"><ele>260.6666666666667</ele><time>2026-04-19T12:09:36.976Z</time></trkpt><trkpt lat="45.63402038743176" lon="8.53095517847843"><ele>260.0</ele><time>2026-04-19T12:09:37.977Z</time></trkpt><trkpt lat="45.634065410320154" lon="8.53069711016918"><ele>260.0</ele><time>2026-04-19T12:09:38.977Z</time></trkpt><trkpt lat="45.634109249848535" lon="8.530439416483238"><ele>260.0</ele><time>2026-04-19T12:09:39.977Z</time></trkpt><trkpt lat="45.63415386777095" lon="8.530178468905893"><ele>260.0</ele><time>2026-04-19T12:09:40.977Z</time></trkpt><trkpt lat="45.63420189752357" lon="8.529912758352449"><ele>259.6666666666667</ele><time>2026-04-19T12:09:41.977Z</time></trkpt><trkpt lat="45.634250129222025" lon="8.529642656697925"><ele>259.3333333333333</ele><time>2026-04-19T12:09:42.977Z</time></trkpt><trkpt lat="45.63429621763029" lon="8.529369387567346"><ele>259.0</ele><time>2026-04-19T12:09:43.977Z</time></trkpt><trkpt lat="45.63434104157242" lon="8.529094557089385"><ele>259.0</ele><time>2026-04-19T12:09:44.977Z</time></trkpt><trkpt lat="45.6343869019984" lon="8.528814933285068"><ele>259.0</ele><time>2026-04-19T12:09:45.977Z</time></trkpt><trkpt lat="45.634431736317744" lon="8.528535576989412"><ele>259.0</ele><time>2026-04-19T12:09:46.977Z</time></trkpt><trkpt lat="45.63447481853252" lon="8.528280927354283"><ele>259.0</ele><time>2026-04-19T12:09:47.977Z</time></trkpt><trkpt lat="45.634518673716016" lon="8.52804343184722"><ele>259.0</ele><time>2026-04-19T12:09:48.977Z</time></trkpt><trkpt lat="45.63456251223121" lon="8.527816749182012"><ele>259.0</ele><time>2026-04-19T12:09:49.977Z</time></trkpt><trkpt lat="45.634623238774026" lon="8.527597209547661"><ele>259.0</ele><time>2026-04-19T12:09:50.977Z</time></trkpt><trkpt lat="45.634719595238984" lon="8.527394723148221"><ele>259.0</ele><time>2026-04-19T12:09:51.977Z</time></trkpt><trkpt lat="45.63483759409998" lon="8.52720722689269"><ele>259.0</ele><time>2026-04-19T12:09:52.977Z</time></trkpt><trkpt lat="45.63495974530425" lon="8.527018041859229"><ele>259.0</ele><time>2026-04-19T12:09:53.977Z</time></trkpt><trkpt lat="45.63508445769063" lon="8.52682030070332"><ele>259.0</ele><time>2026-04-19T12:09:54.977Z</time></trkpt><trkpt lat="45.635216190530144" lon="8.52662304410387"><ele>259.0</ele><time>2026-04-19T12:09:55.977Z</time></trkpt><trkpt lat="45.63535872082808" lon="8.52643093179425"><ele>259.3333333333333</ele><time>2026-04-19T12:09:56.977Z</time></trkpt><trkpt lat="45.635511666878024" lon="8.526246497670313"><ele>259.6666666666667</ele><time>2026-04-19T12:09:57.977Z</time></trkpt><trkpt lat="45.63567158939565" lon="8.526067368757271"><ele>260.0</ele><time>2026-04-19T12:09:58.977Z</time></trkpt><trkpt lat="45.63583362346194" lon="8.525880632460415"><ele>260.0</ele><time>2026-04-19T12:09:59.977Z</time></trkpt><trkpt lat="45.63599726860466" lon="8.525690040222411"><ele>260.0</ele><time>2026-04-19T12:10:00.977Z</time></trkpt><trkpt lat="45.63616372940558" lon="8.525497885568576"><ele>260.0</ele><time>2026-04-19T12:10:01.977Z</time></trkpt><trkpt lat="45.636331635384565" lon="8.52530436246591"><ele>261.0</ele><time>2026-04-19T12:10:02.977Z</time></trkpt><trkpt lat="45.636502673677555" lon="8.52510829452583"><ele>262.0</ele><time>2026-04-19T12:10:03.977Z</time></trkpt><trkpt lat="45.63667593848641" lon="8.524912248709649"><ele>263.0</ele><time>2026-04-19T12:10:04.977Z</time></trkpt><trkpt lat="45.636853286231805" lon="8.524719471307963"><ele>262.6666666666667</ele><time>2026-04-19T12:10:05.977Z</time></trkpt><trkpt lat="45.63703343147793" lon="8.524528563099071"><ele>262.3333333333333</ele><time>2026-04-19T12:10:06.977Z</time></trkpt><trkpt lat="45.63720889739371" lon="8.524347573261053"><ele>262.0</ele><time>2026-04-19T12:10:07.977Z</time></trkpt><trkpt lat="45.637381174330486" lon="8.524171329560172"><ele>262.0</ele><time>2026-04-19T12:10:08.977Z</time></trkpt><trkpt lat="45.63754996594715" lon="8.523996147669024"><ele>262.0</ele><time>2026-04-19T12:10:09.974Z</time></trkpt><trkpt lat="45.63771866576945" lon="8.523816997949899"><ele>262.0</ele><time>2026-04-19T12:10:10.974Z</time></trkpt><trkpt lat="45.63788559451884" lon="8.523639485085113"><ele>262.0</ele><time>2026-04-19T12:10:11.974Z</time></trkpt><trkpt lat="45.6380530218535" lon="8.523465028865088"><ele>262.0</ele><time>2026-04-19T12:10:12.974Z</time></trkpt><trkpt lat="45.638222180628205" lon="8.523290747115515"><ele>262.0</ele><time>2026-04-19T12:10:13.974Z</time></trkpt><trkpt lat="45.63838845861969" lon="8.523112237707846"><ele>262.0</ele><time>2026-04-19T12:10:14.974Z</time></trkpt><trkpt lat="45.638550767235515" lon="8.522924573857473"><ele>262.0</ele><time>2026-04-19T12:10:15.974Z</time></trkpt><trkpt lat="45.63870641437306" lon="8.522722455894131"><ele>262.0</ele><time>2026-04-19T12:10:16.975Z</time></trkpt><trkpt lat="45.638848683860054" lon="8.522506908388774"><ele>262.66666666666663</ele><time>2026-04-19T12:10:17.975Z</time></trkpt><trkpt lat="45.638984504653585" lon="8.522282989895482"><ele>263.3333333333333</ele><time>2026-04-19T12:10:18.974Z</time></trkpt><trkpt lat="45.63911918965698" lon="8.522062737527769"><ele>264.0</ele><time>2026-04-19T12:10:19.975Z</time></trkpt><trkpt lat="45.63925059984524" lon="8.521846774422759"><ele>264.0</ele><time>2026-04-19T12:10:20.975Z</time></trkpt><trkpt lat="45.63938186424836" lon="8.521627719008857"><ele>264.0</ele><time>2026-04-19T12:10:21.974Z</time></trkpt><trkpt lat="45.639513594407234" lon="8.52140785999819"><ele>264.0</ele><time>2026-04-19T12:10:22.974Z</time></trkpt><trkpt lat="45.63964540824982" lon="8.521188703063086"><ele>263.3333333333333</ele><time>2026-04-19T12:10:23.974Z</time></trkpt><trkpt lat="45.639776800638174" lon="8.520968949035227"><ele>262.66666666666663</ele><time>2026-04-19T12:10:24.974Z</time></trkpt><trkpt lat="45.63990711352593" lon="8.520746709120903"><ele>262.0</ele><time>2026-04-19T12:10:25.974Z</time></trkpt><trkpt lat="45.640036615757346" lon="8.520525620776425"><ele>262.66666666666663</ele><time>2026-04-19T12:10:26.974Z</time></trkpt><trkpt lat="45.64016931332271" lon="8.520309351763947"><ele>263.3333333333333</ele><time>2026-04-19T12:10:27.974Z</time></trkpt><trkpt lat="45.64029857935543" lon="8.520090178464798"><ele>264.0</ele><time>2026-04-19T12:10:28.974Z</time></trkpt><trkpt lat="45.64043026685101" lon="8.519874086137582"><ele>264.0</ele><time>2026-04-19T12:10:29.974Z</time></trkpt><trkpt lat="45.640560747881196" lon="8.519663220434243"><ele>264.0</ele><time>2026-04-19T12:10:30.974Z</time></trkpt><trkpt lat="45.6406934670891" lon="8.519452936537103"><ele>264.0</ele><time>2026-04-19T12:10:31.974Z</time></trkpt><trkpt lat="45.64082629185842" lon="8.519241508879103"><ele>264.0</ele><time>2026-04-19T12:10:32.974Z</time></trkpt><trkpt lat="45.64096610904099" lon="8.519034234826831"><ele>264.0</ele><time>2026-04-19T12:10:33.974Z</time></trkpt><trkpt lat="45.64110955147304" lon="8.518830219375436"><ele>264.0</ele><time>2026-04-19T12:10:34.974Z</time></trkpt><trkpt lat="45.6412573133054" lon="8.518624456167773"><ele>264.3333333333333</ele><time>2026-04-19T12:10:35.974Z</time></trkpt><trkpt lat="45.64140680804111" lon="8.51841461057151"><ele>264.66666666666663</ele><time>2026-04-19T12:10:36.974Z</time></trkpt><trkpt lat="45.64155704566731" lon="8.518201318530975"><ele>265.0</ele><time>2026-04-19T12:10:37.974Z</time></trkpt><trkpt lat="45.641708841699746" lon="8.51798507217967"><ele>265.66666666666663</ele><time>2026-04-19T12:10:38.975Z</time></trkpt><trkpt lat="45.64186157329229" lon="8.517769163936475"><ele>266.3333333333333</ele><time>2026-04-19T12:10:39.975Z</time></trkpt><trkpt lat="45.642014130069676" lon="8.51755462607859"><ele>267.0</ele><time>2026-04-19T12:10:40.975Z</time></trkpt><trkpt lat="45.642166851831554" lon="8.517340545026116"><ele>267.6666666666667</ele><time>2026-04-19T12:10:41.975Z</time></trkpt><trkpt lat="45.642317358299216" lon="8.517125681642502"><ele>268.33333333333337</ele><time>2026-04-19T12:10:42.975Z</time></trkpt><trkpt lat="45.64246598574793" lon="8.516911935690882"><ele>269.0</ele><time>2026-04-19T12:10:43.975Z</time></trkpt><trkpt lat="45.64261721211839" lon="8.51669909837556"><ele>269.0</ele><time>2026-04-19T12:10:44.975Z</time></trkpt><trkpt lat="45.64276902417787" lon="8.516489581359462"><ele>269.0</ele><time>2026-04-19T12:10:45.975Z</time></trkpt><trkpt lat="45.64291956430581" lon="8.516278948163743"><ele>269.0</ele><time>2026-04-19T12:10:46.975Z</time></trkpt><trkpt lat="45.643070094075995" lon="8.516066613673484"><ele>268.33333333333337</ele><time>2026-04-19T12:10:47.975Z</time></trkpt><trkpt lat="45.64321770208754" lon="8.515855296399657"><ele>267.6666666666667</ele><time>2026-04-19T12:10:48.975Z</time></trkpt><trkpt lat="45.64336271792657" lon="8.515648212867237"><ele>267.0</ele><time>2026-04-19T12:10:49.975Z</time></trkpt><trkpt lat="45.6435028036519" lon="8.515448970903416"><ele>267.6666666666667</ele><time>2026-04-19T12:10:50.975Z</time></trkpt><trkpt lat="45.643634041264434" lon="8.515260891456528"><ele>268.33333333333337</ele><time>2026-04-19T12:10:51.975Z</time></trkpt><trkpt lat="45.64375964374162" lon="8.515083961212035"><ele>269.0</ele><time>2026-04-19T12:10:52.975Z</time></trkpt><trkpt lat="45.64388006971428" lon="8.51491452432839"><ele>269.0</ele><time>2026-04-19T12:10:53.975Z</time></trkpt><trkpt lat="45.64400131809545" lon="8.51474657235792"><ele>269.0</ele><time>2026-04-19T12:10:54.975Z</time></trkpt><trkpt lat="45.64412018158634" lon="8.514583346753712"><ele>269.0</ele><time>2026-04-19T12:10:55.975Z</time></trkpt><trkpt lat="45.6442364719404" lon="8.514423157156854"><ele>269.0</ele><time>2026-04-19T12:10:56.975Z</time></trkpt><trkpt lat="45.64434595424736" lon="8.514269769886447"><ele>269.0</ele><time>2026-04-19T12:10:57.975Z</time></trkpt><trkpt lat="45.644448117210324" lon="8.514125384376944"><ele>269.0</ele><time>2026-04-19T12:10:58.975Z</time></trkpt><trkpt lat="45.644544720431604" lon="8.51398584551725"><ele>269.0</ele><time>2026-04-19T12:10:59.975Z</time></trkpt><trkpt lat="45.644645212979185" lon="8.513844175855366"><ele>269.25</ele><time>2026-04-19T12:11:00.975Z</time></trkpt><trkpt lat="45.644743465054766" lon="8.513701293566756"><ele>269.5</ele><time>2026-04-19T12:11:01.975Z</time></trkpt><trkpt lat="45.64484408573767" lon="8.513556592630001"><ele>269.75</ele><time>2026-04-19T12:11:02.975Z</time></trkpt><trkpt lat="45.64494330675915" lon="8.513413359224664"><ele>270.0</ele><time>2026-04-19T12:11:03.975Z</time></trkpt><trkpt lat="45.645042878564865" lon="8.513270698527412"><ele>270.0</ele><time>2026-04-19T12:11:04.975Z</time></trkpt><trkpt lat="45.64513783817796" lon="8.51313352021152"><ele>270.0</ele><time>2026-04-19T12:11:05.975Z</time></trkpt><trkpt lat="45.64523165637774" lon="8.512999661094426"><ele>270.0</ele><time>2026-04-19T12:11:06.975Z</time></trkpt><trkpt lat="45.645323930893056" lon="8.512862807432397"><ele>270.0</ele><time>2026-04-19T12:11:07.975Z</time></trkpt><trkpt lat="45.64541795908769" lon="8.512729058466835"><ele>269.75</ele><time>2026-04-19T12:11:08.975Z</time></trkpt><trkpt lat="45.64551597050604" lon="8.512594186526355"><ele>269.5</ele><time>2026-04-19T12:11:09.975Z</time></trkpt><trkpt lat="45.64561086900857" lon="8.512457363564048"><ele>269.25</ele><time>2026-04-19T12:11:10.975Z</time></trkpt><trkpt lat="45.645705103347936" lon="8.51232396420887"><ele>269.0</ele><time>2026-04-19T12:11:11.975Z</time></trkpt><trkpt lat="45.64579671336092" lon="8.512196730569432"><ele>268.4</ele><time>2026-04-19T12:11:12.975Z</time></trkpt><trkpt lat="45.64588234937904" lon="8.512072965322343"><ele>267.79999999999995</ele><time>2026-04-19T12:11:13.975Z</time></trkpt><trkpt lat="45.64596522237406" lon="8.511956369810346"><ele>267.20000000000005</ele><time>2026-04-19T12:11:14.975Z</time></trkpt><trkpt lat="45.646038590227384" lon="8.511845886394045"><ele>266.6</ele><time>2026-04-19T12:11:15.975Z</time></trkpt><trkpt lat="45.64610269535116" lon="8.51174550928187"><ele>266.0</ele><time>2026-04-19T12:11:16.975Z</time></trkpt><trkpt lat="45.646155492651445" lon="8.511662837604456"><ele>266.0</ele><time>2026-04-19T12:11:17.975Z</time></trkpt><trkpt lat="45.64620527678555" lon="8.511604013428826"><ele>266.0</ele><time>2026-04-19T12:11:18.975Z</time></trkpt><trkpt lat="45.64632206198696" lon="8.511580871253832"><ele>266.0</ele><time>2026-04-19T12:11:20.975Z</time></trkpt><trkpt lat="45.64638663153796" lon="8.51162930488209"><ele>266.0</ele><time>2026-04-19T12:11:21.975Z</time></trkpt><trkpt lat="45.64648906479534" lon="8.511690271643449"><ele>266.0</ele><time>2026-04-19T12:11:22.975Z</time></trkpt><trkpt lat="45.646610318501644" lon="8.511712142888104"><ele>266.0</ele><time>2026-04-19T12:11:23.976Z</time></trkpt><trkpt lat="45.64672769887217" lon="8.511690215021083"><ele>266.0</ele><time>2026-04-19T12:11:24.976Z</time></trkpt><trkpt lat="45.64684550488158" lon="8.511648651455152"><ele>266.0</ele><time>2026-04-19T12:11:25.976Z</time></trkpt><trkpt lat="45.64697198611075" lon="8.511595505899644"><ele>266.0</ele><time>2026-04-19T12:11:26.976Z</time></trkpt><trkpt lat="45.64710116229116" lon="8.51154482131675"><ele>265.5</ele><time>2026-04-19T12:11:27.976Z</time></trkpt><trkpt lat="45.64722726402954" lon="8.51149467199392"><ele>265.0</ele><time>2026-04-19T12:11:28.976Z</time></trkpt><trkpt lat="45.64736208738262" lon="8.51144033752963"><ele>264.5</ele><time>2026-04-19T12:11:29.976Z</time></trkpt><trkpt lat="45.64750096624513" lon="8.511384652438785"><ele>264.0</ele><time>2026-04-19T12:11:30.976Z</time></trkpt><trkpt lat="45.64763902708857" lon="8.511329630844758"><ele>264.0</ele><time>2026-04-19T12:11:31.976Z</time></trkpt><trkpt lat="45.647771256267035" lon="8.511280485807928"><ele>264.0</ele><time>2026-04-19T12:11:32.976Z</time></trkpt><trkpt lat="45.64790616587671" lon="8.511234722858314"><ele>264.0</ele><time>2026-04-19T12:11:33.976Z</time></trkpt><trkpt lat="45.648042822799944" lon="8.511186742750137"><ele>264.0</ele><time>2026-04-19T12:11:34.976Z</time></trkpt><trkpt lat="45.64817936097573" lon="8.511136344683305"><ele>264.75</ele><time>2026-04-19T12:11:35.976Z</time></trkpt><trkpt lat="45.64831507459488" lon="8.511085439779508"><ele>265.5</ele><time>2026-04-19T12:11:36.976Z</time></trkpt><trkpt lat="45.6484440388346" lon="8.51103596222559"><ele>266.25</ele><time>2026-04-19T12:11:37.976Z</time></trkpt><trkpt lat="45.64857331955864" lon="8.510984366037938"><ele>267.0</ele><time>2026-04-19T12:11:38.976Z</time></trkpt><trkpt lat="45.64870538600896" lon="8.51092973810179"><ele>267.25</ele><time>2026-04-19T12:11:39.976Z</time></trkpt><trkpt lat="45.64883271007707" lon="8.510878085337186"><ele>267.5</ele><time>2026-04-19T12:11:40.976Z</time></trkpt><trkpt lat="45.648961994343956" lon="8.510828251134924"><ele>267.75</ele><time>2026-04-19T12:11:41.976Z</time></trkpt><trkpt lat="45.64909106765315" lon="8.510776466700937"><ele>268.0</ele><time>2026-04-19T12:11:42.976Z</time></trkpt><trkpt lat="45.649214710167975" lon="8.510726204493217"><ele>268.0</ele><time>2026-04-19T12:11:43.976Z</time></trkpt><trkpt lat="45.64933098581361" lon="8.510678414780505"><ele>268.0</ele><time>2026-04-19T12:11:44.976Z</time></trkpt><trkpt lat="45.64944318058294" lon="8.510636517450711"><ele>268.0</ele><time>2026-04-19T12:11:45.976Z</time></trkpt><trkpt lat="45.649549747012536" lon="8.51059972606389"><ele>268.0</ele><time>2026-04-19T12:11:46.976Z</time></trkpt><trkpt lat="45.64964448256281" lon="8.510568356455192"><ele>268.0</ele><time>2026-04-19T12:11:47.976Z</time></trkpt><trkpt lat="45.64972604627917" lon="8.510538591017545"><ele>268.2</ele><time>2026-04-19T12:11:48.976Z</time></trkpt><trkpt lat="45.649794636503245" lon="8.51051322434868"><ele>268.4</ele><time>2026-04-19T12:11:49.976Z</time></trkpt><trkpt lat="45.64987596191049" lon="8.510482438762997"><ele>268.59999999999997</ele><time>2026-04-19T12:11:51.976Z</time></trkpt><trkpt lat="45.649944415131536" lon="8.510451279511384"><ele>268.8</ele><time>2026-04-19T12:11:59.976Z</time></trkpt><trkpt lat="45.64997876280782" lon="8.51030313144878"><ele>269.0</ele><time>2026-04-19T12:12:07.976Z</time></trkpt><trkpt lat="45.64993669465212" lon="8.510128869410332"><ele>269.0</ele><time>2026-04-19T12:12:09.977Z</time></trkpt><trkpt lat="45.64991615996364" lon="8.51002404685735"><ele>269.0</ele><time>2026-04-19T12:12:10.977Z</time></trkpt><trkpt lat="45.64989516363703" lon="8.50991136187579"><ele>269.0</ele><time>2026-04-19T12:12:11.977Z</time></trkpt><trkpt lat="45.649870818428276" lon="8.509795031477918"><ele>269.0</ele><time>2026-04-19T12:12:12.977Z</time></trkpt><trkpt lat="45.64984791006887" lon="8.509675812877889"><ele>269.0</ele><time>2026-04-19T12:12:13.977Z</time></trkpt><trkpt lat="45.64982645767269" lon="8.509545134993752"><ele>269.0</ele><time>2026-04-19T12:12:14.977Z</time></trkpt><trkpt lat="45.64980314465373" lon="8.509409810771045"><ele>269.0</ele><time>2026-04-19T12:12:15.973Z</time></trkpt><trkpt lat="45.649776387568444" lon="8.509273486385606"><ele>269.0</ele><time>2026-04-19T12:12:16.973Z</time></trkpt><trkpt lat="45.649745692717495" lon="8.509139044034779"><ele>269.0</ele><time>2026-04-19T12:12:17.973Z</time></trkpt><trkpt lat="45.64971013353143" lon="8.509024951171403"><ele>269.0</ele><time>2026-04-19T12:12:18.973Z</time></trkpt><trkpt lat="45.64967997711876" lon="8.508919885778505"><ele>269.0</ele><time>2026-04-19T12:12:19.973Z</time></trkpt><trkpt lat="45.64965163626638" lon="8.508829463575182"><ele>269.0</ele><time>2026-04-19T12:12:20.973Z</time></trkpt><trkpt lat="45.649637082178536" lon="8.508672531447976"><ele>268.8</ele><time>2026-04-19T12:12:22.973Z</time></trkpt><trkpt lat="45.649714684365826" lon="8.508551662477169"><ele>268.59999999999997</ele><time>2026-04-19T12:12:24.973Z</time></trkpt><trkpt lat="45.64977931988856" lon="8.508496929097221"><ele>268.4</ele><time>2026-04-19T12:12:25.973Z</time></trkpt><trkpt lat="45.64984735907029" lon="8.508429531616194"><ele>268.2</ele><time>2026-04-19T12:12:26.973Z</time></trkpt><trkpt lat="45.64992369522524" lon="8.50835699688393"><ele>268.0</ele><time>2026-04-19T12:12:27.973Z</time></trkpt><trkpt lat="45.65000585473311" lon="8.508282760700542"><ele>268.0</ele><time>2026-04-19T12:12:28.973Z</time></trkpt><trkpt lat="45.65008306180993" lon="8.508207691546941"><ele>268.0</ele><time>2026-04-19T12:12:29.973Z</time></trkpt><trkpt lat="45.65016351891321" lon="8.50813260939458"><ele>268.0</ele><time>2026-04-19T12:12:30.973Z</time></trkpt><trkpt lat="45.65024668175792" lon="8.508059207607063"><ele>268.0</ele><time>2026-04-19T12:12:31.973Z</time></trkpt><trkpt lat="45.65033215236695" lon="8.507981371577257"><ele>268.0</ele><time>2026-04-19T12:12:32.973Z</time></trkpt><trkpt lat="45.65041429517018" lon="8.50790130149511"><ele>267.8</ele><time>2026-04-19T12:12:33.973Z</time></trkpt><trkpt lat="45.650496718077065" lon="8.507819606000062"><ele>267.6</ele><time>2026-04-19T12:12:34.973Z</time></trkpt><trkpt lat="45.65058720607619" lon="8.50773324788086"><ele>267.4</ele><time>2026-04-19T12:12:35.973Z</time></trkpt><trkpt lat="45.650677031348806" lon="8.507650096776361"><ele>267.2</ele><time>2026-04-19T12:12:36.973Z</time></trkpt><trkpt lat="45.650762850975774" lon="8.507570349493344"><ele>267.0</ele><time>2026-04-19T12:12:37.973Z</time></trkpt><trkpt lat="45.65085032763986" lon="8.507486905472096"><ele>267.0</ele><time>2026-04-19T12:12:38.973Z</time></trkpt><trkpt lat="45.65093858799315" lon="8.507400415185899"><ele>267.0</ele><time>2026-04-19T12:12:39.973Z</time></trkpt><trkpt lat="45.651027468001864" lon="8.507315092481571"><ele>267.0</ele><time>2026-04-19T12:12:40.973Z</time></trkpt><trkpt lat="45.65111996274167" lon="8.507229967531721"><ele>267.0</ele><time>2026-04-19T12:12:41.973Z</time></trkpt><trkpt lat="45.6512128059886" lon="8.507143854368893"><ele>267.0</ele><time>2026-04-19T12:12:42.973Z</time></trkpt><trkpt lat="45.65130495303645" lon="8.50705605072517"><ele>267.0</ele><time>2026-04-19T12:12:43.973Z</time></trkpt><trkpt lat="45.651387378118464" lon="8.50697295703647"><ele>267.0</ele><time>2026-04-19T12:12:44.973Z</time></trkpt><trkpt lat="45.651462731603985" lon="8.506893576432478"><ele>267.0</ele><time>2026-04-19T12:12:45.973Z</time></trkpt><trkpt lat="45.65153490289378" lon="8.506824389750616"><ele>267.0</ele><time>2026-04-19T12:12:46.973Z</time></trkpt><trkpt lat="45.65160017833707" lon="8.506762992470161"><ele>267.0</ele><time>2026-04-19T12:12:47.973Z</time></trkpt><trkpt lat="45.651658390406354" lon="8.506708372555448"><ele>267.0</ele><time>2026-04-19T12:12:48.973Z</time></trkpt><trkpt lat="45.65172099730332" lon="8.5066552588507"><ele>267.0</ele><time>2026-04-19T12:12:49.973Z</time></trkpt><trkpt lat="45.651779650534685" lon="8.506596830211683"><ele>267.0</ele><time>2026-04-19T12:12:50.973Z</time></trkpt><trkpt lat="45.65184283588693" lon="8.50653666366599"><ele>267.0</ele><time>2026-04-19T12:12:51.973Z</time></trkpt><trkpt lat="45.65190692522693" lon="8.506472756205596"><ele>267.0</ele><time>2026-04-19T12:12:52.973Z</time></trkpt><trkpt lat="45.65196187927653" lon="8.50640564311655"><ele>267.0</ele><time>2026-04-19T12:12:53.973Z</time></trkpt><trkpt lat="45.652021963145664" lon="8.506329210824012"><ele>267.0</ele><time>2026-04-19T12:12:54.973Z</time></trkpt><trkpt lat="45.65209164158719" lon="8.506235179105024"><ele>267.25</ele><time>2026-04-19T12:12:55.974Z</time></trkpt><trkpt lat="45.65217625315298" lon="8.506124168953383"><ele>267.5</ele><time>2026-04-19T12:12:56.974Z</time></trkpt><trkpt lat="45.6522560407479" lon="8.506022215057284"><ele>267.75</ele><time>2026-04-19T12:12:57.974Z</time></trkpt><trkpt lat="45.65234620536069" lon="8.505912340037728"><ele>268.0</ele><time>2026-04-19T12:12:58.974Z</time></trkpt><trkpt lat="45.65244498207372" lon="8.505799053235789"><ele>268.0</ele><time>2026-04-19T12:12:59.974Z</time></trkpt><trkpt lat="45.65254688865468" lon="8.505698030755184"><ele>268.0</ele><time>2026-04-19T12:13:00.974Z</time></trkpt><trkpt lat="45.65265541809424" lon="8.505611517192566"><ele>268.0</ele><time>2026-04-19T12:13:01.974Z</time></trkpt><trkpt lat="45.65276859440512" lon="8.505530652047897"><ele>268.0</ele><time>2026-04-19T12:13:02.974Z</time></trkpt><trkpt lat="45.65287312707468" lon="8.505458822198799"><ele>268.2</ele><time>2026-04-19T12:13:03.974Z</time></trkpt><trkpt lat="45.652971198198095" lon="8.505388971261574"><ele>268.4</ele><time>2026-04-19T12:13:04.974Z</time></trkpt><trkpt lat="45.6530606784163" lon="8.505328779843415"><ele>268.59999999999997</ele><time>2026-04-19T12:13:05.974Z</time></trkpt><trkpt lat="45.65314563867216" lon="8.505259531857646"><ele>268.8</ele><time>2026-04-19T12:13:06.974Z</time></trkpt><trkpt lat="45.65322126947525" lon="8.505169563498303"><ele>269.0</ele><time>2026-04-19T12:13:07.974Z</time></trkpt><trkpt lat="45.65329335352774" lon="8.505053171310745"><ele>269.0</ele><time>2026-04-19T12:13:08.974Z</time></trkpt><trkpt lat="45.653362181190964" lon="8.504915287253372"><ele>269.0</ele><time>2026-04-19T12:13:09.974Z</time></trkpt><trkpt lat="45.65343691795587" lon="8.504776106961245"><ele>269.0</ele><time>2026-04-19T12:13:10.974Z</time></trkpt><trkpt lat="45.65350595991319" lon="8.504638475313529"><ele>269.0</ele><time>2026-04-19T12:13:11.974Z</time></trkpt><trkpt lat="45.653574383882436" lon="8.504508024203039"><ele>269.0</ele><time>2026-04-19T12:13:12.974Z</time></trkpt><trkpt lat="45.65363973266191" lon="8.504377028932122"><ele>269.0</ele><time>2026-04-19T12:13:13.974Z</time></trkpt><trkpt lat="45.653703655663584" lon="8.504246957255928"><ele>269.0</ele><time>2026-04-19T12:13:14.974Z</time></trkpt><trkpt lat="45.65377190574859" lon="8.504117310812344"><ele>269.0</ele><time>2026-04-19T12:13:15.974Z</time></trkpt><trkpt lat="45.653830431254406" lon="8.503984689843092"><ele>269.0</ele><time>2026-04-19T12:13:16.974Z</time></trkpt><trkpt lat="45.65388205094068" lon="8.503853751997823"><ele>269.8</ele><time>2026-04-19T12:13:17.974Z</time></trkpt><trkpt lat="45.653917972169666" lon="8.503714354175536"><ele>270.59999999999997</ele><time>2026-04-19T12:13:18.974Z</time></trkpt><trkpt lat="45.6539375666591" lon="8.503565011592203"><ele>271.4</ele><time>2026-04-19T12:13:19.974Z</time></trkpt><trkpt lat="45.65393952148685" lon="8.503409307368328"><ele>272.2</ele><time>2026-04-19T12:13:20.974Z</time></trkpt><trkpt lat="45.653934654007855" lon="8.503247024880135"><ele>273.0</ele><time>2026-04-19T12:13:21.974Z</time></trkpt><trkpt lat="45.65392441483313" lon="8.503082885278369"><ele>273.0</ele><time>2026-04-19T12:13:22.974Z</time></trkpt><trkpt lat="45.65391843268585" lon="8.502925299185925"><ele>273.0</ele><time>2026-04-19T12:13:23.974Z</time></trkpt><trkpt lat="45.65390281942083" lon="8.502778909007686"><ele>273.0</ele><time>2026-04-19T12:13:24.974Z</time></trkpt><trkpt lat="45.65389445025806" lon="8.502637072028687"><ele>273.0</ele><time>2026-04-19T12:13:25.974Z</time></trkpt><trkpt lat="45.653888325008765" lon="8.502503808658876"><ele>273.0</ele><time>2026-04-19T12:13:26.974Z</time></trkpt><trkpt lat="45.653882540698596" lon="8.502382166091614"><ele>272.6</ele><time>2026-04-19T12:13:27.974Z</time></trkpt><trkpt lat="45.6538873302906" lon="8.502256496606293"><ele>272.20000000000005</ele><time>2026-04-19T12:13:28.974Z</time></trkpt><trkpt lat="45.65392304382573" lon="8.502136052435308"><ele>271.8</ele><time>2026-04-19T12:13:29.974Z</time></trkpt><trkpt lat="45.65398777260602" lon="8.502020297881298"><ele>271.40000000000003</ele><time>2026-04-19T12:13:30.974Z</time></trkpt><trkpt lat="45.6540667340833" lon="8.501905187765633"><ele>271.0</ele><time>2026-04-19T12:13:31.974Z</time></trkpt><trkpt lat="45.6541546983022" lon="8.5017807687844"><ele>271.0</ele><time>2026-04-19T12:13:32.974Z</time></trkpt><trkpt lat="45.65425870450636" lon="8.50165098558555"><ele>271.0</ele><time>2026-04-19T12:13:33.974Z</time></trkpt><trkpt lat="45.654375669942304" lon="8.501521726993621"><ele>271.0</ele><time>2026-04-19T12:13:34.974Z</time></trkpt><trkpt lat="45.654502330267526" lon="8.501393450814861"><ele>271.0</ele><time>2026-04-19T12:13:35.974Z</time></trkpt><trkpt lat="45.65462559360691" lon="8.5012735121183"><ele>271.0</ele><time>2026-04-19T12:13:36.974Z</time></trkpt><trkpt lat="45.654752570673196" lon="8.501154263402968"><ele>271.0</ele><time>2026-04-19T12:13:37.974Z</time></trkpt><trkpt lat="45.654882953255004" lon="8.50103071534171"><ele>271.0</ele><time>2026-04-19T12:13:38.974Z</time></trkpt><trkpt lat="45.655017758291784" lon="8.500916028450801"><ele>271.0</ele><time>2026-04-19T12:13:39.974Z</time></trkpt><trkpt lat="45.65515949049993" lon="8.50081066537241"><ele>271.0</ele><time>2026-04-19T12:13:40.975Z</time></trkpt><trkpt lat="45.65530885571887" lon="8.500719998976374"><ele>271.0</ele><time>2026-04-19T12:13:41.975Z</time></trkpt><trkpt lat="45.655466497729755" lon="8.500645415690848"><ele>270.66666666666663</ele><time>2026-04-19T12:13:42.975Z</time></trkpt><trkpt lat="45.655627459852155" lon="8.50057804313584"><ele>270.3333333333333</ele><time>2026-04-19T12:13:43.975Z</time></trkpt><trkpt lat="45.65578903749552" lon="8.500513701772269"><ele>270.0</ele><time>2026-04-19T12:13:44.975Z</time></trkpt><trkpt lat="45.65595174990106" lon="8.500450304469792"><ele>269.6666666666667</ele><time>2026-04-19T12:13:45.975Z</time></trkpt><trkpt lat="45.65611393877084" lon="8.50038881089546"><ele>269.33333333333337</ele><time>2026-04-19T12:13:46.975Z</time></trkpt><trkpt lat="45.65627456413757" lon="8.500319396990898"><ele>269.0</ele><time>2026-04-19T12:13:47.975Z</time></trkpt><trkpt lat="45.65643477752217" lon="8.500246945052336"><ele>269.6666666666667</ele><time>2026-04-19T12:13:48.975Z</time></trkpt><trkpt lat="45.6565971573604" lon="8.500174349243355"><ele>270.3333333333333</ele><time>2026-04-19T12:13:49.975Z</time></trkpt><trkpt lat="45.65675911819588" lon="8.500098279090635"><ele>271.0</ele><time>2026-04-19T12:13:50.975Z</time></trkpt><trkpt lat="45.65691988959115" lon="8.50002035435696"><ele>272.0</ele><time>2026-04-19T12:13:51.975Z</time></trkpt><trkpt lat="45.65707327890307" lon="8.499928704734547"><ele>273.0</ele><time>2026-04-19T12:13:52.975Z</time></trkpt><trkpt lat="45.657219576726995" lon="8.499811786414705"><ele>274.0</ele><time>2026-04-19T12:13:53.975Z</time></trkpt><trkpt lat="45.65735688418725" lon="8.499674437796322"><ele>273.66666666666663</ele><time>2026-04-19T12:13:54.975Z</time></trkpt><trkpt lat="45.65749114037753" lon="8.499530367870978"><ele>273.3333333333333</ele><time>2026-04-19T12:13:55.975Z</time></trkpt><trkpt lat="45.65762560830605" lon="8.499380695058681"><ele>273.0</ele><time>2026-04-19T12:13:56.975Z</time></trkpt><trkpt lat="45.657759537734165" lon="8.49922765652844"><ele>273.3333333333333</ele><time>2026-04-19T12:13:57.975Z</time></trkpt><trkpt lat="45.65789496594614" lon="8.499076431056361"><ele>273.66666666666663</ele><time>2026-04-19T12:13:58.975Z</time></trkpt><trkpt lat="45.65803375425544" lon="8.498926938864429"><ele>274.0</ele><time>2026-04-19T12:13:59.975Z</time></trkpt><trkpt lat="45.658174301441925" lon="8.498775089658858"><ele>273.66666666666663</ele><time>2026-04-19T12:14:00.975Z</time></trkpt><trkpt lat="45.65831254232558" lon="8.498624155418925"><ele>273.3333333333333</ele><time>2026-04-19T12:14:01.975Z</time></trkpt><trkpt lat="45.65845154501317" lon="8.498473161430246"><ele>273.0</ele><time>2026-04-19T12:14:02.975Z</time></trkpt><trkpt lat="45.658590643785246" lon="8.498320010081846"><ele>273.3333333333333</ele><time>2026-04-19T12:14:03.975Z</time></trkpt><trkpt lat="45.65873045096469" lon="8.49816837919208"><ele>273.66666666666663</ele><time>2026-04-19T12:14:04.975Z</time></trkpt><trkpt lat="45.658866263805805" lon="8.498020103095124"><ele>274.0</ele><time>2026-04-19T12:14:05.975Z</time></trkpt><trkpt lat="45.65899902921099" lon="8.497872612999176"><ele>274.3333333333333</ele><time>2026-04-19T12:14:06.975Z</time></trkpt><trkpt lat="45.659129723820634" lon="8.497729063436312"><ele>274.6666666666667</ele><time>2026-04-19T12:14:07.975Z</time></trkpt><trkpt lat="45.65925901378876" lon="8.497586657918893"><ele>275.0</ele><time>2026-04-19T12:14:08.975Z</time></trkpt><trkpt lat="45.65938943383444" lon="8.497453961839087"><ele>275.0</ele><time>2026-04-19T12:14:09.975Z</time></trkpt><trkpt lat="45.65964105127355" lon="8.497209632502113"><ele>275.0</ele><time>2026-04-19T12:14:11.975Z</time></trkpt><trkpt lat="45.659768972448845" lon="8.497122635792786"><ele>275.0</ele><time>2026-04-19T12:14:12.975Z</time></trkpt><trkpt lat="45.65989789418194" lon="8.497064357198452"><ele>275.0</ele><time>2026-04-19T12:14:13.975Z</time></trkpt><trkpt lat="45.66002305491527" lon="8.497024090081352"><ele>275.0</ele><time>2026-04-19T12:14:14.975Z</time></trkpt><trkpt lat="45.660143975080665" lon="8.496989755323254"><ele>275.0</ele><time>2026-04-19T12:14:15.975Z</time></trkpt><trkpt lat="45.660256293884544" lon="8.496963394494864"><ele>275.0</ele><time>2026-04-19T12:14:16.975Z</time></trkpt><trkpt lat="45.660356586312375" lon="8.496932562486117"><ele>274.8</ele><time>2026-04-19T12:14:17.975Z</time></trkpt><trkpt lat="45.66043233540434" lon="8.496873111347428"><ele>274.6</ele><time>2026-04-19T12:14:18.975Z</time></trkpt><trkpt lat="45.66046393478193" lon="8.496748953634471"><ele>274.4</ele><time>2026-04-19T12:14:19.975Z</time></trkpt><trkpt lat="45.66046696270175" lon="8.496571691700053"><ele>274.2</ele><time>2026-04-19T12:14:20.975Z</time></trkpt><trkpt lat="45.660427888267364" lon="8.496406822644696"><ele>274.0</ele><time>2026-04-19T12:14:21.972Z</time></trkpt><trkpt lat="45.6603925159799" lon="8.49627430872963"><ele>274.25</ele><time>2026-04-19T12:14:22.972Z</time></trkpt><trkpt lat="45.66034371963349" lon="8.496120974875144"><ele>274.5</ele><time>2026-04-19T12:14:23.972Z</time></trkpt><trkpt lat="45.66030053177947" lon="8.49595706629817"><ele>274.75</ele><time>2026-04-19T12:14:24.972Z</time></trkpt><trkpt lat="45.66025658646788" lon="8.49578357137787"><ele>275.0</ele><time>2026-04-19T12:14:25.972Z</time></trkpt><trkpt lat="45.6602095596748" lon="8.495598103275919"><ele>275.25</ele><time>2026-04-19T12:14:26.972Z</time></trkpt><trkpt lat="45.66016340266243" lon="8.495402011595655"><ele>275.5</ele><time>2026-04-19T12:14:27.972Z</time></trkpt><trkpt lat="45.66012848715266" lon="8.495193973442072"><ele>275.75</ele><time>2026-04-19T12:14:28.972Z</time></trkpt><trkpt lat="45.66009997677352" lon="8.494984366141695"><ele>276.0</ele><time>2026-04-19T12:14:29.972Z</time></trkpt><trkpt lat="45.660078189156366" lon="8.494775422710545"><ele>276.0</ele><time>2026-04-19T12:14:30.972Z</time></trkpt><trkpt lat="45.66005880104684" lon="8.4945742866336"><ele>276.0</ele><time>2026-04-19T12:14:31.972Z</time></trkpt><trkpt lat="45.66004388794937" lon="8.494384896445071"><ele>276.0</ele><time>2026-04-19T12:14:32.972Z</time></trkpt><trkpt lat="45.660029647654376" lon="8.494216420639802"><ele>276.0</ele><time>2026-04-19T12:14:33.972Z</time></trkpt><trkpt lat="45.66002012888921" lon="8.494071055837749"><ele>276.0</ele><time>2026-04-19T12:14:34.972Z</time></trkpt><trkpt lat="45.66002776528053" lon="8.493943767417504"><ele>276.0</ele><time>2026-04-19T12:14:35.972Z</time></trkpt><trkpt lat="45.66005826982714" lon="8.493839950982924"><ele>276.0</ele><time>2026-04-19T12:14:36.972Z</time></trkpt><trkpt lat="45.660105484294554" lon="8.493774586318294"><ele>276.0</ele><time>2026-04-19T12:14:37.972Z</time></trkpt><trkpt lat="45.66016500943808" lon="8.493731268349055"><ele>276.0</ele><time>2026-04-19T12:14:38.972Z</time></trkpt><trkpt lat="45.66024186426741" lon="8.493692224311731"><ele>276.0</ele><time>2026-04-19T12:14:39.972Z</time></trkpt><trkpt lat="45.66033354408619" lon="8.493650779729439"><ele>276.0</ele><time>2026-04-19T12:14:40.972Z</time></trkpt><trkpt lat="45.6604456407481" lon="8.493606999076842"><ele>276.0</ele><time>2026-04-19T12:14:41.972Z</time></trkpt><trkpt lat="45.66056158693757" lon="8.493567077162384"><ele>276.0</ele><time>2026-04-19T12:14:42.972Z</time></trkpt><trkpt lat="45.6606805311393" lon="8.493531176525881"><ele>276.0</ele><time>2026-04-19T12:14:43.972Z</time></trkpt><trkpt lat="45.66081378896369" lon="8.493488379745138"><ele>276.0</ele><time>2026-04-19T12:14:44.972Z</time></trkpt><trkpt lat="45.66095550675939" lon="8.493441271821867"><ele>276.0</ele><time>2026-04-19T12:14:45.972Z</time></trkpt><trkpt lat="45.66110130274962" lon="8.493393642238775"><ele>276.0</ele><time>2026-04-19T12:14:46.972Z</time></trkpt><trkpt lat="45.66124763410791" lon="8.493345587743821"><ele>276.0</ele><time>2026-04-19T12:14:47.972Z</time></trkpt><trkpt lat="45.661404780571544" lon="8.493295829207815"><ele>275.6666666666667</ele><time>2026-04-19T12:14:48.972Z</time></trkpt><trkpt lat="45.66157069288463" lon="8.493252720629766"><ele>275.33333333333337</ele><time>2026-04-19T12:14:49.972Z</time></trkpt><trkpt lat="45.6617357723637" lon="8.49320438255139"><ele>275.0</ele><time>2026-04-19T12:14:50.972Z</time></trkpt><trkpt lat="45.661894383079506" lon="8.493152735357576"><ele>276.33333333333337</ele><time>2026-04-19T12:14:51.972Z</time></trkpt><trkpt lat="45.66206090893791" lon="8.493092424890436"><ele>277.6666666666667</ele><time>2026-04-19T12:14:52.972Z</time></trkpt><trkpt lat="45.66223164213887" lon="8.49303188315493"><ele>279.0</ele><time>2026-04-19T12:14:53.972Z</time></trkpt><trkpt lat="45.66240750867938" lon="8.492973686955372"><ele>278.6666666666667</ele><time>2026-04-19T12:14:54.972Z</time></trkpt><trkpt lat="45.662588532746554" lon="8.492918396163013"><ele>278.33333333333337</ele><time>2026-04-19T12:14:55.972Z</time></trkpt><trkpt lat="45.66277246801539" lon="8.492862947134189"><ele>278.0</ele><time>2026-04-19T12:14:56.972Z</time></trkpt><trkpt lat="45.66295855440441" lon="8.492807082526761"><ele>279.0</ele><time>2026-04-19T12:14:57.972Z</time></trkpt><trkpt lat="45.66314574514521" lon="8.492750165367775"><ele>280.0</ele><time>2026-04-19T12:14:58.973Z</time></trkpt><trkpt lat="45.66333286775571" lon="8.492689221614462"><ele>281.0</ele><time>2026-04-19T12:14:59.973Z</time></trkpt><trkpt lat="45.66351992663058" lon="8.492616875691352"><ele>280.6666666666667</ele><time>2026-04-19T12:15:00.973Z</time></trkpt><trkpt lat="45.663703058240024" lon="8.492525822051354"><ele>280.3333333333333</ele><time>2026-04-19T12:15:01.973Z</time></trkpt><trkpt lat="45.66387991730227" lon="8.49240946256223"><ele>280.0</ele><time>2026-04-19T12:15:02.973Z</time></trkpt><trkpt lat="45.66405103053396" lon="8.492277754591903"><ele>280.0</ele><time>2026-04-19T12:15:03.973Z</time></trkpt><trkpt lat="45.66422335673662" lon="8.492142515307199"><ele>280.0</ele><time>2026-04-19T12:15:04.973Z</time></trkpt><trkpt lat="45.66439549403805" lon="8.492008373278368"><ele>280.0</ele><time>2026-04-19T12:15:05.973Z</time></trkpt><trkpt lat="45.66456548872863" lon="8.491872777403495"><ele>280.3333333333333</ele><time>2026-04-19T12:15:06.973Z</time></trkpt><trkpt lat="45.66473554567105" lon="8.491736328681393"><ele>280.6666666666667</ele><time>2026-04-19T12:15:07.973Z</time></trkpt><trkpt lat="45.66490824571858" lon="8.491604578610056"><ele>281.0</ele><time>2026-04-19T12:15:08.973Z</time></trkpt><trkpt lat="45.665083287474424" lon="8.491484539635325"><ele>281.0</ele><time>2026-04-19T12:15:09.973Z</time></trkpt><trkpt lat="45.66526407591136" lon="8.491376231010536"><ele>281.0</ele><time>2026-04-19T12:15:10.973Z</time></trkpt><trkpt lat="45.66544671626318" lon="8.491279495014679"><ele>281.0</ele><time>2026-04-19T12:15:11.973Z</time></trkpt><trkpt lat="45.66563254907396" lon="8.491193009650774"><ele>280.6666666666667</ele><time>2026-04-19T12:15:12.973Z</time></trkpt><trkpt lat="45.6658196221321" lon="8.491119965087735"><ele>280.3333333333333</ele><time>2026-04-19T12:15:13.973Z</time></trkpt><trkpt lat="45.66601172999503" lon="8.491066717824935"><ele>280.0</ele><time>2026-04-19T12:15:14.973Z</time></trkpt><trkpt lat="45.666203379643676" lon="8.491019093475789"><ele>280.66666666666663</ele><time>2026-04-19T12:15:15.973Z</time></trkpt><trkpt lat="45.66639318546931" lon="8.490966989612035"><ele>281.3333333333333</ele><time>2026-04-19T12:15:16.973Z</time></trkpt><trkpt lat="45.666582616529006" lon="8.490909579533815"><ele>282.0</ele><time>2026-04-19T12:15:17.973Z</time></trkpt><trkpt lat="45.6667733804485" lon="8.49085358648573"><ele>282.6666666666667</ele><time>2026-04-19T12:15:18.973Z</time></trkpt><trkpt lat="45.666963411966314" lon="8.490801381097175"><ele>283.33333333333337</ele><time>2026-04-19T12:15:19.973Z</time></trkpt><trkpt lat="45.66715274901613" lon="8.490748560638659"><ele>284.0</ele><time>2026-04-19T12:15:20.973Z</time></trkpt><trkpt lat="45.66734250872469" lon="8.490697180885947"><ele>284.0</ele><time>2026-04-19T12:15:21.973Z</time></trkpt><trkpt lat="45.66753160816451" lon="8.490642852834055"><ele>284.0</ele><time>2026-04-19T12:15:22.973Z</time></trkpt><trkpt lat="45.667722514111446" lon="8.490583456349114"><ele>284.0</ele><time>2026-04-19T12:15:23.973Z</time></trkpt><trkpt lat="45.667911499523214" lon="8.490517489867523"><ele>283.33333333333337</ele><time>2026-04-19T12:15:24.973Z</time></trkpt><trkpt lat="45.668099452030226" lon="8.490441431553066"><ele>282.6666666666667</ele><time>2026-04-19T12:15:25.973Z</time></trkpt><trkpt lat="45.668286792088736" lon="8.490352989903982"><ele>282.0</ele><time>2026-04-19T12:15:26.973Z</time></trkpt><trkpt lat="45.66847341378911" lon="8.490267143717032"><ele>282.3333333333333</ele><time>2026-04-19T12:15:27.973Z</time></trkpt><trkpt lat="45.66866030084797" lon="8.490184711530805"><ele>282.66666666666663</ele><time>2026-04-19T12:15:28.973Z</time></trkpt><trkpt lat="45.6688472259199" lon="8.49009977706734"><ele>283.0</ele><time>2026-04-19T12:15:29.973Z</time></trkpt><trkpt lat="45.66903140789441" lon="8.490006375398119"><ele>283.0</ele><time>2026-04-19T12:15:30.973Z</time></trkpt><trkpt lat="45.66921424801381" lon="8.489910345703311"><ele>283.0</ele><time>2026-04-19T12:15:31.973Z</time></trkpt><trkpt lat="45.66939861117063" lon="8.489811551376203"><ele>283.0</ele><time>2026-04-19T12:15:32.973Z</time></trkpt><trkpt lat="45.66958184837298" lon="8.489712077375682"><ele>283.0</ele><time>2026-04-19T12:15:33.973Z</time></trkpt><trkpt lat="45.66976492516467" lon="8.489607363151906"><ele>283.0</ele><time>2026-04-19T12:15:34.973Z</time></trkpt><trkpt lat="45.669945665893515" lon="8.489499926440233"><ele>283.0</ele><time>2026-04-19T12:15:35.973Z</time></trkpt><trkpt lat="45.67012608797238" lon="8.489389512829481"><ele>283.66666666666663</ele><time>2026-04-19T12:15:36.973Z</time></trkpt><trkpt lat="45.67030205087129" lon="8.4892801360728"><ele>284.3333333333333</ele><time>2026-04-19T12:15:37.973Z</time></trkpt><trkpt lat="45.67046954536541" lon="8.489172508637642"><ele>285.0</ele><time>2026-04-19T12:15:38.973Z</time></trkpt><trkpt lat="45.67063187713514" lon="8.489061991262963"><ele>285.0</ele><time>2026-04-19T12:15:39.973Z</time></trkpt><trkpt lat="45.67078962695312" lon="8.48895317630426"><ele>285.0</ele><time>2026-04-19T12:15:40.973Z</time></trkpt><trkpt lat="45.67093907494497" lon="8.488846053409983"><ele>285.0</ele><time>2026-04-19T12:15:41.973Z</time></trkpt><trkpt lat="45.6710861692946" lon="8.488744256585786"><ele>285.3333333333333</ele><time>2026-04-19T12:15:42.973Z</time></trkpt><trkpt lat="45.671233318837565" lon="8.488648013502592"><ele>285.66666666666663</ele><time>2026-04-19T12:15:43.974Z</time></trkpt><trkpt lat="45.6713790871575" lon="8.488553060150613"><ele>286.0</ele><time>2026-04-19T12:15:44.974Z</time></trkpt><trkpt lat="45.67152426407012" lon="8.488463505361391"><ele>286.0</ele><time>2026-04-19T12:15:45.974Z</time></trkpt><trkpt lat="45.67166045801669" lon="8.488373272842445"><ele>286.0</ele><time>2026-04-19T12:15:46.974Z</time></trkpt><trkpt lat="45.671785076529865" lon="8.488271283579614"><ele>286.0</ele><time>2026-04-19T12:15:47.974Z</time></trkpt><trkpt lat="45.671890264112896" lon="8.488153867762112"><ele>286.0</ele><time>2026-04-19T12:15:48.974Z</time></trkpt><trkpt lat="45.67197586967533" lon="8.488021436898865"><ele>286.0</ele><time>2026-04-19T12:15:49.974Z</time></trkpt><trkpt lat="45.67204201018024" lon="8.487868048899392"><ele>286.0</ele><time>2026-04-19T12:15:50.974Z</time></trkpt><trkpt lat="45.672091192964984" lon="8.487703363629171"><ele>286.0</ele><time>2026-04-19T12:15:51.974Z</time></trkpt><trkpt lat="45.67213030718547" lon="8.487534463232363"><ele>286.0</ele><time>2026-04-19T12:15:52.974Z</time></trkpt><trkpt lat="45.67217032841764" lon="8.487361832992784"><ele>286.0</ele><time>2026-04-19T12:15:53.974Z</time></trkpt><trkpt lat="45.672225453928306" lon="8.487190285969755"><ele>286.0</ele><time>2026-04-19T12:15:54.974Z</time></trkpt><trkpt lat="45.67230503713633" lon="8.487029933539446"><ele>286.0</ele><time>2026-04-19T12:15:55.974Z</time></trkpt><trkpt lat="45.67239925733817" lon="8.486888321241823"><ele>286.0</ele><time>2026-04-19T12:15:56.974Z</time></trkpt><trkpt lat="45.67251610602055" lon="8.48676719135408"><ele>286.25</ele><time>2026-04-19T12:15:57.974Z</time></trkpt><trkpt lat="45.672643894971834" lon="8.486671160252676"><ele>286.5</ele><time>2026-04-19T12:15:58.974Z</time></trkpt><trkpt lat="45.67278038741889" lon="8.486597501822759"><ele>286.75</ele><time>2026-04-19T12:15:59.974Z</time></trkpt><trkpt lat="45.672924373718345" lon="8.48652382047825"><ele>287.0</ele><time>2026-04-19T12:16:00.974Z</time></trkpt><trkpt lat="45.67306991280369" lon="8.486443112965421"><ele>287.0</ele><time>2026-04-19T12:16:01.974Z</time></trkpt><trkpt lat="45.67321840685617" lon="8.486360942565577"><ele>287.0</ele><time>2026-04-19T12:16:02.974Z</time></trkpt><trkpt lat="45.67336867215215" lon="8.4862773656229"><ele>287.0</ele><time>2026-04-19T12:16:03.974Z</time></trkpt><trkpt lat="45.67351920052778" lon="8.486195023852773"><ele>287.0</ele><time>2026-04-19T12:16:04.974Z</time></trkpt><trkpt lat="45.67367167856589" lon="8.486111784486178"><ele>287.0</ele><time>2026-04-19T12:16:05.974Z</time></trkpt><trkpt lat="45.673821448270246" lon="8.486033120464025"><ele>287.0</ele><time>2026-04-19T12:16:06.974Z</time></trkpt><trkpt lat="45.673967230452476" lon="8.485954402235775"><ele>287.0</ele><time>2026-04-19T12:16:07.974Z</time></trkpt><trkpt lat="45.674113115150334" lon="8.48587731402952"><ele>287.0</ele><time>2026-04-19T12:16:08.974Z</time></trkpt><trkpt lat="45.67425339449337" lon="8.48580156409246"><ele>287.0</ele><time>2026-04-19T12:16:09.974Z</time></trkpt><trkpt lat="45.674388129362576" lon="8.485727429094426"><ele>287.0</ele><time>2026-04-19T12:16:10.974Z</time></trkpt><trkpt lat="45.674513610154385" lon="8.485654673523229"><ele>287.0</ele><time>2026-04-19T12:16:11.974Z</time></trkpt><trkpt lat="45.674628544196224" lon="8.485582555530225"><ele>287.0</ele><time>2026-04-19T12:16:12.974Z</time></trkpt><trkpt lat="45.67473439665847" lon="8.485506814097203"><ele>287.0</ele><time>2026-04-19T12:16:13.974Z</time></trkpt><trkpt lat="45.674823765994844" lon="8.485414875693294"><ele>287.0</ele><time>2026-04-19T12:16:14.974Z</time></trkpt><trkpt lat="45.6748920571306" lon="8.485305387048369"><ele>287.0</ele><time>2026-04-19T12:16:15.974Z</time></trkpt><trkpt lat="45.674950564444515" lon="8.485201132689872"><ele>287.0</ele><time>2026-04-19T12:16:16.974Z</time></trkpt><trkpt lat="45.6750149062256" lon="8.485115594903721"><ele>287.0</ele><time>2026-04-19T12:16:17.974Z</time></trkpt><trkpt lat="45.67509693032458" lon="8.485065832143908"><ele>287.0</ele><time>2026-04-19T12:16:18.974Z</time></trkpt><trkpt lat="45.67520003441381" lon="8.485039177662633"><ele>287.0</ele><time>2026-04-19T12:16:19.974Z</time></trkpt><trkpt lat="45.67531063785885" lon="8.48501700410313"><ele>287.0</ele><time>2026-04-19T12:16:20.974Z</time></trkpt><trkpt lat="45.67542300551579" lon="8.484970254929605"><ele>287.0</ele><time>2026-04-19T12:16:21.974Z</time></trkpt><trkpt lat="45.67553205126704" lon="8.484887719353292"><ele>287.0</ele><time>2026-04-19T12:16:22.974Z</time></trkpt><trkpt lat="45.67563611078227" lon="8.48477434582328"><ele>287.0</ele><time>2026-04-19T12:16:23.974Z</time></trkpt><trkpt lat="45.675726525814845" lon="8.484631295079572"><ele>287.0</ele><time>2026-04-19T12:16:24.974Z</time></trkpt><trkpt lat="45.675807111887785" lon="8.484498025772492"><ele>287.0</ele><time>2026-04-19T12:16:25.974Z</time></trkpt><trkpt lat="45.67590780424554" lon="8.484385821302789"><ele>287.0</ele><time>2026-04-19T12:16:26.974Z</time></trkpt><trkpt lat="45.676029534454784" lon="8.484298660079613"><ele>287.25</ele><time>2026-04-19T12:16:27.971Z</time></trkpt><trkpt lat="45.676162398199956" lon="8.484225186133404"><ele>287.5</ele><time>2026-04-19T12:16:28.971Z</time></trkpt><trkpt lat="45.67630016837981" lon="8.484156095842302"><ele>287.75</ele><time>2026-04-19T12:16:29.971Z</time></trkpt><trkpt lat="45.6764434060808" lon="8.484093236853512"><ele>288.0</ele><time>2026-04-19T12:16:30.971Z</time></trkpt><trkpt lat="45.676590076056705" lon="8.484031094472174"><ele>288.0</ele><time>2026-04-19T12:16:31.971Z</time></trkpt><trkpt lat="45.67673946994254" lon="8.483966060093213"><ele>288.0</ele><time>2026-04-19T12:16:32.971Z</time></trkpt><trkpt lat="45.67688982847522" lon="8.48390383331761"><ele>288.0</ele><time>2026-04-19T12:16:33.971Z</time></trkpt><trkpt lat="45.677039088460305" lon="8.48383823913304"><ele>288.3333333333333</ele><time>2026-04-19T12:16:34.971Z</time></trkpt><trkpt lat="45.67718729752903" lon="8.483762265561115"><ele>288.66666666666663</ele><time>2026-04-19T12:16:35.971Z</time></trkpt><trkpt lat="45.677332365454795" lon="8.48368244436506"><ele>289.0</ele><time>2026-04-19T12:16:36.971Z</time></trkpt><trkpt lat="45.67747535474592" lon="8.48360104294919"><ele>289.0</ele><time>2026-04-19T12:16:37.971Z</time></trkpt><trkpt lat="45.67761164901893" lon="8.483521636167014"><ele>289.0</ele><time>2026-04-19T12:16:38.971Z</time></trkpt><trkpt lat="45.677741388307275" lon="8.483445174595373"><ele>289.0</ele><time>2026-04-19T12:16:39.971Z</time></trkpt><trkpt lat="45.677861183864195" lon="8.48336855857303"><ele>289.0</ele><time>2026-04-19T12:16:40.971Z</time></trkpt><trkpt lat="45.67797333391829" lon="8.483289705028314"><ele>289.4</ele><time>2026-04-19T12:16:41.971Z</time></trkpt><trkpt lat="45.67807691376856" lon="8.483211066744193"><ele>289.79999999999995</ele><time>2026-04-19T12:16:42.971Z</time></trkpt><trkpt lat="45.67817551224901" lon="8.483138697228634"><ele>290.20000000000005</ele><time>2026-04-19T12:16:43.971Z</time></trkpt><trkpt lat="45.6782726007555" lon="8.483069997381312"><ele>290.6</ele><time>2026-04-19T12:16:44.971Z</time></trkpt><trkpt lat="45.678371602056046" lon="8.482998091968257"><ele>291.0</ele><time>2026-04-19T12:16:45.971Z</time></trkpt><trkpt lat="45.67847202978113" lon="8.482923139641231"><ele>291.0</ele><time>2026-04-19T12:16:46.971Z</time></trkpt><trkpt lat="45.67857507555931" lon="8.482847612747994"><ele>291.0</ele><time>2026-04-19T12:16:47.971Z</time></trkpt><trkpt lat="45.67868065604163" lon="8.48277322095841"><ele>291.0</ele><time>2026-04-19T12:16:48.971Z</time></trkpt><trkpt lat="45.67878744527662" lon="8.48269692039548"><ele>291.0</ele><time>2026-04-19T12:16:49.971Z</time></trkpt><trkpt lat="45.6788975313611" lon="8.482620829545981"><ele>291.0</ele><time>2026-04-19T12:16:50.972Z</time></trkpt><trkpt lat="45.67900907802898" lon="8.482541680397919"><ele>291.0</ele><time>2026-04-19T12:16:51.972Z</time></trkpt><trkpt lat="45.679123213490655" lon="8.482461251703613"><ele>291.0</ele><time>2026-04-19T12:16:52.972Z</time></trkpt><trkpt lat="45.67923710129334" lon="8.482375532484513"><ele>291.0</ele><time>2026-04-19T12:16:53.972Z</time></trkpt><trkpt lat="45.6793511071758" lon="8.482296209670562"><ele>291.25</ele><time>2026-04-19T12:16:54.972Z</time></trkpt><trkpt lat="45.67946475553116" lon="8.482218853686591"><ele>291.5</ele><time>2026-04-19T12:16:55.972Z</time></trkpt><trkpt lat="45.679579148283636" lon="8.482141575212019"><ele>291.75</ele><time>2026-04-19T12:16:56.972Z</time></trkpt><trkpt lat="45.67969147752084" lon="8.482063076569197"><ele>292.0</ele><time>2026-04-19T12:16:57.972Z</time></trkpt><trkpt lat="45.679807316147794" lon="8.48198186662758"><ele>292.0</ele><time>2026-04-19T12:16:58.972Z</time></trkpt><trkpt lat="45.67992373847122" lon="8.481900537312992"><ele>292.0</ele><time>2026-04-19T12:16:59.972Z</time></trkpt><trkpt lat="45.68004083940006" lon="8.481818674426888"><ele>292.0</ele><time>2026-04-19T12:17:00.972Z</time></trkpt><trkpt lat="45.68015857295519" lon="8.48173400128188"><ele>292.0</ele><time>2026-04-19T12:17:01.972Z</time></trkpt><trkpt lat="45.680276154544245" lon="8.481646032539755"><ele>292.5</ele><time>2026-04-19T12:17:02.972Z</time></trkpt><trkpt lat="45.68039496772541" lon="8.481559255161198"><ele>293.0</ele><time>2026-04-19T12:17:03.972Z</time></trkpt><trkpt lat="45.680515113429514" lon="8.481471830387331"><ele>293.5</ele><time>2026-04-19T12:17:04.972Z</time></trkpt><trkpt lat="45.6806358149427" lon="8.481384303436888"><ele>294.0</ele><time>2026-04-19T12:17:05.972Z</time></trkpt><trkpt lat="45.68075785896412" lon="8.481302099589831"><ele>294.0</ele><time>2026-04-19T12:17:06.972Z</time></trkpt><trkpt lat="45.68087994401082" lon="8.481217273976362"><ele>294.0</ele><time>2026-04-19T12:17:07.972Z</time></trkpt><trkpt lat="45.68100071099961" lon="8.481130569124744"><ele>294.0</ele><time>2026-04-19T12:17:08.972Z</time></trkpt><trkpt lat="45.68112199950299" lon="8.481040998868224"><ele>294.0</ele><time>2026-04-19T12:17:09.972Z</time></trkpt><trkpt lat="45.681245258124214" lon="8.480953125274743"><ele>294.0</ele><time>2026-04-19T12:17:10.972Z</time></trkpt><trkpt lat="45.68136706318548" lon="8.480866596822791"><ele>294.0</ele><time>2026-04-19T12:17:11.972Z</time></trkpt><trkpt lat="45.681489375373985" lon="8.480783505471106"><ele>294.0</ele><time>2026-04-19T12:17:12.972Z</time></trkpt><trkpt lat="45.68160981535036" lon="8.480697266653532"><ele>294.0</ele><time>2026-04-19T12:17:13.972Z</time></trkpt><trkpt lat="45.68173261494786" lon="8.480611162139224"><ele>294.0</ele><time>2026-04-19T12:17:14.972Z</time></trkpt><trkpt lat="45.6818537866135" lon="8.480524789779533"><ele>294.0</ele><time>2026-04-19T12:17:15.972Z</time></trkpt><trkpt lat="45.68197622062922" lon="8.480436672942004"><ele>294.0</ele><time>2026-04-19T12:17:16.972Z</time></trkpt><trkpt lat="45.68209629754619" lon="8.480352426073578"><ele>294.0</ele><time>2026-04-19T12:17:17.972Z</time></trkpt><trkpt lat="45.68221796738614" lon="8.480266336602556"><ele>294.25</ele><time>2026-04-19T12:17:18.972Z</time></trkpt><trkpt lat="45.68233833900888" lon="8.480179295239495"><ele>294.5</ele><time>2026-04-19T12:17:19.972Z</time></trkpt><trkpt lat="45.682458183283075" lon="8.480092085522891"><ele>294.75</ele><time>2026-04-19T12:17:20.972Z</time></trkpt><trkpt lat="45.68257716332431" lon="8.480007843626758"><ele>295.0</ele><time>2026-04-19T12:17:21.972Z</time></trkpt><trkpt lat="45.6826972966504" lon="8.47992083930324"><ele>295.0</ele><time>2026-04-19T12:17:22.972Z</time></trkpt><trkpt lat="45.68281742658648" lon="8.479832590096155"><ele>295.0</ele><time>2026-04-19T12:17:23.972Z</time></trkpt><trkpt lat="45.682939848526985" lon="8.479740250546635"><ele>295.0</ele><time>2026-04-19T12:17:24.972Z</time></trkpt><trkpt lat="45.68306161913148" lon="8.479643878290736"><ele>295.0</ele><time>2026-04-19T12:17:25.972Z</time></trkpt><trkpt lat="45.68318421409292" lon="8.479546593531802"><ele>295.25</ele><time>2026-04-19T12:17:26.972Z</time></trkpt><trkpt lat="45.68331047591207" lon="8.479450168048231"><ele>295.5</ele><time>2026-04-19T12:17:27.972Z</time></trkpt><trkpt lat="45.68343853853158" lon="8.479356602323485"><ele>295.75</ele><time>2026-04-19T12:17:28.972Z</time></trkpt><trkpt lat="45.68356548448666" lon="8.479264643299844"><ele>296.0</ele><time>2026-04-19T12:17:29.972Z</time></trkpt><trkpt lat="45.68369149646234" lon="8.479177733153778"><ele>296.25</ele><time>2026-04-19T12:17:30.972Z</time></trkpt><trkpt lat="45.68381890507853" lon="8.479090801275193"><ele>296.5</ele><time>2026-04-19T12:17:31.972Z</time></trkpt><trkpt lat="45.68394265623407" lon="8.479003413781848"><ele>296.75</ele><time>2026-04-19T12:17:32.972Z</time></trkpt><trkpt lat="45.684066386643316" lon="8.478913161116655"><ele>297.0</ele><time>2026-04-19T12:17:33.972Z</time></trkpt><trkpt lat="45.68418858369376" lon="8.478821092278729"><ele>296.75</ele><time>2026-04-19T12:17:34.972Z</time></trkpt><trkpt lat="45.684306809182004" lon="8.47871770686304"><ele>296.5</ele><time>2026-04-19T12:17:35.973Z</time></trkpt><trkpt lat="45.684425321704296" lon="8.478618862941737"><ele>296.25</ele><time>2026-04-19T12:17:36.973Z</time></trkpt><trkpt lat="45.68454572690885" lon="8.478519222482017"><ele>296.0</ele><time>2026-04-19T12:17:37.973Z</time></trkpt><trkpt lat="45.68466587224247" lon="8.478417062267626"><ele>296.5</ele><time>2026-04-19T12:17:38.973Z</time></trkpt><trkpt lat="45.6847872433564" lon="8.478314776941938"><ele>297.0</ele><time>2026-04-19T12:17:39.973Z</time></trkpt><trkpt lat="45.684905166201304" lon="8.478214567761034"><ele>297.5</ele><time>2026-04-19T12:17:40.973Z</time></trkpt><trkpt lat="45.68502173539797" lon="8.478116179333092"><ele>298.0</ele><time>2026-04-19T12:17:41.973Z</time></trkpt><trkpt lat="45.68513812771367" lon="8.478021572555855"><ele>298.25</ele><time>2026-04-19T12:17:42.973Z</time></trkpt><trkpt lat="45.68525131654544" lon="8.477926086146594"><ele>298.5</ele><time>2026-04-19T12:17:43.973Z</time></trkpt><trkpt lat="45.68536498744964" lon="8.477826179946922"><ele>298.75</ele><time>2026-04-19T12:17:44.973Z</time></trkpt><trkpt lat="45.685478485996704" lon="8.477721818916221"><ele>299.0</ele><time>2026-04-19T12:17:45.973Z</time></trkpt><trkpt lat="45.68559072606079" lon="8.477620065402938"><ele>299.0</ele><time>2026-04-19T12:17:46.973Z</time></trkpt><trkpt lat="45.68570210233984" lon="8.477522299397808"><ele>299.0</ele><time>2026-04-19T12:17:47.973Z</time></trkpt><trkpt lat="45.6858165760808" lon="8.47742435293941"><ele>299.0</ele><time>2026-04-19T12:17:48.973Z</time></trkpt><trkpt lat="45.685934054090225" lon="8.477327108770108"><ele>299.0</ele><time>2026-04-19T12:17:49.973Z</time></trkpt><trkpt lat="45.68605350280321" lon="8.477228174319652"><ele>299.0</ele><time>2026-04-19T12:17:50.973Z</time></trkpt><trkpt lat="45.68617203347825" lon="8.477125584184867"><ele>299.0</ele><time>2026-04-19T12:17:51.973Z</time></trkpt><trkpt lat="45.686289116394875" lon="8.477022924850411"><ele>299.0</ele><time>2026-04-19T12:17:52.973Z</time></trkpt><trkpt lat="45.68640492372109" lon="8.476922573194965"><ele>299.0</ele><time>2026-04-19T12:17:53.973Z</time></trkpt><trkpt lat="45.68652087624114" lon="8.476821540922328"><ele>299.0</ele><time>2026-04-19T12:17:54.973Z</time></trkpt><trkpt lat="45.68663403326517" lon="8.476723838182515"><ele>299.0</ele><time>2026-04-19T12:17:55.973Z</time></trkpt><trkpt lat="45.68674793554472" lon="8.476625542645861"><ele>299.0</ele><time>2026-04-19T12:17:56.973Z</time></trkpt><trkpt lat="45.68686417059013" lon="8.476528915583538"><ele>299.0</ele><time>2026-04-19T12:17:57.973Z</time></trkpt><trkpt lat="45.686977818314645" lon="8.476431406046423"><ele>299.0</ele><time>2026-04-19T12:17:58.973Z</time></trkpt><trkpt lat="45.68708804327213" lon="8.476335514099194"><ele>299.0</ele><time>2026-04-19T12:17:59.973Z</time></trkpt><trkpt lat="45.68719545093917" lon="8.476246689193424"><ele>299.0</ele><time>2026-04-19T12:18:00.973Z</time></trkpt><trkpt lat="45.68730380716389" lon="8.476154651033589"><ele>299.0</ele><time>2026-04-19T12:18:01.973Z</time></trkpt><trkpt lat="45.68741325388167" lon="8.4760582269796"><ele>299.0</ele><time>2026-04-19T12:18:02.973Z</time></trkpt><trkpt lat="45.68752460850266" lon="8.475962387290261"><ele>299.0</ele><time>2026-04-19T12:18:03.973Z</time></trkpt><trkpt lat="45.68763613822526" lon="8.475862707972345"><ele>299.0</ele><time>2026-04-19T12:18:04.973Z</time></trkpt><trkpt lat="45.68774984509672" lon="8.475762492405336"><ele>299.0</ele><time>2026-04-19T12:18:05.973Z</time></trkpt><trkpt lat="45.687863437488375" lon="8.475659306811481"><ele>299.25</ele><time>2026-04-19T12:18:06.973Z</time></trkpt><trkpt lat="45.687978795992976" lon="8.475557658737817"><ele>299.5</ele><time>2026-04-19T12:18:07.973Z</time></trkpt><trkpt lat="45.688094114242375" lon="8.475453688600634"><ele>299.75</ele><time>2026-04-19T12:18:08.973Z</time></trkpt><trkpt lat="45.688207690912094" lon="8.475354692309416"><ele>300.0</ele><time>2026-04-19T12:18:09.973Z</time></trkpt><trkpt lat="45.68831971335934" lon="8.475258014074432"><ele>300.0</ele><time>2026-04-19T12:18:10.973Z</time></trkpt><trkpt lat="45.68842928383431" lon="8.475167328522394"><ele>300.0</ele><time>2026-04-19T12:18:11.973Z</time></trkpt><trkpt lat="45.68854030109278" lon="8.475071065239199"><ele>300.0</ele><time>2026-04-19T12:18:12.973Z</time></trkpt><trkpt lat="45.688652484129925" lon="8.474977329754681"><ele>300.0</ele><time>2026-04-19T12:18:13.973Z</time></trkpt><trkpt lat="45.688766374391825" lon="8.47488195097117"><ele>300.5</ele><time>2026-04-19T12:18:14.973Z</time></trkpt><trkpt lat="45.68888073898483" lon="8.474783254017677"><ele>301.0</ele><time>2026-04-19T12:18:15.973Z</time></trkpt><trkpt lat="45.68899440915441" lon="8.474682437648823"><ele>301.5</ele><time>2026-04-19T12:18:16.973Z</time></trkpt><trkpt lat="45.689108049271574" lon="8.474583593578858"><ele>302.0</ele><time>2026-04-19T12:18:17.973Z</time></trkpt><trkpt lat="45.68921607990826" lon="8.47448679460768"><ele>302.0</ele><time>2026-04-19T12:18:18.973Z</time></trkpt><trkpt lat="45.68932021678658" lon="8.474396122071898"><ele>302.0</ele><time>2026-04-19T12:18:19.973Z</time></trkpt><trkpt lat="45.689422331226815" lon="8.474303528970928"><ele>302.0</ele><time>2026-04-19T12:18:20.974Z</time></trkpt><trkpt lat="45.68952847113544" lon="8.474209504834791"><ele>302.0</ele><time>2026-04-19T12:18:21.974Z</time></trkpt><trkpt lat="45.6896335511661" lon="8.474113361158585"><ele>301.75</ele><time>2026-04-19T12:18:22.974Z</time></trkpt><trkpt lat="45.689741908370856" lon="8.474020749935164"><ele>301.5</ele><time>2026-04-19T12:18:23.974Z</time></trkpt><trkpt lat="45.68985109258829" lon="8.473927800304603"><ele>301.25</ele><time>2026-04-19T12:18:24.974Z</time></trkpt><trkpt lat="45.68996110287384" lon="8.473830515975656"><ele>301.0</ele><time>2026-04-19T12:18:25.974Z</time></trkpt><trkpt lat="45.690067555574856" lon="8.473727271722266"><ele>301.0</ele><time>2026-04-19T12:18:26.974Z</time></trkpt><trkpt lat="45.69016848110673" lon="8.473614161714538"><ele>301.0</ele><time>2026-04-19T12:18:27.974Z</time></trkpt><trkpt lat="45.69026653285007" lon="8.473494061882475"><ele>301.0</ele><time>2026-04-19T12:18:28.974Z</time></trkpt><trkpt lat="45.69036095778622" lon="8.473367426998939"><ele>301.0</ele><time>2026-04-19T12:18:29.974Z</time></trkpt><trkpt lat="45.690452764222314" lon="8.473234585540347"><ele>301.0</ele><time>2026-04-19T12:18:30.974Z</time></trkpt><trkpt lat="45.6905428454941" lon="8.473101627345091"><ele>301.0</ele><time>2026-04-19T12:18:31.974Z</time></trkpt><trkpt lat="45.690631831984575" lon="8.472971136784219"><ele>301.0</ele><time>2026-04-19T12:18:32.974Z</time></trkpt><trkpt lat="45.69071063789546" lon="8.472848877081406"><ele>301.0</ele><time>2026-04-19T12:18:33.969Z</time></trkpt><trkpt lat="45.69078591326475" lon="8.472733531969034"><ele>301.0</ele><time>2026-04-19T12:18:34.969Z</time></trkpt><trkpt lat="45.690854171346096" lon="8.472623846938406"><ele>301.0</ele><time>2026-04-19T12:18:35.969Z</time></trkpt><trkpt lat="45.690920836799805" lon="8.472528471593508"><ele>301.0</ele><time>2026-04-19T12:18:36.97Z</time></trkpt><trkpt lat="45.690991908581644" lon="8.472426023824967"><ele>301.0</ele><time>2026-04-19T12:18:37.969Z</time></trkpt><trkpt lat="45.69106520099038" lon="8.47231699384788"><ele>301.0</ele><time>2026-04-19T12:18:38.969Z</time></trkpt><trkpt lat="45.691141276288334" lon="8.47220571449302"><ele>301.0</ele><time>2026-04-19T12:18:39.97Z</time></trkpt><trkpt lat="45.69122363939487" lon="8.472091539873468"><ele>301.0</ele><time>2026-04-19T12:18:40.969Z</time></trkpt><trkpt lat="45.69130753694861" lon="8.471973650175714"><ele>301.0</ele><time>2026-04-19T12:18:41.969Z</time></trkpt><trkpt lat="45.69139210235815" lon="8.47185011638916"><ele>301.0</ele><time>2026-04-19T12:18:42.969Z</time></trkpt><trkpt lat="45.691481930573985" lon="8.471726756216126"><ele>301.0</ele><time>2026-04-19T12:18:43.969Z</time></trkpt><trkpt lat="45.691567030904096" lon="8.471598016370658"><ele>301.0</ele><time>2026-04-19T12:18:44.969Z</time></trkpt><trkpt lat="45.69164996963455" lon="8.471468783217325"><ele>301.0</ele><time>2026-04-19T12:18:45.97Z</time></trkpt><trkpt lat="45.69172831111665" lon="8.471347630853877"><ele>301.0</ele><time>2026-04-19T12:18:46.969Z</time></trkpt><trkpt lat="45.69179980690011" lon="8.471231647610477"><ele>301.2</ele><time>2026-04-19T12:18:47.969Z</time></trkpt><trkpt lat="45.6918657536964" lon="8.47112657157492"><ele>301.40000000000003</ele><time>2026-04-19T12:18:48.97Z</time></trkpt><trkpt lat="45.691934095427285" lon="8.471035575247242"><ele>301.6</ele><time>2026-04-19T12:18:49.97Z</time></trkpt><trkpt lat="45.69200066738892" lon="8.470947623975258"><ele>301.8</ele><time>2026-04-19T12:18:50.97Z</time></trkpt><trkpt lat="45.69206550885952" lon="8.470860904261988"><ele>302.0</ele><time>2026-04-19T12:18:51.97Z</time></trkpt><trkpt lat="45.69213125162761" lon="8.470774792170994"><ele>302.0</ele><time>2026-04-19T12:18:52.97Z</time></trkpt><trkpt lat="45.69219794095679" lon="8.470679990201752"><ele>302.0</ele><time>2026-04-19T12:18:53.97Z</time></trkpt><trkpt lat="45.69226441322404" lon="8.470573541392172"><ele>302.0</ele><time>2026-04-19T12:18:54.97Z</time></trkpt><trkpt lat="45.69232855667181" lon="8.470466183343566"><ele>302.0</ele><time>2026-04-19T12:18:55.97Z</time></trkpt><trkpt lat="45.692395737592335" lon="8.470372434464851"><ele>302.0</ele><time>2026-04-19T12:18:56.97Z</time></trkpt><trkpt lat="45.69246102328849" lon="8.47028300630749"><ele>302.0</ele><time>2026-04-19T12:18:57.97Z</time></trkpt><trkpt lat="45.69252332379219" lon="8.470194850119942"><ele>302.0</ele><time>2026-04-19T12:18:58.97Z</time></trkpt><trkpt lat="45.692583165631575" lon="8.470108274990313"><ele>302.0</ele><time>2026-04-19T12:18:59.97Z</time></trkpt><trkpt lat="45.69264096470518" lon="8.470023831265285"><ele>302.0</ele><time>2026-04-19T12:19:00.97Z</time></trkpt><trkpt lat="45.69269918353006" lon="8.469937869321674"><ele>302.0</ele><time>2026-04-19T12:19:01.97Z</time></trkpt><trkpt lat="45.69275198039089" lon="8.469861726261101"><ele>302.0</ele><time>2026-04-19T12:19:02.97Z</time></trkpt><trkpt lat="45.69280540279589" lon="8.469788023678754"><ele>302.33333333333337</ele><time>2026-04-19T12:19:03.97Z</time></trkpt><trkpt lat="45.692860926307866" lon="8.469714229275173"><ele>302.6666666666667</ele><time>2026-04-19T12:19:04.97Z</time></trkpt><trkpt lat="45.69291371409615" lon="8.4696438444463"><ele>303.0</ele><time>2026-04-19T12:19:05.97Z</time></trkpt><trkpt lat="45.69295980269682" lon="8.469571613975168"><ele>303.3333333333333</ele><time>2026-04-19T12:19:06.97Z</time></trkpt><trkpt lat="45.693033419653354" lon="8.469445915221224"><ele>303.66666666666663</ele><time>2026-04-19T12:19:08.97Z</time></trkpt><trkpt lat="45.6931134745621" lon="8.46936461129473"><ele>304.0</ele><time>2026-04-19T12:19:10.97Z</time></trkpt><trkpt lat="45.69319377831319" lon="8.469291396836887"><ele>304.0</ele><time>2026-04-19T12:19:12.97Z</time></trkpt><trkpt lat="45.693209607931486" lon="8.469188786468157"><ele>304.0</ele><time>2026-04-19T12:19:14.97Z</time></trkpt><trkpt lat="45.69313764755126" lon="8.46907112619952"><ele>304.0</ele><time>2026-04-19T12:19:16.97Z</time></trkpt><trkpt lat="45.693080073398356" lon="8.468995758969394"><ele>304.0</ele><time>2026-04-19T12:19:17.97Z</time></trkpt><trkpt lat="45.693030643681695" lon="8.46890877455511"><ele>304.0</ele><time>2026-04-19T12:19:18.97Z</time></trkpt><trkpt lat="45.692978501779336" lon="8.46879967907259"><ele>304.0</ele><time>2026-04-19T12:19:19.97Z</time></trkpt><trkpt lat="45.69293059919312" lon="8.468683089322989"><ele>304.2</ele><time>2026-04-19T12:19:20.97Z</time></trkpt><trkpt lat="45.69287680742059" lon="8.468561909202968"><ele>304.4</ele><time>2026-04-19T12:19:21.97Z</time></trkpt><trkpt lat="45.69282020990348" lon="8.468431473986923"><ele>304.6</ele><time>2026-04-19T12:19:22.97Z</time></trkpt><trkpt lat="45.6927607195329" lon="8.468287218341501"><ele>304.8</ele><time>2026-04-19T12:19:23.97Z</time></trkpt><trkpt lat="45.69269563923125" lon="8.468138255089363"><ele>305.0</ele><time>2026-04-19T12:19:24.97Z</time></trkpt><trkpt lat="45.69262622200259" lon="8.467987427731543"><ele>305.0</ele><time>2026-04-19T12:19:25.97Z</time></trkpt><trkpt lat="45.69255898300045" lon="8.467825269258341"><ele>305.0</ele><time>2026-04-19T12:19:26.97Z</time></trkpt><trkpt lat="45.69249776470904" lon="8.46765733693967"><ele>305.0</ele><time>2026-04-19T12:19:27.97Z</time></trkpt><trkpt lat="45.692434174141766" lon="8.467487583223708"><ele>305.0</ele><time>2026-04-19T12:19:28.97Z</time></trkpt><trkpt lat="45.69236247652473" lon="8.467319900305293"><ele>305.0</ele><time>2026-04-19T12:19:29.97Z</time></trkpt><trkpt lat="45.692292455006566" lon="8.467151613442864"><ele>305.0</ele><time>2026-04-19T12:19:30.97Z</time></trkpt><trkpt lat="45.692219003417506" lon="8.466988976173074"><ele>305.0</ele><time>2026-04-19T12:19:31.97Z</time></trkpt><trkpt lat="45.69214657539298" lon="8.466826238519452"><ele>305.0</ele><time>2026-04-19T12:19:32.97Z</time></trkpt><trkpt lat="45.69207225872388" lon="8.466664612059226"><ele>304.75</ele><time>2026-04-19T12:19:33.971Z</time></trkpt><trkpt lat="45.69200285142406" lon="8.466499282727314"><ele>304.5</ele><time>2026-04-19T12:19:34.971Z</time></trkpt><trkpt lat="45.691939540512905" lon="8.466337246955575"><ele>304.25</ele><time>2026-04-19T12:19:35.971Z</time></trkpt><trkpt lat="45.69187867000345" lon="8.466176031767374"><ele>304.0</ele><time>2026-04-19T12:19:36.971Z</time></trkpt><trkpt lat="45.6918302602595" lon="8.466014787759434"><ele>303.8</ele><time>2026-04-19T12:19:37.971Z</time></trkpt><trkpt lat="45.69180133147177" lon="8.465856789682249"><ele>303.59999999999997</ele><time>2026-04-19T12:19:38.971Z</time></trkpt><trkpt lat="45.69178329673383" lon="8.465707533375115"><ele>303.4</ele><time>2026-04-19T12:19:39.971Z</time></trkpt><trkpt lat="45.69177430918731" lon="8.46555918361536"><ele>303.2</ele><time>2026-04-19T12:19:40.971Z</time></trkpt><trkpt lat="45.69177818283885" lon="8.46540699529027"><ele>303.0</ele><time>2026-04-19T12:19:41.971Z</time></trkpt><trkpt lat="45.691797734510324" lon="8.465258763654443"><ele>303.0</ele><time>2026-04-19T12:19:42.971Z</time></trkpt><trkpt lat="45.69183116604197" lon="8.465118199610476"><ele>303.0</ele><time>2026-04-19T12:19:43.971Z</time></trkpt><trkpt lat="45.6918834795701" lon="8.46499091574044"><ele>303.0</ele><time>2026-04-19T12:19:44.971Z</time></trkpt><trkpt lat="45.69195706414157" lon="8.464877478367574"><ele>303.0</ele><time>2026-04-19T12:19:45.971Z</time></trkpt><trkpt lat="45.692033574698605" lon="8.464760619339298"><ele>303.0</ele><time>2026-04-19T12:19:46.971Z</time></trkpt><trkpt lat="45.692114704980774" lon="8.46464823931777"><ele>303.0</ele><time>2026-04-19T12:19:47.971Z</time></trkpt><trkpt lat="45.692199321431694" lon="8.464520216650717"><ele>303.0</ele><time>2026-04-19T12:19:48.971Z</time></trkpt><trkpt lat="45.69228646862988" lon="8.464389024104548"><ele>303.0</ele><time>2026-04-19T12:19:49.971Z</time></trkpt><trkpt lat="45.6923756338983" lon="8.46425356071149"><ele>303.0</ele><time>2026-04-19T12:19:50.971Z</time></trkpt><trkpt lat="45.69246637563285" lon="8.464117627269045"><ele>303.0</ele><time>2026-04-19T12:19:51.971Z</time></trkpt><trkpt lat="45.69256223648308" lon="8.463980402781266"><ele>303.0</ele><time>2026-04-19T12:19:52.971Z</time></trkpt><trkpt lat="45.69265631680502" lon="8.463839307597551"><ele>303.0</ele><time>2026-04-19T12:19:53.971Z</time></trkpt><trkpt lat="45.69274836840291" lon="8.463696344316462"><ele>303.0</ele><time>2026-04-19T12:19:54.971Z</time></trkpt><trkpt lat="45.69284019445559" lon="8.463554020587122"><ele>303.0</ele><time>2026-04-19T12:19:55.971Z</time></trkpt><trkpt lat="45.69292576340112" lon="8.463413371478136"><ele>303.0</ele><time>2026-04-19T12:19:56.971Z</time></trkpt><trkpt lat="45.69301319478382" lon="8.463280504560213"><ele>303.0</ele><time>2026-04-19T12:19:57.971Z</time></trkpt><trkpt lat="45.693100298454794" lon="8.463146889596645"><ele>303.0</ele><time>2026-04-19T12:19:58.971Z</time></trkpt><trkpt lat="45.693186083417665" lon="8.463015035531484"><ele>303.5</ele><time>2026-04-19T12:19:59.971Z</time></trkpt><trkpt lat="45.693270632269865" lon="8.462884761648715"><ele>304.0</ele><time>2026-04-19T12:20:00.971Z</time></trkpt><trkpt lat="45.693358429730736" lon="8.462749058311537"><ele>304.5</ele><time>2026-04-19T12:20:01.971Z</time></trkpt><trkpt lat="45.69344872325486" lon="8.46261395143075"><ele>305.0</ele><time>2026-04-19T12:20:02.971Z</time></trkpt><trkpt lat="45.693535470261175" lon="8.462476430304005"><ele>305.0</ele><time>2026-04-19T12:20:03.971Z</time></trkpt><trkpt lat="45.6936231762227" lon="8.462340452884728"><ele>305.0</ele><time>2026-04-19T12:20:04.971Z</time></trkpt><trkpt lat="45.69370860272639" lon="8.462205574526536"><ele>305.0</ele><time>2026-04-19T12:20:05.971Z</time></trkpt><trkpt lat="45.6937933727243" lon="8.462080436008115"><ele>305.0</ele><time>2026-04-19T12:20:06.971Z</time></trkpt><trkpt lat="45.69388364321658" lon="8.461962439029426"><ele>305.0</ele><time>2026-04-19T12:20:07.971Z</time></trkpt><trkpt lat="45.69397244186265" lon="8.461851585066775"><ele>305.0</ele><time>2026-04-19T12:20:08.971Z</time></trkpt><trkpt lat="45.694057192982754" lon="8.461742876608746"><ele>305.0</ele><time>2026-04-19T12:20:09.971Z</time></trkpt><trkpt lat="45.69414632873976" lon="8.461626248347295"><ele>305.0</ele><time>2026-04-19T12:20:10.971Z</time></trkpt><trkpt lat="45.69423103701437" lon="8.461511397967396"><ele>305.0</ele><time>2026-04-19T12:20:11.971Z</time></trkpt><trkpt lat="45.694322568149474" lon="8.461399939237909"><ele>305.0</ele><time>2026-04-19T12:20:12.971Z</time></trkpt><trkpt lat="45.694415921663655" lon="8.461286096932016"><ele>305.0</ele><time>2026-04-19T12:20:13.971Z</time></trkpt><trkpt lat="45.69451004095232" lon="8.461172908660068"><ele>305.0</ele><time>2026-04-19T12:20:14.971Z</time></trkpt><trkpt lat="45.694608580778066" lon="8.46106159825058"><ele>305.0</ele><time>2026-04-19T12:20:15.971Z</time></trkpt><trkpt lat="45.69470628897631" lon="8.460950753737617"><ele>305.0</ele><time>2026-04-19T12:20:16.971Z</time></trkpt><trkpt lat="45.69480206036735" lon="8.460834565520447"><ele>305.0</ele><time>2026-04-19T12:20:17.971Z</time></trkpt><trkpt lat="45.694900250029654" lon="8.460721295292284"><ele>305.0</ele><time>2026-04-19T12:20:18.971Z</time></trkpt><trkpt lat="45.695003069898526" lon="8.46061590276139"><ele>305.0</ele><time>2026-04-19T12:20:19.972Z</time></trkpt><trkpt lat="45.69522598645064" lon="8.460431489766828"><ele>305.0</ele><time>2026-04-19T12:20:21.972Z</time></trkpt><trkpt lat="45.69534863706028" lon="8.460359515319663"><ele>305.0</ele><time>2026-04-19T12:20:22.972Z</time></trkpt><trkpt lat="45.695469756455914" lon="8.460304838827671"><ele>305.0</ele><time>2026-04-19T12:20:23.972Z</time></trkpt><trkpt lat="45.69559365349143" lon="8.46025247653013"><ele>305.0</ele><time>2026-04-19T12:20:24.972Z</time></trkpt><trkpt lat="45.6957218218799" lon="8.460205959235864"><ele>305.0</ele><time>2026-04-19T12:20:25.972Z</time></trkpt><trkpt lat="45.69584906529036" lon="8.46016234600103"><ele>305.0</ele><time>2026-04-19T12:20:26.972Z</time></trkpt><trkpt lat="45.69597149757121" lon="8.460131860880209"><ele>305.5</ele><time>2026-04-19T12:20:27.972Z</time></trkpt><trkpt lat="45.69609281356676" lon="8.460092721869861"><ele>306.0</ele><time>2026-04-19T12:20:28.972Z</time></trkpt><trkpt lat="45.69621194677602" lon="8.460059230642246"><ele>306.5</ele><time>2026-04-19T12:20:29.972Z</time></trkpt><trkpt lat="45.69632686775381" lon="8.46003417311463"><ele>307.0</ele><time>2026-04-19T12:20:30.972Z</time></trkpt><trkpt lat="45.696439952100384" lon="8.460009629501085"><ele>307.0</ele><time>2026-04-19T12:20:31.972Z</time></trkpt><trkpt lat="45.696556777855605" lon="8.459979857077535"><ele>307.0</ele><time>2026-04-19T12:20:32.972Z</time></trkpt><trkpt lat="45.6966698534633" lon="8.45993959686776"><ele>307.0</ele><time>2026-04-19T12:20:33.972Z</time></trkpt><trkpt lat="45.696786814325684" lon="8.459899667855504"><ele>307.0</ele><time>2026-04-19T12:20:34.972Z</time></trkpt><trkpt lat="45.6969005259455" lon="8.459865863651206"><ele>307.4</ele><time>2026-04-19T12:20:35.972Z</time></trkpt><trkpt lat="45.69701328167795" lon="8.459838387324087"><ele>307.79999999999995</ele><time>2026-04-19T12:20:36.972Z</time></trkpt><trkpt lat="45.69711180313805" lon="8.45980130830546"><ele>308.2</ele><time>2026-04-19T12:20:37.972Z</time></trkpt><trkpt lat="45.69720186561665" lon="8.459767393763949"><ele>308.59999999999997</ele><time>2026-04-19T12:20:38.972Z</time></trkpt><trkpt lat="45.69727587661376" lon="8.459734101665797"><ele>309.0</ele><time>2026-04-19T12:20:39.968Z</time></trkpt><trkpt lat="45.69734275423373" lon="8.459697019663466"><ele>309.0</ele><time>2026-04-19T12:20:40.968Z</time></trkpt><trkpt lat="45.69740778853776" lon="8.459673853727342"><ele>309.0</ele><time>2026-04-19T12:20:41.968Z</time></trkpt><trkpt lat="45.697524295520026" lon="8.459678903048133"><ele>309.0</ele><time>2026-04-19T12:20:43.967Z</time></trkpt><trkpt lat="45.697611236895185" lon="8.459636878553441"><ele>309.0</ele><time>2026-04-19T12:20:45.968Z</time></trkpt><trkpt lat="45.69763449109235" lon="8.45953368152066"><ele>309.0</ele><time>2026-04-19T12:20:47.967Z</time></trkpt><trkpt lat="45.697593947124204" lon="8.459442545675165"><ele>309.0</ele><time>2026-04-19T12:20:49.968Z</time></trkpt><trkpt lat="45.697508533608236" lon="8.459362046842248"><ele>308.8333333333333</ele><time>2026-04-19T12:20:51.968Z</time></trkpt><trkpt lat="45.69746369385522" lon="8.459277934104596"><ele>308.6666666666667</ele><time>2026-04-19T12:20:52.967Z</time></trkpt><trkpt lat="45.697414254722844" lon="8.459171724885087"><ele>308.5</ele><time>2026-04-19T12:20:53.967Z</time></trkpt><trkpt lat="45.697370205364855" lon="8.459055278624147"><ele>308.33333333333337</ele><time>2026-04-19T12:20:54.967Z</time></trkpt><trkpt lat="45.69733077768018" lon="8.458951067340871"><ele>308.1666666666667</ele><time>2026-04-19T12:20:55.967Z</time></trkpt><trkpt lat="45.69729978611302" lon="8.458864122433761"><ele>308.0</ele><time>2026-04-19T12:20:56.967Z</time></trkpt><trkpt lat="45.69730460406384" lon="8.458727121698692"><ele>308.0</ele><time>2026-04-19T12:20:58.967Z</time></trkpt><trkpt lat="45.697396217389226" lon="8.45865122036607"><ele>308.0</ele><time>2026-04-19T12:21:00.967Z</time></trkpt><trkpt lat="45.69747141113037" lon="8.458634440494613"><ele>308.0</ele><time>2026-04-19T12:21:01.967Z</time></trkpt><trkpt lat="45.6975667131493" lon="8.458630022473141"><ele>308.0</ele><time>2026-04-19T12:21:02.967Z</time></trkpt><trkpt lat="45.69765928033361" lon="8.45863690418188"><ele>308.0</ele><time>2026-04-19T12:21:03.967Z</time></trkpt><trkpt lat="45.697759112377184" lon="8.458644629250575"><ele>308.25</ele><time>2026-04-19T12:21:04.967Z</time></trkpt><trkpt lat="45.69786998742154" lon="8.458662039434456"><ele>308.5</ele><time>2026-04-19T12:21:05.968Z</time></trkpt><trkpt lat="45.6979820034557" lon="8.45867618015226"><ele>308.75</ele><time>2026-04-19T12:21:06.968Z</time></trkpt><trkpt lat="45.69809373924102" lon="8.458671607269402"><ele>309.0</ele><time>2026-04-19T12:21:07.968Z</time></trkpt><trkpt lat="45.69821290462755" lon="8.458658989583633"><ele>309.0</ele><time>2026-04-19T12:21:08.968Z</time></trkpt><trkpt lat="45.698341161118265" lon="8.458630061325781"><ele>309.0</ele><time>2026-04-19T12:21:09.968Z</time></trkpt><trkpt lat="45.698458325957304" lon="8.458606066491853"><ele>309.0</ele><time>2026-04-19T12:21:10.968Z</time></trkpt><trkpt lat="45.69856894895955" lon="8.458583806389985"><ele>309.0</ele><time>2026-04-19T12:21:11.968Z</time></trkpt><trkpt lat="45.698679288912736" lon="8.458547605509866"><ele>309.75</ele><time>2026-04-19T12:21:12.968Z</time></trkpt><trkpt lat="45.69878764866452" lon="8.458493479479646"><ele>310.5</ele><time>2026-04-19T12:21:13.968Z</time></trkpt><trkpt lat="45.69889145270929" lon="8.458434933435887"><ele>311.25</ele><time>2026-04-19T12:21:14.968Z</time></trkpt><trkpt lat="45.69899228689852" lon="8.458373002784047"><ele>312.0</ele><time>2026-04-19T12:21:15.968Z</time></trkpt><trkpt lat="45.69909588346971" lon="8.458293095126352"><ele>312.0</ele><time>2026-04-19T12:21:16.968Z</time></trkpt><trkpt lat="45.69919759978633" lon="8.458203384507293"><ele>312.0</ele><time>2026-04-19T12:21:17.968Z</time></trkpt><trkpt lat="45.69929990539563" lon="8.458110781257881"><ele>312.0</ele><time>2026-04-19T12:21:18.968Z</time></trkpt><trkpt lat="45.699407930096534" lon="8.458015385738674"><ele>312.0</ele><time>2026-04-19T12:21:19.968Z</time></trkpt><trkpt lat="45.699512060714575" lon="8.457923021096665"><ele>312.0</ele><time>2026-04-19T12:21:20.968Z</time></trkpt><trkpt lat="45.699609480272116" lon="8.457840912868342"><ele>312.0</ele><time>2026-04-19T12:21:21.968Z</time></trkpt><trkpt lat="45.69970626393217" lon="8.457765357469436"><ele>312.0</ele><time>2026-04-19T12:21:22.968Z</time></trkpt><trkpt lat="45.699800169994255" lon="8.457683994087178"><ele>312.0</ele><time>2026-04-19T12:21:23.968Z</time></trkpt><trkpt lat="45.69989344088248" lon="8.45760918348213"><ele>312.0</ele><time>2026-04-19T12:21:24.968Z</time></trkpt><trkpt lat="45.699986317840725" lon="8.457532755792553"><ele>312.0</ele><time>2026-04-19T12:21:25.968Z</time></trkpt><trkpt lat="45.70008193953649" lon="8.457451536825191"><ele>312.0</ele><time>2026-04-19T12:21:26.968Z</time></trkpt><trkpt lat="45.7001805346356" lon="8.457366161190427"><ele>312.0</ele><time>2026-04-19T12:21:27.968Z</time></trkpt><trkpt lat="45.700285158659675" lon="8.457279371158611"><ele>312.0</ele><time>2026-04-19T12:21:28.968Z</time></trkpt><trkpt lat="45.70039674447502" lon="8.457194678079114"><ele>312.5</ele><time>2026-04-19T12:21:29.968Z</time></trkpt><trkpt lat="45.70050270452351" lon="8.457105524628242"><ele>313.0</ele><time>2026-04-19T12:21:30.968Z</time></trkpt><trkpt lat="45.70060019121007" lon="8.457013678140706"><ele>313.5</ele><time>2026-04-19T12:21:31.968Z</time></trkpt><trkpt lat="45.700697434268086" lon="8.456933596810382"><ele>314.0</ele><time>2026-04-19T12:21:32.968Z</time></trkpt><trkpt lat="45.70078890156403" lon="8.456858132212915"><ele>314.0</ele><time>2026-04-19T12:21:33.968Z</time></trkpt><trkpt lat="45.70087728270681" lon="8.45679349587559"><ele>314.0</ele><time>2026-04-19T12:21:34.968Z</time></trkpt><trkpt lat="45.700959456389825" lon="8.456724488111371"><ele>314.0</ele><time>2026-04-19T12:21:35.968Z</time></trkpt><trkpt lat="45.701031362890255" lon="8.456657883241991"><ele>314.0</ele><time>2026-04-19T12:21:36.968Z</time></trkpt><trkpt lat="45.70109372419078" lon="8.45659706787222"><ele>314.0</ele><time>2026-04-19T12:21:37.968Z</time></trkpt><trkpt lat="45.70118824505829" lon="8.456512530442554"><ele>313.5</ele><time>2026-04-19T12:21:39.968Z</time></trkpt><trkpt lat="45.701243554260124" lon="8.456469384700723"><ele>313.0</ele><time>2026-04-19T12:21:41.968Z</time></trkpt><trkpt lat="45.70130932761686" lon="8.456404567454255"><ele>312.5</ele><time>2026-04-19T12:21:44.968Z</time></trkpt><trkpt lat="45.70139020637321" lon="8.456320789335235"><ele>312.0</ele><time>2026-04-19T12:21:46.968Z</time></trkpt><trkpt lat="45.7014453144607" lon="8.456260030256379"><ele>311.5</ele><time>2026-04-19T12:21:47.968Z</time></trkpt><trkpt lat="45.701497691379075" lon="8.456198974870953"><ele>311.0</ele><time>2026-04-19T12:21:48.968Z</time></trkpt><trkpt lat="45.70157220425217" lon="8.456148591170754"><ele>311.0</ele><time>2026-04-19T12:21:49.968Z</time></trkpt><trkpt lat="45.70164960777797" lon="8.456073380818609"><ele>311.0</ele><time>2026-04-19T12:21:50.969Z</time></trkpt><trkpt lat="45.701731239762154" lon="8.455997699517022"><ele>311.0</ele><time>2026-04-19T12:21:51.969Z</time></trkpt><trkpt lat="45.701821037258185" lon="8.45591698520727"><ele>311.0</ele><time>2026-04-19T12:21:52.969Z</time></trkpt><trkpt lat="45.701918529986855" lon="8.4558332748339"><ele>311.0</ele><time>2026-04-19T12:21:53.969Z</time></trkpt><trkpt lat="45.70201855939293" lon="8.455747060037009"><ele>311.25</ele><time>2026-04-19T12:21:54.969Z</time></trkpt><trkpt lat="45.70211026696165" lon="8.455658805039366"><ele>311.5</ele><time>2026-04-19T12:21:55.969Z</time></trkpt><trkpt lat="45.7022044797417" lon="8.455558275758616"><ele>311.75</ele><time>2026-04-19T12:21:56.969Z</time></trkpt><trkpt lat="45.702301145697035" lon="8.455463046072278"><ele>312.0</ele><time>2026-04-19T12:21:57.969Z</time></trkpt><trkpt lat="45.70239910656912" lon="8.455366351612282"><ele>312.0</ele><time>2026-04-19T12:21:58.969Z</time></trkpt><trkpt lat="45.70249402405269" lon="8.455255426208218"><ele>312.0</ele><time>2026-04-19T12:21:59.969Z</time></trkpt><trkpt lat="45.70258550803532" lon="8.455136457738327"><ele>312.0</ele><time>2026-04-19T12:22:00.969Z</time></trkpt><trkpt lat="45.7026810944204" lon="8.455033081924409"><ele>312.0</ele><time>2026-04-19T12:22:01.969Z</time></trkpt><trkpt lat="45.70276113295326" lon="8.45491096776469"><ele>312.0</ele><time>2026-04-19T12:22:02.969Z</time></trkpt><trkpt lat="45.70283577271505" lon="8.454773711854092"><ele>312.0</ele><time>2026-04-19T12:22:03.969Z</time></trkpt><trkpt lat="45.7029137012553" lon="8.454630254521184"><ele>312.0</ele><time>2026-04-19T12:22:04.969Z</time></trkpt><trkpt lat="45.70298699043345" lon="8.454481052496748"><ele>312.0</ele><time>2026-04-19T12:22:05.969Z</time></trkpt><trkpt lat="45.703062988321996" lon="8.454330474548183"><ele>312.75</ele><time>2026-04-19T12:22:06.969Z</time></trkpt><trkpt lat="45.70312874077301" lon="8.454185283778344"><ele>313.5</ele><time>2026-04-19T12:22:07.969Z</time></trkpt><trkpt lat="45.70319657195146" lon="8.454029285723678"><ele>314.25</ele><time>2026-04-19T12:22:08.969Z</time></trkpt><trkpt lat="45.70325993409532" lon="8.453888300831217"><ele>315.0</ele><time>2026-04-19T12:22:09.969Z</time></trkpt><trkpt lat="45.70331721530555" lon="8.453762813362328"><ele>315.0</ele><time>2026-04-19T12:22:10.969Z</time></trkpt><trkpt lat="45.70336849139808" lon="8.453655095243201"><ele>315.0</ele><time>2026-04-19T12:22:11.969Z</time></trkpt><trkpt lat="45.70340708484735" lon="8.453565956901915"><ele>315.0</ele><time>2026-04-19T12:22:12.969Z</time></trkpt><trkpt lat="45.70345632566634" lon="8.453462476045818"><ele>315.0</ele><time>2026-04-19T12:22:14.969Z</time></trkpt><trkpt lat="45.70349740131352" lon="8.453339267184882"><ele>315.0</ele><time>2026-04-19T12:22:29.969Z</time></trkpt><trkpt lat="45.7034970528293" lon="8.453180818930349"><ele>315.0</ele><time>2026-04-19T12:22:31.969Z</time></trkpt><trkpt lat="45.70347594392076" lon="8.453076781505551"><ele>315.0</ele><time>2026-04-19T12:22:32.969Z</time></trkpt><trkpt lat="45.70344777869336" lon="8.45296351438524"><ele>315.0</ele><time>2026-04-19T12:22:33.969Z</time></trkpt><trkpt lat="45.70341672891866" lon="8.452839285160177"><ele>315.0</ele><time>2026-04-19T12:22:34.969Z</time></trkpt><trkpt lat="45.70339655032799" lon="8.452704041917155"><ele>315.0</ele><time>2026-04-19T12:22:35.97Z</time></trkpt><trkpt lat="45.703373334757956" lon="8.45255479250633"><ele>315.0</ele><time>2026-04-19T12:22:36.97Z</time></trkpt><trkpt lat="45.70334235543772" lon="8.452404772876436"><ele>315.0</ele><time>2026-04-19T12:22:37.97Z</time></trkpt><trkpt lat="45.70331106020345" lon="8.4522435332359"><ele>315.0</ele><time>2026-04-19T12:22:38.97Z</time></trkpt><trkpt lat="45.70328125506564" lon="8.452073694825794"><ele>315.0</ele><time>2026-04-19T12:22:39.97Z</time></trkpt><trkpt lat="45.703257521945574" lon="8.451892337474595"><ele>315.25</ele><time>2026-04-19T12:22:40.97Z</time></trkpt><trkpt lat="45.703235697738066" lon="8.451705096881632"><ele>315.5</ele><time>2026-04-19T12:22:41.97Z</time></trkpt><trkpt lat="45.703208168645176" lon="8.451516213011818"><ele>315.75</ele><time>2026-04-19T12:22:42.97Z</time></trkpt><trkpt lat="45.70318843612666" lon="8.451328486439154"><ele>316.0</ele><time>2026-04-19T12:22:43.97Z</time></trkpt><trkpt lat="45.703176329855914" lon="8.451146642968645"><ele>316.25</ele><time>2026-04-19T12:22:44.97Z</time></trkpt><trkpt lat="45.70316334113957" lon="8.450962562393299"><ele>316.5</ele><time>2026-04-19T12:22:45.966Z</time></trkpt><trkpt lat="45.70314980389468" lon="8.45077671955889"><ele>316.75</ele><time>2026-04-19T12:22:46.966Z</time></trkpt><trkpt lat="45.703137223731005" lon="8.450588090118503"><ele>317.0</ele><time>2026-04-19T12:22:47.966Z</time></trkpt><trkpt lat="45.70311926686306" lon="8.45040017476046"><ele>317.0</ele><time>2026-04-19T12:22:48.966Z</time></trkpt><trkpt lat="45.703100137765055" lon="8.450207748932906"><ele>317.0</ele><time>2026-04-19T12:22:49.966Z</time></trkpt><trkpt lat="45.70308331620441" lon="8.450015385790909"><ele>317.0</ele><time>2026-04-19T12:22:50.967Z</time></trkpt><trkpt lat="45.703062503574046" lon="8.449817172913198"><ele>317.0</ele><time>2026-04-19T12:22:51.966Z</time></trkpt><trkpt lat="45.70303583140519" lon="8.44961821719098"><ele>317.0</ele><time>2026-04-19T12:22:52.966Z</time></trkpt><trkpt lat="45.70300789447169" lon="8.449418361611738"><ele>317.0</ele><time>2026-04-19T12:22:53.966Z</time></trkpt><trkpt lat="45.702976812445954" lon="8.449218638874767"><ele>317.0</ele><time>2026-04-19T12:22:54.966Z</time></trkpt><trkpt lat="45.70294760920587" lon="8.449015599226948"><ele>317.0</ele><time>2026-04-19T12:22:55.966Z</time></trkpt><trkpt lat="45.70291700672506" lon="8.448817089031028"><ele>316.75</ele><time>2026-04-19T12:22:56.966Z</time></trkpt><trkpt lat="45.70288100924059" lon="8.448627147739728"><ele>316.5</ele><time>2026-04-19T12:22:57.966Z</time></trkpt><trkpt lat="45.70284821735322" lon="8.448452161024989"><ele>316.25</ele><time>2026-04-19T12:22:58.966Z</time></trkpt><trkpt lat="45.7028208860273" lon="8.4482892866309"><ele>316.0</ele><time>2026-04-19T12:22:59.966Z</time></trkpt><trkpt lat="45.70279569328949" lon="8.448139081360152"><ele>316.0</ele><time>2026-04-19T12:23:00.966Z</time></trkpt><trkpt lat="45.702771186050555" lon="8.44799745092453"><ele>316.0</ele><time>2026-04-19T12:23:01.966Z</time></trkpt><trkpt lat="45.702750820981315" lon="8.447867302736121"><ele>316.0</ele><time>2026-04-19T12:23:02.966Z</time></trkpt><trkpt lat="45.70273295796742" lon="8.447747231527538"><ele>316.0</ele><time>2026-04-19T12:23:03.966Z</time></trkpt><trkpt lat="45.70271635307896" lon="8.447633091766244"><ele>316.0</ele><time>2026-04-19T12:23:04.966Z</time></trkpt><trkpt lat="45.70270150578446" lon="8.447526516549411"><ele>316.0</ele><time>2026-04-19T12:23:05.966Z</time></trkpt><trkpt lat="45.70269706164308" lon="8.447429051094788"><ele>316.0</ele><time>2026-04-19T12:23:06.966Z</time></trkpt><trkpt lat="45.70273173171506" lon="8.447273060876016"><ele>316.0</ele><time>2026-04-19T12:23:08.966Z</time></trkpt><trkpt lat="45.70284322758944" lon="8.447176234500699"><ele>316.0</ele><time>2026-04-19T12:23:10.966Z</time></trkpt><trkpt lat="45.70292546014587" lon="8.447134415158626"><ele>316.0</ele><time>2026-04-19T12:23:11.966Z</time></trkpt><trkpt lat="45.703029567773584" lon="8.4471009319797"><ele>316.0</ele><time>2026-04-19T12:23:12.966Z</time></trkpt><trkpt lat="45.70313941715518" lon="8.447052221246837"><ele>316.0</ele><time>2026-04-19T12:23:13.966Z</time></trkpt><trkpt lat="45.70324289000778" lon="8.447008590797648"><ele>316.0</ele><time>2026-04-19T12:23:14.966Z</time></trkpt><trkpt lat="45.70335126005949" lon="8.446961734251946"><ele>316.0</ele><time>2026-04-19T12:23:15.966Z</time></trkpt><trkpt lat="45.70346863909902" lon="8.446909450963382"><ele>316.0</ele><time>2026-04-19T12:23:16.966Z</time></trkpt><trkpt lat="45.70359239785334" lon="8.446859210883357"><ele>317.0</ele><time>2026-04-19T12:23:17.966Z</time></trkpt><trkpt lat="45.70370666698493" lon="8.446811905031648"><ele>318.0</ele><time>2026-04-19T12:23:18.966Z</time></trkpt><trkpt lat="45.7038289345285" lon="8.446761737677475"><ele>319.0</ele><time>2026-04-19T12:23:19.966Z</time></trkpt><trkpt lat="45.70395559511789" lon="8.44670692402584"><ele>320.0</ele><time>2026-04-19T12:23:20.966Z</time></trkpt><trkpt lat="45.70408569567765" lon="8.446655079860294"><ele>320.0</ele><time>2026-04-19T12:23:21.966Z</time></trkpt><trkpt lat="45.70421841142408" lon="8.446614508502577"><ele>320.0</ele><time>2026-04-19T12:23:22.966Z</time></trkpt><trkpt lat="45.7043618812729" lon="8.446587211221601"><ele>320.0</ele><time>2026-04-19T12:23:23.966Z</time></trkpt><trkpt lat="45.7045044411597" lon="8.446568656967772"><ele>320.0</ele><time>2026-04-19T12:23:24.966Z</time></trkpt><trkpt lat="45.70465181511033" lon="8.446546641172734"><ele>320.6666666666667</ele><time>2026-04-19T12:23:25.967Z</time></trkpt><trkpt lat="45.704799859079216" lon="8.446530739126423"><ele>321.3333333333333</ele><time>2026-04-19T12:23:26.967Z</time></trkpt><trkpt lat="45.704948728262906" lon="8.446510993618276"><ele>322.0</ele><time>2026-04-19T12:23:27.967Z</time></trkpt><trkpt lat="45.70510179633702" lon="8.446487408095525"><ele>321.66666666666663</ele><time>2026-04-19T12:23:28.967Z</time></trkpt><trkpt lat="45.70525689282946" lon="8.446468508737727"><ele>321.3333333333333</ele><time>2026-04-19T12:23:29.967Z</time></trkpt><trkpt lat="45.70541157505412" lon="8.446448200078198"><ele>321.0</ele><time>2026-04-19T12:23:30.967Z</time></trkpt><trkpt lat="45.70556692813347" lon="8.446427835782078"><ele>321.0</ele><time>2026-04-19T12:23:31.967Z</time></trkpt><trkpt lat="45.70571248702849" lon="8.446405923026493"><ele>321.0</ele><time>2026-04-19T12:23:32.967Z</time></trkpt><trkpt lat="45.70584796791199" lon="8.446387234599406"><ele>321.0</ele><time>2026-04-19T12:23:33.967Z</time></trkpt><trkpt lat="45.70597182016942" lon="8.446366921218514"><ele>321.0</ele><time>2026-04-19T12:23:34.967Z</time></trkpt><trkpt lat="45.70608841177763" lon="8.446343070780935"><ele>320.40000000000003</ele><time>2026-04-19T12:23:35.967Z</time></trkpt><trkpt lat="45.70619672502094" lon="8.446325045779725"><ele>319.8</ele><time>2026-04-19T12:23:36.967Z</time></trkpt><trkpt lat="45.70629737472008" lon="8.446332336107444"><ele>319.20000000000005</ele><time>2026-04-19T12:23:37.967Z</time></trkpt><trkpt lat="45.70638442597749" lon="8.446348064594702"><ele>318.6</ele><time>2026-04-19T12:23:38.967Z</time></trkpt><trkpt lat="45.70646150763066" lon="8.446364202447297"><ele>318.0</ele><time>2026-04-19T12:23:39.967Z</time></trkpt><trkpt lat="45.70656681803841" lon="8.446309986363238"><ele>320.2</ele><time>2026-04-19T12:23:41.967Z</time></trkpt><trkpt lat="45.70661149544531" lon="8.44614843898195"><ele>322.4</ele><time>2026-04-19T12:23:43.967Z</time></trkpt><trkpt lat="45.70664222832582" lon="8.446046865111741"><ele>324.59999999999997</ele><time>2026-04-19T12:23:44.967Z</time></trkpt><trkpt lat="45.706702667882475" lon="8.445960884844956"><ele>326.8</ele><time>2026-04-19T12:23:45.967Z</time></trkpt><trkpt lat="45.706789420480995" lon="8.445896390007368"><ele>329.0</ele><time>2026-04-19T12:23:46.967Z</time></trkpt><trkpt lat="45.706890215863375" lon="8.445820403209247"><ele>330.0</ele><time>2026-04-19T12:23:47.967Z</time></trkpt><trkpt lat="45.70699669901065" lon="8.445716424717846"><ele>331.0</ele><time>2026-04-19T12:23:48.967Z</time></trkpt><trkpt lat="45.70710516819447" lon="8.445598031943005"><ele>332.0</ele><time>2026-04-19T12:23:49.967Z</time></trkpt><trkpt lat="45.7072171155335" lon="8.445471177856533"><ele>333.0</ele><time>2026-04-19T12:23:50.967Z</time></trkpt><trkpt lat="45.70732315837348" lon="8.445342370991746"><ele>333.0</ele><time>2026-04-19T12:23:51.967Z</time></trkpt><trkpt lat="45.70743272659252" lon="8.445202444055244"><ele>333.0</ele><time>2026-04-19T12:23:52.967Z</time></trkpt><trkpt lat="45.70755230108328" lon="8.44505990559331"><ele>333.0</ele><time>2026-04-19T12:23:53.967Z</time></trkpt><trkpt lat="45.707675722868736" lon="8.444916200452699"><ele>334.6666666666667</ele><time>2026-04-19T12:23:54.967Z</time></trkpt><trkpt lat="45.707798268667645" lon="8.444767889191162"><ele>336.33333333333337</ele><time>2026-04-19T12:23:55.967Z</time></trkpt><trkpt lat="45.707911283219815" lon="8.444626379992638"><ele>338.0</ele><time>2026-04-19T12:23:56.967Z</time></trkpt><trkpt lat="45.70802958092853" lon="8.444478166842272"><ele>338.0</ele><time>2026-04-19T12:23:57.967Z</time></trkpt><trkpt lat="45.708151566169924" lon="8.444336547380116"><ele>338.0</ele><time>2026-04-19T12:23:58.967Z</time></trkpt><trkpt lat="45.70827331595215" lon="8.444195810727635"><ele>338.0</ele><time>2026-04-19T12:23:59.967Z</time></trkpt><trkpt lat="45.708396735022596" lon="8.444051190802545"><ele>338.0</ele><time>2026-04-19T12:24:00.967Z</time></trkpt><trkpt lat="45.70852035072764" lon="8.443900297496908"><ele>338.0</ele><time>2026-04-19T12:24:01.967Z</time></trkpt><trkpt lat="45.708642715782055" lon="8.443750798104315"><ele>338.0</ele><time>2026-04-19T12:24:02.967Z</time></trkpt><trkpt lat="45.70876689933534" lon="8.44360223718386"><ele>340.6666666666667</ele><time>2026-04-19T12:24:03.967Z</time></trkpt><trkpt lat="45.7088950897099" lon="8.44344959360827"><ele>343.3333333333333</ele><time>2026-04-19T12:24:04.967Z</time></trkpt><trkpt lat="45.70902073997066" lon="8.443299732702496"><ele>346.0</ele><time>2026-04-19T12:24:05.967Z</time></trkpt><trkpt lat="45.7091430025704" lon="8.443155938188527"><ele>346.0</ele><time>2026-04-19T12:24:06.967Z</time></trkpt><trkpt lat="45.70926696116665" lon="8.443013240384767"><ele>346.0</ele><time>2026-04-19T12:24:07.967Z</time></trkpt><trkpt lat="45.709392937267644" lon="8.442871549489409"><ele>346.0</ele><time>2026-04-19T12:24:08.967Z</time></trkpt><trkpt lat="45.70951946278487" lon="8.442725982515919"><ele>347.0</ele><time>2026-04-19T12:24:09.967Z</time></trkpt><trkpt lat="45.70964477884199" lon="8.442570738318569"><ele>348.0</ele><time>2026-04-19T12:24:10.968Z</time></trkpt><trkpt lat="45.709773118122975" lon="8.442411699753743"><ele>349.0</ele><time>2026-04-19T12:24:11.968Z</time></trkpt><trkpt lat="45.70989807838814" lon="8.442248914629984"><ele>350.66666666666663</ele><time>2026-04-19T12:24:12.968Z</time></trkpt><trkpt lat="45.710031271972035" lon="8.442099716686785"><ele>352.3333333333333</ele><time>2026-04-19T12:24:13.968Z</time></trkpt><trkpt lat="45.710165481707925" lon="8.441955112244823"><ele>354.0</ele><time>2026-04-19T12:24:14.968Z</time></trkpt><trkpt lat="45.710301941780386" lon="8.441820003567049"><ele>354.0</ele><time>2026-04-19T12:24:15.968Z</time></trkpt><trkpt lat="45.7104421365285" lon="8.441683475931754"><ele>354.0</ele><time>2026-04-19T12:24:16.968Z</time></trkpt><trkpt lat="45.710577518087135" lon="8.441542295103414"><ele>354.0</ele><time>2026-04-19T12:24:17.968Z</time></trkpt><trkpt lat="45.71071465746489" lon="8.441401132748917"><ele>354.0</ele><time>2026-04-19T12:24:18.968Z</time></trkpt><trkpt lat="45.71085210841208" lon="8.44125914591819"><ele>354.0</ele><time>2026-04-19T12:24:19.968Z</time></trkpt><trkpt lat="45.71098385867805" lon="8.441114536543864"><ele>354.0</ele><time>2026-04-19T12:24:20.968Z</time></trkpt><trkpt lat="45.71111711958293" lon="8.4409638347996"><ele>354.0</ele><time>2026-04-19T12:24:21.968Z</time></trkpt><trkpt lat="45.711249415305716" lon="8.440819654430491"><ele>354.0</ele><time>2026-04-19T12:24:22.968Z</time></trkpt><trkpt lat="45.711377915228695" lon="8.440669701161463"><ele>354.0</ele><time>2026-04-19T12:24:23.968Z</time></trkpt><trkpt lat="45.711486617784004" lon="8.440512279211903"><ele>357.25</ele><time>2026-04-19T12:24:24.968Z</time></trkpt><trkpt lat="45.7115841061767" lon="8.440355464767164"><ele>360.5</ele><time>2026-04-19T12:24:25.968Z</time></trkpt><trkpt lat="45.71167662641755" lon="8.44019194870108"><ele>363.75</ele><time>2026-04-19T12:24:26.968Z</time></trkpt><trkpt lat="45.71175879322292" lon="8.440029753438704"><ele>367.0</ele><time>2026-04-19T12:24:27.968Z</time></trkpt><trkpt lat="45.71184603930559" lon="8.439869425992256"><ele>369.25</ele><time>2026-04-19T12:24:28.968Z</time></trkpt><trkpt lat="45.71193749928158" lon="8.439713103360088"><ele>371.5</ele><time>2026-04-19T12:24:29.968Z</time></trkpt><trkpt lat="45.71204104361935" lon="8.439568516572722"><ele>373.75</ele><time>2026-04-19T12:24:30.968Z</time></trkpt><trkpt lat="45.71215254177481" lon="8.439445965808096"><ele>376.0</ele><time>2026-04-19T12:24:31.968Z</time></trkpt><trkpt lat="45.71227453129447" lon="8.439342421449556"><ele>376.0</ele><time>2026-04-19T12:24:32.968Z</time></trkpt><trkpt lat="45.7124052168183" lon="8.439245152660522"><ele>376.0</ele><time>2026-04-19T12:24:33.968Z</time></trkpt><trkpt lat="45.7125477337852" lon="8.439158458799575"><ele>376.0</ele><time>2026-04-19T12:24:34.968Z</time></trkpt><trkpt lat="45.712689419134364" lon="8.43906439486136"><ele>377.66666666666663</ele><time>2026-04-19T12:24:35.968Z</time></trkpt><trkpt lat="45.71282674416467" lon="8.43896853319473"><ele>379.3333333333333</ele><time>2026-04-19T12:24:36.968Z</time></trkpt><trkpt lat="45.71295957895457" lon="8.438852970051231"><ele>381.0</ele><time>2026-04-19T12:24:37.968Z</time></trkpt><trkpt lat="45.71308436050067" lon="8.43872908482729"><ele>381.0</ele><time>2026-04-19T12:24:38.968Z</time></trkpt><trkpt lat="45.71320244426498" lon="8.438591240582763"><ele>381.0</ele><time>2026-04-19T12:24:39.968Z</time></trkpt><trkpt lat="45.71332225915145" lon="8.438447938295864"><ele>381.0</ele><time>2026-04-19T12:24:40.968Z</time></trkpt><trkpt lat="45.71344141996099" lon="8.438309367370442"><ele>381.0</ele><time>2026-04-19T12:24:41.968Z</time></trkpt><trkpt lat="45.713558237135146" lon="8.438179689173426"><ele>381.0</ele><time>2026-04-19T12:24:42.968Z</time></trkpt><trkpt lat="45.713666417643005" lon="8.43805153469641"><ele>381.0</ele><time>2026-04-19T12:24:43.968Z</time></trkpt><trkpt lat="45.71377224388054" lon="8.43792564103907"><ele>381.0</ele><time>2026-04-19T12:24:44.968Z</time></trkpt><trkpt lat="45.71387856843072" lon="8.437810127415414"><ele>381.0</ele><time>2026-04-19T12:24:45.968Z</time></trkpt><trkpt lat="45.7139964079844" lon="8.437711260747069"><ele>381.0</ele><time>2026-04-19T12:24:46.968Z</time></trkpt><trkpt lat="45.71412460686924" lon="8.437620191500857"><ele>381.0</ele><time>2026-04-19T12:24:47.968Z</time></trkpt><trkpt lat="45.71426098184946" lon="8.437533476135354"><ele>381.0</ele><time>2026-04-19T12:24:48.968Z</time></trkpt><trkpt lat="45.7144051845684" lon="8.437438826889585"><ele>379.3333333333333</ele><time>2026-04-19T12:24:49.968Z</time></trkpt><trkpt lat="45.71455209883995" lon="8.437343384652989"><ele>377.66666666666663</ele><time>2026-04-19T12:24:50.968Z</time></trkpt><trkpt lat="45.71469842812437" lon="8.437245538826732"><ele>376.0</ele><time>2026-04-19T12:24:51.964Z</time></trkpt><trkpt lat="45.71484911685813" lon="8.437148070930885"><ele>376.66666666666663</ele><time>2026-04-19T12:24:52.965Z</time></trkpt><trkpt lat="45.71499792041652" lon="8.437049927677801"><ele>377.3333333333333</ele><time>2026-04-19T12:24:53.965Z</time></trkpt><trkpt lat="45.7151486106231" lon="8.436953206788681"><ele>378.0</ele><time>2026-04-19T12:24:54.964Z</time></trkpt><trkpt lat="45.715300051968455" lon="8.436856689121207"><ele>378.0</ele><time>2026-04-19T12:24:55.965Z</time></trkpt><trkpt lat="45.71545234294065" lon="8.436762394969584"><ele>378.0</ele><time>2026-04-19T12:24:56.965Z</time></trkpt><trkpt lat="45.71560650707716" lon="8.43667234079662"><ele>378.0</ele><time>2026-04-19T12:24:57.964Z</time></trkpt><trkpt lat="45.71576141713857" lon="8.436585613672648"><ele>378.0</ele><time>2026-04-19T12:24:58.964Z</time></trkpt><trkpt lat="45.71591429649692" lon="8.43649893697482"><ele>378.0</ele><time>2026-04-19T12:24:59.964Z</time></trkpt><trkpt lat="45.71606295074528" lon="8.436406233642884"><ele>378.0</ele><time>2026-04-19T12:25:00.964Z</time></trkpt><trkpt lat="45.71620478582491" lon="8.43630057311677"><ele>378.3333333333333</ele><time>2026-04-19T12:25:01.965Z</time></trkpt><trkpt lat="45.71634037752008" lon="8.436169991222025"><ele>378.66666666666663</ele><time>2026-04-19T12:25:02.965Z</time></trkpt><trkpt lat="45.71646949992771" lon="8.436023208015628"><ele>379.0</ele><time>2026-04-19T12:25:03.964Z</time></trkpt><trkpt lat="45.7165919033017" lon="8.435877941617202"><ele>379.0</ele><time>2026-04-19T12:25:04.965Z</time></trkpt><trkpt lat="45.71670902334889" lon="8.43573836510969"><ele>379.0</ele><time>2026-04-19T12:25:05.965Z</time></trkpt><trkpt lat="45.71682140845271" lon="8.435612806075163"><ele>379.0</ele><time>2026-04-19T12:25:06.965Z</time></trkpt><trkpt lat="45.71693905632348" lon="8.435512687590528"><ele>379.0</ele><time>2026-04-19T12:25:07.965Z</time></trkpt><trkpt lat="45.717060214933284" lon="8.435436124343353"><ele>379.79999999999995</ele><time>2026-04-19T12:25:08.965Z</time></trkpt><trkpt lat="45.71717463905847" lon="8.435370157393715"><ele>380.59999999999997</ele><time>2026-04-19T12:25:09.965Z</time></trkpt><trkpt lat="45.71727674127723" lon="8.435297972522308"><ele>381.4</ele><time>2026-04-19T12:25:10.965Z</time></trkpt><trkpt lat="45.717346757515976" lon="8.43518617714805"><ele>382.2</ele><time>2026-04-19T12:25:11.965Z</time></trkpt><trkpt lat="45.71738395301945" lon="8.43504325234719"><ele>383.0</ele><time>2026-04-19T12:25:12.965Z</time></trkpt><trkpt lat="45.71737274849193" lon="8.434869345571991"><ele>383.0</ele><time>2026-04-19T12:25:13.965Z</time></trkpt><trkpt lat="45.717343555473335" lon="8.4346939906193"><ele>383.0</ele><time>2026-04-19T12:25:14.965Z</time></trkpt><trkpt lat="45.71730479877451" lon="8.434512304637767"><ele>383.0</ele><time>2026-04-19T12:25:15.965Z</time></trkpt><trkpt lat="45.7172637208202" lon="8.43432883919318"><ele>383.0</ele><time>2026-04-19T12:25:16.965Z</time></trkpt><trkpt lat="45.717225357793666" lon="8.434137253334615"><ele>383.25</ele><time>2026-04-19T12:25:17.965Z</time></trkpt><trkpt lat="45.71718681248608" lon="8.433938635349234"><ele>383.5</ele><time>2026-04-19T12:25:18.965Z</time></trkpt><trkpt lat="45.717147930528256" lon="8.433735572041764"><ele>383.75</ele><time>2026-04-19T12:25:19.965Z</time></trkpt><trkpt lat="45.71710459984497" lon="8.433531975482861"><ele>384.0</ele><time>2026-04-19T12:25:20.965Z</time></trkpt><trkpt lat="45.717056870771856" lon="8.433335854555368"><ele>384.0</ele><time>2026-04-19T12:25:21.965Z</time></trkpt><trkpt lat="45.71700951408114" lon="8.433149311855583"><ele>384.0</ele><time>2026-04-19T12:25:22.965Z</time></trkpt><trkpt lat="45.71696381625985" lon="8.432974811803858"><ele>384.0</ele><time>2026-04-19T12:25:23.965Z</time></trkpt><trkpt lat="45.71692197062124" lon="8.432807985849346"><ele>384.0</ele><time>2026-04-19T12:25:24.965Z</time></trkpt><trkpt lat="45.71688250096666" lon="8.432650279391119"><ele>383.6</ele><time>2026-04-19T12:25:25.965Z</time></trkpt><trkpt lat="45.716858586469534" lon="8.432497598900783"><ele>383.2</ele><time>2026-04-19T12:25:26.965Z</time></trkpt><trkpt lat="45.71686398225362" lon="8.432346867113758"><ele>382.8</ele><time>2026-04-19T12:25:27.965Z</time></trkpt><trkpt lat="45.71690212093833" lon="8.432211316004473"><ele>382.40000000000003</ele><time>2026-04-19T12:25:28.965Z</time></trkpt><trkpt lat="45.71697251630072" lon="8.432099722761452"><ele>382.0</ele><time>2026-04-19T12:25:29.965Z</time></trkpt><trkpt lat="45.71706988956302" lon="8.432016973421943"><ele>381.75</ele><time>2026-04-19T12:25:30.965Z</time></trkpt><trkpt lat="45.717186740568394" lon="8.431973679862617"><ele>381.5</ele><time>2026-04-19T12:25:31.965Z</time></trkpt><trkpt lat="45.717310446219955" lon="8.431931540394842"><ele>381.25</ele><time>2026-04-19T12:25:32.965Z</time></trkpt><trkpt lat="45.71744055386589" lon="8.431878400104491"><ele>381.0</ele><time>2026-04-19T12:25:33.965Z</time></trkpt><trkpt lat="45.71757718846062" lon="8.431816271660265"><ele>381.0</ele><time>2026-04-19T12:25:34.965Z</time></trkpt><trkpt lat="45.717715749390564" lon="8.431748175599521"><ele>381.0</ele><time>2026-04-19T12:25:35.965Z</time></trkpt><trkpt lat="45.71785683979258" lon="8.431682098537532"><ele>381.0</ele><time>2026-04-19T12:25:36.965Z</time></trkpt><trkpt lat="45.71799271845921" lon="8.431643293600015"><ele>381.0</ele><time>2026-04-19T12:25:37.965Z</time></trkpt><trkpt lat="45.71812697732402" lon="8.431610687519877"><ele>381.0</ele><time>2026-04-19T12:25:38.965Z</time></trkpt><trkpt lat="45.71825661612587" lon="8.431563325578775"><ele>381.0</ele><time>2026-04-19T12:25:39.965Z</time></trkpt><trkpt lat="45.71838282841684" lon="8.431480275844189"><ele>381.0</ele><time>2026-04-19T12:25:40.965Z</time></trkpt><trkpt lat="45.718501118132764" lon="8.431367060624172"><ele>381.0</ele><time>2026-04-19T12:25:41.965Z</time></trkpt><trkpt lat="45.718612924512556" lon="8.431250119631864"><ele>380.5</ele><time>2026-04-19T12:25:42.965Z</time></trkpt><trkpt lat="45.71871408951662" lon="8.431133582944883"><ele>380.0</ele><time>2026-04-19T12:25:43.966Z</time></trkpt><trkpt lat="45.718810387407096" lon="8.431024915106287"><ele>379.5</ele><time>2026-04-19T12:25:44.966Z</time></trkpt><trkpt lat="45.718899886770856" lon="8.430914192346766"><ele>379.0</ele><time>2026-04-19T12:25:45.966Z</time></trkpt><trkpt lat="45.718976909834765" lon="8.430798684165953"><ele>379.0</ele><time>2026-04-19T12:25:46.966Z</time></trkpt><trkpt lat="45.719045881670084" lon="8.430686153298819"><ele>379.0</ele><time>2026-04-19T12:25:47.966Z</time></trkpt><trkpt lat="45.719120387104326" lon="8.43060168810145"><ele>379.0</ele><time>2026-04-19T12:25:48.966Z</time></trkpt><trkpt lat="45.71919763486939" lon="8.430533087028072"><ele>379.0</ele><time>2026-04-19T12:25:49.966Z</time></trkpt><trkpt lat="45.71928768652686" lon="8.430482956007838"><ele>379.0</ele><time>2026-04-19T12:25:50.966Z</time></trkpt><trkpt lat="45.719371675368805" lon="8.430445616951387"><ele>379.4</ele><time>2026-04-19T12:25:51.966Z</time></trkpt><trkpt lat="45.71946226227639" lon="8.430408167889667"><ele>379.79999999999995</ele><time>2026-04-19T12:25:52.966Z</time></trkpt><trkpt lat="45.719562317193386" lon="8.430358114026282"><ele>380.20000000000005</ele><time>2026-04-19T12:25:53.966Z</time></trkpt><trkpt lat="45.7196584182185" lon="8.430304664846625"><ele>380.6</ele><time>2026-04-19T12:25:54.966Z</time></trkpt><trkpt lat="45.71974963800324" lon="8.430232047268658"><ele>381.0</ele><time>2026-04-19T12:25:55.966Z</time></trkpt><trkpt lat="45.719841058186894" lon="8.43016694421385"><ele>381.0</ele><time>2026-04-19T12:25:56.966Z</time></trkpt><trkpt lat="45.71991517836293" lon="8.430110534923172"><ele>381.0</ele><time>2026-04-19T12:25:57.966Z</time></trkpt><trkpt lat="45.719980424811794" lon="8.430041075917778"><ele>381.0</ele><time>2026-04-19T12:25:58.966Z</time></trkpt><trkpt lat="45.72004030952742" lon="8.42995166831947"><ele>381.0</ele><time>2026-04-19T12:25:59.966Z</time></trkpt><trkpt lat="45.720101936832314" lon="8.42985657155089"><ele>381.0</ele><time>2026-04-19T12:26:00.966Z</time></trkpt><trkpt lat="45.72017416607248" lon="8.429761030267455"><ele>381.0</ele><time>2026-04-19T12:26:01.966Z</time></trkpt><trkpt lat="45.72024276622596" lon="8.429668945192939"><ele>381.6</ele><time>2026-04-19T12:26:02.966Z</time></trkpt><trkpt lat="45.72030064722752" lon="8.429570104485194"><ele>382.20000000000005</ele><time>2026-04-19T12:26:03.966Z</time></trkpt><trkpt lat="45.720350623397856" lon="8.429490416075401"><ele>382.79999999999995</ele><time>2026-04-19T12:26:04.966Z</time></trkpt><trkpt lat="45.720424997179556" lon="8.429433161289111"><ele>383.4</ele><time>2026-04-19T12:26:05.966Z</time></trkpt><trkpt lat="45.72052254473514" lon="8.429397026439297"><ele>384.0</ele><time>2026-04-19T12:26:06.966Z</time></trkpt><trkpt lat="45.72062775567723" lon="8.429355801931923"><ele>384.0</ele><time>2026-04-19T12:26:07.966Z</time></trkpt><trkpt lat="45.72073498371139" lon="8.429302667394664"><ele>384.0</ele><time>2026-04-19T12:26:08.966Z</time></trkpt><trkpt lat="45.72083415104733" lon="8.429251471307715"><ele>384.0</ele><time>2026-04-19T12:26:09.966Z</time></trkpt><trkpt lat="45.72094632586888" lon="8.429197936067899"><ele>384.0</ele><time>2026-04-19T12:26:10.966Z</time></trkpt><trkpt lat="45.721063202102904" lon="8.429135958908972"><ele>385.0</ele><time>2026-04-19T12:26:11.966Z</time></trkpt><trkpt lat="45.721186882710896" lon="8.429074224619017"><ele>386.0</ele><time>2026-04-19T12:26:12.966Z</time></trkpt><trkpt lat="45.721311741433894" lon="8.42901356209437"><ele>387.0</ele><time>2026-04-19T12:26:13.966Z</time></trkpt><trkpt lat="45.72143373610935" lon="8.428945324338596"><ele>388.0</ele><time>2026-04-19T12:26:14.966Z</time></trkpt><trkpt lat="45.72155424582919" lon="8.428879582886037"><ele>388.0</ele><time>2026-04-19T12:26:15.966Z</time></trkpt><trkpt lat="45.721674205654494" lon="8.42882412223902"><ele>388.0</ele><time>2026-04-19T12:26:16.966Z</time></trkpt><trkpt lat="45.72179302157865" lon="8.428775103040344"><ele>388.0</ele><time>2026-04-19T12:26:17.966Z</time></trkpt><trkpt lat="45.72190343514374" lon="8.428726303964995"><ele>388.0</ele><time>2026-04-19T12:26:18.966Z</time></trkpt><trkpt lat="45.72200458024446" lon="8.428675163828434"><ele>387.79999999999995</ele><time>2026-04-19T12:26:19.966Z</time></trkpt><trkpt lat="45.722090725847416" lon="8.428620126634657"><ele>387.6</ele><time>2026-04-19T12:26:20.966Z</time></trkpt><trkpt lat="45.72217451311225" lon="8.42854326941267"><ele>387.4</ele><time>2026-04-19T12:26:21.966Z</time></trkpt><trkpt lat="45.7222589322934" lon="8.428438378766598"><ele>387.20000000000005</ele><time>2026-04-19T12:26:22.966Z</time></trkpt><trkpt lat="45.72234428363577" lon="8.428317105348425"><ele>387.0</ele><time>2026-04-19T12:26:23.966Z</time></trkpt><trkpt lat="45.722429190458335" lon="8.428188241805994"><ele>387.0</ele><time>2026-04-19T12:26:24.966Z</time></trkpt><trkpt lat="45.72251756930689" lon="8.428060029175551"><ele>387.0</ele><time>2026-04-19T12:26:25.966Z</time></trkpt><trkpt lat="45.722605015591725" lon="8.427933434939312"><ele>387.0</ele><time>2026-04-19T12:26:26.966Z</time></trkpt><trkpt lat="45.72268898277034" lon="8.427803406959475"><ele>387.0</ele><time>2026-04-19T12:26:27.966Z</time></trkpt><trkpt lat="45.722772921652535" lon="8.427671734080537"><ele>386.5</ele><time>2026-04-19T12:26:28.967Z</time></trkpt><trkpt lat="45.72286228469458" lon="8.42754458968505"><ele>386.0</ele><time>2026-04-19T12:26:29.967Z</time></trkpt><trkpt lat="45.72294976174993" lon="8.427420701506644"><ele>385.5</ele><time>2026-04-19T12:26:30.967Z</time></trkpt><trkpt lat="45.72304391734849" lon="8.427303069943553"><ele>385.0</ele><time>2026-04-19T12:26:31.967Z</time></trkpt><trkpt lat="45.72315351251551" lon="8.427207163362148"><ele>385.25</ele><time>2026-04-19T12:26:32.967Z</time></trkpt><trkpt lat="45.72326153797637" lon="8.427113683605654"><ele>385.5</ele><time>2026-04-19T12:26:33.967Z</time></trkpt><trkpt lat="45.723364786556424" lon="8.427022517144856"><ele>385.75</ele><time>2026-04-19T12:26:34.967Z</time></trkpt><trkpt lat="45.72346819798134" lon="8.426936873066543"><ele>386.0</ele><time>2026-04-19T12:26:35.967Z</time></trkpt><trkpt lat="45.72355878809617" lon="8.426859026993275"><ele>386.0</ele><time>2026-04-19T12:26:36.967Z</time></trkpt><trkpt lat="45.72363632420689" lon="8.42679353379742"><ele>386.0</ele><time>2026-04-19T12:26:37.967Z</time></trkpt><trkpt lat="45.723704555104376" lon="8.426747952633834"><ele>386.0</ele><time>2026-04-19T12:26:38.967Z</time></trkpt><trkpt lat="45.72379658275398" lon="8.42675699484658"><ele>386.0</ele><time>2026-04-19T12:26:40.967Z</time></trkpt><trkpt lat="45.723866084120345" lon="8.426895020618563"><ele>386.0</ele><time>2026-04-19T12:26:42.967Z</time></trkpt><trkpt lat="45.72391575020042" lon="8.427002275243108"><ele>386.0</ele><time>2026-04-19T12:26:43.967Z</time></trkpt><trkpt lat="45.72398411768489" lon="8.427116996032591"><ele>386.0</ele><time>2026-04-19T12:26:44.967Z</time></trkpt><trkpt lat="45.72405550637702" lon="8.427235367866297"><ele>386.0</ele><time>2026-04-19T12:26:45.967Z</time></trkpt><trkpt lat="45.72412301373227" lon="8.42734650788764"><ele>386.0</ele><time>2026-04-19T12:26:46.967Z</time></trkpt><trkpt lat="45.72419708066791" lon="8.427467185513267"><ele>386.0</ele><time>2026-04-19T12:26:47.967Z</time></trkpt><trkpt lat="45.724271690655854" lon="8.427600328410838"><ele>386.5</ele><time>2026-04-19T12:26:48.967Z</time></trkpt><trkpt lat="45.7243492481825" lon="8.42773928849548"><ele>387.0</ele><time>2026-04-19T12:26:49.967Z</time></trkpt><trkpt lat="45.72443108007647" lon="8.427876033696094"><ele>387.5</ele><time>2026-04-19T12:26:50.967Z</time></trkpt><trkpt lat="45.724517457247266" lon="8.428006045902505"><ele>388.0</ele><time>2026-04-19T12:26:51.967Z</time></trkpt><trkpt lat="45.72460933832997" lon="8.428121837535365"><ele>389.25</ele><time>2026-04-19T12:26:52.967Z</time></trkpt><trkpt lat="45.72470263699617" lon="8.42822669076026"><ele>390.5</ele><time>2026-04-19T12:26:53.967Z</time></trkpt><trkpt lat="45.724803159976425" lon="8.428312795173433"><ele>391.75</ele><time>2026-04-19T12:26:54.967Z</time></trkpt><trkpt lat="45.72490159051842" lon="8.428401360604257"><ele>393.0</ele><time>2026-04-19T12:26:55.967Z</time></trkpt><trkpt lat="45.72500272186704" lon="8.428487160851866"><ele>393.0</ele><time>2026-04-19T12:26:56.967Z</time></trkpt><trkpt lat="45.72508550326234" lon="8.428584092288256"><ele>393.0</ele><time>2026-04-19T12:26:57.964Z</time></trkpt><trkpt lat="45.72514877973808" lon="8.428716219809454"><ele>393.0</ele><time>2026-04-19T12:26:58.964Z</time></trkpt><trkpt lat="45.72520241184452" lon="8.428869328167664"><ele>393.0</ele><time>2026-04-19T12:26:59.964Z</time></trkpt><trkpt lat="45.725265759271984" lon="8.429026995117427"><ele>393.2</ele><time>2026-04-19T12:27:00.964Z</time></trkpt><trkpt lat="45.72532388776372" lon="8.429174363020728"><ele>393.4</ele><time>2026-04-19T12:27:01.963Z</time></trkpt><trkpt lat="45.725377534875065" lon="8.429315796236219"><ele>393.59999999999997</ele><time>2026-04-19T12:27:02.963Z</time></trkpt><trkpt lat="45.725429764998246" lon="8.42944509429757"><ele>393.79999999999995</ele><time>2026-04-19T12:27:03.964Z</time></trkpt><trkpt lat="45.725489680691425" lon="8.429565624585251"><ele>394.0</ele><time>2026-04-19T12:27:04.963Z</time></trkpt><trkpt lat="45.725568034293076" lon="8.429678586702044"><ele>394.0</ele><time>2026-04-19T12:27:05.963Z</time></trkpt><trkpt lat="45.725668964295245" lon="8.429776416033858"><ele>394.0</ele><time>2026-04-19T12:27:06.964Z</time></trkpt><trkpt lat="45.72577849918616" lon="8.429849112217637"><ele>394.0</ele><time>2026-04-19T12:27:07.963Z</time></trkpt><trkpt lat="45.72588237923439" lon="8.429912496337238"><ele>394.0</ele><time>2026-04-19T12:27:08.963Z</time></trkpt><trkpt lat="45.72598269925412" lon="8.429990488883552"><ele>394.33333333333337</ele><time>2026-04-19T12:27:09.964Z</time></trkpt><trkpt lat="45.72607035390322" lon="8.430102634260166"><ele>394.6666666666667</ele><time>2026-04-19T12:27:10.964Z</time></trkpt><trkpt lat="45.726128205485466" lon="8.43021792187445"><ele>395.0</ele><time>2026-04-19T12:27:11.964Z</time></trkpt><trkpt lat="45.72616602156472" lon="8.430299841938833"><ele>395.33333333333337</ele><time>2026-04-19T12:27:12.964Z</time></trkpt><trkpt lat="45.726213438286464" lon="8.430370508515661"><ele>395.6666666666667</ele><time>2026-04-19T12:27:14.964Z</time></trkpt><trkpt lat="45.726293004783734" lon="8.430414355894808"><ele>396.0</ele><time>2026-04-19T12:27:18.964Z</time></trkpt><trkpt lat="45.72640614243433" lon="8.4303733655176"><ele>396.0</ele><time>2026-04-19T12:27:20.964Z</time></trkpt><trkpt lat="45.72648017717059" lon="8.43033166559085"><ele>396.0</ele><time>2026-04-19T12:27:21.964Z</time></trkpt><trkpt lat="45.72655625363808" lon="8.430298800999484"><ele>396.0</ele><time>2026-04-19T12:27:22.964Z</time></trkpt><trkpt lat="45.726641361874535" lon="8.430264903325721"><ele>396.0</ele><time>2026-04-19T12:27:23.964Z</time></trkpt><trkpt lat="45.726739671059995" lon="8.43022805771921"><ele>396.0</ele><time>2026-04-19T12:27:24.964Z</time></trkpt><trkpt lat="45.72683673272984" lon="8.430192649107635"><ele>396.0</ele><time>2026-04-19T12:27:25.964Z</time></trkpt><trkpt lat="45.72693940741946" lon="8.430157138069987"><ele>396.25</ele><time>2026-04-19T12:27:26.964Z</time></trkpt><trkpt lat="45.7270552996179" lon="8.430107507371433"><ele>396.5</ele><time>2026-04-19T12:27:27.964Z</time></trkpt><trkpt lat="45.727167546494776" lon="8.430061791102771"><ele>396.75</ele><time>2026-04-19T12:27:28.964Z</time></trkpt><trkpt lat="45.727279659124264" lon="8.430018943081386"><ele>397.0</ele><time>2026-04-19T12:27:29.964Z</time></trkpt><trkpt lat="45.72740002828091" lon="8.429973926821948"><ele>397.0</ele><time>2026-04-19T12:27:30.964Z</time></trkpt><trkpt lat="45.72752168468735" lon="8.429922128362804"><ele>397.0</ele><time>2026-04-19T12:27:31.964Z</time></trkpt><trkpt lat="45.727644986745865" lon="8.429872221380368"><ele>397.0</ele><time>2026-04-19T12:27:32.964Z</time></trkpt><trkpt lat="45.72776496559139" lon="8.429823802806094"><ele>397.0</ele><time>2026-04-19T12:27:33.964Z</time></trkpt><trkpt lat="45.727884930802276" lon="8.429780129245314"><ele>397.25</ele><time>2026-04-19T12:27:34.964Z</time></trkpt><trkpt lat="45.72800243804844" lon="8.429732857788386"><ele>397.5</ele><time>2026-04-19T12:27:35.964Z</time></trkpt><trkpt lat="45.728116985301945" lon="8.429689706003657"><ele>397.75</ele><time>2026-04-19T12:27:36.964Z</time></trkpt><trkpt lat="45.72823021169642" lon="8.429644873294247"><ele>398.0</ele><time>2026-04-19T12:27:37.964Z</time></trkpt><trkpt lat="45.728340227607035" lon="8.429601026812225"><ele>398.0</ele><time>2026-04-19T12:27:38.964Z</time></trkpt><trkpt lat="45.72845069613129" lon="8.429553394802346"><ele>398.0</ele><time>2026-04-19T12:27:39.964Z</time></trkpt><trkpt lat="45.72855881001306" lon="8.429506173749067"><ele>398.0</ele><time>2026-04-19T12:27:40.964Z</time></trkpt><trkpt lat="45.72866906135452" lon="8.429462477448295"><ele>398.0</ele><time>2026-04-19T12:27:41.964Z</time></trkpt><trkpt lat="45.72877479007663" lon="8.429419972491592"><ele>398.16666666666663</ele><time>2026-04-19T12:27:42.964Z</time></trkpt><trkpt lat="45.72887073425147" lon="8.429379982182118"><ele>398.3333333333333</ele><time>2026-04-19T12:27:43.964Z</time></trkpt><trkpt lat="45.72895952895556" lon="8.4293470686795"><ele>398.5</ele><time>2026-04-19T12:27:44.964Z</time></trkpt><trkpt lat="45.72904243737656" lon="8.42932127692876"><ele>398.66666666666663</ele><time>2026-04-19T12:27:45.964Z</time></trkpt><trkpt lat="45.729123597566016" lon="8.429302108573975"><ele>398.8333333333333</ele><time>2026-04-19T12:27:46.964Z</time></trkpt><trkpt lat="45.72920739489547" lon="8.429305494871754"><ele>399.0</ele><time>2026-04-19T12:27:47.965Z</time></trkpt><trkpt lat="45.7292741200354" lon="8.429328556444029"><ele>399.0</ele><time>2026-04-19T12:27:48.965Z</time></trkpt><trkpt lat="45.72936330253354" lon="8.429410321090318"><ele>399.0</ele><time>2026-04-19T12:27:50.965Z</time></trkpt><trkpt lat="45.72942245742093" lon="8.429571760193586"><ele>399.0</ele><time>2026-04-19T12:27:52.965Z</time></trkpt><trkpt lat="45.72945977722472" lon="8.42964663831467"><ele>399.0</ele><time>2026-04-19T12:27:53.965Z</time></trkpt><trkpt lat="45.72957668037792" lon="8.42970420994392"><ele>399.0</ele><time>2026-04-19T12:27:55.965Z</time></trkpt><trkpt lat="45.72965689992681" lon="8.429692706630457"><ele>398.4</ele><time>2026-04-19T12:27:56.965Z</time></trkpt><trkpt lat="45.72974986665183" lon="8.42966544475527"><ele>397.79999999999995</ele><time>2026-04-19T12:27:57.965Z</time></trkpt><trkpt lat="45.72984839179928" lon="8.429641728129344"><ele>397.20000000000005</ele><time>2026-04-19T12:27:58.965Z</time></trkpt><trkpt lat="45.72995753314408" lon="8.429611352660231"><ele>396.6</ele><time>2026-04-19T12:27:59.965Z</time></trkpt><trkpt lat="45.73007666950256" lon="8.429580098795016"><ele>396.0</ele><time>2026-04-19T12:28:00.965Z</time></trkpt><trkpt lat="45.730204968865856" lon="8.429548303105381"><ele>393.25</ele><time>2026-04-19T12:28:01.965Z</time></trkpt><trkpt lat="45.730335625974014" lon="8.42951595835069"><ele>390.5</ele><time>2026-04-19T12:28:02.965Z</time></trkpt><trkpt lat="45.730470966138846" lon="8.42948464469597"><ele>387.75</ele><time>2026-04-19T12:28:03.965Z</time></trkpt><trkpt lat="45.73061337506982" lon="8.429447085294916"><ele>385.0</ele><time>2026-04-19T12:28:04.965Z</time></trkpt><trkpt lat="45.73075839700444" lon="8.429397184341127"><ele>385.0</ele><time>2026-04-19T12:28:05.965Z</time></trkpt><trkpt lat="45.73090778928592" lon="8.429336944352828"><ele>385.0</ele><time>2026-04-19T12:28:06.965Z</time></trkpt><trkpt lat="45.73105757688239" lon="8.429271066952547"><ele>385.0</ele><time>2026-04-19T12:28:07.965Z</time></trkpt><trkpt lat="45.7312054599052" lon="8.429201069984053"><ele>382.5</ele><time>2026-04-19T12:28:08.965Z</time></trkpt><trkpt lat="45.73135007234461" lon="8.429130978061227"><ele>380.0</ele><time>2026-04-19T12:28:09.965Z</time></trkpt><trkpt lat="45.73149177803692" lon="8.429065936256622"><ele>377.5</ele><time>2026-04-19T12:28:10.965Z</time></trkpt><trkpt lat="45.731627711698145" lon="8.428999654749612"><ele>375.0</ele><time>2026-04-19T12:28:11.965Z</time></trkpt><trkpt lat="45.73176398754847" lon="8.428940443545681"><ele>376.0</ele><time>2026-04-19T12:28:12.965Z</time></trkpt><trkpt lat="45.73189492949714" lon="8.428881368869773"><ele>377.0</ele><time>2026-04-19T12:28:13.965Z</time></trkpt><trkpt lat="45.73202311353472" lon="8.428831331975484"><ele>378.0</ele><time>2026-04-19T12:28:14.965Z</time></trkpt><trkpt lat="45.73214711065186" lon="8.428803429590326"><ele>379.0</ele><time>2026-04-19T12:28:15.965Z</time></trkpt><trkpt lat="45.73226909649392" lon="8.428794544725593"><ele>379.0</ele><time>2026-04-19T12:28:16.965Z</time></trkpt><trkpt lat="45.732387408720555" lon="8.42879144109254"><ele>379.0</ele><time>2026-04-19T12:28:17.965Z</time></trkpt><trkpt lat="45.73250222339263" lon="8.428781186003135"><ele>379.0</ele><time>2026-04-19T12:28:18.965Z</time></trkpt><trkpt lat="45.73262144851203" lon="8.428772761508446"><ele>379.0</ele><time>2026-04-19T12:28:19.965Z</time></trkpt><trkpt lat="45.732738258516065" lon="8.428762755881866"><ele>376.4</ele><time>2026-04-19T12:28:20.965Z</time></trkpt><trkpt lat="45.73284984271536" lon="8.428736781523519"><ele>373.79999999999995</ele><time>2026-04-19T12:28:21.965Z</time></trkpt><trkpt lat="45.732951672491886" lon="8.428670469551022"><ele>371.20000000000005</ele><time>2026-04-19T12:28:22.965Z</time></trkpt><trkpt lat="45.73303583308186" lon="8.428573677154313"><ele>368.6</ele><time>2026-04-19T12:28:23.965Z</time></trkpt><trkpt lat="45.73311243294307" lon="8.428465075459824"><ele>366.0</ele><time>2026-04-19T12:28:24.965Z</time></trkpt><trkpt lat="45.73321288045295" lon="8.428378449553897"><ele>366.0</ele><time>2026-04-19T12:28:25.965Z</time></trkpt><trkpt lat="45.73331745646822" lon="8.428304275994497"><ele>366.0</ele><time>2026-04-19T12:28:26.965Z</time></trkpt><trkpt lat="45.73342044903103" lon="8.428239721306216"><ele>366.0</ele><time>2026-04-19T12:28:27.965Z</time></trkpt><trkpt lat="45.73352294823949" lon="8.42817163492092"><ele>366.0</ele><time>2026-04-19T12:28:28.965Z</time></trkpt><trkpt lat="45.733620299071795" lon="8.428105652495885"><ele>363.20000000000005</ele><time>2026-04-19T12:28:29.965Z</time></trkpt><trkpt lat="45.73371619489986" lon="8.428063120127476"><ele>360.40000000000003</ele><time>2026-04-19T12:28:30.965Z</time></trkpt><trkpt lat="45.73381139220787" lon="8.428074923087603"><ele>357.6</ele><time>2026-04-19T12:28:31.965Z</time></trkpt><trkpt lat="45.73389200015463" lon="8.428137191600058"><ele>354.8</ele><time>2026-04-19T12:28:32.966Z</time></trkpt><trkpt lat="45.73396430591435" lon="8.428236994778239"><ele>352.0</ele><time>2026-04-19T12:28:33.966Z</time></trkpt><trkpt lat="45.734039357531096" lon="8.428372008930111"><ele>352.0</ele><time>2026-04-19T12:28:34.966Z</time></trkpt><trkpt lat="45.734117189366266" lon="8.42851323174379"><ele>352.0</ele><time>2026-04-19T12:28:35.966Z</time></trkpt><trkpt lat="45.73420550977967" lon="8.428663314363122"><ele>352.0</ele><time>2026-04-19T12:28:36.966Z</time></trkpt><trkpt lat="45.73428695755664" lon="8.428802123555311"><ele>352.0</ele><time>2026-04-19T12:28:37.966Z</time></trkpt><trkpt lat="45.73436811018394" lon="8.428942306873939"><ele>353.25</ele><time>2026-04-19T12:28:38.966Z</time></trkpt><trkpt lat="45.73446260940283" lon="8.429085524721087"><ele>354.5</ele><time>2026-04-19T12:28:39.966Z</time></trkpt><trkpt lat="45.7345665488756" lon="8.42922442221443"><ele>355.75</ele><time>2026-04-19T12:28:40.966Z</time></trkpt><trkpt lat="45.73468006946176" lon="8.429365760380641"><ele>357.0</ele><time>2026-04-19T12:28:41.966Z</time></trkpt><trkpt lat="45.734787411200806" lon="8.42949200475443"><ele>357.0</ele><time>2026-04-19T12:28:42.966Z</time></trkpt><trkpt lat="45.734901126899395" lon="8.429608503378912"><ele>357.0</ele><time>2026-04-19T12:28:43.966Z</time></trkpt><trkpt lat="45.73502865741874" lon="8.429707582149911"><ele>357.0</ele><time>2026-04-19T12:28:44.966Z</time></trkpt><trkpt lat="45.735310443670244" lon="8.429875426367353"><ele>357.3333333333333</ele><time>2026-04-19T12:28:46.966Z</time></trkpt><trkpt lat="45.73545534405225" lon="8.42994893943987"><ele>357.66666666666663</ele><time>2026-04-19T12:28:47.966Z</time></trkpt><trkpt lat="45.735603380380354" lon="8.43000746666305"><ele>358.0</ele><time>2026-04-19T12:28:48.966Z</time></trkpt><trkpt lat="45.735753904231316" lon="8.430058909647157"><ele>358.0</ele><time>2026-04-19T12:28:49.966Z</time></trkpt><trkpt lat="45.735901507988615" lon="8.430118563202376"><ele>358.0</ele><time>2026-04-19T12:28:50.966Z</time></trkpt><trkpt lat="45.736044611309396" lon="8.430194286931709"><ele>358.0</ele><time>2026-04-19T12:28:51.966Z</time></trkpt><trkpt lat="45.73618708569154" lon="8.430284300145182"><ele>357.0</ele><time>2026-04-19T12:28:52.966Z</time></trkpt><trkpt lat="45.736328586171624" lon="8.430381068441765"><ele>356.0</ele><time>2026-04-19T12:28:53.966Z</time></trkpt><trkpt lat="45.73646824516982" lon="8.430483013774372"><ele>355.0</ele><time>2026-04-19T12:28:54.966Z</time></trkpt><trkpt lat="45.73660658788893" lon="8.430590677822432"><ele>355.0</ele><time>2026-04-19T12:28:55.966Z</time></trkpt><trkpt lat="45.73674850418556" lon="8.430692899524857"><ele>355.0</ele><time>2026-04-19T12:28:56.966Z</time></trkpt><trkpt lat="45.7368903335154" lon="8.43078630328982"><ele>355.0</ele><time>2026-04-19T12:28:57.966Z</time></trkpt><trkpt lat="45.73703225499379" lon="8.43087464472174"><ele>358.0</ele><time>2026-04-19T12:28:58.966Z</time></trkpt><trkpt lat="45.73717295457976" lon="8.430956290735352"><ele>361.0</ele><time>2026-04-19T12:28:59.966Z</time></trkpt><trkpt lat="45.73730812249693" lon="8.431032733829339"><ele>364.0</ele><time>2026-04-19T12:29:00.966Z</time></trkpt><trkpt lat="45.73743281157427" lon="8.431106980347995"><ele>367.0</ele><time>2026-04-19T12:29:01.966Z</time></trkpt><trkpt lat="45.73754965881325" lon="8.43117472031409"><ele>367.0</ele><time>2026-04-19T12:29:02.966Z</time></trkpt><trkpt lat="45.73765965673844" lon="8.431238529961401"><ele>367.0</ele><time>2026-04-19T12:29:03.963Z</time></trkpt><trkpt lat="45.73776079627329" lon="8.431294409577744"><ele>367.0</ele><time>2026-04-19T12:29:04.962Z</time></trkpt><trkpt lat="45.73785444355228" lon="8.431347150633213"><ele>367.0</ele><time>2026-04-19T12:29:05.963Z</time></trkpt><trkpt lat="45.737938450006546" lon="8.43139162248443"><ele>367.0</ele><time>2026-04-19T12:29:06.963Z</time></trkpt><trkpt lat="45.73800461332925" lon="8.43144550735764"><ele>365.4285714285714</ele><time>2026-04-19T12:29:07.962Z</time></trkpt><trkpt lat="45.7380539154886" lon="8.431519895430906"><ele>363.8571428571429</ele><time>2026-04-19T12:29:08.962Z</time></trkpt><trkpt lat="45.73808302008224" lon="8.431606924440633"><ele>362.2857142857143</ele><time>2026-04-19T12:29:09.963Z</time></trkpt><trkpt lat="45.73809348249445" lon="8.431707550350565"><ele>360.71428571428567</ele><time>2026-04-19T12:29:10.963Z</time></trkpt><trkpt lat="45.738111422263664" lon="8.431801476003972"><ele>359.1428571428571</ele><time>2026-04-19T12:29:11.963Z</time></trkpt><trkpt lat="45.73815518283076" lon="8.431866985871878"><ele>357.57142857142856</ele><time>2026-04-19T12:29:12.962Z</time></trkpt><trkpt lat="45.738221755218305" lon="8.43189548599937"><ele>356.0</ele><time>2026-04-19T12:29:13.962Z</time></trkpt><trkpt lat="45.738289744115335" lon="8.431884223452487"><ele>356.0</ele><time>2026-04-19T12:29:14.962Z</time></trkpt><trkpt lat="45.738349901106936" lon="8.431827156778933"><ele>356.0</ele><time>2026-04-19T12:29:15.962Z</time></trkpt><trkpt lat="45.738387815942765" lon="8.431750873145237"><ele>356.0</ele><time>2026-04-19T12:29:16.962Z</time></trkpt><trkpt lat="45.738424370220564" lon="8.431565169534652"><ele>356.0</ele><time>2026-04-19T12:29:18.962Z</time></trkpt><trkpt lat="45.73844517852098" lon="8.431460761971334"><ele>356.0</ele><time>2026-04-19T12:29:19.962Z</time></trkpt><trkpt lat="45.73848564377463" lon="8.431349082302319"><ele>356.0</ele><time>2026-04-19T12:29:20.962Z</time></trkpt><trkpt lat="45.738541436797405" lon="8.431233112074416"><ele>356.6</ele><time>2026-04-19T12:29:21.962Z</time></trkpt><trkpt lat="45.73860632545824" lon="8.431118633220729"><ele>357.20000000000005</ele><time>2026-04-19T12:29:22.962Z</time></trkpt><trkpt lat="45.738667047736385" lon="8.431012315144"><ele>357.79999999999995</ele><time>2026-04-19T12:29:23.962Z</time></trkpt><trkpt lat="45.73872837269211" lon="8.430888491584797"><ele>358.4</ele><time>2026-04-19T12:29:24.962Z</time></trkpt><trkpt lat="45.73879010404932" lon="8.43075060894002"><ele>359.0</ele><time>2026-04-19T12:29:25.962Z</time></trkpt><trkpt lat="45.73884625273464" lon="8.430600335979024"><ele>360.0</ele><time>2026-04-19T12:29:26.962Z</time></trkpt><trkpt lat="45.738892115947365" lon="8.430432991360641"><ele>361.0</ele><time>2026-04-19T12:29:27.962Z</time></trkpt><trkpt lat="45.73893057943803" lon="8.430249575885089"><ele>362.0</ele><time>2026-04-19T12:29:28.962Z</time></trkpt><trkpt lat="45.73896296404434" lon="8.43004303208376"><ele>363.0</ele><time>2026-04-19T12:29:29.962Z</time></trkpt><trkpt lat="45.738988425328465" lon="8.429821109829447"><ele>363.6666666666667</ele><time>2026-04-19T12:29:30.962Z</time></trkpt><trkpt lat="45.73900595245111" lon="8.429600800288942"><ele>364.33333333333337</ele><time>2026-04-19T12:29:31.962Z</time></trkpt><trkpt lat="45.739026188171174" lon="8.429376113030278"><ele>365.0</ele><time>2026-04-19T12:29:32.962Z</time></trkpt><trkpt lat="45.739048551225196" lon="8.429142287103328"><ele>365.0</ele><time>2026-04-19T12:29:33.962Z</time></trkpt><trkpt lat="45.739075236333875" lon="8.428910684204903"><ele>365.0</ele><time>2026-04-19T12:29:34.962Z</time></trkpt><trkpt lat="45.73910837833389" lon="8.428685141707103"><ele>365.0</ele><time>2026-04-19T12:29:35.962Z</time></trkpt><trkpt lat="45.73914793280671" lon="8.428458349474548"><ele>366.0</ele><time>2026-04-19T12:29:36.962Z</time></trkpt><trkpt lat="45.73919943161025" lon="8.428228998185663"><ele>367.0</ele><time>2026-04-19T12:29:37.962Z</time></trkpt><trkpt lat="45.73925795588839" lon="8.427999066722725"><ele>368.0</ele><time>2026-04-19T12:29:38.962Z</time></trkpt><trkpt lat="45.7393266966383" lon="8.427775946194558"><ele>368.33333333333337</ele><time>2026-04-19T12:29:39.962Z</time></trkpt><trkpt lat="45.73940399343331" lon="8.427557060183949"><ele>368.6666666666667</ele><time>2026-04-19T12:29:40.962Z</time></trkpt><trkpt lat="45.73948904885207" lon="8.427340073323245"><ele>369.0</ele><time>2026-04-19T12:29:41.962Z</time></trkpt><trkpt lat="45.73958160416856" lon="8.427134412527927"><ele>369.0</ele><time>2026-04-19T12:29:42.962Z</time></trkpt><trkpt lat="45.7396817515823" lon="8.426951773917368"><ele>369.0</ele><time>2026-04-19T12:29:43.962Z</time></trkpt><trkpt lat="45.73978647046747" lon="8.426788760492501"><ele>369.0</ele><time>2026-04-19T12:29:44.962Z</time></trkpt><trkpt lat="45.73988857781809" lon="8.426648202621433"><ele>369.0</ele><time>2026-04-19T12:29:45.962Z</time></trkpt><trkpt lat="45.73999889311447" lon="8.426507249899645"><ele>369.0</ele><time>2026-04-19T12:29:46.962Z</time></trkpt><trkpt lat="45.74012114418656" lon="8.42637237973634"><ele>369.0</ele><time>2026-04-19T12:29:47.962Z</time></trkpt><trkpt lat="45.74024754832458" lon="8.426239084225827"><ele>368.3333333333333</ele><time>2026-04-19T12:29:48.963Z</time></trkpt><trkpt lat="45.7403823197886" lon="8.426103456892672"><ele>367.66666666666663</ele><time>2026-04-19T12:29:49.963Z</time></trkpt><trkpt lat="45.740524551530235" lon="8.425973731012286"><ele>367.0</ele><time>2026-04-19T12:29:50.963Z</time></trkpt><trkpt lat="45.740665421757086" lon="8.425846315470157"><ele>367.0</ele><time>2026-04-19T12:29:51.963Z</time></trkpt><trkpt lat="45.74080922144065" lon="8.425706377228847"><ele>367.0</ele><time>2026-04-19T12:29:52.963Z</time></trkpt><trkpt lat="45.740956587898665" lon="8.4255594020359"><ele>367.0</ele><time>2026-04-19T12:29:53.963Z</time></trkpt><trkpt lat="45.74110816514185" lon="8.425415538237655"><ele>367.66666666666663</ele><time>2026-04-19T12:29:54.963Z</time></trkpt><trkpt lat="45.74125746204084" lon="8.425283507429159"><ele>368.3333333333333</ele><time>2026-04-19T12:29:55.963Z</time></trkpt><trkpt lat="45.741409948085376" lon="8.42515261026379"><ele>369.0</ele><time>2026-04-19T12:29:56.963Z</time></trkpt><trkpt lat="45.741559817783255" lon="8.425018889240162"><ele>369.0</ele><time>2026-04-19T12:29:57.963Z</time></trkpt><trkpt lat="45.74171163012956" lon="8.424883648300469"><ele>369.0</ele><time>2026-04-19T12:29:58.963Z</time></trkpt><trkpt lat="45.74186471895675" lon="8.42475145307343"><ele>369.0</ele><time>2026-04-19T12:29:59.963Z</time></trkpt><trkpt lat="45.74201563685558" lon="8.424620137500021"><ele>368.0</ele><time>2026-04-19T12:30:00.963Z</time></trkpt><trkpt lat="45.74216872021163" lon="8.42450633509786"><ele>367.0</ele><time>2026-04-19T12:30:01.963Z</time></trkpt><trkpt lat="45.74232408374478" lon="8.424402174722694"><ele>366.0</ele><time>2026-04-19T12:30:02.963Z</time></trkpt><trkpt lat="45.742481010652796" lon="8.424313325263736"><ele>366.0</ele><time>2026-04-19T12:30:03.963Z</time></trkpt><trkpt lat="45.742631960572304" lon="8.424243689624594"><ele>366.0</ele><time>2026-04-19T12:30:04.963Z</time></trkpt><trkpt lat="45.74277281284651" lon="8.424187671287633"><ele>366.0</ele><time>2026-04-19T12:30:05.963Z</time></trkpt><trkpt lat="45.74290686530533" lon="8.424148755372293"><ele>366.0</ele><time>2026-04-19T12:30:06.963Z</time></trkpt><trkpt lat="45.743033946819374" lon="8.42413230320439"><ele>366.8</ele><time>2026-04-19T12:30:07.963Z</time></trkpt><trkpt lat="45.743150715169584" lon="8.424144364338154"><ele>367.6</ele><time>2026-04-19T12:30:08.963Z</time></trkpt><trkpt lat="45.74325553622666" lon="8.424172953803009"><ele>368.4</ele><time>2026-04-19T12:30:09.963Z</time></trkpt><trkpt lat="45.743352201461946" lon="8.424215148831474"><ele>369.2</ele><time>2026-04-19T12:30:10.963Z</time></trkpt><trkpt lat="45.74345478146833" lon="8.424214829007774"><ele>370.0</ele><time>2026-04-19T12:30:11.963Z</time></trkpt><trkpt lat="45.743559117001865" lon="8.42419749478145"><ele>370.8</ele><time>2026-04-19T12:30:12.963Z</time></trkpt><trkpt lat="45.74366055650602" lon="8.42420547362315"><ele>371.6</ele><time>2026-04-19T12:30:13.963Z</time></trkpt><trkpt lat="45.743753439713586" lon="8.424232305650362"><ele>372.4</ele><time>2026-04-19T12:30:14.963Z</time></trkpt><trkpt lat="45.74383936354225" lon="8.42428344834321"><ele>373.2</ele><time>2026-04-19T12:30:15.963Z</time></trkpt><trkpt lat="45.743925868124215" lon="8.424333795605426"><ele>374.0</ele><time>2026-04-19T12:30:16.963Z</time></trkpt><trkpt lat="45.74401202862933" lon="8.42439195219671"><ele>374.0</ele><time>2026-04-19T12:30:17.963Z</time></trkpt><trkpt lat="45.744099309982865" lon="8.424462615101977"><ele>374.0</ele><time>2026-04-19T12:30:18.963Z</time></trkpt><trkpt lat="45.74418773054847" lon="8.424549681366877"><ele>374.0</ele><time>2026-04-19T12:30:19.963Z</time></trkpt><trkpt lat="45.74427924286286" lon="8.424647107762379"><ele>374.0</ele><time>2026-04-19T12:30:20.963Z</time></trkpt><trkpt lat="45.74437002667466" lon="8.424740903252129"><ele>374.0</ele><time>2026-04-19T12:30:21.963Z</time></trkpt><trkpt lat="45.7444678656806" lon="8.42483911329941"><ele>373.0</ele><time>2026-04-19T12:30:22.963Z</time></trkpt><trkpt lat="45.7445616429149" lon="8.42494271889235"><ele>372.0</ele><time>2026-04-19T12:30:23.963Z</time></trkpt><trkpt lat="45.74464964846174" lon="8.425049409047993"><ele>371.0</ele><time>2026-04-19T12:30:24.963Z</time></trkpt><trkpt lat="45.744726408131854" lon="8.425168732599381"><ele>370.0</ele><time>2026-04-19T12:30:25.963Z</time></trkpt><trkpt lat="45.74479386921673" lon="8.425297336890825"><ele>370.0</ele><time>2026-04-19T12:30:26.963Z</time></trkpt><trkpt lat="45.74485897955576" lon="8.42543329651296"><ele>370.0</ele><time>2026-04-19T12:30:27.963Z</time></trkpt><trkpt lat="45.7449231457042" lon="8.425581913218936"><ele>370.0</ele><time>2026-04-19T12:30:28.963Z</time></trkpt><trkpt lat="45.744981474242884" lon="8.425735605373823"><ele>370.0</ele><time>2026-04-19T12:30:29.963Z</time></trkpt><trkpt lat="45.74502940860004" lon="8.425893087309511"><ele>368.4</ele><time>2026-04-19T12:30:30.963Z</time></trkpt><trkpt lat="45.7450679511996" lon="8.426048397856666"><ele>366.8</ele><time>2026-04-19T12:30:31.963Z</time></trkpt><trkpt lat="45.74510281223839" lon="8.426198400850527"><ele>365.20000000000005</ele><time>2026-04-19T12:30:32.963Z</time></trkpt><trkpt lat="45.74513510249619" lon="8.426343924558488"><ele>363.6</ele><time>2026-04-19T12:30:33.964Z</time></trkpt><trkpt lat="45.745160886289085" lon="8.4264896719954"><ele>362.0</ele><time>2026-04-19T12:30:34.964Z</time></trkpt><trkpt lat="45.74518417461285" lon="8.426627052100887"><ele>361.0</ele><time>2026-04-19T12:30:35.964Z</time></trkpt><trkpt lat="45.74520250257116" lon="8.426746816410507"><ele>360.0</ele><time>2026-04-19T12:30:36.964Z</time></trkpt><trkpt lat="45.74521600432369" lon="8.426843974635663"><ele>359.0</ele><time>2026-04-19T12:30:37.964Z</time></trkpt><trkpt lat="45.745227431885674" lon="8.426938778465761"><ele>358.0</ele><time>2026-04-19T12:30:38.964Z</time></trkpt><trkpt lat="45.74526425032399" lon="8.427084968955318"><ele>357.0</ele><time>2026-04-19T12:30:40.964Z</time></trkpt><trkpt lat="45.74533854317579" lon="8.427122741968311"><ele>356.0</ele><time>2026-04-19T12:30:42.964Z</time></trkpt><trkpt lat="45.74546552370157" lon="8.427031924788116"><ele>355.6</ele><time>2026-04-19T12:30:44.964Z</time></trkpt><trkpt lat="45.74554160691743" lon="8.426971421917894"><ele>355.20000000000005</ele><time>2026-04-19T12:30:45.964Z</time></trkpt><trkpt lat="45.74561398226043" lon="8.4269112544315"><ele>354.79999999999995</ele><time>2026-04-19T12:30:46.964Z</time></trkpt><trkpt lat="45.745702467732556" lon="8.426844978397487"><ele>354.4</ele><time>2026-04-19T12:30:47.964Z</time></trkpt><trkpt lat="45.745792033982134" lon="8.426778617413957"><ele>354.0</ele><time>2026-04-19T12:30:48.964Z</time></trkpt><trkpt lat="45.74588498082688" lon="8.42670539659683"><ele>354.0</ele><time>2026-04-19T12:30:49.964Z</time></trkpt><trkpt lat="45.745987556051155" lon="8.426629031590823"><ele>354.0</ele><time>2026-04-19T12:30:50.964Z</time></trkpt><trkpt lat="45.74609642522955" lon="8.42654964563812"><ele>354.0</ele><time>2026-04-19T12:30:51.964Z</time></trkpt><trkpt lat="45.74620983784621" lon="8.426470717332059"><ele>354.0</ele><time>2026-04-19T12:30:52.964Z</time></trkpt><trkpt lat="45.74632544697538" lon="8.426405655248596"><ele>354.0</ele><time>2026-04-19T12:30:53.964Z</time></trkpt><trkpt lat="45.74644636105336" lon="8.426340303181034"><ele>354.0</ele><time>2026-04-19T12:30:54.964Z</time></trkpt><trkpt lat="45.74657137136803" lon="8.426265526322235"><ele>354.0</ele><time>2026-04-19T12:30:55.964Z</time></trkpt><trkpt lat="45.74670032620495" lon="8.426180523752455"><ele>354.0</ele><time>2026-04-19T12:30:56.964Z</time></trkpt><trkpt lat="45.746831371927584" lon="8.426088673243187"><ele>354.6666666666667</ele><time>2026-04-19T12:30:57.964Z</time></trkpt><trkpt lat="45.74696343605698" lon="8.425989863208743"><ele>355.33333333333337</ele><time>2026-04-19T12:30:58.964Z</time></trkpt><trkpt lat="45.747103335320226" lon="8.425894386190935"><ele>356.0</ele><time>2026-04-19T12:30:59.964Z</time></trkpt><trkpt lat="45.74724718370865" lon="8.425801906875241"><ele>356.0</ele><time>2026-04-19T12:31:00.964Z</time></trkpt><trkpt lat="45.74739389899164" lon="8.425710993353823"><ele>356.0</ele><time>2026-04-19T12:31:01.964Z</time></trkpt><trkpt lat="45.74753548369848" lon="8.425625348299247"><ele>356.0</ele><time>2026-04-19T12:31:02.964Z</time></trkpt><trkpt lat="45.74768136254401" lon="8.425541112327108"><ele>355.6666666666667</ele><time>2026-04-19T12:31:03.964Z</time></trkpt><trkpt lat="45.747829679544935" lon="8.425460365935725"><ele>355.3333333333333</ele><time>2026-04-19T12:31:04.964Z</time></trkpt><trkpt lat="45.74797818123373" lon="8.425389736597285"><ele>355.0</ele><time>2026-04-19T12:31:05.964Z</time></trkpt><trkpt lat="45.74813315648842" lon="8.42532287117321"><ele>355.0</ele><time>2026-04-19T12:31:06.964Z</time></trkpt><trkpt lat="45.74828941877425" lon="8.425267696164859"><ele>355.0</ele><time>2026-04-19T12:31:07.964Z</time></trkpt><trkpt lat="45.748451273509126" lon="8.425204683299748"><ele>355.0</ele><time>2026-04-19T12:31:08.964Z</time></trkpt><trkpt lat="45.74861404050509" lon="8.425154586941007"><ele>356.3333333333333</ele><time>2026-04-19T12:31:09.961Z</time></trkpt><trkpt lat="45.74877713218784" lon="8.425108000084307"><ele>357.6666666666667</ele><time>2026-04-19T12:31:10.961Z</time></trkpt><trkpt lat="45.748943548017905" lon="8.425067908808302"><ele>359.0</ele><time>2026-04-19T12:31:11.961Z</time></trkpt><trkpt lat="45.74911416254068" lon="8.425037455206361"><ele>359.0</ele><time>2026-04-19T12:31:12.961Z</time></trkpt><trkpt lat="45.749283976382245" lon="8.425015903086013"><ele>359.0</ele><time>2026-04-19T12:31:13.961Z</time></trkpt><trkpt lat="45.74945668601264" lon="8.425006007207468"><ele>359.0</ele><time>2026-04-19T12:31:14.961Z</time></trkpt><trkpt lat="45.74962658932275" lon="8.425002777939746"><ele>360.0</ele><time>2026-04-19T12:31:15.961Z</time></trkpt><trkpt lat="45.749801234234056" lon="8.425006451256573"><ele>361.0</ele><time>2026-04-19T12:31:16.961Z</time></trkpt><trkpt lat="45.74997339759401" lon="8.425010680000199"><ele>362.0</ele><time>2026-04-19T12:31:17.961Z</time></trkpt><trkpt lat="45.75014667712883" lon="8.425022940856065"><ele>361.6666666666667</ele><time>2026-04-19T12:31:18.961Z</time></trkpt><trkpt lat="45.75031754984962" lon="8.425036543715342"><ele>361.3333333333333</ele><time>2026-04-19T12:31:19.961Z</time></trkpt><trkpt lat="45.75048865919608" lon="8.425053876659309"><ele>361.0</ele><time>2026-04-19T12:31:20.961Z</time></trkpt><trkpt lat="45.75066303905871" lon="8.425068335831778"><ele>361.0</ele><time>2026-04-19T12:31:21.961Z</time></trkpt><trkpt lat="45.75083599030591" lon="8.425075549104685"><ele>361.0</ele><time>2026-04-19T12:31:22.96Z</time></trkpt><trkpt lat="45.75100225915004" lon="8.425077434540368"><ele>361.0</ele><time>2026-04-19T12:31:23.96Z</time></trkpt><trkpt lat="45.75116405350159" lon="8.425079740864058"><ele>361.3333333333333</ele><time>2026-04-19T12:31:24.96Z</time></trkpt><trkpt lat="45.75132162820412" lon="8.425083905259052"><ele>361.6666666666667</ele><time>2026-04-19T12:31:25.96Z</time></trkpt><trkpt lat="45.75147549757533" lon="8.425086981114829"><ele>362.0</ele><time>2026-04-19T12:31:26.96Z</time></trkpt><trkpt lat="45.75162804776595" lon="8.42509016426123"><ele>362.0</ele><time>2026-04-19T12:31:27.96Z</time></trkpt><trkpt lat="45.751783213956905" lon="8.425092561036898"><ele>362.0</ele><time>2026-04-19T12:31:28.96Z</time></trkpt><trkpt lat="45.751940965743835" lon="8.425090700362924"><ele>362.0</ele><time>2026-04-19T12:31:29.961Z</time></trkpt><trkpt lat="45.752089173573665" lon="8.425085494934574"><ele>362.25</ele><time>2026-04-19T12:31:30.961Z</time></trkpt><trkpt lat="45.752230005925085" lon="8.425075973007173"><ele>362.5</ele><time>2026-04-19T12:31:31.961Z</time></trkpt><trkpt lat="45.75236458504148" lon="8.425059827340704"><ele>362.75</ele><time>2026-04-19T12:31:32.961Z</time></trkpt><trkpt lat="45.752495824159695" lon="8.425035568602981"><ele>363.0</ele><time>2026-04-19T12:31:33.961Z</time></trkpt><trkpt lat="45.75261854645932" lon="8.425013681485801"><ele>363.0</ele><time>2026-04-19T12:31:34.961Z</time></trkpt><trkpt lat="45.75273462443821" lon="8.424993579560827"><ele>363.0</ele><time>2026-04-19T12:31:35.961Z</time></trkpt><trkpt lat="45.75284154344008" lon="8.424977711221032"><ele>363.0</ele><time>2026-04-19T12:31:36.961Z</time></trkpt><trkpt lat="45.752930900363566" lon="8.424968982037866"><ele>363.0</ele><time>2026-04-19T12:31:37.961Z</time></trkpt><trkpt lat="45.75299758426168" lon="8.424965293087547"><ele>363.0</ele><time>2026-04-19T12:31:38.961Z</time></trkpt><trkpt lat="45.75306334230893" lon="8.424971223084647"><ele>363.0</ele><time>2026-04-19T12:31:41.961Z</time></trkpt><trkpt lat="45.753147336288364" lon="8.424972426229724"><ele>363.0</ele><time>2026-04-19T12:31:47.961Z</time></trkpt><trkpt lat="45.753229384967035" lon="8.42487003064058"><ele>363.0</ele><time>2026-04-19T12:31:49.961Z</time></trkpt><trkpt lat="45.75326470146385" lon="8.424783157208754"><ele>363.0</ele><time>2026-04-19T12:31:50.961Z</time></trkpt><trkpt lat="45.7533054697927" lon="8.424693785225188"><ele>363.0</ele><time>2026-04-19T12:31:51.961Z</time></trkpt><trkpt lat="45.75335941456005" lon="8.424590954475455"><ele>363.0</ele><time>2026-04-19T12:31:52.961Z</time></trkpt><trkpt lat="45.75341429011216" lon="8.424489215320488"><ele>363.0</ele><time>2026-04-19T12:31:53.961Z</time></trkpt><trkpt lat="45.75347999570372" lon="8.424387329833657"><ele>363.2</ele><time>2026-04-19T12:31:54.961Z</time></trkpt><trkpt lat="45.7535545016971" lon="8.424281414078704"><ele>363.4</ele><time>2026-04-19T12:31:55.961Z</time></trkpt><trkpt lat="45.75363395805792" lon="8.42416607951989"><ele>363.59999999999997</ele><time>2026-04-19T12:31:56.961Z</time></trkpt><trkpt lat="45.75370940653038" lon="8.424052139261224"><ele>363.79999999999995</ele><time>2026-04-19T12:31:57.961Z</time></trkpt><trkpt lat="45.75378527851493" lon="8.423921989036032"><ele>364.0</ele><time>2026-04-19T12:31:58.961Z</time></trkpt><trkpt lat="45.753856639075835" lon="8.423780276568854"><ele>364.25</ele><time>2026-04-19T12:31:59.961Z</time></trkpt><trkpt lat="45.75392137601466" lon="8.423628134471441"><ele>364.5</ele><time>2026-04-19T12:32:00.961Z</time></trkpt><trkpt lat="45.75398296790554" lon="8.423468793414132"><ele>364.75</ele><time>2026-04-19T12:32:01.961Z</time></trkpt><trkpt lat="45.75404453806714" lon="8.42330715968351"><ele>365.0</ele><time>2026-04-19T12:32:02.961Z</time></trkpt><trkpt lat="45.75410776428841" lon="8.423148239932207"><ele>365.0</ele><time>2026-04-19T12:32:03.961Z</time></trkpt><trkpt lat="45.75417094330497" lon="8.422987879850092"><ele>365.0</ele><time>2026-04-19T12:32:04.961Z</time></trkpt><trkpt lat="45.75423300280563" lon="8.422824815550099"><ele>365.0</ele><time>2026-04-19T12:32:05.961Z</time></trkpt><trkpt lat="45.754294157880736" lon="8.422657924180768"><ele>365.0</ele><time>2026-04-19T12:32:06.961Z</time></trkpt><trkpt lat="45.75436105787359" lon="8.422493958275334"><ele>364.75</ele><time>2026-04-19T12:32:07.961Z</time></trkpt><trkpt lat="45.75442392062765" lon="8.422328625022763"><ele>364.5</ele><time>2026-04-19T12:32:08.961Z</time></trkpt><trkpt lat="45.75448825623908" lon="8.422160072559372"><ele>364.25</ele><time>2026-04-19T12:32:09.961Z</time></trkpt><trkpt lat="45.75455444470872" lon="8.421992188773197"><ele>364.0</ele><time>2026-04-19T12:32:10.961Z</time></trkpt><trkpt lat="45.75461840939599" lon="8.421824297256343"><ele>364.0</ele><time>2026-04-19T12:32:11.961Z</time></trkpt><trkpt lat="45.75468121483044" lon="8.421652476069665"><ele>364.0</ele><time>2026-04-19T12:32:12.961Z</time></trkpt><trkpt lat="45.75474411561312" lon="8.421482302553235"><ele>364.0</ele><time>2026-04-19T12:32:13.961Z</time></trkpt><trkpt lat="45.754808498711384" lon="8.421317052187723"><ele>364.0</ele><time>2026-04-19T12:32:14.962Z</time></trkpt><trkpt lat="45.75487186849889" lon="8.421153619767454"><ele>364.0</ele><time>2026-04-19T12:32:15.962Z</time></trkpt><trkpt lat="45.75493416069427" lon="8.420993588234623"><ele>364.0</ele><time>2026-04-19T12:32:16.962Z</time></trkpt><trkpt lat="45.75499540560165" lon="8.420832252418691"><ele>364.0</ele><time>2026-04-19T12:32:17.962Z</time></trkpt><trkpt lat="45.755059511069184" lon="8.420674303431417"><ele>364.0</ele><time>2026-04-19T12:32:18.962Z</time></trkpt><trkpt lat="45.75512616903775" lon="8.420522568715208"><ele>364.0</ele><time>2026-04-19T12:32:19.962Z</time></trkpt><trkpt lat="45.75519610681659" lon="8.420388980460372"><ele>364.0</ele><time>2026-04-19T12:32:20.962Z</time></trkpt><trkpt lat="45.75526922447845" lon="8.420272523341563"><ele>364.0</ele><time>2026-04-19T12:32:21.962Z</time></trkpt><trkpt lat="45.75534316858507" lon="8.420171413248795"><ele>364.0</ele><time>2026-04-19T12:32:22.962Z</time></trkpt><trkpt lat="45.75541226902424" lon="8.420091789368392"><ele>364.0</ele><time>2026-04-19T12:32:23.962Z</time></trkpt><trkpt lat="45.75547759238812" lon="8.420031235183071"><ele>364.0</ele><time>2026-04-19T12:32:24.962Z</time></trkpt><trkpt lat="45.755548263252315" lon="8.419988342559844"><ele>364.0</ele><time>2026-04-19T12:32:25.962Z</time></trkpt><trkpt lat="45.75561538010124" lon="8.419953776289619"><ele>364.0</ele><time>2026-04-19T12:32:26.962Z</time></trkpt><trkpt lat="45.75567406049393" lon="8.419903348740728"><ele>364.0</ele><time>2026-04-19T12:32:27.962Z</time></trkpt><trkpt lat="45.75571095511181" lon="8.419826635613543"><ele>364.0</ele><time>2026-04-19T12:32:28.962Z</time></trkpt><trkpt lat="45.75572101501818" lon="8.419733214596596"><ele>364.0</ele><time>2026-04-19T12:32:29.962Z</time></trkpt><trkpt lat="45.75569937317744" lon="8.419628695221538"><ele>364.0</ele><time>2026-04-19T12:32:30.962Z</time></trkpt><trkpt lat="45.75566426492916" lon="8.419518792723457"><ele>364.0</ele><time>2026-04-19T12:32:31.962Z</time></trkpt><trkpt lat="45.75563794224222" lon="8.419392923828955"><ele>364.0</ele><time>2026-04-19T12:32:32.962Z</time></trkpt><trkpt lat="45.75564301493412" lon="8.419255916883555"><ele>364.0</ele><time>2026-04-19T12:32:33.962Z</time></trkpt><trkpt lat="45.75567957238707" lon="8.419121221592453"><ele>364.0</ele><time>2026-04-19T12:32:34.962Z</time></trkpt><trkpt lat="45.75572696978142" lon="8.418988818870297"><ele>364.0</ele><time>2026-04-19T12:32:35.962Z</time></trkpt><trkpt lat="45.75577897279548" lon="8.418849430701655"><ele>364.25</ele><time>2026-04-19T12:32:36.962Z</time></trkpt><trkpt lat="45.7558294364825" lon="8.418717814777152"><ele>364.5</ele><time>2026-04-19T12:32:37.962Z</time></trkpt><trkpt lat="45.75588321158164" lon="8.418574176120238"><ele>364.75</ele><time>2026-04-19T12:32:38.962Z</time></trkpt><trkpt lat="45.75593609585837" lon="8.418425412877946"><ele>365.0</ele><time>2026-04-19T12:32:39.962Z</time></trkpt><trkpt lat="45.755993047728104" lon="8.418272903188623"><ele>365.25</ele><time>2026-04-19T12:32:40.962Z</time></trkpt><trkpt lat="45.75605005723062" lon="8.418118310553796"><ele>365.5</ele><time>2026-04-19T12:32:41.962Z</time></trkpt><trkpt lat="45.756104865774574" lon="8.417967224576167"><ele>365.75</ele><time>2026-04-19T12:32:42.962Z</time></trkpt><trkpt lat="45.756164571579895" lon="8.417811964064994"><ele>366.0</ele><time>2026-04-19T12:32:43.962Z</time></trkpt><trkpt lat="45.75622220346068" lon="8.417655181736544"><ele>366.25</ele><time>2026-04-19T12:32:44.962Z</time></trkpt><trkpt lat="45.756277225937254" lon="8.417507458657415"><ele>366.5</ele><time>2026-04-19T12:32:45.962Z</time></trkpt><trkpt lat="45.75633572834855" lon="8.417354087261659"><ele>366.75</ele><time>2026-04-19T12:32:46.962Z</time></trkpt><trkpt lat="45.75639328722261" lon="8.417193740837645"><ele>367.0</ele><time>2026-04-19T12:32:47.962Z</time></trkpt><trkpt lat="45.75645552212163" lon="8.417028303308713"><ele>367.0</ele><time>2026-04-19T12:32:48.962Z</time></trkpt><trkpt lat="45.75652486499649" lon="8.41685980130665"><ele>367.0</ele><time>2026-04-19T12:32:49.962Z</time></trkpt><trkpt lat="45.75659311842013" lon="8.416687511898386"><ele>367.0</ele><time>2026-04-19T12:32:50.962Z</time></trkpt><trkpt lat="45.75666173348962" lon="8.416510458643252"><ele>367.0</ele><time>2026-04-19T12:32:51.962Z</time></trkpt><trkpt lat="45.75672836740309" lon="8.416328723976173"><ele>367.25</ele><time>2026-04-19T12:32:52.962Z</time></trkpt><trkpt lat="45.756796120312174" lon="8.41614255229497"><ele>367.5</ele><time>2026-04-19T12:32:53.962Z</time></trkpt><trkpt lat="45.75686234060255" lon="8.4159522118465"><ele>367.75</ele><time>2026-04-19T12:32:54.962Z</time></trkpt><trkpt lat="45.7569228890991" lon="8.41575873989651"><ele>368.0</ele><time>2026-04-19T12:32:55.962Z</time></trkpt><trkpt lat="45.75697381588585" lon="8.415567823559057"><ele>368.0</ele><time>2026-04-19T12:32:56.962Z</time></trkpt><trkpt lat="45.75701760442896" lon="8.415380097645615"><ele>368.0</ele><time>2026-04-19T12:32:57.962Z</time></trkpt><trkpt lat="45.757059577118625" lon="8.415204077770515"><ele>368.0</ele><time>2026-04-19T12:32:58.962Z</time></trkpt><trkpt lat="45.757101758888034" lon="8.415032918070901"><ele>368.0</ele><time>2026-04-19T12:32:59.963Z</time></trkpt><trkpt lat="45.75714527118421" lon="8.414860036028818"><ele>368.0</ele><time>2026-04-19T12:33:00.963Z</time></trkpt><trkpt lat="45.75718398414191" lon="8.414693035213467"><ele>368.0</ele><time>2026-04-19T12:33:01.963Z</time></trkpt><trkpt lat="45.75722112338498" lon="8.414534229879074"><ele>368.0</ele><time>2026-04-19T12:33:02.963Z</time></trkpt><trkpt lat="45.75726094013466" lon="8.414379187196714"><ele>368.0</ele><time>2026-04-19T12:33:03.963Z</time></trkpt><trkpt lat="45.757297605579275" lon="8.414222772418963"><ele>368.75</ele><time>2026-04-19T12:33:04.963Z</time></trkpt><trkpt lat="45.75733419829667" lon="8.414064367201158"><ele>369.5</ele><time>2026-04-19T12:33:05.963Z</time></trkpt><trkpt lat="45.757371446400796" lon="8.41390364697414"><ele>370.25</ele><time>2026-04-19T12:33:06.963Z</time></trkpt><trkpt lat="45.757409287905965" lon="8.413742361948376"><ele>371.0</ele><time>2026-04-19T12:33:07.963Z</time></trkpt><trkpt lat="45.75744585317544" lon="8.413578618760326"><ele>371.5</ele><time>2026-04-19T12:33:08.963Z</time></trkpt><trkpt lat="45.75748498376955" lon="8.413413946249204"><ele>372.0</ele><time>2026-04-19T12:33:09.963Z</time></trkpt><trkpt lat="45.75752099192683" lon="8.413249855723818"><ele>372.5</ele><time>2026-04-19T12:33:10.963Z</time></trkpt><trkpt lat="45.75756107300589" lon="8.413082992763385"><ele>373.0</ele><time>2026-04-19T12:33:11.963Z</time></trkpt><trkpt lat="45.757596606789335" lon="8.412909146124877"><ele>373.5</ele><time>2026-04-19T12:33:12.963Z</time></trkpt><trkpt lat="45.75762821291751" lon="8.412730937472606"><ele>374.0</ele><time>2026-04-19T12:33:13.963Z</time></trkpt><trkpt lat="45.75765974719615" lon="8.412545130824018"><ele>374.5</ele><time>2026-04-19T12:33:14.963Z</time></trkpt><trkpt lat="45.757687107051375" lon="8.412350589658413"><ele>375.0</ele><time>2026-04-19T12:33:15.959Z</time></trkpt><trkpt lat="45.75771131102732" lon="8.412148241936022"><ele>375.6666666666667</ele><time>2026-04-19T12:33:16.959Z</time></trkpt><trkpt lat="45.757724869103335" lon="8.41193407717593"><ele>376.33333333333337</ele><time>2026-04-19T12:33:17.959Z</time></trkpt><trkpt lat="45.757741279866515" lon="8.411715149435565"><ele>377.0</ele><time>2026-04-19T12:33:18.959Z</time></trkpt><trkpt lat="45.75776153734978" lon="8.411492601490583"><ele>376.33333333333337</ele><time>2026-04-19T12:33:19.959Z</time></trkpt><trkpt lat="45.75778068601234" lon="8.411268204802834"><ele>375.6666666666667</ele><time>2026-04-19T12:33:20.959Z</time></trkpt><trkpt lat="45.757805871484436" lon="8.41103772909291"><ele>375.0</ele><time>2026-04-19T12:33:21.96Z</time></trkpt><trkpt lat="45.75783325089958" lon="8.410801959088419"><ele>375.0</ele><time>2026-04-19T12:33:22.959Z</time></trkpt><trkpt lat="45.757857175079586" lon="8.410565971534389"><ele>375.0</ele><time>2026-04-19T12:33:23.959Z</time></trkpt><trkpt lat="45.757882259737336" lon="8.41032873677452"><ele>375.0</ele><time>2026-04-19T12:33:24.96Z</time></trkpt><trkpt lat="45.75791067824378" lon="8.41008949303846"><ele>374.3333333333333</ele><time>2026-04-19T12:33:25.959Z</time></trkpt><trkpt lat="45.75793580793764" lon="8.409847363920067"><ele>373.66666666666663</ele><time>2026-04-19T12:33:26.959Z</time></trkpt><trkpt lat="45.75795931730823" lon="8.40960606562413"><ele>373.0</ele><time>2026-04-19T12:33:27.959Z</time></trkpt><trkpt lat="45.75798371003727" lon="8.409362232482527"><ele>374.66666666666663</ele><time>2026-04-19T12:33:28.959Z</time></trkpt><trkpt lat="45.758008617262355" lon="8.409115669187893"><ele>376.3333333333333</ele><time>2026-04-19T12:33:29.959Z</time></trkpt><trkpt lat="45.758033236867256" lon="8.40886775012624"><ele>378.0</ele><time>2026-04-19T12:33:30.959Z</time></trkpt><trkpt lat="45.758061351517256" lon="8.408622219778074"><ele>379.0</ele><time>2026-04-19T12:33:31.96Z</time></trkpt><trkpt lat="45.75808922999644" lon="8.408376662291605"><ele>380.0</ele><time>2026-04-19T12:33:32.96Z</time></trkpt><trkpt lat="45.75811545523736" lon="8.408130058930691"><ele>381.0</ele><time>2026-04-19T12:33:33.96Z</time></trkpt><trkpt lat="45.75813841453547" lon="8.40788492427252"><ele>381.6666666666667</ele><time>2026-04-19T12:33:34.96Z</time></trkpt><trkpt lat="45.758160919554975" lon="8.407642199882908"><ele>382.33333333333337</ele><time>2026-04-19T12:33:35.96Z</time></trkpt><trkpt lat="45.75818183993065" lon="8.40739827932374"><ele>383.0</ele><time>2026-04-19T12:33:36.96Z</time></trkpt><trkpt lat="45.75820669384861" lon="8.40715699256521"><ele>383.33333333333337</ele><time>2026-04-19T12:33:37.96Z</time></trkpt><trkpt lat="45.75822811899582" lon="8.406909813778798"><ele>383.6666666666667</ele><time>2026-04-19T12:33:38.96Z</time></trkpt><trkpt lat="45.758252599863575" lon="8.406660602643111"><ele>384.0</ele><time>2026-04-19T12:33:39.96Z</time></trkpt><trkpt lat="45.75827607761926" lon="8.406410533665815"><ele>384.33333333333337</ele><time>2026-04-19T12:33:40.96Z</time></trkpt><trkpt lat="45.75829811480083" lon="8.406162045179917"><ele>384.6666666666667</ele><time>2026-04-19T12:33:41.96Z</time></trkpt><trkpt lat="45.75831952169502" lon="8.405914195608528"><ele>385.0</ele><time>2026-04-19T12:33:42.96Z</time></trkpt><trkpt lat="45.7583411344873" lon="8.405667067000488"><ele>385.33333333333337</ele><time>2026-04-19T12:33:43.96Z</time></trkpt><trkpt lat="45.75836622866454" lon="8.405419197170856"><ele>385.66666666666663</ele><time>2026-04-19T12:33:44.96Z</time></trkpt><trkpt lat="45.7583906914929" lon="8.405179695513363"><ele>386.0</ele><time>2026-04-19T12:33:45.96Z</time></trkpt><trkpt lat="45.75841641061173" lon="8.404949805225147"><ele>386.0</ele><time>2026-04-19T12:33:46.96Z</time></trkpt><trkpt lat="45.758437528206954" lon="8.404722134216781"><ele>386.0</ele><time>2026-04-19T12:33:47.96Z</time></trkpt><trkpt lat="45.75845373063778" lon="8.404497656855142"><ele>386.0</ele><time>2026-04-19T12:33:48.96Z</time></trkpt><trkpt lat="45.75846692363565" lon="8.404273425942199"><ele>386.0</ele><time>2026-04-19T12:33:49.96Z</time></trkpt><trkpt lat="45.75846676486207" lon="8.404051921351975"><ele>386.0</ele><time>2026-04-19T12:33:50.96Z</time></trkpt><trkpt lat="45.758446914072145" lon="8.403836787937042"><ele>386.0</ele><time>2026-04-19T12:33:51.96Z</time></trkpt><trkpt lat="45.758413457717914" lon="8.403623612221919"><ele>385.66666666666663</ele><time>2026-04-19T12:33:52.96Z</time></trkpt><trkpt lat="45.75837238880262" lon="8.403408314495605"><ele>385.33333333333337</ele><time>2026-04-19T12:33:53.96Z</time></trkpt><trkpt lat="45.75832277803159" lon="8.403186549162093"><ele>385.0</ele><time>2026-04-19T12:33:54.96Z</time></trkpt><trkpt lat="45.758267738570204" lon="8.402963730402611"><ele>384.33333333333337</ele><time>2026-04-19T12:33:55.96Z</time></trkpt><trkpt lat="45.75820120620386" lon="8.402745421973119"><ele>383.6666666666667</ele><time>2026-04-19T12:33:56.96Z</time></trkpt><trkpt lat="45.75812132907459" lon="8.40252773318927"><ele>383.0</ele><time>2026-04-19T12:33:57.96Z</time></trkpt><trkpt lat="45.75803710123497" lon="8.402313683342747"><ele>382.33333333333337</ele><time>2026-04-19T12:33:58.96Z</time></trkpt><trkpt lat="45.7579529635957" lon="8.402100283739761"><ele>381.6666666666667</ele><time>2026-04-19T12:33:59.96Z</time></trkpt><trkpt lat="45.75787231920002" lon="8.401883523865182"><ele>381.0</ele><time>2026-04-19T12:34:00.96Z</time></trkpt><trkpt lat="45.757802981526126" lon="8.401660300029668"><ele>381.0</ele><time>2026-04-19T12:34:01.96Z</time></trkpt><trkpt lat="45.75774715257804" lon="8.401426750446419"><ele>381.0</ele><time>2026-04-19T12:34:02.96Z</time></trkpt><trkpt lat="45.75769706368358" lon="8.401191089613336"><ele>381.0</ele><time>2026-04-19T12:34:03.96Z</time></trkpt><trkpt lat="45.757653846394895" lon="8.400954471516867"><ele>386.0</ele><time>2026-04-19T12:34:04.96Z</time></trkpt><trkpt lat="45.75760829331212" lon="8.400725167365268"><ele>391.0</ele><time>2026-04-19T12:34:05.96Z</time></trkpt><trkpt lat="45.75756383970569" lon="8.40049951322926"><ele>396.0</ele><time>2026-04-19T12:34:06.96Z</time></trkpt><trkpt lat="45.757519038170166" lon="8.400280183731626"><ele>396.0</ele><time>2026-04-19T12:34:07.96Z</time></trkpt><trkpt lat="45.75747352886256" lon="8.400061218197905"><ele>396.0</ele><time>2026-04-19T12:34:08.96Z</time></trkpt><trkpt lat="45.75743524252209" lon="8.399844905073545"><ele>396.0</ele><time>2026-04-19T12:34:09.96Z</time></trkpt><trkpt lat="45.757415352859184" lon="8.399625276418888"><ele>394.66666666666663</ele><time>2026-04-19T12:34:10.96Z</time></trkpt><trkpt lat="45.75740661678362" lon="8.399403794023204"><ele>393.3333333333333</ele><time>2026-04-19T12:34:11.96Z</time></trkpt><trkpt lat="45.7574064309149" lon="8.39918357215426"><ele>392.0</ele><time>2026-04-19T12:34:12.96Z</time></trkpt><trkpt lat="45.75739823176918" lon="8.398975144729373"><ele>391.0</ele><time>2026-04-19T12:34:13.96Z</time></trkpt><trkpt lat="45.757372264504596" lon="8.398771729559979"><ele>390.0</ele><time>2026-04-19T12:34:14.96Z</time></trkpt><trkpt lat="45.757321578090554" lon="8.39858075886031"><ele>389.0</ele><time>2026-04-19T12:34:15.96Z</time></trkpt><trkpt lat="45.75727089130316" lon="8.398383883640797"><ele>388.0</ele><time>2026-04-19T12:34:16.961Z</time></trkpt><trkpt lat="45.757225542110874" lon="8.398178856626046"><ele>387.6666666666667</ele><time>2026-04-19T12:34:17.961Z</time></trkpt><trkpt lat="45.75717704282062" lon="8.397969475712538"><ele>387.33333333333337</ele><time>2026-04-19T12:34:18.961Z</time></trkpt><trkpt lat="45.75714000800762" lon="8.39775527613128"><ele>387.0</ele><time>2026-04-19T12:34:19.961Z</time></trkpt><trkpt lat="45.75711793417622" lon="8.397528529995093"><ele>387.0</ele><time>2026-04-19T12:34:20.961Z</time></trkpt><trkpt lat="45.757091670076925" lon="8.39730586568942"><ele>387.0</ele><time>2026-04-19T12:34:21.961Z</time></trkpt><trkpt lat="45.75706332812336" lon="8.397080975345455"><ele>387.0</ele><time>2026-04-19T12:34:22.961Z</time></trkpt><trkpt lat="45.75703758435766" lon="8.396860474782697"><ele>387.33333333333337</ele><time>2026-04-19T12:34:23.961Z</time></trkpt><trkpt lat="45.75701049277339" lon="8.396641525065792"><ele>387.6666666666667</ele><time>2026-04-19T12:34:24.961Z</time></trkpt><trkpt lat="45.75696588818384" lon="8.39643068648073"><ele>388.0</ele><time>2026-04-19T12:34:25.961Z</time></trkpt><trkpt lat="45.7569059480787" lon="8.396229888792298"><ele>393.0</ele><time>2026-04-19T12:34:26.961Z</time></trkpt><trkpt lat="45.756835779697695" lon="8.396036341607202"><ele>398.0</ele><time>2026-04-19T12:34:27.961Z</time></trkpt><trkpt lat="45.75676690032637" lon="8.395853886982978"><ele>403.0</ele><time>2026-04-19T12:34:28.961Z</time></trkpt><trkpt lat="45.756701081187515" lon="8.395674473800652"><ele>408.0</ele><time>2026-04-19T12:34:29.961Z</time></trkpt><trkpt lat="45.75664580919108" lon="8.395494720522155"><ele>408.0</ele><time>2026-04-19T12:34:30.961Z</time></trkpt><trkpt lat="45.75658997558173" lon="8.395322704416134"><ele>408.0</ele><time>2026-04-19T12:34:31.961Z</time></trkpt><trkpt lat="45.75653146880362" lon="8.395154531092288"><ele>408.0</ele><time>2026-04-19T12:34:32.961Z</time></trkpt><trkpt lat="45.756474366656796" lon="8.394991452181307"><ele>408.0</ele><time>2026-04-19T12:34:33.961Z</time></trkpt><trkpt lat="45.756434895726954" lon="8.39483883602506"><ele>408.0</ele><time>2026-04-19T12:34:34.961Z</time></trkpt><trkpt lat="45.7564071335715" lon="8.394674864996869"><ele>408.0</ele><time>2026-04-19T12:34:35.961Z</time></trkpt><trkpt lat="45.75639513013803" lon="8.394502675318702"><ele>408.0</ele><time>2026-04-19T12:34:36.961Z</time></trkpt><trkpt lat="45.75638884035416" lon="8.394327814774222"><ele>408.0</ele><time>2026-04-19T12:34:37.961Z</time></trkpt><trkpt lat="45.75638397908007" lon="8.39415168287606"><ele>408.25</ele><time>2026-04-19T12:34:38.961Z</time></trkpt><trkpt lat="45.75637534587034" lon="8.393977052932767"><ele>408.5</ele><time>2026-04-19T12:34:39.961Z</time></trkpt><trkpt lat="45.756361392383745" lon="8.393801187703966"><ele>408.75</ele><time>2026-04-19T12:34:40.961Z</time></trkpt><trkpt lat="45.75634396069942" lon="8.393621378405662"><ele>409.0</ele><time>2026-04-19T12:34:41.961Z</time></trkpt><trkpt lat="45.75633881728764" lon="8.393437925217244"><ele>410.75</ele><time>2026-04-19T12:34:42.961Z</time></trkpt><trkpt lat="45.7563475912565" lon="8.393249942034421"><ele>412.5</ele><time>2026-04-19T12:34:43.961Z</time></trkpt><trkpt lat="45.75636738438791" lon="8.393061502238556"><ele>414.25</ele><time>2026-04-19T12:34:44.961Z</time></trkpt><trkpt lat="45.75638890618008" lon="8.392874074314973"><ele>416.0</ele><time>2026-04-19T12:34:45.961Z</time></trkpt><trkpt lat="45.756400966320385" lon="8.392687934839572"><ele>416.25</ele><time>2026-04-19T12:34:46.961Z</time></trkpt><trkpt lat="45.756396425330855" lon="8.392501556642856"><ele>416.5</ele><time>2026-04-19T12:34:47.961Z</time></trkpt><trkpt lat="45.756379096771845" lon="8.392317364619947"><ele>416.75</ele><time>2026-04-19T12:34:48.961Z</time></trkpt><trkpt lat="45.756354088440915" lon="8.39212869060291"><ele>417.0</ele><time>2026-04-19T12:34:49.961Z</time></trkpt><trkpt lat="45.756331213779596" lon="8.391936969753132"><ele>417.0</ele><time>2026-04-19T12:34:50.961Z</time></trkpt><trkpt lat="45.75631156761171" lon="8.391744997195559"><ele>417.0</ele><time>2026-04-19T12:34:51.961Z</time></trkpt><trkpt lat="45.75630163305672" lon="8.391550457587323"><ele>417.0</ele><time>2026-04-19T12:34:52.961Z</time></trkpt><trkpt lat="45.756296979287605" lon="8.391358023332966"><ele>417.0</ele><time>2026-04-19T12:34:53.961Z</time></trkpt><trkpt lat="45.75630041932601" lon="8.391165002360527"><ele>418.5</ele><time>2026-04-19T12:34:54.961Z</time></trkpt><trkpt lat="45.756306991180764" lon="8.39097507737831"><ele>420.0</ele><time>2026-04-19T12:34:55.961Z</time></trkpt><trkpt lat="45.75630295429271" lon="8.390788538989584"><ele>421.5</ele><time>2026-04-19T12:34:56.961Z</time></trkpt><trkpt lat="45.75628566138416" lon="8.39060659880592"><ele>423.0</ele><time>2026-04-19T12:34:57.961Z</time></trkpt><trkpt lat="45.75625395099766" lon="8.390431153125693"><ele>425.25</ele><time>2026-04-19T12:34:58.961Z</time></trkpt><trkpt lat="45.756209080659" lon="8.390263397866143"><ele>427.5</ele><time>2026-04-19T12:34:59.961Z</time></trkpt><trkpt lat="45.756155646656524" lon="8.390103744733167"><ele>429.75</ele><time>2026-04-19T12:35:00.961Z</time></trkpt><trkpt lat="45.756091694304345" lon="8.389956654587431"><ele>432.0</ele><time>2026-04-19T12:35:01.962Z</time></trkpt><trkpt lat="45.75601758790982" lon="8.38981894917472"><ele>434.6</ele><time>2026-04-19T12:35:02.962Z</time></trkpt><trkpt lat="45.75593612643247" lon="8.389689057175767"><ele>437.20000000000005</ele><time>2026-04-19T12:35:03.962Z</time></trkpt><trkpt lat="45.75586652984395" lon="8.389557990747882"><ele>439.8</ele><time>2026-04-19T12:35:04.962Z</time></trkpt><trkpt lat="45.75581512718383" lon="8.389426607601436"><ele>442.4</ele><time>2026-04-19T12:35:05.962Z</time></trkpt><trkpt lat="45.75579139179091" lon="8.3892851471897"><ele>445.0</ele><time>2026-04-19T12:35:06.962Z</time></trkpt><trkpt lat="45.755790955524695" lon="8.389133805460142"><ele>445.2</ele><time>2026-04-19T12:35:07.962Z</time></trkpt><trkpt lat="45.75581367382639" lon="8.388980947108772"><ele>445.4</ele><time>2026-04-19T12:35:08.962Z</time></trkpt><trkpt lat="45.755855717383845" lon="8.388847114520196"><ele>445.6</ele><time>2026-04-19T12:35:09.962Z</time></trkpt><trkpt lat="45.755909252464875" lon="8.388718082281228"><ele>445.8</ele><time>2026-04-19T12:35:10.962Z</time></trkpt><trkpt lat="45.75597250752686" lon="8.388589272217823"><ele>446.0</ele><time>2026-04-19T12:35:11.962Z</time></trkpt><trkpt lat="45.75603852971459" lon="8.388458166258715"><ele>446.0</ele><time>2026-04-19T12:35:12.962Z</time></trkpt><trkpt lat="45.75610402267586" lon="8.38832354054745"><ele>446.0</ele><time>2026-04-19T12:35:13.962Z</time></trkpt><trkpt lat="45.75616815562559" lon="8.388185780033611"><ele>446.0</ele><time>2026-04-19T12:35:14.962Z</time></trkpt><trkpt lat="45.756229460996" lon="8.388046223455074"><ele>446.0</ele><time>2026-04-19T12:35:15.962Z</time></trkpt><trkpt lat="45.7562936704065" lon="8.387904451632163"><ele>447.0</ele><time>2026-04-19T12:35:16.962Z</time></trkpt><trkpt lat="45.75635863369923" lon="8.387759600808081"><ele>448.0</ele><time>2026-04-19T12:35:17.962Z</time></trkpt><trkpt lat="45.75642070905408" lon="8.387606362487324"><ele>449.0</ele><time>2026-04-19T12:35:18.962Z</time></trkpt><trkpt lat="45.75648268123811" lon="8.387452515688565"><ele>450.0</ele><time>2026-04-19T12:35:19.962Z</time></trkpt><trkpt lat="45.75654249567683" lon="8.387302587849527"><ele>451.0</ele><time>2026-04-19T12:35:20.962Z</time></trkpt><trkpt lat="45.75660515042273" lon="8.387163185968"><ele>452.0</ele><time>2026-04-19T12:35:21.958Z</time></trkpt><trkpt lat="45.75666732827267" lon="8.387026991348092"><ele>453.0</ele><time>2026-04-19T12:35:22.958Z</time></trkpt><trkpt lat="45.75673214596375" lon="8.386890549106223"><ele>454.0</ele><time>2026-04-19T12:35:23.958Z</time></trkpt><trkpt lat="45.75680160590356" lon="8.386758581749886"><ele>454.25</ele><time>2026-04-19T12:35:24.958Z</time></trkpt><trkpt lat="45.75687199608645" lon="8.386625768018435"><ele>454.5</ele><time>2026-04-19T12:35:25.958Z</time></trkpt><trkpt lat="45.756938435698935" lon="8.386491346485219"><ele>454.75</ele><time>2026-04-19T12:35:26.958Z</time></trkpt><trkpt lat="45.75700145238356" lon="8.386352464927729"><ele>455.0</ele><time>2026-04-19T12:35:27.959Z</time></trkpt><trkpt lat="45.75706865506596" lon="8.386220839322846"><ele>456.25</ele><time>2026-04-19T12:35:28.958Z</time></trkpt><trkpt lat="45.757139920277986" lon="8.386088554685424"><ele>457.5</ele><time>2026-04-19T12:35:29.958Z</time></trkpt><trkpt lat="45.75720893351382" lon="8.385958398753223"><ele>458.75</ele><time>2026-04-19T12:35:30.958Z</time></trkpt><trkpt lat="45.75728007185093" lon="8.385825862736421"><ele>460.0</ele><time>2026-04-19T12:35:31.958Z</time></trkpt><trkpt lat="45.7573477205496" lon="8.38569366037516"><ele>460.0</ele><time>2026-04-19T12:35:32.958Z</time></trkpt><trkpt lat="45.75741529278173" lon="8.385564333251827"><ele>460.0</ele><time>2026-04-19T12:35:33.959Z</time></trkpt><trkpt lat="45.75747945941673" lon="8.385433304218788"><ele>460.0</ele><time>2026-04-19T12:35:34.958Z</time></trkpt><trkpt lat="45.757545114566305" lon="8.385299328022047"><ele>460.0</ele><time>2026-04-19T12:35:35.958Z</time></trkpt><trkpt lat="45.75760981686045" lon="8.385169739816853"><ele>459.8</ele><time>2026-04-19T12:35:36.958Z</time></trkpt><trkpt lat="45.75767876267213" lon="8.385040517425502"><ele>459.6</ele><time>2026-04-19T12:35:37.958Z</time></trkpt><trkpt lat="45.757742596120096" lon="8.384911397269933"><ele>459.4</ele><time>2026-04-19T12:35:38.958Z</time></trkpt><trkpt lat="45.757808087766165" lon="8.38478098924687"><ele>459.2</ele><time>2026-04-19T12:35:39.958Z</time></trkpt><trkpt lat="45.75787330824104" lon="8.38465486383349"><ele>459.0</ele><time>2026-04-19T12:35:40.958Z</time></trkpt><trkpt lat="45.757939137999664" lon="8.384533872951687"><ele>459.0</ele><time>2026-04-19T12:35:41.958Z</time></trkpt><trkpt lat="45.758004290167854" lon="8.384416302455694"><ele>459.0</ele><time>2026-04-19T12:35:42.958Z</time></trkpt><trkpt lat="45.75806816914338" lon="8.384297061644803"><ele>459.0</ele><time>2026-04-19T12:35:43.958Z</time></trkpt><trkpt lat="45.758124488428244" lon="8.38418195934266"><ele>459.0</ele><time>2026-04-19T12:35:44.958Z</time></trkpt><trkpt lat="45.758175648286254" lon="8.3840753097437"><ele>459.0</ele><time>2026-04-19T12:35:45.958Z</time></trkpt><trkpt lat="45.75822573951457" lon="8.383978352749331"><ele>459.0</ele><time>2026-04-19T12:35:46.958Z</time></trkpt><trkpt lat="45.75826798224127" lon="8.383882547964905"><ele>459.0</ele><time>2026-04-19T12:35:47.958Z</time></trkpt><trkpt lat="45.75828671264035" lon="8.383790027323629"><ele>459.0</ele><time>2026-04-19T12:35:48.958Z</time></trkpt><trkpt lat="45.7582527099023" lon="8.383614892962036"><ele>459.0</ele><time>2026-04-19T12:35:50.958Z</time></trkpt><trkpt lat="45.75820043795023" lon="8.383533024111463"><ele>459.0</ele><time>2026-04-19T12:35:51.958Z</time></trkpt><trkpt lat="45.758136703019275" lon="8.38346242424257"><ele>459.0</ele><time>2026-04-19T12:35:52.958Z</time></trkpt><trkpt lat="45.758072239875666" lon="8.383391018723545"><ele>459.5</ele><time>2026-04-19T12:35:53.958Z</time></trkpt><trkpt lat="45.75800175333426" lon="8.383314969906555"><ele>460.0</ele><time>2026-04-19T12:35:54.958Z</time></trkpt><trkpt lat="45.757933951399" lon="8.383243153873591"><ele>460.5</ele><time>2026-04-19T12:35:55.958Z</time></trkpt><trkpt lat="45.75786464552724" lon="8.383168195622744"><ele>461.0</ele><time>2026-04-19T12:35:56.958Z</time></trkpt><trkpt lat="45.75780063536475" lon="8.383094115430666"><ele>461.5</ele><time>2026-04-19T12:35:57.958Z</time></trkpt><trkpt lat="45.75773237974649" lon="8.383020498961423"><ele>462.0</ele><time>2026-04-19T12:35:58.958Z</time></trkpt><trkpt lat="45.75766493713823" lon="8.382944027536473"><ele>462.40000000000003</ele><time>2026-04-19T12:35:59.958Z</time></trkpt><trkpt lat="45.75759866128961" lon="8.38286589523838"><ele>462.80000000000007</ele><time>2026-04-19T12:36:00.959Z</time></trkpt><trkpt lat="45.757523652567556" lon="8.38278867195931"><ele>463.2</ele><time>2026-04-19T12:36:01.959Z</time></trkpt><trkpt lat="45.75744634861488" lon="8.382710585371214"><ele>463.6</ele><time>2026-04-19T12:36:02.959Z</time></trkpt><trkpt lat="45.7573728925237" lon="8.382630090515752"><ele>464.0</ele><time>2026-04-19T12:36:03.959Z</time></trkpt><trkpt lat="45.75730375027905" lon="8.38255082294081"><ele>464.0</ele><time>2026-04-19T12:36:04.959Z</time></trkpt><trkpt lat="45.75722913667764" lon="8.382479382783995"><ele>464.0</ele><time>2026-04-19T12:36:05.959Z</time></trkpt><trkpt lat="45.75715679447618" lon="8.382398281333321"><ele>464.0</ele><time>2026-04-19T12:36:06.959Z</time></trkpt><trkpt lat="45.757080796242235" lon="8.38231178785332"><ele>464.0</ele><time>2026-04-19T12:36:07.959Z</time></trkpt><trkpt lat="45.75700518643211" lon="8.382221397982955"><ele>464.0</ele><time>2026-04-19T12:36:08.959Z</time></trkpt><trkpt lat="45.7569261934066" lon="8.382135563559174"><ele>464.6</ele><time>2026-04-19T12:36:09.959Z</time></trkpt><trkpt lat="45.756842848549766" lon="8.382048467775917"><ele>465.2</ele><time>2026-04-19T12:36:10.959Z</time></trkpt><trkpt lat="45.756762434537684" lon="8.381958072606352"><ele>465.80000000000007</ele><time>2026-04-19T12:36:11.959Z</time></trkpt><trkpt lat="45.756681525280484" lon="8.381864558640709"><ele>466.40000000000003</ele><time>2026-04-19T12:36:12.959Z</time></trkpt><trkpt lat="45.75659984597475" lon="8.381773610199959"><ele>467.0</ele><time>2026-04-19T12:36:13.959Z</time></trkpt><trkpt lat="45.75651329589292" lon="8.38168121718954"><ele>467.0</ele><time>2026-04-19T12:36:14.959Z</time></trkpt><trkpt lat="45.75643375640468" lon="8.381586970741587"><ele>467.00000000000006</ele><time>2026-04-19T12:36:15.959Z</time></trkpt><trkpt lat="45.75635242519241" lon="8.381489388098863"><ele>467.00000000000006</ele><time>2026-04-19T12:36:16.959Z</time></trkpt><trkpt lat="45.75626718164712" lon="8.38139567136553"><ele>467.0</ele><time>2026-04-19T12:36:17.959Z</time></trkpt><trkpt lat="45.756178664086235" lon="8.381301709634375"><ele>467.0</ele><time>2026-04-19T12:36:18.959Z</time></trkpt><trkpt lat="45.75608801576727" lon="8.38120801846495"><ele>467.5</ele><time>2026-04-19T12:36:19.959Z</time></trkpt><trkpt lat="45.75599772058006" lon="8.381112181120281"><ele>468.0</ele><time>2026-04-19T12:36:20.959Z</time></trkpt><trkpt lat="45.75590701118229" lon="8.38101552365859"><ele>468.5</ele><time>2026-04-19T12:36:21.959Z</time></trkpt><trkpt lat="45.75581646020872" lon="8.380918081462937"><ele>469.0</ele><time>2026-04-19T12:36:22.959Z</time></trkpt><trkpt lat="45.755723547589376" lon="8.380824671245472"><ele>469.0</ele><time>2026-04-19T12:36:23.959Z</time></trkpt><trkpt lat="45.75563036728424" lon="8.38073126531285"><ele>469.0</ele><time>2026-04-19T12:36:24.959Z</time></trkpt><trkpt lat="45.75553082831667" lon="8.380649671584212"><ele>469.0</ele><time>2026-04-19T12:36:25.959Z</time></trkpt><trkpt lat="45.7554250416843" lon="8.380576967124698"><ele>469.0</ele><time>2026-04-19T12:36:26.959Z</time></trkpt><trkpt lat="45.755314110589296" lon="8.380513763660202"><ele>470.0</ele><time>2026-04-19T12:36:27.959Z</time></trkpt><trkpt lat="45.755200959257685" lon="8.380452994660821"><ele>471.0</ele><time>2026-04-19T12:36:28.959Z</time></trkpt><trkpt lat="45.75508374233319" lon="8.380400173090244"><ele>472.0</ele><time>2026-04-19T12:36:29.959Z</time></trkpt><trkpt lat="45.75496383167202" lon="8.380360835366494"><ele>473.0</ele><time>2026-04-19T12:36:30.959Z</time></trkpt><trkpt lat="45.75484084344861" lon="8.380334325817616"><ele>473.0</ele><time>2026-04-19T12:36:31.959Z</time></trkpt><trkpt lat="45.75472269177403" lon="8.38032055942073"><ele>473.0</ele><time>2026-04-19T12:36:32.959Z</time></trkpt><trkpt lat="45.75460500248686" lon="8.380321160169824"><ele>473.0</ele><time>2026-04-19T12:36:33.959Z</time></trkpt><trkpt lat="45.75448934181715" lon="8.380328552430983"><ele>473.0</ele><time>2026-04-19T12:36:34.959Z</time></trkpt><trkpt lat="45.754367621828024" lon="8.380344653890052"><ele>473.0</ele><time>2026-04-19T12:36:35.959Z</time></trkpt><trkpt lat="45.75424563364429" lon="8.380363926535605"><ele>473.0</ele><time>2026-04-19T12:36:36.959Z</time></trkpt><trkpt lat="45.75412147067451" lon="8.380391239606412"><ele>473.0</ele><time>2026-04-19T12:36:37.959Z</time></trkpt><trkpt lat="45.7539952450249" lon="8.380423983660627"><ele>473.0</ele><time>2026-04-19T12:36:38.959Z</time></trkpt><trkpt lat="45.75387564912247" lon="8.380456810358638"><ele>473.0</ele><time>2026-04-19T12:36:39.959Z</time></trkpt><trkpt lat="45.753756694118074" lon="8.380489098049305"><ele>473.0</ele><time>2026-04-19T12:36:40.959Z</time></trkpt><trkpt lat="45.7536395264998" lon="8.38051793721718"><ele>473.0</ele><time>2026-04-19T12:36:41.959Z</time></trkpt><trkpt lat="45.753522383591516" lon="8.380543255118303"><ele>473.0</ele><time>2026-04-19T12:36:42.959Z</time></trkpt><trkpt lat="45.75340482701313" lon="8.380572544436623"><ele>471.0</ele><time>2026-04-19T12:36:43.959Z</time></trkpt><trkpt lat="45.75328617708324" lon="8.380605830787836"><ele>469.0</ele><time>2026-04-19T12:36:44.959Z</time></trkpt><trkpt lat="45.753165229227676" lon="8.380633855702369"><ele>467.0</ele><time>2026-04-19T12:36:45.96Z</time></trkpt><trkpt lat="45.75304515251709" lon="8.380660269635035"><ele>465.0</ele><time>2026-04-19T12:36:46.96Z</time></trkpt><trkpt lat="45.75292575534924" lon="8.380688737499694"><ele>465.0</ele><time>2026-04-19T12:36:47.96Z</time></trkpt><trkpt lat="45.75280560955599" lon="8.38072050111058"><ele>465.0</ele><time>2026-04-19T12:36:48.96Z</time></trkpt><trkpt lat="45.75268708526383" lon="8.380752952710651"><ele>465.0</ele><time>2026-04-19T12:36:49.96Z</time></trkpt><trkpt lat="45.75256749745577" lon="8.380787079884625"><ele>465.0</ele><time>2026-04-19T12:36:50.96Z</time></trkpt><trkpt lat="45.752447973735826" lon="8.380820257087592"><ele>467.25</ele><time>2026-04-19T12:36:51.96Z</time></trkpt><trkpt lat="45.75232952894298" lon="8.380851440549563"><ele>469.5</ele><time>2026-04-19T12:36:52.96Z</time></trkpt><trkpt lat="45.75220889482492" lon="8.380879188230216"><ele>471.75</ele><time>2026-04-19T12:36:53.96Z</time></trkpt><trkpt lat="45.75208873026789" lon="8.3809092805584"><ele>474.0</ele><time>2026-04-19T12:36:54.96Z</time></trkpt><trkpt lat="45.75196537829217" lon="8.380941052896816"><ele>475.25</ele><time>2026-04-19T12:36:55.96Z</time></trkpt><trkpt lat="45.751842425941255" lon="8.380966334408052"><ele>476.5</ele><time>2026-04-19T12:36:56.96Z</time></trkpt><trkpt lat="45.75172334401604" lon="8.381000964826104"><ele>477.75</ele><time>2026-04-19T12:36:57.96Z</time></trkpt><trkpt lat="45.751598739334625" lon="8.381034847962537"><ele>479.0</ele><time>2026-04-19T12:36:58.96Z</time></trkpt><trkpt lat="45.751474203009636" lon="8.381068666293565"><ele>479.0</ele><time>2026-04-19T12:36:59.96Z</time></trkpt><trkpt lat="45.75135150358007" lon="8.381100517222777"><ele>479.0</ele><time>2026-04-19T12:37:00.96Z</time></trkpt><trkpt lat="45.751225142139006" lon="8.381135033913386"><ele>479.0</ele><time>2026-04-19T12:37:01.96Z</time></trkpt><trkpt lat="45.75109710603582" lon="8.381167896956558"><ele>479.0</ele><time>2026-04-19T12:37:02.96Z</time></trkpt><trkpt lat="45.75097432345081" lon="8.381197195041823"><ele>480.25</ele><time>2026-04-19T12:37:03.96Z</time></trkpt><trkpt lat="45.750856847393415" lon="8.381224369185944"><ele>481.5</ele><time>2026-04-19T12:37:04.96Z</time></trkpt><trkpt lat="45.75074406270639" lon="8.381250586052387"><ele>482.75</ele><time>2026-04-19T12:37:05.96Z</time></trkpt><trkpt lat="45.750629055531" lon="8.38127706464981"><ele>484.0</ele><time>2026-04-19T12:37:06.96Z</time></trkpt><trkpt lat="45.75051698217537" lon="8.381299159999402"><ele>484.0</ele><time>2026-04-19T12:37:07.96Z</time></trkpt><trkpt lat="45.75039940815396" lon="8.38132694540776"><ele>484.0</ele><time>2026-04-19T12:37:08.96Z</time></trkpt><trkpt lat="45.75028310267852" lon="8.38135845547177"><ele>484.0</ele><time>2026-04-19T12:37:09.96Z</time></trkpt><trkpt lat="45.750166658824845" lon="8.381391626625764"><ele>484.0</ele><time>2026-04-19T12:37:10.96Z</time></trkpt><trkpt lat="45.750044922232775" lon="8.381425851063474"><ele>482.75</ele><time>2026-04-19T12:37:11.96Z</time></trkpt><trkpt lat="45.74992189690617" lon="8.381455237122973"><ele>481.5</ele><time>2026-04-19T12:37:12.96Z</time></trkpt><trkpt lat="45.74980021463987" lon="8.381486831638327"><ele>480.25</ele><time>2026-04-19T12:37:13.96Z</time></trkpt><trkpt lat="45.74967689584004" lon="8.381524425529944"><ele>479.0</ele><time>2026-04-19T12:37:14.96Z</time></trkpt><trkpt lat="45.74955421341388" lon="8.381558005030508"><ele>479.0</ele><time>2026-04-19T12:37:15.96Z</time></trkpt><trkpt lat="45.7494277329576" lon="8.3815908076984"><ele>479.0</ele><time>2026-04-19T12:37:16.96Z</time></trkpt><trkpt lat="45.749301614328125" lon="8.381617861861367"><ele>479.0</ele><time>2026-04-19T12:37:17.96Z</time></trkpt><trkpt lat="45.74918072663323" lon="8.381653694805646"><ele>479.0</ele><time>2026-04-19T12:37:18.96Z</time></trkpt><trkpt lat="45.749063095031595" lon="8.381697111274384"><ele>479.75</ele><time>2026-04-19T12:37:19.96Z</time></trkpt><trkpt lat="45.748942863187146" lon="8.381752076881057"><ele>480.5</ele><time>2026-04-19T12:37:20.96Z</time></trkpt><trkpt lat="45.748826984975345" lon="8.381817233101845"><ele>481.25</ele><time>2026-04-19T12:37:21.96Z</time></trkpt><trkpt lat="45.74870817071409" lon="8.381882314616247"><ele>482.0</ele><time>2026-04-19T12:37:22.96Z</time></trkpt><trkpt lat="45.74858756864739" lon="8.381947704480922"><ele>482.0</ele><time>2026-04-19T12:37:23.96Z</time></trkpt><trkpt lat="45.748466381106034" lon="8.382010170746652"><ele>482.0</ele><time>2026-04-19T12:37:24.96Z</time></trkpt><trkpt lat="45.7483437950837" lon="8.38207029086197"><ele>482.0</ele><time>2026-04-19T12:37:25.96Z</time></trkpt><trkpt lat="45.7482168550309" lon="8.382110070179591"><ele>482.0</ele><time>2026-04-19T12:37:26.96Z</time></trkpt><trkpt lat="45.748085278240346" lon="8.382128226920337"><ele>482.0</ele><time>2026-04-19T12:37:27.958Z</time></trkpt><trkpt lat="45.747951725757005" lon="8.382121961539609"><ele>482.0</ele><time>2026-04-19T12:37:28.958Z</time></trkpt><trkpt lat="45.74782078553149" lon="8.382091543917843"><ele>482.0</ele><time>2026-04-19T12:37:29.958Z</time></trkpt><trkpt lat="45.74768589449609" lon="8.382065147340729"><ele>482.0</ele><time>2026-04-19T12:37:30.957Z</time></trkpt><trkpt lat="45.74755426352126" lon="8.382033050119274"><ele>481.0</ele><time>2026-04-19T12:37:31.958Z</time></trkpt><trkpt lat="45.74742735675986" lon="8.382005218856412"><ele>480.0</ele><time>2026-04-19T12:37:32.958Z</time></trkpt><trkpt lat="45.747309807457405" lon="8.381980540229861"><ele>479.0</ele><time>2026-04-19T12:37:33.958Z</time></trkpt><trkpt lat="45.74720327287205" lon="8.38198745701264"><ele>478.0</ele><time>2026-04-19T12:37:34.958Z</time></trkpt><trkpt lat="45.74710684601103" lon="8.382037396320959"><ele>478.0</ele><time>2026-04-19T12:37:35.958Z</time></trkpt><trkpt lat="45.747022601478136" lon="8.382140817544935"><ele>478.0</ele><time>2026-04-19T12:37:36.958Z</time></trkpt><trkpt lat="45.746956794955146" lon="8.38227882139108"><ele>478.0</ele><time>2026-04-19T12:37:37.958Z</time></trkpt><trkpt lat="45.74691076603246" lon="8.382439713313675"><ele>478.0</ele><time>2026-04-19T12:37:38.958Z</time></trkpt><trkpt lat="45.74687347265627" lon="8.382607847655208"><ele>480.0</ele><time>2026-04-19T12:37:39.957Z</time></trkpt><trkpt lat="45.7468322383996" lon="8.382782309704746"><ele>482.0</ele><time>2026-04-19T12:37:40.958Z</time></trkpt><trkpt lat="45.74679125583685" lon="8.382959008840876"><ele>484.0</ele><time>2026-04-19T12:37:41.958Z</time></trkpt><trkpt lat="45.74673259106643" lon="8.383131767713515"><ele>486.0</ele><time>2026-04-19T12:37:42.958Z</time></trkpt><trkpt lat="45.746657360237165" lon="8.383294207585301"><ele>486.0</ele><time>2026-04-19T12:37:43.958Z</time></trkpt><trkpt lat="45.746574003769005" lon="8.38344129942124"><ele>486.0</ele><time>2026-04-19T12:37:44.958Z</time></trkpt><trkpt lat="45.746480742164394" lon="8.383578326112804"><ele>486.0</ele><time>2026-04-19T12:37:45.958Z</time></trkpt><trkpt lat="45.74638343757153" lon="8.383701855054662"><ele>486.0</ele><time>2026-04-19T12:37:46.958Z</time></trkpt><trkpt lat="45.74627424393922" lon="8.38380365889012"><ele>488.0</ele><time>2026-04-19T12:37:47.958Z</time></trkpt><trkpt lat="45.74616193396965" lon="8.38386490846219"><ele>490.0</ele><time>2026-04-19T12:37:48.958Z</time></trkpt><trkpt lat="45.74605558196485" lon="8.38387357254178"><ele>492.0</ele><time>2026-04-19T12:37:49.958Z</time></trkpt><trkpt lat="45.74594463922317" lon="8.383852642579365"><ele>494.0</ele><time>2026-04-19T12:37:50.958Z</time></trkpt><trkpt lat="45.74582788703719" lon="8.383806532422879"><ele>494.0</ele><time>2026-04-19T12:37:51.958Z</time></trkpt><trkpt lat="45.74571633562159" lon="8.383731701926225"><ele>494.0</ele><time>2026-04-19T12:37:52.958Z</time></trkpt><trkpt lat="45.74560618240642" lon="8.383648338424996"><ele>494.0</ele><time>2026-04-19T12:37:53.958Z</time></trkpt><trkpt lat="45.74549746339673" lon="8.383581901179966"><ele>494.0</ele><time>2026-04-19T12:37:54.958Z</time></trkpt><trkpt lat="45.74539863304824" lon="8.383513878381377"><ele>494.0</ele><time>2026-04-19T12:37:55.958Z</time></trkpt><trkpt lat="45.74531725199563" lon="8.383419290727653"><ele>494.0</ele><time>2026-04-19T12:37:56.958Z</time></trkpt><trkpt lat="45.74525569841807" lon="8.383297311586615"><ele>494.0</ele><time>2026-04-19T12:37:57.958Z</time></trkpt><trkpt lat="45.745227383959936" lon="8.383155317155824"><ele>494.0</ele><time>2026-04-19T12:37:58.958Z</time></trkpt><trkpt lat="45.745238836936196" lon="8.382987751769978"><ele>494.0</ele><time>2026-04-19T12:37:59.958Z</time></trkpt><trkpt lat="45.74525791494001" lon="8.382821935252627"><ele>493.75</ele><time>2026-04-19T12:38:00.958Z</time></trkpt><trkpt lat="45.74526433369326" lon="8.382652286612316"><ele>493.5</ele><time>2026-04-19T12:38:01.958Z</time></trkpt><trkpt lat="45.74525736637544" lon="8.382470266748557"><ele>493.25</ele><time>2026-04-19T12:38:02.958Z</time></trkpt><trkpt lat="45.74523087587091" lon="8.38228944206887"><ele>493.0</ele><time>2026-04-19T12:38:03.958Z</time></trkpt><trkpt lat="45.74515585408597" lon="8.382126970827134"><ele>493.0</ele><time>2026-04-19T12:38:04.958Z</time></trkpt><trkpt lat="45.745068463902186" lon="8.381991222683979"><ele>493.0</ele><time>2026-04-19T12:38:05.958Z</time></trkpt><trkpt lat="45.74498462117016" lon="8.381854282399996"><ele>493.0</ele><time>2026-04-19T12:38:06.958Z</time></trkpt><trkpt lat="45.74492125262988" lon="8.381702198396754"><ele>493.0</ele><time>2026-04-19T12:38:07.958Z</time></trkpt><trkpt lat="45.74488478555927" lon="8.38153840620236"><ele>493.0</ele><time>2026-04-19T12:38:08.958Z</time></trkpt><trkpt lat="45.744885599172896" lon="8.381356765438309"><ele>493.0</ele><time>2026-04-19T12:38:09.958Z</time></trkpt><trkpt lat="45.74489876152842" lon="8.38117160618875"><ele>493.0</ele><time>2026-04-19T12:38:10.958Z</time></trkpt><trkpt lat="45.74490934339174" lon="8.380984412327914"><ele>493.0</ele><time>2026-04-19T12:38:11.958Z</time></trkpt><trkpt lat="45.74492053930264" lon="8.38079345666949"><ele>493.75</ele><time>2026-04-19T12:38:12.958Z</time></trkpt><trkpt lat="45.74492712276611" lon="8.380598597902997"><ele>494.5</ele><time>2026-04-19T12:38:13.958Z</time></trkpt><trkpt lat="45.74493260181614" lon="8.380399684026129"><ele>495.25</ele><time>2026-04-19T12:38:14.958Z</time></trkpt><trkpt lat="45.744928424444915" lon="8.380200962089239"><ele>496.0</ele><time>2026-04-19T12:38:15.958Z</time></trkpt><trkpt lat="45.74491392532997" lon="8.380003022645678"><ele>496.25</ele><time>2026-04-19T12:38:16.958Z</time></trkpt><trkpt lat="45.74489336380196" lon="8.37981171933935"><ele>496.5</ele><time>2026-04-19T12:38:17.958Z</time></trkpt><trkpt lat="45.74486592931006" lon="8.379626501162635"><ele>496.75</ele><time>2026-04-19T12:38:18.958Z</time></trkpt><trkpt lat="45.74483292598371" lon="8.379438420350635"><ele>497.0</ele><time>2026-04-19T12:38:19.958Z</time></trkpt><trkpt lat="45.74479331629599" lon="8.37925294122065"><ele>499.0</ele><time>2026-04-19T12:38:20.958Z</time></trkpt><trkpt lat="45.744752352409144" lon="8.379070963717618"><ele>501.0</ele><time>2026-04-19T12:38:21.958Z</time></trkpt><trkpt lat="45.74470731196274" lon="8.378889559447348"><ele>503.0</ele><time>2026-04-19T12:38:22.958Z</time></trkpt><trkpt lat="45.74465637284743" lon="8.378713735391898"><ele>505.0</ele><time>2026-04-19T12:38:23.958Z</time></trkpt><trkpt lat="45.74459068937471" lon="8.37854981604013"><ele>504.25</ele><time>2026-04-19T12:38:24.958Z</time></trkpt><trkpt lat="45.74451901175344" lon="8.37839042590775"><ele>503.5</ele><time>2026-04-19T12:38:25.959Z</time></trkpt><trkpt lat="45.744443920796684" lon="8.378228802489701"><ele>502.75</ele><time>2026-04-19T12:38:26.959Z</time></trkpt><trkpt lat="45.74436875873637" lon="8.378066482317129"><ele>502.0</ele><time>2026-04-19T12:38:27.959Z</time></trkpt><trkpt lat="45.74429165667449" lon="8.377904062927737"><ele>502.0</ele><time>2026-04-19T12:38:28.959Z</time></trkpt><trkpt lat="45.74421834600363" lon="8.37774081335741"><ele>502.0</ele><time>2026-04-19T12:38:29.959Z</time></trkpt><trkpt lat="45.74415672883936" lon="8.37757339391802"><ele>502.0</ele><time>2026-04-19T12:38:30.959Z</time></trkpt><trkpt lat="45.74411621806359" lon="8.377396058031001"><ele>502.0</ele><time>2026-04-19T12:38:31.959Z</time></trkpt><trkpt lat="45.74408775555337" lon="8.377207567857237"><ele>502.75</ele><time>2026-04-19T12:38:32.959Z</time></trkpt><trkpt lat="45.744059462555605" lon="8.377015761115246"><ele>503.5</ele><time>2026-04-19T12:38:33.959Z</time></trkpt><trkpt lat="45.74403398401637" lon="8.376822280487387"><ele>504.25</ele><time>2026-04-19T12:38:34.959Z</time></trkpt><trkpt lat="45.744001870302355" lon="8.37663109877894"><ele>505.0</ele><time>2026-04-19T12:38:35.959Z</time></trkpt><trkpt lat="45.74397588140546" lon="8.376436173704821"><ele>507.0</ele><time>2026-04-19T12:38:36.959Z</time></trkpt><trkpt lat="45.74395014695952" lon="8.37624262628538"><ele>509.0</ele><time>2026-04-19T12:38:37.959Z</time></trkpt><trkpt lat="45.743926333507964" lon="8.376050128676853"><ele>511.0</ele><time>2026-04-19T12:38:38.959Z</time></trkpt><trkpt lat="45.743902910793324" lon="8.375864240484034"><ele>513.0</ele><time>2026-04-19T12:38:39.959Z</time></trkpt><trkpt lat="45.74387603885528" lon="8.375685889375145"><ele>512.5</ele><time>2026-04-19T12:38:40.959Z</time></trkpt><trkpt lat="45.74385579445369" lon="8.375507856966232"><ele>512.0</ele><time>2026-04-19T12:38:41.959Z</time></trkpt><trkpt lat="45.743854139435335" lon="8.375332212571289"><ele>511.5</ele><time>2026-04-19T12:38:42.959Z</time></trkpt><trkpt lat="45.74388709746348" lon="8.375164133183404"><ele>511.0</ele><time>2026-04-19T12:38:43.959Z</time></trkpt><trkpt lat="45.74393876816703" lon="8.375008916706067"><ele>511.0</ele><time>2026-04-19T12:38:44.959Z</time></trkpt><trkpt lat="45.743991415720174" lon="8.37484799434991"><ele>511.0</ele><time>2026-04-19T12:38:45.959Z</time></trkpt><trkpt lat="45.744042086939146" lon="8.374676228645027"><ele>511.0</ele><time>2026-04-19T12:38:46.959Z</time></trkpt><trkpt lat="45.74409472679137" lon="8.374511936932196"><ele>511.0</ele><time>2026-04-19T12:38:47.959Z</time></trkpt><trkpt lat="45.74415781924185" lon="8.3743587772219"><ele>510.25</ele><time>2026-04-19T12:38:48.959Z</time></trkpt><trkpt lat="45.74422636828992" lon="8.374210827129827"><ele>509.5</ele><time>2026-04-19T12:38:49.959Z</time></trkpt><trkpt lat="45.7442912792565" lon="8.37405794607343"><ele>508.75</ele><time>2026-04-19T12:38:50.959Z</time></trkpt><trkpt lat="45.7443504853271" lon="8.373888428016585"><ele>508.0</ele><time>2026-04-19T12:38:51.959Z</time></trkpt><trkpt lat="45.74440233389284" lon="8.373719257003437"><ele>512.75</ele><time>2026-04-19T12:38:52.959Z</time></trkpt><trkpt lat="45.74444529478727" lon="8.373548449036768"><ele>517.5</ele><time>2026-04-19T12:38:53.959Z</time></trkpt><trkpt lat="45.74448320493721" lon="8.3733826775989"><ele>522.25</ele><time>2026-04-19T12:38:54.959Z</time></trkpt><trkpt lat="45.744530769393336" lon="8.373226249308457"><ele>527.0</ele><time>2026-04-19T12:38:55.959Z</time></trkpt><trkpt lat="45.74457272649367" lon="8.373066908307408"><ele>525.0</ele><time>2026-04-19T12:38:56.959Z</time></trkpt><trkpt lat="45.7446057817295" lon="8.372907683147536"><ele>523.0</ele><time>2026-04-19T12:38:57.959Z</time></trkpt><trkpt lat="45.74462991036706" lon="8.372746520263044"><ele>521.0</ele><time>2026-04-19T12:38:58.959Z</time></trkpt><trkpt lat="45.74467170126739" lon="8.372601475181497"><ele>519.0</ele><time>2026-04-19T12:38:59.959Z</time></trkpt><trkpt lat="45.74473934643325" lon="8.372491079244535"><ele>517.0</ele><time>2026-04-19T12:39:00.959Z</time></trkpt><trkpt lat="45.74482669603754" lon="8.372417829287814"><ele>517.0</ele><time>2026-04-19T12:39:01.959Z</time></trkpt><trkpt lat="45.74491583159567" lon="8.372359959984086"><ele>517.0</ele><time>2026-04-19T12:39:02.959Z</time></trkpt><trkpt lat="45.74499820064458" lon="8.372297965614354"><ele>517.0</ele><time>2026-04-19T12:39:03.959Z</time></trkpt><trkpt lat="45.74505819863978" lon="8.372211352512336"><ele>517.0</ele><time>2026-04-19T12:39:04.959Z</time></trkpt><trkpt lat="45.74509968555184" lon="8.37210476548626"><ele>517.0</ele><time>2026-04-19T12:39:05.959Z</time></trkpt><trkpt lat="45.74510686710717" lon="8.37199315922952"><ele>517.0</ele><time>2026-04-19T12:39:06.959Z</time></trkpt><trkpt lat="45.745083339713176" lon="8.37187627031714"><ele>517.5</ele><time>2026-04-19T12:39:07.959Z</time></trkpt><trkpt lat="45.74502451036727" lon="8.371773316133316"><ele>518.0</ele><time>2026-04-19T12:39:08.959Z</time></trkpt><trkpt lat="45.744949839327624" lon="8.371696727465208"><ele>518.5</ele><time>2026-04-19T12:39:09.959Z</time></trkpt><trkpt lat="45.74487504996595" lon="8.371666658489263"><ele>519.0</ele><time>2026-04-19T12:39:10.96Z</time></trkpt><trkpt lat="45.74479360014168" lon="8.371671773154619"><ele>519.5</ele><time>2026-04-19T12:39:11.96Z</time></trkpt><trkpt lat="45.74471161011928" lon="8.37171135200345"><ele>520.0</ele><time>2026-04-19T12:39:12.96Z</time></trkpt><trkpt lat="45.744631662788315" lon="8.3717840190898"><ele>520.0</ele><time>2026-04-19T12:39:13.96Z</time></trkpt><trkpt lat="45.744558194301156" lon="8.371839646519975"><ele>520.0</ele><time>2026-04-19T12:39:14.96Z</time></trkpt><trkpt lat="45.74448735346381" lon="8.371899034960494"><ele>520.0</ele><time>2026-04-19T12:39:15.96Z</time></trkpt><trkpt lat="45.744409536887694" lon="8.371951293203638"><ele>520.0</ele><time>2026-04-19T12:39:16.96Z</time></trkpt><trkpt lat="45.74433698567115" lon="8.371954758467444"><ele>520.0</ele><time>2026-04-19T12:39:17.96Z</time></trkpt><trkpt lat="45.7442739183602" lon="8.371893183056576"><ele>520.0</ele><time>2026-04-19T12:39:18.96Z</time></trkpt><trkpt lat="45.74422489730018" lon="8.371801187583177"><ele>519.4</ele><time>2026-04-19T12:39:19.96Z</time></trkpt><trkpt lat="45.74419700987428" lon="8.371677230048219"><ele>518.8</ele><time>2026-04-19T12:39:20.96Z</time></trkpt><trkpt lat="45.744186760962585" lon="8.371539605213748"><ele>518.2</ele><time>2026-04-19T12:39:21.96Z</time></trkpt><trkpt lat="45.74417636362856" lon="8.371390049326012"><ele>517.6</ele><time>2026-04-19T12:39:22.96Z</time></trkpt><trkpt lat="45.74415453923229" lon="8.37123123617114"><ele>517.0</ele><time>2026-04-19T12:39:23.96Z</time></trkpt><trkpt lat="45.74412369821813" lon="8.371079065800838"><ele>520.0</ele><time>2026-04-19T12:39:24.96Z</time></trkpt><trkpt lat="45.744084461465235" lon="8.370938205598108"><ele>523.0</ele><time>2026-04-19T12:39:25.96Z</time></trkpt><trkpt lat="45.744034704327014" lon="8.370792102434178"><ele>526.0</ele><time>2026-04-19T12:39:26.96Z</time></trkpt><trkpt lat="45.743985825199424" lon="8.37064168247544"><ele>529.0</ele><time>2026-04-19T12:39:27.96Z</time></trkpt><trkpt lat="45.74394928191648" lon="8.370478280306894"><ele>530.5</ele><time>2026-04-19T12:39:28.96Z</time></trkpt><trkpt lat="45.7439253230975" lon="8.3703019254209"><ele>532.0</ele><time>2026-04-19T12:39:29.96Z</time></trkpt><trkpt lat="45.743912337076495" lon="8.37011972220943"><ele>533.5</ele><time>2026-04-19T12:39:30.96Z</time></trkpt><trkpt lat="45.7439125546391" lon="8.369933520149992"><ele>535.0</ele><time>2026-04-19T12:39:31.96Z</time></trkpt><trkpt lat="45.74392137133001" lon="8.369744337620991"><ele>536.5</ele><time>2026-04-19T12:39:32.96Z</time></trkpt><trkpt lat="45.74393399706084" lon="8.3695593147878"><ele>538.0</ele><time>2026-04-19T12:39:33.957Z</time></trkpt><trkpt lat="45.743934797344465" lon="8.369377534748956"><ele>539.5</ele><time>2026-04-19T12:39:34.957Z</time></trkpt><trkpt lat="45.743908844544315" lon="8.369201705259638"><ele>541.0</ele><time>2026-04-19T12:39:35.957Z</time></trkpt><trkpt lat="45.74385805794225" lon="8.369029489213236"><ele>541.0</ele><time>2026-04-19T12:39:36.957Z</time></trkpt><trkpt lat="45.74380490545067" lon="8.368863704590284"><ele>541.0</ele><time>2026-04-19T12:39:37.957Z</time></trkpt><trkpt lat="45.7437587455714" lon="8.368696383083638"><ele>541.0</ele><time>2026-04-19T12:39:38.957Z</time></trkpt><trkpt lat="45.74371428981789" lon="8.368520192884588"><ele>541.0</ele><time>2026-04-19T12:39:39.957Z</time></trkpt><trkpt lat="45.74368413394402" lon="8.36834259024865"><ele>542.5</ele><time>2026-04-19T12:39:40.957Z</time></trkpt><trkpt lat="45.74366075562632" lon="8.368155083285243"><ele>544.0</ele><time>2026-04-19T12:39:41.957Z</time></trkpt><trkpt lat="45.74364654196397" lon="8.36795694194502"><ele>545.5</ele><time>2026-04-19T12:39:42.957Z</time></trkpt><trkpt lat="45.74363934936821" lon="8.367757047876927"><ele>547.0</ele><time>2026-04-19T12:39:43.957Z</time></trkpt><trkpt lat="45.74363276941601" lon="8.367558876045498"><ele>548.25</ele><time>2026-04-19T12:39:44.957Z</time></trkpt><trkpt lat="45.743634355889384" lon="8.367358789730385"><ele>549.5</ele><time>2026-04-19T12:39:45.957Z</time></trkpt><trkpt lat="45.743646053935095" lon="8.367160712621304"><ele>550.75</ele><time>2026-04-19T12:39:46.957Z</time></trkpt><trkpt lat="45.74367062977564" lon="8.36696203680262"><ele>552.0</ele><time>2026-04-19T12:39:47.957Z</time></trkpt><trkpt lat="45.743700295437385" lon="8.366762203417112"><ele>552.0</ele><time>2026-04-19T12:39:48.957Z</time></trkpt><trkpt lat="45.743739881446025" lon="8.36656407287368"><ele>552.0</ele><time>2026-04-19T12:39:49.957Z</time></trkpt><trkpt lat="45.7437796756119" lon="8.366365248453551"><ele>552.0</ele><time>2026-04-19T12:39:50.957Z</time></trkpt><trkpt lat="45.743827493405554" lon="8.366169682324223"><ele>552.0</ele><time>2026-04-19T12:39:51.957Z</time></trkpt><trkpt lat="45.743879527359006" lon="8.365987991387897"><ele>550.75</ele><time>2026-04-19T12:39:52.957Z</time></trkpt><trkpt lat="45.743937824307" lon="8.365810245631009"><ele>549.5</ele><time>2026-04-19T12:39:53.957Z</time></trkpt><trkpt lat="45.744005984085184" lon="8.365651414455723"><ele>548.25</ele><time>2026-04-19T12:39:54.957Z</time></trkpt><trkpt lat="45.744076491626366" lon="8.365509704155066"><ele>547.0</ele><time>2026-04-19T12:39:55.957Z</time></trkpt><trkpt lat="45.7441468771799" lon="8.365381981626129"><ele>546.6</ele><time>2026-04-19T12:39:56.957Z</time></trkpt><trkpt lat="45.744213785248604" lon="8.365257041761138"><ele>546.2</ele><time>2026-04-19T12:39:57.957Z</time></trkpt><trkpt lat="45.74426268489768" lon="8.365123957492036"><ele>545.8</ele><time>2026-04-19T12:39:58.958Z</time></trkpt><trkpt lat="45.74427591269196" lon="8.364986783165676"><ele>545.4</ele><time>2026-04-19T12:39:59.958Z</time></trkpt><trkpt lat="45.744296278981764" lon="8.364847918634343"><ele>545.0</ele><time>2026-04-19T12:40:00.958Z</time></trkpt><trkpt lat="45.74424688129558" lon="8.364715746299552"><ele>548.5</ele><time>2026-04-19T12:40:01.958Z</time></trkpt><trkpt lat="45.744163457094885" lon="8.364592265031618"><ele>552.0</ele><time>2026-04-19T12:40:02.958Z</time></trkpt><trkpt lat="45.74405947011567" lon="8.364518361667713"><ele>555.5</ele><time>2026-04-19T12:40:03.958Z</time></trkpt><trkpt lat="45.74395527479426" lon="8.364449285370416"><ele>559.0</ele><time>2026-04-19T12:40:04.958Z</time></trkpt><trkpt lat="45.74387404982708" lon="8.364362541566512"><ele>559.0</ele><time>2026-04-19T12:40:05.958Z</time></trkpt><trkpt lat="45.74383422197401" lon="8.364240282052876"><ele>559.0</ele><time>2026-04-19T12:40:06.958Z</time></trkpt><trkpt lat="45.74383230825734" lon="8.364094490005817"><ele>559.0</ele><time>2026-04-19T12:40:07.958Z</time></trkpt><trkpt lat="45.74384879364099" lon="8.363940880680959"><ele>559.0</ele><time>2026-04-19T12:40:08.958Z</time></trkpt><trkpt lat="45.74388707990201" lon="8.36379944280138"><ele>559.0</ele><time>2026-04-19T12:40:09.958Z</time></trkpt><trkpt lat="45.74392690465246" lon="8.363656945904989"><ele>559.75</ele><time>2026-04-19T12:40:10.958Z</time></trkpt><trkpt lat="45.74398276456053" lon="8.363521222976017"><ele>560.5</ele><time>2026-04-19T12:40:11.958Z</time></trkpt><trkpt lat="45.74404632401168" lon="8.36338371071416"><ele>561.25</ele><time>2026-04-19T12:40:12.958Z</time></trkpt><trkpt lat="45.74409478867889" lon="8.363230608112968"><ele>562.0</ele><time>2026-04-19T12:40:13.958Z</time></trkpt><trkpt lat="45.744147711544905" lon="8.363081224640196"><ele>563.8000000000001</ele><time>2026-04-19T12:40:14.958Z</time></trkpt><trkpt lat="45.74416714399626" lon="8.36293328281027"><ele>565.6</ele><time>2026-04-19T12:40:15.958Z</time></trkpt><trkpt lat="45.74417601459206" lon="8.362777007405157"><ele>567.4000000000001</ele><time>2026-04-19T12:40:16.958Z</time></trkpt><trkpt lat="45.744167619148755" lon="8.36261662174343"><ele>569.2</ele><time>2026-04-19T12:40:17.958Z</time></trkpt><trkpt lat="45.744115872289214" lon="8.36246814544092"><ele>571.0</ele><time>2026-04-19T12:40:18.958Z</time></trkpt><trkpt lat="45.74406300916406" lon="8.362326630375039"><ele>571.0</ele><time>2026-04-19T12:40:19.958Z</time></trkpt><trkpt lat="45.74399295751862" lon="8.362211851977817"><ele>571.0</ele><time>2026-04-19T12:40:20.958Z</time></trkpt><trkpt lat="45.74390643578145" lon="8.362146015956222"><ele>571.0</ele><time>2026-04-19T12:40:21.958Z</time></trkpt><trkpt lat="45.74379321422722" lon="8.36210237420032"><ele>571.0</ele><time>2026-04-19T12:40:22.958Z</time></trkpt><trkpt lat="45.743642880500644" lon="8.362110306294598"><ele>574.25</ele><time>2026-04-19T12:40:23.958Z</time></trkpt><trkpt lat="45.74352506622085" lon="8.362077049920625"><ele>577.5</ele><time>2026-04-19T12:40:24.958Z</time></trkpt><trkpt lat="45.743397467518996" lon="8.362034573204095"><ele>580.75</ele><time>2026-04-19T12:40:25.958Z</time></trkpt><trkpt lat="45.743266715866646" lon="8.362007570351281"><ele>584.0</ele><time>2026-04-19T12:40:26.958Z</time></trkpt><trkpt lat="45.74312039560313" lon="8.362006854169586"><ele>584.0</ele><time>2026-04-19T12:40:27.958Z</time></trkpt><trkpt lat="45.74298851807543" lon="8.361998242151849"><ele>584.0</ele><time>2026-04-19T12:40:28.958Z</time></trkpt><trkpt lat="45.74285595719816" lon="8.36195791706442"><ele>584.0</ele><time>2026-04-19T12:40:29.958Z</time></trkpt><trkpt lat="45.742722265731764" lon="8.361899666660955"><ele>584.0</ele><time>2026-04-19T12:40:30.958Z</time></trkpt><trkpt lat="45.74259722224816" lon="8.36182034961224"><ele>580.75</ele><time>2026-04-19T12:40:31.958Z</time></trkpt><trkpt lat="45.7424750596668" lon="8.361721618891965"><ele>577.5</ele><time>2026-04-19T12:40:32.958Z</time></trkpt><trkpt lat="45.74235507208536" lon="8.361638747892258"><ele>574.25</ele><time>2026-04-19T12:40:33.958Z</time></trkpt><trkpt lat="45.74225580325247" lon="8.361504935368286"><ele>571.0</ele><time>2026-04-19T12:40:34.958Z</time></trkpt><trkpt lat="45.742154664986494" lon="8.361378433769184"><ele>572.25</ele><time>2026-04-19T12:40:35.958Z</time></trkpt><trkpt lat="45.74204976961836" lon="8.361265648801547"><ele>573.5</ele><time>2026-04-19T12:40:36.958Z</time></trkpt><trkpt lat="45.74194093905771" lon="8.361167144367034"><ele>574.75</ele><time>2026-04-19T12:40:37.958Z</time></trkpt><trkpt lat="45.741837999275425" lon="8.361066997802883"><ele>576.0</ele><time>2026-04-19T12:40:38.958Z</time></trkpt><trkpt lat="45.7417459843087" lon="8.360944959447984"><ele>576.0</ele><time>2026-04-19T12:40:39.958Z</time></trkpt><trkpt lat="45.74166951598539" lon="8.36079526889167"><ele>576.0</ele><time>2026-04-19T12:40:40.958Z</time></trkpt><trkpt lat="45.74161658057505" lon="8.360626497513719"><ele>576.0</ele><time>2026-04-19T12:40:41.958Z</time></trkpt><trkpt lat="45.74158296015655" lon="8.360441485824534"><ele>576.0</ele><time>2026-04-19T12:40:42.958Z</time></trkpt><trkpt lat="45.74155312206851" lon="8.360263233154352"><ele>578.5</ele><time>2026-04-19T12:40:43.959Z</time></trkpt><trkpt lat="45.741510804475965" lon="8.360093079545631"><ele>581.0</ele><time>2026-04-19T12:40:44.959Z</time></trkpt><trkpt lat="45.741467451294" lon="8.359918830000357"><ele>583.5</ele><time>2026-04-19T12:40:45.959Z</time></trkpt><trkpt lat="45.7414287551792" lon="8.359748361766377"><ele>586.0</ele><time>2026-04-19T12:40:46.959Z</time></trkpt><trkpt lat="45.74138806713863" lon="8.359576100377435"><ele>589.5</ele><time>2026-04-19T12:40:47.959Z</time></trkpt><trkpt lat="45.74134784981761" lon="8.359408243668279"><ele>593.0</ele><time>2026-04-19T12:40:48.959Z</time></trkpt><trkpt lat="45.74130637853958" lon="8.3592366683683"><ele>596.5</ele><time>2026-04-19T12:40:49.959Z</time></trkpt><trkpt lat="45.74125820938014" lon="8.35904171315423"><ele>600.0</ele><time>2026-04-19T12:40:51.099Z</time></trkpt><trkpt lat="45.741217145475865" lon="8.358869023160734"><ele>599.6666666666666</ele><time>2026-04-19T12:40:52.102Z</time></trkpt><trkpt lat="45.741175690862136" lon="8.358698689529884"><ele>599.3333333333333</ele><time>2026-04-19T12:40:53.097Z</time></trkpt><trkpt lat="45.74113321504897" lon="8.35852845440602"><ele>599.0</ele><time>2026-04-19T12:40:54.097Z</time></trkpt><trkpt lat="45.740972547541695" lon="8.357964675454847"><ele>583.5</ele><time>2026-04-19T12:40:56.959Z</time></trkpt><trkpt lat="45.74081616280472" lon="8.357481530473267"><ele>568.0</ele><time>2026-04-19T12:40:57.959Z</time></trkpt><trkpt lat="45.74072913697593" lon="8.357195149822335"><ele>568.0</ele><time>2026-04-19T12:40:58.959Z</time></trkpt><trkpt lat="45.74065717815765" lon="8.357000694295104"><ele>568.0</ele><time>2026-04-19T12:40:59.959Z</time></trkpt><trkpt lat="45.74059258052021" lon="8.356817743702756"><ele>568.0</ele><time>2026-04-19T12:41:00.959Z</time></trkpt><trkpt lat="45.74052273258908" lon="8.356619437742097"><ele>568.0</ele><time>2026-04-19T12:41:01.959Z</time></trkpt><trkpt lat="45.7404525461758" lon="8.356432628740098"><ele>568.0</ele><time>2026-04-19T12:41:02.959Z</time></trkpt><trkpt lat="45.74038488396766" lon="8.356247567761912"><ele>568.0</ele><time>2026-04-19T12:41:03.959Z</time></trkpt><trkpt lat="45.74031116863544" lon="8.356059090789218"><ele>568.0</ele><time>2026-04-19T12:41:04.959Z</time></trkpt><trkpt lat="45.740236184458674" lon="8.355870747553904"><ele>561.3333333333334</ele><time>2026-04-19T12:41:05.959Z</time></trkpt><trkpt lat="45.740155030566285" lon="8.355683212802802"><ele>554.6666666666666</ele><time>2026-04-19T12:41:06.959Z</time></trkpt><trkpt lat="45.7400775225538" lon="8.355498647407321"><ele>548.0</ele><time>2026-04-19T12:41:07.959Z</time></trkpt><trkpt lat="45.74000892611608" lon="8.355294449110731"><ele>548.0</ele><time>2026-04-19T12:41:08.959Z</time></trkpt><trkpt lat="45.73995794495815" lon="8.355085893570674"><ele>548.0</ele><time>2026-04-19T12:41:09.959Z</time></trkpt><trkpt lat="45.739949854766635" lon="8.354870645840196"><ele>548.0</ele><time>2026-04-19T12:41:10.959Z</time></trkpt><trkpt lat="45.73993909947799" lon="8.354664966328752"><ele>548.0</ele><time>2026-04-19T12:41:11.959Z</time></trkpt><trkpt lat="45.73991794449297" lon="8.354469440069666"><ele>548.0</ele><time>2026-04-19T12:41:12.959Z</time></trkpt><trkpt lat="45.739863028509056" lon="8.354303971047647"><ele>548.0</ele><time>2026-04-19T12:41:13.959Z</time></trkpt><trkpt lat="45.73979308439874" lon="8.35416529368377"><ele>548.0</ele><time>2026-04-19T12:41:14.959Z</time></trkpt><trkpt lat="45.73973532801783" lon="8.3540371232335"><ele>548.0</ele><time>2026-04-19T12:41:15.959Z</time></trkpt><trkpt lat="45.73971129301753" lon="8.3538971966162"><ele>545.4</ele><time>2026-04-19T12:41:16.959Z</time></trkpt><trkpt lat="45.73973496739237" lon="8.353756495721397"><ele>542.8</ele><time>2026-04-19T12:41:17.959Z</time></trkpt><trkpt lat="45.73979241096491" lon="8.353628001088063"><ele>540.2</ele><time>2026-04-19T12:41:18.959Z</time></trkpt><trkpt lat="45.739864312255534" lon="8.35351115903329"><ele>537.6</ele><time>2026-04-19T12:41:19.959Z</time></trkpt><trkpt lat="45.73995151459358" lon="8.353400326521204"><ele>535.0</ele><time>2026-04-19T12:41:20.959Z</time></trkpt><trkpt lat="45.740057763838095" lon="8.353312978459952"><ele>535.0</ele><time>2026-04-19T12:41:21.959Z</time></trkpt><trkpt lat="45.740188800714634" lon="8.353239282622651"><ele>535.0</ele><time>2026-04-19T12:41:22.959Z</time></trkpt><trkpt lat="45.740327487934984" lon="8.35319469351397"><ele>535.0</ele><time>2026-04-19T12:41:23.959Z</time></trkpt><trkpt lat="45.740470680590434" lon="8.353172046357598"><ele>535.0</ele><time>2026-04-19T12:41:24.959Z</time></trkpt><trkpt lat="45.740611810578685" lon="8.353206835731166"><ele>537.5</ele><time>2026-04-19T12:41:25.959Z</time></trkpt><trkpt lat="45.740741008812094" lon="8.353245938207925"><ele>540.0</ele><time>2026-04-19T12:41:26.959Z</time></trkpt><trkpt lat="45.74086685212144" lon="8.35330048473906"><ele>542.5</ele><time>2026-04-19T12:41:27.959Z</time></trkpt><trkpt lat="45.740984991359554" lon="8.353318271904316"><ele>545.0</ele><time>2026-04-19T12:41:28.959Z</time></trkpt><trkpt lat="45.7410877001549" lon="8.353274292395861"><ele>548.25</ele><time>2026-04-19T12:41:29.96Z</time></trkpt><trkpt lat="45.741181785256295" lon="8.353167470045294"><ele>551.5</ele><time>2026-04-19T12:41:30.96Z</time></trkpt><trkpt lat="45.74124041569353" lon="8.353033405871194"><ele>554.75</ele><time>2026-04-19T12:41:31.96Z</time></trkpt><trkpt lat="45.74124295005303" lon="8.35285332523483"><ele>558.0</ele><time>2026-04-19T12:41:32.96Z</time></trkpt><trkpt lat="45.74118205576444" lon="8.352682192675847"><ele>558.5</ele><time>2026-04-19T12:41:33.96Z</time></trkpt><trkpt lat="45.74110478115831" lon="8.352545315393899"><ele>559.0</ele><time>2026-04-19T12:41:34.96Z</time></trkpt><trkpt lat="45.741003848691506" lon="8.352442934010725"><ele>559.5</ele><time>2026-04-19T12:41:35.96Z</time></trkpt><trkpt lat="45.74088440100778" lon="8.352379731980745"><ele>560.0</ele><time>2026-04-19T12:41:36.96Z</time></trkpt><trkpt lat="45.74075580022938" lon="8.352363663451593"><ele>554.75</ele><time>2026-04-19T12:41:37.96Z</time></trkpt><trkpt lat="45.74061701045032" lon="8.352369523550141"><ele>549.5</ele><time>2026-04-19T12:41:38.96Z</time></trkpt><trkpt lat="45.740474083206124" lon="8.352341850738288"><ele>544.25</ele><time>2026-04-19T12:41:39.957Z</time></trkpt><trkpt lat="45.7403254125142" lon="8.3523073887976"><ele>539.0</ele><time>2026-04-19T12:41:40.956Z</time></trkpt><trkpt lat="45.74017866441029" lon="8.352282984723216"><ele>536.6666666666666</ele><time>2026-04-19T12:41:41.956Z</time></trkpt><trkpt lat="45.74002390810444" lon="8.352285874508194"><ele>534.3333333333334</ele><time>2026-04-19T12:41:42.956Z</time></trkpt><trkpt lat="45.73987403798267" lon="8.352319916039283"><ele>532.0</ele><time>2026-04-19T12:41:43.957Z</time></trkpt><trkpt lat="45.73972757372562" lon="8.352358970995423"><ele>532.0</ele><time>2026-04-19T12:41:44.957Z</time></trkpt><trkpt lat="45.7395762184848" lon="8.352407064140966"><ele>532.0</ele><time>2026-04-19T12:41:45.957Z</time></trkpt><trkpt lat="45.739428027516034" lon="8.352431058255082"><ele>532.0</ele><time>2026-04-19T12:41:46.957Z</time></trkpt><trkpt lat="45.7392833174524" lon="8.352446030347098"><ele>532.0</ele><time>2026-04-19T12:41:47.957Z</time></trkpt><trkpt lat="45.73914358820138" lon="8.352462029838458"><ele>529.5</ele><time>2026-04-19T12:41:48.957Z</time></trkpt><trkpt lat="45.73899841675817" lon="8.352479419106217"><ele>527.0</ele><time>2026-04-19T12:41:49.957Z</time></trkpt><trkpt lat="45.73886010619904" lon="8.352430175802409"><ele>524.5</ele><time>2026-04-19T12:41:50.957Z</time></trkpt><trkpt lat="45.73874120458103" lon="8.352314383211908"><ele>522.0</ele><time>2026-04-19T12:41:51.957Z</time></trkpt><trkpt lat="45.73863241162772" lon="8.352193951040443"><ele>520.0</ele><time>2026-04-19T12:41:52.957Z</time></trkpt><trkpt lat="45.738546679485815" lon="8.35202737389281"><ele>518.0</ele><time>2026-04-19T12:41:53.957Z</time></trkpt><trkpt lat="45.7384736829105" lon="8.351844966750084"><ele>516.0</ele><time>2026-04-19T12:41:54.957Z</time></trkpt><trkpt lat="45.73840711700041" lon="8.351670744213278"><ele>514.0</ele><time>2026-04-19T12:41:55.957Z</time></trkpt><trkpt lat="45.73833456087506" lon="8.351514986019094"><ele>518.5</ele><time>2026-04-19T12:41:56.957Z</time></trkpt><trkpt lat="45.738254344132095" lon="8.351365210776349"><ele>523.0</ele><time>2026-04-19T12:41:57.957Z</time></trkpt><trkpt lat="45.7381654738582" lon="8.351214020109696"><ele>527.5</ele><time>2026-04-19T12:41:58.957Z</time></trkpt><trkpt lat="45.73807397817899" lon="8.35106066678095"><ele>532.0</ele><time>2026-04-19T12:41:59.957Z</time></trkpt><trkpt lat="45.73798604504813" lon="8.35090346232735"><ele>532.0</ele><time>2026-04-19T12:42:00.957Z</time></trkpt><trkpt lat="45.737897490952385" lon="8.35074595131267"><ele>532.0</ele><time>2026-04-19T12:42:01.957Z</time></trkpt><trkpt lat="45.737806551016874" lon="8.350589043605321"><ele>532.0</ele><time>2026-04-19T12:42:02.956Z</time></trkpt><trkpt lat="45.737701080655704" lon="8.350453860653259"><ele>532.0</ele><time>2026-04-19T12:42:03.956Z</time></trkpt><trkpt lat="45.73759051856976" lon="8.350335979499715"><ele>529.25</ele><time>2026-04-19T12:42:04.956Z</time></trkpt><trkpt lat="45.73747439961219" lon="8.350235377527095"><ele>526.5</ele><time>2026-04-19T12:42:05.957Z</time></trkpt><trkpt lat="45.73735335674662" lon="8.350147361030906"><ele>523.75</ele><time>2026-04-19T12:42:06.957Z</time></trkpt><trkpt lat="45.73723336913344" lon="8.3500574406564"><ele>521.0</ele><time>2026-04-19T12:42:07.957Z</time></trkpt><trkpt lat="45.737127430557095" lon="8.349949329840085"><ele>521.0</ele><time>2026-04-19T12:42:08.957Z</time></trkpt><trkpt lat="45.73704200584955" lon="8.349813671888882"><ele>521.0</ele><time>2026-04-19T12:42:09.957Z</time></trkpt><trkpt lat="45.73699551411004" lon="8.34963952160896"><ele>521.0</ele><time>2026-04-19T12:42:10.957Z</time></trkpt><trkpt lat="45.736971860437045" lon="8.3494562327657"><ele>521.0</ele><time>2026-04-19T12:42:11.957Z</time></trkpt><trkpt lat="45.73696235932407" lon="8.349258958348157"><ele>520.75</ele><time>2026-04-19T12:42:12.957Z</time></trkpt><trkpt lat="45.73693835542468" lon="8.34906183874774"><ele>520.5</ele><time>2026-04-19T12:42:13.957Z</time></trkpt><trkpt lat="45.736898568423065" lon="8.348871308319117"><ele>520.25</ele><time>2026-04-19T12:42:14.957Z</time></trkpt><trkpt lat="45.73683354067085" lon="8.348701931799042"><ele>520.0</ele><time>2026-04-19T12:42:15.957Z</time></trkpt><trkpt lat="45.736754797082945" lon="8.348548194816837"><ele>513.5</ele><time>2026-04-19T12:42:16.957Z</time></trkpt><trkpt lat="45.7366977711851" lon="8.348380259879603"><ele>507.0</ele><time>2026-04-19T12:42:17.957Z</time></trkpt><trkpt lat="45.736664812387495" lon="8.348209144944047"><ele>500.5</ele><time>2026-04-19T12:42:18.957Z</time></trkpt><trkpt lat="45.73665901913766" lon="8.348031166278787"><ele>494.0</ele><time>2026-04-19T12:42:19.957Z</time></trkpt><trkpt lat="45.73670128385125" lon="8.34786211884323"><ele>494.75</ele><time>2026-04-19T12:42:20.957Z</time></trkpt><trkpt lat="45.73676957366817" lon="8.347723495765969"><ele>495.5</ele><time>2026-04-19T12:42:21.957Z</time></trkpt><trkpt lat="45.73685580210223" lon="8.34760369303384"><ele>496.25</ele><time>2026-04-19T12:42:22.957Z</time></trkpt><trkpt lat="45.73697081664961" lon="8.347536084161085"><ele>497.0</ele><time>2026-04-19T12:42:23.957Z</time></trkpt><trkpt lat="45.737088536771495" lon="8.347469998902003"><ele>497.0</ele><time>2026-04-19T12:42:24.957Z</time></trkpt><trkpt lat="45.7372207022271" lon="8.347398878954452"><ele>497.0</ele><time>2026-04-19T12:42:25.957Z</time></trkpt><trkpt lat="45.737346471760816" lon="8.34734753648574"><ele>497.0</ele><time>2026-04-19T12:42:26.957Z</time></trkpt><trkpt lat="45.7374756466651" lon="8.347332834858957"><ele>497.0</ele><time>2026-04-19T12:42:27.957Z</time></trkpt><trkpt lat="45.7376085553655" lon="8.347360736612226"><ele>496.5</ele><time>2026-04-19T12:42:28.957Z</time></trkpt><trkpt lat="45.7377431570662" lon="8.347417247429387"><ele>496.0</ele><time>2026-04-19T12:42:29.957Z</time></trkpt><trkpt lat="45.737869010907396" lon="8.347490601613059"><ele>495.5</ele><time>2026-04-19T12:42:30.957Z</time></trkpt><trkpt lat="45.737991081200256" lon="8.347587649344606"><ele>495.0</ele><time>2026-04-19T12:42:31.957Z</time></trkpt><trkpt lat="45.73811085874956" lon="8.347637119083169"><ele>495.0</ele><time>2026-04-19T12:42:32.957Z</time></trkpt><trkpt lat="45.738230819593475" lon="8.34760373475801"><ele>495.0</ele><time>2026-04-19T12:42:33.957Z</time></trkpt><trkpt lat="45.73833773809722" lon="8.347528488220117"><ele>495.0</ele><time>2026-04-19T12:42:34.957Z</time></trkpt><trkpt lat="45.73842792288196" lon="8.347410087048026"><ele>495.0</ele><time>2026-04-19T12:42:35.957Z</time></trkpt><trkpt lat="45.7384914132791" lon="8.347273579079953"><ele>493.0</ele><time>2026-04-19T12:42:36.957Z</time></trkpt><trkpt lat="45.738526579501325" lon="8.347102249662262"><ele>491.0</ele><time>2026-04-19T12:42:37.957Z</time></trkpt><trkpt lat="45.73852279374671" lon="8.346925346377366"><ele>489.0</ele><time>2026-04-19T12:42:38.957Z</time></trkpt><trkpt lat="45.73848078726241" lon="8.346753221523674"><ele>487.0</ele><time>2026-04-19T12:42:39.957Z</time></trkpt><trkpt lat="45.73841515901337" lon="8.346604015060397"><ele>487.0</ele><time>2026-04-19T12:42:40.957Z</time></trkpt><trkpt lat="45.73832643615173" lon="8.34647631943014"><ele>487.0</ele><time>2026-04-19T12:42:41.957Z</time></trkpt><trkpt lat="45.73822401533042" lon="8.346375542850804"><ele>487.0</ele><time>2026-04-19T12:42:42.957Z</time></trkpt><trkpt lat="45.73809130107929" lon="8.346337000068559"><ele>487.0</ele><time>2026-04-19T12:42:43.957Z</time></trkpt><trkpt lat="45.73795600537017" lon="8.346331518274043"><ele>490.75</ele><time>2026-04-19T12:42:44.957Z</time></trkpt><trkpt lat="45.73781085924337" lon="8.346320221029202"><ele>494.5</ele><time>2026-04-19T12:42:45.957Z</time></trkpt><trkpt lat="45.73767313873538" lon="8.346311023747603"><ele>498.25</ele><time>2026-04-19T12:42:46.957Z</time></trkpt><trkpt lat="45.73752395543903" lon="8.34629709772751"><ele>502.0</ele><time>2026-04-19T12:42:47.957Z</time></trkpt><trkpt lat="45.73738163126468" lon="8.346278001177431"><ele>502.0</ele><time>2026-04-19T12:42:48.957Z</time></trkpt><trkpt lat="45.737244137809135" lon="8.34626320193854"><ele>502.0</ele><time>2026-04-19T12:42:49.957Z</time></trkpt><trkpt lat="45.73711011569863" lon="8.346245881657094"><ele>502.0</ele><time>2026-04-19T12:42:50.958Z</time></trkpt><trkpt lat="45.73697360446832" lon="8.346230072221607"><ele>502.0</ele><time>2026-04-19T12:42:51.958Z</time></trkpt><trkpt lat="45.73683761133163" lon="8.346210424531737"><ele>498.0</ele><time>2026-04-19T12:42:52.958Z</time></trkpt><trkpt lat="45.736705478321355" lon="8.34616574241428"><ele>494.0</ele><time>2026-04-19T12:42:53.958Z</time></trkpt><trkpt lat="45.73657390554702" lon="8.346091847894412"><ele>490.0</ele><time>2026-04-19T12:42:54.958Z</time></trkpt><trkpt lat="45.73645030586592" lon="8.345989286380188"><ele>486.0</ele><time>2026-04-19T12:42:55.958Z</time></trkpt><trkpt lat="45.73633615488925" lon="8.345863260207846"><ele>486.0</ele><time>2026-04-19T12:42:56.958Z</time></trkpt><trkpt lat="45.73623306787741" lon="8.345715233972319"><ele>486.0</ele><time>2026-04-19T12:42:57.958Z</time></trkpt><trkpt lat="45.736139535316916" lon="8.345561045614955"><ele>486.0</ele><time>2026-04-19T12:42:58.958Z</time></trkpt><trkpt lat="45.736029972063534" lon="8.345416208035005"><ele>486.0</ele><time>2026-04-19T12:42:59.958Z</time></trkpt><trkpt lat="45.7359075862039" lon="8.34531333680487"><ele>483.5</ele><time>2026-04-19T12:43:00.958Z</time></trkpt><trkpt lat="45.73577279321878" lon="8.34524118918933"><ele>481.0</ele><time>2026-04-19T12:43:01.958Z</time></trkpt><trkpt lat="45.735638053336984" lon="8.345177889210913"><ele>478.5</ele><time>2026-04-19T12:43:02.958Z</time></trkpt><trkpt lat="45.73550226661931" lon="8.345108943796072"><ele>476.0</ele><time>2026-04-19T12:43:03.958Z</time></trkpt><trkpt lat="45.73536881270794" lon="8.345042055928245"><ele>476.0</ele><time>2026-04-19T12:43:04.958Z</time></trkpt><trkpt lat="45.735227056912834" lon="8.344981417008283"><ele>476.0</ele><time>2026-04-19T12:43:05.958Z</time></trkpt><trkpt lat="45.735098227439074" lon="8.344902537082278"><ele>476.0</ele><time>2026-04-19T12:43:06.958Z</time></trkpt><trkpt lat="45.73496478138987" lon="8.344807195934846"><ele>476.0</ele><time>2026-04-19T12:43:07.958Z</time></trkpt><trkpt lat="45.734835431190035" lon="8.344697559707813"><ele>472.3333333333333</ele><time>2026-04-19T12:43:08.958Z</time></trkpt><trkpt lat="45.73471049552362" lon="8.344574430784025"><ele>468.66666666666663</ele><time>2026-04-19T12:43:09.958Z</time></trkpt><trkpt lat="45.73460226484071" lon="8.344426880946596"><ele>465.0</ele><time>2026-04-19T12:43:10.958Z</time></trkpt><trkpt lat="45.73450111080766" lon="8.344267847700156"><ele>465.0</ele><time>2026-04-19T12:43:11.958Z</time></trkpt><trkpt lat="45.73440709361564" lon="8.344098350425453"><ele>465.0</ele><time>2026-04-19T12:43:12.958Z</time></trkpt><trkpt lat="45.73431855694472" lon="8.343918790395659"><ele>465.0</ele><time>2026-04-19T12:43:13.958Z</time></trkpt><trkpt lat="45.73423176454941" lon="8.34375319532803"><ele>465.0</ele><time>2026-04-19T12:43:14.958Z</time></trkpt><trkpt lat="45.73416864785762" lon="8.343573215786545"><ele>463.75</ele><time>2026-04-19T12:43:15.958Z</time></trkpt><trkpt lat="45.73413400997952" lon="8.343391898395662"><ele>462.5</ele><time>2026-04-19T12:43:16.958Z</time></trkpt><trkpt lat="45.73413956378108" lon="8.343197976518894"><ele>461.25</ele><time>2026-04-19T12:43:17.958Z</time></trkpt><trkpt lat="45.73416693424945" lon="8.343003346044904"><ele>460.0</ele><time>2026-04-19T12:43:18.958Z</time></trkpt><trkpt lat="45.73418912486066" lon="8.342807799405692"><ele>459.5</ele><time>2026-04-19T12:43:19.958Z</time></trkpt><trkpt lat="45.73417397329086" lon="8.342614938289671"><ele>459.0</ele><time>2026-04-19T12:43:20.958Z</time></trkpt><trkpt lat="45.73414675582678" lon="8.342421970328491"><ele>458.5</ele><time>2026-04-19T12:43:21.958Z</time></trkpt><trkpt lat="45.73410171238445" lon="8.34224503882241"><ele>458.0</ele><time>2026-04-19T12:43:22.958Z</time></trkpt><trkpt lat="45.73406595885073" lon="8.342073460589443"><ele>457.0</ele><time>2026-04-19T12:43:23.958Z</time></trkpt><trkpt lat="45.73406123812171" lon="8.34189530325721"><ele>456.0</ele><time>2026-04-19T12:43:24.958Z</time></trkpt><trkpt lat="45.73409551254204" lon="8.34172020164849"><ele>455.0</ele><time>2026-04-19T12:43:25.958Z</time></trkpt><trkpt lat="45.73416628553546" lon="8.34156234379546"><ele>454.0</ele><time>2026-04-19T12:43:26.958Z</time></trkpt><trkpt lat="45.73424755313704" lon="8.341421675171846"><ele>452.25</ele><time>2026-04-19T12:43:27.958Z</time></trkpt><trkpt lat="45.73430943820872" lon="8.341265841944809"><ele>450.5</ele><time>2026-04-19T12:43:28.958Z</time></trkpt><trkpt lat="45.73432545516676" lon="8.341096578005084"><ele>448.75</ele><time>2026-04-19T12:43:29.958Z</time></trkpt><trkpt lat="45.73429275741134" lon="8.340936082415086"><ele>447.0</ele><time>2026-04-19T12:43:30.958Z</time></trkpt><trkpt lat="45.734236260568174" lon="8.34078996199621"><ele>447.0</ele><time>2026-04-19T12:43:31.958Z</time></trkpt><trkpt lat="45.734179227509834" lon="8.340632930204832"><ele>447.0</ele><time>2026-04-19T12:43:32.958Z</time></trkpt><trkpt lat="45.734142090087175" lon="8.340452794419654"><ele>447.0</ele><time>2026-04-19T12:43:33.958Z</time></trkpt><trkpt lat="45.734127463918085" lon="8.340250499753507"><ele>447.0</ele><time>2026-04-19T12:43:34.958Z</time></trkpt><trkpt lat="45.7341342811918" lon="8.340041521308294"><ele>446.0</ele><time>2026-04-19T12:43:35.959Z</time></trkpt><trkpt lat="45.73414837462491" lon="8.339837045813827"><ele>445.0</ele><time>2026-04-19T12:43:36.959Z</time></trkpt><trkpt lat="45.73415795169604" lon="8.339625696715816"><ele>444.0</ele><time>2026-04-19T12:43:37.959Z</time></trkpt><trkpt lat="45.7341529059591" lon="8.339411231144647"><ele>443.0</ele><time>2026-04-19T12:43:38.959Z</time></trkpt><trkpt lat="45.73413459325042" lon="8.339203914365598"><ele>443.0</ele><time>2026-04-19T12:43:39.959Z</time></trkpt><trkpt lat="45.73408593427563" lon="8.339007644308062"><ele>443.0</ele><time>2026-04-19T12:43:40.959Z</time></trkpt><trkpt lat="45.734028775847484" lon="8.33881792557646"><ele>443.0</ele><time>2026-04-19T12:43:41.959Z</time></trkpt><trkpt lat="45.73395653090915" lon="8.338641757067853"><ele>443.0</ele><time>2026-04-19T12:43:42.959Z</time></trkpt><trkpt lat="45.73387437956638" lon="8.338480377959927"><ele>443.0</ele><time>2026-04-19T12:43:43.959Z</time></trkpt><trkpt lat="45.733781995691906" lon="8.338330839814049"><ele>443.0</ele><time>2026-04-19T12:43:44.959Z</time></trkpt><trkpt lat="45.733686297579744" lon="8.338183385285232"><ele>443.0</ele><time>2026-04-19T12:43:45.955Z</time></trkpt><trkpt lat="45.73358890541368" lon="8.338034105592394"><ele>443.0</ele><time>2026-04-19T12:43:46.956Z</time></trkpt><trkpt lat="45.73348750720713" lon="8.337884007654615"><ele>440.5</ele><time>2026-04-19T12:43:47.956Z</time></trkpt><trkpt lat="45.73338566321727" lon="8.337736321820396"><ele>438.0</ele><time>2026-04-19T12:43:48.956Z</time></trkpt><trkpt lat="45.73328284988545" lon="8.337592359574137"><ele>435.5</ele><time>2026-04-19T12:43:49.956Z</time></trkpt><trkpt lat="45.73318058036941" lon="8.337453948771461"><ele>433.0</ele><time>2026-04-19T12:43:50.956Z</time></trkpt><trkpt lat="45.733083134082236" lon="8.337311517662302"><ele>434.5</ele><time>2026-04-19T12:43:51.956Z</time></trkpt><trkpt lat="45.73299089633872" lon="8.337173759979176"><ele>436.0</ele><time>2026-04-19T12:43:52.955Z</time></trkpt><trkpt lat="45.732903419217976" lon="8.337041052065086"><ele>437.5</ele><time>2026-04-19T12:43:53.955Z</time></trkpt><trkpt lat="45.7328228270444" lon="8.33691095858733"><ele>439.0</ele><time>2026-04-19T12:43:54.956Z</time></trkpt><trkpt lat="45.732752200315694" lon="8.336787090816442"><ele>436.83333333333337</ele><time>2026-04-19T12:43:55.955Z</time></trkpt><trkpt lat="45.732692902464535" lon="8.336688978459318"><ele>434.6666666666667</ele><time>2026-04-19T12:43:56.955Z</time></trkpt><trkpt lat="45.73264430985884" lon="8.336611485313007"><ele>432.5</ele><time>2026-04-19T12:43:57.955Z</time></trkpt><trkpt lat="45.73258410991947" lon="8.336511958663714"><ele>430.33333333333337</ele><time>2026-04-19T12:43:59.956Z</time></trkpt><trkpt lat="45.732525513489556" lon="8.336457593976137"><ele>428.1666666666667</ele><time>2026-04-19T12:44:46.957Z</time></trkpt><trkpt lat="45.73244279398572" lon="8.336357228295796"><ele>426.0</ele><time>2026-04-19T12:44:48.957Z</time></trkpt><trkpt lat="45.732385243238376" lon="8.336287546375642"><ele>426.0</ele><time>2026-04-19T12:44:49.957Z</time></trkpt><trkpt lat="45.73232424366833" lon="8.336207038248881"><ele>426.0</ele><time>2026-04-19T12:44:50.957Z</time></trkpt><trkpt lat="45.73225745179057" lon="8.336109119584597"><ele>426.0</ele><time>2026-04-19T12:44:51.957Z</time></trkpt><trkpt lat="45.732195190299734" lon="8.335998344779387"><ele>426.0</ele><time>2026-04-19T12:44:52.957Z</time></trkpt><trkpt lat="45.732127038949734" lon="8.335878678665841"><ele>426.0</ele><time>2026-04-19T12:44:53.957Z</time></trkpt><trkpt lat="45.73206738505931" lon="8.335745161952888"><ele>426.0</ele><time>2026-04-19T12:44:54.957Z</time></trkpt><trkpt lat="45.73202288568618" lon="8.335600635302411"><ele>426.0</ele><time>2026-04-19T12:44:55.957Z</time></trkpt><trkpt lat="45.731972353244444" lon="8.335449209010184"><ele>426.0</ele><time>2026-04-19T12:44:56.957Z</time></trkpt><trkpt lat="45.731930259515046" lon="8.335297047079678"><ele>426.0</ele><time>2026-04-19T12:44:57.957Z</time></trkpt><trkpt lat="45.73188919259967" lon="8.335150956895918"><ele>423.20000000000005</ele><time>2026-04-19T12:44:58.957Z</time></trkpt><trkpt lat="45.73184555719224" lon="8.335013435991455"><ele>420.40000000000003</ele><time>2026-04-19T12:44:59.957Z</time></trkpt><trkpt lat="45.731790163964426" lon="8.33489186758379"><ele>417.6</ele><time>2026-04-19T12:45:00.957Z</time></trkpt><trkpt lat="45.73172209478284" lon="8.33477746139891"><ele>414.8</ele><time>2026-04-19T12:45:01.957Z</time></trkpt><trkpt lat="45.73163461706675" lon="8.334679486664992"><ele>412.0</ele><time>2026-04-19T12:45:02.957Z</time></trkpt><trkpt lat="45.731532587151584" lon="8.334606088940081"><ele>411.75</ele><time>2026-04-19T12:45:03.957Z</time></trkpt><trkpt lat="45.73142156067864" lon="8.334563327531406"><ele>411.5</ele><time>2026-04-19T12:45:04.957Z</time></trkpt><trkpt lat="45.731307892734385" lon="8.33453632068933"><ele>411.25</ele><time>2026-04-19T12:45:05.957Z</time></trkpt><trkpt lat="45.731191258982385" lon="8.33450625580075"><ele>411.0</ele><time>2026-04-19T12:45:06.957Z</time></trkpt><trkpt lat="45.73108289295986" lon="8.334441921275712"><ele>411.25</ele><time>2026-04-19T12:45:07.957Z</time></trkpt><trkpt lat="45.730983204608" lon="8.334334624124624"><ele>411.5</ele><time>2026-04-19T12:45:08.957Z</time></trkpt><trkpt lat="45.7309026086982" lon="8.334212106642237"><ele>411.75</ele><time>2026-04-19T12:45:09.957Z</time></trkpt><trkpt lat="45.73081931821321" lon="8.33408248710771"><ele>412.0</ele><time>2026-04-19T12:45:10.957Z</time></trkpt><trkpt lat="45.73072549511945" lon="8.333960289363679"><ele>411.0</ele><time>2026-04-19T12:45:11.957Z</time></trkpt><trkpt lat="45.73063008485224" lon="8.333836381926428"><ele>410.0</ele><time>2026-04-19T12:45:12.957Z</time></trkpt><trkpt lat="45.73053525334774" lon="8.333707317726516"><ele>409.0</ele><time>2026-04-19T12:45:13.957Z</time></trkpt><trkpt lat="45.73043550489891" lon="8.333579071979676"><ele>408.0</ele><time>2026-04-19T12:45:14.957Z</time></trkpt><trkpt lat="45.7303323187021" lon="8.333461527706175"><ele>409.0</ele><time>2026-04-19T12:45:15.957Z</time></trkpt><trkpt lat="45.730224825592764" lon="8.333353501033551"><ele>410.0</ele><time>2026-04-19T12:45:16.957Z</time></trkpt><trkpt lat="45.73012101986911" lon="8.333238609354673"><ele>411.0</ele><time>2026-04-19T12:45:17.957Z</time></trkpt><trkpt lat="45.730033378623105" lon="8.333110349076382"><ele>412.0</ele><time>2026-04-19T12:45:18.958Z</time></trkpt><trkpt lat="45.72995097717102" lon="8.332966679318323"><ele>410.0</ele><time>2026-04-19T12:45:19.958Z</time></trkpt><trkpt lat="45.729879190368166" lon="8.332809133640565"><ele>408.0</ele><time>2026-04-19T12:45:20.958Z</time></trkpt><trkpt lat="45.72981868171381" lon="8.332643947858646"><ele>406.0</ele><time>2026-04-19T12:45:21.958Z</time></trkpt><trkpt lat="45.72975370840161" lon="8.332492792231829"><ele>404.0</ele><time>2026-04-19T12:45:22.958Z</time></trkpt><trkpt lat="45.72967986971209" lon="8.332345103667"><ele>403.5</ele><time>2026-04-19T12:45:23.958Z</time></trkpt><trkpt lat="45.72959201970979" lon="8.332203689167407"><ele>403.0</ele><time>2026-04-19T12:45:24.958Z</time></trkpt><trkpt lat="45.72949715087604" lon="8.332070799674176"><ele>402.5</ele><time>2026-04-19T12:45:25.958Z</time></trkpt><trkpt lat="45.72939167563541" lon="8.331951388306267"><ele>402.0</ele><time>2026-04-19T12:45:26.958Z</time></trkpt><trkpt lat="45.72928023238323" lon="8.331838323814653"><ele>401.75</ele><time>2026-04-19T12:45:27.958Z</time></trkpt><trkpt lat="45.72917412302835" lon="8.331722739729221"><ele>401.5</ele><time>2026-04-19T12:45:28.958Z</time></trkpt><trkpt lat="45.72907154364751" lon="8.331605971163434"><ele>401.25</ele><time>2026-04-19T12:45:29.958Z</time></trkpt><trkpt lat="45.72896377548171" lon="8.33149516832861"><ele>401.0</ele><time>2026-04-19T12:45:30.958Z</time></trkpt><trkpt lat="45.72885312082009" lon="8.331391971750127"><ele>401.0</ele><time>2026-04-19T12:45:31.958Z</time></trkpt><trkpt lat="45.72873853245422" lon="8.331298050168039"><ele>401.0</ele><time>2026-04-19T12:45:32.958Z</time></trkpt><trkpt lat="45.728617734686516" lon="8.331215068011547"><ele>401.0</ele><time>2026-04-19T12:45:33.958Z</time></trkpt><trkpt lat="45.72849469784257" lon="8.331153738718143"><ele>401.0</ele><time>2026-04-19T12:45:34.958Z</time></trkpt><trkpt lat="45.72836712372152" lon="8.331098454357008"><ele>401.0</ele><time>2026-04-19T12:45:35.958Z</time></trkpt><trkpt lat="45.72824004771142" lon="8.331048225653815"><ele>401.0</ele><time>2026-04-19T12:45:36.958Z</time></trkpt><trkpt lat="45.7281125999514" lon="8.330993793726929"><ele>401.0</ele><time>2026-04-19T12:45:37.958Z</time></trkpt><trkpt lat="45.727988169106546" lon="8.330940465709382"><ele>401.0</ele><time>2026-04-19T12:45:38.958Z</time></trkpt><trkpt lat="45.72786200875287" lon="8.330892636818941"><ele>401.0</ele><time>2026-04-19T12:45:39.958Z</time></trkpt><trkpt lat="45.72773539767692" lon="8.330841577314093"><ele>401.0</ele><time>2026-04-19T12:45:40.958Z</time></trkpt><trkpt lat="45.72760521320195" lon="8.330796879483158"><ele>401.0</ele><time>2026-04-19T12:45:41.958Z</time></trkpt><trkpt lat="45.72747173901345" lon="8.330755690342501"><ele>401.0</ele><time>2026-04-19T12:45:42.958Z</time></trkpt><trkpt lat="45.72733589927889" lon="8.330717698967606"><ele>401.0</ele><time>2026-04-19T12:45:43.958Z</time></trkpt><trkpt lat="45.72719984833817" lon="8.330680494066508"><ele>401.0</ele><time>2026-04-19T12:45:44.958Z</time></trkpt><trkpt lat="45.727065513208316" lon="8.33064580067421"><ele>401.0</ele><time>2026-04-19T12:45:45.958Z</time></trkpt><trkpt lat="45.726932168278616" lon="8.330604601711185"><ele>401.0</ele><time>2026-04-19T12:45:46.958Z</time></trkpt><trkpt lat="45.726801050997395" lon="8.330550902693377"><ele>399.25</ele><time>2026-04-19T12:45:47.958Z</time></trkpt><trkpt lat="45.726674481564395" lon="8.330474169665859"><ele>397.5</ele><time>2026-04-19T12:45:48.958Z</time></trkpt><trkpt lat="45.72655400279372" lon="8.330374546794548"><ele>395.75</ele><time>2026-04-19T12:45:49.958Z</time></trkpt><trkpt lat="45.72643798586052" lon="8.330259916008867"><ele>394.0</ele><time>2026-04-19T12:45:50.958Z</time></trkpt><trkpt lat="45.7263345884582" lon="8.330128187430983"><ele>394.0</ele><time>2026-04-19T12:45:51.955Z</time></trkpt><trkpt lat="45.72624078790745" lon="8.329983880323724"><ele>394.0</ele><time>2026-04-19T12:45:52.955Z</time></trkpt><trkpt lat="45.72615065373791" lon="8.329834039940629"><ele>394.0</ele><time>2026-04-19T12:45:53.955Z</time></trkpt><trkpt lat="45.7260608407856" lon="8.329683164732144"><ele>394.0</ele><time>2026-04-19T12:45:54.954Z</time></trkpt><trkpt lat="45.72596845836491" lon="8.32953523478946"><ele>395.0</ele><time>2026-04-19T12:45:55.955Z</time></trkpt><trkpt lat="45.72587342686556" lon="8.329388055172886"><ele>396.0</ele><time>2026-04-19T12:45:56.955Z</time></trkpt><trkpt lat="45.72577921753561" lon="8.329237109689487"><ele>397.0</ele><time>2026-04-19T12:45:57.954Z</time></trkpt><trkpt lat="45.72568536319841" lon="8.329084978962705"><ele>398.0</ele><time>2026-04-19T12:45:58.955Z</time></trkpt><trkpt lat="45.72559454069591" lon="8.32893180026335"><ele>396.5</ele><time>2026-04-19T12:45:59.955Z</time></trkpt><trkpt lat="45.72550397060195" lon="8.328780678059898"><ele>395.0</ele><time>2026-04-19T12:46:00.955Z</time></trkpt><trkpt lat="45.72541272182459" lon="8.328629441641146"><ele>393.5</ele><time>2026-04-19T12:46:01.954Z</time></trkpt><trkpt lat="45.7253146646709" lon="8.328475422536538"><ele>392.0</ele><time>2026-04-19T12:46:02.954Z</time></trkpt><trkpt lat="45.725214881621746" lon="8.328327360600175"><ele>393.0</ele><time>2026-04-19T12:46:03.955Z</time></trkpt><trkpt lat="45.7251107991131" lon="8.328186495322969"><ele>394.0</ele><time>2026-04-19T12:46:04.954Z</time></trkpt><trkpt lat="45.72499919114952" lon="8.328053567350675"><ele>395.0</ele><time>2026-04-19T12:46:05.954Z</time></trkpt><trkpt lat="45.7248844059417" lon="8.32792581035277"><ele>396.0</ele><time>2026-04-19T12:46:06.954Z</time></trkpt><trkpt lat="45.72477139435553" lon="8.327796679007555"><ele>396.0</ele><time>2026-04-19T12:46:07.954Z</time></trkpt><trkpt lat="45.72466159730086" lon="8.32766984523615"><ele>396.0</ele><time>2026-04-19T12:46:08.955Z</time></trkpt><trkpt lat="45.72454964687124" lon="8.327547894435682"><ele>396.0</ele><time>2026-04-19T12:46:09.955Z</time></trkpt><trkpt lat="45.72443890277992" lon="8.32742628309986"><ele>396.0</ele><time>2026-04-19T12:46:10.955Z</time></trkpt><trkpt lat="45.724328889927435" lon="8.327303512729062"><ele>394.25</ele><time>2026-04-19T12:46:11.955Z</time></trkpt><trkpt lat="45.72422224093543" lon="8.327174446880585"><ele>392.5</ele><time>2026-04-19T12:46:12.955Z</time></trkpt><trkpt lat="45.72412475175463" lon="8.327031478154193"><ele>390.75</ele><time>2026-04-19T12:46:13.955Z</time></trkpt><trkpt lat="45.72402873887247" lon="8.326882573539448"><ele>389.0</ele><time>2026-04-19T12:46:14.955Z</time></trkpt><trkpt lat="45.72393287825758" lon="8.326729588180926"><ele>389.0</ele><time>2026-04-19T12:46:15.955Z</time></trkpt><trkpt lat="45.72383968574825" lon="8.326576611284008"><ele>389.0</ele><time>2026-04-19T12:46:16.955Z</time></trkpt><trkpt lat="45.72375038401594" lon="8.326421357708758"><ele>389.0</ele><time>2026-04-19T12:46:17.955Z</time></trkpt><trkpt lat="45.72366895858277" lon="8.326260590382544"><ele>389.0</ele><time>2026-04-19T12:46:18.955Z</time></trkpt><trkpt lat="45.72359962879872" lon="8.326087401297565"><ele>389.0</ele><time>2026-04-19T12:46:19.955Z</time></trkpt><trkpt lat="45.723547790045394" lon="8.32590321680909"><ele>389.0</ele><time>2026-04-19T12:46:20.955Z</time></trkpt><trkpt lat="45.723513800600074" lon="8.3257072385099"><ele>389.0</ele><time>2026-04-19T12:46:21.955Z</time></trkpt><trkpt lat="45.723476946845004" lon="8.325509140925622"><ele>389.0</ele><time>2026-04-19T12:46:22.955Z</time></trkpt><trkpt lat="45.723445239497856" lon="8.325313127482662"><ele>389.0</ele><time>2026-04-19T12:46:23.955Z</time></trkpt><trkpt lat="45.7234213274037" lon="8.325113312219349"><ele>389.0</ele><time>2026-04-19T12:46:24.955Z</time></trkpt><trkpt lat="45.7234070434219" lon="8.324917421518025"><ele>389.0</ele><time>2026-04-19T12:46:25.955Z</time></trkpt><trkpt lat="45.72340144482647" lon="8.324721710525338"><ele>389.0</ele><time>2026-04-19T12:46:26.955Z</time></trkpt><trkpt lat="45.72339445928324" lon="8.324520067344361"><ele>388.5</ele><time>2026-04-19T12:46:27.955Z</time></trkpt><trkpt lat="45.72337378339127" lon="8.324322006332087"><ele>388.0</ele><time>2026-04-19T12:46:28.955Z</time></trkpt><trkpt lat="45.72333935778377" lon="8.324128462150256"><ele>387.5</ele><time>2026-04-19T12:46:29.955Z</time></trkpt><trkpt lat="45.72328492774781" lon="8.323944503030686"><ele>387.0</ele><time>2026-04-19T12:46:30.955Z</time></trkpt><trkpt lat="45.72320874699813" lon="8.323774142838198"><ele>386.0</ele><time>2026-04-19T12:46:31.955Z</time></trkpt><trkpt lat="45.72311547629548" lon="8.323623183084102"><ele>385.0</ele><time>2026-04-19T12:46:32.955Z</time></trkpt><trkpt lat="45.72301379157204" lon="8.323496481804897"><ele>384.0</ele><time>2026-04-19T12:46:33.955Z</time></trkpt><trkpt lat="45.72290163590797" lon="8.32338898965516"><ele>383.0</ele><time>2026-04-19T12:46:34.955Z</time></trkpt><trkpt lat="45.72278413733298" lon="8.323295081567618"><ele>382.75</ele><time>2026-04-19T12:46:35.955Z</time></trkpt><trkpt lat="45.72266234253626" lon="8.32320395235601"><ele>382.5</ele><time>2026-04-19T12:46:36.955Z</time></trkpt><trkpt lat="45.72254302153331" lon="8.323112691055536"><ele>382.25</ele><time>2026-04-19T12:46:37.955Z</time></trkpt><trkpt lat="45.72242686982999" lon="8.323016429022758"><ele>382.0</ele><time>2026-04-19T12:46:38.955Z</time></trkpt><trkpt lat="45.722316263688036" lon="8.322910029824389"><ele>381.25</ele><time>2026-04-19T12:46:39.955Z</time></trkpt><trkpt lat="45.722206232379484" lon="8.32279701774201"><ele>380.5</ele><time>2026-04-19T12:46:40.955Z</time></trkpt><trkpt lat="45.722107329005176" lon="8.32266909307633"><ele>379.75</ele><time>2026-04-19T12:46:41.955Z</time></trkpt><trkpt lat="45.72201627135018" lon="8.322532311794578"><ele>379.0</ele><time>2026-04-19T12:46:42.955Z</time></trkpt><trkpt lat="45.72193316897436" lon="8.322381470788432"><ele>379.0</ele><time>2026-04-19T12:46:43.955Z</time></trkpt><trkpt lat="45.721860133927905" lon="8.322214187589953"><ele>379.0</ele><time>2026-04-19T12:46:44.955Z</time></trkpt><trkpt lat="45.721794526559414" lon="8.322039374584726"><ele>379.0</ele><time>2026-04-19T12:46:45.955Z</time></trkpt><trkpt lat="45.721738431361466" lon="8.321857317898106"><ele>379.0</ele><time>2026-04-19T12:46:46.955Z</time></trkpt><trkpt lat="45.721692491380594" lon="8.321667327135048"><ele>379.0</ele><time>2026-04-19T12:46:47.955Z</time></trkpt><trkpt lat="45.72165981831091" lon="8.32147182698221"><ele>379.0</ele><time>2026-04-19T12:46:48.955Z</time></trkpt><trkpt lat="45.72163800447627" lon="8.321272574492134"><ele>379.0</ele><time>2026-04-19T12:46:49.955Z</time></trkpt><trkpt lat="45.72161923514267" lon="8.32107314693341"><ele>379.0</ele><time>2026-04-19T12:46:50.955Z</time></trkpt><trkpt lat="45.72160163326023" lon="8.320870461027171"><ele>378.25</ele><time>2026-04-19T12:46:51.955Z</time></trkpt><trkpt lat="45.72158091244177" lon="8.32066728014797"><ele>377.5</ele><time>2026-04-19T12:46:52.955Z</time></trkpt><trkpt lat="45.72155724555884" lon="8.320466312044532"><ele>376.75</ele><time>2026-04-19T12:46:53.956Z</time></trkpt><trkpt lat="45.72153684351592" lon="8.320260506184509"><ele>376.0</ele><time>2026-04-19T12:46:54.956Z</time></trkpt><trkpt lat="45.721517585986994" lon="8.320054681848154"><ele>376.75</ele><time>2026-04-19T12:46:55.956Z</time></trkpt><trkpt lat="45.72150240738896" lon="8.319849954740924"><ele>377.5</ele><time>2026-04-19T12:46:56.956Z</time></trkpt><trkpt lat="45.72147982851917" lon="8.319646633202742"><ele>378.25</ele><time>2026-04-19T12:46:57.956Z</time></trkpt><trkpt lat="45.721463320895346" lon="8.319439553033307"><ele>379.0</ele><time>2026-04-19T12:46:58.956Z</time></trkpt><trkpt lat="45.72144663119174" lon="8.31923237051091"><ele>379.0</ele><time>2026-04-19T12:46:59.956Z</time></trkpt><trkpt lat="45.721430846040676" lon="8.319023289237096"><ele>379.0</ele><time>2026-04-19T12:47:00.956Z</time></trkpt><trkpt lat="45.72140902514537" lon="8.3188147243513"><ele>379.0</ele><time>2026-04-19T12:47:01.956Z</time></trkpt><trkpt lat="45.72138708595246" lon="8.318611785346798"><ele>379.0</ele><time>2026-04-19T12:47:02.956Z</time></trkpt><trkpt lat="45.72136468542537" lon="8.318411670921995"><ele>379.25</ele><time>2026-04-19T12:47:03.956Z</time></trkpt><trkpt lat="45.72134456592839" lon="8.318208451283839"><ele>379.5</ele><time>2026-04-19T12:47:04.956Z</time></trkpt><trkpt lat="45.72132472505452" lon="8.318004263435052"><ele>379.75</ele><time>2026-04-19T12:47:05.956Z</time></trkpt><trkpt lat="45.72130465188487" lon="8.31779943476885"><ele>380.0</ele><time>2026-04-19T12:47:06.956Z</time></trkpt><trkpt lat="45.72128280259482" lon="8.317595042964847"><ele>380.0</ele><time>2026-04-19T12:47:07.956Z</time></trkpt><trkpt lat="45.721262339040045" lon="8.31738861198131"><ele>380.0</ele><time>2026-04-19T12:47:08.956Z</time></trkpt><trkpt lat="45.72124638128801" lon="8.317180857848733"><ele>380.0</ele><time>2026-04-19T12:47:09.956Z</time></trkpt><trkpt lat="45.72122671135778" lon="8.31697703892584"><ele>380.0</ele><time>2026-04-19T12:47:10.956Z</time></trkpt><trkpt lat="45.72120970685928" lon="8.316774709734268"><ele>380.25</ele><time>2026-04-19T12:47:11.956Z</time></trkpt><trkpt lat="45.72119171192085" lon="8.31657237365023"><ele>380.5</ele><time>2026-04-19T12:47:12.956Z</time></trkpt><trkpt lat="45.72117422777754" lon="8.316369047283684"><ele>380.75</ele><time>2026-04-19T12:47:13.956Z</time></trkpt><trkpt lat="45.721160039638434" lon="8.316167417144062"><ele>381.0</ele><time>2026-04-19T12:47:14.956Z</time></trkpt><trkpt lat="45.72114686701335" lon="8.315967409101177"><ele>381.5</ele><time>2026-04-19T12:47:15.956Z</time></trkpt><trkpt lat="45.72113836592077" lon="8.315767114826214"><ele>382.0</ele><time>2026-04-19T12:47:16.956Z</time></trkpt><trkpt lat="45.72113517111663" lon="8.315567138013625"><ele>382.5</ele><time>2026-04-19T12:47:17.956Z</time></trkpt><trkpt lat="45.72113171741283" lon="8.31537151613042"><ele>383.0</ele><time>2026-04-19T12:47:18.956Z</time></trkpt><trkpt lat="45.72113101531779" lon="8.315183251821951"><ele>383.0</ele><time>2026-04-19T12:47:19.956Z</time></trkpt><trkpt lat="45.7211342105904" lon="8.31499342840844"><ele>383.0</ele><time>2026-04-19T12:47:20.956Z</time></trkpt><trkpt lat="45.72113285990507" lon="8.314804020263745"><ele>383.0</ele><time>2026-04-19T12:47:21.956Z</time></trkpt><trkpt lat="45.72113709761989" lon="8.314612058641968"><ele>383.0</ele><time>2026-04-19T12:47:22.956Z</time></trkpt><trkpt lat="45.72113979927118" lon="8.314417396249675"><ele>381.5</ele><time>2026-04-19T12:47:23.956Z</time></trkpt><trkpt lat="45.721144901252615" lon="8.314221351299917"><ele>380.0</ele><time>2026-04-19T12:47:24.956Z</time></trkpt><trkpt lat="45.72114945828356" lon="8.31402505150907"><ele>378.5</ele><time>2026-04-19T12:47:25.956Z</time></trkpt><trkpt lat="45.72115751481093" lon="8.313825926634786"><ele>377.0</ele><time>2026-04-19T12:47:26.956Z</time></trkpt><trkpt lat="45.721163444773914" lon="8.313627557989674"><ele>375.75</ele><time>2026-04-19T12:47:27.956Z</time></trkpt><trkpt lat="45.72117061682774" lon="8.31342912959857"><ele>374.5</ele><time>2026-04-19T12:47:28.956Z</time></trkpt><trkpt lat="45.72117811660531" lon="8.313230495756152"><ele>373.25</ele><time>2026-04-19T12:47:29.956Z</time></trkpt><trkpt lat="45.72118881120842" lon="8.31303671239721"><ele>372.0</ele><time>2026-04-19T12:47:30.956Z</time></trkpt><trkpt lat="45.72118474423355" lon="8.312851814487724"><ele>372.25</ele><time>2026-04-19T12:47:31.956Z</time></trkpt><trkpt lat="45.72117597175668" lon="8.31267375027425"><ele>372.5</ele><time>2026-04-19T12:47:32.956Z</time></trkpt><trkpt lat="45.72116576188558" lon="8.312508433105682"><ele>372.75</ele><time>2026-04-19T12:47:33.956Z</time></trkpt><trkpt lat="45.721161581884" lon="8.312352190387998"><ele>373.0</ele><time>2026-04-19T12:47:34.956Z</time></trkpt><trkpt lat="45.72117436102271" lon="8.312202675327645"><ele>373.0</ele><time>2026-04-19T12:47:35.956Z</time></trkpt><trkpt lat="45.721205165592664" lon="8.312069047721689"><ele>373.0</ele><time>2026-04-19T12:47:36.956Z</time></trkpt><trkpt lat="45.72125302498185" lon="8.311953165574785"><ele>373.0</ele><time>2026-04-19T12:47:37.956Z</time></trkpt><trkpt lat="45.721307152344664" lon="8.311860473356601"><ele>373.0</ele><time>2026-04-19T12:47:38.957Z</time></trkpt><trkpt lat="45.7213643648669" lon="8.311776533947631"><ele>373.0</ele><time>2026-04-19T12:47:39.957Z</time></trkpt><trkpt lat="45.72138119116554" lon="8.311680696478687"><ele>373.0</ele><time>2026-04-19T12:47:40.957Z</time></trkpt><trkpt lat="45.72136674796636" lon="8.31158701805308"><ele>373.0</ele><time>2026-04-19T12:47:41.957Z</time></trkpt><trkpt lat="45.721313954293855" lon="8.311502726104454"><ele>373.0</ele><time>2026-04-19T12:47:42.957Z</time></trkpt><trkpt lat="45.72123284877261" lon="8.31144108769797"><ele>373.0</ele><time>2026-04-19T12:47:43.957Z</time></trkpt><trkpt lat="45.72113789262462" lon="8.31137116099053"><ele>373.0</ele><time>2026-04-19T12:47:44.957Z</time></trkpt><trkpt lat="45.72104975684843" lon="8.311264442530018"><ele>373.0</ele><time>2026-04-19T12:47:45.957Z</time></trkpt><trkpt lat="45.72099485783396" lon="8.311132631303254"><ele>373.0</ele><time>2026-04-19T12:47:46.957Z</time></trkpt><trkpt lat="45.720942786186654" lon="8.310978518898747"><ele>373.0</ele><time>2026-04-19T12:47:47.957Z</time></trkpt><trkpt lat="45.72089016551469" lon="8.31082989577548"><ele>373.0</ele><time>2026-04-19T12:47:48.957Z</time></trkpt><trkpt lat="45.72084187209257" lon="8.31067445733681"><ele>373.0</ele><time>2026-04-19T12:47:49.957Z</time></trkpt><trkpt lat="45.72079467552627" lon="8.31050592137269"><ele>373.0</ele><time>2026-04-19T12:47:50.957Z</time></trkpt><trkpt lat="45.72074405096079" lon="8.310330430802361"><ele>373.0</ele><time>2026-04-19T12:47:51.957Z</time></trkpt><trkpt lat="45.72068736090458" lon="8.310144441305416"><ele>373.0</ele><time>2026-04-19T12:47:52.957Z</time></trkpt><trkpt lat="45.72063019699391" lon="8.3099500590838"><ele>373.0</ele><time>2026-04-19T12:47:53.957Z</time></trkpt><trkpt lat="45.72057636668217" lon="8.309758427555765"><ele>376.0</ele><time>2026-04-19T12:47:54.957Z</time></trkpt><trkpt lat="45.72051877119096" lon="8.309555517541188"><ele>379.0</ele><time>2026-04-19T12:47:55.957Z</time></trkpt><trkpt lat="45.72045630700301" lon="8.309345049788263"><ele>382.0</ele><time>2026-04-19T12:47:56.957Z</time></trkpt><trkpt lat="45.7203923557402" lon="8.309128942335212"><ele>385.3333333333333</ele><time>2026-04-19T12:47:57.955Z</time></trkpt><trkpt lat="45.720326948040224" lon="8.308905680246601"><ele>388.66666666666663</ele><time>2026-04-19T12:47:58.954Z</time></trkpt><trkpt lat="45.720261760712624" lon="8.308673519733986"><ele>392.0</ele><time>2026-04-19T12:47:59.954Z</time></trkpt><trkpt lat="45.720195009906696" lon="8.308431746300172"><ele>384.0</ele><time>2026-04-19T12:48:00.955Z</time></trkpt><trkpt lat="45.720124554834186" lon="8.308186928646627"><ele>376.0</ele><time>2026-04-19T12:48:01.954Z</time></trkpt><trkpt lat="45.72005188241426" lon="8.307940061852488"><ele>368.0</ele><time>2026-04-19T12:48:02.954Z</time></trkpt><trkpt lat="45.71998158743068" lon="8.307700263360111"><ele>368.0</ele><time>2026-04-19T12:48:03.955Z</time></trkpt><trkpt lat="45.719912547446285" lon="8.307467501881737"><ele>368.0</ele><time>2026-04-19T12:48:04.954Z</time></trkpt><trkpt lat="45.71985127095678" lon="8.3072470825392"><ele>368.0</ele><time>2026-04-19T12:48:05.954Z</time></trkpt><trkpt lat="45.719797951055185" lon="8.307033367230796"><ele>370.0</ele><time>2026-04-19T12:48:06.955Z</time></trkpt><trkpt lat="45.71976091119531" lon="8.306826160480162"><ele>372.0</ele><time>2026-04-19T12:48:07.954Z</time></trkpt><trkpt lat="45.71974231929098" lon="8.306625431982622"><ele>374.0</ele><time>2026-04-19T12:48:08.954Z</time></trkpt><trkpt lat="45.719740163390576" lon="8.306425479844746"><ele>376.0</ele><time>2026-04-19T12:48:09.954Z</time></trkpt><trkpt lat="45.71974506210214" lon="8.306221942284486"><ele>376.0</ele><time>2026-04-19T12:48:10.955Z</time></trkpt><trkpt lat="45.71975947993571" lon="8.30601882772765"><ele>376.0</ele><time>2026-04-19T12:48:11.955Z</time></trkpt><trkpt lat="45.71977987665792" lon="8.305822799308173"><ele>376.0</ele><time>2026-04-19T12:48:12.955Z</time></trkpt><trkpt lat="45.71980335428309" lon="8.305630819647778"><ele>376.0</ele><time>2026-04-19T12:48:13.955Z</time></trkpt><trkpt lat="45.719820787123986" lon="8.30544459280146"><ele>374.0</ele><time>2026-04-19T12:48:14.955Z</time></trkpt><trkpt lat="45.71983001453361" lon="8.30526068035947"><ele>372.0</ele><time>2026-04-19T12:48:15.955Z</time></trkpt><trkpt lat="45.71982543188579" lon="8.305084067805076"><ele>370.0</ele><time>2026-04-19T12:48:16.955Z</time></trkpt><trkpt lat="45.71981684403906" lon="8.304916924699203"><ele>368.0</ele><time>2026-04-19T12:48:17.955Z</time></trkpt><trkpt lat="45.71980261770866" lon="8.304761459244503"><ele>366.6666666666667</ele><time>2026-04-19T12:48:18.955Z</time></trkpt><trkpt lat="45.719785985573985" lon="8.304619065897787"><ele>365.33333333333337</ele><time>2026-04-19T12:48:19.955Z</time></trkpt><trkpt lat="45.71977183412205" lon="8.304485311935544"><ele>364.0</ele><time>2026-04-19T12:48:20.955Z</time></trkpt><trkpt lat="45.719766897100776" lon="8.304363891871754"><ele>362.6666666666667</ele><time>2026-04-19T12:48:21.955Z</time></trkpt><trkpt lat="45.719782856092934" lon="8.304258684352039"><ele>361.3333333333333</ele><time>2026-04-19T12:48:22.955Z</time></trkpt><trkpt lat="45.71980862631801" lon="8.304162997167381"><ele>360.0</ele><time>2026-04-19T12:48:23.955Z</time></trkpt><trkpt lat="45.719827750957826" lon="8.304069271826231"><ele>360.0</ele><time>2026-04-19T12:48:24.955Z</time></trkpt><trkpt lat="45.719821075882436" lon="8.303968263232804"><ele>360.0</ele><time>2026-04-19T12:48:25.955Z</time></trkpt><trkpt lat="45.71979103919783" lon="8.303866528108099"><ele>360.0</ele><time>2026-04-19T12:48:26.955Z</time></trkpt><trkpt lat="45.71974506874589" lon="8.303761816203188"><ele>360.0</ele><time>2026-04-19T12:48:27.955Z</time></trkpt><trkpt lat="45.71969506201098" lon="8.303638767386776"><ele>360.0</ele><time>2026-04-19T12:48:28.955Z</time></trkpt><trkpt lat="45.71966018364567" lon="8.303497792573472"><ele>360.0</ele><time>2026-04-19T12:48:29.955Z</time></trkpt><trkpt lat="45.71964420246602" lon="8.303337607551972"><ele>359.5</ele><time>2026-04-19T12:48:30.955Z</time></trkpt><trkpt lat="45.71963403400322" lon="8.303183860622674"><ele>359.0</ele><time>2026-04-19T12:48:31.955Z</time></trkpt><trkpt lat="45.71961436558995" lon="8.303021565181167"><ele>358.5</ele><time>2026-04-19T12:48:32.955Z</time></trkpt><trkpt lat="45.719584766151044" lon="8.302853658219277"><ele>358.0</ele><time>2026-04-19T12:48:33.955Z</time></trkpt><trkpt lat="45.71954686340002" lon="8.30268251942499"><ele>357.75</ele><time>2026-04-19T12:48:34.955Z</time></trkpt><trkpt lat="45.719495737869195" lon="8.302512866321687"><ele>357.5</ele><time>2026-04-19T12:48:35.955Z</time></trkpt><trkpt lat="45.719428886659735" lon="8.302343084455767"><ele>357.25</ele><time>2026-04-19T12:48:36.955Z</time></trkpt><trkpt lat="45.71934852264338" lon="8.302185449866485"><ele>357.0</ele><time>2026-04-19T12:48:37.955Z</time></trkpt><trkpt lat="45.719260248989904" lon="8.302042977375248"><ele>358.5</ele><time>2026-04-19T12:48:38.955Z</time></trkpt><trkpt lat="45.7191558800065" lon="8.301907425220133"><ele>360.0</ele><time>2026-04-19T12:48:39.955Z</time></trkpt><trkpt lat="45.71904102872083" lon="8.3017809490585"><ele>361.5</ele><time>2026-04-19T12:48:40.955Z</time></trkpt><trkpt lat="45.71891689079121" lon="8.30166532686172"><ele>363.0</ele><time>2026-04-19T12:48:41.955Z</time></trkpt><trkpt lat="45.7187851498683" lon="8.301564692882035"><ele>363.0</ele><time>2026-04-19T12:48:42.955Z</time></trkpt><trkpt lat="45.71864131802418" lon="8.301474768537938"><ele>363.0</ele><time>2026-04-19T12:48:43.955Z</time></trkpt><trkpt lat="45.71849818175975" lon="8.30138287808375"><ele>363.0</ele><time>2026-04-19T12:48:44.955Z</time></trkpt><trkpt lat="45.7183543516" lon="8.301290938784216"><ele>369.6666666666667</ele><time>2026-04-19T12:48:45.956Z</time></trkpt><trkpt lat="45.71821041373365" lon="8.301192416042047"><ele>376.33333333333337</ele><time>2026-04-19T12:48:46.956Z</time></trkpt><trkpt lat="45.71806317559255" lon="8.301093350217135"><ele>383.0</ele><time>2026-04-19T12:48:47.956Z</time></trkpt><trkpt lat="45.717918882175105" lon="8.300980020716848"><ele>383.0</ele><time>2026-04-19T12:48:48.956Z</time></trkpt><trkpt lat="45.71777599263582" lon="8.300864786717742"><ele>383.0</ele><time>2026-04-19T12:48:49.956Z</time></trkpt><trkpt lat="45.717637869584095" lon="8.300740428811539"><ele>383.0</ele><time>2026-04-19T12:48:50.956Z</time></trkpt><trkpt lat="45.71750582428436" lon="8.300587864495297"><ele>376.0</ele><time>2026-04-19T12:48:51.956Z</time></trkpt><trkpt lat="45.71738288377558" lon="8.300421726244181"><ele>369.0</ele><time>2026-04-19T12:48:52.956Z</time></trkpt><trkpt lat="45.71726005229759" lon="8.30025491382342"><ele>362.0</ele><time>2026-04-19T12:48:53.956Z</time></trkpt><trkpt lat="45.71714219043407" lon="8.300085418485137"><ele>362.0</ele><time>2026-04-19T12:48:54.956Z</time></trkpt><trkpt lat="45.717026571169946" lon="8.299913508222028"><ele>362.0</ele><time>2026-04-19T12:48:55.956Z</time></trkpt><trkpt lat="45.71691267599812" lon="8.2997376181555"><ele>362.0</ele><time>2026-04-19T12:48:56.956Z</time></trkpt><trkpt lat="45.71680502609595" lon="8.299554029393695"><ele>357.0</ele><time>2026-04-19T12:48:57.956Z</time></trkpt><trkpt lat="45.71670311145589" lon="8.299366347606338"><ele>352.0</ele><time>2026-04-19T12:48:58.956Z</time></trkpt><trkpt lat="45.71660951769074" lon="8.299169667162523"><ele>347.0</ele><time>2026-04-19T12:48:59.956Z</time></trkpt><trkpt lat="45.71653156612094" lon="8.298968731203374"><ele>350.33333333333337</ele><time>2026-04-19T12:49:00.956Z</time></trkpt><trkpt lat="45.71646356371206" lon="8.29876773955218"><ele>353.6666666666667</ele><time>2026-04-19T12:49:01.956Z</time></trkpt><trkpt lat="45.716401959649076" lon="8.298560439307394"><ele>357.0</ele><time>2026-04-19T12:49:02.956Z</time></trkpt><trkpt lat="45.716340407016354" lon="8.298354199880524"><ele>357.0</ele><time>2026-04-19T12:49:03.956Z</time></trkpt><trkpt lat="45.71626905287096" lon="8.298158573937004"><ele>357.0</ele><time>2026-04-19T12:49:04.956Z</time></trkpt><trkpt lat="45.71617838219444" lon="8.297977878001808"><ele>357.0</ele><time>2026-04-19T12:49:05.956Z</time></trkpt><trkpt lat="45.716064564235204" lon="8.297827456394884"><ele>359.6666666666667</ele><time>2026-04-19T12:49:06.956Z</time></trkpt><trkpt lat="45.71593900480024" lon="8.29770044459885"><ele>362.33333333333337</ele><time>2026-04-19T12:49:07.956Z</time></trkpt><trkpt lat="45.71580058317398" lon="8.29760512489548"><ele>365.0</ele><time>2026-04-19T12:49:08.956Z</time></trkpt><trkpt lat="45.715653997358736" lon="8.297543341049645"><ele>365.0</ele><time>2026-04-19T12:49:09.956Z</time></trkpt><trkpt lat="45.71550027741489" lon="8.297515020192252"><ele>365.0</ele><time>2026-04-19T12:49:10.956Z</time></trkpt><trkpt lat="45.71534459398632" lon="8.297511707435755"><ele>365.0</ele><time>2026-04-19T12:49:11.956Z</time></trkpt><trkpt lat="45.71519188194425" lon="8.297520309504403"><ele>361.6666666666667</ele><time>2026-04-19T12:49:12.956Z</time></trkpt><trkpt lat="45.71503595277056" lon="8.297531988625446"><ele>358.3333333333333</ele><time>2026-04-19T12:49:13.956Z</time></trkpt><trkpt lat="45.71487576562779" lon="8.297541763324102"><ele>355.0</ele><time>2026-04-19T12:49:14.956Z</time></trkpt><trkpt lat="45.714714602712334" lon="8.297552822680176"><ele>355.0</ele><time>2026-04-19T12:49:15.956Z</time></trkpt><trkpt lat="45.71455734263423" lon="8.297562169747005"><ele>355.0</ele><time>2026-04-19T12:49:16.956Z</time></trkpt><trkpt lat="45.71439574158548" lon="8.297564936912245"><ele>355.0</ele><time>2026-04-19T12:49:17.956Z</time></trkpt><trkpt lat="45.71423762049385" lon="8.297570486145894"><ele>353.3333333333333</ele><time>2026-04-19T12:49:18.956Z</time></trkpt><trkpt lat="45.714079185365456" lon="8.29757791217076"><ele>351.6666666666667</ele><time>2026-04-19T12:49:19.956Z</time></trkpt><trkpt lat="45.71392253437938" lon="8.297588920237825"><ele>350.0</ele><time>2026-04-19T12:49:20.956Z</time></trkpt><trkpt lat="45.71376394221896" lon="8.297599508950581"><ele>350.0</ele><time>2026-04-19T12:49:21.956Z</time></trkpt><trkpt lat="45.71360907265436" lon="8.297609338394231"><ele>350.0</ele><time>2026-04-19T12:49:22.956Z</time></trkpt><trkpt lat="45.713454925368104" lon="8.297621394570754"><ele>350.0</ele><time>2026-04-19T12:49:23.956Z</time></trkpt><trkpt lat="45.713299760574664" lon="8.297628246610676"><ele>348.0</ele><time>2026-04-19T12:49:24.956Z</time></trkpt><trkpt lat="45.71314613690945" lon="8.297632603387573"><ele>346.0</ele><time>2026-04-19T12:49:25.956Z</time></trkpt><trkpt lat="45.71299367175486" lon="8.297643028241037"><ele>344.0</ele><time>2026-04-19T12:49:26.956Z</time></trkpt><trkpt lat="45.712836599763286" lon="8.297656276660218"><ele>345.0</ele><time>2026-04-19T12:49:27.956Z</time></trkpt><trkpt lat="45.71268283866382" lon="8.297670041776557"><ele>346.0</ele><time>2026-04-19T12:49:28.956Z</time></trkpt><trkpt lat="45.712529982127144" lon="8.297683281518589"><ele>347.0</ele><time>2026-04-19T12:49:29.956Z</time></trkpt><trkpt lat="45.712381303394324" lon="8.297695421729111"><ele>347.0</ele><time>2026-04-19T12:49:30.957Z</time></trkpt><trkpt lat="45.712242313168176" lon="8.29769695446612"><ele>347.0</ele><time>2026-04-19T12:49:31.957Z</time></trkpt><trkpt lat="45.712110928854834" lon="8.297669734198912"><ele>347.0</ele><time>2026-04-19T12:49:32.957Z</time></trkpt><trkpt lat="45.71198901349534" lon="8.297598792304894"><ele>347.0</ele><time>2026-04-19T12:49:33.957Z</time></trkpt><trkpt lat="45.71187480252105" lon="8.29749380491536"><ele>346.75</ele><time>2026-04-19T12:49:34.957Z</time></trkpt><trkpt lat="45.71176753460476" lon="8.29736796396862"><ele>346.5</ele><time>2026-04-19T12:49:35.957Z</time></trkpt><trkpt lat="45.71167248592896" lon="8.297215579803126"><ele>346.25</ele><time>2026-04-19T12:49:36.957Z</time></trkpt><trkpt lat="45.71160158800158" lon="8.297032576823174"><ele>346.0</ele><time>2026-04-19T12:49:37.957Z</time></trkpt><trkpt lat="45.71154701150385" lon="8.296835987790466"><ele>346.5</ele><time>2026-04-19T12:49:38.957Z</time></trkpt><trkpt lat="45.71149861115633" lon="8.296639588486387"><ele>347.0</ele><time>2026-04-19T12:49:39.957Z</time></trkpt><trkpt lat="45.71144574621384" lon="8.296451867315062"><ele>347.5</ele><time>2026-04-19T12:49:40.957Z</time></trkpt><trkpt lat="45.71138958307102" lon="8.296268593401456"><ele>348.0</ele><time>2026-04-19T12:49:41.957Z</time></trkpt><trkpt lat="45.71133565971775" lon="8.296090820743334"><ele>348.25</ele><time>2026-04-19T12:49:42.957Z</time></trkpt><trkpt lat="45.711281730349135" lon="8.295911432119944"><ele>348.5</ele><time>2026-04-19T12:49:43.957Z</time></trkpt><trkpt lat="45.71123037949835" lon="8.295732499058515"><ele>348.75</ele><time>2026-04-19T12:49:44.957Z</time></trkpt><trkpt lat="45.711175745622306" lon="8.295549894700214"><ele>349.0</ele><time>2026-04-19T12:49:45.957Z</time></trkpt><trkpt lat="45.711117363164945" lon="8.295364434541186"><ele>348.25</ele><time>2026-04-19T12:49:46.957Z</time></trkpt><trkpt lat="45.71105990790476" lon="8.2951769479306"><ele>347.5</ele><time>2026-04-19T12:49:47.957Z</time></trkpt><trkpt lat="45.71100572019983" lon="8.294994691599843"><ele>346.75</ele><time>2026-04-19T12:49:48.957Z</time></trkpt><trkpt lat="45.710956920478075" lon="8.294822478810964"><ele>346.0</ele><time>2026-04-19T12:49:49.957Z</time></trkpt><trkpt lat="45.71090860435641" lon="8.294663960052132"><ele>346.0</ele><time>2026-04-19T12:49:50.957Z</time></trkpt><trkpt lat="45.71086017677118" lon="8.294512828770701"><ele>346.0</ele><time>2026-04-19T12:49:51.957Z</time></trkpt><trkpt lat="45.71081673660301" lon="8.294360818409153"><ele>346.0</ele><time>2026-04-19T12:49:52.957Z</time></trkpt><trkpt lat="45.71077756597551" lon="8.29420687999684"><ele>346.0</ele><time>2026-04-19T12:49:53.957Z</time></trkpt><trkpt lat="45.710734702285976" lon="8.294062002249673"><ele>346.0</ele><time>2026-04-19T12:49:54.957Z</time></trkpt><trkpt lat="45.71069598479788" lon="8.293922758330297"><ele>346.0</ele><time>2026-04-19T12:49:55.957Z</time></trkpt><trkpt lat="45.710658431761644" lon="8.293796859447333"><ele>346.0</ele><time>2026-04-19T12:49:56.957Z</time></trkpt><trkpt lat="45.71062223784504" lon="8.293673813627526"><ele>346.0</ele><time>2026-04-19T12:49:57.957Z</time></trkpt><trkpt lat="45.71058849992764" lon="8.293543075507419"><ele>346.0</ele><time>2026-04-19T12:49:58.957Z</time></trkpt><trkpt lat="45.710568128842525" lon="8.293396233539283"><ele>346.0</ele><time>2026-04-19T12:49:59.957Z</time></trkpt><trkpt lat="45.710563965418956" lon="8.29323589555215"><ele>346.0</ele><time>2026-04-19T12:50:00.957Z</time></trkpt><trkpt lat="45.71057929789583" lon="8.293067394999166"><ele>346.0</ele><time>2026-04-19T12:50:01.957Z</time></trkpt><trkpt lat="45.71060993383565" lon="8.292907404728671"><ele>346.0</ele><time>2026-04-19T12:50:02.957Z</time></trkpt><trkpt lat="45.710647982571786" lon="8.292754308092196"><ele>345.75</ele><time>2026-04-19T12:50:03.954Z</time></trkpt><trkpt lat="45.71068728068216" lon="8.292603839689823"><ele>345.5</ele><time>2026-04-19T12:50:04.954Z</time></trkpt><trkpt lat="45.7107255266464" lon="8.292444896218017"><ele>345.25</ele><time>2026-04-19T12:50:05.954Z</time></trkpt><trkpt lat="45.71076384527425" lon="8.29227824729726"><ele>345.0</ele><time>2026-04-19T12:50:06.954Z</time></trkpt><trkpt lat="45.71079736699337" lon="8.292104610180928"><ele>344.75</ele><time>2026-04-19T12:50:07.954Z</time></trkpt><trkpt lat="45.71083296125401" lon="8.291923246740177"><ele>344.5</ele><time>2026-04-19T12:50:08.954Z</time></trkpt><trkpt lat="45.710868355814995" lon="8.29174519706042"><ele>344.25</ele><time>2026-04-19T12:50:09.954Z</time></trkpt><trkpt lat="45.710910387853446" lon="8.29157212640196"><ele>344.0</ele><time>2026-04-19T12:50:10.954Z</time></trkpt><trkpt lat="45.710948186897724" lon="8.291401092283138"><ele>344.0</ele><time>2026-04-19T12:50:11.954Z</time></trkpt><trkpt lat="45.710980101696606" lon="8.29123036606139"><ele>344.0</ele><time>2026-04-19T12:50:12.954Z</time></trkpt><trkpt lat="45.711012652871304" lon="8.291060630356126"><ele>344.0</ele><time>2026-04-19T12:50:13.954Z</time></trkpt><trkpt lat="45.7110406981103" lon="8.290888960995199"><ele>344.0</ele><time>2026-04-19T12:50:14.954Z</time></trkpt><trkpt lat="45.71106649893742" lon="8.290718486858536"><ele>347.25</ele><time>2026-04-19T12:50:15.954Z</time></trkpt><trkpt lat="45.71108761429675" lon="8.290547289471936"><ele>350.5</ele><time>2026-04-19T12:50:16.954Z</time></trkpt><trkpt lat="45.71109863530526" lon="8.29037465622183"><ele>353.75</ele><time>2026-04-19T12:50:17.954Z</time></trkpt><trkpt lat="45.71109821176576" lon="8.290199756845137"><ele>357.0</ele><time>2026-04-19T12:50:18.954Z</time></trkpt><trkpt lat="45.71109328654052" lon="8.290023115436927"><ele>357.0</ele><time>2026-04-19T12:50:19.954Z</time></trkpt><trkpt lat="45.71108570859342" lon="8.289846536296343"><ele>357.0</ele><time>2026-04-19T12:50:20.954Z</time></trkpt><trkpt lat="45.71108123577679" lon="8.289669398126172"><ele>357.0</ele><time>2026-04-19T12:50:21.954Z</time></trkpt><trkpt lat="45.71107043538499" lon="8.28949071082742"><ele>357.0</ele><time>2026-04-19T12:50:22.954Z</time></trkpt><trkpt lat="45.71105826247989" lon="8.28931321560776"><ele>354.0</ele><time>2026-04-19T12:50:23.954Z</time></trkpt><trkpt lat="45.71104633156454" lon="8.289139958958062"><ele>351.0</ele><time>2026-04-19T12:50:24.954Z</time></trkpt><trkpt lat="45.71104413042317" lon="8.288965121522107"><ele>348.0</ele><time>2026-04-19T12:50:25.954Z</time></trkpt><trkpt lat="45.711048146334655" lon="8.288787881940944"><ele>345.0</ele><time>2026-04-19T12:50:26.954Z</time></trkpt><trkpt lat="45.71105077126224" lon="8.28861805970843"><ele>345.0</ele><time>2026-04-19T12:50:27.954Z</time></trkpt><trkpt lat="45.71106770644584" lon="8.288449966326226"><ele>345.0</ele><time>2026-04-19T12:50:28.954Z</time></trkpt><trkpt lat="45.71107751225622" lon="8.288288729600033"><ele>345.0</ele><time>2026-04-19T12:50:29.954Z</time></trkpt><trkpt lat="45.71111540027592" lon="8.288119243593023"><ele>345.0</ele><time>2026-04-19T12:50:30.954Z</time></trkpt><trkpt lat="45.71115933235749" lon="8.28794573391373"><ele>347.25</ele><time>2026-04-19T12:50:31.954Z</time></trkpt><trkpt lat="45.7111976899312" lon="8.28776991210403"><ele>349.5</ele><time>2026-04-19T12:50:32.954Z</time></trkpt><trkpt lat="45.711249288603995" lon="8.287595885749038"><ele>351.75</ele><time>2026-04-19T12:50:33.954Z</time></trkpt><trkpt lat="45.711302281089566" lon="8.287437764226679"><ele>354.0</ele><time>2026-04-19T12:50:34.954Z</time></trkpt><trkpt lat="45.711348776832615" lon="8.287285497905373"><ele>352.6666666666667</ele><time>2026-04-19T12:50:35.954Z</time></trkpt><trkpt lat="45.7113870250785" lon="8.287149725431219"><ele>351.3333333333333</ele><time>2026-04-19T12:50:36.954Z</time></trkpt><trkpt lat="45.711428975975906" lon="8.287032404451008"><ele>350.0</ele><time>2026-04-19T12:50:37.954Z</time></trkpt><trkpt lat="45.71147402923828" lon="8.286922272393523"><ele>348.66666666666663</ele><time>2026-04-19T12:50:38.954Z</time></trkpt><trkpt lat="45.71152316404688" lon="8.286839529452841"><ele>347.3333333333333</ele><time>2026-04-19T12:50:39.954Z</time></trkpt><trkpt lat="45.71157406193907" lon="8.28676499111401"><ele>346.0</ele><time>2026-04-19T12:50:40.954Z</time></trkpt><trkpt lat="45.711618096392066" lon="8.286686747744648"><ele>346.0</ele><time>2026-04-19T12:50:41.954Z</time></trkpt><trkpt lat="45.71165104972986" lon="8.28659804053086"><ele>346.0</ele><time>2026-04-19T12:50:42.954Z</time></trkpt><trkpt lat="45.71165308286309" lon="8.286490168059283"><ele>346.0</ele><time>2026-04-19T12:50:43.954Z</time></trkpt><trkpt lat="45.71167652457972" lon="8.286376759498422"><ele>346.0</ele><time>2026-04-19T12:50:44.954Z</time></trkpt><trkpt lat="45.711712235981096" lon="8.286257140960778"><ele>346.0</ele><time>2026-04-19T12:50:45.954Z</time></trkpt><trkpt lat="45.711760841580734" lon="8.286132822905223"><ele>346.0</ele><time>2026-04-19T12:50:46.954Z</time></trkpt><trkpt lat="45.711811850639776" lon="8.286016543697759"><ele>345.5</ele><time>2026-04-19T12:50:47.954Z</time></trkpt><trkpt lat="45.711859607975356" lon="8.285882379160316"><ele>345.0</ele><time>2026-04-19T12:50:48.954Z</time></trkpt><trkpt lat="45.71191222410203" lon="8.285740838901727"><ele>344.5</ele><time>2026-04-19T12:50:49.954Z</time></trkpt><trkpt lat="45.71197053916078" lon="8.28559050192966"><ele>344.0</ele><time>2026-04-19T12:50:50.954Z</time></trkpt><trkpt lat="45.7120338718545" lon="8.28543627576488"><ele>343.75</ele><time>2026-04-19T12:50:51.954Z</time></trkpt><trkpt lat="45.71209631727232" lon="8.28528947069424"><ele>343.5</ele><time>2026-04-19T12:50:52.954Z</time></trkpt><trkpt lat="45.71216309726465" lon="8.285139975670589"><ele>343.25</ele><time>2026-04-19T12:50:53.954Z</time></trkpt><trkpt lat="45.71223558156527" lon="8.284988667346003"><ele>343.0</ele><time>2026-04-19T12:50:54.954Z</time></trkpt><trkpt lat="45.71230464929797" lon="8.284832174062648"><ele>343.25</ele><time>2026-04-19T12:50:55.954Z</time></trkpt><trkpt lat="45.7123776880492" lon="8.284674132461806"><ele>343.5</ele><time>2026-04-19T12:50:56.954Z</time></trkpt><trkpt lat="45.71244509623595" lon="8.284517381726983"><ele>343.75</ele><time>2026-04-19T12:50:57.954Z</time></trkpt><trkpt lat="45.71251216005678" lon="8.284364632269757"><ele>344.0</ele><time>2026-04-19T12:50:58.954Z</time></trkpt><trkpt lat="45.712576562086724" lon="8.284210704397271"><ele>344.0</ele><time>2026-04-19T12:50:59.954Z</time></trkpt><trkpt lat="45.712640098317074" lon="8.284054568180881"><ele>344.0</ele><time>2026-04-19T12:51:00.955Z</time></trkpt><trkpt lat="45.712703984435386" lon="8.283897865515424"><ele>344.0</ele><time>2026-04-19T12:51:01.955Z</time></trkpt><trkpt lat="45.71277566574009" lon="8.283743290470557"><ele>344.0</ele><time>2026-04-19T12:51:02.955Z</time></trkpt><trkpt lat="45.71284125861738" lon="8.283588040879243"><ele>344.25</ele><time>2026-04-19T12:51:03.955Z</time></trkpt><trkpt lat="45.71290337111696" lon="8.283432078023914"><ele>344.5</ele><time>2026-04-19T12:51:04.955Z</time></trkpt><trkpt lat="45.712964416483025" lon="8.283274482649949"><ele>344.75</ele><time>2026-04-19T12:51:05.955Z</time></trkpt><trkpt lat="45.71302374242409" lon="8.283125563804004"><ele>345.0</ele><time>2026-04-19T12:51:06.955Z</time></trkpt><trkpt lat="45.71307903850115" lon="8.282977623026465"><ele>345.5</ele><time>2026-04-19T12:51:07.955Z</time></trkpt><trkpt lat="45.71313923340245" lon="8.282829934233096"><ele>346.0</ele><time>2026-04-19T12:51:08.955Z</time></trkpt><trkpt lat="45.71319725574343" lon="8.282678984735368"><ele>346.5</ele><time>2026-04-19T12:51:09.955Z</time></trkpt><trkpt lat="45.71325778418923" lon="8.282523635079075"><ele>347.0</ele><time>2026-04-19T12:51:10.955Z</time></trkpt><trkpt lat="45.71331370970898" lon="8.282373096141178"><ele>347.5</ele><time>2026-04-19T12:51:11.955Z</time></trkpt><trkpt lat="45.71337403621912" lon="8.282221501383603"><ele>348.0</ele><time>2026-04-19T12:51:12.955Z</time></trkpt><trkpt lat="45.7134262286251" lon="8.2820689061671"><ele>348.5</ele><time>2026-04-19T12:51:13.955Z</time></trkpt><trkpt lat="45.7134844968114" lon="8.281919090603056"><ele>349.0</ele><time>2026-04-19T12:51:14.955Z</time></trkpt><trkpt lat="45.71354284194269" lon="8.281768687437774"><ele>348.75</ele><time>2026-04-19T12:51:15.955Z</time></trkpt><trkpt lat="45.71359780735081" lon="8.28161888294362"><ele>348.5</ele><time>2026-04-19T12:51:16.955Z</time></trkpt><trkpt lat="45.71365660477793" lon="8.281468943033572"><ele>348.25</ele><time>2026-04-19T12:51:17.955Z</time></trkpt><trkpt lat="45.71371545369995" lon="8.281318738074235"><ele>348.0</ele><time>2026-04-19T12:51:18.955Z</time></trkpt><trkpt lat="45.71377248974112" lon="8.28116444830426"><ele>348.5</ele><time>2026-04-19T12:51:19.955Z</time></trkpt><trkpt lat="45.713831071862415" lon="8.281019300449632"><ele>349.0</ele><time>2026-04-19T12:51:20.955Z</time></trkpt><trkpt lat="45.7138841751589" lon="8.28087461253821"><ele>349.5</ele><time>2026-04-19T12:51:21.955Z</time></trkpt><trkpt lat="45.713942189178226" lon="8.280734575639384"><ele>350.0</ele><time>2026-04-19T12:51:22.955Z</time></trkpt><trkpt lat="45.71399822042379" lon="8.280600954447909"><ele>350.5</ele><time>2026-04-19T12:51:23.955Z</time></trkpt><trkpt lat="45.71405513961473" lon="8.28046129692949"><ele>351.0</ele><time>2026-04-19T12:51:24.955Z</time></trkpt><trkpt lat="45.71410530680557" lon="8.280317762107204"><ele>351.5</ele><time>2026-04-19T12:51:25.955Z</time></trkpt><trkpt lat="45.71416639752661" lon="8.280168764885746"><ele>352.0</ele><time>2026-04-19T12:51:26.955Z</time></trkpt><trkpt lat="45.71423341559413" lon="8.280027463885292"><ele>352.0</ele><time>2026-04-19T12:51:27.955Z</time></trkpt><trkpt lat="45.714298202886134" lon="8.279888878701094"><ele>352.0</ele><time>2026-04-19T12:51:28.955Z</time></trkpt><trkpt lat="45.714366019317325" lon="8.279759305579683"><ele>352.0</ele><time>2026-04-19T12:51:29.955Z</time></trkpt><trkpt lat="45.714428102516024" lon="8.279623516151732"><ele>352.0</ele><time>2026-04-19T12:51:30.955Z</time></trkpt><trkpt lat="45.7144839764473" lon="8.279493519228183"><ele>352.0</ele><time>2026-04-19T12:51:31.955Z</time></trkpt><trkpt lat="45.71453805976112" lon="8.279367654953276"><ele>352.8333333333333</ele><time>2026-04-19T12:51:32.955Z</time></trkpt><trkpt lat="45.71458329469761" lon="8.279245402369911"><ele>353.66666666666663</ele><time>2026-04-19T12:51:33.955Z</time></trkpt><trkpt lat="45.714628921220175" lon="8.279126048781553"><ele>354.5</ele><time>2026-04-19T12:51:34.955Z</time></trkpt><trkpt lat="45.71467345063452" lon="8.279014228518655"><ele>355.3333333333333</ele><time>2026-04-19T12:51:35.955Z</time></trkpt><trkpt lat="45.71472365177898" lon="8.278923046622378"><ele>356.1666666666667</ele><time>2026-04-19T12:51:36.955Z</time></trkpt><trkpt lat="45.714765224142695" lon="8.278845354451072"><ele>357.0</ele><time>2026-04-19T12:51:37.955Z</time></trkpt><trkpt lat="45.714822339547716" lon="8.278709270926077"><ele>357.1666666666667</ele><time>2026-04-19T12:51:39.955Z</time></trkpt><trkpt lat="45.71484688349977" lon="8.278590578214324"><ele>357.3333333333333</ele><time>2026-04-19T12:51:41.955Z</time></trkpt><trkpt lat="45.71486939013846" lon="8.27848970443397"><ele>357.5</ele><time>2026-04-19T12:51:43.955Z</time></trkpt><trkpt lat="45.714859916295566" lon="8.27838950271453"><ele>357.66666666666663</ele><time>2026-04-19T12:51:45.956Z</time></trkpt><trkpt lat="45.71479348208816" lon="8.278365125746024"><ele>357.8333333333333</ele><time>2026-04-19T12:51:47.956Z</time></trkpt><trkpt lat="45.71469679090869" lon="8.278372889828685"><ele>358.0</ele><time>2026-04-19T12:51:49.956Z</time></trkpt><trkpt lat="45.71457889844443" lon="8.278353183791994"><ele>358.0</ele><time>2026-04-19T12:51:51.956Z</time></trkpt><trkpt lat="45.71451850726915" lon="8.278317081508932"><ele>358.0</ele><time>2026-04-19T12:51:52.956Z</time></trkpt><trkpt lat="45.71444957329376" lon="8.278269737717935"><ele>358.0</ele><time>2026-04-19T12:51:53.956Z</time></trkpt><trkpt lat="45.714384680341965" lon="8.278223366099626"><ele>358.0</ele><time>2026-04-19T12:51:54.956Z</time></trkpt><trkpt lat="45.71431433707662" lon="8.278168999225054"><ele>358.0</ele><time>2026-04-19T12:51:55.956Z</time></trkpt><trkpt lat="45.714241355420356" lon="8.278113302449789"><ele>358.0</ele><time>2026-04-19T12:51:56.956Z</time></trkpt><trkpt lat="45.71416610452475" lon="8.278054003390947"><ele>357.16666666666663</ele><time>2026-04-19T12:51:57.956Z</time></trkpt><trkpt lat="45.714090696687094" lon="8.278001622209699"><ele>356.3333333333333</ele><time>2026-04-19T12:51:58.956Z</time></trkpt><trkpt lat="45.714018397983004" lon="8.277950995321294"><ele>355.5</ele><time>2026-04-19T12:51:59.956Z</time></trkpt><trkpt lat="45.7139553779601" lon="8.277901861913302"><ele>354.6666666666667</ele><time>2026-04-19T12:52:00.956Z</time></trkpt><trkpt lat="45.713901549758745" lon="8.277849362312352"><ele>353.83333333333337</ele><time>2026-04-19T12:52:01.956Z</time></trkpt><trkpt lat="45.71383946707857" lon="8.277733769375773"><ele>353.0</ele><time>2026-04-19T12:52:03.956Z</time></trkpt><trkpt lat="45.71385264394483" lon="8.277567605873115"><ele>353.0</ele><time>2026-04-19T12:52:05.956Z</time></trkpt><trkpt lat="45.713871237135095" lon="8.277471119921362"><ele>353.0</ele><time>2026-04-19T12:52:06.956Z</time></trkpt><trkpt lat="45.71389293711508" lon="8.27736014432886"><ele>353.0</ele><time>2026-04-19T12:52:07.956Z</time></trkpt><trkpt lat="45.71390655590548" lon="8.277249373437064"><ele>353.0</ele><time>2026-04-19T12:52:08.956Z</time></trkpt><trkpt lat="45.71392281785199" lon="8.277126150373704"><ele>353.0</ele><time>2026-04-19T12:52:09.953Z</time></trkpt><trkpt lat="45.71394267193146" lon="8.277001902283617"><ele>353.0</ele><time>2026-04-19T12:52:10.953Z</time></trkpt><trkpt lat="45.71396274616173" lon="8.276877010495163"><ele>353.0</ele><time>2026-04-19T12:52:11.953Z</time></trkpt><trkpt lat="45.713982375896855" lon="8.276744325474931"><ele>353.0</ele><time>2026-04-19T12:52:12.953Z</time></trkpt><trkpt lat="45.71400839840076" lon="8.276608628265594"><ele>353.0</ele><time>2026-04-19T12:52:13.953Z</time></trkpt><trkpt lat="45.71403501766379" lon="8.276476004718429"><ele>353.0</ele><time>2026-04-19T12:52:14.953Z</time></trkpt><trkpt lat="45.71406181492593" lon="8.276348430260873"><ele>353.0</ele><time>2026-04-19T12:52:15.953Z</time></trkpt><trkpt lat="45.71408885039418" lon="8.276220251070004"><ele>353.0</ele><time>2026-04-19T12:52:16.953Z</time></trkpt><trkpt lat="45.7141176398535" lon="8.276092129009399"><ele>353.0</ele><time>2026-04-19T12:52:17.953Z</time></trkpt><trkpt lat="45.71413225372844" lon="8.275960338395308"><ele>353.0</ele><time>2026-04-19T12:52:18.953Z</time></trkpt><trkpt lat="45.714138821238535" lon="8.275833712971808"><ele>353.0</ele><time>2026-04-19T12:52:19.953Z</time></trkpt><trkpt lat="45.714153054829765" lon="8.27570914000925"><ele>353.0</ele><time>2026-04-19T12:52:20.953Z</time></trkpt><trkpt lat="45.71416247802099" lon="8.275581794019143"><ele>353.0</ele><time>2026-04-19T12:52:21.953Z</time></trkpt><trkpt lat="45.71416944685745" lon="8.275453781742858"><ele>353.0</ele><time>2026-04-19T12:52:22.953Z</time></trkpt><trkpt lat="45.714181843468175" lon="8.27532596624528"><ele>353.0</ele><time>2026-04-19T12:52:23.953Z</time></trkpt><trkpt lat="45.71420946544107" lon="8.275194008635786"><ele>353.0</ele><time>2026-04-19T12:52:24.953Z</time></trkpt><trkpt lat="45.714232836288346" lon="8.2750679708268"><ele>353.0</ele><time>2026-04-19T12:52:25.953Z</time></trkpt><trkpt lat="45.71425323511216" lon="8.274942770002404"><ele>353.0</ele><time>2026-04-19T12:52:26.953Z</time></trkpt><trkpt lat="45.71426858131549" lon="8.274815149622809"><ele>353.0</ele><time>2026-04-19T12:52:27.953Z</time></trkpt><trkpt lat="45.714283952767566" lon="8.274687898960353"><ele>353.0</ele><time>2026-04-19T12:52:28.953Z</time></trkpt><trkpt lat="45.71429866493291" lon="8.274561613407018"><ele>353.0</ele><time>2026-04-19T12:52:29.953Z</time></trkpt><trkpt lat="45.714313583458924" lon="8.274446604701355"><ele>353.0</ele><time>2026-04-19T12:52:30.953Z</time></trkpt><trkpt lat="45.7143218374177" lon="8.274346789297024"><ele>353.0</ele><time>2026-04-19T12:52:31.953Z</time></trkpt><trkpt lat="45.714342306236894" lon="8.274257210743393"><ele>353.4</ele><time>2026-04-19T12:52:32.953Z</time></trkpt><trkpt lat="45.71441110474977" lon="8.27413327027458"><ele>353.79999999999995</ele><time>2026-04-19T12:52:34.953Z</time></trkpt><trkpt lat="45.71452456953687" lon="8.274071159151566"><ele>354.2</ele><time>2026-04-19T12:52:36.953Z</time></trkpt><trkpt lat="45.71460886212425" lon="8.274051274191565"><ele>354.6</ele><time>2026-04-19T12:52:37.953Z</time></trkpt><trkpt lat="45.71469545563702" lon="8.27402769722778"><ele>355.0</ele><time>2026-04-19T12:52:38.953Z</time></trkpt><trkpt lat="45.71478421564049" lon="8.27399637413147"><ele>355.0</ele><time>2026-04-19T12:52:39.953Z</time></trkpt><trkpt lat="45.714869793572845" lon="8.273956527292922"><ele>355.0</ele><time>2026-04-19T12:52:40.953Z</time></trkpt><trkpt lat="45.71495104354769" lon="8.273895528970009"><ele>355.0</ele><time>2026-04-19T12:52:41.953Z</time></trkpt><trkpt lat="45.71501171804781" lon="8.273811773332396"><ele>355.0</ele><time>2026-04-19T12:52:42.953Z</time></trkpt><trkpt lat="45.715061276506695" lon="8.273735125296026"><ele>355.0</ele><time>2026-04-19T12:52:43.953Z</time></trkpt><trkpt lat="45.71509929677081" lon="8.27364265172059"><ele>355.0</ele><time>2026-04-19T12:52:44.953Z</time></trkpt><trkpt lat="45.71513914243849" lon="8.273531055906334"><ele>354.8</ele><time>2026-04-19T12:52:45.953Z</time></trkpt><trkpt lat="45.71518651225526" lon="8.273418742160041"><ele>354.6</ele><time>2026-04-19T12:52:46.953Z</time></trkpt><trkpt lat="45.715238091189825" lon="8.273302690759492"><ele>354.4</ele><time>2026-04-19T12:52:47.953Z</time></trkpt><trkpt lat="45.715283290463695" lon="8.2731819347871"><ele>354.2</ele><time>2026-04-19T12:52:48.953Z</time></trkpt><trkpt lat="45.715334463217985" lon="8.2730668898293"><ele>354.0</ele><time>2026-04-19T12:52:49.954Z</time></trkpt><trkpt lat="45.71539288155345" lon="8.27295705953872"><ele>354.0</ele><time>2026-04-19T12:52:50.954Z</time></trkpt><trkpt lat="45.715456768366046" lon="8.272861296829205"><ele>354.0</ele><time>2026-04-19T12:52:51.954Z</time></trkpt><trkpt lat="45.715534122380106" lon="8.272778796402866"><ele>354.0</ele><time>2026-04-19T12:52:52.954Z</time></trkpt><trkpt lat="45.71561353336956" lon="8.27270041513054"><ele>354.0</ele><time>2026-04-19T12:52:53.954Z</time></trkpt><trkpt lat="45.71569345657227" lon="8.272616620493341"><ele>354.0</ele><time>2026-04-19T12:52:54.954Z</time></trkpt><trkpt lat="45.71577173228911" lon="8.272530136655032"><ele>354.0</ele><time>2026-04-19T12:52:55.954Z</time></trkpt><trkpt lat="45.71584956309601" lon="8.272438652597076"><ele>354.0</ele><time>2026-04-19T12:52:56.954Z</time></trkpt><trkpt lat="45.715921919683545" lon="8.272349836638362"><ele>354.0</ele><time>2026-04-19T12:52:57.954Z</time></trkpt><trkpt lat="45.71599565300588" lon="8.272263484389287"><ele>354.0</ele><time>2026-04-19T12:52:58.954Z</time></trkpt><trkpt lat="45.71607564815331" lon="8.272180998188523"><ele>354.0</ele><time>2026-04-19T12:52:59.954Z</time></trkpt><trkpt lat="45.71615988141426" lon="8.27209881870241"><ele>354.4</ele><time>2026-04-19T12:53:00.954Z</time></trkpt><trkpt lat="45.71624394982785" lon="8.272020971765432"><ele>354.79999999999995</ele><time>2026-04-19T12:53:01.954Z</time></trkpt><trkpt lat="45.71632305625585" lon="8.271957549436395"><ele>355.20000000000005</ele><time>2026-04-19T12:53:02.954Z</time></trkpt><trkpt lat="45.7163957242015" lon="8.27189740948213"><ele>355.6</ele><time>2026-04-19T12:53:03.954Z</time></trkpt><trkpt lat="45.716462235084734" lon="8.271840223191827"><ele>356.0</ele><time>2026-04-19T12:53:04.954Z</time></trkpt><trkpt lat="45.71656924685544" lon="8.271817734181788"><ele>356.0</ele><time>2026-04-19T12:53:06.954Z</time></trkpt><trkpt lat="45.71664679115966" lon="8.271902701623642"><ele>356.0</ele><time>2026-04-19T12:53:08.954Z</time></trkpt><trkpt lat="45.716689791812165" lon="8.271987843365087"><ele>356.0</ele><time>2026-04-19T12:53:09.954Z</time></trkpt><trkpt lat="45.71674573207011" lon="8.272076626747806"><ele>356.0</ele><time>2026-04-19T12:53:10.954Z</time></trkpt><trkpt lat="45.71680094362881" lon="8.27216038216532"><ele>356.0</ele><time>2026-04-19T12:53:11.954Z</time></trkpt><trkpt lat="45.716861923615895" lon="8.272247772009285"><ele>356.0</ele><time>2026-04-19T12:53:12.954Z</time></trkpt><trkpt lat="45.716928751737846" lon="8.272347115193238"><ele>356.4</ele><time>2026-04-19T12:53:13.954Z</time></trkpt><trkpt lat="45.716993138676614" lon="8.272451088697375"><ele>356.8</ele><time>2026-04-19T12:53:14.954Z</time></trkpt><trkpt lat="45.717059775883726" lon="8.272553069450456"><ele>357.2</ele><time>2026-04-19T12:53:15.954Z</time></trkpt><trkpt lat="45.71713170604161" lon="8.272649632500029"><ele>357.59999999999997</ele><time>2026-04-19T12:53:16.954Z</time></trkpt><trkpt lat="45.71720831625378" lon="8.272747959171388"><ele>358.0</ele><time>2026-04-19T12:53:17.954Z</time></trkpt><trkpt lat="45.71727798886289" lon="8.2728536145738"><ele>358.0</ele><time>2026-04-19T12:53:18.954Z</time></trkpt><trkpt lat="45.71734718561339" lon="8.272957021158486"><ele>358.0</ele><time>2026-04-19T12:53:19.954Z</time></trkpt><trkpt lat="45.71741940732619" lon="8.273055495470267"><ele>358.0</ele><time>2026-04-19T12:53:20.954Z</time></trkpt><trkpt lat="45.71748681207929" lon="8.273151118866966"><ele>358.0</ele><time>2026-04-19T12:53:21.954Z</time></trkpt><trkpt lat="45.71754416904788" lon="8.273234040771538"><ele>358.0</ele><time>2026-04-19T12:53:22.954Z</time></trkpt><trkpt lat="45.717596394375335" lon="8.273305486568125"><ele>358.0</ele><time>2026-04-19T12:53:23.954Z</time></trkpt><trkpt lat="45.71764274660874" lon="8.27337112118938"><ele>358.0</ele><time>2026-04-19T12:53:24.954Z</time></trkpt><trkpt lat="45.71770252855013" lon="8.273471860515777"><ele>358.0</ele><time>2026-04-19T12:53:26.954Z</time></trkpt><trkpt lat="45.71774909208925" lon="8.273550311597214"><ele>358.0</ele><time>2026-04-19T12:53:28.954Z</time></trkpt><trkpt lat="45.71781254956837" lon="8.273657930750415"><ele>358.0</ele><time>2026-04-19T12:53:30.954Z</time></trkpt><trkpt lat="45.717855602864525" lon="8.273725517378022"><ele>358.0</ele><time>2026-04-19T12:53:31.954Z</time></trkpt><trkpt lat="45.71790818515313" lon="8.273794281557656"><ele>358.0</ele><time>2026-04-19T12:53:32.954Z</time></trkpt><trkpt lat="45.71796188182892" lon="8.273879768854878"><ele>358.66666666666663</ele><time>2026-04-19T12:53:33.954Z</time></trkpt><trkpt lat="45.71801834417117" lon="8.273959731158675"><ele>359.3333333333333</ele><time>2026-04-19T12:53:34.955Z</time></trkpt><trkpt lat="45.718073670541386" lon="8.274039868557706"><ele>360.0</ele><time>2026-04-19T12:53:35.955Z</time></trkpt><trkpt lat="45.71812223103252" lon="8.274112107412225"><ele>360.6666666666667</ele><time>2026-04-19T12:53:36.955Z</time></trkpt><trkpt lat="45.7181706434055" lon="8.274178403022013"><ele>361.33333333333337</ele><time>2026-04-19T12:53:37.955Z</time></trkpt><trkpt lat="45.71822148734749" lon="8.27423582047726"><ele>362.0</ele><time>2026-04-19T12:53:38.955Z</time></trkpt><trkpt lat="45.71831039889322" lon="8.274347382772282"><ele>362.0</ele><time>2026-04-19T12:53:40.955Z</time></trkpt><trkpt lat="45.71839498562416" lon="8.274406393789306"><ele>362.0</ele><time>2026-04-19T12:53:42.955Z</time></trkpt><trkpt lat="45.71848813376242" lon="8.274345862698743"><ele>362.0</ele><time>2026-04-19T12:53:44.955Z</time></trkpt><trkpt lat="45.71853202302005" lon="8.274276183867023"><ele>362.0</ele><time>2026-04-19T12:53:45.955Z</time></trkpt><trkpt lat="45.7185793568917" lon="8.274198735200617"><ele>362.0</ele><time>2026-04-19T12:53:46.955Z</time></trkpt><trkpt lat="45.71862954706922" lon="8.274128355698078"><ele>362.0</ele><time>2026-04-19T12:53:47.955Z</time></trkpt><trkpt lat="45.718688822604506" lon="8.274052586665993"><ele>361.83333333333337</ele><time>2026-04-19T12:53:48.955Z</time></trkpt><trkpt lat="45.718756587375985" lon="8.273978764282386"><ele>361.6666666666667</ele><time>2026-04-19T12:53:49.955Z</time></trkpt><trkpt lat="45.718825572683954" lon="8.273902682478285"><ele>361.5</ele><time>2026-04-19T12:53:50.955Z</time></trkpt><trkpt lat="45.71889593443248" lon="8.273829551963477"><ele>361.3333333333333</ele><time>2026-04-19T12:53:51.955Z</time></trkpt><trkpt lat="45.71896796482555" lon="8.273757465281397"><ele>361.16666666666663</ele><time>2026-04-19T12:53:52.955Z</time></trkpt><trkpt lat="45.71904406017307" lon="8.273683649886548"><ele>361.0</ele><time>2026-04-19T12:53:53.955Z</time></trkpt><trkpt lat="45.719128369473104" lon="8.273605692118696"><ele>361.0</ele><time>2026-04-19T12:53:54.955Z</time></trkpt><trkpt lat="45.7192139840995" lon="8.273525587811184"><ele>361.0</ele><time>2026-04-19T12:53:55.955Z</time></trkpt><trkpt lat="45.719296832713404" lon="8.273434789252267"><ele>361.0</ele><time>2026-04-19T12:53:56.955Z</time></trkpt><trkpt lat="45.71938425641871" lon="8.273348341150452"><ele>361.0</ele><time>2026-04-19T12:53:57.955Z</time></trkpt><trkpt lat="45.719471776700665" lon="8.273256493598637"><ele>361.0</ele><time>2026-04-19T12:53:58.955Z</time></trkpt><trkpt lat="45.71955950113233" lon="8.273168385729774"><ele>360.6</ele><time>2026-04-19T12:53:59.955Z</time></trkpt><trkpt lat="45.71964112356968" lon="8.273072168687744"><ele>360.20000000000005</ele><time>2026-04-19T12:54:00.955Z</time></trkpt><trkpt lat="45.71972929914478" lon="8.272980702901755"><ele>359.79999999999995</ele><time>2026-04-19T12:54:01.955Z</time></trkpt><trkpt lat="45.71981549896984" lon="8.272889318380294"><ele>359.4</ele><time>2026-04-19T12:54:02.955Z</time></trkpt><trkpt lat="45.71990062726952" lon="8.272799817114784"><ele>359.0</ele><time>2026-04-19T12:54:03.955Z</time></trkpt><trkpt lat="45.71998651608515" lon="8.272706831276238"><ele>359.0</ele><time>2026-04-19T12:54:04.955Z</time></trkpt><trkpt lat="45.72007400026982" lon="8.272613562889912"><ele>359.0</ele><time>2026-04-19T12:54:05.955Z</time></trkpt><trkpt lat="45.720164926890774" lon="8.272521507997192"><ele>359.0</ele><time>2026-04-19T12:54:06.955Z</time></trkpt><trkpt lat="45.72026120250887" lon="8.272429170904724"><ele>359.0</ele><time>2026-04-19T12:54:07.955Z</time></trkpt><trkpt lat="45.72035655143959" lon="8.27233330336446"><ele>359.6</ele><time>2026-04-19T12:54:08.955Z</time></trkpt><trkpt lat="45.72045356505755" lon="8.272240866648762"><ele>360.2</ele><time>2026-04-19T12:54:09.955Z</time></trkpt><trkpt lat="45.720537784007796" lon="8.272145683081519"><ele>360.8</ele><time>2026-04-19T12:54:10.955Z</time></trkpt><trkpt lat="45.720616303380744" lon="8.272051390491423"><ele>361.40000000000003</ele><time>2026-04-19T12:54:11.955Z</time></trkpt><trkpt lat="45.7206981991189" lon="8.271960828839939"><ele>362.0</ele><time>2026-04-19T12:54:12.955Z</time></trkpt><trkpt lat="45.720780634756146" lon="8.271870036837324"><ele>362.0</ele><time>2026-04-19T12:54:13.955Z</time></trkpt><trkpt lat="45.72086352241352" lon="8.271778934971891"><ele>362.0</ele><time>2026-04-19T12:54:14.955Z</time></trkpt><trkpt lat="45.72094563111504" lon="8.271689708161635"><ele>362.0</ele><time>2026-04-19T12:54:15.953Z</time></trkpt><trkpt lat="45.721028228906206" lon="8.271600761256868"><ele>362.0</ele><time>2026-04-19T12:54:16.953Z</time></trkpt><trkpt lat="45.721112134705955" lon="8.271516025860713"><ele>362.0</ele><time>2026-04-19T12:54:17.953Z</time></trkpt><trkpt lat="45.721196102126285" lon="8.271437005356788"><ele>362.8</ele><time>2026-04-19T12:54:18.953Z</time></trkpt><trkpt lat="45.7212776550549" lon="8.271357871320637"><ele>363.6</ele><time>2026-04-19T12:54:19.952Z</time></trkpt><trkpt lat="45.721359249539475" lon="8.27127884747687"><ele>364.40000000000003</ele><time>2026-04-19T12:54:20.952Z</time></trkpt><trkpt lat="45.72143765408256" lon="8.271201570381214"><ele>365.20000000000005</ele><time>2026-04-19T12:54:21.953Z</time></trkpt><trkpt lat="45.72151081051107" lon="8.27112910865135"><ele>366.0</ele><time>2026-04-19T12:54:22.952Z</time></trkpt><trkpt lat="45.72157438487959" lon="8.271063286705974"><ele>366.0</ele><time>2026-04-19T12:54:23.952Z</time></trkpt><trkpt lat="45.72163046998359" lon="8.271003997206098"><ele>366.0</ele><time>2026-04-19T12:54:24.953Z</time></trkpt><trkpt lat="45.72168555886933" lon="8.270947922214644"><ele>366.0</ele><time>2026-04-19T12:54:25.953Z</time></trkpt><trkpt lat="45.72174424431044" lon="8.270909522340267"><ele>366.0</ele><time>2026-04-19T12:54:26.953Z</time></trkpt><trkpt lat="45.72180809003991" lon="8.270888078515567"><ele>366.0</ele><time>2026-04-19T12:54:27.953Z</time></trkpt><trkpt lat="45.72192153986565" lon="8.270858837581542"><ele>366.0</ele><time>2026-04-19T12:54:29.952Z</time></trkpt><trkpt lat="45.721995644760455" lon="8.270776663465403"><ele>366.5</ele><time>2026-04-19T12:54:31.952Z</time></trkpt><trkpt lat="45.72204961080936" lon="8.2706073765016"><ele>367.0</ele><time>2026-04-19T12:54:33.952Z</time></trkpt><trkpt lat="45.72215374640048" lon="8.270465041265371"><ele>367.5</ele><time>2026-04-19T12:54:35.952Z</time></trkpt><trkpt lat="45.7222248513237" lon="8.27039345045584"><ele>368.0</ele><time>2026-04-19T12:54:36.952Z</time></trkpt><trkpt lat="45.72229663924701" lon="8.27031849853397"><ele>368.0</ele><time>2026-04-19T12:54:37.952Z</time></trkpt><trkpt lat="45.72237000228291" lon="8.270250621040168"><ele>368.0</ele><time>2026-04-19T12:54:38.952Z</time></trkpt><trkpt lat="45.72244419700637" lon="8.2701751384754"><ele>368.0</ele><time>2026-04-19T12:54:39.953Z</time></trkpt><trkpt lat="45.72252148028513" lon="8.270093032924258"><ele>368.0</ele><time>2026-04-19T12:54:40.953Z</time></trkpt><trkpt lat="45.72260371801397" lon="8.270004284901326"><ele>368.0</ele><time>2026-04-19T12:54:41.953Z</time></trkpt><trkpt lat="45.72268875163448" lon="8.269919292913787"><ele>368.33333333333337</ele><time>2026-04-19T12:54:42.953Z</time></trkpt><trkpt lat="45.722757433538625" lon="8.269829168455022"><ele>368.6666666666667</ele><time>2026-04-19T12:54:43.953Z</time></trkpt><trkpt lat="45.72281861514512" lon="8.269742561053825"><ele>369.0</ele><time>2026-04-19T12:54:44.953Z</time></trkpt><trkpt lat="45.72288044134736" lon="8.269671126987548"><ele>369.3333333333333</ele><time>2026-04-19T12:54:45.953Z</time></trkpt><trkpt lat="45.722945023378976" lon="8.269594075589966"><ele>369.66666666666663</ele><time>2026-04-19T12:54:46.953Z</time></trkpt><trkpt lat="45.72301731580236" lon="8.269522650512446"><ele>370.0</ele><time>2026-04-19T12:54:47.953Z</time></trkpt><trkpt lat="45.723091484638154" lon="8.269453730380553"><ele>370.0</ele><time>2026-04-19T12:54:48.953Z</time></trkpt><trkpt lat="45.72316505580193" lon="8.269377675633319"><ele>370.0</ele><time>2026-04-19T12:54:49.953Z</time></trkpt><trkpt lat="45.723246938269895" lon="8.26930315286337"><ele>370.0</ele><time>2026-04-19T12:54:50.953Z</time></trkpt><trkpt lat="45.72332391999895" lon="8.269223987868713"><ele>370.0</ele><time>2026-04-19T12:54:51.953Z</time></trkpt><trkpt lat="45.72340335769729" lon="8.269144337653643"><ele>370.0</ele><time>2026-04-19T12:54:52.953Z</time></trkpt><trkpt lat="45.72348667332834" lon="8.26905836560355"><ele>369.8</ele><time>2026-04-19T12:54:53.953Z</time></trkpt><trkpt lat="45.72357101042507" lon="8.268969273662982"><ele>369.6</ele><time>2026-04-19T12:54:54.953Z</time></trkpt><trkpt lat="45.72365893223806" lon="8.268875313673679"><ele>369.4</ele><time>2026-04-19T12:54:55.953Z</time></trkpt><trkpt lat="45.72374941400375" lon="8.26878393606623"><ele>369.2</ele><time>2026-04-19T12:54:56.953Z</time></trkpt><trkpt lat="45.723835417364356" lon="8.26869701934981"><ele>369.0</ele><time>2026-04-19T12:54:57.953Z</time></trkpt><trkpt lat="45.72391995621424" lon="8.268604640609276"><ele>369.0</ele><time>2026-04-19T12:54:58.953Z</time></trkpt><trkpt lat="45.72400890717697" lon="8.268512609066281"><ele>369.0</ele><time>2026-04-19T12:54:59.953Z</time></trkpt><trkpt lat="45.724102477394" lon="8.268422181508013"><ele>369.0</ele><time>2026-04-19T12:55:00.953Z</time></trkpt><trkpt lat="45.72420036900542" lon="8.26833205783192"><ele>369.0</ele><time>2026-04-19T12:55:01.953Z</time></trkpt><trkpt lat="45.72430000242401" lon="8.268241033475546"><ele>369.0</ele><time>2026-04-19T12:55:02.953Z</time></trkpt><trkpt lat="45.724402201384734" lon="8.26814465389286"><ele>369.0</ele><time>2026-04-19T12:55:03.953Z</time></trkpt><trkpt lat="45.72450431835241" lon="8.268038395138124"><ele>369.0</ele><time>2026-04-19T12:55:04.953Z</time></trkpt><trkpt lat="45.724605912907926" lon="8.26792801133612"><ele>369.0</ele><time>2026-04-19T12:55:05.953Z</time></trkpt><trkpt lat="45.72471195939234" lon="8.267808819584282"><ele>369.0</ele><time>2026-04-19T12:55:06.953Z</time></trkpt><trkpt lat="45.72481660989264" lon="8.267694071875137"><ele>369.0</ele><time>2026-04-19T12:55:07.953Z</time></trkpt><trkpt lat="45.72492076491827" lon="8.26758095261313"><ele>369.0</ele><time>2026-04-19T12:55:08.953Z</time></trkpt><trkpt lat="45.725018126455964" lon="8.267465057794393"><ele>369.0</ele><time>2026-04-19T12:55:09.953Z</time></trkpt><trkpt lat="45.725112742417615" lon="8.267348566144761"><ele>368.75</ele><time>2026-04-19T12:55:10.953Z</time></trkpt><trkpt lat="45.72521346911501" lon="8.267245942677407"><ele>368.5</ele><time>2026-04-19T12:55:11.953Z</time></trkpt><trkpt lat="45.7253121251045" lon="8.267143548377167"><ele>368.25</ele><time>2026-04-19T12:55:12.953Z</time></trkpt><trkpt lat="45.72540845781392" lon="8.267043079910017"><ele>368.0</ele><time>2026-04-19T12:55:13.953Z</time></trkpt><trkpt lat="45.72550405166782" lon="8.266942826068155"><ele>368.5</ele><time>2026-04-19T12:55:14.953Z</time></trkpt><trkpt lat="45.72559806686371" lon="8.266837425793575"><ele>369.0</ele><time>2026-04-19T12:55:15.953Z</time></trkpt><trkpt lat="45.72569232365648" lon="8.266731168342266"><ele>369.5</ele><time>2026-04-19T12:55:16.953Z</time></trkpt><trkpt lat="45.72579032479614" lon="8.266628637156145"><ele>370.0</ele><time>2026-04-19T12:55:17.953Z</time></trkpt><trkpt lat="45.72589135236646" lon="8.266526986398938"><ele>369.5</ele><time>2026-04-19T12:55:18.953Z</time></trkpt><trkpt lat="45.725993206604116" lon="8.266423290921729"><ele>369.0</ele><time>2026-04-19T12:55:19.953Z</time></trkpt><trkpt lat="45.72609727350391" lon="8.266317864721799"><ele>368.5</ele><time>2026-04-19T12:55:20.953Z</time></trkpt><trkpt lat="45.72619394260283" lon="8.266208996437257"><ele>368.0</ele><time>2026-04-19T12:55:21.953Z</time></trkpt><trkpt lat="45.726290971429734" lon="8.266107340217467"><ele>369.25</ele><time>2026-04-19T12:55:22.953Z</time></trkpt><trkpt lat="45.72638561553092" lon="8.266011425220052"><ele>370.5</ele><time>2026-04-19T12:55:23.953Z</time></trkpt><trkpt lat="45.726477985509135" lon="8.265916752731961"><ele>371.75</ele><time>2026-04-19T12:55:24.954Z</time></trkpt><trkpt lat="45.7265687171265" lon="8.265820526974876"><ele>373.0</ele><time>2026-04-19T12:55:25.954Z</time></trkpt><trkpt lat="45.72666046236445" lon="8.26572910807689"><ele>373.0</ele><time>2026-04-19T12:55:26.954Z</time></trkpt><trkpt lat="45.72675055353244" lon="8.265635702432848"><ele>373.0</ele><time>2026-04-19T12:55:27.954Z</time></trkpt><trkpt lat="45.726840300666865" lon="8.265540435522926"><ele>373.0</ele><time>2026-04-19T12:55:28.954Z</time></trkpt><trkpt lat="45.72692985790266" lon="8.265447139182927"><ele>373.0</ele><time>2026-04-19T12:55:29.954Z</time></trkpt><trkpt lat="45.72702458490572" lon="8.265362904934182"><ele>373.0</ele><time>2026-04-19T12:55:30.954Z</time></trkpt><trkpt lat="45.72711762656181" lon="8.265283724984274"><ele>372.59999999999997</ele><time>2026-04-19T12:55:31.954Z</time></trkpt><trkpt lat="45.72720430511542" lon="8.26520099690416"><ele>372.2</ele><time>2026-04-19T12:55:32.954Z</time></trkpt><trkpt lat="45.72729191704835" lon="8.265111962942617"><ele>371.8</ele><time>2026-04-19T12:55:33.954Z</time></trkpt><trkpt lat="45.72737948686764" lon="8.265023864036184"><ele>371.4</ele><time>2026-04-19T12:55:34.954Z</time></trkpt><trkpt lat="45.72746752724425" lon="8.264937994060324"><ele>371.0</ele><time>2026-04-19T12:55:35.954Z</time></trkpt><trkpt lat="45.727555047022705" lon="8.264849981490977"><ele>370.8</ele><time>2026-04-19T12:55:36.954Z</time></trkpt><trkpt lat="45.72763930639315" lon="8.264758648847895"><ele>370.6</ele><time>2026-04-19T12:55:37.954Z</time></trkpt><trkpt lat="45.72772403855951" lon="8.264666599722107"><ele>370.4</ele><time>2026-04-19T12:55:38.954Z</time></trkpt><trkpt lat="45.727811242275074" lon="8.264577194524254"><ele>370.2</ele><time>2026-04-19T12:55:39.954Z</time></trkpt><trkpt lat="45.72789813807458" lon="8.264488526181102"><ele>370.0</ele><time>2026-04-19T12:55:40.954Z</time></trkpt><trkpt lat="45.727984937105795" lon="8.264398953030085"><ele>370.5</ele><time>2026-04-19T12:55:41.954Z</time></trkpt><trkpt lat="45.72806968570733" lon="8.264304717415069"><ele>371.0</ele><time>2026-04-19T12:55:42.954Z</time></trkpt><trkpt lat="45.728160515468" lon="8.264209783358158"><ele>371.5</ele><time>2026-04-19T12:55:43.954Z</time></trkpt><trkpt lat="45.728257270514604" lon="8.264120516501286"><ele>372.0</ele><time>2026-04-19T12:55:44.954Z</time></trkpt><trkpt lat="45.728367735382676" lon="8.264050583641769"><ele>372.0</ele><time>2026-04-19T12:55:45.954Z</time></trkpt><trkpt lat="45.72848916965683" lon="8.263997945905366"><ele>372.0</ele><time>2026-04-19T12:55:46.954Z</time></trkpt><trkpt lat="45.728610432353975" lon="8.26394986212137"><ele>372.0</ele><time>2026-04-19T12:55:47.954Z</time></trkpt><trkpt lat="45.72873507908629" lon="8.263903538722369"><ele>372.0</ele><time>2026-04-19T12:55:48.954Z</time></trkpt><trkpt lat="45.72886503760236" lon="8.263857259212333"><ele>372.0</ele><time>2026-04-19T12:55:49.954Z</time></trkpt><trkpt lat="45.728996182294324" lon="8.26380880608134"><ele>372.0</ele><time>2026-04-19T12:55:50.954Z</time></trkpt><trkpt lat="45.72911629600737" lon="8.263763771431726"><ele>372.0</ele><time>2026-04-19T12:55:51.954Z</time></trkpt><trkpt lat="45.72922660860534" lon="8.263721586572737"><ele>372.0</ele><time>2026-04-19T12:55:52.954Z</time></trkpt><trkpt lat="45.729339539423414" lon="8.263681458931416"><ele>372.5</ele><time>2026-04-19T12:55:53.954Z</time></trkpt><trkpt lat="45.72945755393715" lon="8.263640182919161"><ele>373.0</ele><time>2026-04-19T12:55:54.954Z</time></trkpt><trkpt lat="45.7295775878376" lon="8.263596510697946"><ele>373.5</ele><time>2026-04-19T12:55:55.954Z</time></trkpt><trkpt lat="45.72969967898374" lon="8.2635481874098"><ele>374.0</ele><time>2026-04-19T12:55:56.954Z</time></trkpt><trkpt lat="45.72982924209771" lon="8.263504933915433"><ele>374.0</ele><time>2026-04-19T12:55:57.954Z</time></trkpt><trkpt lat="45.729958149210795" lon="8.263458673395153"><ele>374.0</ele><time>2026-04-19T12:55:58.954Z</time></trkpt><trkpt lat="45.73008331761152" lon="8.263409901480204"><ele>374.0</ele><time>2026-04-19T12:55:59.954Z</time></trkpt><trkpt lat="45.73019844987058" lon="8.263364879810133"><ele>374.0</ele><time>2026-04-19T12:56:00.954Z</time></trkpt><trkpt lat="45.730306464451964" lon="8.26332242655035"><ele>373.79999999999995</ele><time>2026-04-19T12:56:01.954Z</time></trkpt><trkpt lat="45.730406311430606" lon="8.263284110031785"><ele>373.59999999999997</ele><time>2026-04-19T12:56:02.954Z</time></trkpt><trkpt lat="45.73050075518527" lon="8.26325068616344"><ele>373.4</ele><time>2026-04-19T12:56:03.954Z</time></trkpt><trkpt lat="45.73059078353503" lon="8.263217899414864"><ele>373.2</ele><time>2026-04-19T12:56:04.954Z</time></trkpt><trkpt lat="45.73068117215336" lon="8.26318342434155"><ele>373.0</ele><time>2026-04-19T12:56:05.954Z</time></trkpt><trkpt lat="45.73077856298356" lon="8.263149913664561"><ele>372.75</ele><time>2026-04-19T12:56:06.954Z</time></trkpt><trkpt lat="45.73088136815061" lon="8.263109904700752"><ele>372.5</ele><time>2026-04-19T12:56:07.954Z</time></trkpt><trkpt lat="45.73098338937381" lon="8.263061819379097"><ele>372.25</ele><time>2026-04-19T12:56:08.954Z</time></trkpt><trkpt lat="45.73109810551823" lon="8.26302038747849"><ele>372.0</ele><time>2026-04-19T12:56:09.955Z</time></trkpt><trkpt lat="45.73121780158164" lon="8.262978743819252"><ele>372.0</ele><time>2026-04-19T12:56:10.955Z</time></trkpt><trkpt lat="45.73134467220157" lon="8.26293186171954"><ele>372.0</ele><time>2026-04-19T12:56:11.955Z</time></trkpt><trkpt lat="45.731480140859055" lon="8.262886043615277"><ele>372.0</ele><time>2026-04-19T12:56:12.955Z</time></trkpt><trkpt lat="45.731618105696" lon="8.26283927089425"><ele>372.0</ele><time>2026-04-19T12:56:13.955Z</time></trkpt><trkpt lat="45.7317528704337" lon="8.262789340765021"><ele>372.0</ele><time>2026-04-19T12:56:14.955Z</time></trkpt><trkpt lat="45.73187696719831" lon="8.262741464173745"><ele>372.0</ele><time>2026-04-19T12:56:15.955Z</time></trkpt><trkpt lat="45.73199466375449" lon="8.262697258308938"><ele>372.0</ele><time>2026-04-19T12:56:16.955Z</time></trkpt><trkpt lat="45.732114280098244" lon="8.262656027755696"><ele>372.0</ele><time>2026-04-19T12:56:17.955Z</time></trkpt><trkpt lat="45.73223297956491" lon="8.262607616340315"><ele>372.75</ele><time>2026-04-19T12:56:18.955Z</time></trkpt><trkpt lat="45.732353313626795" lon="8.262561900825975"><ele>373.5</ele><time>2026-04-19T12:56:19.955Z</time></trkpt><trkpt lat="45.7324763933193" lon="8.262522385840596"><ele>374.25</ele><time>2026-04-19T12:56:20.955Z</time></trkpt><trkpt lat="45.73259796952329" lon="8.262485486237171"><ele>375.0</ele><time>2026-04-19T12:56:21.951Z</time></trkpt><trkpt lat="45.732710521963035" lon="8.262446121763034"><ele>375.4</ele><time>2026-04-19T12:56:22.952Z</time></trkpt><trkpt lat="45.73282081921066" lon="8.26240558301689"><ele>375.8</ele><time>2026-04-19T12:56:23.952Z</time></trkpt><trkpt lat="45.73293024380259" lon="8.262371338644051"><ele>376.20000000000005</ele><time>2026-04-19T12:56:24.952Z</time></trkpt><trkpt lat="45.73303430724543" lon="8.262339419581359"><ele>376.6</ele><time>2026-04-19T12:56:25.951Z</time></trkpt><trkpt lat="45.73313719246894" lon="8.262308232354748"><ele>377.0</ele><time>2026-04-19T12:56:26.951Z</time></trkpt><trkpt lat="45.73323237431023" lon="8.262274382975395"><ele>375.40000000000003</ele><time>2026-04-19T12:56:27.952Z</time></trkpt><trkpt lat="45.73332340238944" lon="8.26224070034731"><ele>373.8</ele><time>2026-04-19T12:56:28.952Z</time></trkpt><trkpt lat="45.733411225944195" lon="8.262213139335659"><ele>372.2</ele><time>2026-04-19T12:56:29.952Z</time></trkpt><trkpt lat="45.73350114139924" lon="8.262195747161483"><ele>370.6</ele><time>2026-04-19T12:56:30.952Z</time></trkpt><trkpt lat="45.733590837497225" lon="8.262166821125332"><ele>369.0</ele><time>2026-04-19T12:56:31.952Z</time></trkpt><trkpt lat="45.733684207916234" lon="8.262115164808122"><ele>369.0</ele><time>2026-04-19T12:56:32.952Z</time></trkpt><trkpt lat="45.73377585381048" lon="8.262064211030598"><ele>369.0</ele><time>2026-04-19T12:56:33.952Z</time></trkpt><trkpt lat="45.73387631024488" lon="8.262020869842994"><ele>369.0</ele><time>2026-04-19T12:56:34.951Z</time></trkpt><trkpt lat="45.733985374075964" lon="8.261988957676788"><ele>369.0</ele><time>2026-04-19T12:56:35.951Z</time></trkpt><trkpt lat="45.73409245804971" lon="8.261948261366056"><ele>369.0</ele><time>2026-04-19T12:56:36.951Z</time></trkpt><trkpt lat="45.73420392213982" lon="8.261904924721994"><ele>369.0</ele><time>2026-04-19T12:56:37.951Z</time></trkpt><trkpt lat="45.73431672203073" lon="8.261859177365107"><ele>369.0</ele><time>2026-04-19T12:56:38.951Z</time></trkpt><trkpt lat="45.7344305211618" lon="8.261818758108003"><ele>369.0</ele><time>2026-04-19T12:56:39.951Z</time></trkpt><trkpt lat="45.734546857804666" lon="8.261778052191305"><ele>369.0</ele><time>2026-04-19T12:56:40.951Z</time></trkpt><trkpt lat="45.73466442532824" lon="8.261737486770603"><ele>370.75</ele><time>2026-04-19T12:56:41.951Z</time></trkpt><trkpt lat="45.734781426733136" lon="8.261696747841485"><ele>372.5</ele><time>2026-04-19T12:56:42.951Z</time></trkpt><trkpt lat="45.73489285104364" lon="8.261656407344713"><ele>374.25</ele><time>2026-04-19T12:56:43.951Z</time></trkpt><trkpt lat="45.73500006358871" lon="8.261617016269792"><ele>376.0</ele><time>2026-04-19T12:56:44.951Z</time></trkpt><trkpt lat="45.735103941126894" lon="8.261572922878035"><ele>376.0</ele><time>2026-04-19T12:56:45.951Z</time></trkpt><trkpt lat="45.735207551203345" lon="8.26153032703627"><ele>376.0</ele><time>2026-04-19T12:56:46.952Z</time></trkpt><trkpt lat="45.73530903814519" lon="8.261488861976746"><ele>376.0</ele><time>2026-04-19T12:56:47.952Z</time></trkpt><trkpt lat="45.73541506866516" lon="8.261450203249048"><ele>376.0</ele><time>2026-04-19T12:56:48.952Z</time></trkpt><trkpt lat="45.73552352134426" lon="8.261404964250023"><ele>376.0</ele><time>2026-04-19T12:56:49.952Z</time></trkpt><trkpt lat="45.73563801611407" lon="8.26136252410178"><ele>374.0</ele><time>2026-04-19T12:56:50.952Z</time></trkpt><trkpt lat="45.735758245521176" lon="8.261326764259058"><ele>372.0</ele><time>2026-04-19T12:56:51.952Z</time></trkpt><trkpt lat="45.73587621672518" lon="8.261308787701843"><ele>370.0</ele><time>2026-04-19T12:56:52.952Z</time></trkpt><trkpt lat="45.73599440721306" lon="8.261304186534257"><ele>368.0</ele><time>2026-04-19T12:56:53.952Z</time></trkpt><trkpt lat="45.73610953605666" lon="8.261313175499334"><ele>367.59999999999997</ele><time>2026-04-19T12:56:54.952Z</time></trkpt><trkpt lat="45.736218877615315" lon="8.261326938183148"><ele>367.2</ele><time>2026-04-19T12:56:55.952Z</time></trkpt><trkpt lat="45.73632274582043" lon="8.261350905384083"><ele>366.8</ele><time>2026-04-19T12:56:56.952Z</time></trkpt><trkpt lat="45.736423928253444" lon="8.26136948823839"><ele>366.4</ele><time>2026-04-19T12:56:57.952Z</time></trkpt><trkpt lat="45.73651924097065" lon="8.261378869646387"><ele>366.0</ele><time>2026-04-19T12:56:58.952Z</time></trkpt><trkpt lat="45.736609692723974" lon="8.26139557930133"><ele>366.0</ele><time>2026-04-19T12:56:59.952Z</time></trkpt><trkpt lat="45.7366936906471" lon="8.261433336311422"><ele>366.0</ele><time>2026-04-19T12:57:00.952Z</time></trkpt><trkpt lat="45.736778734028775" lon="8.261492190327406"><ele>366.0</ele><time>2026-04-19T12:57:01.952Z</time></trkpt><trkpt lat="45.736876160702465" lon="8.261557384391695"><ele>366.0</ele><time>2026-04-19T12:57:02.952Z</time></trkpt><trkpt lat="45.736982559657854" lon="8.261618932813137"><ele>366.0</ele><time>2026-04-19T12:57:03.952Z</time></trkpt><trkpt lat="45.7370948136246" lon="8.261677084888044"><ele>368.0</ele><time>2026-04-19T12:57:04.952Z</time></trkpt><trkpt lat="45.737209841746896" lon="8.261736067314683"><ele>370.0</ele><time>2026-04-19T12:57:05.952Z</time></trkpt><trkpt lat="45.73732442968375" lon="8.261793714259433"><ele>372.0</ele><time>2026-04-19T12:57:06.952Z</time></trkpt><trkpt lat="45.73744274178514" lon="8.261851798343224"><ele>374.0</ele><time>2026-04-19T12:57:07.952Z</time></trkpt><trkpt lat="45.737562199455716" lon="8.26191685690205"><ele>374.0</ele><time>2026-04-19T12:57:08.952Z</time></trkpt><trkpt lat="45.73768062106842" lon="8.261985587963517"><ele>374.0</ele><time>2026-04-19T12:57:09.952Z</time></trkpt><trkpt lat="45.73779890326346" lon="8.262061960974679"><ele>374.0</ele><time>2026-04-19T12:57:10.952Z</time></trkpt><trkpt lat="45.73791127139143" lon="8.26214428234507"><ele>374.0</ele><time>2026-04-19T12:57:11.952Z</time></trkpt><trkpt lat="45.73802312498496" lon="8.262226861530745"><ele>374.5</ele><time>2026-04-19T12:57:12.952Z</time></trkpt><trkpt lat="45.73813487832142" lon="8.262314651127426"><ele>375.0</ele><time>2026-04-19T12:57:13.952Z</time></trkpt><trkpt lat="45.73824621975228" lon="8.262406980777515"><ele>375.5</ele><time>2026-04-19T12:57:14.952Z</time></trkpt><trkpt lat="45.738363995297654" lon="8.262492213670935"><ele>376.0</ele><time>2026-04-19T12:57:15.952Z</time></trkpt><trkpt lat="45.73848252200756" lon="8.262579159530604"><ele>373.5</ele><time>2026-04-19T12:57:16.952Z</time></trkpt><trkpt lat="45.73860315656973" lon="8.262655803787894"><ele>371.0</ele><time>2026-04-19T12:57:17.952Z</time></trkpt><trkpt lat="45.738727833297936" lon="8.2627231727684"><ele>368.5</ele><time>2026-04-19T12:57:18.952Z</time></trkpt><trkpt lat="45.73886699494012" lon="8.262786217900587"><ele>366.0</ele><time>2026-04-19T12:57:19.952Z</time></trkpt><trkpt lat="45.73902009777615" lon="8.26283569568395"><ele>366.0</ele><time>2026-04-19T12:57:20.952Z</time></trkpt><trkpt lat="45.73918221958979" lon="8.262872584179426"><ele>366.0</ele><time>2026-04-19T12:57:21.952Z</time></trkpt><trkpt lat="45.73935044749716" lon="8.262895925272115"><ele>366.0</ele><time>2026-04-19T12:57:22.952Z</time></trkpt><trkpt lat="45.73952956371307" lon="8.26290626764793"><ele>366.6666666666667</ele><time>2026-04-19T12:57:23.952Z</time></trkpt><trkpt lat="45.7397160218935" lon="8.262913209991016"><ele>367.33333333333337</ele><time>2026-04-19T12:57:24.952Z</time></trkpt><trkpt lat="45.73989279373466" lon="8.26292106318674"><ele>368.0</ele><time>2026-04-19T12:57:25.952Z</time></trkpt><trkpt lat="45.74006361301872" lon="8.262935615748637"><ele>369.33333333333337</ele><time>2026-04-19T12:57:26.952Z</time></trkpt><trkpt lat="45.74023666689535" lon="8.262950682481145"><ele>370.6666666666667</ele><time>2026-04-19T12:57:27.952Z</time></trkpt><trkpt lat="45.74040217902929" lon="8.26295535225202"><ele>372.0</ele><time>2026-04-19T12:57:28.952Z</time></trkpt><trkpt lat="45.74057118863631" lon="8.262944693452472"><ele>372.0</ele><time>2026-04-19T12:57:29.952Z</time></trkpt><trkpt lat="45.74073645493775" lon="8.262912098902227"><ele>372.0</ele><time>2026-04-19T12:57:30.952Z</time></trkpt><trkpt lat="45.74090305636081" lon="8.262863071482714"><ele>372.0</ele><time>2026-04-19T12:57:31.953Z</time></trkpt><trkpt lat="45.741065991391565" lon="8.262807757633668"><ele>372.0</ele><time>2026-04-19T12:57:32.953Z</time></trkpt><trkpt lat="45.7412277784161" lon="8.262757858100473"><ele>372.0</ele><time>2026-04-19T12:57:33.953Z</time></trkpt><trkpt lat="45.74139500812323" lon="8.262725035300555"><ele>372.0</ele><time>2026-04-19T12:57:34.953Z</time></trkpt><trkpt lat="45.741567449703005" lon="8.262713352321189"><ele>372.0</ele><time>2026-04-19T12:57:35.953Z</time></trkpt><trkpt lat="45.741739373954836" lon="8.262720233089802"><ele>372.0</ele><time>2026-04-19T12:57:36.953Z</time></trkpt><trkpt lat="45.7419126595103" lon="8.262751675742733"><ele>372.0</ele><time>2026-04-19T12:57:37.953Z</time></trkpt><trkpt lat="45.74208363836323" lon="8.262804701080018"><ele>370.3333333333333</ele><time>2026-04-19T12:57:38.953Z</time></trkpt><trkpt lat="45.74225981199278" lon="8.262864698996562"><ele>368.66666666666663</ele><time>2026-04-19T12:57:39.953Z</time></trkpt><trkpt lat="45.742429845449834" lon="8.262919870885415"><ele>367.0</ele><time>2026-04-19T12:57:40.953Z</time></trkpt><trkpt lat="45.74259418944235" lon="8.262969033451197"><ele>366.66666666666663</ele><time>2026-04-19T12:57:41.953Z</time></trkpt><trkpt lat="45.74275767312757" lon="8.263016392705232"><ele>366.3333333333333</ele><time>2026-04-19T12:57:42.953Z</time></trkpt><trkpt lat="45.742916012735506" lon="8.263060696146729"><ele>366.0</ele><time>2026-04-19T12:57:43.953Z</time></trkpt><trkpt lat="45.74306897417607" lon="8.263100269313858"><ele>370.25</ele><time>2026-04-19T12:57:44.953Z</time></trkpt><trkpt lat="45.74321583492694" lon="8.263135876372532"><ele>374.5</ele><time>2026-04-19T12:57:45.953Z</time></trkpt><trkpt lat="45.74335851509212" lon="8.263173205919875"><ele>378.75</ele><time>2026-04-19T12:57:46.953Z</time></trkpt><trkpt lat="45.74350503311193" lon="8.263204490094454"><ele>383.0</ele><time>2026-04-19T12:57:47.953Z</time></trkpt><trkpt lat="45.743654803484674" lon="8.263238044928542"><ele>383.0</ele><time>2026-04-19T12:57:48.953Z</time></trkpt><trkpt lat="45.743812689442734" lon="8.263272785032928"><ele>383.0</ele><time>2026-04-19T12:57:49.953Z</time></trkpt><trkpt lat="45.74398075186922" lon="8.263328344134468"><ele>383.0</ele><time>2026-04-19T12:57:50.953Z</time></trkpt><trkpt lat="45.744159105796044" lon="8.26340052938755"><ele>383.0</ele><time>2026-04-19T12:57:51.953Z</time></trkpt><trkpt lat="45.74434096077748" lon="8.263476175373812"><ele>383.0</ele><time>2026-04-19T12:57:52.953Z</time></trkpt><trkpt lat="45.744530706172974" lon="8.263564418857468"><ele>383.0</ele><time>2026-04-19T12:57:53.953Z</time></trkpt><trkpt lat="45.744720626020396" lon="8.26365175285833"><ele>379.0</ele><time>2026-04-19T12:57:54.953Z</time></trkpt><trkpt lat="45.74491130939034" lon="8.263735386922423"><ele>375.0</ele><time>2026-04-19T12:57:55.953Z</time></trkpt><trkpt lat="45.745099130090225" lon="8.263808373286361"><ele>371.0</ele><time>2026-04-19T12:57:56.953Z</time></trkpt><trkpt lat="45.74528555799167" lon="8.263873357855324"><ele>371.0</ele><time>2026-04-19T12:57:57.953Z</time></trkpt><trkpt lat="45.745468900956034" lon="8.263930070737556"><ele>371.0</ele><time>2026-04-19T12:57:58.953Z</time></trkpt><trkpt lat="45.745643743319576" lon="8.26398779838993"><ele>371.0</ele><time>2026-04-19T12:57:59.953Z</time></trkpt><trkpt lat="45.74581912184256" lon="8.264046036929086"><ele>375.33333333333337</ele><time>2026-04-19T12:58:00.953Z</time></trkpt><trkpt lat="45.74599128118702" lon="8.264093690748876"><ele>379.6666666666667</ele><time>2026-04-19T12:58:01.953Z</time></trkpt><trkpt lat="45.74616533883094" lon="8.264117764096373"><ele>384.0</ele><time>2026-04-19T12:58:02.953Z</time></trkpt><trkpt lat="45.746334011164585" lon="8.264111527589218"><ele>384.66666666666663</ele><time>2026-04-19T12:58:03.953Z</time></trkpt><trkpt lat="45.74649843574037" lon="8.264088850570888"><ele>385.3333333333333</ele><time>2026-04-19T12:58:04.953Z</time></trkpt><trkpt lat="45.74665223113141" lon="8.264054922067634"><ele>386.0</ele><time>2026-04-19T12:58:05.953Z</time></trkpt><trkpt lat="45.74680118849732" lon="8.264022862867428"><ele>386.5</ele><time>2026-04-19T12:58:06.953Z</time></trkpt><trkpt lat="45.74694827692748" lon="8.26400040716873"><ele>387.0</ele><time>2026-04-19T12:58:07.953Z</time></trkpt><trkpt lat="45.74708791253205" lon="8.263990811064536"><ele>387.5</ele><time>2026-04-19T12:58:08.953Z</time></trkpt><trkpt lat="45.74722300371524" lon="8.264001227729127"><ele>388.0</ele><time>2026-04-19T12:58:09.953Z</time></trkpt><trkpt lat="45.747352649590795" lon="8.264037497209618"><ele>388.0</ele><time>2026-04-19T12:58:10.953Z</time></trkpt><trkpt lat="45.747478329026315" lon="8.264103521823463"><ele>388.0</ele><time>2026-04-19T12:58:11.953Z</time></trkpt><trkpt lat="45.74760081585115" lon="8.264190538027318"><ele>388.0</ele><time>2026-04-19T12:58:12.953Z</time></trkpt><trkpt lat="45.74771578202766" lon="8.2642965688785"><ele>388.0</ele><time>2026-04-19T12:58:13.953Z</time></trkpt><trkpt lat="45.74782531406781" lon="8.264421944954812"><ele>387.75</ele><time>2026-04-19T12:58:14.953Z</time></trkpt><trkpt lat="45.74792941533751" lon="8.264556818864675"><ele>387.5</ele><time>2026-04-19T12:58:15.953Z</time></trkpt><trkpt lat="45.74804022137465" lon="8.264684062152023"><ele>387.25</ele><time>2026-04-19T12:58:16.954Z</time></trkpt><trkpt lat="45.74816508928187" lon="8.264789133860873"><ele>387.0</ele><time>2026-04-19T12:58:17.954Z</time></trkpt><trkpt lat="45.748302660190355" lon="8.264875450922727"><ele>387.33333333333337</ele><time>2026-04-19T12:58:18.954Z</time></trkpt><trkpt lat="45.74844901610075" lon="8.264931379606976"><ele>387.6666666666667</ele><time>2026-04-19T12:58:19.954Z</time></trkpt><trkpt lat="45.74859807145984" lon="8.264948425232914"><ele>388.0</ele><time>2026-04-19T12:58:20.954Z</time></trkpt><trkpt lat="45.748752515629874" lon="8.26494794421916"><ele>388.0</ele><time>2026-04-19T12:58:21.954Z</time></trkpt><trkpt lat="45.748906024619004" lon="8.264945383029094"><ele>388.0</ele><time>2026-04-19T12:58:22.954Z</time></trkpt><trkpt lat="45.7490604320778" lon="8.264946563675021"><ele>388.0</ele><time>2026-04-19T12:58:23.954Z</time></trkpt><trkpt lat="45.74921214271763" lon="8.264953924836043"><ele>388.0</ele><time>2026-04-19T12:58:24.954Z</time></trkpt><trkpt lat="45.749359654276546" lon="8.264977182633478"><ele>388.0</ele><time>2026-04-19T12:58:25.954Z</time></trkpt><trkpt lat="45.749509119926834" lon="8.265015511776673"><ele>388.0</ele><time>2026-04-19T12:58:26.954Z</time></trkpt><trkpt lat="45.749656213954914" lon="8.265064170508499"><ele>388.25</ele><time>2026-04-19T12:58:27.95Z</time></trkpt><trkpt lat="45.74980125273648" lon="8.265116425330142"><ele>388.5</ele><time>2026-04-19T12:58:28.95Z</time></trkpt><trkpt lat="45.74994565615108" lon="8.265166469736966"><ele>388.75</ele><time>2026-04-19T12:58:29.95Z</time></trkpt><trkpt lat="45.750086889146445" lon="8.26521705015696"><ele>389.0</ele><time>2026-04-19T12:58:30.95Z</time></trkpt><trkpt lat="45.75022653817695" lon="8.265267624703874"><ele>389.0</ele><time>2026-04-19T12:58:31.95Z</time></trkpt><trkpt lat="45.75036681091398" lon="8.26531511418118"><ele>389.0</ele><time>2026-04-19T12:58:32.95Z</time></trkpt><trkpt lat="45.75050843718898" lon="8.26536242249844"><ele>389.0</ele><time>2026-04-19T12:58:33.95Z</time></trkpt><trkpt lat="45.750650987932026" lon="8.265406685924214"><ele>389.0</ele><time>2026-04-19T12:58:34.95Z</time></trkpt><trkpt lat="45.750792630549995" lon="8.265453053802096"><ele>389.0</ele><time>2026-04-19T12:58:35.95Z</time></trkpt><trkpt lat="45.75093650987885" lon="8.265498793317088"><ele>389.0</ele><time>2026-04-19T12:58:36.95Z</time></trkpt><trkpt lat="45.751080811237216" lon="8.265547952062233"><ele>389.0</ele><time>2026-04-19T12:58:37.95Z</time></trkpt><trkpt lat="45.75122344653414" lon="8.26559677195327"><ele>389.0</ele><time>2026-04-19T12:58:38.95Z</time></trkpt><trkpt lat="45.75135892393428" lon="8.265645015815506"><ele>390.25</ele><time>2026-04-19T12:58:39.95Z</time></trkpt><trkpt lat="45.75148472053261" lon="8.265690595395712"><ele>391.5</ele><time>2026-04-19T12:58:40.95Z</time></trkpt><trkpt lat="45.75160448385082" lon="8.265731727316869"><ele>392.75</ele><time>2026-04-19T12:58:41.95Z</time></trkpt><trkpt lat="45.75171925437901" lon="8.265773231857063"><ele>394.0</ele><time>2026-04-19T12:58:42.95Z</time></trkpt><trkpt lat="45.751834300951785" lon="8.265812404325102"><ele>394.0</ele><time>2026-04-19T12:58:43.95Z</time></trkpt><trkpt lat="45.75195154760729" lon="8.265850047413766"><ele>394.0</ele><time>2026-04-19T12:58:44.95Z</time></trkpt><trkpt lat="45.75207024784524" lon="8.265888911890832"><ele>394.0</ele><time>2026-04-19T12:58:45.95Z</time></trkpt><trkpt lat="45.75218507215524" lon="8.265925670165755"><ele>394.0</ele><time>2026-04-19T12:58:46.95Z</time></trkpt><trkpt lat="45.75230169511952" lon="8.26596135626809"><ele>394.0</ele><time>2026-04-19T12:58:47.95Z</time></trkpt><trkpt lat="45.75242003706065" lon="8.265998185905122"><ele>394.0</ele><time>2026-04-19T12:58:48.95Z</time></trkpt><trkpt lat="45.7525372602916" lon="8.266036692845388"><ele>394.0</ele><time>2026-04-19T12:58:49.95Z</time></trkpt><trkpt lat="45.75265376990951" lon="8.266077308916852"><ele>394.0</ele><time>2026-04-19T12:58:50.95Z</time></trkpt><trkpt lat="45.75277313804989" lon="8.266114166807888"><ele>394.0</ele><time>2026-04-19T12:58:51.951Z</time></trkpt><trkpt lat="45.7528924305937" lon="8.26615081261131"><ele>394.0</ele><time>2026-04-19T12:58:52.951Z</time></trkpt><trkpt lat="45.75301244941542" lon="8.266186604223021"><ele>394.0</ele><time>2026-04-19T12:58:53.951Z</time></trkpt><trkpt lat="45.7531292506372" lon="8.266225728343413"><ele>394.0</ele><time>2026-04-19T12:58:54.951Z</time></trkpt><trkpt lat="45.7532381054697" lon="8.266260388120717"><ele>394.0</ele><time>2026-04-19T12:58:55.951Z</time></trkpt><trkpt lat="45.753341277681855" lon="8.266295842540409"><ele>394.0</ele><time>2026-04-19T12:58:56.951Z</time></trkpt><trkpt lat="45.75344581957415" lon="8.266331420194158"><ele>394.0</ele><time>2026-04-19T12:58:57.951Z</time></trkpt><trkpt lat="45.75355216712675" lon="8.266367109839768"><ele>394.0</ele><time>2026-04-19T12:58:58.951Z</time></trkpt><trkpt lat="45.75366224789076" lon="8.266408053215637"><ele>394.0</ele><time>2026-04-19T12:58:59.951Z</time></trkpt><trkpt lat="45.75377557938568" lon="8.26644825905347"><ele>394.0</ele><time>2026-04-19T12:59:00.951Z</time></trkpt><trkpt lat="45.75389395485804" lon="8.26648705874891"><ele>394.0</ele><time>2026-04-19T12:59:01.951Z</time></trkpt><trkpt lat="45.75401356733455" lon="8.26652856472241"><ele>394.0</ele><time>2026-04-19T12:59:02.951Z</time></trkpt><trkpt lat="45.75413569595757" lon="8.266574705981638"><ele>394.0</ele><time>2026-04-19T12:59:03.951Z</time></trkpt><trkpt lat="45.75425969926216" lon="8.266621730908694"><ele>394.25</ele><time>2026-04-19T12:59:04.951Z</time></trkpt><trkpt lat="45.75438565853187" lon="8.266664304159335"><ele>394.5</ele><time>2026-04-19T12:59:05.951Z</time></trkpt><trkpt lat="45.754514761333844" lon="8.266705733001812"><ele>394.75</ele><time>2026-04-19T12:59:06.951Z</time></trkpt><trkpt lat="45.75464511653164" lon="8.266745989158673"><ele>395.0</ele><time>2026-04-19T12:59:07.951Z</time></trkpt><trkpt lat="45.75477381539936" lon="8.266786874105543"><ele>395.0</ele><time>2026-04-19T12:59:08.951Z</time></trkpt><trkpt lat="45.7549013747224" lon="8.26683107378474"><ele>395.0</ele><time>2026-04-19T12:59:09.951Z</time></trkpt><trkpt lat="45.75503159857293" lon="8.266873048743708"><ele>395.0</ele><time>2026-04-19T12:59:10.951Z</time></trkpt><trkpt lat="45.755162417105254" lon="8.266915697213758"><ele>395.0</ele><time>2026-04-19T12:59:11.951Z</time></trkpt><trkpt lat="45.755293330233464" lon="8.266963181080197"><ele>395.75</ele><time>2026-04-19T12:59:12.951Z</time></trkpt><trkpt lat="45.75542342111373" lon="8.26700989028424"><ele>396.5</ele><time>2026-04-19T12:59:13.951Z</time></trkpt><trkpt lat="45.755552562685295" lon="8.267055098849283"><ele>397.25</ele><time>2026-04-19T12:59:14.951Z</time></trkpt><trkpt lat="45.75568258465495" lon="8.2670980948001"><ele>398.0</ele><time>2026-04-19T12:59:15.951Z</time></trkpt><trkpt lat="45.755813122949064" lon="8.267140050666923"><ele>398.0</ele><time>2026-04-19T12:59:16.951Z</time></trkpt><trkpt lat="45.75594623811172" lon="8.267182211058152"><ele>398.0</ele><time>2026-04-19T12:59:17.951Z</time></trkpt><trkpt lat="45.756079223382585" lon="8.267224161190764"><ele>398.0</ele><time>2026-04-19T12:59:18.951Z</time></trkpt><trkpt lat="45.75621235971715" lon="8.267265065916812"><ele>398.0</ele><time>2026-04-19T12:59:19.951Z</time></trkpt><trkpt lat="45.756345599038625" lon="8.267303197025718"><ele>398.5</ele><time>2026-04-19T12:59:20.951Z</time></trkpt><trkpt lat="45.75647824018766" lon="8.267343035189096"><ele>399.0</ele><time>2026-04-19T12:59:21.951Z</time></trkpt><trkpt lat="45.75661111313114" lon="8.267388437342435"><ele>399.5</ele><time>2026-04-19T12:59:22.951Z</time></trkpt><trkpt lat="45.75674383406856" lon="8.26743316315326"><ele>400.0</ele><time>2026-04-19T12:59:23.951Z</time></trkpt><trkpt lat="45.75687039302314" lon="8.267476051234883"><ele>400.5</ele><time>2026-04-19T12:59:24.951Z</time></trkpt><trkpt lat="45.75699494363838" lon="8.267515238741412"><ele>401.0</ele><time>2026-04-19T12:59:25.951Z</time></trkpt><trkpt lat="45.757123306735" lon="8.26755217317445"><ele>401.5</ele><time>2026-04-19T12:59:26.951Z</time></trkpt><trkpt lat="45.75725879860191" lon="8.267586820885764"><ele>402.0</ele><time>2026-04-19T12:59:27.951Z</time></trkpt><trkpt lat="45.75738696744204" lon="8.26762862220055"><ele>402.0</ele><time>2026-04-19T12:59:28.951Z</time></trkpt><trkpt lat="45.757517306471826" lon="8.267674983997"><ele>402.0</ele><time>2026-04-19T12:59:29.951Z</time></trkpt><trkpt lat="45.757647023052996" lon="8.267722484293724"><ele>402.0</ele><time>2026-04-19T12:59:30.951Z</time></trkpt><trkpt lat="45.75777794660069" lon="8.267769606303276"><ele>402.0</ele><time>2026-04-19T12:59:31.951Z</time></trkpt><trkpt lat="45.75790931553706" lon="8.267815371130887"><ele>402.5</ele><time>2026-04-19T12:59:32.951Z</time></trkpt><trkpt lat="45.75804078325359" lon="8.267857957623002"><ele>403.0</ele><time>2026-04-19T12:59:33.951Z</time></trkpt><trkpt lat="45.75817108723238" lon="8.26790129566296"><ele>403.5</ele><time>2026-04-19T12:59:34.951Z</time></trkpt><trkpt lat="45.758299605612166" lon="8.267946596066457"><ele>404.0</ele><time>2026-04-19T12:59:35.951Z</time></trkpt><trkpt lat="45.75842767625188" lon="8.267986470563892"><ele>404.0</ele><time>2026-04-19T12:59:36.952Z</time></trkpt><trkpt lat="45.75855460483185" lon="8.268025410133953"><ele>404.0</ele><time>2026-04-19T12:59:37.952Z</time></trkpt><trkpt lat="45.75868261834804" lon="8.26806752703295"><ele>404.0</ele><time>2026-04-19T12:59:38.952Z</time></trkpt><trkpt lat="45.75880804240394" lon="8.26811047630961"><ele>404.0</ele><time>2026-04-19T12:59:39.952Z</time></trkpt><trkpt lat="45.75893322263765" lon="8.268150234028173"><ele>404.0</ele><time>2026-04-19T12:59:40.952Z</time></trkpt><trkpt lat="45.75905920791884" lon="8.2681892263183"><ele>404.0</ele><time>2026-04-19T12:59:41.952Z</time></trkpt><trkpt lat="45.75918130357556" lon="8.268228620468483"><ele>404.0</ele><time>2026-04-19T12:59:42.952Z</time></trkpt><trkpt lat="45.75929918500343" lon="8.268273091419823"><ele>404.0</ele><time>2026-04-19T12:59:43.952Z</time></trkpt><trkpt lat="45.759413760032345" lon="8.268312088579597"><ele>404.6</ele><time>2026-04-19T12:59:44.952Z</time></trkpt><trkpt lat="45.759526195456225" lon="8.268350054514071"><ele>405.2</ele><time>2026-04-19T12:59:45.952Z</time></trkpt><trkpt lat="45.759636116111956" lon="8.268380802461571"><ele>405.8</ele><time>2026-04-19T12:59:46.952Z</time></trkpt><trkpt lat="45.75974121117815" lon="8.268405248369053"><ele>406.40000000000003</ele><time>2026-04-19T12:59:47.952Z</time></trkpt><trkpt lat="45.75984634036588" lon="8.268422628622531"><ele>407.0</ele><time>2026-04-19T12:59:48.952Z</time></trkpt><trkpt lat="45.75995534796253" lon="8.268439231559254"><ele>407.0</ele><time>2026-04-19T12:59:49.952Z</time></trkpt><trkpt lat="45.76005777961124" lon="8.268448086061394"><ele>407.0</ele><time>2026-04-19T12:59:50.952Z</time></trkpt><trkpt lat="45.76016360893416" lon="8.268451622423225"><ele>407.0</ele><time>2026-04-19T12:59:51.952Z</time></trkpt><trkpt lat="45.76027197201064" lon="8.268442631761575"><ele>407.0</ele><time>2026-04-19T12:59:52.952Z</time></trkpt><trkpt lat="45.76038156511578" lon="8.268455144948247"><ele>407.0</ele><time>2026-04-19T12:59:53.952Z</time></trkpt><trkpt lat="45.760491258857506" lon="8.268468378052846"><ele>406.5</ele><time>2026-04-19T12:59:54.952Z</time></trkpt><trkpt lat="45.76060470620761" lon="8.26849271197949"><ele>406.0</ele><time>2026-04-19T12:59:55.952Z</time></trkpt><trkpt lat="45.76071506292436" lon="8.268501107680075"><ele>405.5</ele><time>2026-04-19T12:59:56.952Z</time></trkpt><trkpt lat="45.760828247047385" lon="8.268515706671934"><ele>405.0</ele><time>2026-04-19T12:59:57.952Z</time></trkpt><trkpt lat="45.760942308013476" lon="8.268532130417556"><ele>405.6</ele><time>2026-04-19T12:59:58.952Z</time></trkpt><trkpt lat="45.76105292682045" lon="8.268542871534263"><ele>406.2</ele><time>2026-04-19T12:59:59.952Z</time></trkpt><trkpt lat="45.761167059700895" lon="8.26855385014799"><ele>406.79999999999995</ele><time>2026-04-19T13:00:00.952Z</time></trkpt><trkpt lat="45.76127538746103" lon="8.268567200290207"><ele>407.4</ele><time>2026-04-19T13:00:01.952Z</time></trkpt><trkpt lat="45.76137036139635" lon="8.268583833361857"><ele>408.0</ele><time>2026-04-19T13:00:02.952Z</time></trkpt><trkpt lat="45.76145737347942" lon="8.268590846668104"><ele>408.0</ele><time>2026-04-19T13:00:03.952Z</time></trkpt><trkpt lat="45.76152714677278" lon="8.268601826623236"><ele>408.0</ele><time>2026-04-19T13:00:04.952Z</time></trkpt><trkpt lat="45.761591993372" lon="8.268623330729543"><ele>408.0</ele><time>2026-04-19T13:00:05.952Z</time></trkpt><trkpt lat="45.761718702044774" lon="8.268655165939633"><ele>408.0</ele><time>2026-04-19T13:00:07.952Z</time></trkpt><trkpt lat="45.76179732431276" lon="8.268646174752256"><ele>408.0</ele><time>2026-04-19T13:00:08.952Z</time></trkpt><trkpt lat="45.761880470368595" lon="8.268636767245685"><ele>408.0</ele><time>2026-04-19T13:00:09.952Z</time></trkpt><trkpt lat="45.761971374901805" lon="8.268633219281908"><ele>408.0</ele><time>2026-04-19T13:00:10.952Z</time></trkpt><trkpt lat="45.76206444540851" lon="8.268642781744134"><ele>408.0</ele><time>2026-04-19T13:00:11.952Z</time></trkpt><trkpt lat="45.76215060284873" lon="8.268645665141804"><ele>408.0</ele><time>2026-04-19T13:00:12.952Z</time></trkpt><trkpt lat="45.76223709052602" lon="8.268663221946552"><ele>408.0</ele><time>2026-04-19T13:00:13.952Z</time></trkpt><trkpt lat="45.76232739372567" lon="8.26866851065861"><ele>408.0</ele><time>2026-04-19T13:00:14.952Z</time></trkpt><trkpt lat="45.76241696412822" lon="8.268682408226265"><ele>408.0</ele><time>2026-04-19T13:00:15.952Z</time></trkpt><trkpt lat="45.762502467004076" lon="8.268698285334143"><ele>408.0</ele><time>2026-04-19T13:00:16.952Z</time></trkpt><trkpt lat="45.762595342631634" lon="8.268710058750132"><ele>408.0</ele><time>2026-04-19T13:00:17.952Z</time></trkpt><trkpt lat="45.7626842438201" lon="8.268716220062453"><ele>408.0</ele><time>2026-04-19T13:00:18.952Z</time></trkpt><trkpt lat="45.76277343280186" lon="8.268718129714756"><ele>408.0</ele><time>2026-04-19T13:00:19.952Z</time></trkpt><trkpt lat="45.76286737123716" lon="8.268717039242912"><ele>408.0</ele><time>2026-04-19T13:00:20.952Z</time></trkpt><trkpt lat="45.76295794217004" lon="8.268713477180466"><ele>407.8333333333333</ele><time>2026-04-19T13:00:21.953Z</time></trkpt><trkpt lat="45.76303417616408" lon="8.268721750770654"><ele>407.66666666666663</ele><time>2026-04-19T13:00:22.953Z</time></trkpt><trkpt lat="45.763115223241535" lon="8.26875112694083"><ele>407.5</ele><time>2026-04-19T13:00:23.953Z</time></trkpt><trkpt lat="45.76320384209983" lon="8.26875726593508"><ele>407.3333333333333</ele><time>2026-04-19T13:00:24.953Z</time></trkpt><trkpt lat="45.76328711523901" lon="8.268757558823097"><ele>407.16666666666663</ele><time>2026-04-19T13:00:25.953Z</time></trkpt><trkpt lat="45.76336412232388" lon="8.268767366621473"><ele>407.0</ele><time>2026-04-19T13:00:26.953Z</time></trkpt><trkpt lat="45.76345242512211" lon="8.268771403127078"><ele>407.16666666666663</ele><time>2026-04-19T13:00:27.953Z</time></trkpt><trkpt lat="45.763537873406406" lon="8.268773006117916"><ele>407.3333333333333</ele><time>2026-04-19T13:00:28.953Z</time></trkpt><trkpt lat="45.763627250542505" lon="8.268773112806628"><ele>407.5</ele><time>2026-04-19T13:00:29.953Z</time></trkpt><trkpt lat="45.76371857886426" lon="8.268780948283549"><ele>407.66666666666663</ele><time>2026-04-19T13:00:30.953Z</time></trkpt><trkpt lat="45.76380264180138" lon="8.268792211462523"><ele>407.8333333333333</ele><time>2026-04-19T13:00:31.953Z</time></trkpt><trkpt lat="45.763887483450524" lon="8.268830045497694"><ele>408.0</ele><time>2026-04-19T13:00:32.953Z</time></trkpt><trkpt lat="45.76397033717958" lon="8.26887109620865"><ele>408.0</ele><time>2026-04-19T13:00:33.949Z</time></trkpt><trkpt lat="45.764056841466214" lon="8.268902484704356"><ele>408.0</ele><time>2026-04-19T13:00:34.949Z</time></trkpt><trkpt lat="45.76414089268336" lon="8.268912267259049"><ele>408.0</ele><time>2026-04-19T13:00:35.949Z</time></trkpt><trkpt lat="45.764242475263224" lon="8.268899213154977"><ele>408.0</ele><time>2026-04-19T13:00:36.95Z</time></trkpt><trkpt lat="45.76434228603578" lon="8.268882602876477"><ele>408.0</ele><time>2026-04-19T13:00:37.949Z</time></trkpt><trkpt lat="45.76443741532075" lon="8.268876826815806"><ele>408.2</ele><time>2026-04-19T13:00:38.949Z</time></trkpt><trkpt lat="45.764527065093496" lon="8.26886647049748"><ele>408.4</ele><time>2026-04-19T13:00:39.949Z</time></trkpt><trkpt lat="45.76461825464349" lon="8.268864285686448"><ele>408.59999999999997</ele><time>2026-04-19T13:00:40.949Z</time></trkpt><trkpt lat="45.764711649509294" lon="8.26885054977716"><ele>408.79999999999995</ele><time>2026-04-19T13:00:41.949Z</time></trkpt><trkpt lat="45.76479642223405" lon="8.268818587546345"><ele>409.0</ele><time>2026-04-19T13:00:42.949Z</time></trkpt><trkpt lat="45.764870579498" lon="8.268741740603986"><ele>409.0</ele><time>2026-04-19T13:00:43.949Z</time></trkpt><trkpt lat="45.76494082179669" lon="8.268646030857871"><ele>409.0</ele><time>2026-04-19T13:00:44.949Z</time></trkpt><trkpt lat="45.764998207649825" lon="8.268541750125864"><ele>409.0</ele><time>2026-04-19T13:00:45.949Z</time></trkpt><trkpt lat="45.76505132449621" lon="8.268426632280141"><ele>409.0</ele><time>2026-04-19T13:00:46.949Z</time></trkpt><trkpt lat="45.76513508355434" lon="8.268329509543747"><ele>409.0</ele><time>2026-04-19T13:00:47.949Z</time></trkpt><trkpt lat="45.76520772434596" lon="8.268245879627598"><ele>409.00000000000006</ele><time>2026-04-19T13:00:48.949Z</time></trkpt><trkpt lat="45.76527083370795" lon="8.268157505697502"><ele>409.0</ele><time>2026-04-19T13:00:49.949Z</time></trkpt><trkpt lat="45.765320080712684" lon="8.268068551368332"><ele>409.0</ele><time>2026-04-19T13:00:50.949Z</time></trkpt><trkpt lat="45.76538036743481" lon="8.267987820876632"><ele>409.0</ele><time>2026-04-19T13:00:51.949Z</time></trkpt><trkpt lat="45.76545250357152" lon="8.267927142065556"><ele>409.00000000000006</ele><time>2026-04-19T13:00:52.949Z</time></trkpt><trkpt lat="45.76553736636759" lon="8.267880051737109"><ele>409.0</ele><time>2026-04-19T13:00:53.949Z</time></trkpt><trkpt lat="45.765630581385565" lon="8.267845442323082"><ele>409.0</ele><time>2026-04-19T13:00:54.949Z</time></trkpt><trkpt lat="45.7657194350341" lon="8.267816054723921"><ele>409.0</ele><time>2026-04-19T13:00:55.949Z</time></trkpt><trkpt lat="45.7658115110998" lon="8.267795688953926"><ele>409.0</ele><time>2026-04-19T13:00:56.949Z</time></trkpt><trkpt lat="45.76590064839889" lon="8.267793127446456"><ele>409.0</ele><time>2026-04-19T13:00:57.949Z</time></trkpt><trkpt lat="45.76599234822914" lon="8.267803143124066"><ele>409.0</ele><time>2026-04-19T13:00:58.949Z</time></trkpt><trkpt lat="45.76609815669588" lon="8.267797018690384"><ele>409.25</ele><time>2026-04-19T13:00:59.949Z</time></trkpt><trkpt lat="45.76621599702175" lon="8.267796804595365"><ele>409.5</ele><time>2026-04-19T13:01:00.949Z</time></trkpt><trkpt lat="45.76633055222551" lon="8.26780988320126"><ele>409.75</ele><time>2026-04-19T13:01:01.949Z</time></trkpt><trkpt lat="45.76645418972422" lon="8.267808849564924"><ele>410.0</ele><time>2026-04-19T13:01:02.949Z</time></trkpt><trkpt lat="45.76657805871224" lon="8.26780577097763"><ele>410.0</ele><time>2026-04-19T13:01:03.949Z</time></trkpt><trkpt lat="45.76669470404652" lon="8.267804546264644"><ele>410.0</ele><time>2026-04-19T13:01:04.949Z</time></trkpt><trkpt lat="45.76680508274468" lon="8.267803912323433"><ele>410.0</ele><time>2026-04-19T13:01:05.949Z</time></trkpt><trkpt lat="45.766921800885854" lon="8.267802490487725"><ele>410.0</ele><time>2026-04-19T13:01:06.949Z</time></trkpt><trkpt lat="45.76704044183749" lon="8.267799332002534"><ele>410.5</ele><time>2026-04-19T13:01:07.949Z</time></trkpt><trkpt lat="45.767162192997965" lon="8.267796672141547"><ele>411.0</ele><time>2026-04-19T13:01:08.949Z</time></trkpt><trkpt lat="45.76728335192977" lon="8.267795512203122"><ele>411.5</ele><time>2026-04-19T13:01:09.949Z</time></trkpt><trkpt lat="45.76741367286101" lon="8.267802856660328"><ele>412.0</ele><time>2026-04-19T13:01:10.949Z</time></trkpt><trkpt lat="45.767542590989244" lon="8.267804948620713"><ele>412.0</ele><time>2026-04-19T13:01:11.949Z</time></trkpt><trkpt lat="45.76767488115246" lon="8.267798773707291"><ele>412.0</ele><time>2026-04-19T13:01:12.949Z</time></trkpt><trkpt lat="45.767806400462206" lon="8.267797427466734"><ele>412.0</ele><time>2026-04-19T13:01:13.949Z</time></trkpt><trkpt lat="45.767937298188535" lon="8.267790392623372"><ele>412.0</ele><time>2026-04-19T13:01:14.95Z</time></trkpt><trkpt lat="45.76806617045577" lon="8.267784303979205"><ele>412.0</ele><time>2026-04-19T13:01:15.95Z</time></trkpt><trkpt lat="45.768189738928875" lon="8.267776628406327"><ele>412.0</ele><time>2026-04-19T13:01:16.95Z</time></trkpt><trkpt lat="45.76831355573264" lon="8.267773665239849"><ele>412.0</ele><time>2026-04-19T13:01:17.95Z</time></trkpt><trkpt lat="45.76844453967379" lon="8.267773139964824"><ele>412.0</ele><time>2026-04-19T13:01:18.95Z</time></trkpt><trkpt lat="45.76857743039632" lon="8.267778471178973"><ele>411.5</ele><time>2026-04-19T13:01:19.95Z</time></trkpt><trkpt lat="45.76871296567087" lon="8.26778146151515"><ele>411.0</ele><time>2026-04-19T13:01:20.95Z</time></trkpt><trkpt lat="45.76885011673346" lon="8.267781474026556"><ele>410.5</ele><time>2026-04-19T13:01:21.95Z</time></trkpt><trkpt lat="45.768983962588436" lon="8.267784208675803"><ele>410.0</ele><time>2026-04-19T13:01:22.95Z</time></trkpt><trkpt lat="45.7691193393187" lon="8.267808204250843"><ele>410.0</ele><time>2026-04-19T13:01:23.95Z</time></trkpt><trkpt lat="45.76925976369508" lon="8.267843921476109"><ele>410.0</ele><time>2026-04-19T13:01:24.95Z</time></trkpt><trkpt lat="45.769401282088545" lon="8.267890670810436"><ele>410.0</ele><time>2026-04-19T13:01:25.95Z</time></trkpt><trkpt lat="45.769545125480505" lon="8.26794388994334"><ele>410.0</ele><time>2026-04-19T13:01:26.95Z</time></trkpt><trkpt lat="45.76968671815733" lon="8.268007497173178"><ele>410.0</ele><time>2026-04-19T13:01:27.95Z</time></trkpt><trkpt lat="45.76982693451052" lon="8.268081150991003"><ele>410.0</ele><time>2026-04-19T13:01:28.95Z</time></trkpt><trkpt lat="45.76995817532791" lon="8.268143632171162"><ele>410.0</ele><time>2026-04-19T13:01:29.95Z</time></trkpt><trkpt lat="45.77009191845474" lon="8.268201516356068"><ele>410.0</ele><time>2026-04-19T13:01:30.95Z</time></trkpt><trkpt lat="45.77022305150882" lon="8.26826237095564"><ele>410.0</ele><time>2026-04-19T13:01:31.95Z</time></trkpt><trkpt lat="45.77035298468249" lon="8.268325011082883"><ele>410.0</ele><time>2026-04-19T13:01:32.95Z</time></trkpt><trkpt lat="45.7704835822631" lon="8.268389164789395"><ele>410.0</ele><time>2026-04-19T13:01:33.95Z</time></trkpt><trkpt lat="45.770614021261146" lon="8.268451206366507"><ele>410.0</ele><time>2026-04-19T13:01:34.95Z</time></trkpt><trkpt lat="45.77074122844031" lon="8.268509473391642"><ele>410.0</ele><time>2026-04-19T13:01:35.95Z</time></trkpt><trkpt lat="45.77086830163613" lon="8.268565272951578"><ele>410.0</ele><time>2026-04-19T13:01:36.95Z</time></trkpt><trkpt lat="45.77099558504303" lon="8.268620115811778"><ele>410.0</ele><time>2026-04-19T13:01:37.95Z</time></trkpt><trkpt lat="45.77112032178823" lon="8.268678880079122"><ele>410.0</ele><time>2026-04-19T13:01:38.95Z</time></trkpt><trkpt lat="45.77124436007234" lon="8.26873780150477"><ele>410.25</ele><time>2026-04-19T13:01:39.95Z</time></trkpt><trkpt lat="45.7713675264984" lon="8.268795035190372"><ele>410.5</ele><time>2026-04-19T13:01:40.95Z</time></trkpt><trkpt lat="45.771491915201565" lon="8.26885110177565"><ele>410.75</ele><time>2026-04-19T13:01:41.95Z</time></trkpt><trkpt lat="45.77161793803318" lon="8.26890954795359"><ele>411.0</ele><time>2026-04-19T13:01:42.95Z</time></trkpt><trkpt lat="45.7717484548868" lon="8.268969042493683"><ele>412.5</ele><time>2026-04-19T13:01:43.95Z</time></trkpt><trkpt lat="45.77188139785716" lon="8.269025692010889"><ele>414.0</ele><time>2026-04-19T13:01:44.95Z</time></trkpt><trkpt lat="45.77201368126876" lon="8.269081764801772"><ele>415.5</ele><time>2026-04-19T13:01:45.95Z</time></trkpt><trkpt lat="45.772147464243425" lon="8.26914008717309"><ele>417.0</ele><time>2026-04-19T13:01:46.95Z</time></trkpt><trkpt lat="45.77227856580558" lon="8.269202670556785"><ele>417.0</ele><time>2026-04-19T13:01:47.95Z</time></trkpt><trkpt lat="45.77241189220651" lon="8.269266586302106"><ele>417.0</ele><time>2026-04-19T13:01:48.95Z</time></trkpt><trkpt lat="45.772550457382984" lon="8.269330038442021"><ele>417.0</ele><time>2026-04-19T13:01:49.95Z</time></trkpt><trkpt lat="45.7726925590624" lon="8.269389078854452"><ele>417.0</ele><time>2026-04-19T13:01:50.95Z</time></trkpt><trkpt lat="45.77283680497547" lon="8.2694453045195"><ele>415.66666666666663</ele><time>2026-04-19T13:01:51.95Z</time></trkpt><trkpt lat="45.77298317211748" lon="8.269495326015427"><ele>414.3333333333333</ele><time>2026-04-19T13:01:52.95Z</time></trkpt><trkpt lat="45.77313012504309" lon="8.269535351971273"><ele>413.0</ele><time>2026-04-19T13:01:53.95Z</time></trkpt><trkpt lat="45.77328270014017" lon="8.269569519467918"><ele>413.0</ele><time>2026-04-19T13:01:54.95Z</time></trkpt><trkpt lat="45.773433898017664" lon="8.269602773941873"><ele>413.0</ele><time>2026-04-19T13:01:55.95Z</time></trkpt><trkpt lat="45.773589062553825" lon="8.269635851480484"><ele>413.0</ele><time>2026-04-19T13:01:56.95Z</time></trkpt><trkpt lat="45.773744509312294" lon="8.269669122509674"><ele>411.3333333333333</ele><time>2026-04-19T13:01:57.95Z</time></trkpt><trkpt lat="45.7739014959322" lon="8.26970373511686"><ele>409.66666666666663</ele><time>2026-04-19T13:01:58.95Z</time></trkpt><trkpt lat="45.77405705771791" lon="8.269740998291216"><ele>408.0</ele><time>2026-04-19T13:01:59.95Z</time></trkpt><trkpt lat="45.77421202290155" lon="8.269794202702473"><ele>409.66666666666663</ele><time>2026-04-19T13:02:00.951Z</time></trkpt><trkpt lat="45.77436414766841" lon="8.269868165084635"><ele>411.3333333333333</ele><time>2026-04-19T13:02:01.951Z</time></trkpt><trkpt lat="45.774514465065415" lon="8.269961302862084"><ele>413.0</ele><time>2026-04-19T13:02:02.951Z</time></trkpt><trkpt lat="45.77466328408864" lon="8.2700614560403"><ele>413.0</ele><time>2026-04-19T13:02:03.951Z</time></trkpt><trkpt lat="45.77480579678532" lon="8.270167886791775"><ele>413.0</ele><time>2026-04-19T13:02:04.951Z</time></trkpt><trkpt lat="45.77494589456147" lon="8.270284995484186"><ele>413.0</ele><time>2026-04-19T13:02:05.951Z</time></trkpt><trkpt lat="45.775083261521" lon="8.270411905511093"><ele>412.66666666666663</ele><time>2026-04-19T13:02:06.951Z</time></trkpt><trkpt lat="45.77521472794422" lon="8.270550694801512"><ele>412.33333333333337</ele><time>2026-04-19T13:02:07.951Z</time></trkpt><trkpt lat="45.775348708091" lon="8.270693909130294"><ele>412.0</ele><time>2026-04-19T13:02:08.951Z</time></trkpt><trkpt lat="45.77548026393462" lon="8.270835620015072"><ele>412.0</ele><time>2026-04-19T13:02:09.951Z</time></trkpt><trkpt lat="45.775613625748065" lon="8.270976326556262"><ele>412.0</ele><time>2026-04-19T13:02:10.951Z</time></trkpt><trkpt lat="45.77574562127831" lon="8.271115423161167"><ele>412.0</ele><time>2026-04-19T13:02:11.951Z</time></trkpt><trkpt lat="45.77587748276972" lon="8.27125758152722"><ele>412.0</ele><time>2026-04-19T13:02:12.951Z</time></trkpt><trkpt lat="45.77600950461906" lon="8.271397620761906"><ele>412.0</ele><time>2026-04-19T13:02:13.951Z</time></trkpt><trkpt lat="45.776143131817335" lon="8.271537370785072"><ele>412.0</ele><time>2026-04-19T13:02:14.951Z</time></trkpt><trkpt lat="45.776279680399796" lon="8.271677859498578"><ele>412.6666666666667</ele><time>2026-04-19T13:02:15.951Z</time></trkpt><trkpt lat="45.776416498976076" lon="8.271822241410202"><ele>413.33333333333337</ele><time>2026-04-19T13:02:16.951Z</time></trkpt><trkpt lat="45.77655358018122" lon="8.271967932887593"><ele>414.0</ele><time>2026-04-19T13:02:17.951Z</time></trkpt><trkpt lat="45.776691217496364" lon="8.272113231090756"><ele>414.0</ele><time>2026-04-19T13:02:18.951Z</time></trkpt><trkpt lat="45.776829928667595" lon="8.272253975364086"><ele>414.0</ele><time>2026-04-19T13:02:19.951Z</time></trkpt><trkpt lat="45.77697065158451" lon="8.272398027689734"><ele>414.0</ele><time>2026-04-19T13:02:20.951Z</time></trkpt><trkpt lat="45.777107521673464" lon="8.27254579956779"><ele>414.33333333333337</ele><time>2026-04-19T13:02:21.951Z</time></trkpt><trkpt lat="45.77724540382412" lon="8.272693546249355"><ele>414.6666666666667</ele><time>2026-04-19T13:02:22.951Z</time></trkpt><trkpt lat="45.777382686118635" lon="8.272840192633243"><ele>415.0</ele><time>2026-04-19T13:02:23.951Z</time></trkpt><trkpt lat="45.77752258114351" lon="8.272986170216376"><ele>414.33333333333337</ele><time>2026-04-19T13:02:24.951Z</time></trkpt><trkpt lat="45.77766185674855" lon="8.273131875363418"><ele>413.66666666666663</ele><time>2026-04-19T13:02:25.951Z</time></trkpt><trkpt lat="45.77779997223447" lon="8.273279846782714"><ele>413.0</ele><time>2026-04-19T13:02:26.951Z</time></trkpt><trkpt lat="45.77793720048245" lon="8.273430244447702"><ele>413.0</ele><time>2026-04-19T13:02:27.951Z</time></trkpt><trkpt lat="45.77807560100265" lon="8.273577913440164"><ele>413.0</ele><time>2026-04-19T13:02:28.951Z</time></trkpt><trkpt lat="45.77821365188411" lon="8.273724468662241"><ele>413.0</ele><time>2026-04-19T13:02:29.951Z</time></trkpt><trkpt lat="45.77835148076449" lon="8.27386853889279"><ele>413.66666666666663</ele><time>2026-04-19T13:02:30.951Z</time></trkpt><trkpt lat="45.77849262207688" lon="8.274011394911748"><ele>414.33333333333337</ele><time>2026-04-19T13:02:31.951Z</time></trkpt><trkpt lat="45.77863189504925" lon="8.274157333975184"><ele>415.0</ele><time>2026-04-19T13:02:32.951Z</time></trkpt><trkpt lat="45.77876699316948" lon="8.274305943513367"><ele>415.0</ele><time>2026-04-19T13:02:33.951Z</time></trkpt><trkpt lat="45.778904660388925" lon="8.274454456232567"><ele>415.0</ele><time>2026-04-19T13:02:34.951Z</time></trkpt><trkpt lat="45.77904294290297" lon="8.27460039691282"><ele>415.0</ele><time>2026-04-19T13:02:35.951Z</time></trkpt><trkpt lat="45.779180838364795" lon="8.274743700820448"><ele>415.0</ele><time>2026-04-19T13:02:36.951Z</time></trkpt><trkpt lat="45.77931945405942" lon="8.27488286290569"><ele>415.0</ele><time>2026-04-19T13:02:37.951Z</time></trkpt><trkpt lat="45.77945998702474" lon="8.275021715200708"><ele>415.0</ele><time>2026-04-19T13:02:38.951Z</time></trkpt><trkpt lat="45.77959738881837" lon="8.27516116295033"><ele>415.0</ele><time>2026-04-19T13:02:39.948Z</time></trkpt><trkpt lat="45.77973730442169" lon="8.275305087904513"><ele>415.0</ele><time>2026-04-19T13:02:40.948Z</time></trkpt><trkpt lat="45.77986914311286" lon="8.27545294985617"><ele>415.0</ele><time>2026-04-19T13:02:41.948Z</time></trkpt><trkpt lat="45.780003272835565" lon="8.275597602286572"><ele>415.0</ele><time>2026-04-19T13:02:42.948Z</time></trkpt><trkpt lat="45.78013692568147" lon="8.27574337144276"><ele>415.0</ele><time>2026-04-19T13:02:43.948Z</time></trkpt><trkpt lat="45.78027010819742" lon="8.275886051443132"><ele>415.0</ele><time>2026-04-19T13:02:44.948Z</time></trkpt><trkpt lat="45.78040299579287" lon="8.276013354821982"><ele>415.0</ele><time>2026-04-19T13:02:45.948Z</time></trkpt><trkpt lat="45.78053568515383" lon="8.27612684532603"><ele>415.0</ele><time>2026-04-19T13:02:46.948Z</time></trkpt><trkpt lat="45.78066467094335" lon="8.276223074521226"><ele>415.0</ele><time>2026-04-19T13:02:47.948Z</time></trkpt><trkpt lat="45.78078900863553" lon="8.276310592039868"><ele>415.0</ele><time>2026-04-19T13:02:48.948Z</time></trkpt><trkpt lat="45.78090657054487" lon="8.276401770520243"><ele>416.5</ele><time>2026-04-19T13:02:49.948Z</time></trkpt><trkpt lat="45.7810125828406" lon="8.276498939225517"><ele>418.0</ele><time>2026-04-19T13:02:50.948Z</time></trkpt><trkpt lat="45.78110266819931" lon="8.276604922752156"><ele>419.5</ele><time>2026-04-19T13:02:51.947Z</time></trkpt><trkpt lat="45.781179961275726" lon="8.276706434914239"><ele>421.0</ele><time>2026-04-19T13:02:52.948Z</time></trkpt><trkpt lat="45.78125768440741" lon="8.276807335454729"><ele>421.0</ele><time>2026-04-19T13:02:53.948Z</time></trkpt><trkpt lat="45.78134197802211" lon="8.276908658042295"><ele>421.0</ele><time>2026-04-19T13:02:54.948Z</time></trkpt><trkpt lat="45.781426466601005" lon="8.277020211896764"><ele>421.0</ele><time>2026-04-19T13:02:55.948Z</time></trkpt><trkpt lat="45.7815251848231" lon="8.277124880334682"><ele>421.0</ele><time>2026-04-19T13:02:56.948Z</time></trkpt><trkpt lat="45.78163954433492" lon="8.27722052787965"><ele>423.25</ele><time>2026-04-19T13:02:57.948Z</time></trkpt><trkpt lat="45.78176344542767" lon="8.277305934833546"><ele>425.5</ele><time>2026-04-19T13:02:58.948Z</time></trkpt><trkpt lat="45.78190188424518" lon="8.277381113689634"><ele>427.75</ele><time>2026-04-19T13:02:59.948Z</time></trkpt><trkpt lat="45.78204883177647" lon="8.277453340266181"><ele>430.0</ele><time>2026-04-19T13:03:00.948Z</time></trkpt><trkpt lat="45.782195965380936" lon="8.277522134349738"><ele>430.0</ele><time>2026-04-19T13:03:01.948Z</time></trkpt><trkpt lat="45.782344092560066" lon="8.277583673086694"><ele>430.0</ele><time>2026-04-19T13:03:02.948Z</time></trkpt><trkpt lat="45.78249950932524" lon="8.277644532010699"><ele>430.0</ele><time>2026-04-19T13:03:03.948Z</time></trkpt><trkpt lat="45.782658726702856" lon="8.277697431465894"><ele>427.6666666666667</ele><time>2026-04-19T13:03:04.948Z</time></trkpt><trkpt lat="45.7828214847761" lon="8.27774464654949"><ele>425.33333333333337</ele><time>2026-04-19T13:03:05.948Z</time></trkpt><trkpt lat="45.78298950455089" lon="8.277791573800549"><ele>423.0</ele><time>2026-04-19T13:03:06.948Z</time></trkpt><trkpt lat="45.783156471758836" lon="8.277838222606603"><ele>423.0</ele><time>2026-04-19T13:03:07.948Z</time></trkpt><trkpt lat="45.78332673042859" lon="8.277885828259828"><ele>423.0</ele><time>2026-04-19T13:03:08.948Z</time></trkpt><trkpt lat="45.783499380649964" lon="8.277939627720327"><ele>423.0</ele><time>2026-04-19T13:03:09.948Z</time></trkpt><trkpt lat="45.783674024623274" lon="8.277990512693199"><ele>422.33333333333337</ele><time>2026-04-19T13:03:10.948Z</time></trkpt><trkpt lat="45.7838469219352" lon="8.278046001134623"><ele>421.6666666666667</ele><time>2026-04-19T13:03:11.948Z</time></trkpt><trkpt lat="45.78402085571032" lon="8.278099369932047"><ele>421.0</ele><time>2026-04-19T13:03:12.948Z</time></trkpt><trkpt lat="45.78419553164682" lon="8.278152991611332"><ele>423.0</ele><time>2026-04-19T13:03:13.948Z</time></trkpt><trkpt lat="45.78437218093421" lon="8.27819663326804"><ele>425.0</ele><time>2026-04-19T13:03:14.948Z</time></trkpt><trkpt lat="45.78454493380199" lon="8.278217912433863"><ele>427.0</ele><time>2026-04-19T13:03:15.948Z</time></trkpt><trkpt lat="45.78471787799359" lon="8.278217222165635"><ele>427.0</ele><time>2026-04-19T13:03:16.948Z</time></trkpt><trkpt lat="45.784892515651585" lon="8.278203900431345"><ele>427.0</ele><time>2026-04-19T13:03:17.948Z</time></trkpt><trkpt lat="45.78506839903391" lon="8.278178541449586"><ele>427.0</ele><time>2026-04-19T13:03:18.948Z</time></trkpt><trkpt lat="45.78524589191459" lon="8.27814967706793"><ele>425.0</ele><time>2026-04-19T13:03:19.948Z</time></trkpt><trkpt lat="45.785425703373015" lon="8.278115909499732"><ele>423.0</ele><time>2026-04-19T13:03:20.948Z</time></trkpt><trkpt lat="45.78560289137733" lon="8.278076368274377"><ele>421.0</ele><time>2026-04-19T13:03:21.948Z</time></trkpt><trkpt lat="45.7857800619785" lon="8.278035865053155"><ele>421.0</ele><time>2026-04-19T13:03:22.948Z</time></trkpt><trkpt lat="45.78595684894682" lon="8.27799470397618"><ele>421.0</ele><time>2026-04-19T13:03:23.948Z</time></trkpt><trkpt lat="45.78613069428282" lon="8.277952954410972"><ele>421.0</ele><time>2026-04-19T13:03:24.948Z</time></trkpt><trkpt lat="45.78630522896294" lon="8.277908207212988"><ele>421.33333333333337</ele><time>2026-04-19T13:03:25.948Z</time></trkpt><trkpt lat="45.78647967344071" lon="8.277870609404207"><ele>421.66666666666663</ele><time>2026-04-19T13:03:26.948Z</time></trkpt><trkpt lat="45.78665517219823" lon="8.277842005679993"><ele>422.0</ele><time>2026-04-19T13:03:27.948Z</time></trkpt><trkpt lat="45.78683048295686" lon="8.277830200513144"><ele>423.0</ele><time>2026-04-19T13:03:28.948Z</time></trkpt><trkpt lat="45.78700200385549" lon="8.27783721680015"><ele>424.0</ele><time>2026-04-19T13:03:29.948Z</time></trkpt><trkpt lat="45.78717034804351" lon="8.277860170328598"><ele>425.0</ele><time>2026-04-19T13:03:30.948Z</time></trkpt><trkpt lat="45.78733308361048" lon="8.277905728247504"><ele>425.0</ele><time>2026-04-19T13:03:31.948Z</time></trkpt><trkpt lat="45.78749453582063" lon="8.277957268727864"><ele>425.0</ele><time>2026-04-19T13:03:32.948Z</time></trkpt><trkpt lat="45.78765005497972" lon="8.278011465433192"><ele>425.0</ele><time>2026-04-19T13:03:33.948Z</time></trkpt><trkpt lat="45.78780412224384" lon="8.278063932227388"><ele>427.0</ele><time>2026-04-19T13:03:34.948Z</time></trkpt><trkpt lat="45.78795611650158" lon="8.278116738334248"><ele>429.0</ele><time>2026-04-19T13:03:35.948Z</time></trkpt><trkpt lat="45.788106748782944" lon="8.278160141439798"><ele>431.0</ele><time>2026-04-19T13:03:36.949Z</time></trkpt><trkpt lat="45.788252548086014" lon="8.278202395769053"><ele>431.0</ele><time>2026-04-19T13:03:37.949Z</time></trkpt><trkpt lat="45.788396078381005" lon="8.278239481398508"><ele>431.0</ele><time>2026-04-19T13:03:38.949Z</time></trkpt><trkpt lat="45.788536136751766" lon="8.278284771789577"><ele>431.0</ele><time>2026-04-19T13:03:39.949Z</time></trkpt><trkpt lat="45.78867544237452" lon="8.278328544507527"><ele>431.0</ele><time>2026-04-19T13:03:40.949Z</time></trkpt><trkpt lat="45.788814595556424" lon="8.278372789141137"><ele>432.75</ele><time>2026-04-19T13:03:41.949Z</time></trkpt><trkpt lat="45.78895085860609" lon="8.278420796704783"><ele>434.5</ele><time>2026-04-19T13:03:42.949Z</time></trkpt><trkpt lat="45.78908577551867" lon="8.278469821835998"><ele>436.25</ele><time>2026-04-19T13:03:43.949Z</time></trkpt><trkpt lat="45.78922346688462" lon="8.278512892167727"><ele>438.0</ele><time>2026-04-19T13:03:44.949Z</time></trkpt><trkpt lat="45.78936130413107" lon="8.278550537209876"><ele>441.25</ele><time>2026-04-19T13:03:45.949Z</time></trkpt><trkpt lat="45.789499834918516" lon="8.278593883745868"><ele>444.5</ele><time>2026-04-19T13:03:46.949Z</time></trkpt><trkpt lat="45.78963633451339" lon="8.278641399596646"><ele>447.75</ele><time>2026-04-19T13:03:47.949Z</time></trkpt><trkpt lat="45.789773115663216" lon="8.278683959155089"><ele>451.0</ele><time>2026-04-19T13:03:48.949Z</time></trkpt><trkpt lat="45.789906449388994" lon="8.278721998524306"><ele>451.0</ele><time>2026-04-19T13:03:49.949Z</time></trkpt><trkpt lat="45.79003377611242" lon="8.278755737855057"><ele>451.0</ele><time>2026-04-19T13:03:50.949Z</time></trkpt><trkpt lat="45.790168090469805" lon="8.278788031381696"><ele>451.0</ele><time>2026-04-19T13:03:51.949Z</time></trkpt><trkpt lat="45.790300235939874" lon="8.27880858072482"><ele>451.0</ele><time>2026-04-19T13:03:52.949Z</time></trkpt><trkpt lat="45.79043128256218" lon="8.278795589222286"><ele>448.0</ele><time>2026-04-19T13:03:53.949Z</time></trkpt><trkpt lat="45.79056212227067" lon="8.278742881485304"><ele>445.0</ele><time>2026-04-19T13:03:54.949Z</time></trkpt><trkpt lat="45.7906845806006" lon="8.278659920907906"><ele>442.0</ele><time>2026-04-19T13:03:55.949Z</time></trkpt><trkpt lat="45.790790786721736" lon="8.278550140046068"><ele>439.0</ele><time>2026-04-19T13:03:56.949Z</time></trkpt><trkpt lat="45.790883080441894" lon="8.278436125920523"><ele>439.0</ele><time>2026-04-19T13:03:57.949Z</time></trkpt><trkpt lat="45.79097270228547" lon="8.278323928603672"><ele>439.0</ele><time>2026-04-19T13:03:58.949Z</time></trkpt><trkpt lat="45.79106090432509" lon="8.278213819605526"><ele>439.0</ele><time>2026-04-19T13:03:59.949Z</time></trkpt><trkpt lat="45.791145392474256" lon="8.278111889967757"><ele>439.0</ele><time>2026-04-19T13:04:00.949Z</time></trkpt><trkpt lat="45.791235236877164" lon="8.27800631576289"><ele>437.5</ele><time>2026-04-19T13:04:01.949Z</time></trkpt><trkpt lat="45.79133189875059" lon="8.27789948451185"><ele>436.0</ele><time>2026-04-19T13:04:02.949Z</time></trkpt><trkpt lat="45.79142806618718" lon="8.277790078583653"><ele>434.5</ele><time>2026-04-19T13:04:03.949Z</time></trkpt><trkpt lat="45.79151829914694" lon="8.277683373833558"><ele>433.0</ele><time>2026-04-19T13:04:04.949Z</time></trkpt><trkpt lat="45.79160450167168" lon="8.277587732930325"><ele>433.0</ele><time>2026-04-19T13:04:05.949Z</time></trkpt><trkpt lat="45.79168560816756" lon="8.277485485298284"><ele>432.99999999999994</ele><time>2026-04-19T13:04:06.949Z</time></trkpt><trkpt lat="45.79175992439784" lon="8.277384138150454"><ele>432.99999999999994</ele><time>2026-04-19T13:04:07.949Z</time></trkpt><trkpt lat="45.79184129796997" lon="8.277298042431186"><ele>433.0</ele><time>2026-04-19T13:04:08.949Z</time></trkpt><trkpt lat="45.79192846067588" lon="8.277223900809645"><ele>433.0</ele><time>2026-04-19T13:04:09.949Z</time></trkpt><trkpt lat="45.79202273442384" lon="8.277159507334632"><ele>433.2</ele><time>2026-04-19T13:04:10.949Z</time></trkpt><trkpt lat="45.79211577381928" lon="8.277092089076175"><ele>433.4</ele><time>2026-04-19T13:04:11.949Z</time></trkpt><trkpt lat="45.79220641793386" lon="8.277025624586464"><ele>433.59999999999997</ele><time>2026-04-19T13:04:12.949Z</time></trkpt><trkpt lat="45.79229175996318" lon="8.276957684898274"><ele>433.79999999999995</ele><time>2026-04-19T13:04:13.949Z</time></trkpt><trkpt lat="45.792377870928114" lon="8.276888894967417"><ele>434.0</ele><time>2026-04-19T13:04:14.949Z</time></trkpt><trkpt lat="45.792465714355544" lon="8.276822409378969"><ele>434.0</ele><time>2026-04-19T13:04:15.949Z</time></trkpt><trkpt lat="45.79255105755153" lon="8.276753825705967"><ele>434.0</ele><time>2026-04-19T13:04:16.949Z</time></trkpt><trkpt lat="45.79263484626784" lon="8.276684134653424"><ele>434.0</ele><time>2026-04-19T13:04:17.949Z</time></trkpt><trkpt lat="45.7927161812651" lon="8.276611518424529"><ele>434.0</ele><time>2026-04-19T13:04:18.949Z</time></trkpt><trkpt lat="45.79279552327809" lon="8.27653198938023"><ele>434.0</ele><time>2026-04-19T13:04:19.949Z</time></trkpt><trkpt lat="45.79287479973592" lon="8.276454159524107"><ele>433.2</ele><time>2026-04-19T13:04:20.949Z</time></trkpt><trkpt lat="45.79295387328305" lon="8.276360439022554"><ele>432.4</ele><time>2026-04-19T13:04:21.95Z</time></trkpt><trkpt lat="45.79303122769037" lon="8.27625504771843"><ele>431.6</ele><time>2026-04-19T13:04:22.95Z</time></trkpt><trkpt lat="45.79311137353311" lon="8.276143619494114"><ele>430.8</ele><time>2026-04-19T13:04:23.95Z</time></trkpt><trkpt lat="45.793200040784576" lon="8.276034485741485"><ele>430.0</ele><time>2026-04-19T13:04:24.95Z</time></trkpt><trkpt lat="45.79329115391994" lon="8.275920873317983"><ele>430.0</ele><time>2026-04-19T13:04:25.95Z</time></trkpt><trkpt lat="45.79338892959209" lon="8.275809458817406"><ele>430.0</ele><time>2026-04-19T13:04:26.95Z</time></trkpt><trkpt lat="45.793491390190376" lon="8.27569949991196"><ele>430.0</ele><time>2026-04-19T13:04:27.95Z</time></trkpt><trkpt lat="45.79358892091419" lon="8.275591155583687"><ele>430.0</ele><time>2026-04-19T13:04:28.95Z</time></trkpt><trkpt lat="45.79368746339538" lon="8.275480103022645"><ele>431.5</ele><time>2026-04-19T13:04:29.95Z</time></trkpt><trkpt lat="45.79379001746149" lon="8.275377179401646"><ele>433.0</ele><time>2026-04-19T13:04:30.95Z</time></trkpt><trkpt lat="45.7938967212636" lon="8.275273454273702"><ele>434.5</ele><time>2026-04-19T13:04:31.95Z</time></trkpt><trkpt lat="45.793995796134865" lon="8.275163238771414"><ele>436.0</ele><time>2026-04-19T13:04:32.95Z</time></trkpt><trkpt lat="45.79409292734777" lon="8.275048010606092"><ele>436.0</ele><time>2026-04-19T13:04:33.95Z</time></trkpt><trkpt lat="45.79418532982237" lon="8.274928933573024"><ele>436.0</ele><time>2026-04-19T13:04:34.95Z</time></trkpt><trkpt lat="45.79427076468107" lon="8.27479538745454"><ele>436.0</ele><time>2026-04-19T13:04:35.95Z</time></trkpt><trkpt lat="45.79434818698066" lon="8.274647011848067"><ele>436.0</ele><time>2026-04-19T13:04:36.95Z</time></trkpt><trkpt lat="45.79441681829826" lon="8.274489731717996"><ele>436.5</ele><time>2026-04-19T13:04:37.95Z</time></trkpt><trkpt lat="45.79448726937834" lon="8.274332559844684"><ele>437.0</ele><time>2026-04-19T13:04:38.95Z</time></trkpt><trkpt lat="45.794557888187924" lon="8.274178412407696"><ele>437.5</ele><time>2026-04-19T13:04:39.95Z</time></trkpt><trkpt lat="45.79463182154645" lon="8.274020242477075"><ele>438.0</ele><time>2026-04-19T13:04:40.95Z</time></trkpt><trkpt lat="45.794708340239886" lon="8.273855505083793"><ele>438.0</ele><time>2026-04-19T13:04:41.95Z</time></trkpt><trkpt lat="45.79479119188541" lon="8.273692431942827"><ele>438.0</ele><time>2026-04-19T13:04:42.95Z</time></trkpt><trkpt lat="45.794875618033394" lon="8.273529507534505"><ele>438.0</ele><time>2026-04-19T13:04:43.95Z</time></trkpt><trkpt lat="45.79496516458934" lon="8.273366348119206"><ele>438.0</ele><time>2026-04-19T13:04:44.95Z</time></trkpt><trkpt lat="45.7950535743492" lon="8.273207216483597"><ele>440.0</ele><time>2026-04-19T13:04:45.946Z</time></trkpt><trkpt lat="45.79514469505259" lon="8.273049224769691"><ele>442.0</ele><time>2026-04-19T13:04:46.947Z</time></trkpt><trkpt lat="45.795237635364" lon="8.272897186815625"><ele>444.0</ele><time>2026-04-19T13:04:47.947Z</time></trkpt><trkpt lat="45.795328614531876" lon="8.272747080599787"><ele>446.0</ele><time>2026-04-19T13:04:48.947Z</time></trkpt><trkpt lat="45.79542660726525" lon="8.272604572367868"><ele>446.0</ele><time>2026-04-19T13:04:49.946Z</time></trkpt><trkpt lat="45.79552874721746" lon="8.272468163045493"><ele>446.0</ele><time>2026-04-19T13:04:50.946Z</time></trkpt><trkpt lat="45.795635789565445" lon="8.272340382331027"><ele>446.0</ele><time>2026-04-19T13:04:51.947Z</time></trkpt><trkpt lat="45.79575229269546" lon="8.272227839358719"><ele>446.0</ele><time>2026-04-19T13:04:52.947Z</time></trkpt><trkpt lat="45.79587609981955" lon="8.272131759479537"><ele>443.75</ele><time>2026-04-19T13:04:53.947Z</time></trkpt><trkpt lat="45.79600304603145" lon="8.27205757135655"><ele>441.5</ele><time>2026-04-19T13:04:54.947Z</time></trkpt><trkpt lat="45.796136344722065" lon="8.272004496466288"><ele>439.25</ele><time>2026-04-19T13:04:55.946Z</time></trkpt><trkpt lat="45.79627420429345" lon="8.271978147850868"><ele>437.0</ele><time>2026-04-19T13:04:56.946Z</time></trkpt><trkpt lat="45.79641663801725" lon="8.271973963254935"><ele>437.0</ele><time>2026-04-19T13:04:57.947Z</time></trkpt><trkpt lat="45.79656218757752" lon="8.271981443324114"><ele>437.0</ele><time>2026-04-19T13:04:58.946Z</time></trkpt><trkpt lat="45.79669729924389" lon="8.271992900079981"><ele>437.0</ele><time>2026-04-19T13:04:59.946Z</time></trkpt><trkpt lat="45.79683704055257" lon="8.272008316413695"><ele>437.0</ele><time>2026-04-19T13:05:00.946Z</time></trkpt><trkpt lat="45.79697421935862" lon="8.272015377109367"><ele>436.25</ele><time>2026-04-19T13:05:01.946Z</time></trkpt><trkpt lat="45.79710928302011" lon="8.27202074127878"><ele>435.5</ele><time>2026-04-19T13:05:02.946Z</time></trkpt><trkpt lat="45.79724822816125" lon="8.272028709092611"><ele>434.75</ele><time>2026-04-19T13:05:03.946Z</time></trkpt><trkpt lat="45.79738581854695" lon="8.272037889262476"><ele>434.0</ele><time>2026-04-19T13:05:04.946Z</time></trkpt><trkpt lat="45.79752467985976" lon="8.272047431783337"><ele>434.0</ele><time>2026-04-19T13:05:05.946Z</time></trkpt><trkpt lat="45.79766405249835" lon="8.272058563633239"><ele>434.0</ele><time>2026-04-19T13:05:06.946Z</time></trkpt><trkpt lat="45.79780620592366" lon="8.27207351200517"><ele>434.0</ele><time>2026-04-19T13:05:07.946Z</time></trkpt><trkpt lat="45.7979458904865" lon="8.272086677601488"><ele>434.0</ele><time>2026-04-19T13:05:08.947Z</time></trkpt><trkpt lat="45.79808301299606" lon="8.27209373589075"><ele>434.5</ele><time>2026-04-19T13:05:09.947Z</time></trkpt><trkpt lat="45.798222679960034" lon="8.272104878245377"><ele>435.0</ele><time>2026-04-19T13:05:10.947Z</time></trkpt><trkpt lat="45.798362872340796" lon="8.272125513344532"><ele>435.5</ele><time>2026-04-19T13:05:11.947Z</time></trkpt><trkpt lat="45.79850331166961" lon="8.272155608385255"><ele>436.0</ele><time>2026-04-19T13:05:12.947Z</time></trkpt><trkpt lat="45.79864162082341" lon="8.272187239715542"><ele>438.5</ele><time>2026-04-19T13:05:13.947Z</time></trkpt><trkpt lat="45.798783482002" lon="8.27223443011042"><ele>441.0</ele><time>2026-04-19T13:05:14.947Z</time></trkpt><trkpt lat="45.79892489906992" lon="8.272281792208318"><ele>443.5</ele><time>2026-04-19T13:05:15.947Z</time></trkpt><trkpt lat="45.79907163419194" lon="8.272332405587015"><ele>446.0</ele><time>2026-04-19T13:05:16.947Z</time></trkpt><trkpt lat="45.79921860101572" lon="8.272381973575339"><ele>446.75</ele><time>2026-04-19T13:05:17.947Z</time></trkpt><trkpt lat="45.79936539657527" lon="8.272434107136876"><ele>447.5</ele><time>2026-04-19T13:05:18.947Z</time></trkpt><trkpt lat="45.79951008205172" lon="8.272490869454506"><ele>448.25</ele><time>2026-04-19T13:05:19.947Z</time></trkpt><trkpt lat="45.79965135936088" lon="8.272554125886334"><ele>449.0</ele><time>2026-04-19T13:05:20.947Z</time></trkpt><trkpt lat="45.799794576843176" lon="8.272610542893295"><ele>449.0</ele><time>2026-04-19T13:05:21.947Z</time></trkpt><trkpt lat="45.79993868547594" lon="8.272666632199016"><ele>449.0</ele><time>2026-04-19T13:05:22.947Z</time></trkpt><trkpt lat="45.80008116524985" lon="8.27271876200861"><ele>449.0</ele><time>2026-04-19T13:05:23.947Z</time></trkpt><trkpt lat="45.80022177189269" lon="8.272774409423167"><ele>449.0</ele><time>2026-04-19T13:05:24.947Z</time></trkpt><trkpt lat="45.800365271401525" lon="8.27283345763965"><ele>450.66666666666663</ele><time>2026-04-19T13:05:25.947Z</time></trkpt><trkpt lat="45.80051070498486" lon="8.272893942706729"><ele>452.33333333333337</ele><time>2026-04-19T13:05:26.947Z</time></trkpt><trkpt lat="45.800655780223444" lon="8.272951884756623"><ele>454.0</ele><time>2026-04-19T13:05:27.947Z</time></trkpt><trkpt lat="45.80079995041413" lon="8.27300906380249"><ele>454.0</ele><time>2026-04-19T13:05:28.947Z</time></trkpt><trkpt lat="45.80094683120515" lon="8.273068985212834"><ele>454.0</ele><time>2026-04-19T13:05:29.947Z</time></trkpt><trkpt lat="45.80109103189004" lon="8.27312911268392"><ele>454.0</ele><time>2026-04-19T13:05:30.947Z</time></trkpt><trkpt lat="45.801237353140145" lon="8.273186323765133"><ele>453.0</ele><time>2026-04-19T13:05:31.947Z</time></trkpt><trkpt lat="45.801383950979734" lon="8.273240257173494"><ele>452.0</ele><time>2026-04-19T13:05:32.947Z</time></trkpt><trkpt lat="45.80153158606541" lon="8.273297631362198"><ele>451.0</ele><time>2026-04-19T13:05:33.947Z</time></trkpt><trkpt lat="45.80167983785755" lon="8.273355796570662"><ele>451.0</ele><time>2026-04-19T13:05:34.947Z</time></trkpt><trkpt lat="45.80182940836333" lon="8.273412261520292"><ele>451.0</ele><time>2026-04-19T13:05:35.947Z</time></trkpt><trkpt lat="45.801978768856614" lon="8.273471699748429"><ele>451.0</ele><time>2026-04-19T13:05:36.947Z</time></trkpt><trkpt lat="45.80213093181266" lon="8.273527716175986"><ele>449.6666666666667</ele><time>2026-04-19T13:05:37.947Z</time></trkpt><trkpt lat="45.80228072275981" lon="8.27358646446282"><ele>448.33333333333337</ele><time>2026-04-19T13:05:38.947Z</time></trkpt><trkpt lat="45.80242941516369" lon="8.273644024952274"><ele>447.0</ele><time>2026-04-19T13:05:39.947Z</time></trkpt><trkpt lat="45.80257517982483" lon="8.27370193995959"><ele>447.0</ele><time>2026-04-19T13:05:40.947Z</time></trkpt><trkpt lat="45.802718128216654" lon="8.273759591535123"><ele>447.0</ele><time>2026-04-19T13:05:41.947Z</time></trkpt><trkpt lat="45.80300166042202" lon="8.27385485256036"><ele>447.0</ele><time>2026-04-19T13:05:43.947Z</time></trkpt><trkpt lat="45.80314738664494" lon="8.273846635230019"><ele>447.0</ele><time>2026-04-19T13:05:44.947Z</time></trkpt><trkpt lat="45.803296645196966" lon="8.273789724340402"><ele>447.0</ele><time>2026-04-19T13:05:45.947Z</time></trkpt><trkpt lat="45.80343648148258" lon="8.273699252318353"><ele>447.0</ele><time>2026-04-19T13:05:46.947Z</time></trkpt><trkpt lat="45.80357038065452" lon="8.273593723722817"><ele>453.33333333333337</ele><time>2026-04-19T13:05:47.947Z</time></trkpt><trkpt lat="45.803707092509335" lon="8.273499779438934"><ele>459.6666666666667</ele><time>2026-04-19T13:05:48.947Z</time></trkpt><trkpt lat="45.80384373915992" lon="8.273410279761878"><ele>466.0</ele><time>2026-04-19T13:05:49.947Z</time></trkpt><trkpt lat="45.80397773136239" lon="8.273318881918707"><ele>466.0</ele><time>2026-04-19T13:05:50.947Z</time></trkpt><trkpt lat="45.80411479607863" lon="8.273233290348267"><ele>466.0</ele><time>2026-04-19T13:05:51.947Z</time></trkpt><trkpt lat="45.80425119238009" lon="8.273149826961598"><ele>466.0</ele><time>2026-04-19T13:05:52.947Z</time></trkpt><trkpt lat="45.804384867179785" lon="8.273063787535772"><ele>466.0</ele><time>2026-04-19T13:05:53.948Z</time></trkpt><trkpt lat="45.80452083581968" lon="8.272980825986593"><ele>467.75</ele><time>2026-04-19T13:05:54.948Z</time></trkpt><trkpt lat="45.80465613981013" lon="8.272898453557536"><ele>469.5</ele><time>2026-04-19T13:05:55.948Z</time></trkpt><trkpt lat="45.804786303123656" lon="8.272801011488014"><ele>471.25</ele><time>2026-04-19T13:05:56.948Z</time></trkpt><trkpt lat="45.80490713101229" lon="8.272682236848055"><ele>473.0</ele><time>2026-04-19T13:05:57.948Z</time></trkpt><trkpt lat="45.80502210008888" lon="8.27254786298741"><ele>473.0</ele><time>2026-04-19T13:05:58.948Z</time></trkpt><trkpt lat="45.80513271513866" lon="8.272406147825235"><ele>473.0</ele><time>2026-04-19T13:05:59.948Z</time></trkpt><trkpt lat="45.80524283496113" lon="8.272272855553691"><ele>473.0</ele><time>2026-04-19T13:06:00.948Z</time></trkpt><trkpt lat="45.80547519677648" lon="8.272065380935368"><ele>472.2</ele><time>2026-04-19T13:06:02.948Z</time></trkpt><trkpt lat="45.80559976889254" lon="8.271992399552634"><ele>471.4</ele><time>2026-04-19T13:06:03.948Z</time></trkpt><trkpt lat="45.80571012852296" lon="8.271944449934255"><ele>470.59999999999997</ele><time>2026-04-19T13:06:04.948Z</time></trkpt><trkpt lat="45.80578689932735" lon="8.27191822396705"><ele>469.79999999999995</ele><time>2026-04-19T13:06:05.948Z</time></trkpt><trkpt lat="45.80588974039841" lon="8.271939096700313"><ele>469.0</ele><time>2026-04-19T13:06:07.948Z</time></trkpt><trkpt lat="45.80596630399359" lon="8.272018713638467"><ele>468.50000000000006</ele><time>2026-04-19T13:06:09.948Z</time></trkpt><trkpt lat="45.8060861008371" lon="8.271995343935968"><ele>468.0</ele><time>2026-04-19T13:06:11.948Z</time></trkpt><trkpt lat="45.806140087044305" lon="8.271935451931324"><ele>467.5</ele><time>2026-04-19T13:06:12.948Z</time></trkpt><trkpt lat="45.80619630612624" lon="8.271869820241092"><ele>467.0</ele><time>2026-04-19T13:06:13.948Z</time></trkpt><trkpt lat="45.80626649112608" lon="8.271804012864854"><ele>466.50000000000006</ele><time>2026-04-19T13:06:14.948Z</time></trkpt><trkpt lat="45.80635807409591" lon="8.271745574115476"><ele>466.0</ele><time>2026-04-19T13:06:15.948Z</time></trkpt><trkpt lat="45.80645635306242" lon="8.271701191271418"><ele>466.0</ele><time>2026-04-19T13:06:16.948Z</time></trkpt><trkpt lat="45.80655929836388" lon="8.271673388643173"><ele>466.0</ele><time>2026-04-19T13:06:17.948Z</time></trkpt><trkpt lat="45.80667239163939" lon="8.271643916088642"><ele>466.0</ele><time>2026-04-19T13:06:18.948Z</time></trkpt><trkpt lat="45.80679066190019" lon="8.27160577899353"><ele>466.0</ele><time>2026-04-19T13:06:19.948Z</time></trkpt><trkpt lat="45.80690335149085" lon="8.271558345033716"><ele>467.0</ele><time>2026-04-19T13:06:20.948Z</time></trkpt><trkpt lat="45.80701608268033" lon="8.271499422214792"><ele>468.0</ele><time>2026-04-19T13:06:21.948Z</time></trkpt><trkpt lat="45.80713445570947" lon="8.271431375216688"><ele>469.0</ele><time>2026-04-19T13:06:22.948Z</time></trkpt><trkpt lat="45.807255394658334" lon="8.27136410767747"><ele>470.0</ele><time>2026-04-19T13:06:23.948Z</time></trkpt><trkpt lat="45.80737663635764" lon="8.271295051140859"><ele>470.0</ele><time>2026-04-19T13:06:24.948Z</time></trkpt><trkpt lat="45.80750450866305" lon="8.271222464837901"><ele>470.0</ele><time>2026-04-19T13:06:25.948Z</time></trkpt><trkpt lat="45.807631526660664" lon="8.271153396270469"><ele>470.0</ele><time>2026-04-19T13:06:26.948Z</time></trkpt><trkpt lat="45.80775840991663" lon="8.271079734307703"><ele>470.0</ele><time>2026-04-19T13:06:27.948Z</time></trkpt><trkpt lat="45.80788997930043" lon="8.2710077393444"><ele>468.75</ele><time>2026-04-19T13:06:28.948Z</time></trkpt><trkpt lat="45.80801807962565" lon="8.270933047572145"><ele>467.5</ele><time>2026-04-19T13:06:29.948Z</time></trkpt><trkpt lat="45.80814739281639" lon="8.270859039495308"><ele>466.25</ele><time>2026-04-19T13:06:30.948Z</time></trkpt><trkpt lat="45.80827578299075" lon="8.270788342422666"><ele>465.0</ele><time>2026-04-19T13:06:31.948Z</time></trkpt><trkpt lat="45.80839666584939" lon="8.270720698385045"><ele>462.75</ele><time>2026-04-19T13:06:32.948Z</time></trkpt><trkpt lat="45.80851217725198" lon="8.270654667520276"><ele>460.5</ele><time>2026-04-19T13:06:33.948Z</time></trkpt><trkpt lat="45.808623966619365" lon="8.27060105367372"><ele>458.25</ele><time>2026-04-19T13:06:34.948Z</time></trkpt><trkpt lat="45.80872247110899" lon="8.270548127982883"><ele>456.0</ele><time>2026-04-19T13:06:35.948Z</time></trkpt><trkpt lat="45.8088255288449" lon="8.27048564180946"><ele>456.0</ele><time>2026-04-19T13:06:36.948Z</time></trkpt><trkpt lat="45.808930565358104" lon="8.270411283021499"><ele>456.0</ele><time>2026-04-19T13:06:37.948Z</time></trkpt><trkpt lat="45.809039075105346" lon="8.270323967736248"><ele>456.0</ele><time>2026-04-19T13:06:38.949Z</time></trkpt><trkpt lat="45.809151219031804" lon="8.270233281152478"><ele>456.0</ele><time>2026-04-19T13:06:39.949Z</time></trkpt><trkpt lat="45.80925529067628" lon="8.270120949610027"><ele>456.25</ele><time>2026-04-19T13:06:40.949Z</time></trkpt><trkpt lat="45.8093621266317" lon="8.270006042035346"><ele>456.5</ele><time>2026-04-19T13:06:41.949Z</time></trkpt><trkpt lat="45.809463363748364" lon="8.269879291570394"><ele>456.75</ele><time>2026-04-19T13:06:42.949Z</time></trkpt><trkpt lat="45.80955996764727" lon="8.269745185471146"><ele>457.0</ele><time>2026-04-19T13:06:43.949Z</time></trkpt><trkpt lat="45.809647748425384" lon="8.269608863843853"><ele>456.0</ele><time>2026-04-19T13:06:44.949Z</time></trkpt><trkpt lat="45.80973549806767" lon="8.26947606497603"><ele>455.0</ele><time>2026-04-19T13:06:45.949Z</time></trkpt><trkpt lat="45.80982136887799" lon="8.269351928081605"><ele>454.0</ele><time>2026-04-19T13:06:46.949Z</time></trkpt><trkpt lat="45.80990241693782" lon="8.269242204012349"><ele>453.0</ele><time>2026-04-19T13:06:47.949Z</time></trkpt><trkpt lat="45.80997577499634" lon="8.269136815109505"><ele>453.0</ele><time>2026-04-19T13:06:48.949Z</time></trkpt><trkpt lat="45.81004563586377" lon="8.269029448269256"><ele>452.99999999999994</ele><time>2026-04-19T13:06:49.949Z</time></trkpt><trkpt lat="45.81011232593158" lon="8.268918184654028"><ele>452.99999999999994</ele><time>2026-04-19T13:06:50.949Z</time></trkpt><trkpt lat="45.81018214748169" lon="8.268800816754286"><ele>453.0</ele><time>2026-04-19T13:06:51.946Z</time></trkpt><trkpt lat="45.81024684872477" lon="8.268677851093052"><ele>453.0</ele><time>2026-04-19T13:06:52.946Z</time></trkpt><trkpt lat="45.81031275651713" lon="8.26854405452156"><ele>453.25</ele><time>2026-04-19T13:06:53.946Z</time></trkpt><trkpt lat="45.81038237267882" lon="8.268410011362496"><ele>453.5</ele><time>2026-04-19T13:06:54.946Z</time></trkpt><trkpt lat="45.81045302397357" lon="8.268269829372684"><ele>453.75</ele><time>2026-04-19T13:06:55.946Z</time></trkpt><trkpt lat="45.81052400843992" lon="8.268119833048624"><ele>454.0</ele><time>2026-04-19T13:06:56.946Z</time></trkpt><trkpt lat="45.810591929490485" lon="8.267966574686282"><ele>454.2</ele><time>2026-04-19T13:06:57.945Z</time></trkpt><trkpt lat="45.81065449719017" lon="8.267810270528026"><ele>454.4</ele><time>2026-04-19T13:06:58.946Z</time></trkpt><trkpt lat="45.8107084725421" lon="8.267662818509393"><ele>454.6</ele><time>2026-04-19T13:06:59.946Z</time></trkpt><trkpt lat="45.810761855715185" lon="8.267529654181113"><ele>454.8</ele><time>2026-04-19T13:07:00.946Z</time></trkpt><trkpt lat="45.810805771934106" lon="8.267401524130932"><ele>455.0</ele><time>2026-04-19T13:07:01.945Z</time></trkpt><trkpt lat="45.81083590339932" lon="8.267284718041001"><ele>454.66666666666663</ele><time>2026-04-19T13:07:02.945Z</time></trkpt><trkpt lat="45.81086903534993" lon="8.267188499560898"><ele>454.3333333333333</ele><time>2026-04-19T13:07:03.946Z</time></trkpt><trkpt lat="45.810896245710616" lon="8.267102703704717"><ele>454.0</ele><time>2026-04-19T13:07:04.945Z</time></trkpt><trkpt lat="45.81094320109289" lon="8.266952760091357"><ele>453.66666666666663</ele><time>2026-04-19T13:07:06.945Z</time></trkpt><trkpt lat="45.81097921852851" lon="8.266821569877512"><ele>453.3333333333333</ele><time>2026-04-19T13:07:08.945Z</time></trkpt><trkpt lat="45.81101159807196" lon="8.266699799393031"><ele>453.0</ele><time>2026-04-19T13:07:10.946Z</time></trkpt><trkpt lat="45.81104439340451" lon="8.266571025908684"><ele>452.8333333333333</ele><time>2026-04-19T13:07:12.946Z</time></trkpt><trkpt lat="45.81108747327635" lon="8.26644451892049"><ele>452.66666666666663</ele><time>2026-04-19T13:07:14.946Z</time></trkpt><trkpt lat="45.81113118927445" lon="8.26629250599258"><ele>452.5</ele><time>2026-04-19T13:07:16.946Z</time></trkpt><trkpt lat="45.81116302617909" lon="8.266212384158898"><ele>452.3333333333333</ele><time>2026-04-19T13:07:17.946Z</time></trkpt><trkpt lat="45.8111986419569" lon="8.266123214315789"><ele>452.16666666666663</ele><time>2026-04-19T13:07:18.946Z</time></trkpt><trkpt lat="45.81123456482645" lon="8.266029386564526"><ele>452.0</ele><time>2026-04-19T13:07:19.946Z</time></trkpt><trkpt lat="45.81126756521001" lon="8.265925857496502"><ele>451.99999999999994</ele><time>2026-04-19T13:07:20.946Z</time></trkpt><trkpt lat="45.811300831328204" lon="8.265817391549078"><ele>452.0</ele><time>2026-04-19T13:07:21.946Z</time></trkpt><trkpt lat="45.811339218459054" lon="8.265704025439906"><ele>452.0</ele><time>2026-04-19T13:07:22.946Z</time></trkpt><trkpt lat="45.81138120640197" lon="8.265587378638838"><ele>452.0</ele><time>2026-04-19T13:07:23.946Z</time></trkpt><trkpt lat="45.81142331032173" lon="8.265467612607532"><ele>451.99999999999994</ele><time>2026-04-19T13:07:24.946Z</time></trkpt><trkpt lat="45.81145691000192" lon="8.265354902663558"><ele>452.0</ele><time>2026-04-19T13:07:25.946Z</time></trkpt><trkpt lat="45.81149312877622" lon="8.265242196360763"><ele>451.99999999999994</ele><time>2026-04-19T13:07:26.946Z</time></trkpt><trkpt lat="45.81152786024737" lon="8.26513093093029"><ele>452.0</ele><time>2026-04-19T13:07:27.946Z</time></trkpt><trkpt lat="45.81156152960368" lon="8.265024757360099"><ele>452.0</ele><time>2026-04-19T13:07:28.946Z</time></trkpt><trkpt lat="45.81160023820614" lon="8.264922752979626"><ele>452.0</ele><time>2026-04-19T13:07:29.946Z</time></trkpt><trkpt lat="45.81163975514611" lon="8.26481686019423"><ele>451.99999999999994</ele><time>2026-04-19T13:07:30.946Z</time></trkpt><trkpt lat="45.811676963907644" lon="8.264705954439313"><ele>452.0</ele><time>2026-04-19T13:07:31.946Z</time></trkpt><trkpt lat="45.81171769016988" lon="8.264597157297858"><ele>451.8333333333333</ele><time>2026-04-19T13:07:32.946Z</time></trkpt><trkpt lat="45.811762790882746" lon="8.2644926476419"><ele>451.66666666666663</ele><time>2026-04-19T13:07:33.946Z</time></trkpt><trkpt lat="45.811799587136136" lon="8.264396597647997"><ele>451.5</ele><time>2026-04-19T13:07:34.946Z</time></trkpt><trkpt lat="45.8118289124314" lon="8.26430521914622"><ele>451.33333333333337</ele><time>2026-04-19T13:07:35.946Z</time></trkpt><trkpt lat="45.811856831788674" lon="8.264193551662046"><ele>451.1666666666667</ele><time>2026-04-19T13:07:37.946Z</time></trkpt><trkpt lat="45.81187152723037" lon="8.264086847600234"><ele>451.0</ele><time>2026-04-19T13:07:41.946Z</time></trkpt><trkpt lat="45.811903992672484" lon="8.263994688123653"><ele>451.0</ele><time>2026-04-19T13:07:43.946Z</time></trkpt><trkpt lat="45.811946906445094" lon="8.263872576304486"><ele>451.0</ele><time>2026-04-19T13:07:45.946Z</time></trkpt><trkpt lat="45.81199003772612" lon="8.263728190301205"><ele>451.0</ele><time>2026-04-19T13:07:47.946Z</time></trkpt><trkpt lat="45.81203594610062" lon="8.263575207244935"><ele>451.0</ele><time>2026-04-19T13:07:49.946Z</time></trkpt><trkpt lat="45.81206423493495" lon="8.263492035354265"><ele>451.0</ele><time>2026-04-19T13:07:50.946Z</time></trkpt><trkpt lat="45.81209884104376" lon="8.263406063020334"><ele>451.0</ele><time>2026-04-19T13:07:51.946Z</time></trkpt><trkpt lat="45.8121282732082" lon="8.263319694827612"><ele>451.0</ele><time>2026-04-19T13:07:52.946Z</time></trkpt><trkpt lat="45.81215240544614" lon="8.26323464596341"><ele>451.0</ele><time>2026-04-19T13:07:53.946Z</time></trkpt><trkpt lat="45.81218820396464" lon="8.26310028591699"><ele>451.0</ele><time>2026-04-19T13:07:55.947Z</time></trkpt><trkpt lat="45.81224977236267" lon="8.263045537695938"><ele>451.0</ele><time>2026-04-19T13:07:59.947Z</time></trkpt><trkpt lat="45.81230973659061" lon="8.263095943032253"><ele>451.0</ele><time>2026-04-19T13:08:01.947Z</time></trkpt><trkpt lat="45.81236836584685" lon="8.263164436768935"><ele>451.0</ele><time>2026-04-19T13:08:03.947Z</time></trkpt><trkpt lat="45.81243069696945" lon="8.26328236744829"><ele>451.0</ele><time>2026-04-19T13:08:05.947Z</time></trkpt><trkpt lat="45.812491969938165" lon="8.263432952307117"><ele>451.0</ele><time>2026-04-19T13:08:07.947Z</time></trkpt><trkpt lat="45.81256596071862" lon="8.263562388416474"><ele>451.0</ele><time>2026-04-19T13:08:09.947Z</time></trkpt><trkpt lat="45.812615495145465" lon="8.263623540121005"><ele>451.0</ele><time>2026-04-19T13:08:10.947Z</time></trkpt><trkpt lat="45.81267598613104" lon="8.263771998474766"><ele>451.0</ele><time>2026-04-19T13:08:12.947Z</time></trkpt><trkpt lat="45.81274206725843" lon="8.263908688460349"><ele>451.8</ele><time>2026-04-19T13:08:14.947Z</time></trkpt><trkpt lat="45.812776800240776" lon="8.264036912968724"><ele>452.6</ele><time>2026-04-19T13:08:16.947Z</time></trkpt><trkpt lat="45.812810813219606" lon="8.264173994161464"><ele>453.4</ele><time>2026-04-19T13:08:18.947Z</time></trkpt><trkpt lat="45.81287608633019" lon="8.264285732306297"><ele>454.2</ele><time>2026-04-19T13:08:20.947Z</time></trkpt><trkpt lat="45.81297681274817" lon="8.264346992506205"><ele>455.0</ele><time>2026-04-19T13:08:22.947Z</time></trkpt><trkpt lat="45.81308895004303" lon="8.264406753744128"><ele>455.0</ele><time>2026-04-19T13:08:24.947Z</time></trkpt><trkpt lat="45.81320296524089" lon="8.264480364290876"><ele>455.0</ele><time>2026-04-19T13:08:26.947Z</time></trkpt><trkpt lat="45.813259654577436" lon="8.264524399011293"><ele>455.0</ele><time>2026-04-19T13:08:27.947Z</time></trkpt><trkpt lat="45.81331338758329" lon="8.26458016165177"><ele>455.0</ele><time>2026-04-19T13:08:28.947Z</time></trkpt><trkpt lat="45.81340558891676" lon="8.264690240092245"><ele>455.0</ele><time>2026-04-19T13:08:30.947Z</time></trkpt><trkpt lat="45.81346428941653" lon="8.264758277198448"><ele>455.8</ele><time>2026-04-19T13:08:32.947Z</time></trkpt><trkpt lat="45.81354159420512" lon="8.264750473941428"><ele>456.6</ele><time>2026-04-19T13:08:35.947Z</time></trkpt><trkpt lat="45.813619818394265" lon="8.264658472781898"><ele>457.4</ele><time>2026-04-19T13:08:37.947Z</time></trkpt><trkpt lat="45.813661133926246" lon="8.264584690331976"><ele>458.2</ele><time>2026-04-19T13:08:38.947Z</time></trkpt><trkpt lat="45.8137275310835" lon="8.264418843827878"><ele>459.0</ele><time>2026-04-19T13:08:40.948Z</time></trkpt><trkpt lat="45.81376721832192" lon="8.264319939859435"><ele>459.0</ele><time>2026-04-19T13:08:41.948Z</time></trkpt><trkpt lat="45.81381012790123" lon="8.264215440271089"><ele>459.0</ele><time>2026-04-19T13:08:42.948Z</time></trkpt><trkpt lat="45.8138514418886" lon="8.264107223835023"><ele>459.0</ele><time>2026-04-19T13:08:43.948Z</time></trkpt><trkpt lat="45.813889668569075" lon="8.264002891523273"><ele>459.0</ele><time>2026-04-19T13:08:44.948Z</time></trkpt><trkpt lat="45.81392511790525" lon="8.263890918897399"><ele>459.0</ele><time>2026-04-19T13:08:45.948Z</time></trkpt><trkpt lat="45.81395924338402" lon="8.263768632415864"><ele>459.0</ele><time>2026-04-19T13:08:46.948Z</time></trkpt><trkpt lat="45.8139854380934" lon="8.263639194176456"><ele>458.6</ele><time>2026-04-19T13:08:47.948Z</time></trkpt><trkpt lat="45.81401760299336" lon="8.26350039456303"><ele>458.2</ele><time>2026-04-19T13:08:48.948Z</time></trkpt><trkpt lat="45.81404679108366" lon="8.263353691693775"><ele>457.80000000000007</ele><time>2026-04-19T13:08:49.948Z</time></trkpt><trkpt lat="45.81407694302998" lon="8.263205120104466"><ele>457.40000000000003</ele><time>2026-04-19T13:08:50.948Z</time></trkpt><trkpt lat="45.81410836426615" lon="8.26305232499104"><ele>457.0</ele><time>2026-04-19T13:08:51.948Z</time></trkpt><trkpt lat="45.81413501126532" lon="8.262896406398095"><ele>456.5</ele><time>2026-04-19T13:08:52.948Z</time></trkpt><trkpt lat="45.81416318475093" lon="8.262739879049207"><ele>456.0</ele><time>2026-04-19T13:08:53.948Z</time></trkpt><trkpt lat="45.81419211286956" lon="8.26257953361281"><ele>455.5</ele><time>2026-04-19T13:08:54.948Z</time></trkpt><trkpt lat="45.81421898342862" lon="8.262421530933098"><ele>455.0</ele><time>2026-04-19T13:08:55.948Z</time></trkpt><trkpt lat="45.81424396808203" lon="8.262266037181275"><ele>455.0</ele><time>2026-04-19T13:08:56.948Z</time></trkpt><trkpt lat="45.81426482002416" lon="8.262113750822992"><ele>455.0</ele><time>2026-04-19T13:08:57.944Z</time></trkpt><trkpt lat="45.81428498483042" lon="8.261964321382962"><ele>455.0</ele><time>2026-04-19T13:08:58.944Z</time></trkpt><trkpt lat="45.81430557453904" lon="8.261817058690594"><ele>455.0</ele><time>2026-04-19T13:08:59.944Z</time></trkpt><trkpt lat="45.81432071975057" lon="8.261674205833375"><ele>455.0</ele><time>2026-04-19T13:09:00.945Z</time></trkpt><trkpt lat="45.814337127603125" lon="8.261533709185237"><ele>455.0</ele><time>2026-04-19T13:09:01.945Z</time></trkpt><trkpt lat="45.8143538008377" lon="8.261391264641372"><ele>455.0</ele><time>2026-04-19T13:09:02.945Z</time></trkpt><trkpt lat="45.81436935443004" lon="8.261251907054222"><ele>455.0</ele><time>2026-04-19T13:09:03.944Z</time></trkpt><trkpt lat="45.81438437525543" lon="8.261107985527627"><ele>455.0</ele><time>2026-04-19T13:09:04.945Z</time></trkpt><trkpt lat="45.81440024189871" lon="8.260965743306258"><ele>455.0</ele><time>2026-04-19T13:09:05.945Z</time></trkpt><trkpt lat="45.81441622054707" lon="8.260823759858384"><ele>455.0</ele><time>2026-04-19T13:09:06.945Z</time></trkpt><trkpt lat="45.8144337955976" lon="8.26068247088969"><ele>455.0</ele><time>2026-04-19T13:09:07.945Z</time></trkpt><trkpt lat="45.81447206406131" lon="8.26040513095316"><ele>455.0</ele><time>2026-04-19T13:09:09.945Z</time></trkpt><trkpt lat="45.81448876790764" lon="8.26026667352128"><ele>455.0</ele><time>2026-04-19T13:09:10.945Z</time></trkpt><trkpt lat="45.814506414345715" lon="8.26012606464412"><ele>454.6</ele><time>2026-04-19T13:09:11.945Z</time></trkpt><trkpt lat="45.81452171418178" lon="8.259987815599251"><ele>454.2</ele><time>2026-04-19T13:09:12.945Z</time></trkpt><trkpt lat="45.814538474699226" lon="8.259850183894041"><ele>453.79999999999995</ele><time>2026-04-19T13:09:13.945Z</time></trkpt><trkpt lat="45.81455222453596" lon="8.259725803348372"><ele>453.4</ele><time>2026-04-19T13:09:14.945Z</time></trkpt><trkpt lat="45.814566958840096" lon="8.259598607979083"><ele>453.0</ele><time>2026-04-19T13:09:15.945Z</time></trkpt><trkpt lat="45.814582148858975" lon="8.259468570438163"><ele>452.79999999999995</ele><time>2026-04-19T13:09:16.945Z</time></trkpt><trkpt lat="45.81460035090616" lon="8.259339597374934"><ele>452.59999999999997</ele><time>2026-04-19T13:09:17.945Z</time></trkpt><trkpt lat="45.814615802845324" lon="8.25921521365208"><ele>452.40000000000003</ele><time>2026-04-19T13:09:18.945Z</time></trkpt><trkpt lat="45.81463848413399" lon="8.259083296862121"><ele>452.20000000000005</ele><time>2026-04-19T13:09:19.945Z</time></trkpt><trkpt lat="45.81465961214574" lon="8.25895624195488"><ele>452.0</ele><time>2026-04-19T13:09:20.945Z</time></trkpt><trkpt lat="45.814679764659374" lon="8.258826532914886"><ele>452.0</ele><time>2026-04-19T13:09:21.945Z</time></trkpt><trkpt lat="45.814715654290715" lon="8.258694824133093"><ele>452.00000000000006</ele><time>2026-04-19T13:09:22.945Z</time></trkpt><trkpt lat="45.814760429423686" lon="8.258564622893335"><ele>452.00000000000006</ele><time>2026-04-19T13:09:23.945Z</time></trkpt><trkpt lat="45.814805401818234" lon="8.258431924745468"><ele>452.0</ele><time>2026-04-19T13:09:24.945Z</time></trkpt><trkpt lat="45.81485160206425" lon="8.258293083906803"><ele>452.0</ele><time>2026-04-19T13:09:25.945Z</time></trkpt><trkpt lat="45.81489491520876" lon="8.258156440873995"><ele>452.40000000000003</ele><time>2026-04-19T13:09:26.945Z</time></trkpt><trkpt lat="45.814937265369416" lon="8.258019474415455"><ele>452.80000000000007</ele><time>2026-04-19T13:09:27.945Z</time></trkpt><trkpt lat="45.81498617159326" lon="8.2578835190738"><ele>453.2</ele><time>2026-04-19T13:09:28.945Z</time></trkpt><trkpt lat="45.81502657733396" lon="8.257749855803729"><ele>453.6</ele><time>2026-04-19T13:09:29.945Z</time></trkpt><trkpt lat="45.81506738918532" lon="8.25761452166643"><ele>454.0</ele><time>2026-04-19T13:09:30.945Z</time></trkpt><trkpt lat="45.815109156452024" lon="8.257477926547395"><ele>454.0</ele><time>2026-04-19T13:09:31.945Z</time></trkpt><trkpt lat="45.815150390452104" lon="8.257342713727937"><ele>454.0</ele><time>2026-04-19T13:09:32.945Z</time></trkpt><trkpt lat="45.81519273683811" lon="8.257213874341053"><ele>454.0</ele><time>2026-04-19T13:09:33.945Z</time></trkpt><trkpt lat="45.8152292229835" lon="8.257084035474305"><ele>454.0</ele><time>2026-04-19T13:09:34.945Z</time></trkpt><trkpt lat="45.81527194696625" lon="8.256968730847381"><ele>454.0</ele><time>2026-04-19T13:09:35.945Z</time></trkpt><trkpt lat="45.8153049891061" lon="8.256879603064126"><ele>456.0</ele><time>2026-04-19T13:09:36.945Z</time></trkpt><trkpt lat="45.815356254962765" lon="8.256727673135824"><ele>458.0</ele><time>2026-04-19T13:09:38.945Z</time></trkpt><trkpt lat="45.815388053824826" lon="8.256600492343578"><ele>460.0</ele><time>2026-04-19T13:09:40.945Z</time></trkpt><trkpt lat="45.815367925690815" lon="8.256471544230571"><ele>462.0</ele><time>2026-04-19T13:09:42.945Z</time></trkpt><trkpt lat="45.81526836163649" lon="8.25637904660101"><ele>464.0</ele><time>2026-04-19T13:09:44.945Z</time></trkpt><trkpt lat="45.81520287865495" lon="8.256347658752661"><ele>463.2</ele><time>2026-04-19T13:09:45.945Z</time></trkpt><trkpt lat="45.81513615264759" lon="8.256321245924465"><ele>462.4</ele><time>2026-04-19T13:09:46.945Z</time></trkpt><trkpt lat="45.815019716102746" lon="8.25626639499122"><ele>461.6</ele><time>2026-04-19T13:09:48.945Z</time></trkpt><trkpt lat="45.81495971447324" lon="8.256236093540375"><ele>460.8</ele><time>2026-04-19T13:09:49.945Z</time></trkpt><trkpt lat="45.814864652448655" lon="8.256161568106906"><ele>460.0</ele><time>2026-04-19T13:09:51.945Z</time></trkpt><trkpt lat="45.81478274441607" lon="8.256045118388068"><ele>459.99999999999994</ele><time>2026-04-19T13:09:53.945Z</time></trkpt><trkpt lat="45.81474743448959" lon="8.255962588133025"><ele>460.0</ele><time>2026-04-19T13:09:54.945Z</time></trkpt><trkpt lat="45.81472316552896" lon="8.25586850182854"><ele>459.99999999999994</ele><time>2026-04-19T13:09:55.946Z</time></trkpt><trkpt lat="45.814707352789284" lon="8.255772520129685"><ele>459.99999999999994</ele><time>2026-04-19T13:09:56.946Z</time></trkpt><trkpt lat="45.81469524149773" lon="8.255674853577455"><ele>460.0</ele><time>2026-04-19T13:09:57.946Z</time></trkpt><trkpt lat="45.81468578607814" lon="8.255574659403246"><ele>459.99999999999994</ele><time>2026-04-19T13:09:58.946Z</time></trkpt><trkpt lat="45.81467392489412" lon="8.255480389750263"><ele>459.99999999999994</ele><time>2026-04-19T13:09:59.946Z</time></trkpt><trkpt lat="45.81466308094914" lon="8.25538591022451"><ele>459.8</ele><time>2026-04-19T13:10:00.946Z</time></trkpt><trkpt lat="45.81465413576311" lon="8.255292190734696"><ele>459.6</ele><time>2026-04-19T13:10:01.946Z</time></trkpt><trkpt lat="45.814636467439435" lon="8.255119070425375"><ele>459.4</ele><time>2026-04-19T13:10:03.946Z</time></trkpt><trkpt lat="45.81460860672924" lon="8.254968725645822"><ele>459.2</ele><time>2026-04-19T13:10:05.946Z</time></trkpt><trkpt lat="45.814589984218124" lon="8.25482604699132"><ele>459.0</ele><time>2026-04-19T13:10:07.946Z</time></trkpt><trkpt lat="45.81457766531122" lon="8.254705702360353"><ele>459.0</ele><time>2026-04-19T13:10:09.946Z</time></trkpt><trkpt lat="45.8145641382226" lon="8.254590817748399"><ele>459.0</ele><time>2026-04-19T13:10:12.946Z</time></trkpt><trkpt lat="45.81462855125003" lon="8.254558890967495"><ele>459.0</ele><time>2026-04-19T13:10:21.946Z</time></trkpt><trkpt lat="45.81466900351463" lon="8.254668302194483"><ele>459.0</ele><time>2026-04-19T13:10:33.946Z</time></trkpt><trkpt lat="45.8147072354308" lon="8.254807985779042"><ele>459.0</ele><time>2026-04-19T13:10:35.946Z</time></trkpt><trkpt lat="45.814743603557204" lon="8.254987761430552"><ele>459.2</ele><time>2026-04-19T13:10:37.946Z</time></trkpt><trkpt lat="45.814757059851964" lon="8.255095483960174"><ele>459.4</ele><time>2026-04-19T13:10:38.946Z</time></trkpt><trkpt lat="45.814769429542025" lon="8.255212941233175"><ele>459.6</ele><time>2026-04-19T13:10:39.946Z</time></trkpt><trkpt lat="45.81478354682374" lon="8.25534483052476"><ele>459.8</ele><time>2026-04-19T13:10:40.947Z</time></trkpt><trkpt lat="45.814793979146415" lon="8.255568496085004"><ele>460.0</ele><time>2026-04-19T13:10:41.947Z</time></trkpt><trkpt lat="45.81481125330468" lon="8.255699729248573"><ele>460.00000000000006</ele><time>2026-04-19T13:10:42.947Z</time></trkpt><trkpt lat="45.81482664316098" lon="8.255813457518803"><ele>460.0</ele><time>2026-04-19T13:10:43.947Z</time></trkpt><trkpt lat="45.81486110724166" lon="8.255910922055032"><ele>460.0</ele><time>2026-04-19T13:10:44.947Z</time></trkpt><trkpt lat="45.81487212906137" lon="8.256084552931734"><ele>460.0</ele><time>2026-04-19T13:10:46.947Z</time></trkpt><trkpt lat="45.81493132829801" lon="8.256204803903138"><ele>460.00000000000006</ele><time>2026-04-19T13:10:48.947Z</time></trkpt><trkpt lat="45.81499354908164" lon="8.256228394025472"><ele>460.0</ele><time>2026-04-19T13:10:49.947Z</time></trkpt><trkpt lat="45.815057572599336" lon="8.256259677028638"><ele>460.00000000000006</ele><time>2026-04-19T13:10:50.947Z</time></trkpt><trkpt lat="45.81512576797027" lon="8.256291430278921"><ele>460.0</ele><time>2026-04-19T13:10:51.947Z</time></trkpt><trkpt lat="45.815190752954685" lon="8.256323281272625"><ele>460.0</ele><time>2026-04-19T13:10:52.947Z</time></trkpt><trkpt lat="45.81528900177912" lon="8.25638615753655"><ele>460.0</ele><time>2026-04-19T13:10:54.947Z</time></trkpt><trkpt lat="45.81534692376846" lon="8.25648959467917"><ele>460.00000000000006</ele><time>2026-04-19T13:10:56.947Z</time></trkpt><trkpt lat="45.81540478827071" lon="8.256582333505836"><ele>460.0</ele><time>2026-04-19T13:10:58.947Z</time></trkpt><trkpt lat="45.81546918514619" lon="8.25649181486955"><ele>463.0</ele><time>2026-04-19T13:11:01.947Z</time></trkpt><trkpt lat="45.81545770493119" lon="8.256347375472657"><ele>466.0</ele><time>2026-04-19T13:11:03.943Z</time></trkpt><trkpt lat="45.815489584600215" lon="8.256170085317017"><ele>469.0</ele><time>2026-04-19T13:11:05.943Z</time></trkpt><trkpt lat="45.815516097217795" lon="8.256059673164225"><ele>472.0</ele><time>2026-04-19T13:11:06.943Z</time></trkpt><trkpt lat="45.81553664388013" lon="8.25595655142678"><ele>475.0</ele><time>2026-04-19T13:11:07.943Z</time></trkpt><trkpt lat="45.81555725851445" lon="8.255841468932152"><ele>475.0</ele><time>2026-04-19T13:11:08.943Z</time></trkpt><trkpt lat="45.81558455864293" lon="8.255712233784159"><ele>475.0</ele><time>2026-04-19T13:11:09.943Z</time></trkpt><trkpt lat="45.815621066066186" lon="8.25557457494627"><ele>475.0</ele><time>2026-04-19T13:11:10.943Z</time></trkpt><trkpt lat="45.815655972794865" lon="8.255462500441272"><ele>475.0</ele><time>2026-04-19T13:11:11.943Z</time></trkpt><trkpt lat="45.815697178628035" lon="8.255339486159281"><ele>475.0</ele><time>2026-04-19T13:11:12.943Z</time></trkpt><trkpt lat="45.81574998501367" lon="8.255216956342396"><ele>473.0</ele><time>2026-04-19T13:11:13.943Z</time></trkpt><trkpt lat="45.8158030694209" lon="8.255091562311453"><ele>471.0</ele><time>2026-04-19T13:11:14.943Z</time></trkpt><trkpt lat="45.815851904500086" lon="8.254966609148177"><ele>469.0</ele><time>2026-04-19T13:11:15.944Z</time></trkpt><trkpt lat="45.81591260354007" lon="8.254872955750301"><ele>467.0</ele><time>2026-04-19T13:11:16.943Z</time></trkpt><trkpt lat="45.81597510086404" lon="8.254802846762344"><ele>465.0</ele><time>2026-04-19T13:11:17.943Z</time></trkpt><trkpt lat="45.81605009449814" lon="8.25473183495312"><ele>464.8</ele><time>2026-04-19T13:11:18.943Z</time></trkpt><trkpt lat="45.816126450183575" lon="8.254661035339105"><ele>464.6</ele><time>2026-04-19T13:11:19.943Z</time></trkpt><trkpt lat="45.816213461912525" lon="8.254605290068321"><ele>464.4</ele><time>2026-04-19T13:11:20.943Z</time></trkpt><trkpt lat="45.816310621709405" lon="8.254569738278395"><ele>464.2</ele><time>2026-04-19T13:11:21.943Z</time></trkpt><trkpt lat="45.816404559775826" lon="8.254543745761222"><ele>464.0</ele><time>2026-04-19T13:11:22.944Z</time></trkpt><trkpt lat="45.8165082017633" lon="8.254534243685072"><ele>464.0</ele><time>2026-04-19T13:11:23.944Z</time></trkpt><trkpt lat="45.816616813922465" lon="8.254523304466023"><ele>464.0</ele><time>2026-04-19T13:11:24.944Z</time></trkpt><trkpt lat="45.816723071622214" lon="8.254499378185391"><ele>464.0</ele><time>2026-04-19T13:11:25.944Z</time></trkpt><trkpt lat="45.8168248314391" lon="8.254452060581594"><ele>464.0</ele><time>2026-04-19T13:11:26.944Z</time></trkpt><trkpt lat="45.81691446947866" lon="8.254397134798614"><ele>464.0</ele><time>2026-04-19T13:11:27.944Z</time></trkpt><trkpt lat="45.816994575606074" lon="8.254333162387818"><ele>464.99999999999994</ele><time>2026-04-19T13:11:28.944Z</time></trkpt><trkpt lat="45.81705977841449" lon="8.254267695937859"><ele>466.0</ele><time>2026-04-19T13:11:29.944Z</time></trkpt><trkpt lat="45.817111018997565" lon="8.254210022429506"><ele>467.0</ele><time>2026-04-19T13:11:30.944Z</time></trkpt><trkpt lat="45.81715170974308" lon="8.254104928136766"><ele>468.0</ele><time>2026-04-19T13:11:32.944Z</time></trkpt><trkpt lat="45.81712426104106" lon="8.253981805100626"><ele>468.99999999999994</ele><time>2026-04-19T13:11:34.944Z</time></trkpt><trkpt lat="45.81708427362186" lon="8.25388355760651"><ele>470.0</ele><time>2026-04-19T13:11:35.944Z</time></trkpt><trkpt lat="45.817040033114104" lon="8.253780580622617"><ele>469.99999999999994</ele><time>2026-04-19T13:11:36.944Z</time></trkpt><trkpt lat="45.81698731930176" lon="8.253691262581045"><ele>470.0</ele><time>2026-04-19T13:11:37.944Z</time></trkpt><trkpt lat="45.816928923182935" lon="8.253616704749287"><ele>470.0</ele><time>2026-04-19T13:11:38.944Z</time></trkpt><trkpt lat="45.81686861253281" lon="8.253557411947169"><ele>470.0</ele><time>2026-04-19T13:11:39.944Z</time></trkpt><trkpt lat="45.816814715905515" lon="8.253510424655717"><ele>469.99999999999994</ele><time>2026-04-19T13:11:40.944Z</time></trkpt><trkpt lat="45.81673254062343" lon="8.25341665781076"><ele>470.0</ele><time>2026-04-19T13:11:42.944Z</time></trkpt><trkpt lat="45.816744465510574" lon="8.25329095180133"><ele>469.99999999999994</ele><time>2026-04-19T13:11:44.944Z</time></trkpt><trkpt lat="45.81678095602089" lon="8.25321679289113"><ele>470.0</ele><time>2026-04-19T13:11:45.944Z</time></trkpt><trkpt lat="45.81683022614086" lon="8.253133637335981"><ele>470.0</ele><time>2026-04-19T13:11:46.944Z</time></trkpt><trkpt lat="45.816886528353194" lon="8.253047559206234"><ele>470.0</ele><time>2026-04-19T13:11:47.944Z</time></trkpt><trkpt lat="45.81694088769362" lon="8.252959081126214"><ele>469.99999999999994</ele><time>2026-04-19T13:11:48.944Z</time></trkpt><trkpt lat="45.81698805455991" lon="8.252874873898186"><ele>470.0</ele><time>2026-04-19T13:11:49.944Z</time></trkpt><trkpt lat="45.81706051438491" lon="8.252751480125758"><ele>469.4</ele><time>2026-04-19T13:11:51.944Z</time></trkpt><trkpt lat="45.8171229401099" lon="8.25267052646382"><ele>468.8</ele><time>2026-04-19T13:11:53.944Z</time></trkpt><trkpt lat="45.81720381154865" lon="8.252666267590827"><ele>468.20000000000005</ele><time>2026-04-19T13:11:55.944Z</time></trkpt><trkpt lat="45.81728804450877" lon="8.25273619306498"><ele>467.6</ele><time>2026-04-19T13:11:57.944Z</time></trkpt><trkpt lat="45.817384499744605" lon="8.25281135680996"><ele>467.0</ele><time>2026-04-19T13:11:59.944Z</time></trkpt><trkpt lat="45.81748122936371" lon="8.252889447037406"><ele>466.99999999999994</ele><time>2026-04-19T13:12:01.944Z</time></trkpt><trkpt lat="45.817536246584346" lon="8.252935505184272"><ele>467.0</ele><time>2026-04-19T13:12:02.944Z</time></trkpt><trkpt lat="45.81760879257957" lon="8.25296237589444"><ele>467.0</ele><time>2026-04-19T13:12:03.944Z</time></trkpt><trkpt lat="45.817723709946186" lon="8.253023910550437"><ele>467.0</ele><time>2026-04-19T13:12:05.944Z</time></trkpt><trkpt lat="45.81778349014387" lon="8.253058861894733"><ele>466.99999999999994</ele><time>2026-04-19T13:12:06.944Z</time></trkpt><trkpt lat="45.81784434511637" lon="8.253084825872875"><ele>467.0</ele><time>2026-04-19T13:12:07.945Z</time></trkpt><trkpt lat="45.817954178964975" lon="8.253143670462844"><ele>468.49999999999994</ele><time>2026-04-19T13:12:09.945Z</time></trkpt><trkpt lat="45.81805922234886" lon="8.253186634668182"><ele>470.0</ele><time>2026-04-19T13:12:11.945Z</time></trkpt><trkpt lat="45.81812849282431" lon="8.253182274824914"><ele>471.5</ele><time>2026-04-19T13:12:13.945Z</time></trkpt><trkpt lat="45.81823104181739" lon="8.253205232402694"><ele>473.0</ele><time>2026-04-19T13:12:15.945Z</time></trkpt><trkpt lat="45.818300239375" lon="8.253227473568712"><ele>474.49999999999994</ele><time>2026-04-19T13:12:16.945Z</time></trkpt><trkpt lat="45.81837222785311" lon="8.253256329319477"><ele>476.0</ele><time>2026-04-19T13:12:17.945Z</time></trkpt><trkpt lat="45.81844061776609" lon="8.253288546417151"><ele>475.66666666666663</ele><time>2026-04-19T13:12:18.945Z</time></trkpt><trkpt lat="45.818524703369036" lon="8.25333588181454"><ele>475.3333333333333</ele><time>2026-04-19T13:12:19.945Z</time></trkpt><trkpt lat="45.8186087198823" lon="8.253366010915983"><ele>475.0</ele><time>2026-04-19T13:12:20.945Z</time></trkpt><trkpt lat="45.81868236387632" lon="8.253368032525698"><ele>474.66666666666663</ele><time>2026-04-19T13:12:21.945Z</time></trkpt><trkpt lat="45.81876429393991" lon="8.253355525185855"><ele>474.3333333333333</ele><time>2026-04-19T13:12:22.945Z</time></trkpt><trkpt lat="45.8188489239889" lon="8.253330188408066"><ele>474.0</ele><time>2026-04-19T13:12:23.945Z</time></trkpt><trkpt lat="45.81893834750875" lon="8.253294137068753"><ele>474.0</ele><time>2026-04-19T13:12:24.945Z</time></trkpt><trkpt lat="45.81901849389743" lon="8.253239741640021"><ele>474.0</ele><time>2026-04-19T13:12:25.945Z</time></trkpt><trkpt lat="45.81909740965817" lon="8.253176044104274"><ele>474.0</ele><time>2026-04-19T13:12:26.945Z</time></trkpt><trkpt lat="45.81918208163713" lon="8.253103878401408"><ele>474.0</ele><time>2026-04-19T13:12:27.945Z</time></trkpt><trkpt lat="45.81928212809263" lon="8.253039480475048"><ele>474.0</ele><time>2026-04-19T13:12:28.945Z</time></trkpt><trkpt lat="45.81938836466002" lon="8.252978536787797"><ele>472.25</ele><time>2026-04-19T13:12:29.945Z</time></trkpt><trkpt lat="45.819488667767644" lon="8.252899810870463"><ele>470.5</ele><time>2026-04-19T13:12:30.945Z</time></trkpt><trkpt lat="45.81958871355192" lon="8.25282252100948"><ele>468.75</ele><time>2026-04-19T13:12:31.945Z</time></trkpt><trkpt lat="45.81969562947601" lon="8.252751811490684"><ele>467.0</ele><time>2026-04-19T13:12:32.945Z</time></trkpt><trkpt lat="45.819799451922165" lon="8.252683679651593"><ele>467.0</ele><time>2026-04-19T13:12:33.945Z</time></trkpt><trkpt lat="45.81990313389117" lon="8.252608394535931"><ele>467.0</ele><time>2026-04-19T13:12:34.945Z</time></trkpt><trkpt lat="45.82001190940792" lon="8.252529788901448"><ele>467.0</ele><time>2026-04-19T13:12:35.945Z</time></trkpt><trkpt lat="45.820123243848585" lon="8.252456235243438"><ele>467.0</ele><time>2026-04-19T13:12:36.945Z</time></trkpt><trkpt lat="45.820230805472725" lon="8.25237237082297"><ele>467.5</ele><time>2026-04-19T13:12:37.945Z</time></trkpt><trkpt lat="45.82034512109856" lon="8.252293493054898"><ele>468.0</ele><time>2026-04-19T13:12:38.945Z</time></trkpt><trkpt lat="45.82046498198294" lon="8.252215704893926"><ele>468.5</ele><time>2026-04-19T13:12:39.945Z</time></trkpt><trkpt lat="45.820583809948026" lon="8.25212609877583"><ele>469.0</ele><time>2026-04-19T13:12:40.945Z</time></trkpt><trkpt lat="45.820692489267415" lon="8.252024629697578"><ele>469.0</ele><time>2026-04-19T13:12:41.945Z</time></trkpt><trkpt lat="45.820792503449134" lon="8.251911253446453"><ele>469.0</ele><time>2026-04-19T13:12:42.945Z</time></trkpt><trkpt lat="45.820877845233056" lon="8.251779183486356"><ele>469.0</ele><time>2026-04-19T13:12:43.945Z</time></trkpt><trkpt lat="45.820954622632705" lon="8.251637651649691"><ele>469.0</ele><time>2026-04-19T13:12:44.945Z</time></trkpt><trkpt lat="45.82101339073698" lon="8.251486433549843"><ele>475.25</ele><time>2026-04-19T13:12:45.945Z</time></trkpt><trkpt lat="45.82106137376279" lon="8.251328966828442"><ele>481.5</ele><time>2026-04-19T13:12:46.945Z</time></trkpt><trkpt lat="45.82110081625271" lon="8.251165298091637"><ele>487.75</ele><time>2026-04-19T13:12:47.945Z</time></trkpt><trkpt lat="45.821131665282195" lon="8.251003129238335"><ele>494.0</ele><time>2026-04-19T13:12:48.945Z</time></trkpt><trkpt lat="45.82115521675088" lon="8.250841033157274"><ele>494.0</ele><time>2026-04-19T13:12:49.945Z</time></trkpt><trkpt lat="45.821172715241445" lon="8.25068277707093"><ele>494.0</ele><time>2026-04-19T13:12:50.945Z</time></trkpt><trkpt lat="45.821179012518265" lon="8.25052778073776"><ele>494.0</ele><time>2026-04-19T13:12:51.945Z</time></trkpt><trkpt lat="45.821169563768706" lon="8.250390017664891"><ele>494.0</ele><time>2026-04-19T13:12:52.946Z</time></trkpt><trkpt lat="45.82115126532916" lon="8.250265381032687"><ele>494.0</ele><time>2026-04-19T13:12:53.946Z</time></trkpt><trkpt lat="45.821127918143745" lon="8.25014762674868"><ele>491.99999999999994</ele><time>2026-04-19T13:12:54.946Z</time></trkpt><trkpt lat="45.821100732716175" lon="8.25004333688802"><ele>490.0</ele><time>2026-04-19T13:12:55.946Z</time></trkpt><trkpt lat="45.82107647607008" lon="8.249957912848327"><ele>488.0</ele><time>2026-04-19T13:12:56.946Z</time></trkpt><trkpt lat="45.82103818457295" lon="8.249836345691676"><ele>486.0</ele><time>2026-04-19T13:12:58.946Z</time></trkpt><trkpt lat="45.820992708932685" lon="8.249767667741345"><ele>483.99999999999994</ele><time>2026-04-19T13:13:06.946Z</time></trkpt><trkpt lat="45.820888269321316" lon="8.249788367186905"><ele>482.0</ele><time>2026-04-19T13:13:09.942Z</time></trkpt><trkpt lat="45.82079858385273" lon="8.249917388226763"><ele>479.8333333333333</ele><time>2026-04-19T13:13:11.942Z</time></trkpt><trkpt lat="45.8207442777224" lon="8.249999779666677"><ele>477.66666666666663</ele><time>2026-04-19T13:13:12.942Z</time></trkpt><trkpt lat="45.82069038190919" lon="8.250089472650725"><ele>475.5</ele><time>2026-04-19T13:13:13.943Z</time></trkpt><trkpt lat="45.820622644119965" lon="8.250187335348345"><ele>473.33333333333337</ele><time>2026-04-19T13:13:14.943Z</time></trkpt><trkpt lat="45.82055459912063" lon="8.250273466989388"><ele>471.1666666666667</ele><time>2026-04-19T13:13:15.942Z</time></trkpt><trkpt lat="45.82046865960928" lon="8.25034343694192"><ele>469.0</ele><time>2026-04-19T13:13:16.942Z</time></trkpt><trkpt lat="45.82037050957722" lon="8.250393247554614"><ele>469.0</ele><time>2026-04-19T13:13:17.942Z</time></trkpt><trkpt lat="45.82026590175607" lon="8.25041747083675"><ele>469.0</ele><time>2026-04-19T13:13:18.942Z</time></trkpt><trkpt lat="45.8201613721579" lon="8.250406451396538"><ele>469.0</ele><time>2026-04-19T13:13:19.942Z</time></trkpt><trkpt lat="45.8200573636621" lon="8.25036023553728"><ele>469.0</ele><time>2026-04-19T13:13:20.942Z</time></trkpt><trkpt lat="45.81996265039831" lon="8.250287907960931"><ele>469.0</ele><time>2026-04-19T13:13:21.942Z</time></trkpt><trkpt lat="45.81987735130227" lon="8.250203185267198"><ele>469.0</ele><time>2026-04-19T13:13:22.942Z</time></trkpt><trkpt lat="45.81978838164178" lon="8.250109190045356"><ele>469.0</ele><time>2026-04-19T13:13:23.942Z</time></trkpt><trkpt lat="45.81969847147624" lon="8.250012570009435"><ele>469.0</ele><time>2026-04-19T13:13:24.942Z</time></trkpt><trkpt lat="45.81960649302417" lon="8.249915540437083"><ele>469.0</ele><time>2026-04-19T13:13:25.942Z</time></trkpt><trkpt lat="45.819516437272085" lon="8.249826189139581"><ele>469.0</ele><time>2026-04-19T13:13:26.942Z</time></trkpt><trkpt lat="45.81942412726948" lon="8.249735986642628"><ele>468.79999999999995</ele><time>2026-04-19T13:13:27.942Z</time></trkpt><trkpt lat="45.81933674702944" lon="8.249647827679091"><ele>468.59999999999997</ele><time>2026-04-19T13:13:28.942Z</time></trkpt><trkpt lat="45.819247502409965" lon="8.249557870014467"><ele>468.4</ele><time>2026-04-19T13:13:29.942Z</time></trkpt><trkpt lat="45.81916220635239" lon="8.249473580518304"><ele>468.2</ele><time>2026-04-19T13:13:30.942Z</time></trkpt><trkpt lat="45.81907677998882" lon="8.249392190597359"><ele>468.0</ele><time>2026-04-19T13:13:31.942Z</time></trkpt><trkpt lat="45.81899340776793" lon="8.249312488625113"><ele>468.0</ele><time>2026-04-19T13:13:32.942Z</time></trkpt><trkpt lat="45.81890867404564" lon="8.249230338255055"><ele>467.99999999999994</ele><time>2026-04-19T13:13:33.942Z</time></trkpt><trkpt lat="45.81882261500653" lon="8.249149754828261"><ele>467.99999999999994</ele><time>2026-04-19T13:13:34.942Z</time></trkpt><trkpt lat="45.81873716386964" lon="8.249071848847258"><ele>468.0</ele><time>2026-04-19T13:13:35.942Z</time></trkpt><trkpt lat="45.81865598799054" lon="8.248986726364505"><ele>468.0</ele><time>2026-04-19T13:13:36.942Z</time></trkpt><trkpt lat="45.818572889451524" lon="8.248905947245051"><ele>468.0</ele><time>2026-04-19T13:13:37.942Z</time></trkpt><trkpt lat="45.81848541127407" lon="8.248835389426265"><ele>467.99999999999994</ele><time>2026-04-19T13:13:38.942Z</time></trkpt><trkpt lat="45.81839176391997" lon="8.248774455529214"><ele>467.99999999999994</ele><time>2026-04-19T13:13:39.942Z</time></trkpt><trkpt lat="45.81829326680168" lon="8.248714567039404"><ele>468.0</ele><time>2026-04-19T13:13:40.942Z</time></trkpt><trkpt lat="45.818194477982516" lon="8.248655748279933"><ele>468.0</ele><time>2026-04-19T13:13:41.942Z</time></trkpt><trkpt lat="45.8180908033837" lon="8.248602214640611"><ele>468.0</ele><time>2026-04-19T13:13:42.942Z</time></trkpt><trkpt lat="45.8179870696562" lon="8.248555176797371"><ele>467.99999999999994</ele><time>2026-04-19T13:13:43.942Z</time></trkpt><trkpt lat="45.8178843675694" lon="8.248511412794292"><ele>467.99999999999994</ele><time>2026-04-19T13:13:44.942Z</time></trkpt><trkpt lat="45.81778542843615" lon="8.248468105055863"><ele>468.0</ele><time>2026-04-19T13:13:45.942Z</time></trkpt><trkpt lat="45.817687718352545" lon="8.248426650094686"><ele>468.0</ele><time>2026-04-19T13:13:46.942Z</time></trkpt><trkpt lat="45.817585171386455" lon="8.248385738245677"><ele>467.0</ele><time>2026-04-19T13:13:47.942Z</time></trkpt><trkpt lat="45.81747922598555" lon="8.248351050559238"><ele>465.99999999999994</ele><time>2026-04-19T13:13:48.942Z</time></trkpt><trkpt lat="45.81737127168128" lon="8.24832999982335"><ele>464.99999999999994</ele><time>2026-04-19T13:13:49.942Z</time></trkpt><trkpt lat="45.81725958425474" lon="8.248308815054619"><ele>464.0</ele><time>2026-04-19T13:13:50.942Z</time></trkpt><trkpt lat="45.81715092382199" lon="8.24829197384867"><ele>463.0</ele><time>2026-04-19T13:13:51.942Z</time></trkpt><trkpt lat="45.81704532406586" lon="8.248293753724765"><ele>463.0</ele><time>2026-04-19T13:13:52.942Z</time></trkpt><trkpt lat="45.81695037381008" lon="8.248287668122819"><ele>462.99999999999994</ele><time>2026-04-19T13:13:53.942Z</time></trkpt><trkpt lat="45.81686380693154" lon="8.248271709274348"><ele>462.99999999999994</ele><time>2026-04-19T13:13:54.942Z</time></trkpt><trkpt lat="45.816782778914245" lon="8.248261150860136"><ele>463.0</ele><time>2026-04-19T13:13:55.942Z</time></trkpt><trkpt lat="45.81669158277822" lon="8.248249609992381"><ele>463.0</ele><time>2026-04-19T13:13:56.942Z</time></trkpt><trkpt lat="45.81659169240201" lon="8.248234445281474"><ele>462.79999999999995</ele><time>2026-04-19T13:13:57.942Z</time></trkpt><trkpt lat="45.81648741276024" lon="8.248198720416033"><ele>462.59999999999997</ele><time>2026-04-19T13:13:58.942Z</time></trkpt><trkpt lat="45.816385905513876" lon="8.248150907404632"><ele>462.40000000000003</ele><time>2026-04-19T13:13:59.942Z</time></trkpt><trkpt lat="45.81627883449493" lon="8.24812419707049"><ele>462.20000000000005</ele><time>2026-04-19T13:14:00.943Z</time></trkpt><trkpt lat="45.816173046364845" lon="8.248096638864741"><ele>462.0</ele><time>2026-04-19T13:14:01.943Z</time></trkpt><trkpt lat="45.816073878780806" lon="8.248072911270356"><ele>461.5</ele><time>2026-04-19T13:14:02.943Z</time></trkpt><trkpt lat="45.815983929888645" lon="8.248049795291548"><ele>461.0</ele><time>2026-04-19T13:14:03.943Z</time></trkpt><trkpt lat="45.81590569296333" lon="8.248021007339192"><ele>460.5</ele><time>2026-04-19T13:14:04.943Z</time></trkpt><trkpt lat="45.8158356116628" lon="8.248001207254408"><ele>460.0</ele><time>2026-04-19T13:14:05.943Z</time></trkpt><trkpt lat="45.81574663295285" lon="8.247950608813783"><ele>459.5</ele><time>2026-04-19T13:14:07.943Z</time></trkpt><trkpt lat="45.81572096829193" lon="8.247811612412784"><ele>459.0</ele><time>2026-04-19T13:14:10.943Z</time></trkpt><trkpt lat="45.81573354113364" lon="8.247722703128497"><ele>459.0</ele><time>2026-04-19T13:14:11.943Z</time></trkpt><trkpt lat="45.81577801742226" lon="8.247622004383274"><ele>459.0</ele><time>2026-04-19T13:14:12.943Z</time></trkpt><trkpt lat="45.815817582447416" lon="8.247516018005829"><ele>459.0</ele><time>2026-04-19T13:14:13.943Z</time></trkpt><trkpt lat="45.815860175797745" lon="8.247400767947038"><ele>459.0</ele><time>2026-04-19T13:14:14.943Z</time></trkpt><trkpt lat="45.81590397550888" lon="8.247260134650784"><ele>459.0</ele><time>2026-04-19T13:14:15.943Z</time></trkpt><trkpt lat="45.81595064626712" lon="8.247117308862565"><ele>460.5</ele><time>2026-04-19T13:14:16.943Z</time></trkpt><trkpt lat="45.81599906358391" lon="8.246973033254855"><ele>462.0</ele><time>2026-04-19T13:14:17.943Z</time></trkpt><trkpt lat="45.8160624344315" lon="8.246829765832793"><ele>463.5</ele><time>2026-04-19T13:14:18.943Z</time></trkpt><trkpt lat="45.816123972821885" lon="8.246676360255467"><ele>465.0</ele><time>2026-04-19T13:14:19.943Z</time></trkpt><trkpt lat="45.81618235062451" lon="8.246530941819831"><ele>464.75</ele><time>2026-04-19T13:14:20.943Z</time></trkpt><trkpt lat="45.81624289148258" lon="8.246379649492965"><ele>464.5</ele><time>2026-04-19T13:14:21.943Z</time></trkpt><trkpt lat="45.816307626652346" lon="8.246222967667194"><ele>464.25</ele><time>2026-04-19T13:14:22.943Z</time></trkpt><trkpt lat="45.816373101316245" lon="8.24606236863815"><ele>464.0</ele><time>2026-04-19T13:14:23.943Z</time></trkpt><trkpt lat="45.816435142686814" lon="8.245909959351078"><ele>464.0</ele><time>2026-04-19T13:14:24.943Z</time></trkpt><trkpt lat="45.81649194792853" lon="8.245755635242867"><ele>464.0</ele><time>2026-04-19T13:14:25.943Z</time></trkpt><trkpt lat="45.81655015201422" lon="8.245599867140703"><ele>464.0</ele><time>2026-04-19T13:14:26.943Z</time></trkpt><trkpt lat="45.816606372866545" lon="8.245442121481167"><ele>464.0</ele><time>2026-04-19T13:14:27.943Z</time></trkpt><trkpt lat="45.816664825560615" lon="8.24528053241143"><ele>462.75</ele><time>2026-04-19T13:14:28.943Z</time></trkpt><trkpt lat="45.8167317245429" lon="8.24511792891515"><ele>461.5</ele><time>2026-04-19T13:14:29.943Z</time></trkpt><trkpt lat="45.816800661528276" lon="8.244953709346603"><ele>460.25</ele><time>2026-04-19T13:14:30.943Z</time></trkpt><trkpt lat="45.816868024762165" lon="8.244783631128506"><ele>459.0</ele><time>2026-04-19T13:14:31.943Z</time></trkpt><trkpt lat="45.81693594461348" lon="8.244618219191864"><ele>462.5</ele><time>2026-04-19T13:14:32.943Z</time></trkpt><trkpt lat="45.81700579886184" lon="8.244456514791182"><ele>466.0</ele><time>2026-04-19T13:14:33.943Z</time></trkpt><trkpt lat="45.81708565913582" lon="8.244305714283751"><ele>469.5</ele><time>2026-04-19T13:14:34.943Z</time></trkpt><trkpt lat="45.817177481586995" lon="8.244162209813373"><ele>473.0</ele><time>2026-04-19T13:14:35.943Z</time></trkpt><trkpt lat="45.81727174918217" lon="8.244029906460293"><ele>473.75</ele><time>2026-04-19T13:14:36.943Z</time></trkpt><trkpt lat="45.81737309797956" lon="8.243901128750249"><ele>474.5</ele><time>2026-04-19T13:14:37.943Z</time></trkpt><trkpt lat="45.81747831840321" lon="8.243766818658472"><ele>475.25</ele><time>2026-04-19T13:14:38.943Z</time></trkpt><trkpt lat="45.81757999044799" lon="8.243628814506803"><ele>476.0</ele><time>2026-04-19T13:14:39.943Z</time></trkpt><trkpt lat="45.81767955082294" lon="8.243496651155802"><ele>476.0</ele><time>2026-04-19T13:14:40.943Z</time></trkpt><trkpt lat="45.81777209515161" lon="8.243372906066524"><ele>476.0</ele><time>2026-04-19T13:14:41.943Z</time></trkpt><trkpt lat="45.81785948654022" lon="8.243255225344928"><ele>476.0</ele><time>2026-04-19T13:14:42.943Z</time></trkpt><trkpt lat="45.81794280959072" lon="8.24314813658473"><ele>476.0</ele><time>2026-04-19T13:14:43.943Z</time></trkpt><trkpt lat="45.818018053238234" lon="8.243044508233877"><ele>476.0</ele><time>2026-04-19T13:14:44.943Z</time></trkpt><trkpt lat="45.81815654533962" lon="8.24287286428253"><ele>476.0</ele><time>2026-04-19T13:14:46.944Z</time></trkpt><trkpt lat="45.81820824726541" lon="8.242817293627228"><ele>476.0</ele><time>2026-04-19T13:14:47.944Z</time></trkpt><trkpt lat="45.81830824658036" lon="8.242749700248591"><ele>476.0</ele><time>2026-04-19T13:14:49.944Z</time></trkpt><trkpt lat="45.818385499042826" lon="8.24270800315243"><ele>476.0</ele><time>2026-04-19T13:14:50.944Z</time></trkpt><trkpt lat="45.81848678174716" lon="8.242665520092505"><ele>476.0</ele><time>2026-04-19T13:14:51.944Z</time></trkpt><trkpt lat="45.818623745433264" lon="8.242628590642815"><ele>476.0</ele><time>2026-04-19T13:14:52.944Z</time></trkpt><trkpt lat="45.81878112709504" lon="8.242577157152654"><ele>476.0</ele><time>2026-04-19T13:14:53.944Z</time></trkpt><trkpt lat="45.81893784692378" lon="8.24251741055672"><ele>476.0</ele><time>2026-04-19T13:14:54.944Z</time></trkpt><trkpt lat="45.819101627530515" lon="8.24245390749013"><ele>476.0</ele><time>2026-04-19T13:14:55.944Z</time></trkpt><trkpt lat="45.81925504512782" lon="8.242382056415844"><ele>476.0</ele><time>2026-04-19T13:14:56.944Z</time></trkpt><trkpt lat="45.819405768902136" lon="8.242296577342888"><ele>476.3333333333333</ele><time>2026-04-19T13:14:57.944Z</time></trkpt><trkpt lat="45.81954515482225" lon="8.242199530888355"><ele>476.66666666666663</ele><time>2026-04-19T13:14:58.944Z</time></trkpt><trkpt lat="45.81966708957723" lon="8.242071232404882"><ele>477.0</ele><time>2026-04-19T13:14:59.944Z</time></trkpt><trkpt lat="45.8197892336443" lon="8.241934619798588"><ele>477.0</ele><time>2026-04-19T13:15:00.944Z</time></trkpt><trkpt lat="45.81990440037497" lon="8.241791966114151"><ele>477.0</ele><time>2026-04-19T13:15:01.944Z</time></trkpt><trkpt lat="45.820010546466165" lon="8.241642348376716"><ele>477.0</ele><time>2026-04-19T13:15:02.944Z</time></trkpt><trkpt lat="45.82009921191557" lon="8.241476839778928"><ele>477.0</ele><time>2026-04-19T13:15:03.944Z</time></trkpt><trkpt lat="45.82016952549678" lon="8.241292505508119"><ele>480.75</ele><time>2026-04-19T13:15:04.944Z</time></trkpt><trkpt lat="45.82023152385849" lon="8.241103227205405"><ele>484.5</ele><time>2026-04-19T13:15:05.944Z</time></trkpt><trkpt lat="45.82028189103766" lon="8.24090325122984"><ele>488.25</ele><time>2026-04-19T13:15:06.944Z</time></trkpt><trkpt lat="45.820330550718225" lon="8.240694495722023"><ele>492.0</ele><time>2026-04-19T13:15:07.944Z</time></trkpt><trkpt lat="45.82038826763041" lon="8.240492049687656"><ele>492.0</ele><time>2026-04-19T13:15:08.944Z</time></trkpt><trkpt lat="45.82044944059159" lon="8.24028771967466"><ele>492.0</ele><time>2026-04-19T13:15:09.944Z</time></trkpt><trkpt lat="45.82051790388576" lon="8.240090150047848"><ele>492.0</ele><time>2026-04-19T13:15:10.944Z</time></trkpt><trkpt lat="45.82058995193356" lon="8.23989622503836"><ele>486.0</ele><time>2026-04-19T13:15:11.944Z</time></trkpt><trkpt lat="45.820667248706584" lon="8.239704476551946"><ele>480.0</ele><time>2026-04-19T13:15:12.944Z</time></trkpt><trkpt lat="45.820736734332435" lon="8.239524058258104"><ele>474.0</ele><time>2026-04-19T13:15:13.944Z</time></trkpt><trkpt lat="45.820798976150776" lon="8.239354926261722"><ele>468.0</ele><time>2026-04-19T13:15:14.944Z</time></trkpt><trkpt lat="45.8208361013642" lon="8.239171258629266"><ele>468.0</ele><time>2026-04-19T13:15:15.942Z</time></trkpt><trkpt lat="45.82084753808722" lon="8.238975892866243"><ele>468.0</ele><time>2026-04-19T13:15:16.941Z</time></trkpt><trkpt lat="45.82083797428668" lon="8.238781000144963"><ele>468.0</ele><time>2026-04-19T13:15:17.941Z</time></trkpt><trkpt lat="45.820816030200554" lon="8.238604477661044"><ele>468.0</ele><time>2026-04-19T13:15:18.941Z</time></trkpt><trkpt lat="45.82077405828521" lon="8.238424150180466"><ele>468.25</ele><time>2026-04-19T13:15:19.941Z</time></trkpt><trkpt lat="45.82070487362029" lon="8.238253169628916"><ele>468.5</ele><time>2026-04-19T13:15:20.942Z</time></trkpt><trkpt lat="45.82061543969206" lon="8.23808853197126"><ele>468.75</ele><time>2026-04-19T13:15:21.941Z</time></trkpt><trkpt lat="45.82051964835677" lon="8.237925593320142"><ele>469.0</ele><time>2026-04-19T13:15:22.941Z</time></trkpt><trkpt lat="45.820422454286756" lon="8.237755270732249"><ele>467.0</ele><time>2026-04-19T13:15:23.941Z</time></trkpt><trkpt lat="45.82032580858653" lon="8.237575259528338"><ele>465.0</ele><time>2026-04-19T13:15:24.942Z</time></trkpt><trkpt lat="45.82022375684435" lon="8.237396776818533"><ele>463.0</ele><time>2026-04-19T13:15:25.941Z</time></trkpt><trkpt lat="45.82012112321836" lon="8.237219873324415"><ele>463.0</ele><time>2026-04-19T13:15:26.941Z</time></trkpt><trkpt lat="45.820019466525565" lon="8.237043501104756"><ele>463.0</ele><time>2026-04-19T13:15:27.941Z</time></trkpt><trkpt lat="45.81992028086841" lon="8.236861950528432"><ele>463.0</ele><time>2026-04-19T13:15:28.941Z</time></trkpt><trkpt lat="45.81982148062843" lon="8.23668185680002"><ele>463.0</ele><time>2026-04-19T13:15:29.941Z</time></trkpt><trkpt lat="45.81972551690626" lon="8.236502358467751"><ele>463.0</ele><time>2026-04-19T13:15:30.941Z</time></trkpt><trkpt lat="45.81963302518282" lon="8.236327404478514"><ele>463.0</ele><time>2026-04-19T13:15:31.941Z</time></trkpt><trkpt lat="45.8195417077898" lon="8.236155301530088"><ele>462.75</ele><time>2026-04-19T13:15:32.941Z</time></trkpt><trkpt lat="45.819448642582095" lon="8.23598401359649"><ele>462.5</ele><time>2026-04-19T13:15:33.941Z</time></trkpt><trkpt lat="45.81935679666323" lon="8.235817045836647"><ele>462.25</ele><time>2026-04-19T13:15:34.941Z</time></trkpt><trkpt lat="45.819268388081476" lon="8.235645914101292"><ele>462.0</ele><time>2026-04-19T13:15:35.941Z</time></trkpt><trkpt lat="45.8191933009407" lon="8.235460871122637"><ele>465.0</ele><time>2026-04-19T13:15:36.941Z</time></trkpt><trkpt lat="45.81914142921376" lon="8.23526343801732"><ele>468.0</ele><time>2026-04-19T13:15:37.941Z</time></trkpt><trkpt lat="45.819108570148" lon="8.235052019054265"><ele>471.0</ele><time>2026-04-19T13:15:38.941Z</time></trkpt><trkpt lat="45.819091544303674" lon="8.234832280957848"><ele>475.0</ele><time>2026-04-19T13:15:39.941Z</time></trkpt><trkpt lat="45.81908062472814" lon="8.234607066687957"><ele>479.0</ele><time>2026-04-19T13:15:40.941Z</time></trkpt><trkpt lat="45.81907524847847" lon="8.234375482644058"><ele>483.0</ele><time>2026-04-19T13:15:41.941Z</time></trkpt><trkpt lat="45.819069120095435" lon="8.234139413920673"><ele>483.66666666666663</ele><time>2026-04-19T13:15:42.941Z</time></trkpt><trkpt lat="45.819062553450635" lon="8.23390831508203"><ele>484.3333333333333</ele><time>2026-04-19T13:15:43.941Z</time></trkpt><trkpt lat="45.81905580841465" lon="8.233693628438782"><ele>485.0</ele><time>2026-04-19T13:15:44.941Z</time></trkpt><trkpt lat="45.819052550564344" lon="8.233482168372833"><ele>485.0</ele><time>2026-04-19T13:15:45.941Z</time></trkpt><trkpt lat="45.81904484764539" lon="8.233270828752994"><ele>485.0</ele><time>2026-04-19T13:15:46.941Z</time></trkpt><trkpt lat="45.81904169076912" lon="8.233056625089462"><ele>485.0</ele><time>2026-04-19T13:15:47.941Z</time></trkpt><trkpt lat="45.81903519142889" lon="8.232852785233836"><ele>485.0</ele><time>2026-04-19T13:15:48.941Z</time></trkpt><trkpt lat="45.81902888143715" lon="8.23265669563363"><ele>486.0</ele><time>2026-04-19T13:15:49.941Z</time></trkpt><trkpt lat="45.81902404388579" lon="8.23246626113535"><ele>487.0</ele><time>2026-04-19T13:15:50.941Z</time></trkpt><trkpt lat="45.81901898500315" lon="8.232277564043423"><ele>488.0</ele><time>2026-04-19T13:15:51.941Z</time></trkpt><trkpt lat="45.819026480250514" lon="8.232086803192946"><ele>489.0</ele><time>2026-04-19T13:15:52.941Z</time></trkpt><trkpt lat="45.8190572051973" lon="8.231892983650997"><ele>487.0</ele><time>2026-04-19T13:15:53.941Z</time></trkpt><trkpt lat="45.819100717084446" lon="8.231701172076562"><ele>485.0</ele><time>2026-04-19T13:15:54.941Z</time></trkpt><trkpt lat="45.81914827443917" lon="8.23150708647793"><ele>483.0</ele><time>2026-04-19T13:15:55.941Z</time></trkpt><trkpt lat="45.819196077364" lon="8.231317625302657"><ele>481.0</ele><time>2026-04-19T13:15:56.941Z</time></trkpt><trkpt lat="45.819246272085415" lon="8.231143796573008"><ele>484.25</ele><time>2026-04-19T13:15:57.941Z</time></trkpt><trkpt lat="45.81931029786008" lon="8.230983276334747"><ele>487.5</ele><time>2026-04-19T13:15:58.942Z</time></trkpt><trkpt lat="45.81939274060507" lon="8.230852041152273"><ele>490.75</ele><time>2026-04-19T13:15:59.942Z</time></trkpt><trkpt lat="45.81949470650347" lon="8.23075435558397"><ele>494.0</ele><time>2026-04-19T13:16:00.942Z</time></trkpt><trkpt lat="45.81961355094948" lon="8.230674412201024"><ele>486.75</ele><time>2026-04-19T13:16:01.942Z</time></trkpt><trkpt lat="45.81973577570228" lon="8.230612092219511"><ele>479.5</ele><time>2026-04-19T13:16:02.942Z</time></trkpt><trkpt lat="45.819867471043324" lon="8.230554191558959"><ele>472.25</ele><time>2026-04-19T13:16:03.942Z</time></trkpt><trkpt lat="45.82000737361076" lon="8.230511398717654"><ele>465.0</ele><time>2026-04-19T13:16:04.942Z</time></trkpt><trkpt lat="45.82015123002394" lon="8.230476856433278"><ele>465.0</ele><time>2026-04-19T13:16:05.942Z</time></trkpt><trkpt lat="45.8202969393819" lon="8.230439227486903"><ele>465.0</ele><time>2026-04-19T13:16:06.942Z</time></trkpt><trkpt lat="45.82044520784579" lon="8.230409933735963"><ele>465.0</ele><time>2026-04-19T13:16:07.942Z</time></trkpt><trkpt lat="45.8205914096834" lon="8.230390994417363"><ele>465.0</ele><time>2026-04-19T13:16:08.942Z</time></trkpt><trkpt lat="45.820736157846056" lon="8.230383401101596"><ele>465.0</ele><time>2026-04-19T13:16:09.942Z</time></trkpt><trkpt lat="45.82087885325241" lon="8.23037577848488"><ele>465.0</ele><time>2026-04-19T13:16:10.942Z</time></trkpt><trkpt lat="45.82102406165121" lon="8.230381547226608"><ele>465.0</ele><time>2026-04-19T13:16:11.942Z</time></trkpt><trkpt lat="45.82116989078655" lon="8.230390921723046"><ele>465.0</ele><time>2026-04-19T13:16:12.942Z</time></trkpt><trkpt lat="45.82132130949129" lon="8.23039500799334"><ele>465.66666666666663</ele><time>2026-04-19T13:16:13.942Z</time></trkpt><trkpt lat="45.82147189914135" lon="8.230382991600305"><ele>466.3333333333333</ele><time>2026-04-19T13:16:14.942Z</time></trkpt><trkpt lat="45.8216239400138" lon="8.230355858118862"><ele>467.0</ele><time>2026-04-19T13:16:15.942Z</time></trkpt><trkpt lat="45.821774404492174" lon="8.230322990222732"><ele>470.0</ele><time>2026-04-19T13:16:16.942Z</time></trkpt><trkpt lat="45.8219249608177" lon="8.230287427829282"><ele>473.0</ele><time>2026-04-19T13:16:17.942Z</time></trkpt><trkpt lat="45.822077165754244" lon="8.230242790097245"><ele>476.0</ele><time>2026-04-19T13:16:18.942Z</time></trkpt><trkpt lat="45.82222741968041" lon="8.230174752835252"><ele>476.0</ele><time>2026-04-19T13:16:19.942Z</time></trkpt><trkpt lat="45.82236972905055" lon="8.230077487655173"><ele>476.0</ele><time>2026-04-19T13:16:20.942Z</time></trkpt><trkpt lat="45.822501652365126" lon="8.229953845894359"><ele>476.0</ele><time>2026-04-19T13:16:21.942Z</time></trkpt><trkpt lat="45.82261814089339" lon="8.22981149941833"><ele>476.0</ele><time>2026-04-19T13:16:22.942Z</time></trkpt><trkpt lat="45.82271544373706" lon="8.229648565149995"><ele>476.0</ele><time>2026-04-19T13:16:23.942Z</time></trkpt><trkpt lat="45.822798694177" lon="8.229463987402521"><ele>476.0</ele><time>2026-04-19T13:16:24.942Z</time></trkpt><trkpt lat="45.82286440097893" lon="8.229264621114881"><ele>476.0</ele><time>2026-04-19T13:16:25.942Z</time></trkpt><trkpt lat="45.8229139020612" lon="8.22905263206138"><ele>476.0</ele><time>2026-04-19T13:16:26.942Z</time></trkpt><trkpt lat="45.8229492644705" lon="8.22883143555886"><ele>476.0</ele><time>2026-04-19T13:16:27.942Z</time></trkpt><trkpt lat="45.82297840966996" lon="8.22860793326744"><ele>476.0</ele><time>2026-04-19T13:16:28.942Z</time></trkpt><trkpt lat="45.82300805423885" lon="8.228383121852419"><ele>476.0</ele><time>2026-04-19T13:16:29.942Z</time></trkpt><trkpt lat="45.823037395265146" lon="8.228160017264813"><ele>476.0</ele><time>2026-04-19T13:16:30.942Z</time></trkpt><trkpt lat="45.823067418685426" lon="8.227942157418394"><ele>476.0</ele><time>2026-04-19T13:16:31.942Z</time></trkpt><trkpt lat="45.82309490598246" lon="8.227728946566353"><ele>476.0</ele><time>2026-04-19T13:16:32.942Z</time></trkpt><trkpt lat="45.82312229236233" lon="8.227526157019335"><ele>476.0</ele><time>2026-04-19T13:16:33.942Z</time></trkpt><trkpt lat="45.823146960081" lon="8.227335034401474"><ele>476.0</ele><time>2026-04-19T13:16:34.942Z</time></trkpt><trkpt lat="45.82316709068892" lon="8.22715543667609"><ele>476.0</ele><time>2026-04-19T13:16:35.942Z</time></trkpt><trkpt lat="45.82318776282877" lon="8.226976387371806"><ele>476.0</ele><time>2026-04-19T13:16:36.942Z</time></trkpt><trkpt lat="45.82320931501448" lon="8.226804768828634"><ele>476.0</ele><time>2026-04-19T13:16:37.942Z</time></trkpt><trkpt lat="45.82323102666197" lon="8.22664509656642"><ele>476.0</ele><time>2026-04-19T13:16:38.942Z</time></trkpt><trkpt lat="45.82324853543207" lon="8.22649487696594"><ele>475.8333333333333</ele><time>2026-04-19T13:16:39.942Z</time></trkpt><trkpt lat="45.823263648992295" lon="8.22635223869647"><ele>475.66666666666663</ele><time>2026-04-19T13:16:40.942Z</time></trkpt><trkpt lat="45.823278833219405" lon="8.226221175557475"><ele>475.5</ele><time>2026-04-19T13:16:41.942Z</time></trkpt><trkpt lat="45.82329352555152" lon="8.226099680264419"><ele>475.33333333333337</ele><time>2026-04-19T13:16:42.942Z</time></trkpt><trkpt lat="45.8233075405437" lon="8.22598637309074"><ele>475.1666666666667</ele><time>2026-04-19T13:16:43.943Z</time></trkpt><trkpt lat="45.823322447571805" lon="8.225885026657657"><ele>475.0</ele><time>2026-04-19T13:16:44.943Z</time></trkpt><trkpt lat="45.823335506248824" lon="8.225781618436834"><ele>475.00000000000006</ele><time>2026-04-19T13:16:45.943Z</time></trkpt><trkpt lat="45.823350014599484" lon="8.225669038148133"><ele>475.0</ele><time>2026-04-19T13:16:46.943Z</time></trkpt><trkpt lat="45.82336435895181" lon="8.225549792426857"><ele>475.0</ele><time>2026-04-19T13:16:47.943Z</time></trkpt><trkpt lat="45.823379603932686" lon="8.225423845829226"><ele>475.0</ele><time>2026-04-19T13:16:48.943Z</time></trkpt><trkpt lat="45.82339642230565" lon="8.225290702970728"><ele>475.00000000000006</ele><time>2026-04-19T13:16:49.943Z</time></trkpt><trkpt lat="45.82341105162851" lon="8.225146931082518"><ele>475.0</ele><time>2026-04-19T13:16:50.943Z</time></trkpt><trkpt lat="45.82342498109774" lon="8.224996161219526"><ele>474.6</ele><time>2026-04-19T13:16:51.943Z</time></trkpt><trkpt lat="45.82343365727198" lon="8.22485109322044"><ele>474.2</ele><time>2026-04-19T13:16:52.943Z</time></trkpt><trkpt lat="45.823434589580266" lon="8.224697423763047"><ele>473.79999999999995</ele><time>2026-04-19T13:16:53.943Z</time></trkpt><trkpt lat="45.823426686720495" lon="8.224544664631297"><ele>473.4</ele><time>2026-04-19T13:16:54.943Z</time></trkpt><trkpt lat="45.82340076133968" lon="8.22438539962065"><ele>473.0</ele><time>2026-04-19T13:16:55.943Z</time></trkpt><trkpt lat="45.82336170106485" lon="8.22422816569742"><ele>473.0</ele><time>2026-04-19T13:16:56.943Z</time></trkpt><trkpt lat="45.8233162455163" lon="8.224070247156849"><ele>473.0</ele><time>2026-04-19T13:16:57.943Z</time></trkpt><trkpt lat="45.82326845674502" lon="8.223911590825374"><ele>473.0</ele><time>2026-04-19T13:16:58.943Z</time></trkpt><trkpt lat="45.823221027224626" lon="8.223749197717128"><ele>473.0</ele><time>2026-04-19T13:16:59.943Z</time></trkpt><trkpt lat="45.82317104228245" lon="8.223586754817578"><ele>473.25</ele><time>2026-04-19T13:17:00.943Z</time></trkpt><trkpt lat="45.823124885729676" lon="8.223418320985582"><ele>473.5</ele><time>2026-04-19T13:17:01.943Z</time></trkpt><trkpt lat="45.823077488887265" lon="8.22324437745235"><ele>473.75</ele><time>2026-04-19T13:17:02.943Z</time></trkpt><trkpt lat="45.823029105507715" lon="8.223066860630974"><ele>474.0</ele><time>2026-04-19T13:17:03.943Z</time></trkpt><trkpt lat="45.82297721081114" lon="8.222883934055075"><ele>475.25</ele><time>2026-04-19T13:17:04.943Z</time></trkpt><trkpt lat="45.82292096775926" lon="8.222698193398514"><ele>476.5</ele><time>2026-04-19T13:17:05.943Z</time></trkpt><trkpt lat="45.82286154511579" lon="8.222503074142546"><ele>477.75</ele><time>2026-04-19T13:17:06.943Z</time></trkpt><trkpt lat="45.822805408231766" lon="8.222310232689024"><ele>479.0</ele><time>2026-04-19T13:17:07.943Z</time></trkpt><trkpt lat="45.82275091534096" lon="8.222114996516662"><ele>479.0</ele><time>2026-04-19T13:17:08.943Z</time></trkpt><trkpt lat="45.8226948553712" lon="8.221914147065876"><ele>479.0</ele><time>2026-04-19T13:17:09.943Z</time></trkpt><trkpt lat="45.822633843088056" lon="8.221712219388543"><ele>479.0</ele><time>2026-04-19T13:17:10.943Z</time></trkpt><trkpt lat="45.82257589180133" lon="8.221498928517587"><ele>483.0</ele><time>2026-04-19T13:17:11.943Z</time></trkpt><trkpt lat="45.82252445444553" lon="8.221282096041651"><ele>487.0</ele><time>2026-04-19T13:17:12.943Z</time></trkpt><trkpt lat="45.82248193964277" lon="8.221063518274317"><ele>491.0</ele><time>2026-04-19T13:17:13.943Z</time></trkpt><trkpt lat="45.82244978850906" lon="8.220844301530228"><ele>492.3333333333333</ele><time>2026-04-19T13:17:14.943Z</time></trkpt><trkpt lat="45.82245062452893" lon="8.220628411005693"><ele>493.66666666666663</ele><time>2026-04-19T13:17:15.943Z</time></trkpt><trkpt lat="45.82247545714439" lon="8.220406269412464"><ele>495.0</ele><time>2026-04-19T13:17:16.943Z</time></trkpt><trkpt lat="45.82251008330812" lon="8.220187670795093"><ele>495.0</ele><time>2026-04-19T13:17:17.943Z</time></trkpt><trkpt lat="45.82254028805023" lon="8.219971753156718"><ele>495.0</ele><time>2026-04-19T13:17:18.943Z</time></trkpt><trkpt lat="45.82256812170091" lon="8.219752139102097"><ele>495.0</ele><time>2026-04-19T13:17:19.943Z</time></trkpt><trkpt lat="45.82258863078092" lon="8.219528814764569"><ele>492.25</ele><time>2026-04-19T13:17:20.943Z</time></trkpt><trkpt lat="45.82259986781555" lon="8.219308330874725"><ele>489.5</ele><time>2026-04-19T13:17:21.941Z</time></trkpt><trkpt lat="45.82259857060755" lon="8.21910096547759"><ele>486.75</ele><time>2026-04-19T13:17:22.94Z</time></trkpt><trkpt lat="45.822592482546845" lon="8.218901249396946"><ele>484.0</ele><time>2026-04-19T13:17:23.94Z</time></trkpt><trkpt lat="45.82259292479774" lon="8.218701102175139"><ele>484.0</ele><time>2026-04-19T13:17:24.941Z</time></trkpt><trkpt lat="45.82261424914626" lon="8.218493209739492"><ele>484.0</ele><time>2026-04-19T13:17:25.941Z</time></trkpt><trkpt lat="45.822664682623405" lon="8.21829855425746"><ele>484.0</ele><time>2026-04-19T13:17:26.941Z</time></trkpt><trkpt lat="45.82272954471041" lon="8.218108545119602"><ele>484.0</ele><time>2026-04-19T13:17:27.941Z</time></trkpt><trkpt lat="45.82279975307301" lon="8.217912108941775"><ele>485.25</ele><time>2026-04-19T13:17:28.941Z</time></trkpt><trkpt lat="45.82286292588281" lon="8.217715151963622"><ele>486.5</ele><time>2026-04-19T13:17:29.941Z</time></trkpt><trkpt lat="45.82291852692935" lon="8.217523330529009"><ele>487.75</ele><time>2026-04-19T13:17:30.94Z</time></trkpt><trkpt lat="45.82297496187033" lon="8.217335692583575"><ele>489.0</ele><time>2026-04-19T13:17:31.94Z</time></trkpt><trkpt lat="45.82302785705676" lon="8.217153449020302"><ele>489.0</ele><time>2026-04-19T13:17:32.94Z</time></trkpt><trkpt lat="45.82308181593783" lon="8.21697196340834"><ele>489.0</ele><time>2026-04-19T13:17:33.94Z</time></trkpt><trkpt lat="45.823134488919216" lon="8.216800393888883"><ele>489.0</ele><time>2026-04-19T13:17:34.941Z</time></trkpt><trkpt lat="45.823172189234235" lon="8.216630640512614"><ele>489.0</ele><time>2026-04-19T13:17:35.941Z</time></trkpt><trkpt lat="45.823204762157545" lon="8.216468701072639"><ele>486.6</ele><time>2026-04-19T13:17:36.941Z</time></trkpt><trkpt lat="45.823233697031455" lon="8.216310295349043"><ele>484.2</ele><time>2026-04-19T13:17:37.941Z</time></trkpt><trkpt lat="45.82327297473826" lon="8.216159637110119"><ele>481.80000000000007</ele><time>2026-04-19T13:17:38.941Z</time></trkpt><trkpt lat="45.82330484916485" lon="8.216015683339808"><ele>479.40000000000003</ele><time>2026-04-19T13:17:39.941Z</time></trkpt><trkpt lat="45.823333019952216" lon="8.215879080142882"><ele>477.0</ele><time>2026-04-19T13:17:40.941Z</time></trkpt><trkpt lat="45.82335724068241" lon="8.215756417340437"><ele>477.3333333333333</ele><time>2026-04-19T13:17:41.941Z</time></trkpt><trkpt lat="45.82337712648636" lon="8.215640266991802"><ele>477.66666666666663</ele><time>2026-04-19T13:17:42.941Z</time></trkpt><trkpt lat="45.82340537399088" lon="8.215526625857814"><ele>478.0</ele><time>2026-04-19T13:17:43.941Z</time></trkpt><trkpt lat="45.8234372094989" lon="8.215407091407073"><ele>478.3333333333333</ele><time>2026-04-19T13:17:44.941Z</time></trkpt><trkpt lat="45.823466786639464" lon="8.21527996174637"><ele>478.66666666666663</ele><time>2026-04-19T13:17:45.941Z</time></trkpt><trkpt lat="45.823496884305285" lon="8.215145243611346"><ele>479.0</ele><time>2026-04-19T13:17:46.941Z</time></trkpt><trkpt lat="45.823527547207625" lon="8.215004713357873"><ele>480.0</ele><time>2026-04-19T13:17:47.941Z</time></trkpt><trkpt lat="45.82355836014333" lon="8.214860354654224"><ele>481.0</ele><time>2026-04-19T13:17:48.941Z</time></trkpt><trkpt lat="45.823592823927804" lon="8.2147124318703"><ele>482.0</ele><time>2026-04-19T13:17:49.941Z</time></trkpt><trkpt lat="45.82362953119208" lon="8.214551456296322"><ele>483.0</ele><time>2026-04-19T13:17:50.941Z</time></trkpt><trkpt lat="45.823671803448526" lon="8.214385443831988"><ele>483.0</ele><time>2026-04-19T13:17:51.941Z</time></trkpt><trkpt lat="45.82371402930016" lon="8.214211650412086"><ele>483.0</ele><time>2026-04-19T13:17:52.941Z</time></trkpt><trkpt lat="45.82375380580643" lon="8.214029427203124"><ele>483.0</ele><time>2026-04-19T13:17:53.941Z</time></trkpt><trkpt lat="45.8237963052904" lon="8.213838639741304"><ele>483.0</ele><time>2026-04-19T13:17:54.941Z</time></trkpt><trkpt lat="45.82383854280971" lon="8.213644742762673"><ele>483.0</ele><time>2026-04-19T13:17:55.941Z</time></trkpt><trkpt lat="45.82388355969902" lon="8.213458361755313"><ele>483.0</ele><time>2026-04-19T13:17:56.941Z</time></trkpt><trkpt lat="45.823928261361004" lon="8.213262740965526"><ele>483.0</ele><time>2026-04-19T13:17:57.941Z</time></trkpt><trkpt lat="45.8239712327773" lon="8.213063010255938"><ele>483.0</ele><time>2026-04-19T13:17:58.941Z</time></trkpt><trkpt lat="45.82401901546234" lon="8.212858247074122"><ele>482.33333333333337</ele><time>2026-04-19T13:17:59.941Z</time></trkpt><trkpt lat="45.82406514551992" lon="8.212650948208378"><ele>481.6666666666667</ele><time>2026-04-19T13:18:00.941Z</time></trkpt><trkpt lat="45.82411131014425" lon="8.21244278470807"><ele>481.0</ele><time>2026-04-19T13:18:01.941Z</time></trkpt><trkpt lat="45.82415818735531" lon="8.212229508171369"><ele>480.6666666666667</ele><time>2026-04-19T13:18:02.941Z</time></trkpt><trkpt lat="45.824202394973746" lon="8.212017489746403"><ele>480.33333333333337</ele><time>2026-04-19T13:18:03.941Z</time></trkpt><trkpt lat="45.82424569879621" lon="8.21181213191459"><ele>480.0</ele><time>2026-04-19T13:18:04.941Z</time></trkpt><trkpt lat="45.82429192768864" lon="8.211606747232876"><ele>483.33333333333337</ele><time>2026-04-19T13:18:05.941Z</time></trkpt><trkpt lat="45.824339280169916" lon="8.211398137978373"><ele>486.6666666666667</ele><time>2026-04-19T13:18:06.941Z</time></trkpt><trkpt lat="45.82438977728263" lon="8.21118455904413"><ele>490.0</ele><time>2026-04-19T13:18:07.941Z</time></trkpt><trkpt lat="45.82444739779987" lon="8.210973248411516"><ele>490.0</ele><time>2026-04-19T13:18:08.941Z</time></trkpt><trkpt lat="45.824518442010366" lon="8.21076620070283"><ele>490.0</ele><time>2026-04-19T13:18:09.941Z</time></trkpt><trkpt lat="45.82460281761078" lon="8.210566244675345"><ele>490.0</ele><time>2026-04-19T13:18:10.941Z</time></trkpt><trkpt lat="45.82469859368398" lon="8.210371921827635"><ele>490.6666666666667</ele><time>2026-04-19T13:18:11.941Z</time></trkpt><trkpt lat="45.82479754793076" lon="8.210180502182014"><ele>491.33333333333337</ele><time>2026-04-19T13:18:12.942Z</time></trkpt><trkpt lat="45.8248994978731" lon="8.20998664176103"><ele>492.0</ele><time>2026-04-19T13:18:13.942Z</time></trkpt><trkpt lat="45.824998075397176" lon="8.20978811623938"><ele>490.0</ele><time>2026-04-19T13:18:14.942Z</time></trkpt><trkpt lat="45.82509940882625" lon="8.209587186870975"><ele>488.0</ele><time>2026-04-19T13:18:15.942Z</time></trkpt><trkpt lat="45.82520778845979" lon="8.209382743815244"><ele>486.0</ele><time>2026-04-19T13:18:16.942Z</time></trkpt><trkpt lat="45.82532142971637" lon="8.209180472438854"><ele>486.66666666666663</ele><time>2026-04-19T13:18:17.942Z</time></trkpt><trkpt lat="45.825446718717316" lon="8.208989451242724"><ele>487.3333333333333</ele><time>2026-04-19T13:18:18.942Z</time></trkpt><trkpt lat="45.82557524883343" lon="8.20879915372716"><ele>488.0</ele><time>2026-04-19T13:18:19.942Z</time></trkpt><trkpt lat="45.82570542887159" lon="8.20860687458961"><ele>488.0</ele><time>2026-04-19T13:18:20.942Z</time></trkpt><trkpt lat="45.825832379823574" lon="8.208416325104215"><ele>488.0</ele><time>2026-04-19T13:18:21.942Z</time></trkpt><trkpt lat="45.82596005498154" lon="8.20821596233547"><ele>488.0</ele><time>2026-04-19T13:18:22.942Z</time></trkpt><trkpt lat="45.82609068677777" lon="8.2080167121758"><ele>489.3333333333333</ele><time>2026-04-19T13:18:23.942Z</time></trkpt><trkpt lat="45.82622158883606" lon="8.207815668167573"><ele>490.66666666666663</ele><time>2026-04-19T13:18:24.942Z</time></trkpt><trkpt lat="45.82635303043822" lon="8.20761403333732"><ele>492.0</ele><time>2026-04-19T13:18:25.942Z</time></trkpt><trkpt lat="45.82648613161225" lon="8.207409406163432"><ele>491.0</ele><time>2026-04-19T13:18:26.942Z</time></trkpt><trkpt lat="45.82661946647609" lon="8.207203067292179"><ele>490.0</ele><time>2026-04-19T13:18:27.942Z</time></trkpt><trkpt lat="45.82675184908866" lon="8.206996390561976"><ele>489.0</ele><time>2026-04-19T13:18:28.942Z</time></trkpt><trkpt lat="45.82688587547678" lon="8.206788217467547"><ele>490.33333333333337</ele><time>2026-04-19T13:18:29.942Z</time></trkpt><trkpt lat="45.827020022780566" lon="8.20658088412851"><ele>491.6666666666667</ele><time>2026-04-19T13:18:30.942Z</time></trkpt><trkpt lat="45.827156390566266" lon="8.206374590556663"><ele>493.0</ele><time>2026-04-19T13:18:31.942Z</time></trkpt><trkpt lat="45.82729208536761" lon="8.206164412100929"><ele>493.0</ele><time>2026-04-19T13:18:32.942Z</time></trkpt><trkpt lat="45.82743056044828" lon="8.205952940927999"><ele>493.0</ele><time>2026-04-19T13:18:33.942Z</time></trkpt><trkpt lat="45.82757056447858" lon="8.205741900635838"><ele>493.0</ele><time>2026-04-19T13:18:34.942Z</time></trkpt><trkpt lat="45.82771121051916" lon="8.205530880504545"><ele>494.0</ele><time>2026-04-19T13:18:35.942Z</time></trkpt><trkpt lat="45.82785272245859" lon="8.205318695273828"><ele>495.0</ele><time>2026-04-19T13:18:36.942Z</time></trkpt><trkpt lat="45.82799570357289" lon="8.205104377487581"><ele>496.0</ele><time>2026-04-19T13:18:37.942Z</time></trkpt><trkpt lat="45.82813407888621" lon="8.20489074812557"><ele>496.0</ele><time>2026-04-19T13:18:38.942Z</time></trkpt><trkpt lat="45.828273065705275" lon="8.204678001186538"><ele>496.0</ele><time>2026-04-19T13:18:39.942Z</time></trkpt><trkpt lat="45.8284129947559" lon="8.204463361629731"><ele>496.0</ele><time>2026-04-19T13:18:40.942Z</time></trkpt><trkpt lat="45.82855131908139" lon="8.204248388077243"><ele>496.6666666666667</ele><time>2026-04-19T13:18:41.942Z</time></trkpt><trkpt lat="45.828688256994376" lon="8.204036923422198"><ele>497.33333333333337</ele><time>2026-04-19T13:18:42.942Z</time></trkpt><trkpt lat="45.82882680744332" lon="8.203825543057324"><ele>498.0</ele><time>2026-04-19T13:18:43.942Z</time></trkpt><trkpt lat="45.82896459150933" lon="8.203615132738715"><ele>498.0</ele><time>2026-04-19T13:18:44.942Z</time></trkpt><trkpt lat="45.82910272698916" lon="8.203403046765283"><ele>498.0</ele><time>2026-04-19T13:18:45.942Z</time></trkpt><trkpt lat="45.82924128296766" lon="8.203191551973806"><ele>498.0</ele><time>2026-04-19T13:18:46.942Z</time></trkpt><trkpt lat="45.82937687449845" lon="8.202982781615319"><ele>501.0</ele><time>2026-04-19T13:18:47.942Z</time></trkpt><trkpt lat="45.82951661774261" lon="8.202775311014033"><ele>504.0</ele><time>2026-04-19T13:18:48.942Z</time></trkpt><trkpt lat="45.82965663486883" lon="8.202571135421639"><ele>507.0</ele><time>2026-04-19T13:18:49.942Z</time></trkpt><trkpt lat="45.82980292787378" lon="8.202374949213208"><ele>503.66666666666663</ele><time>2026-04-19T13:18:50.942Z</time></trkpt><trkpt lat="45.8299485681233" lon="8.202185617392399"><ele>500.3333333333333</ele><time>2026-04-19T13:18:51.942Z</time></trkpt><trkpt lat="45.83010280915511" lon="8.20200826313836"><ele>497.0</ele><time>2026-04-19T13:18:52.942Z</time></trkpt><trkpt lat="45.830262316198535" lon="8.201840438778358"><ele>498.3333333333333</ele><time>2026-04-19T13:18:53.942Z</time></trkpt><trkpt lat="45.83042131034371" lon="8.201670687269202"><ele>499.66666666666663</ele><time>2026-04-19T13:18:54.942Z</time></trkpt><trkpt lat="45.830578028630356" lon="8.201496018701697"><ele>501.0</ele><time>2026-04-19T13:18:55.942Z</time></trkpt><trkpt lat="45.830727316970176" lon="8.201307805267772"><ele>501.0</ele><time>2026-04-19T13:18:56.942Z</time></trkpt><trkpt lat="45.83085814884664" lon="8.201098035404298"><ele>501.0</ele><time>2026-04-19T13:18:57.943Z</time></trkpt><trkpt lat="45.83097961385611" lon="8.200881983807635"><ele>501.0</ele><time>2026-04-19T13:18:58.943Z</time></trkpt><trkpt lat="45.831075781806696" lon="8.200637129566351"><ele>505.66666666666663</ele><time>2026-04-19T13:18:59.943Z</time></trkpt><trkpt lat="45.831162762448784" lon="8.200399605451162"><ele>510.3333333333333</ele><time>2026-04-19T13:19:00.943Z</time></trkpt><trkpt lat="45.83125678321765" lon="8.200166069825283"><ele>515.0</ele><time>2026-04-19T13:19:01.943Z</time></trkpt><trkpt lat="45.831352514462466" lon="8.199946030752935"><ele>511.0</ele><time>2026-04-19T13:19:02.943Z</time></trkpt><trkpt lat="45.83146953540522" lon="8.199749424206143"><ele>507.0</ele><time>2026-04-19T13:19:03.943Z</time></trkpt><trkpt lat="45.831600727571704" lon="8.199566393645535"><ele>503.0</ele><time>2026-04-19T13:19:04.943Z</time></trkpt><trkpt lat="45.8317358347579" lon="8.199390188526989"><ele>507.66666666666663</ele><time>2026-04-19T13:19:05.943Z</time></trkpt><trkpt lat="45.831875965463674" lon="8.199217214791881"><ele>512.3333333333334</ele><time>2026-04-19T13:19:06.943Z</time></trkpt><trkpt lat="45.83201099517368" lon="8.199036585863418"><ele>517.0</ele><time>2026-04-19T13:19:07.943Z</time></trkpt><trkpt lat="45.83214372454139" lon="8.19884971991689"><ele>517.0</ele><time>2026-04-19T13:19:08.943Z</time></trkpt><trkpt lat="45.83227884849602" lon="8.198670066603169"><ele>517.0</ele><time>2026-04-19T13:19:09.943Z</time></trkpt><trkpt lat="45.8324138832772" lon="8.19849723247641"><ele>517.0</ele><time>2026-04-19T13:19:10.943Z</time></trkpt><trkpt lat="45.8325358108785" lon="8.19832445215347"><ele>512.6666666666667</ele><time>2026-04-19T13:19:11.943Z</time></trkpt><trkpt lat="45.83263644210146" lon="8.198138080343934"><ele>508.33333333333337</ele><time>2026-04-19T13:19:12.943Z</time></trkpt><trkpt lat="45.832711971229934" lon="8.197933816004117"><ele>504.0</ele><time>2026-04-19T13:19:13.943Z</time></trkpt><trkpt lat="45.832753567506956" lon="8.197707574448383"><ele>511.0</ele><time>2026-04-19T13:19:14.943Z</time></trkpt><trkpt lat="45.83276887432823" lon="8.197468252367157"><ele>518.0</ele><time>2026-04-19T13:19:15.943Z</time></trkpt><trkpt lat="45.83277264859525" lon="8.197238776916484"><ele>525.0</ele><time>2026-04-19T13:19:16.943Z</time></trkpt><trkpt lat="45.832771217945556" lon="8.19702027518575"><ele>525.0</ele><time>2026-04-19T13:19:17.943Z</time></trkpt><trkpt lat="45.8327684503061" lon="8.196814957906174"><ele>525.0</ele><time>2026-04-19T13:19:18.943Z</time></trkpt><trkpt lat="45.8327558318216" lon="8.196608209249813"><ele>525.0</ele><time>2026-04-19T13:19:19.943Z</time></trkpt><trkpt lat="45.832734518601605" lon="8.196395374259646"><ele>525.0</ele><time>2026-04-19T13:19:20.943Z</time></trkpt><trkpt lat="45.83270551193949" lon="8.196179911650292"><ele>523.5</ele><time>2026-04-19T13:19:21.943Z</time></trkpt><trkpt lat="45.832675717818375" lon="8.195967740257519"><ele>522.0</ele><time>2026-04-19T13:19:22.943Z</time></trkpt><trkpt lat="45.83264653170373" lon="8.195759259028778"><ele>520.5</ele><time>2026-04-19T13:19:23.943Z</time></trkpt><trkpt lat="45.832619118039105" lon="8.195552721937428"><ele>519.0</ele><time>2026-04-19T13:19:24.943Z</time></trkpt><trkpt lat="45.832590754527025" lon="8.195342002263375"><ele>516.0</ele><time>2026-04-19T13:19:25.943Z</time></trkpt><trkpt lat="45.832562941569726" lon="8.195129712090715"><ele>513.0</ele><time>2026-04-19T13:19:26.943Z</time></trkpt><trkpt lat="45.83253403414483" lon="8.194919740258422"><ele>510.0</ele><time>2026-04-19T13:19:27.94Z</time></trkpt><trkpt lat="45.83250771327494" lon="8.194711947776769"><ele>507.0</ele><time>2026-04-19T13:19:28.94Z</time></trkpt><trkpt lat="45.83248291722822" lon="8.194503404883921"><ele>507.0</ele><time>2026-04-19T13:19:29.94Z</time></trkpt><trkpt lat="45.83246232800625" lon="8.194288170223045"><ele>507.0</ele><time>2026-04-19T13:19:30.94Z</time></trkpt><trkpt lat="45.83244939397372" lon="8.194065651169266"><ele>507.0</ele><time>2026-04-19T13:19:31.94Z</time></trkpt><trkpt lat="45.832441485114785" lon="8.193838232119003"><ele>506.66666666666663</ele><time>2026-04-19T13:19:32.94Z</time></trkpt><trkpt lat="45.832445020487306" lon="8.193606139868324"><ele>506.3333333333333</ele><time>2026-04-19T13:19:33.94Z</time></trkpt><trkpt lat="45.8324566688294" lon="8.193371485705917"><ele>506.0</ele><time>2026-04-19T13:19:34.94Z</time></trkpt><trkpt lat="45.83246532170228" lon="8.193137326603434"><ele>506.0</ele><time>2026-04-19T13:19:35.94Z</time></trkpt><trkpt lat="45.832474382476015" lon="8.192909120543352"><ele>506.0</ele><time>2026-04-19T13:19:36.94Z</time></trkpt><trkpt lat="45.832480341924914" lon="8.19268501111272"><ele>506.0</ele><time>2026-04-19T13:19:37.94Z</time></trkpt><trkpt lat="45.832467703826" lon="8.192464064935956"><ele>506.3333333333333</ele><time>2026-04-19T13:19:38.94Z</time></trkpt><trkpt lat="45.832430416972336" lon="8.192251524529395"><ele>506.66666666666663</ele><time>2026-04-19T13:19:39.94Z</time></trkpt><trkpt lat="45.83237462198412" lon="8.192045158259464"><ele>507.0</ele><time>2026-04-19T13:19:40.94Z</time></trkpt><trkpt lat="45.83230957932708" lon="8.191835809946786"><ele>507.0</ele><time>2026-04-19T13:19:41.94Z</time></trkpt><trkpt lat="45.83224232867186" lon="8.191628390674172"><ele>507.0</ele><time>2026-04-19T13:19:42.94Z</time></trkpt><trkpt lat="45.83217334769182" lon="8.191417769093475"><ele>507.0</ele><time>2026-04-19T13:19:43.94Z</time></trkpt><trkpt lat="45.83210280159153" lon="8.191213129847068"><ele>510.33333333333337</ele><time>2026-04-19T13:19:44.94Z</time></trkpt><trkpt lat="45.8320355406553" lon="8.191005717049102"><ele>513.6666666666667</ele><time>2026-04-19T13:19:45.94Z</time></trkpt><trkpt lat="45.831969651919295" lon="8.190799888271512"><ele>517.0</ele><time>2026-04-19T13:19:46.94Z</time></trkpt><trkpt lat="45.831903014499495" lon="8.190592237024989"><ele>514.3333333333334</ele><time>2026-04-19T13:19:47.94Z</time></trkpt><trkpt lat="45.83183287692094" lon="8.190386292022184"><ele>511.66666666666663</ele><time>2026-04-19T13:19:48.94Z</time></trkpt><trkpt lat="45.831771301771184" lon="8.190182056854585"><ele>509.0</ele><time>2026-04-19T13:19:49.94Z</time></trkpt><trkpt lat="45.831700372964775" lon="8.189984210169458"><ele>513.3333333333333</ele><time>2026-04-19T13:19:50.94Z</time></trkpt><trkpt lat="45.8316344755437" lon="8.18978053845296"><ele>517.6666666666666</ele><time>2026-04-19T13:19:51.94Z</time></trkpt><trkpt lat="45.83156603435906" lon="8.189579649343624"><ele>522.0</ele><time>2026-04-19T13:19:52.941Z</time></trkpt><trkpt lat="45.83149995655927" lon="8.189377253274895"><ele>522.0</ele><time>2026-04-19T13:19:53.941Z</time></trkpt><trkpt lat="45.83142689685424" lon="8.189181045867649"><ele>522.0</ele><time>2026-04-19T13:19:54.941Z</time></trkpt><trkpt lat="45.83135463880808" lon="8.188981490850242"><ele>522.0</ele><time>2026-04-19T13:19:55.941Z</time></trkpt><trkpt lat="45.83128325568837" lon="8.188779911409341"><ele>532.3333333333334</ele><time>2026-04-19T13:19:56.941Z</time></trkpt><trkpt lat="45.83121437124601" lon="8.188580425409006"><ele>542.6666666666667</ele><time>2026-04-19T13:19:57.941Z</time></trkpt><trkpt lat="45.83114609131499" lon="8.188376129761856"><ele>553.0</ele><time>2026-04-19T13:19:58.941Z</time></trkpt><trkpt lat="45.83107840638748" lon="8.188172945035324"><ele>555.0</ele><time>2026-04-19T13:19:59.941Z</time></trkpt><trkpt lat="45.83101031217233" lon="8.187967810992303"><ele>557.0</ele><time>2026-04-19T13:20:00.941Z</time></trkpt><trkpt lat="45.83094230981749" lon="8.18776300373764"><ele>559.0</ele><time>2026-04-19T13:20:01.941Z</time></trkpt><trkpt lat="45.830875386508104" lon="8.187556876341702"><ele>545.6666666666667</ele><time>2026-04-19T13:20:02.941Z</time></trkpt><trkpt lat="45.830810936966785" lon="8.187350103966994"><ele>532.3333333333334</ele><time>2026-04-19T13:20:03.941Z</time></trkpt><trkpt lat="45.830743067937775" lon="8.187145587550093"><ele>519.0</ele><time>2026-04-19T13:20:04.941Z</time></trkpt><trkpt lat="45.83067697180683" lon="8.186937830058643"><ele>520.6666666666666</ele><time>2026-04-19T13:20:05.941Z</time></trkpt><trkpt lat="45.8306130227732" lon="8.186725511044113"><ele>522.3333333333333</ele><time>2026-04-19T13:20:06.941Z</time></trkpt><trkpt lat="45.83054542561397" lon="8.186510460234746"><ele>524.0</ele><time>2026-04-19T13:20:07.941Z</time></trkpt><trkpt lat="45.83048063904184" lon="8.18628833968176"><ele>524.0</ele><time>2026-04-19T13:20:08.941Z</time></trkpt><trkpt lat="45.83040815117224" lon="8.18605631455287"><ele>524.0</ele><time>2026-04-19T13:20:09.941Z</time></trkpt><trkpt lat="45.83033181242587" lon="8.185824507238387"><ele>524.0</ele><time>2026-04-19T13:20:10.941Z</time></trkpt><trkpt lat="45.83025338713627" lon="8.18558289408839"><ele>525.3333333333333</ele><time>2026-04-19T13:20:11.941Z</time></trkpt><trkpt lat="45.8301726106244" lon="8.185335859097286"><ele>526.6666666666666</ele><time>2026-04-19T13:20:12.941Z</time></trkpt><trkpt lat="45.83009085452432" lon="8.185084927929635"><ele>528.0</ele><time>2026-04-19T13:20:13.941Z</time></trkpt><trkpt lat="45.83001233572504" lon="8.184824290711441"><ele>528.0</ele><time>2026-04-19T13:20:14.941Z</time></trkpt><trkpt lat="45.82993288747483" lon="8.184562047469266"><ele>528.0</ele><time>2026-04-19T13:20:15.941Z</time></trkpt><trkpt lat="45.82985478713691" lon="8.184293872475548"><ele>528.0</ele><time>2026-04-19T13:20:16.941Z</time></trkpt><trkpt lat="45.82976774390173" lon="8.184029322864335"><ele>531.6666666666666</ele><time>2026-04-19T13:20:17.941Z</time></trkpt><trkpt lat="45.82968152071947" lon="8.183760729984744"><ele>535.3333333333333</ele><time>2026-04-19T13:20:18.941Z</time></trkpt><trkpt lat="45.82959629756015" lon="8.183494165212657"><ele>539.0</ele><time>2026-04-19T13:20:19.941Z</time></trkpt><trkpt lat="45.82951075289799" lon="8.183230495290308"><ele>544.6666666666666</ele><time>2026-04-19T13:20:20.941Z</time></trkpt><trkpt lat="45.829429838237346" lon="8.182962789678514"><ele>550.3333333333334</ele><time>2026-04-19T13:20:21.941Z</time></trkpt><trkpt lat="45.82935087691258" lon="8.182697805366455"><ele>556.0</ele><time>2026-04-19T13:20:22.941Z</time></trkpt><trkpt lat="45.82926901491188" lon="8.18243936196557"><ele>544.6666666666667</ele><time>2026-04-19T13:20:23.941Z</time></trkpt><trkpt lat="45.82918661853548" lon="8.182184810346133"><ele>533.3333333333334</ele><time>2026-04-19T13:20:24.941Z</time></trkpt><trkpt lat="45.8291069730419" lon="8.181934107777137"><ele>522.0</ele><time>2026-04-19T13:20:25.941Z</time></trkpt><trkpt lat="45.82903577257003" lon="8.18168085247964"><ele>525.0</ele><time>2026-04-19T13:20:26.941Z</time></trkpt><trkpt lat="45.82895996769413" lon="8.181435883648582"><ele>528.0</ele><time>2026-04-19T13:20:27.941Z</time></trkpt><trkpt lat="45.828880325223174" lon="8.181201205897917"><ele>531.0</ele><time>2026-04-19T13:20:28.941Z</time></trkpt><trkpt lat="45.82880378777449" lon="8.180964124511721"><ele>531.0</ele><time>2026-04-19T13:20:29.941Z</time></trkpt><trkpt lat="45.828735282865665" lon="8.180718597949646"><ele>531.0</ele><time>2026-04-19T13:20:30.941Z</time></trkpt><trkpt lat="45.828687592904245" lon="8.180463521477776"><ele>531.0</ele><time>2026-04-19T13:20:31.941Z</time></trkpt><trkpt lat="45.828652170216515" lon="8.180198191546886"><ele>534.6666666666666</ele><time>2026-04-19T13:20:32.941Z</time></trkpt><trkpt lat="45.828620161053905" lon="8.17992139288551"><ele>538.3333333333333</ele><time>2026-04-19T13:20:33.941Z</time></trkpt><trkpt lat="45.82857133138468" lon="8.179644410462792"><ele>542.0</ele><time>2026-04-19T13:20:34.941Z</time></trkpt><trkpt lat="45.828503226896686" lon="8.179365248688967"><ele>538.6666666666666</ele><time>2026-04-19T13:20:35.941Z</time></trkpt><trkpt lat="45.828429999995606" lon="8.179088224903705"><ele>535.3333333333334</ele><time>2026-04-19T13:20:36.941Z</time></trkpt><trkpt lat="45.82835709640173" lon="8.178821892762327"><ele>532.0</ele><time>2026-04-19T13:20:37.942Z</time></trkpt><trkpt lat="45.82828541133145" lon="8.178569518611292"><ele>532.0</ele><time>2026-04-19T13:20:38.942Z</time></trkpt><trkpt lat="45.82822536104031" lon="8.178320800328647"><ele>532.0</ele><time>2026-04-19T13:20:39.942Z</time></trkpt><trkpt lat="45.82818452275558" lon="8.178064108744254"><ele>532.0</ele><time>2026-04-19T13:20:40.942Z</time></trkpt><trkpt lat="45.82816512145066" lon="8.177800517463597"><ele>532.3333333333334</ele><time>2026-04-19T13:20:41.942Z</time></trkpt><trkpt lat="45.82817153597037" lon="8.177527579468249"><ele>532.6666666666666</ele><time>2026-04-19T13:20:42.942Z</time></trkpt><trkpt lat="45.82819165442862" lon="8.177244689211141"><ele>533.0</ele><time>2026-04-19T13:20:43.942Z</time></trkpt><trkpt lat="45.82821413460944" lon="8.176959912303861"><ele>533.0</ele><time>2026-04-19T13:20:44.942Z</time></trkpt><trkpt lat="45.828236012496156" lon="8.176671887469968"><ele>533.0</ele><time>2026-04-19T13:20:45.942Z</time></trkpt><trkpt lat="45.82825239112857" lon="8.176381210134098"><ele>533.0</ele><time>2026-04-19T13:20:46.942Z</time></trkpt><trkpt lat="45.82825307351525" lon="8.176096780926676"><ele>534.0</ele><time>2026-04-19T13:20:47.942Z</time></trkpt><trkpt lat="45.82822795546292" lon="8.175821256393473"><ele>535.0</ele><time>2026-04-19T13:20:48.942Z</time></trkpt><trkpt lat="45.828172037939524" lon="8.17555597820748"><ele>536.0</ele><time>2026-04-19T13:20:49.942Z</time></trkpt><trkpt lat="45.82809808189854" lon="8.175303843252609"><ele>539.3333333333333</ele><time>2026-04-19T13:20:50.942Z</time></trkpt><trkpt lat="45.82802170069549" lon="8.17504350685391"><ele>542.6666666666666</ele><time>2026-04-19T13:20:51.942Z</time></trkpt><trkpt lat="45.82794302972188" lon="8.174781739831086"><ele>546.0</ele><time>2026-04-19T13:20:52.942Z</time></trkpt><trkpt lat="45.82786118615655" lon="8.174521084019599"><ele>550.6666666666666</ele><time>2026-04-19T13:20:53.942Z</time></trkpt><trkpt lat="45.82778542409364" lon="8.174262774886792"><ele>555.3333333333333</ele><time>2026-04-19T13:20:54.942Z</time></trkpt><trkpt lat="45.82771548243249" lon="8.174015138893509"><ele>560.0</ele><time>2026-04-19T13:20:55.942Z</time></trkpt><trkpt lat="45.827659456615805" lon="8.17377078091967"><ele>550.0</ele><time>2026-04-19T13:20:56.942Z</time></trkpt><trkpt lat="45.827619424083046" lon="8.173536506535092"><ele>540.0</ele><time>2026-04-19T13:20:57.942Z</time></trkpt><trkpt lat="45.82759092161956" lon="8.173313897653381"><ele>530.0</ele><time>2026-04-19T13:20:58.942Z</time></trkpt><trkpt lat="45.827582289094146" lon="8.173098571516158"><ele>528.0</ele><time>2026-04-19T13:20:59.942Z</time></trkpt><trkpt lat="45.82759066185316" lon="8.172874746084991"><ele>526.0</ele><time>2026-04-19T13:21:00.942Z</time></trkpt><trkpt lat="45.827602747016115" lon="8.172648024785989"><ele>524.0</ele><time>2026-04-19T13:21:01.942Z</time></trkpt><trkpt lat="45.82762567385024" lon="8.172422425698853"><ele>530.0</ele><time>2026-04-19T13:21:02.942Z</time></trkpt><trkpt lat="45.82766497334743" lon="8.172217090192962"><ele>536.0</ele><time>2026-04-19T13:21:03.942Z</time></trkpt><trkpt lat="45.82772687517905" lon="8.172042492947245"><ele>542.0</ele><time>2026-04-19T13:21:04.942Z</time></trkpt><trkpt lat="45.82781584295728" lon="8.171876939616876"><ele>548.0</ele><time>2026-04-19T13:21:05.942Z</time></trkpt><trkpt lat="45.82791274900849" lon="8.171717960657439"><ele>548.0</ele><time>2026-04-19T13:21:06.942Z</time></trkpt><trkpt lat="45.82800196200247" lon="8.171548213655512"><ele>548.0</ele><time>2026-04-19T13:21:07.942Z</time></trkpt><trkpt lat="45.82808284878652" lon="8.171367455629392"><ele>548.0</ele><time>2026-04-19T13:21:08.942Z</time></trkpt><trkpt lat="45.82814216235098" lon="8.171159906489473"><ele>546.0</ele><time>2026-04-19T13:21:09.942Z</time></trkpt><trkpt lat="45.828181409478525" lon="8.170941241926924"><ele>544.0</ele><time>2026-04-19T13:21:10.942Z</time></trkpt><trkpt lat="45.828202246595446" lon="8.170709659473198"><ele>542.0</ele><time>2026-04-19T13:21:11.942Z</time></trkpt><trkpt lat="45.82822064456177" lon="8.170475661584343"><ele>542.0</ele><time>2026-04-19T13:21:12.942Z</time></trkpt><trkpt lat="45.828233676023295" lon="8.170238709004588"><ele>542.0</ele><time>2026-04-19T13:21:13.942Z</time></trkpt><trkpt lat="45.82822445730231" lon="8.170004464406821"><ele>542.0</ele><time>2026-04-19T13:21:14.942Z</time></trkpt><trkpt lat="45.82820117991937" lon="8.16976918844122"><ele>544.6666666666666</ele><time>2026-04-19T13:21:15.942Z</time></trkpt><trkpt lat="45.82817576158178" lon="8.169534108349028"><ele>547.3333333333334</ele><time>2026-04-19T13:21:16.942Z</time></trkpt><trkpt lat="45.82814864987994" lon="8.169294509668632"><ele>550.0</ele><time>2026-04-19T13:21:17.942Z</time></trkpt><trkpt lat="45.828119574874876" lon="8.169051413520128"><ele>552.0</ele><time>2026-04-19T13:21:18.942Z</time></trkpt><trkpt lat="45.828089500878235" lon="8.168807140685683"><ele>554.0</ele><time>2026-04-19T13:21:19.942Z</time></trkpt><trkpt lat="45.8280547830434" lon="8.168562035154594"><ele>556.0</ele><time>2026-04-19T13:21:20.942Z</time></trkpt><trkpt lat="45.82801870201386" lon="8.168317124482927"><ele>556.6666666666667</ele><time>2026-04-19T13:21:21.942Z</time></trkpt><trkpt lat="45.82798021848422" lon="8.168078618874693"><ele>557.3333333333334</ele><time>2026-04-19T13:21:22.943Z</time></trkpt><trkpt lat="45.82793746280131" lon="8.167837126776789"><ele>558.0</ele><time>2026-04-19T13:21:23.943Z</time></trkpt><trkpt lat="45.82788700478416" lon="8.167592788201882"><ele>559.6666666666666</ele><time>2026-04-19T13:21:24.943Z</time></trkpt><trkpt lat="45.82783315792506" lon="8.1673469942151"><ele>561.3333333333333</ele><time>2026-04-19T13:21:25.943Z</time></trkpt><trkpt lat="45.82777473119809" lon="8.16710018086608"><ele>563.0</ele><time>2026-04-19T13:21:26.943Z</time></trkpt><trkpt lat="45.827714998401625" lon="8.166855253816877"><ele>563.0</ele><time>2026-04-19T13:21:27.943Z</time></trkpt><trkpt lat="45.8276546129421" lon="8.16661133649621"><ele>563.0</ele><time>2026-04-19T13:21:28.943Z</time></trkpt><trkpt lat="45.82759368997934" lon="8.166368563730718"><ele>563.0</ele><time>2026-04-19T13:21:29.943Z</time></trkpt><trkpt lat="45.82753695860011" lon="8.166127090329846"><ele>558.0</ele><time>2026-04-19T13:21:30.943Z</time></trkpt><trkpt lat="45.82748104922355" lon="8.165889344143196"><ele>553.0</ele><time>2026-04-19T13:21:31.943Z</time></trkpt><trkpt lat="45.82741945125072" lon="8.165653037137583"><ele>548.0</ele><time>2026-04-19T13:21:32.943Z</time></trkpt><trkpt lat="45.82735318596196" lon="8.165420754224401"><ele>548.0</ele><time>2026-04-19T13:21:33.94Z</time></trkpt><trkpt lat="45.827279713859596" lon="8.16518752808029"><ele>548.0</ele><time>2026-04-19T13:21:34.94Z</time></trkpt><trkpt lat="45.827189975765734" lon="8.164965267870393"><ele>548.0</ele><time>2026-04-19T13:21:35.94Z</time></trkpt><trkpt lat="45.827081940887886" lon="8.164762581407123"><ele>548.6666666666666</ele><time>2026-04-19T13:21:36.94Z</time></trkpt><trkpt lat="45.82696345633938" lon="8.1645827326198"><ele>549.3333333333334</ele><time>2026-04-19T13:21:37.94Z</time></trkpt><trkpt lat="45.82682315208261" lon="8.164437489708277"><ele>550.0</ele><time>2026-04-19T13:21:38.94Z</time></trkpt><trkpt lat="45.826665255002986" lon="8.164317472969845"><ele>550.0</ele><time>2026-04-19T13:21:39.94Z</time></trkpt><trkpt lat="45.826501122381615" lon="8.164207557650133"><ele>550.0</ele><time>2026-04-19T13:21:40.94Z</time></trkpt><trkpt lat="45.82634113489357" lon="8.164083504529287"><ele>550.0</ele><time>2026-04-19T13:21:41.94Z</time></trkpt><trkpt lat="45.82618964755182" lon="8.163935198370385"><ele>549.3333333333334</ele><time>2026-04-19T13:21:42.94Z</time></trkpt><trkpt lat="45.82604600225269" lon="8.163769176166022"><ele>548.6666666666666</ele><time>2026-04-19T13:21:43.94Z</time></trkpt><trkpt lat="45.825906596309565" lon="8.163596692110017"><ele>548.0</ele><time>2026-04-19T13:21:44.94Z</time></trkpt><trkpt lat="45.825771779643595" lon="8.163413679244522"><ele>548.0</ele><time>2026-04-19T13:21:45.94Z</time></trkpt><trkpt lat="45.825639759365835" lon="8.163227538206385"><ele>548.0</ele><time>2026-04-19T13:21:46.94Z</time></trkpt><trkpt lat="45.82550454062674" lon="8.163043020853557"><ele>548.0</ele><time>2026-04-19T13:21:47.94Z</time></trkpt><trkpt lat="45.825366697386904" lon="8.162859924337496"><ele>549.6666666666666</ele><time>2026-04-19T13:21:48.94Z</time></trkpt><trkpt lat="45.82522731479911" lon="8.162683637354347"><ele>551.3333333333334</ele><time>2026-04-19T13:21:49.94Z</time></trkpt><trkpt lat="45.82508910178563" lon="8.16250964766725"><ele>553.0</ele><time>2026-04-19T13:21:50.94Z</time></trkpt><trkpt lat="45.82495380290004" lon="8.162337468770472"><ele>553.0</ele><time>2026-04-19T13:21:51.94Z</time></trkpt><trkpt lat="45.82482183960712" lon="8.162162955949691"><ele>553.0</ele><time>2026-04-19T13:21:52.94Z</time></trkpt><trkpt lat="45.82469690314274" lon="8.161973668203112"><ele>553.0</ele><time>2026-04-19T13:21:53.94Z</time></trkpt><trkpt lat="45.8245857581098" lon="8.161764425273434"><ele>553.0</ele><time>2026-04-19T13:21:54.94Z</time></trkpt><trkpt lat="45.82449316282104" lon="8.161538508940149"><ele>553.0</ele><time>2026-04-19T13:21:55.94Z</time></trkpt><trkpt lat="45.824409593712204" lon="8.161301182614146"><ele>553.0</ele><time>2026-04-19T13:21:56.94Z</time></trkpt><trkpt lat="45.8243246133738" lon="8.161065128420368"><ele>555.0</ele><time>2026-04-19T13:21:57.94Z</time></trkpt><trkpt lat="45.82423380091894" lon="8.160836302598526"><ele>557.0</ele><time>2026-04-19T13:21:58.94Z</time></trkpt><trkpt lat="45.82413199125261" lon="8.160619144544192"><ele>559.0</ele><time>2026-04-19T13:21:59.94Z</time></trkpt><trkpt lat="45.824021702194685" lon="8.160407809607904"><ele>559.0</ele><time>2026-04-19T13:22:00.94Z</time></trkpt><trkpt lat="45.823912381234514" lon="8.160197032944227"><ele>559.0</ele><time>2026-04-19T13:22:01.94Z</time></trkpt><trkpt lat="45.82380169520926" lon="8.159983187274964"><ele>559.0</ele><time>2026-04-19T13:22:02.94Z</time></trkpt><trkpt lat="45.823698200256025" lon="8.159769410042898"><ele>556.6666666666667</ele><time>2026-04-19T13:22:03.94Z</time></trkpt><trkpt lat="45.823596728710164" lon="8.159548702098885"><ele>554.3333333333334</ele><time>2026-04-19T13:22:04.94Z</time></trkpt><trkpt lat="45.8234997444542" lon="8.159326180066309"><ele>552.0</ele><time>2026-04-19T13:22:05.94Z</time></trkpt><trkpt lat="45.82340698666538" lon="8.15910364837818"><ele>558.6666666666666</ele><time>2026-04-19T13:22:06.94Z</time></trkpt><trkpt lat="45.82331282327022" lon="8.158884110407211"><ele>565.3333333333333</ele><time>2026-04-19T13:22:07.94Z</time></trkpt><trkpt lat="45.82321978710425" lon="8.158666406154357"><ele>572.0</ele><time>2026-04-19T13:22:08.94Z</time></trkpt><trkpt lat="45.823127946298825" lon="8.158449891534998"><ele>572.0</ele><time>2026-04-19T13:22:09.94Z</time></trkpt><trkpt lat="45.82303996102572" lon="8.158235964730249"><ele>572.0</ele><time>2026-04-19T13:22:10.94Z</time></trkpt><trkpt lat="45.82294589759421" lon="8.158024600410426"><ele>572.0</ele><time>2026-04-19T13:22:11.94Z</time></trkpt><trkpt lat="45.8228492333923" lon="8.15781378354389"><ele>568.6666666666666</ele><time>2026-04-19T13:22:12.94Z</time></trkpt><trkpt lat="45.822754688544606" lon="8.157602932716273"><ele>565.3333333333334</ele><time>2026-04-19T13:22:13.94Z</time></trkpt><trkpt lat="45.82266008339873" lon="8.157387676964584"><ele>562.0</ele><time>2026-04-19T13:22:14.94Z</time></trkpt><trkpt lat="45.82256527007103" lon="8.157171972728777"><ele>562.0</ele><time>2026-04-19T13:22:15.94Z</time></trkpt><trkpt lat="45.82247117413779" lon="8.156955597986215"><ele>562.0</ele><time>2026-04-19T13:22:16.94Z</time></trkpt><trkpt lat="45.82238354541893" lon="8.156734754038242"><ele>562.0</ele><time>2026-04-19T13:22:17.94Z</time></trkpt><trkpt lat="45.822308180660826" lon="8.156511627237604"><ele>563.6666666666667</ele><time>2026-04-19T13:22:18.94Z</time></trkpt><trkpt lat="45.82224968021167" lon="8.156289745722837"><ele>565.3333333333334</ele><time>2026-04-19T13:22:19.94Z</time></trkpt><trkpt lat="45.82219870412643" lon="8.156074046132199"><ele>567.0</ele><time>2026-04-19T13:22:20.941Z</time></trkpt><trkpt lat="45.82213898209901" lon="8.155856370134982"><ele>571.6666666666666</ele><time>2026-04-19T13:22:21.941Z</time></trkpt><trkpt lat="45.822055555100555" lon="8.155649810240757"><ele>576.3333333333333</ele><time>2026-04-19T13:22:22.941Z</time></trkpt><trkpt lat="45.821947931605" lon="8.155451330801988"><ele>581.0</ele><time>2026-04-19T13:22:23.941Z</time></trkpt><trkpt lat="45.821827051836266" lon="8.155252525017604"><ele>574.6666666666666</ele><time>2026-04-19T13:22:24.941Z</time></trkpt><trkpt lat="45.82170395500432" lon="8.155056306520247"><ele>568.3333333333334</ele><time>2026-04-19T13:22:25.941Z</time></trkpt><trkpt lat="45.8215797317365" lon="8.154862808806858"><ele>562.0</ele><time>2026-04-19T13:22:26.941Z</time></trkpt><trkpt lat="45.82145151408836" lon="8.154673162492864"><ele>562.0</ele><time>2026-04-19T13:22:27.941Z</time></trkpt><trkpt lat="45.82132058337655" lon="8.154483228879918"><ele>562.0</ele><time>2026-04-19T13:22:28.941Z</time></trkpt><trkpt lat="45.82118604007895" lon="8.15429480694234"><ele>562.0</ele><time>2026-04-19T13:22:29.941Z</time></trkpt><trkpt lat="45.8210437446795" lon="8.154116313213208"><ele>562.3333333333334</ele><time>2026-04-19T13:22:30.941Z</time></trkpt><trkpt lat="45.820898501815364" lon="8.153946648741654"><ele>562.6666666666666</ele><time>2026-04-19T13:22:31.941Z</time></trkpt><trkpt lat="45.82075164258495" lon="8.153782837257332"><ele>563.0</ele><time>2026-04-19T13:22:32.941Z</time></trkpt><trkpt lat="45.8206097067294" lon="8.153625619264028"><ele>563.0</ele><time>2026-04-19T13:22:33.941Z</time></trkpt><trkpt lat="45.820475315856356" lon="8.153460594819414"><ele>563.0</ele><time>2026-04-19T13:22:34.941Z</time></trkpt><trkpt lat="45.82035638997503" lon="8.153279648915227"><ele>563.0</ele><time>2026-04-19T13:22:35.941Z</time></trkpt><trkpt lat="45.820256951597784" lon="8.153074768633797"><ele>561.0</ele><time>2026-04-19T13:22:36.941Z</time></trkpt><trkpt lat="45.82017335305891" lon="8.152844779522198"><ele>559.0</ele><time>2026-04-19T13:22:37.941Z</time></trkpt><trkpt lat="45.8201068098213" lon="8.152602688839119"><ele>557.0</ele><time>2026-04-19T13:22:38.941Z</time></trkpt><trkpt lat="45.820055433267136" lon="8.152349655213554"><ele>557.0</ele><time>2026-04-19T13:22:39.941Z</time></trkpt><trkpt lat="45.82000594699194" lon="8.152089960092471"><ele>557.0</ele><time>2026-04-19T13:22:40.941Z</time></trkpt><trkpt lat="45.81996945285567" lon="8.151826344889662"><ele>557.0</ele><time>2026-04-19T13:22:41.941Z</time></trkpt><trkpt lat="45.81994107466281" lon="8.151555994333739"><ele>559.3333333333333</ele><time>2026-04-19T13:22:42.941Z</time></trkpt><trkpt lat="45.81992180371202" lon="8.151279947376182"><ele>561.6666666666666</ele><time>2026-04-19T13:22:43.941Z</time></trkpt><trkpt lat="45.819908929875766" lon="8.151000134022464"><ele>564.0</ele><time>2026-04-19T13:22:44.941Z</time></trkpt><trkpt lat="45.81990118692498" lon="8.150717539253625"><ele>564.3333333333334</ele><time>2026-04-19T13:22:45.941Z</time></trkpt><trkpt lat="45.81989405341561" lon="8.150439997891233"><ele>564.6666666666667</ele><time>2026-04-19T13:22:46.941Z</time></trkpt><trkpt lat="45.819883422340894" lon="8.150172765843704"><ele>565.0</ele><time>2026-04-19T13:22:47.941Z</time></trkpt><trkpt lat="45.81987167513077" lon="8.149919407573094"><ele>565.3333333333334</ele><time>2026-04-19T13:22:48.941Z</time></trkpt><trkpt lat="45.81986427493019" lon="8.149673422752622"><ele>565.6666666666666</ele><time>2026-04-19T13:22:49.941Z</time></trkpt><trkpt lat="45.819859690044666" lon="8.149435656569496"><ele>566.0</ele><time>2026-04-19T13:22:50.941Z</time></trkpt><trkpt lat="45.819872440819104" lon="8.14919814602093"><ele>564.3333333333333</ele><time>2026-04-19T13:22:51.941Z</time></trkpt><trkpt lat="45.819891431247115" lon="8.148953013261945"><ele>562.6666666666666</ele><time>2026-04-19T13:22:52.941Z</time></trkpt><trkpt lat="45.81992628449922" lon="8.148708784342936"><ele>561.0</ele><time>2026-04-19T13:22:53.941Z</time></trkpt><trkpt lat="45.819965810241186" lon="8.148460805901939"><ele>561.0</ele><time>2026-04-19T13:22:54.941Z</time></trkpt><trkpt lat="45.82000712602854" lon="8.148214128976692"><ele>561.0</ele><time>2026-04-19T13:22:55.941Z</time></trkpt><trkpt lat="45.820052319151195" lon="8.147969621997545"><ele>561.0</ele><time>2026-04-19T13:22:56.941Z</time></trkpt><trkpt lat="45.820102178100306" lon="8.147727881825709"><ele>567.3333333333334</ele><time>2026-04-19T13:22:57.941Z</time></trkpt><trkpt lat="45.82015577366064" lon="8.147494984099012"><ele>573.6666666666667</ele><time>2026-04-19T13:22:58.941Z</time></trkpt><trkpt lat="45.82020739414494" lon="8.147262051343738"><ele>580.0</ele><time>2026-04-19T13:22:59.941Z</time></trkpt><trkpt lat="45.82026218061673" lon="8.147035599432266"><ele>580.0</ele><time>2026-04-19T13:23:00.941Z</time></trkpt><trkpt lat="45.82032852791479" lon="8.146831629291698"><ele>580.0</ele><time>2026-04-19T13:23:01.941Z</time></trkpt><trkpt lat="45.82039400394641" lon="8.14665400373248"><ele>580.0</ele><time>2026-04-19T13:23:02.941Z</time></trkpt><trkpt lat="45.82044542839593" lon="8.146479112955053"><ele>580.0</ele><time>2026-04-19T13:23:03.941Z</time></trkpt><trkpt lat="45.82047823524128" lon="8.14628860103864"><ele>579.25</ele><time>2026-04-19T13:23:04.941Z</time></trkpt><trkpt lat="45.820475786861124" lon="8.146097356655046"><ele>578.5</ele><time>2026-04-19T13:23:05.942Z</time></trkpt><trkpt lat="45.820433045366215" lon="8.145906662884093"><ele>577.75</ele><time>2026-04-19T13:23:06.942Z</time></trkpt><trkpt lat="45.82035812669283" lon="8.145725602156423"><ele>577.0</ele><time>2026-04-19T13:23:07.942Z</time></trkpt><trkpt lat="45.820257826710126" lon="8.145565265891666"><ele>571.3333333333334</ele><time>2026-04-19T13:23:08.942Z</time></trkpt><trkpt lat="45.820138748750814" lon="8.145419892029874"><ele>565.6666666666666</ele><time>2026-04-19T13:23:09.942Z</time></trkpt><trkpt lat="45.820008031859594" lon="8.145291202858814"><ele>560.0</ele><time>2026-04-19T13:23:10.942Z</time></trkpt><trkpt lat="45.81986621758945" lon="8.145175361833376"><ele>560.0</ele><time>2026-04-19T13:23:11.942Z</time></trkpt><trkpt lat="45.81971951546292" lon="8.145064268037961"><ele>560.0</ele><time>2026-04-19T13:23:12.942Z</time></trkpt><trkpt lat="45.819573918551065" lon="8.144943021319397"><ele>560.0</ele><time>2026-04-19T13:23:13.942Z</time></trkpt><trkpt lat="45.81942995525" lon="8.144820700036126"><ele>559.3333333333333</ele><time>2026-04-19T13:23:14.942Z</time></trkpt><trkpt lat="45.81928556029718" lon="8.144698976801578"><ele>558.6666666666666</ele><time>2026-04-19T13:23:15.942Z</time></trkpt><trkpt lat="45.81914402065259" lon="8.144571788188703"><ele>558.0</ele><time>2026-04-19T13:23:16.942Z</time></trkpt><trkpt lat="45.81900842426187" lon="8.144433115069319"><ele>558.0</ele><time>2026-04-19T13:23:17.942Z</time></trkpt><trkpt lat="45.81888432868268" lon="8.144281371115495"><ele>558.0</ele><time>2026-04-19T13:23:18.942Z</time></trkpt><trkpt lat="45.81877359257306" lon="8.144129426477187"><ele>558.0</ele><time>2026-04-19T13:23:19.942Z</time></trkpt><trkpt lat="45.818669790872555" lon="8.143964616087144"><ele>559.5</ele><time>2026-04-19T13:23:20.942Z</time></trkpt><trkpt lat="45.81857307331745" lon="8.143791907230932"><ele>561.0</ele><time>2026-04-19T13:23:21.942Z</time></trkpt><trkpt lat="45.81848917574084" lon="8.143621434120858"><ele>562.5</ele><time>2026-04-19T13:23:22.942Z</time></trkpt><trkpt lat="45.81842092831523" lon="8.143456101863228"><ele>564.0</ele><time>2026-04-19T13:23:23.942Z</time></trkpt><trkpt lat="45.81836733857223" lon="8.143304254086724"><ele>563.2</ele><time>2026-04-19T13:23:24.942Z</time></trkpt><trkpt lat="45.818331179990125" lon="8.143153881079092"><ele>562.4</ele><time>2026-04-19T13:23:25.942Z</time></trkpt><trkpt lat="45.818295488709424" lon="8.14301322549374"><ele>561.6</ele><time>2026-04-19T13:23:26.942Z</time></trkpt><trkpt lat="45.81824248409712" lon="8.14289228268045"><ele>560.8</ele><time>2026-04-19T13:23:27.942Z</time></trkpt><trkpt lat="45.81817462092571" lon="8.142779605724495"><ele>560.0</ele><time>2026-04-19T13:23:28.942Z</time></trkpt><trkpt lat="45.81810922749821" lon="8.14268255040234"><ele>560.0</ele><time>2026-04-19T13:23:29.942Z</time></trkpt><trkpt lat="45.81804074263673" lon="8.142609049178905"><ele>560.0</ele><time>2026-04-19T13:23:30.942Z</time></trkpt><trkpt lat="45.817960238446474" lon="8.14256594597376"><ele>560.0</ele><time>2026-04-19T13:23:31.942Z</time></trkpt><trkpt lat="45.81788314087277" lon="8.142571189363792"><ele>560.0</ele><time>2026-04-19T13:23:32.942Z</time></trkpt><trkpt lat="45.817802930903746" lon="8.14257243405437"><ele>560.0</ele><time>2026-04-19T13:23:33.942Z</time></trkpt><trkpt lat="45.81772317893099" lon="8.142520017906442"><ele>560.0</ele><time>2026-04-19T13:23:34.942Z</time></trkpt><trkpt lat="45.817656993462975" lon="8.142411269493923"><ele>557.25</ele><time>2026-04-19T13:23:35.942Z</time></trkpt><trkpt lat="45.817611815370334" lon="8.142264799703328"><ele>554.5</ele><time>2026-04-19T13:23:36.942Z</time></trkpt><trkpt lat="45.81757166147281" lon="8.14209793470357"><ele>551.75</ele><time>2026-04-19T13:23:37.942Z</time></trkpt><trkpt lat="45.81753104055719" lon="8.14191542538159"><ele>549.0</ele><time>2026-04-19T13:23:38.942Z</time></trkpt><trkpt lat="45.81749699202498" lon="8.1417088140301"><ele>549.6666666666666</ele><time>2026-04-19T13:23:39.94Z</time></trkpt><trkpt lat="45.81747440798363" lon="8.14150046178754"><ele>550.3333333333333</ele><time>2026-04-19T13:23:40.94Z</time></trkpt><trkpt lat="45.81745068669667" lon="8.141286103849785"><ele>551.0</ele><time>2026-04-19T13:23:41.94Z</time></trkpt><trkpt lat="45.81742706022804" lon="8.141057638788784"><ele>551.0</ele><time>2026-04-19T13:23:42.94Z</time></trkpt><trkpt lat="45.817399612811045" lon="8.140817263423372"><ele>551.0</ele><time>2026-04-19T13:23:43.94Z</time></trkpt><trkpt lat="45.81737177116367" lon="8.1405750661058"><ele>551.0</ele><time>2026-04-19T13:23:44.94Z</time></trkpt><trkpt lat="45.817349364389536" lon="8.140338020052857"><ele>550.6666666666666</ele><time>2026-04-19T13:23:45.94Z</time></trkpt><trkpt lat="45.81734382139202" lon="8.140087125863575"><ele>550.3333333333334</ele><time>2026-04-19T13:23:46.94Z</time></trkpt><trkpt lat="45.81736669889812" lon="8.139836457038294"><ele>550.0</ele><time>2026-04-19T13:23:47.94Z</time></trkpt><trkpt lat="45.817409650102626" lon="8.139589305781094"><ele>550.6666666666667</ele><time>2026-04-19T13:23:48.94Z</time></trkpt><trkpt lat="45.81746648477852" lon="8.139345980644011"><ele>551.3333333333334</ele><time>2026-04-19T13:23:49.94Z</time></trkpt><trkpt lat="45.81751828196749" lon="8.139103862783863"><ele>552.0</ele><time>2026-04-19T13:23:50.94Z</time></trkpt><trkpt lat="45.81756583089074" lon="8.138858923062369"><ele>554.0</ele><time>2026-04-19T13:23:51.94Z</time></trkpt><trkpt lat="45.817611596089854" lon="8.138609607981914"><ele>556.0</ele><time>2026-04-19T13:23:52.94Z</time></trkpt><trkpt lat="45.8176601094709" lon="8.138362488335861"><ele>558.0</ele><time>2026-04-19T13:23:53.94Z</time></trkpt><trkpt lat="45.81770525773413" lon="8.138118431029135"><ele>560.3333333333334</ele><time>2026-04-19T13:23:54.94Z</time></trkpt><trkpt lat="45.817732777535646" lon="8.137871699603783"><ele>562.6666666666667</ele><time>2026-04-19T13:23:55.94Z</time></trkpt><trkpt lat="45.81773182109048" lon="8.137621591036"><ele>565.0</ele><time>2026-04-19T13:23:56.941Z</time></trkpt><trkpt lat="45.81770173526027" lon="8.137378682790638"><ele>564.3333333333334</ele><time>2026-04-19T13:23:57.941Z</time></trkpt><trkpt lat="45.81764766990074" lon="8.137145041831612"><ele>563.6666666666666</ele><time>2026-04-19T13:23:58.941Z</time></trkpt><trkpt lat="45.81756739394237" lon="8.136925002943938"><ele>563.0</ele><time>2026-04-19T13:23:59.941Z</time></trkpt><trkpt lat="45.81747783539184" lon="8.136718092270218"><ele>565.6666666666666</ele><time>2026-04-19T13:24:00.941Z</time></trkpt><trkpt lat="45.817385156744" lon="8.136508539856552"><ele>568.3333333333334</ele><time>2026-04-19T13:24:01.941Z</time></trkpt><trkpt lat="45.817292553778145" lon="8.136292806190966"><ele>571.0</ele><time>2026-04-19T13:24:02.941Z</time></trkpt><trkpt lat="45.81719949985443" lon="8.136077541213517"><ele>571.0</ele><time>2026-04-19T13:24:03.941Z</time></trkpt><trkpt lat="45.817110243987685" lon="8.135862056520466"><ele>571.0</ele><time>2026-04-19T13:24:04.941Z</time></trkpt><trkpt lat="45.817017100680246" lon="8.135649032258508"><ele>571.0</ele><time>2026-04-19T13:24:05.941Z</time></trkpt><trkpt lat="45.8169299959647" lon="8.135436277507965"><ele>572.6666666666667</ele><time>2026-04-19T13:24:06.941Z</time></trkpt><trkpt lat="45.8168438232599" lon="8.135240555831823"><ele>574.3333333333334</ele><time>2026-04-19T13:24:07.941Z</time></trkpt><trkpt lat="45.81674295910494" lon="8.135068404500828"><ele>576.0</ele><time>2026-04-19T13:24:08.941Z</time></trkpt><trkpt lat="45.816626098072085" lon="8.13492109383499"><ele>586.0</ele><time>2026-04-19T13:24:09.941Z</time></trkpt><trkpt lat="45.816489474809835" lon="8.134793654875109"><ele>596.0</ele><time>2026-04-19T13:24:10.941Z</time></trkpt><trkpt lat="45.81634713137181" lon="8.13467211745998"><ele>606.0</ele><time>2026-04-19T13:24:11.941Z</time></trkpt><trkpt lat="45.81622424363729" lon="8.134522619387416"><ele>606.0</ele><time>2026-04-19T13:24:12.941Z</time></trkpt><trkpt lat="45.81613132397945" lon="8.134362646168261"><ele>606.0</ele><time>2026-04-19T13:24:13.941Z</time></trkpt><trkpt lat="45.81605749011051" lon="8.134168604731263"><ele>606.0</ele><time>2026-04-19T13:24:14.941Z</time></trkpt><trkpt lat="45.815999055845595" lon="8.133957512549914"><ele>600.6666666666666</ele><time>2026-04-19T13:24:15.941Z</time></trkpt><trkpt lat="45.815941677407395" lon="8.133748459263796"><ele>595.3333333333333</ele><time>2026-04-19T13:24:16.941Z</time></trkpt><trkpt lat="45.81588744563394" lon="8.133532122671253"><ele>590.0</ele><time>2026-04-19T13:24:17.941Z</time></trkpt><trkpt lat="45.81584502123439" lon="8.133305175567815"><ele>594.3333333333333</ele><time>2026-04-19T13:24:18.941Z</time></trkpt><trkpt lat="45.815816439380164" lon="8.13307139495833"><ele>598.6666666666666</ele><time>2026-04-19T13:24:19.941Z</time></trkpt><trkpt lat="45.81579067767867" lon="8.132854189874449"><ele>603.0</ele><time>2026-04-19T13:24:20.941Z</time></trkpt><trkpt lat="45.81574425176724" lon="8.132645237718087"><ele>603.0</ele><time>2026-04-19T13:24:21.941Z</time></trkpt><trkpt lat="45.81566207647576" lon="8.132463622834074"><ele>603.0</ele><time>2026-04-19T13:24:22.941Z</time></trkpt><trkpt lat="45.815556809777654" lon="8.132294092043946"><ele>603.0</ele><time>2026-04-19T13:24:23.941Z</time></trkpt><trkpt lat="45.815462926000095" lon="8.132111868481278"><ele>608.3333333333334</ele><time>2026-04-19T13:24:24.941Z</time></trkpt><trkpt lat="45.81538648071402" lon="8.131908396409882"><ele>613.6666666666667</ele><time>2026-04-19T13:24:25.941Z</time></trkpt><trkpt lat="45.815339984901314" lon="8.13169374139519"><ele>619.0</ele><time>2026-04-19T13:24:26.941Z</time></trkpt><trkpt lat="45.8153263688365" lon="8.13148665347236"><ele>617.25</ele><time>2026-04-19T13:24:27.941Z</time></trkpt><trkpt lat="45.81532438215285" lon="8.131293478163304"><ele>615.5</ele><time>2026-04-19T13:24:28.941Z</time></trkpt><trkpt lat="45.815281369343374" lon="8.131124578553546"><ele>613.75</ele><time>2026-04-19T13:24:29.941Z</time></trkpt><trkpt lat="45.815202185258144" lon="8.13098173333605"><ele>612.0</ele><time>2026-04-19T13:24:30.941Z</time></trkpt><trkpt lat="45.81510470817674" lon="8.130861937608104"><ele>612.0</ele><time>2026-04-19T13:24:31.941Z</time></trkpt><trkpt lat="45.815008006796965" lon="8.130758166383963"><ele>612.0</ele><time>2026-04-19T13:24:32.941Z</time></trkpt><trkpt lat="45.814907148940385" lon="8.130643120361935"><ele>612.0</ele><time>2026-04-19T13:24:33.941Z</time></trkpt><trkpt lat="45.814813286463746" lon="8.130500363129974"><ele>612.0</ele><time>2026-04-19T13:24:34.941Z</time></trkpt><trkpt lat="45.81474139268137" lon="8.130333278572074"><ele>613.0</ele><time>2026-04-19T13:24:35.941Z</time></trkpt><trkpt lat="45.814681211944055" lon="8.130152920739263"><ele>614.0</ele><time>2026-04-19T13:24:36.941Z</time></trkpt><trkpt lat="45.81460489908056" lon="8.1299835331895"><ele>615.0</ele><time>2026-04-19T13:24:37.941Z</time></trkpt><trkpt lat="45.81450175407928" lon="8.12984539885502"><ele>616.0</ele><time>2026-04-19T13:24:38.941Z</time></trkpt><trkpt lat="45.8143818927376" lon="8.129724753346935"><ele>615.0</ele><time>2026-04-19T13:24:39.941Z</time></trkpt><trkpt lat="45.814256544750876" lon="8.129615662297764"><ele>614.0</ele><time>2026-04-19T13:24:40.941Z</time></trkpt><trkpt lat="45.81411425504736" lon="8.129512543397425"><ele>613.0</ele><time>2026-04-19T13:24:41.942Z</time></trkpt><trkpt lat="45.813969628069046" lon="8.129413820752239"><ele>613.0</ele><time>2026-04-19T13:24:42.942Z</time></trkpt><trkpt lat="45.81383189434606" lon="8.129315167021918"><ele>613.0</ele><time>2026-04-19T13:24:43.942Z</time></trkpt><trkpt lat="45.813686895493696" lon="8.129209694798861"><ele>613.0</ele><time>2026-04-19T13:24:44.942Z</time></trkpt><trkpt lat="45.813537955846506" lon="8.129101819651645"><ele>612.3333333333334</ele><time>2026-04-19T13:24:45.942Z</time></trkpt><trkpt lat="45.813382454388574" lon="8.128994990885296"><ele>611.6666666666666</ele><time>2026-04-19T13:24:46.942Z</time></trkpt><trkpt lat="45.81322497668688" lon="8.128882028522542"><ele>611.0</ele><time>2026-04-19T13:24:47.942Z</time></trkpt><trkpt lat="45.81306780935017" lon="8.128763123021278"><ele>611.0</ele><time>2026-04-19T13:24:48.942Z</time></trkpt><trkpt lat="45.81290757798245" lon="8.1286460275024"><ele>611.0</ele><time>2026-04-19T13:24:49.942Z</time></trkpt><trkpt lat="45.81273902773702" lon="8.128531501416168"><ele>611.0</ele><time>2026-04-19T13:24:50.942Z</time></trkpt><trkpt lat="45.81257490349911" lon="8.12841703609057"><ele>613.0</ele><time>2026-04-19T13:24:51.942Z</time></trkpt><trkpt lat="45.81240799039588" lon="8.128308692111249"><ele>615.0</ele><time>2026-04-19T13:24:52.942Z</time></trkpt><trkpt lat="45.81223795564851" lon="8.128202592455578"><ele>617.0</ele><time>2026-04-19T13:24:53.942Z</time></trkpt><trkpt lat="45.812063738556404" lon="8.128100564225933"><ele>617.0</ele><time>2026-04-19T13:24:54.942Z</time></trkpt><trkpt lat="45.81188882500254" lon="8.127994593368046"><ele>617.0</ele><time>2026-04-19T13:24:55.942Z</time></trkpt><trkpt lat="45.81171401872026" lon="8.127884538282364"><ele>617.0</ele><time>2026-04-19T13:24:56.942Z</time></trkpt><trkpt lat="45.81153663014883" lon="8.127777914970157"><ele>613.0</ele><time>2026-04-19T13:24:57.942Z</time></trkpt><trkpt lat="45.81135952885486" lon="8.127668054852663"><ele>609.0</ele><time>2026-04-19T13:24:58.942Z</time></trkpt><trkpt lat="45.811182911050494" lon="8.127558575067424"><ele>605.0</ele><time>2026-04-19T13:24:59.942Z</time></trkpt><trkpt lat="45.811005259731154" lon="8.12744952522602"><ele>603.0</ele><time>2026-04-19T13:25:00.942Z</time></trkpt><trkpt lat="45.81082839086395" lon="8.127340328032448"><ele>601.0</ele><time>2026-04-19T13:25:01.942Z</time></trkpt><trkpt lat="45.81065403234147" lon="8.127227822206226"><ele>599.0</ele><time>2026-04-19T13:25:02.942Z</time></trkpt><trkpt lat="45.81047910184188" lon="8.127119531036069"><ele>599.0</ele><time>2026-04-19T13:25:03.942Z</time></trkpt><trkpt lat="45.81030450408638" lon="8.127015050471476"><ele>599.0</ele><time>2026-04-19T13:25:04.942Z</time></trkpt><trkpt lat="45.81014027246041" lon="8.12691014952821"><ele>599.0</ele><time>2026-04-19T13:25:05.942Z</time></trkpt><trkpt lat="45.80998297134152" lon="8.126803581826533"><ele>600.3333333333333</ele><time>2026-04-19T13:25:06.942Z</time></trkpt><trkpt lat="45.80983134377854" lon="8.126689255753536"><ele>601.6666666666666</ele><time>2026-04-19T13:25:07.942Z</time></trkpt><trkpt lat="45.809685272128526" lon="8.126562990863352"><ele>603.0</ele><time>2026-04-19T13:25:08.942Z</time></trkpt><trkpt lat="45.8095430353364" lon="8.126421670905716"><ele>603.0</ele><time>2026-04-19T13:25:09.942Z</time></trkpt><trkpt lat="45.8094036997185" lon="8.126279850343636"><ele>603.0</ele><time>2026-04-19T13:25:10.942Z</time></trkpt><trkpt lat="45.80926356785982" lon="8.126141768226415"><ele>603.0</ele><time>2026-04-19T13:25:11.942Z</time></trkpt><trkpt lat="45.80912735352757" lon="8.12600197489729"><ele>603.3333333333334</ele><time>2026-04-19T13:25:12.942Z</time></trkpt><trkpt lat="45.808993592102034" lon="8.12586281774799"><ele>603.6666666666667</ele><time>2026-04-19T13:25:13.942Z</time></trkpt><trkpt lat="45.80885892252087" lon="8.125724988700007"><ele>604.0</ele><time>2026-04-19T13:25:14.942Z</time></trkpt><trkpt lat="45.8087277767531" lon="8.12558111413201"><ele>604.0</ele><time>2026-04-19T13:25:15.942Z</time></trkpt><trkpt lat="45.80859569317696" lon="8.125445130002099"><ele>604.0</ele><time>2026-04-19T13:25:16.942Z</time></trkpt><trkpt lat="45.808465949229536" lon="8.125310628931894"><ele>604.0</ele><time>2026-04-19T13:25:17.942Z</time></trkpt><trkpt lat="45.80833670155489" lon="8.125175942207814"><ele>602.3333333333334</ele><time>2026-04-19T13:25:18.942Z</time></trkpt><trkpt lat="45.80820815075666" lon="8.125036535256745"><ele>600.6666666666666</ele><time>2026-04-19T13:25:19.942Z</time></trkpt><trkpt lat="45.808077631964565" lon="8.12490028758038"><ele>599.0</ele><time>2026-04-19T13:25:20.942Z</time></trkpt><trkpt lat="45.80794255999318" lon="8.124763640170626"><ele>599.0</ele><time>2026-04-19T13:25:21.942Z</time></trkpt><trkpt lat="45.807813028604855" lon="8.124625673638823"><ele>599.0</ele><time>2026-04-19T13:25:22.942Z</time></trkpt><trkpt lat="45.80768078656416" lon="8.124493043029535"><ele>599.0</ele><time>2026-04-19T13:25:23.942Z</time></trkpt><trkpt lat="45.807548187281746" lon="8.124363643043141"><ele>598.0</ele><time>2026-04-19T13:25:24.942Z</time></trkpt><trkpt lat="45.8074167292267" lon="8.124234910581608"><ele>597.0</ele><time>2026-04-19T13:25:25.942Z</time></trkpt><trkpt lat="45.807287013810225" lon="8.124105911555304"><ele>596.0</ele><time>2026-04-19T13:25:26.943Z</time></trkpt><trkpt lat="45.80715807858288" lon="8.123978661733188"><ele>597.5</ele><time>2026-04-19T13:25:27.943Z</time></trkpt><trkpt lat="45.80703308816245" lon="8.123860324642187"><ele>599.0</ele><time>2026-04-19T13:25:28.943Z</time></trkpt><trkpt lat="45.80691528646031" lon="8.123747487205012"><ele>600.5</ele><time>2026-04-19T13:25:29.943Z</time></trkpt><trkpt lat="45.80679960441621" lon="8.123630432530245"><ele>602.0</ele><time>2026-04-19T13:25:30.943Z</time></trkpt><trkpt lat="45.80668610151476" lon="8.123510765284465"><ele>602.0</ele><time>2026-04-19T13:25:31.943Z</time></trkpt><trkpt lat="45.80657409910781" lon="8.123390029242971"><ele>602.0</ele><time>2026-04-19T13:25:32.943Z</time></trkpt><trkpt lat="45.806457022384706" lon="8.12326352211641"><ele>602.0</ele><time>2026-04-19T13:25:33.943Z</time></trkpt><trkpt lat="45.806336292964055" lon="8.123134225863607"><ele>602.0</ele><time>2026-04-19T13:25:34.943Z</time></trkpt><trkpt lat="45.80621213990056" lon="8.123006301125198"><ele>602.0</ele><time>2026-04-19T13:25:35.943Z</time></trkpt><trkpt lat="45.8060824415212" lon="8.12287646978665"><ele>602.0</ele><time>2026-04-19T13:25:36.943Z</time></trkpt><trkpt lat="45.80595289812212" lon="8.122745905832229"><ele>602.0</ele><time>2026-04-19T13:25:37.943Z</time></trkpt><trkpt lat="45.80582246060801" lon="8.122606299349926"><ele>602.0</ele><time>2026-04-19T13:25:38.943Z</time></trkpt><trkpt lat="45.80569342443689" lon="8.122463100373542"><ele>602.0</ele><time>2026-04-19T13:25:39.943Z</time></trkpt><trkpt lat="45.80556418132277" lon="8.122315293384855"><ele>602.0</ele><time>2026-04-19T13:25:40.943Z</time></trkpt><trkpt lat="45.80543329249154" lon="8.12217018618504"><ele>602.3333333333333</ele><time>2026-04-19T13:25:41.943Z</time></trkpt><trkpt lat="45.80530102838324" lon="8.122029641623708"><ele>602.6666666666666</ele><time>2026-04-19T13:25:42.943Z</time></trkpt><trkpt lat="45.80516792058705" lon="8.121887575667634"><ele>603.0</ele><time>2026-04-19T13:25:43.943Z</time></trkpt><trkpt lat="45.80503530125341" lon="8.121745247960767"><ele>601.3333333333334</ele><time>2026-04-19T13:25:44.943Z</time></trkpt><trkpt lat="45.804906933972276" lon="8.121601922835378"><ele>599.6666666666667</ele><time>2026-04-19T13:25:45.941Z</time></trkpt><trkpt lat="45.80478274829525" lon="8.121456612126453"><ele>598.0</ele><time>2026-04-19T13:25:46.941Z</time></trkpt><trkpt lat="45.80467123738381" lon="8.121297670243182"><ele>601.3333333333334</ele><time>2026-04-19T13:25:47.941Z</time></trkpt><trkpt lat="45.804567581104685" lon="8.121127871361809"><ele>604.6666666666666</ele><time>2026-04-19T13:25:48.94Z</time></trkpt><trkpt lat="45.804476717294285" lon="8.120938207331125"><ele>608.0</ele><time>2026-04-19T13:25:49.94Z</time></trkpt><trkpt lat="45.80439050679042" lon="8.12074079597923"><ele>611.0</ele><time>2026-04-19T13:25:50.94Z</time></trkpt><trkpt lat="45.804310588295145" lon="8.120546087015828"><ele>614.0</ele><time>2026-04-19T13:25:51.94Z</time></trkpt><trkpt lat="45.80422764484337" lon="8.120353318577356"><ele>617.0</ele><time>2026-04-19T13:25:52.94Z</time></trkpt><trkpt lat="45.80412047110612" lon="8.120173714843455"><ele>617.0</ele><time>2026-04-19T13:25:53.94Z</time></trkpt><trkpt lat="45.803989723594874" lon="8.120027725630683"><ele>617.0</ele><time>2026-04-19T13:25:54.94Z</time></trkpt><trkpt lat="45.80384442368589" lon="8.119923070444605"><ele>617.0</ele><time>2026-04-19T13:25:55.94Z</time></trkpt><trkpt lat="45.80368642875301" lon="8.119873774272484"><ele>620.0</ele><time>2026-04-19T13:25:56.94Z</time></trkpt><trkpt lat="45.803526221101286" lon="8.119851032270724"><ele>623.0</ele><time>2026-04-19T13:25:57.94Z</time></trkpt><trkpt lat="45.803364243857054" lon="8.119858824119273"><ele>626.0</ele><time>2026-04-19T13:25:58.94Z</time></trkpt><trkpt lat="45.80319859756417" lon="8.119872123860828"><ele>626.0</ele><time>2026-04-19T13:25:59.94Z</time></trkpt><trkpt lat="45.80303410533227" lon="8.11987233291634"><ele>626.0</ele><time>2026-04-19T13:26:00.94Z</time></trkpt><trkpt lat="45.802872977228766" lon="8.119850788961477"><ele>626.0</ele><time>2026-04-19T13:26:01.94Z</time></trkpt><trkpt lat="45.802710260381545" lon="8.119803700987651"><ele>621.6666666666666</ele><time>2026-04-19T13:26:02.94Z</time></trkpt><trkpt lat="45.80255206468815" lon="8.11973579090237"><ele>617.3333333333334</ele><time>2026-04-19T13:26:03.94Z</time></trkpt><trkpt lat="45.80240388532025" lon="8.119635588799"><ele>613.0</ele><time>2026-04-19T13:26:04.94Z</time></trkpt><trkpt lat="45.80226823363081" lon="8.119513140814867"><ele>613.0</ele><time>2026-04-19T13:26:05.94Z</time></trkpt><trkpt lat="45.80214729359882" lon="8.119376384660848"><ele>613.0</ele><time>2026-04-19T13:26:06.94Z</time></trkpt><trkpt lat="45.802030005220495" lon="8.119232097824028"><ele>613.0</ele><time>2026-04-19T13:26:07.94Z</time></trkpt><trkpt lat="45.801920774325836" lon="8.119094813225662"><ele>614.75</ele><time>2026-04-19T13:26:08.94Z</time></trkpt><trkpt lat="45.8018072010556" lon="8.118976430139162"><ele>616.5</ele><time>2026-04-19T13:26:09.94Z</time></trkpt><trkpt lat="45.801705080755596" lon="8.118867548835496"><ele>618.25</ele><time>2026-04-19T13:26:10.94Z</time></trkpt><trkpt lat="45.8016095129926" lon="8.118759054031592"><ele>620.0</ele><time>2026-04-19T13:26:11.94Z</time></trkpt><trkpt lat="45.80151409765588" lon="8.118682292856725"><ele>620.0</ele><time>2026-04-19T13:26:12.94Z</time></trkpt><trkpt lat="45.80140631575656" lon="8.118650472791614"><ele>620.0</ele><time>2026-04-19T13:26:13.94Z</time></trkpt><trkpt lat="45.801287663592774" lon="8.118634946608204"><ele>620.0</ele><time>2026-04-19T13:26:14.94Z</time></trkpt><trkpt lat="45.80115824464065" lon="8.118605969788604"><ele>620.0</ele><time>2026-04-19T13:26:15.94Z</time></trkpt><trkpt lat="45.801026802448256" lon="8.118570146723764"><ele>618.5</ele><time>2026-04-19T13:26:16.94Z</time></trkpt><trkpt lat="45.80088969624971" lon="8.118528749858209"><ele>617.0</ele><time>2026-04-19T13:26:17.94Z</time></trkpt><trkpt lat="45.800744145970086" lon="8.118492490758161"><ele>615.5</ele><time>2026-04-19T13:26:18.94Z</time></trkpt><trkpt lat="45.80059607155392" lon="8.118462020733316"><ele>614.0</ele><time>2026-04-19T13:26:19.94Z</time></trkpt><trkpt lat="45.80044874248898" lon="8.118431927769148"><ele>614.0</ele><time>2026-04-19T13:26:20.94Z</time></trkpt><trkpt lat="45.80029912767495" lon="8.11839714455344"><ele>614.0</ele><time>2026-04-19T13:26:21.94Z</time></trkpt><trkpt lat="45.80014839455486" lon="8.118356166601416"><ele>614.0</ele><time>2026-04-19T13:26:22.94Z</time></trkpt><trkpt lat="45.799998870457436" lon="8.118297927346704"><ele>617.0</ele><time>2026-04-19T13:26:23.94Z</time></trkpt><trkpt lat="45.799851330607815" lon="8.118231204785163"><ele>620.0</ele><time>2026-04-19T13:26:24.94Z</time></trkpt><trkpt lat="45.799707216370365" lon="8.118162096989678"><ele>623.0</ele><time>2026-04-19T13:26:25.94Z</time></trkpt><trkpt lat="45.79956573838324" lon="8.118081071323434"><ele>623.0</ele><time>2026-04-19T13:26:26.94Z</time></trkpt><trkpt lat="45.799426206605084" lon="8.117998875336037"><ele>623.0</ele><time>2026-04-19T13:26:27.94Z</time></trkpt><trkpt lat="45.79929157759795" lon="8.117908860100739"><ele>623.0</ele><time>2026-04-19T13:26:28.94Z</time></trkpt><trkpt lat="45.79916759856382" lon="8.11780472797612"><ele>623.0</ele><time>2026-04-19T13:26:29.94Z</time></trkpt><trkpt lat="45.799052486422525" lon="8.117677678501739"><ele>622.5</ele><time>2026-04-19T13:26:30.94Z</time></trkpt><trkpt lat="45.7989419304629" lon="8.117539088069954"><ele>622.0</ele><time>2026-04-19T13:26:31.94Z</time></trkpt><trkpt lat="45.79883458568131" lon="8.11739437834064"><ele>621.5</ele><time>2026-04-19T13:26:32.941Z</time></trkpt><trkpt lat="45.79873302891454" lon="8.117249491973551"><ele>621.0</ele><time>2026-04-19T13:26:33.941Z</time></trkpt><trkpt lat="45.79863628388237" lon="8.11710715820534"><ele>621.0</ele><time>2026-04-19T13:26:34.941Z</time></trkpt><trkpt lat="45.798551577878094" lon="8.11696599209808"><ele>621.0</ele><time>2026-04-19T13:26:35.941Z</time></trkpt><trkpt lat="45.798473012992446" lon="8.116826976681894"><ele>621.0</ele><time>2026-04-19T13:26:36.941Z</time></trkpt><trkpt lat="45.7983973709995" lon="8.116694657035755"><ele>621.0</ele><time>2026-04-19T13:26:37.941Z</time></trkpt><trkpt lat="45.798317421989395" lon="8.116567514431075"><ele>620.25</ele><time>2026-04-19T13:26:38.941Z</time></trkpt><trkpt lat="45.79823604970733" lon="8.116436349775983"><ele>619.5</ele><time>2026-04-19T13:26:39.941Z</time></trkpt><trkpt lat="45.79814474716063" lon="8.11631462997846"><ele>618.75</ele><time>2026-04-19T13:26:40.941Z</time></trkpt><trkpt lat="45.798031707986375" lon="8.116191026533482"><ele>618.0</ele><time>2026-04-19T13:26:41.941Z</time></trkpt><trkpt lat="45.79791468270595" lon="8.116083755049479"><ele>618.0</ele><time>2026-04-19T13:26:42.941Z</time></trkpt><trkpt lat="45.79778029999699" lon="8.11598343524279"><ele>618.0</ele><time>2026-04-19T13:26:43.941Z</time></trkpt><trkpt lat="45.797655171584914" lon="8.115889249955071"><ele>618.0</ele><time>2026-04-19T13:26:44.941Z</time></trkpt><trkpt lat="45.7975279510822" lon="8.115799158533248"><ele>618.0</ele><time>2026-04-19T13:26:45.941Z</time></trkpt><trkpt lat="45.79741038543179" lon="8.115714892192072"><ele>618.0</ele><time>2026-04-19T13:26:46.941Z</time></trkpt><trkpt lat="45.79731607939005" lon="8.115633205658822"><ele>618.0</ele><time>2026-04-19T13:26:47.941Z</time></trkpt><trkpt lat="45.79718326172822" lon="8.115554686623378"><ele>618.0</ele><time>2026-04-19T13:26:48.941Z</time></trkpt><trkpt lat="45.7970413926614" lon="8.115475407215541"><ele>618.0</ele><time>2026-04-19T13:26:49.941Z</time></trkpt><trkpt lat="45.79689685698459" lon="8.115392677958825"><ele>615.0</ele><time>2026-04-19T13:26:50.941Z</time></trkpt><trkpt lat="45.79674912277937" lon="8.115310883427657"><ele>612.0</ele><time>2026-04-19T13:26:51.941Z</time></trkpt><trkpt lat="45.79659956898686" lon="8.115228278874639"><ele>609.0</ele><time>2026-04-19T13:26:52.941Z</time></trkpt><trkpt lat="45.796447515623846" lon="8.11514523303555"><ele>609.0</ele><time>2026-04-19T13:26:53.941Z</time></trkpt><trkpt lat="45.796295430916985" lon="8.115059243038381"><ele>609.0</ele><time>2026-04-19T13:26:54.941Z</time></trkpt><trkpt lat="45.796142667593415" lon="8.11497191138935"><ele>609.0</ele><time>2026-04-19T13:26:55.941Z</time></trkpt><trkpt lat="45.79599078711328" lon="8.11489105558014"><ele>610.3333333333334</ele><time>2026-04-19T13:26:56.941Z</time></trkpt><trkpt lat="45.79584486436412" lon="8.114813939475995"><ele>611.6666666666667</ele><time>2026-04-19T13:26:57.941Z</time></trkpt><trkpt lat="45.7957029666959" lon="8.114734686197448"><ele>613.0</ele><time>2026-04-19T13:26:58.941Z</time></trkpt><trkpt lat="45.795566710963186" lon="8.114657029617408"><ele>613.0</ele><time>2026-04-19T13:26:59.941Z</time></trkpt><trkpt lat="45.79543336401349" lon="8.11458226034691"><ele>613.0</ele><time>2026-04-19T13:27:00.941Z</time></trkpt><trkpt lat="45.79530339225649" lon="8.114508471697226"><ele>613.0</ele><time>2026-04-19T13:27:01.941Z</time></trkpt><trkpt lat="45.79517553633244" lon="8.114437932700733"><ele>613.0</ele><time>2026-04-19T13:27:02.941Z</time></trkpt><trkpt lat="45.79504997586443" lon="8.114371169885468"><ele>613.25</ele><time>2026-04-19T13:27:03.941Z</time></trkpt><trkpt lat="45.79492843514136" lon="8.114303829416206"><ele>613.5</ele><time>2026-04-19T13:27:04.941Z</time></trkpt><trkpt lat="45.79480990966229" lon="8.114236312444072"><ele>613.75</ele><time>2026-04-19T13:27:05.941Z</time></trkpt><trkpt lat="45.794692694836804" lon="8.114170420809312"><ele>614.0</ele><time>2026-04-19T13:27:06.941Z</time></trkpt><trkpt lat="45.79457908750071" lon="8.114106929234072"><ele>615.5</ele><time>2026-04-19T13:27:07.941Z</time></trkpt><trkpt lat="45.794469967808666" lon="8.114048700037857"><ele>617.0</ele><time>2026-04-19T13:27:08.941Z</time></trkpt><trkpt lat="45.79436321276322" lon="8.113992399451412"><ele>618.5</ele><time>2026-04-19T13:27:09.941Z</time></trkpt><trkpt lat="45.79426002289506" lon="8.113937922044162"><ele>620.0</ele><time>2026-04-19T13:27:10.941Z</time></trkpt><trkpt lat="45.79415068156562" lon="8.113879517272629"><ele>620.5</ele><time>2026-04-19T13:27:11.941Z</time></trkpt><trkpt lat="45.79403871716868" lon="8.113818239966083"><ele>621.0</ele><time>2026-04-19T13:27:12.941Z</time></trkpt><trkpt lat="45.793922695302584" lon="8.113752753951037"><ele>621.5</ele><time>2026-04-19T13:27:13.941Z</time></trkpt><trkpt lat="45.79380320953217" lon="8.113681262324578"><ele>622.0</ele><time>2026-04-19T13:27:14.941Z</time></trkpt><trkpt lat="45.7936783506554" lon="8.113611690047744"><ele>622.0</ele><time>2026-04-19T13:27:15.941Z</time></trkpt><trkpt lat="45.793550461703994" lon="8.113544862622833"><ele>622.0</ele><time>2026-04-19T13:27:16.941Z</time></trkpt><trkpt lat="45.793421468412475" lon="8.113475405432956"><ele>622.0</ele><time>2026-04-19T13:27:17.942Z</time></trkpt><trkpt lat="45.79329163900931" lon="8.113403217233794"><ele>622.0</ele><time>2026-04-19T13:27:18.942Z</time></trkpt><trkpt lat="45.793161849421715" lon="8.11333329747167"><ele>621.75</ele><time>2026-04-19T13:27:19.942Z</time></trkpt><trkpt lat="45.793031609830294" lon="8.11326301966403"><ele>621.5</ele><time>2026-04-19T13:27:20.942Z</time></trkpt><trkpt lat="45.79290251798745" lon="8.113189423430102"><ele>621.25</ele><time>2026-04-19T13:27:21.942Z</time></trkpt><trkpt lat="45.79277638847228" lon="8.113117184544604"><ele>621.0</ele><time>2026-04-19T13:27:22.942Z</time></trkpt><trkpt lat="45.79265078233404" lon="8.113046653317015"><ele>621.75</ele><time>2026-04-19T13:27:23.942Z</time></trkpt><trkpt lat="45.79252760554565" lon="8.112978244818901"><ele>622.5</ele><time>2026-04-19T13:27:24.942Z</time></trkpt><trkpt lat="45.792404726002495" lon="8.112908999850616"><ele>623.25</ele><time>2026-04-19T13:27:25.942Z</time></trkpt><trkpt lat="45.792281621597276" lon="8.11283968971765"><ele>624.0</ele><time>2026-04-19T13:27:26.942Z</time></trkpt><trkpt lat="45.792158497103436" lon="8.112770682287188"><ele>624.0</ele><time>2026-04-19T13:27:27.942Z</time></trkpt><trkpt lat="45.79203476397541" lon="8.112702464249663"><ele>624.0</ele><time>2026-04-19T13:27:28.942Z</time></trkpt><trkpt lat="45.79190970059961" lon="8.112631053576827"><ele>624.0</ele><time>2026-04-19T13:27:29.942Z</time></trkpt><trkpt lat="45.79178544599814" lon="8.112556012037519"><ele>624.0</ele><time>2026-04-19T13:27:30.942Z</time></trkpt><trkpt lat="45.791667318785954" lon="8.112471223620373"><ele>624.5</ele><time>2026-04-19T13:27:31.942Z</time></trkpt><trkpt lat="45.79155096819493" lon="8.11237799758751"><ele>625.0</ele><time>2026-04-19T13:27:32.942Z</time></trkpt><trkpt lat="45.79143650105506" lon="8.112284507382686"><ele>625.5</ele><time>2026-04-19T13:27:33.942Z</time></trkpt><trkpt lat="45.791322859028696" lon="8.112191553457144"><ele>626.0</ele><time>2026-04-19T13:27:34.942Z</time></trkpt><trkpt lat="45.79120589378755" lon="8.11210553378272"><ele>626.0</ele><time>2026-04-19T13:27:35.942Z</time></trkpt><trkpt lat="45.79109121905803" lon="8.112018619343944"><ele>626.0</ele><time>2026-04-19T13:27:36.942Z</time></trkpt><trkpt lat="45.79097535256303" lon="8.111934763516821"><ele>626.0</ele><time>2026-04-19T13:27:37.942Z</time></trkpt><trkpt lat="45.7908620578941" lon="8.111846165430709"><ele>626.0</ele><time>2026-04-19T13:27:38.942Z</time></trkpt><trkpt lat="45.79074776471826" lon="8.11175659219233"><ele>625.5</ele><time>2026-04-19T13:27:39.942Z</time></trkpt><trkpt lat="45.79063131690254" lon="8.11166727639175"><ele>625.0</ele><time>2026-04-19T13:27:40.942Z</time></trkpt><trkpt lat="45.79051427429075" lon="8.111578269410247"><ele>624.5</ele><time>2026-04-19T13:27:41.942Z</time></trkpt><trkpt lat="45.79039679984283" lon="8.111488612721063"><ele>624.0</ele><time>2026-04-19T13:27:42.942Z</time></trkpt><trkpt lat="45.79027791468328" lon="8.11139659964655"><ele>623.0</ele><time>2026-04-19T13:27:43.942Z</time></trkpt><trkpt lat="45.79015764902036" lon="8.111304354479852"><ele>622.0</ele><time>2026-04-19T13:27:44.942Z</time></trkpt><trkpt lat="45.79003811983527" lon="8.111208283375774"><ele>621.0</ele><time>2026-04-19T13:27:45.942Z</time></trkpt><trkpt lat="45.789916520510864" lon="8.111113229819125"><ele>620.0</ele><time>2026-04-19T13:27:46.942Z</time></trkpt><trkpt lat="45.78979226672415" lon="8.111018600551313"><ele>620.0</ele><time>2026-04-19T13:27:47.942Z</time></trkpt><trkpt lat="45.78966779621136" lon="8.110923837317879"><ele>620.0</ele><time>2026-04-19T13:27:48.942Z</time></trkpt><trkpt lat="45.78954429870097" lon="8.11082694356821"><ele>620.0</ele><time>2026-04-19T13:27:49.942Z</time></trkpt><trkpt lat="45.78942224832544" lon="8.110728567533457"><ele>620.0</ele><time>2026-04-19T13:27:50.942Z</time></trkpt><trkpt lat="45.789298563066055" lon="8.110629850637656"><ele>622.25</ele><time>2026-04-19T13:27:51.94Z</time></trkpt><trkpt lat="45.78917829887413" lon="8.110531284711987"><ele>624.5</ele><time>2026-04-19T13:27:52.94Z</time></trkpt><trkpt lat="45.7890577068583" lon="8.110435452807305"><ele>626.75</ele><time>2026-04-19T13:27:53.94Z</time></trkpt><trkpt lat="45.78893480332079" lon="8.110342274030373"><ele>629.0</ele><time>2026-04-19T13:27:54.941Z</time></trkpt><trkpt lat="45.788811648599285" lon="8.110251382156008"><ele>629.0</ele><time>2026-04-19T13:27:55.941Z</time></trkpt><trkpt lat="45.78868810224842" lon="8.110159815698836"><ele>629.0</ele><time>2026-04-19T13:27:56.941Z</time></trkpt><trkpt lat="45.788566043972004" lon="8.110069876285229"><ele>629.0</ele><time>2026-04-19T13:27:57.94Z</time></trkpt><trkpt lat="45.78844104166516" lon="8.109989062412271"><ele>629.0</ele><time>2026-04-19T13:27:58.94Z</time></trkpt><trkpt lat="45.788316523534455" lon="8.109918178425458"><ele>631.75</ele><time>2026-04-19T13:27:59.94Z</time></trkpt><trkpt lat="45.78819174744035" lon="8.109856257724557"><ele>634.5</ele><time>2026-04-19T13:28:00.94Z</time></trkpt><trkpt lat="45.78806935207553" lon="8.109799326378116"><ele>637.25</ele><time>2026-04-19T13:28:01.941Z</time></trkpt><trkpt lat="45.78795261069186" lon="8.109744719364837"><ele>640.0</ele><time>2026-04-19T13:28:02.941Z</time></trkpt><trkpt lat="45.7878425848076" lon="8.109689584171123"><ele>640.0</ele><time>2026-04-19T13:28:03.94Z</time></trkpt><trkpt lat="45.78774198755564" lon="8.109640928436752"><ele>640.0</ele><time>2026-04-19T13:28:04.94Z</time></trkpt><trkpt lat="45.787637947472824" lon="8.109628441414825"><ele>640.0</ele><time>2026-04-19T13:28:05.94Z</time></trkpt><trkpt lat="45.78753866920115" lon="8.109609956080014"><ele>640.0</ele><time>2026-04-19T13:28:06.94Z</time></trkpt><trkpt lat="45.78744407488384" lon="8.109580089089174"><ele>640.0</ele><time>2026-04-19T13:28:07.94Z</time></trkpt><trkpt lat="45.787358051651594" lon="8.109515044085347"><ele>639.2</ele><time>2026-04-19T13:28:08.94Z</time></trkpt><trkpt lat="45.78727659891179" lon="8.109436371824623"><ele>638.4</ele><time>2026-04-19T13:28:09.941Z</time></trkpt><trkpt lat="45.7871881680077" lon="8.109379141523538"><ele>637.6</ele><time>2026-04-19T13:28:10.941Z</time></trkpt><trkpt lat="45.78710025069457" lon="8.109310554817307"><ele>636.8</ele><time>2026-04-19T13:28:11.941Z</time></trkpt><trkpt lat="45.78701194997048" lon="8.10923150945016"><ele>636.0</ele><time>2026-04-19T13:28:12.941Z</time></trkpt><trkpt lat="45.78692229537514" lon="8.109149086117737"><ele>639.6</ele><time>2026-04-19T13:28:13.941Z</time></trkpt><trkpt lat="45.78683315677986" lon="8.109063023193729"><ele>643.2</ele><time>2026-04-19T13:28:14.941Z</time></trkpt><trkpt lat="45.78673698410046" lon="8.108978956606453"><ele>646.8000000000001</ele><time>2026-04-19T13:28:15.941Z</time></trkpt><trkpt lat="45.78664417915764" lon="8.108882443655128"><ele>650.4000000000001</ele><time>2026-04-19T13:28:16.941Z</time></trkpt><trkpt lat="45.78655018591041" lon="8.108791136429359"><ele>654.0</ele><time>2026-04-19T13:28:17.941Z</time></trkpt><trkpt lat="45.786446482417674" lon="8.108722376936289"><ele>654.0</ele><time>2026-04-19T13:28:18.941Z</time></trkpt><trkpt lat="45.78633503391885" lon="8.108669322080125"><ele>654.0</ele><time>2026-04-19T13:28:19.941Z</time></trkpt><trkpt lat="45.78621928738133" lon="8.108627986552355"><ele>654.0</ele><time>2026-04-19T13:28:20.941Z</time></trkpt><trkpt lat="45.78610340928655" lon="8.108582707936343"><ele>654.0</ele><time>2026-04-19T13:28:21.941Z</time></trkpt><trkpt lat="45.7859863357184" lon="8.108530690880656"><ele>648.75</ele><time>2026-04-19T13:28:22.941Z</time></trkpt><trkpt lat="45.785870369974575" lon="8.10847254672369"><ele>643.5</ele><time>2026-04-19T13:28:23.941Z</time></trkpt><trkpt lat="45.785753915318736" lon="8.108409677402005"><ele>638.25</ele><time>2026-04-19T13:28:24.941Z</time></trkpt><trkpt lat="45.785635897893876" lon="8.108354648587966"><ele>633.0</ele><time>2026-04-19T13:28:25.941Z</time></trkpt><trkpt lat="45.78551476710341" lon="8.108291733241215"><ele>634.5</ele><time>2026-04-19T13:28:26.941Z</time></trkpt><trkpt lat="45.78539047859699" lon="8.108221539610971"><ele>636.0</ele><time>2026-04-19T13:28:27.941Z</time></trkpt><trkpt lat="45.785263018406724" lon="8.108146644469498"><ele>637.5</ele><time>2026-04-19T13:28:28.941Z</time></trkpt><trkpt lat="45.7851350475328" lon="8.108062840480736"><ele>639.0</ele><time>2026-04-19T13:28:29.941Z</time></trkpt><trkpt lat="45.78500709989014" lon="8.107982785022138"><ele>639.0</ele><time>2026-04-19T13:28:30.941Z</time></trkpt><trkpt lat="45.784887332845" lon="8.10790090630956"><ele>639.0</ele><time>2026-04-19T13:28:31.941Z</time></trkpt><trkpt lat="45.784770427049644" lon="8.107815809960055"><ele>639.0</ele><time>2026-04-19T13:28:32.941Z</time></trkpt><trkpt lat="45.784655417915225" lon="8.107737130296936"><ele>639.0</ele><time>2026-04-19T13:28:33.941Z</time></trkpt><trkpt lat="45.784544049288506" lon="8.107652713590731"><ele>639.0</ele><time>2026-04-19T13:28:34.941Z</time></trkpt><trkpt lat="45.784432677342004" lon="8.10756986013079"><ele>639.0</ele><time>2026-04-19T13:28:35.941Z</time></trkpt><trkpt lat="45.78431666702582" lon="8.107488137925895"><ele>639.0</ele><time>2026-04-19T13:28:36.941Z</time></trkpt><trkpt lat="45.784197580698276" lon="8.107404220744042"><ele>639.0</ele><time>2026-04-19T13:28:37.941Z</time></trkpt><trkpt lat="45.78407829922775" lon="8.10731652806371"><ele>640.25</ele><time>2026-04-19T13:28:38.941Z</time></trkpt><trkpt lat="45.783960631584876" lon="8.107220704781064"><ele>641.5</ele><time>2026-04-19T13:28:39.941Z</time></trkpt><trkpt lat="45.783852390145555" lon="8.107108288078852"><ele>642.75</ele><time>2026-04-19T13:28:40.941Z</time></trkpt><trkpt lat="45.78374452102268" lon="8.10699424368967"><ele>644.0</ele><time>2026-04-19T13:28:41.941Z</time></trkpt><trkpt lat="45.783638208943785" lon="8.106875344703752"><ele>644.0</ele><time>2026-04-19T13:28:42.941Z</time></trkpt><trkpt lat="45.783535769757066" lon="8.106750853332928"><ele>644.0</ele><time>2026-04-19T13:28:43.941Z</time></trkpt><trkpt lat="45.78343651158709" lon="8.10662049962702"><ele>644.0</ele><time>2026-04-19T13:28:44.941Z</time></trkpt><trkpt lat="45.78334363633106" lon="8.106482792834468"><ele>644.0</ele><time>2026-04-19T13:28:45.941Z</time></trkpt><trkpt lat="45.78324838991898" lon="8.106350787027694"><ele>646.25</ele><time>2026-04-19T13:28:46.941Z</time></trkpt><trkpt lat="45.78314601255052" lon="8.106221680428847"><ele>648.5</ele><time>2026-04-19T13:28:47.941Z</time></trkpt><trkpt lat="45.78303582103646" lon="8.106100434477908"><ele>650.75</ele><time>2026-04-19T13:28:48.941Z</time></trkpt><trkpt lat="45.7829212735114" lon="8.105983583789898"><ele>653.0</ele><time>2026-04-19T13:28:49.941Z</time></trkpt><trkpt lat="45.78280521165945" lon="8.105868932219623"><ele>653.0</ele><time>2026-04-19T13:28:50.941Z</time></trkpt><trkpt lat="45.78268381500626" lon="8.105761090663671"><ele>653.0</ele><time>2026-04-19T13:28:51.941Z</time></trkpt><trkpt lat="45.78255709013874" lon="8.105662876553618"><ele>653.0</ele><time>2026-04-19T13:28:52.941Z</time></trkpt><trkpt lat="45.78242633841836" lon="8.105574486226688"><ele>653.0</ele><time>2026-04-19T13:28:53.941Z</time></trkpt><trkpt lat="45.78228895936391" lon="8.105505376930406"><ele>651.25</ele><time>2026-04-19T13:28:54.941Z</time></trkpt><trkpt lat="45.7821463221401" lon="8.1054420308493"><ele>649.5</ele><time>2026-04-19T13:28:55.942Z</time></trkpt><trkpt lat="45.78200569689712" lon="8.105376736109333"><ele>647.75</ele><time>2026-04-19T13:28:56.942Z</time></trkpt><trkpt lat="45.78186834947192" lon="8.10529502120785"><ele>646.0</ele><time>2026-04-19T13:28:57.942Z</time></trkpt><trkpt lat="45.78173252774251" lon="8.105205522316469"><ele>646.0</ele><time>2026-04-19T13:28:58.942Z</time></trkpt><trkpt lat="45.78160490487008" lon="8.105098079098216"><ele>646.0</ele><time>2026-04-19T13:28:59.942Z</time></trkpt><trkpt lat="45.78148334865825" lon="8.104972696145316"><ele>646.0</ele><time>2026-04-19T13:29:00.942Z</time></trkpt><trkpt lat="45.781366787407066" lon="8.104835714626068"><ele>646.0</ele><time>2026-04-19T13:29:01.942Z</time></trkpt><trkpt lat="45.78125685140468" lon="8.104688277513938"><ele>645.5</ele><time>2026-04-19T13:29:02.942Z</time></trkpt><trkpt lat="45.78115623974731" lon="8.104528312460822"><ele>645.0</ele><time>2026-04-19T13:29:03.942Z</time></trkpt><trkpt lat="45.78107099942003" lon="8.10435260420482"><ele>644.5</ele><time>2026-04-19T13:29:04.942Z</time></trkpt><trkpt lat="45.780998636791814" lon="8.10417346319534"><ele>644.0</ele><time>2026-04-19T13:29:05.942Z</time></trkpt><trkpt lat="45.780926943029385" lon="8.103986589823293"><ele>647.75</ele><time>2026-04-19T13:29:06.942Z</time></trkpt><trkpt lat="45.78085193220103" lon="8.103814324350777"><ele>651.5</ele><time>2026-04-19T13:29:07.942Z</time></trkpt><trkpt lat="45.78075857439708" lon="8.103661371654328"><ele>655.25</ele><time>2026-04-19T13:29:08.942Z</time></trkpt><trkpt lat="45.78065660566555" lon="8.103516046798354"><ele>659.0</ele><time>2026-04-19T13:29:09.942Z</time></trkpt><trkpt lat="45.78054393123978" lon="8.103393718097182"><ele>659.0</ele><time>2026-04-19T13:29:10.942Z</time></trkpt><trkpt lat="45.780435939447685" lon="8.10327743490275"><ele>659.0</ele><time>2026-04-19T13:29:11.942Z</time></trkpt><trkpt lat="45.7803360847806" lon="8.103160801075061"><ele>659.0</ele><time>2026-04-19T13:29:12.942Z</time></trkpt><trkpt lat="45.78023371592212" lon="8.103041757602444"><ele>659.0</ele><time>2026-04-19T13:29:13.942Z</time></trkpt><trkpt lat="45.78012776148851" lon="8.102917378513638"><ele>658.0</ele><time>2026-04-19T13:29:14.942Z</time></trkpt><trkpt lat="45.78002397517421" lon="8.102791435805168"><ele>657.0</ele><time>2026-04-19T13:29:15.942Z</time></trkpt><trkpt lat="45.7799193773435" lon="8.102663559592331"><ele>656.0</ele><time>2026-04-19T13:29:16.942Z</time></trkpt><trkpt lat="45.779809815541306" lon="8.102537400447291"><ele>655.0</ele><time>2026-04-19T13:29:17.942Z</time></trkpt><trkpt lat="45.779698653984305" lon="8.102404986394124"><ele>654.0</ele><time>2026-04-19T13:29:18.942Z</time></trkpt><trkpt lat="45.77958786080758" lon="8.102272053177385"><ele>653.0</ele><time>2026-04-19T13:29:19.942Z</time></trkpt><trkpt lat="45.779481009113766" lon="8.102135671339678"><ele>652.0</ele><time>2026-04-19T13:29:20.942Z</time></trkpt><trkpt lat="45.77937853700877" lon="8.101993095055551"><ele>651.0</ele><time>2026-04-19T13:29:21.942Z</time></trkpt><trkpt lat="45.77928521803345" lon="8.101841534197012"><ele>651.0</ele><time>2026-04-19T13:29:22.942Z</time></trkpt><trkpt lat="45.77919060136108" lon="8.101690435354207"><ele>651.0</ele><time>2026-04-19T13:29:23.942Z</time></trkpt><trkpt lat="45.77909664507942" lon="8.101539940856444"><ele>651.0</ele><time>2026-04-19T13:29:24.942Z</time></trkpt><trkpt lat="45.778999378531395" lon="8.101391617204134"><ele>651.0</ele><time>2026-04-19T13:29:25.942Z</time></trkpt><trkpt lat="45.778892569064936" lon="8.101253006539238"><ele>650.75</ele><time>2026-04-19T13:29:26.942Z</time></trkpt><trkpt lat="45.77878481182195" lon="8.101125168622044"><ele>650.5</ele><time>2026-04-19T13:29:27.942Z</time></trkpt><trkpt lat="45.77867612384596" lon="8.100997671564295"><ele>650.25</ele><time>2026-04-19T13:29:28.942Z</time></trkpt><trkpt lat="45.77856906810449" lon="8.10087500264071"><ele>650.0</ele><time>2026-04-19T13:29:29.942Z</time></trkpt><trkpt lat="45.77846062262549" lon="8.100753966723534"><ele>653.75</ele><time>2026-04-19T13:29:30.942Z</time></trkpt><trkpt lat="45.77835194621925" lon="8.100633854654374"><ele>657.5</ele><time>2026-04-19T13:29:31.942Z</time></trkpt><trkpt lat="45.778243958821975" lon="8.100512297563457"><ele>661.25</ele><time>2026-04-19T13:29:32.942Z</time></trkpt><trkpt lat="45.77813367399204" lon="8.10038947639405"><ele>665.0</ele><time>2026-04-19T13:29:33.942Z</time></trkpt><trkpt lat="45.77802151949861" lon="8.10026572538826"><ele>665.0</ele><time>2026-04-19T13:29:34.942Z</time></trkpt><trkpt lat="45.77791174700619" lon="8.100143547165919"><ele>665.0</ele><time>2026-04-19T13:29:35.942Z</time></trkpt><trkpt lat="45.77780607648049" lon="8.100013655522433"><ele>665.0</ele><time>2026-04-19T13:29:36.942Z</time></trkpt><trkpt lat="45.777704852006984" lon="8.099887798028687"><ele>665.0</ele><time>2026-04-19T13:29:37.942Z</time></trkpt><trkpt lat="45.777605847963684" lon="8.09975626213666"><ele>668.0</ele><time>2026-04-19T13:29:38.942Z</time></trkpt><trkpt lat="45.77750879853081" lon="8.099631110860035"><ele>671.0</ele><time>2026-04-19T13:29:39.942Z</time></trkpt><trkpt lat="45.77741680017541" lon="8.09950678150527"><ele>674.0</ele><time>2026-04-19T13:29:40.943Z</time></trkpt><trkpt lat="45.777333154012474" lon="8.099386258023616"><ele>677.0</ele><time>2026-04-19T13:29:41.943Z</time></trkpt><trkpt lat="45.77726035927271" lon="8.099268509046826"><ele>677.0</ele><time>2026-04-19T13:29:42.943Z</time></trkpt><trkpt lat="45.77718885908862" lon="8.099153964088437"><ele>677.0</ele><time>2026-04-19T13:29:43.943Z</time></trkpt><trkpt lat="45.77712024436003" lon="8.099040115657953"><ele>677.0</ele><time>2026-04-19T13:29:44.943Z</time></trkpt><trkpt lat="45.77705565278669" lon="8.098919533640963"><ele>677.0</ele><time>2026-04-19T13:29:45.943Z</time></trkpt><trkpt lat="45.77699447169316" lon="8.0987940253438"><ele>677.0</ele><time>2026-04-19T13:29:46.943Z</time></trkpt><trkpt lat="45.77693957617078" lon="8.09865197489889"><ele>679.75</ele><time>2026-04-19T13:29:47.943Z</time></trkpt><trkpt lat="45.776883254110174" lon="8.098500179031406"><ele>682.5</ele><time>2026-04-19T13:29:48.943Z</time></trkpt><trkpt lat="45.7768345384876" lon="8.09834800805189"><ele>685.25</ele><time>2026-04-19T13:29:49.943Z</time></trkpt><trkpt lat="45.77678727368027" lon="8.098193169011376"><ele>688.0</ele><time>2026-04-19T13:29:50.943Z</time></trkpt><trkpt lat="45.77674670337207" lon="8.098031838785849"><ele>682.25</ele><time>2026-04-19T13:29:51.943Z</time></trkpt><trkpt lat="45.77669722688605" lon="8.097877699673276"><ele>676.5</ele><time>2026-04-19T13:29:52.943Z</time></trkpt><trkpt lat="45.776625169947245" lon="8.09772947700209"><ele>670.75</ele><time>2026-04-19T13:29:53.943Z</time></trkpt><trkpt lat="45.77654273949318" lon="8.097595599932589"><ele>665.0</ele><time>2026-04-19T13:29:54.943Z</time></trkpt><trkpt lat="45.7764580335637" lon="8.09746926755846"><ele>665.5</ele><time>2026-04-19T13:29:55.943Z</time></trkpt><trkpt lat="45.77637636272842" lon="8.097347176405627"><ele>666.0</ele><time>2026-04-19T13:29:56.943Z</time></trkpt><trkpt lat="45.77630733444055" lon="8.097224954501424"><ele>666.5</ele><time>2026-04-19T13:29:57.94Z</time></trkpt><trkpt lat="45.776217202281195" lon="8.097107748373071"><ele>667.0</ele><time>2026-04-19T13:29:58.941Z</time></trkpt><trkpt lat="45.77611564395609" lon="8.096990434137343"><ele>666.75</ele><time>2026-04-19T13:29:59.941Z</time></trkpt><trkpt lat="45.7760138216826" lon="8.09686803717692"><ele>666.5</ele><time>2026-04-19T13:30:00.94Z</time></trkpt><trkpt lat="45.775905993833405" lon="8.096744368082794"><ele>666.25</ele><time>2026-04-19T13:30:01.94Z</time></trkpt><trkpt lat="45.775797777763785" lon="8.096615238161482"><ele>666.0</ele><time>2026-04-19T13:30:02.94Z</time></trkpt><trkpt lat="45.775688553704" lon="8.096485083653867"><ele>666.0</ele><time>2026-04-19T13:30:03.941Z</time></trkpt><trkpt lat="45.77557636947527" lon="8.096353986160354"><ele>666.0</ele><time>2026-04-19T13:30:04.94Z</time></trkpt><trkpt lat="45.775461443728815" lon="8.096223463876248"><ele>666.0</ele><time>2026-04-19T13:30:05.94Z</time></trkpt><trkpt lat="45.77534775940744" lon="8.096089690343453"><ele>666.0</ele><time>2026-04-19T13:30:06.94Z</time></trkpt><trkpt lat="45.77523870987294" lon="8.095957300620515"><ele>665.75</ele><time>2026-04-19T13:30:07.941Z</time></trkpt><trkpt lat="45.77513749539102" lon="8.095818939358107"><ele>665.5</ele><time>2026-04-19T13:30:08.941Z</time></trkpt><trkpt lat="45.77503917533687" lon="8.095686113377608"><ele>665.25</ele><time>2026-04-19T13:30:09.941Z</time></trkpt><trkpt lat="45.77494170050126" lon="8.095560287480515"><ele>665.0</ele><time>2026-04-19T13:30:10.941Z</time></trkpt><trkpt lat="45.774840727671226" lon="8.095441387179116"><ele>665.0</ele><time>2026-04-19T13:30:11.941Z</time></trkpt><trkpt lat="45.7747386961074" lon="8.095319269219234"><ele>665.0</ele><time>2026-04-19T13:30:12.941Z</time></trkpt><trkpt lat="45.77463537387715" lon="8.095199244722867"><ele>665.0</ele><time>2026-04-19T13:30:13.941Z</time></trkpt><trkpt lat="45.77453563055818" lon="8.095071024685687"><ele>665.0</ele><time>2026-04-19T13:30:14.941Z</time></trkpt><trkpt lat="45.77440551099195" lon="8.09494613483283"><ele>666.0</ele><time>2026-04-19T13:30:15.941Z</time></trkpt><trkpt lat="45.77427855927507" lon="8.094833762771108"><ele>667.0</ele><time>2026-04-19T13:30:16.941Z</time></trkpt><trkpt lat="45.77416864132072" lon="8.094726610302935"><ele>668.0</ele><time>2026-04-19T13:30:17.941Z</time></trkpt><trkpt lat="45.77406937137279" lon="8.094624673351866"><ele>669.0</ele><time>2026-04-19T13:30:18.941Z</time></trkpt><trkpt lat="45.77397828018992" lon="8.094526796953168"><ele>669.0</ele><time>2026-04-19T13:30:19.941Z</time></trkpt><trkpt lat="45.77389728761149" lon="8.094436480941981"><ele>669.0</ele><time>2026-04-19T13:30:20.941Z</time></trkpt><trkpt lat="45.77382101822015" lon="8.094361888954257"><ele>669.0</ele><time>2026-04-19T13:30:21.941Z</time></trkpt><trkpt lat="45.77375141825299" lon="8.094325195181403"><ele>669.0</ele><time>2026-04-19T13:30:22.941Z</time></trkpt><trkpt lat="45.77363789711936" lon="8.094349835850867"><ele>669.0</ele><time>2026-04-19T13:30:24.941Z</time></trkpt><trkpt lat="45.77353330934072" lon="8.094475621086263"><ele>669.0</ele><time>2026-04-19T13:30:26.941Z</time></trkpt><trkpt lat="45.77348248317819" lon="8.09455250525542"><ele>669.0</ele><time>2026-04-19T13:30:27.941Z</time></trkpt><trkpt lat="45.7734457804488" lon="8.094650732235076"><ele>669.0</ele><time>2026-04-19T13:30:28.941Z</time></trkpt><trkpt lat="45.773432053765134" lon="8.094768673903168"><ele>669.0</ele><time>2026-04-19T13:30:29.941Z</time></trkpt><trkpt lat="45.77341262418079" lon="8.094894297911761"><ele>669.0</ele><time>2026-04-19T13:30:30.941Z</time></trkpt><trkpt lat="45.77338627942907" lon="8.09502088130316"><ele>669.0</ele><time>2026-04-19T13:30:31.941Z</time></trkpt><trkpt lat="45.77335017015425" lon="8.095142629292322"><ele>669.0</ele><time>2026-04-19T13:30:32.941Z</time></trkpt><trkpt lat="45.773315493314534" lon="8.095255481833968"><ele>669.0</ele><time>2026-04-19T13:30:33.941Z</time></trkpt><trkpt lat="45.773263962257246" lon="8.095357247459582"><ele>669.0</ele><time>2026-04-19T13:30:34.941Z</time></trkpt><trkpt lat="45.77319980864434" lon="8.095460502087827"><ele>669.0</ele><time>2026-04-19T13:30:35.941Z</time></trkpt><trkpt lat="45.77313274716077" lon="8.095566411125265"><ele>669.0</ele><time>2026-04-19T13:30:36.941Z</time></trkpt><trkpt lat="45.77306784601922" lon="8.095679859039986"><ele>668.6</ele><time>2026-04-19T13:30:37.941Z</time></trkpt><trkpt lat="45.773005747130576" lon="8.09579988259759"><ele>668.2</ele><time>2026-04-19T13:30:38.941Z</time></trkpt><trkpt lat="45.77294739407887" lon="8.0959230608574"><ele>667.8000000000001</ele><time>2026-04-19T13:30:39.941Z</time></trkpt><trkpt lat="45.77289218306899" lon="8.09603253090304"><ele>667.4000000000001</ele><time>2026-04-19T13:30:40.941Z</time></trkpt><trkpt lat="45.77283145532647" lon="8.096124450620698"><ele>667.0</ele><time>2026-04-19T13:30:41.941Z</time></trkpt><trkpt lat="45.77276228122331" lon="8.096198193898992"><ele>666.4000000000001</ele><time>2026-04-19T13:30:42.941Z</time></trkpt><trkpt lat="45.772682932003164" lon="8.096247578503213"><ele>665.8000000000001</ele><time>2026-04-19T13:30:43.941Z</time></trkpt><trkpt lat="45.77259453895793" lon="8.096281379108651"><ele>665.2</ele><time>2026-04-19T13:30:44.942Z</time></trkpt><trkpt lat="45.7725037097377" lon="8.096314131032818"><ele>664.6</ele><time>2026-04-19T13:30:45.942Z</time></trkpt><trkpt lat="45.77241188449381" lon="8.096350825945605"><ele>664.0</ele><time>2026-04-19T13:30:46.942Z</time></trkpt><trkpt lat="45.77232318468683" lon="8.09639120842157"><ele>664.0</ele><time>2026-04-19T13:30:47.942Z</time></trkpt><trkpt lat="45.77223159354426" lon="8.0964457332716"><ele>664.0</ele><time>2026-04-19T13:30:48.942Z</time></trkpt><trkpt lat="45.77213969375167" lon="8.096489476003931"><ele>664.0</ele><time>2026-04-19T13:30:49.942Z</time></trkpt><trkpt lat="45.77205789008427" lon="8.096529796869746"><ele>664.0</ele><time>2026-04-19T13:30:50.942Z</time></trkpt><trkpt lat="45.771975391403636" lon="8.096557204320035"><ele>664.0</ele><time>2026-04-19T13:30:51.942Z</time></trkpt><trkpt lat="45.77189680972097" lon="8.096553568700353"><ele>664.0</ele><time>2026-04-19T13:30:52.942Z</time></trkpt><trkpt lat="45.77182008777333" lon="8.096510402517655"><ele>664.0</ele><time>2026-04-19T13:30:53.942Z</time></trkpt><trkpt lat="45.77174836658262" lon="8.096442890102105"><ele>664.0</ele><time>2026-04-19T13:30:54.942Z</time></trkpt><trkpt lat="45.77169323835377" lon="8.096343000728297"><ele>664.0</ele><time>2026-04-19T13:30:55.942Z</time></trkpt><trkpt lat="45.77164504972273" lon="8.096216858972054"><ele>664.0</ele><time>2026-04-19T13:30:56.942Z</time></trkpt><trkpt lat="45.771597449871145" lon="8.096086796815984"><ele>664.0</ele><time>2026-04-19T13:30:57.942Z</time></trkpt><trkpt lat="45.77154205463711" lon="8.095955223783443"><ele>664.0</ele><time>2026-04-19T13:30:58.942Z</time></trkpt><trkpt lat="45.77149616994263" lon="8.0958253648021"><ele>664.0</ele><time>2026-04-19T13:30:59.942Z</time></trkpt><trkpt lat="45.77145307370142" lon="8.09568461217736"><ele>664.0</ele><time>2026-04-19T13:31:00.942Z</time></trkpt><trkpt lat="45.771419735512055" lon="8.095534583471757"><ele>664.0</ele><time>2026-04-19T13:31:01.942Z</time></trkpt><trkpt lat="45.77138765732944" lon="8.095379192869451"><ele>664.0</ele><time>2026-04-19T13:31:02.942Z</time></trkpt><trkpt lat="45.771352609177534" lon="8.095224320113573"><ele>663.25</ele><time>2026-04-19T13:31:03.942Z</time></trkpt><trkpt lat="45.771326210529324" lon="8.09505828084292"><ele>662.5</ele><time>2026-04-19T13:31:04.942Z</time></trkpt><trkpt lat="45.771292953923165" lon="8.094894281908022"><ele>661.75</ele><time>2026-04-19T13:31:05.942Z</time></trkpt><trkpt lat="45.771243001625955" lon="8.09473894957619"><ele>661.0</ele><time>2026-04-19T13:31:06.942Z</time></trkpt><trkpt lat="45.77117388179699" lon="8.09459582719871"><ele>660.5</ele><time>2026-04-19T13:31:07.942Z</time></trkpt><trkpt lat="45.77108456479293" lon="8.09447458085839"><ele>660.0</ele><time>2026-04-19T13:31:08.942Z</time></trkpt><trkpt lat="45.77098398314987" lon="8.094367612338038"><ele>659.5</ele><time>2026-04-19T13:31:09.942Z</time></trkpt><trkpt lat="45.770875707039416" lon="8.094276601153178"><ele>659.0</ele><time>2026-04-19T13:31:10.942Z</time></trkpt><trkpt lat="45.77076463956349" lon="8.094186337933966"><ele>658.25</ele><time>2026-04-19T13:31:11.942Z</time></trkpt><trkpt lat="45.77065762114964" lon="8.094098738008196"><ele>657.5</ele><time>2026-04-19T13:31:12.942Z</time></trkpt><trkpt lat="45.77055280481544" lon="8.094001430968543"><ele>656.75</ele><time>2026-04-19T13:31:13.942Z</time></trkpt><trkpt lat="45.77044957865117" lon="8.093901240358232"><ele>656.0</ele><time>2026-04-19T13:31:14.942Z</time></trkpt><trkpt lat="45.77034539247548" lon="8.093813370945224"><ele>656.0</ele><time>2026-04-19T13:31:15.942Z</time></trkpt><trkpt lat="45.770244399245065" lon="8.09372609543169"><ele>656.0</ele><time>2026-04-19T13:31:16.942Z</time></trkpt><trkpt lat="45.7701431991425" lon="8.09365038466274"><ele>656.0</ele><time>2026-04-19T13:31:17.942Z</time></trkpt><trkpt lat="45.77004588879371" lon="8.093571387942669"><ele>656.0</ele><time>2026-04-19T13:31:18.942Z</time></trkpt><trkpt lat="45.769947193036316" lon="8.09348689796142"><ele>656.25</ele><time>2026-04-19T13:31:19.942Z</time></trkpt><trkpt lat="45.76984986436149" lon="8.093392995172488"><ele>656.5</ele><time>2026-04-19T13:31:20.942Z</time></trkpt><trkpt lat="45.769751762332206" lon="8.09328427710456"><ele>656.75</ele><time>2026-04-19T13:31:21.942Z</time></trkpt><trkpt lat="45.76965747157788" lon="8.093165319665287"><ele>657.0</ele><time>2026-04-19T13:31:22.942Z</time></trkpt><trkpt lat="45.769567372851604" lon="8.093034368175886"><ele>657.0</ele><time>2026-04-19T13:31:23.942Z</time></trkpt><trkpt lat="45.76948280649794" lon="8.092894780597144"><ele>657.0</ele><time>2026-04-19T13:31:24.942Z</time></trkpt><trkpt lat="45.76940811986316" lon="8.092744283603706"><ele>657.0</ele><time>2026-04-19T13:31:25.942Z</time></trkpt><trkpt lat="45.76934223940243" lon="8.09258808592757"><ele>657.0</ele><time>2026-04-19T13:31:26.942Z</time></trkpt><trkpt lat="45.76928086112995" lon="8.09243138598659"><ele>659.5</ele><time>2026-04-19T13:31:27.942Z</time></trkpt><trkpt lat="45.76921888511755" lon="8.092276478072858"><ele>662.0</ele><time>2026-04-19T13:31:28.942Z</time></trkpt><trkpt lat="45.76916278601035" lon="8.092121367668012"><ele>664.5</ele><time>2026-04-19T13:31:29.943Z</time></trkpt><trkpt lat="45.76910581526501" lon="8.091965130024692"><ele>667.0</ele><time>2026-04-19T13:31:30.943Z</time></trkpt><trkpt lat="45.76905139769643" lon="8.091807523761135"><ele>667.0</ele><time>2026-04-19T13:31:31.943Z</time></trkpt><trkpt lat="45.768997039765296" lon="8.091650340958292"><ele>667.0</ele><time>2026-04-19T13:31:32.943Z</time></trkpt><trkpt lat="45.768940034166285" lon="8.091492159870832"><ele>667.0</ele><time>2026-04-19T13:31:33.943Z</time></trkpt><trkpt lat="45.768890476041896" lon="8.091331175406946"><ele>667.0</ele><time>2026-04-19T13:31:34.943Z</time></trkpt><trkpt lat="45.76883886218146" lon="8.091170619698644"><ele>667.0</ele><time>2026-04-19T13:31:35.943Z</time></trkpt><trkpt lat="45.76879191277736" lon="8.091010669648156"><ele>667.0</ele><time>2026-04-19T13:31:36.943Z</time></trkpt><trkpt lat="45.76874422377202" lon="8.090848876983218"><ele>667.0</ele><time>2026-04-19T13:31:37.943Z</time></trkpt><trkpt lat="45.76869681039423" lon="8.090693306406239"><ele>667.0</ele><time>2026-04-19T13:31:38.943Z</time></trkpt><trkpt lat="45.76865033694354" lon="8.090536204894994"><ele>667.0</ele><time>2026-04-19T13:31:39.943Z</time></trkpt><trkpt lat="45.76860722142295" lon="8.090377338656557"><ele>667.0</ele><time>2026-04-19T13:31:40.943Z</time></trkpt><trkpt lat="45.76856466282583" lon="8.09021708375187"><ele>667.0</ele><time>2026-04-19T13:31:41.943Z</time></trkpt><trkpt lat="45.76851904399063" lon="8.09006022580817"><ele>667.0</ele><time>2026-04-19T13:31:42.943Z</time></trkpt><trkpt lat="45.768470165443475" lon="8.089906165881999"><ele>668.5</ele><time>2026-04-19T13:31:43.943Z</time></trkpt><trkpt lat="45.768413016277115" lon="8.089758078251757"><ele>670.0</ele><time>2026-04-19T13:31:44.943Z</time></trkpt><trkpt lat="45.76835643410811" lon="8.089608543698914"><ele>671.5</ele><time>2026-04-19T13:31:45.943Z</time></trkpt><trkpt lat="45.76830400943913" lon="8.089458583038198"><ele>673.0</ele><time>2026-04-19T13:31:46.943Z</time></trkpt><trkpt lat="45.76825154814284" lon="8.089310212253787"><ele>673.0</ele><time>2026-04-19T13:31:47.943Z</time></trkpt><trkpt lat="45.76820303094521" lon="8.089153834546327"><ele>673.0</ele><time>2026-04-19T13:31:48.943Z</time></trkpt><trkpt lat="45.768158175048" lon="8.088993668974666"><ele>673.0</ele><time>2026-04-19T13:31:49.943Z</time></trkpt><trkpt lat="45.76812140040326" lon="8.088827694646891"><ele>673.0</ele><time>2026-04-19T13:31:50.943Z</time></trkpt><trkpt lat="45.76808958403255" lon="8.088662629576419"><ele>672.5</ele><time>2026-04-19T13:31:51.943Z</time></trkpt><trkpt lat="45.76806183269513" lon="8.088496454022362"><ele>672.0</ele><time>2026-04-19T13:31:52.943Z</time></trkpt><trkpt lat="45.768037732929685" lon="8.088328633019355"><ele>671.5</ele><time>2026-04-19T13:31:53.943Z</time></trkpt><trkpt lat="45.7680221142678" lon="8.088159720285622"><ele>671.0</ele><time>2026-04-19T13:31:54.943Z</time></trkpt><trkpt lat="45.768017569200474" lon="8.087991242712285"><ele>672.0</ele><time>2026-04-19T13:31:55.943Z</time></trkpt><trkpt lat="45.76801550692573" lon="8.087825334900664"><ele>673.0</ele><time>2026-04-19T13:31:56.943Z</time></trkpt><trkpt lat="45.76801231837893" lon="8.087664482493725"><ele>674.0</ele><time>2026-04-19T13:31:57.943Z</time></trkpt><trkpt lat="45.768008153575025" lon="8.08750388804316"><ele>675.0</ele><time>2026-04-19T13:31:58.943Z</time></trkpt><trkpt lat="45.76800316346935" lon="8.087343346655272"><ele>675.2</ele><time>2026-04-19T13:31:59.943Z</time></trkpt><trkpt lat="45.7680020227231" lon="8.087186837962715"><ele>675.4</ele><time>2026-04-19T13:32:00.943Z</time></trkpt><trkpt lat="45.76800347660027" lon="8.087029957910783"><ele>675.5999999999999</ele><time>2026-04-19T13:32:01.943Z</time></trkpt><trkpt lat="45.76800654508133" lon="8.086876970476052"><ele>675.8</ele><time>2026-04-19T13:32:02.943Z</time></trkpt><trkpt lat="45.76800913389105" lon="8.08673046821498"><ele>676.0</ele><time>2026-04-19T13:32:03.941Z</time></trkpt><trkpt lat="45.7680101141014" lon="8.086587608115781"><ele>675.6666666666667</ele><time>2026-04-19T13:32:04.94Z</time></trkpt><trkpt lat="45.76801206795092" lon="8.086450345205149"><ele>675.3333333333334</ele><time>2026-04-19T13:32:05.94Z</time></trkpt><trkpt lat="45.768015285822436" lon="8.086321696687639"><ele>675.0</ele><time>2026-04-19T13:32:06.941Z</time></trkpt><trkpt lat="45.76801533083902" lon="8.086199646159109"><ele>674.6666666666666</ele><time>2026-04-19T13:32:07.94Z</time></trkpt><trkpt lat="45.76801494260336" lon="8.086091749255056"><ele>674.3333333333333</ele><time>2026-04-19T13:32:08.94Z</time></trkpt><trkpt lat="45.768013969245814" lon="8.085987164801338"><ele>674.0</ele><time>2026-04-19T13:32:09.94Z</time></trkpt><trkpt lat="45.76801365308191" lon="8.085891019014959"><ele>673.6</ele><time>2026-04-19T13:32:10.941Z</time></trkpt><trkpt lat="45.76801079983373" lon="8.085713123513582"><ele>673.2</ele><time>2026-04-19T13:32:12.941Z</time></trkpt><trkpt lat="45.76800812415216" lon="8.085621870542294"><ele>672.8000000000001</ele><time>2026-04-19T13:32:13.941Z</time></trkpt><trkpt lat="45.76800421830824" lon="8.08544989058658"><ele>672.4000000000001</ele><time>2026-04-19T13:32:15.94Z</time></trkpt><trkpt lat="45.76800265879282" lon="8.08528873739116"><ele>672.0</ele><time>2026-04-19T13:32:17.94Z</time></trkpt><trkpt lat="45.76800600852269" lon="8.085166575665534"><ele>672.0</ele><time>2026-04-19T13:32:19.94Z</time></trkpt><trkpt lat="45.76796903959542" lon="8.085074905666945"><ele>672.0</ele><time>2026-04-19T13:32:22.94Z</time></trkpt><trkpt lat="45.76791455722663" lon="8.08512141727902"><ele>672.0</ele><time>2026-04-19T13:33:29.942Z</time></trkpt><trkpt lat="45.76796441449968" lon="8.085244085123957"><ele>672.0</ele><time>2026-04-19T13:33:33.942Z</time></trkpt><trkpt lat="45.76798737367738" lon="8.085361414856326"><ele>672.0</ele><time>2026-04-19T13:33:35.942Z</time></trkpt><trkpt lat="45.767985225963784" lon="8.085526287739402"><ele>672.0</ele><time>2026-04-19T13:33:37.942Z</time></trkpt><trkpt lat="45.767984886279415" lon="8.085695303303742"><ele>672.2857142857143</ele><time>2026-04-19T13:33:39.942Z</time></trkpt><trkpt lat="45.76798723034611" lon="8.085787772292724"><ele>672.5714285714286</ele><time>2026-04-19T13:33:40.942Z</time></trkpt><trkpt lat="45.767989383796184" lon="8.085882882790836"><ele>672.8571428571429</ele><time>2026-04-19T13:33:41.942Z</time></trkpt><trkpt lat="45.76799643296966" lon="8.086016492562976"><ele>673.1428571428571</ele><time>2026-04-19T13:33:42.942Z</time></trkpt><trkpt lat="45.76800248180861" lon="8.086135936683785"><ele>673.4285714285714</ele><time>2026-04-19T13:33:43.942Z</time></trkpt><trkpt lat="45.768002820709995" lon="8.086236085573262"><ele>673.7142857142858</ele><time>2026-04-19T13:33:44.942Z</time></trkpt><trkpt lat="45.76800423370122" lon="8.086338272342521"><ele>674.0</ele><time>2026-04-19T13:33:45.942Z</time></trkpt><trkpt lat="45.76800259900392" lon="8.086441915370298"><ele>674.0000000000001</ele><time>2026-04-19T13:33:46.942Z</time></trkpt><trkpt lat="45.76800043816389" lon="8.086545316661553"><ele>674.0</ele><time>2026-04-19T13:33:47.942Z</time></trkpt><trkpt lat="45.768000694658554" lon="8.086650305131188"><ele>674.0</ele><time>2026-04-19T13:33:48.942Z</time></trkpt><trkpt lat="45.76800293576596" lon="8.086757390712593"><ele>674.0</ele><time>2026-04-19T13:33:49.942Z</time></trkpt><trkpt lat="45.768006092266894" lon="8.08685943301306"><ele>674.0</ele><time>2026-04-19T13:33:50.942Z</time></trkpt><trkpt lat="45.768007926875825" lon="8.086961970517635"><ele>674.0000000000001</ele><time>2026-04-19T13:33:51.942Z</time></trkpt><trkpt lat="45.76800783357113" lon="8.087060022874276"><ele>674.0</ele><time>2026-04-19T13:33:52.942Z</time></trkpt><trkpt lat="45.768004481479714" lon="8.087159207970725"><ele>674.1666666666666</ele><time>2026-04-19T13:33:53.942Z</time></trkpt><trkpt lat="45.76800292100648" lon="8.087258012744712"><ele>674.3333333333333</ele><time>2026-04-19T13:33:54.942Z</time></trkpt><trkpt lat="45.7680061912757" lon="8.0873646816732"><ele>674.5</ele><time>2026-04-19T13:33:55.942Z</time></trkpt><trkpt lat="45.76801025953649" lon="8.087478966062395"><ele>674.6666666666666</ele><time>2026-04-19T13:33:56.942Z</time></trkpt><trkpt lat="45.76801364538229" lon="8.087598516511179"><ele>674.8333333333334</ele><time>2026-04-19T13:33:57.942Z</time></trkpt><trkpt lat="45.76801417324476" lon="8.08771453219512"><ele>675.0</ele><time>2026-04-19T13:33:58.942Z</time></trkpt><trkpt lat="45.76801472758411" lon="8.087818199855729"><ele>675.0</ele><time>2026-04-19T13:33:59.942Z</time></trkpt><trkpt lat="45.76802066527712" lon="8.087911165644687"><ele>675.0</ele><time>2026-04-19T13:34:00.942Z</time></trkpt><trkpt lat="45.768024449835984" lon="8.088001763942616"><ele>675.0</ele><time>2026-04-19T13:34:01.942Z</time></trkpt><trkpt lat="45.768028334671605" lon="8.088095197355038"><ele>675.0</ele><time>2026-04-19T13:34:02.942Z</time></trkpt><trkpt lat="45.76803217048627" lon="8.088185509432357"><ele>675.0</ele><time>2026-04-19T13:34:03.942Z</time></trkpt><trkpt lat="45.76803732391503" lon="8.08827985632068"><ele>675.0</ele><time>2026-04-19T13:34:04.942Z</time></trkpt><trkpt lat="45.76804698347226" lon="8.088378895619167"><ele>675.0</ele><time>2026-04-19T13:34:05.942Z</time></trkpt><trkpt lat="45.76805648323426" lon="8.088472641511949"><ele>674.3333333333334</ele><time>2026-04-19T13:34:06.942Z</time></trkpt><trkpt lat="45.768084998555075" lon="8.088629463960608"><ele>673.6666666666666</ele><time>2026-04-19T13:34:08.942Z</time></trkpt><trkpt lat="45.76806225871503" lon="8.08872743934297"><ele>673.0</ele><time>2026-04-19T13:34:12.94Z</time></trkpt><trkpt lat="45.76799818424735" lon="8.088692547749067"><ele>672.3333333333333</ele><time>2026-04-19T13:34:15.941Z</time></trkpt><trkpt lat="45.767962208239545" lon="8.088577233442555"><ele>671.6666666666666</ele><time>2026-04-19T13:34:17.94Z</time></trkpt><trkpt lat="45.76791990547311" lon="8.088456544607059"><ele>671.0</ele><time>2026-04-19T13:34:19.94Z</time></trkpt><trkpt lat="45.76784756723834" lon="8.08831299401953"><ele>671.6666666666666</ele><time>2026-04-19T13:34:21.941Z</time></trkpt><trkpt lat="45.76778108920109" lon="8.088159625076932"><ele>672.3333333333333</ele><time>2026-04-19T13:34:23.94Z</time></trkpt><trkpt lat="45.76774579945481" lon="8.088068829546083"><ele>673.0</ele><time>2026-04-19T13:34:24.94Z</time></trkpt><trkpt lat="45.76770910075909" lon="8.087976917526623"><ele>673.6666666666666</ele><time>2026-04-19T13:34:25.94Z</time></trkpt><trkpt lat="45.76767685533832" lon="8.087880001315412"><ele>674.3333333333334</ele><time>2026-04-19T13:34:26.94Z</time></trkpt><trkpt lat="45.76764608978842" lon="8.08777826172027"><ele>675.0</ele><time>2026-04-19T13:34:27.941Z</time></trkpt><trkpt lat="45.76761987631038" lon="8.087675203490141"><ele>675.8333333333334</ele><time>2026-04-19T13:34:28.941Z</time></trkpt><trkpt lat="45.76760208781957" lon="8.087571154405545"><ele>676.6666666666666</ele><time>2026-04-19T13:34:29.941Z</time></trkpt><trkpt lat="45.76758753650957" lon="8.087465475655318"><ele>677.5</ele><time>2026-04-19T13:34:30.941Z</time></trkpt><trkpt lat="45.7675708854424" lon="8.087361327857367"><ele>678.3333333333333</ele><time>2026-04-19T13:34:31.941Z</time></trkpt><trkpt lat="45.76755027526586" lon="8.087253705271038"><ele>679.1666666666666</ele><time>2026-04-19T13:34:32.941Z</time></trkpt><trkpt lat="45.7675374520664" lon="8.087147265394377"><ele>680.0</ele><time>2026-04-19T13:34:33.941Z</time></trkpt><trkpt lat="45.767524721521546" lon="8.087042822331274"><ele>680.1666666666666</ele><time>2026-04-19T13:34:34.941Z</time></trkpt><trkpt lat="45.767510364349384" lon="8.086937489178757"><ele>680.3333333333333</ele><time>2026-04-19T13:34:35.941Z</time></trkpt><trkpt lat="45.7674938974654" lon="8.08684249791661"><ele>680.5</ele><time>2026-04-19T13:34:36.941Z</time></trkpt><trkpt lat="45.76747194089679" lon="8.08668734037154"><ele>680.6666666666666</ele><time>2026-04-19T13:34:38.941Z</time></trkpt><trkpt lat="45.76745289727229" lon="8.086564996281593"><ele>680.8333333333334</ele><time>2026-04-19T13:34:40.941Z</time></trkpt><trkpt lat="45.76742494390313" lon="8.086462060285559"><ele>681.0</ele><time>2026-04-19T13:34:42.941Z</time></trkpt><trkpt lat="45.76740401061595" lon="8.086356209147018"><ele>681.0</ele><time>2026-04-19T13:34:45.941Z</time></trkpt><trkpt lat="45.76742683728347" lon="8.086467147166116"><ele>681.0</ele><time>2026-04-19T13:56:06.951Z</time></trkpt><trkpt lat="45.76745826927773" lon="8.086617869215756"><ele>681.0</ele><time>2026-04-19T13:56:08.951Z</time></trkpt><trkpt lat="45.767478540791444" lon="8.08672415952847"><ele>681.0</ele><time>2026-04-19T13:56:09.951Z</time></trkpt><trkpt lat="45.767491792504345" lon="8.086835892887603"><ele>681.0</ele><time>2026-04-19T13:56:10.951Z</time></trkpt><trkpt lat="45.76750985585385" lon="8.086951576678192"><ele>681.0</ele><time>2026-04-19T13:56:11.951Z</time></trkpt><trkpt lat="45.76753007481563" lon="8.08707924000772"><ele>681.0</ele><time>2026-04-19T13:56:12.951Z</time></trkpt><trkpt lat="45.76755051455663" lon="8.087217849005487"><ele>681.0</ele><time>2026-04-19T13:56:13.951Z</time></trkpt><trkpt lat="45.767565110152496" lon="8.087361347683766"><ele>681.0</ele><time>2026-04-19T13:56:14.951Z</time></trkpt><trkpt lat="45.76758490732603" lon="8.08750401524665"><ele>681.0</ele><time>2026-04-19T13:56:15.951Z</time></trkpt><trkpt lat="45.767610424190735" lon="8.087634274988055"><ele>681.0</ele><time>2026-04-19T13:56:16.951Z</time></trkpt><trkpt lat="45.767642677766204" lon="8.087762544701336"><ele>680.8</ele><time>2026-04-19T13:56:17.951Z</time></trkpt><trkpt lat="45.767684040803665" lon="8.087895169984685"><ele>680.5999999999999</ele><time>2026-04-19T13:56:18.951Z</time></trkpt><trkpt lat="45.767738200525415" lon="8.088023885955996"><ele>680.4</ele><time>2026-04-19T13:56:19.951Z</time></trkpt><trkpt lat="45.767793715888594" lon="8.088155104818131"><ele>680.2</ele><time>2026-04-19T13:56:20.951Z</time></trkpt><trkpt lat="45.76785182746525" lon="8.088293698329908"><ele>680.0</ele><time>2026-04-19T13:56:21.951Z</time></trkpt><trkpt lat="45.767907112596546" lon="8.088430005340937"><ele>678.5</ele><time>2026-04-19T13:56:22.951Z</time></trkpt><trkpt lat="45.76795615735425" lon="8.088552545511583"><ele>677.0</ele><time>2026-04-19T13:56:23.951Z</time></trkpt><trkpt lat="45.76800396629322" lon="8.088662474791722"><ele>675.5</ele><time>2026-04-19T13:56:24.951Z</time></trkpt><trkpt lat="45.768049629976396" lon="8.088762945841884"><ele>674.0</ele><time>2026-04-19T13:56:25.951Z</time></trkpt><trkpt lat="45.768088196053284" lon="8.088858893587304"><ele>672.5</ele><time>2026-04-19T13:56:26.951Z</time></trkpt><trkpt lat="45.768134202665756" lon="8.088965666726047"><ele>671.0</ele><time>2026-04-19T13:56:27.951Z</time></trkpt><trkpt lat="45.76817909517486" lon="8.08908238778985"><ele>671.4</ele><time>2026-04-19T13:56:28.951Z</time></trkpt><trkpt lat="45.768226343580835" lon="8.089208817191563"><ele>671.8</ele><time>2026-04-19T13:56:29.951Z</time></trkpt><trkpt lat="45.768273861268696" lon="8.089342250247554"><ele>672.1999999999999</ele><time>2026-04-19T13:56:30.951Z</time></trkpt><trkpt lat="45.76832491578513" lon="8.089470900617137"><ele>672.5999999999999</ele><time>2026-04-19T13:56:31.951Z</time></trkpt><trkpt lat="45.768370224093744" lon="8.08959804386768"><ele>673.0</ele><time>2026-04-19T13:56:32.951Z</time></trkpt><trkpt lat="45.768412061093194" lon="8.089727196848198"><ele>673.0</ele><time>2026-04-19T13:56:33.951Z</time></trkpt><trkpt lat="45.76845588596192" lon="8.089857132864912"><ele>673.0</ele><time>2026-04-19T13:56:34.951Z</time></trkpt><trkpt lat="45.76850318922045" lon="8.089992837750701"><ele>673.0</ele><time>2026-04-19T13:56:35.951Z</time></trkpt><trkpt lat="45.76854581428319" lon="8.09013830667747"><ele>673.0</ele><time>2026-04-19T13:56:36.951Z</time></trkpt><trkpt lat="45.76858656848089" lon="8.090292308199079"><ele>673.0</ele><time>2026-04-19T13:56:37.951Z</time></trkpt><trkpt lat="45.768627634987546" lon="8.090454829601766"><ele>671.5</ele><time>2026-04-19T13:56:38.951Z</time></trkpt><trkpt lat="45.768671120672494" lon="8.090616511716114"><ele>670.0</ele><time>2026-04-19T13:56:39.951Z</time></trkpt><trkpt lat="45.76872011702433" lon="8.090779559038848"><ele>668.5</ele><time>2026-04-19T13:56:40.951Z</time></trkpt><trkpt lat="45.7687737869927" lon="8.090945479677085"><ele>667.0</ele><time>2026-04-19T13:56:41.952Z</time></trkpt><trkpt lat="45.768821808906466" lon="8.091120142585227"><ele>667.0</ele><time>2026-04-19T13:56:42.952Z</time></trkpt><trkpt lat="45.7688728441381" lon="8.091293150786868"><ele>667.0</ele><time>2026-04-19T13:56:43.952Z</time></trkpt><trkpt lat="45.76892532724081" lon="8.09146205257135"><ele>667.0</ele><time>2026-04-19T13:56:44.952Z</time></trkpt><trkpt lat="45.76898525858543" lon="8.091627272115776"><ele>667.0</ele><time>2026-04-19T13:56:45.952Z</time></trkpt><trkpt lat="45.76904834075813" lon="8.091789294354479"><ele>667.0</ele><time>2026-04-19T13:56:46.952Z</time></trkpt><trkpt lat="45.769113809332275" lon="8.091954624610029"><ele>667.0</ele><time>2026-04-19T13:56:47.952Z</time></trkpt><trkpt lat="45.769173719041085" lon="8.092119355288538"><ele>667.0</ele><time>2026-04-19T13:56:48.952Z</time></trkpt><trkpt lat="45.76923457322724" lon="8.092287721245434"><ele>667.0</ele><time>2026-04-19T13:56:49.952Z</time></trkpt><trkpt lat="45.76929992941221" lon="8.092457351584438"><ele>664.5</ele><time>2026-04-19T13:56:50.952Z</time></trkpt><trkpt lat="45.76936881634021" lon="8.092622671087144"><ele>662.0</ele><time>2026-04-19T13:56:51.952Z</time></trkpt><trkpt lat="45.76944059715307" lon="8.092784768788285"><ele>659.5</ele><time>2026-04-19T13:56:52.952Z</time></trkpt><trkpt lat="45.76952209373518" lon="8.092936988419794"><ele>657.0</ele><time>2026-04-19T13:56:53.952Z</time></trkpt><trkpt lat="45.769610226112945" lon="8.093081914689026"><ele>657.0</ele><time>2026-04-19T13:56:54.952Z</time></trkpt><trkpt lat="45.769709033531605" lon="8.093214216578328"><ele>657.0</ele><time>2026-04-19T13:56:55.952Z</time></trkpt><trkpt lat="45.76981537218257" lon="8.093335996948623"><ele>657.0</ele><time>2026-04-19T13:56:56.952Z</time></trkpt><trkpt lat="45.769926517668345" lon="8.093449745205843"><ele>657.0</ele><time>2026-04-19T13:56:57.952Z</time></trkpt><trkpt lat="45.77003902608495" lon="8.093559849389994"><ele>656.75</ele><time>2026-04-19T13:56:58.952Z</time></trkpt><trkpt lat="45.77015014090871" lon="8.09366425041747"><ele>656.5</ele><time>2026-04-19T13:56:59.952Z</time></trkpt><trkpt lat="45.77026383995677" lon="8.093762911720523"><ele>656.25</ele><time>2026-04-19T13:57:00.952Z</time></trkpt><trkpt lat="45.77038081813585" lon="8.093847936275495"><ele>656.0</ele><time>2026-04-19T13:57:01.952Z</time></trkpt><trkpt lat="45.77049560484449" lon="8.093942867127423"><ele>656.0</ele><time>2026-04-19T13:57:02.952Z</time></trkpt><trkpt lat="45.7706081453536" lon="8.094044993207438"><ele>656.0</ele><time>2026-04-19T13:57:03.952Z</time></trkpt><trkpt lat="45.77072173531833" lon="8.094142692898313"><ele>656.0</ele><time>2026-04-19T13:57:04.952Z</time></trkpt><trkpt lat="45.77083476830823" lon="8.094247521030228"><ele>656.0</ele><time>2026-04-19T13:57:05.952Z</time></trkpt><trkpt lat="45.77094663721078" lon="8.094351382588112"><ele>656.75</ele><time>2026-04-19T13:57:06.952Z</time></trkpt><trkpt lat="45.771053737192986" lon="8.094459971247323"><ele>657.5</ele><time>2026-04-19T13:57:07.952Z</time></trkpt><trkpt lat="45.77114799751193" lon="8.094584830395593"><ele>658.25</ele><time>2026-04-19T13:57:08.952Z</time></trkpt><trkpt lat="45.771225472364186" lon="8.094732476261184"><ele>659.0</ele><time>2026-04-19T13:57:09.952Z</time></trkpt><trkpt lat="45.77128412506192" lon="8.094891489817007"><ele>659.5</ele><time>2026-04-19T13:57:10.952Z</time></trkpt><trkpt lat="45.77132688933073" lon="8.095054576485772"><ele>660.0</ele><time>2026-04-19T13:57:11.952Z</time></trkpt><trkpt lat="45.77136282391905" lon="8.095226406200217"><ele>660.5</ele><time>2026-04-19T13:57:12.952Z</time></trkpt><trkpt lat="45.77139574921107" lon="8.09540756204223"><ele>661.0</ele><time>2026-04-19T13:57:13.952Z</time></trkpt><trkpt lat="45.771430362451476" lon="8.095584943171215"><ele>661.0</ele><time>2026-04-19T13:57:14.952Z</time></trkpt><trkpt lat="45.77147043409229" lon="8.09574422796457"><ele>661.0</ele><time>2026-04-19T13:57:15.95Z</time></trkpt><trkpt lat="45.771513816186726" lon="8.095890556399553"><ele>661.0</ele><time>2026-04-19T13:57:16.949Z</time></trkpt><trkpt lat="45.77156191653575" lon="8.096029398837095"><ele>661.0</ele><time>2026-04-19T13:57:17.949Z</time></trkpt><trkpt lat="45.771615818113396" lon="8.096154826724097"><ele>661.0</ele><time>2026-04-19T13:57:18.95Z</time></trkpt><trkpt lat="45.77167005854166" lon="8.09627235292744"><ele>661.5</ele><time>2026-04-19T13:57:19.95Z</time></trkpt><trkpt lat="45.7717230682096" lon="8.096387217215154"><ele>662.0</ele><time>2026-04-19T13:57:20.95Z</time></trkpt><trkpt lat="45.77178206836415" lon="8.09647898499998"><ele>662.5</ele><time>2026-04-19T13:57:21.95Z</time></trkpt><trkpt lat="45.7718533788754" lon="8.09654379915106"><ele>663.0</ele><time>2026-04-19T13:57:22.95Z</time></trkpt><trkpt lat="45.771924340726656" lon="8.096580684425504"><ele>663.5</ele><time>2026-04-19T13:57:23.95Z</time></trkpt><trkpt lat="45.77199236417425" lon="8.096583602809146"><ele>664.0</ele><time>2026-04-19T13:57:24.95Z</time></trkpt><trkpt lat="45.77206636585662" lon="8.09655263684162"><ele>664.0</ele><time>2026-04-19T13:57:25.95Z</time></trkpt><trkpt lat="45.77214354307137" lon="8.096504651757714"><ele>664.0</ele><time>2026-04-19T13:57:26.95Z</time></trkpt><trkpt lat="45.77224148970534" lon="8.096457197822582"><ele>664.0</ele><time>2026-04-19T13:57:27.95Z</time></trkpt><trkpt lat="45.7723370602204" lon="8.096407556067494"><ele>664.0</ele><time>2026-04-19T13:57:28.95Z</time></trkpt><trkpt lat="45.772433337654824" lon="8.09635294102545"><ele>664.0</ele><time>2026-04-19T13:57:29.95Z</time></trkpt><trkpt lat="45.77253140401866" lon="8.096305994750953"><ele>664.0</ele><time>2026-04-19T13:57:30.95Z</time></trkpt><trkpt lat="45.77263024576805" lon="8.096274937839354"><ele>664.0</ele><time>2026-04-19T13:57:31.95Z</time></trkpt><trkpt lat="45.7727290352833" lon="8.09624672185841"><ele>664.0</ele><time>2026-04-19T13:57:32.95Z</time></trkpt><trkpt lat="45.77281560937193" lon="8.096188342761463"><ele>664.0</ele><time>2026-04-19T13:57:33.95Z</time></trkpt><trkpt lat="45.77289376213426" lon="8.096099306770686"><ele>664.0</ele><time>2026-04-19T13:57:34.95Z</time></trkpt><trkpt lat="45.772958710080616" lon="8.095985942793092"><ele>664.6</ele><time>2026-04-19T13:57:35.95Z</time></trkpt><trkpt lat="45.77301901690556" lon="8.095861128647114"><ele>665.2</ele><time>2026-04-19T13:57:36.95Z</time></trkpt><trkpt lat="45.77308142584394" lon="8.095729673215295"><ele>665.8000000000001</ele><time>2026-04-19T13:57:37.95Z</time></trkpt><trkpt lat="45.77314973190374" lon="8.095608635395848"><ele>666.4000000000001</ele><time>2026-04-19T13:57:38.95Z</time></trkpt><trkpt lat="45.77321916893714" lon="8.095497851786162"><ele>667.0</ele><time>2026-04-19T13:57:39.95Z</time></trkpt><trkpt lat="45.77328781309044" lon="8.095385396231157"><ele>667.2</ele><time>2026-04-19T13:57:40.95Z</time></trkpt><trkpt lat="45.77334219385316" lon="8.095268698133777"><ele>667.4000000000001</ele><time>2026-04-19T13:57:41.95Z</time></trkpt><trkpt lat="45.773382210762456" lon="8.09514300768836"><ele>667.5999999999999</ele><time>2026-04-19T13:57:42.95Z</time></trkpt><trkpt lat="45.77341840265043" lon="8.095010747497543"><ele>667.8</ele><time>2026-04-19T13:57:43.95Z</time></trkpt><trkpt lat="45.773446294159086" lon="8.09488562689795"><ele>668.0</ele><time>2026-04-19T13:57:44.95Z</time></trkpt><trkpt lat="45.77347073321719" lon="8.094769486363818"><ele>668.0</ele><time>2026-04-19T13:57:45.95Z</time></trkpt><trkpt lat="45.77348736813003" lon="8.094661986313188"><ele>668.0</ele><time>2026-04-19T13:57:46.95Z</time></trkpt><trkpt lat="45.77350873423419" lon="8.09457097703375"><ele>668.0</ele><time>2026-04-19T13:57:47.95Z</time></trkpt><trkpt lat="45.77354657801812" lon="8.094496542585848"><ele>668.0</ele><time>2026-04-19T13:57:48.95Z</time></trkpt><trkpt lat="45.77363495624639" lon="8.09440306945057"><ele>668.0</ele><time>2026-04-19T13:57:50.95Z</time></trkpt><trkpt lat="45.773696897882395" lon="8.0943603208976"><ele>668.0</ele><time>2026-04-19T13:57:52.95Z</time></trkpt><trkpt lat="45.77377812269226" lon="8.094367067777707"><ele>668.1666666666666</ele><time>2026-04-19T13:58:00.951Z</time></trkpt><trkpt lat="45.77386976008147" lon="8.094445769911689"><ele>668.3333333333333</ele><time>2026-04-19T13:58:02.951Z</time></trkpt><trkpt lat="45.77392314134174" lon="8.094500056969927"><ele>668.5</ele><time>2026-04-19T13:58:03.951Z</time></trkpt><trkpt lat="45.773981485388205" lon="8.094576115284225"><ele>668.6666666666666</ele><time>2026-04-19T13:58:04.951Z</time></trkpt><trkpt lat="45.774048350748714" lon="8.094651656653799"><ele>668.8333333333334</ele><time>2026-04-19T13:58:05.951Z</time></trkpt><trkpt lat="45.774120914260706" lon="8.094724468260312"><ele>669.0</ele><time>2026-04-19T13:58:06.951Z</time></trkpt><trkpt lat="45.774203705527405" lon="8.094812634218787"><ele>669.0</ele><time>2026-04-19T13:58:07.951Z</time></trkpt><trkpt lat="45.77428044473684" lon="8.09490258956301"><ele>669.0</ele><time>2026-04-19T13:58:08.951Z</time></trkpt><trkpt lat="45.77435452113065" lon="8.09498396019526"><ele>669.0</ele><time>2026-04-19T13:58:09.951Z</time></trkpt><trkpt lat="45.774429134083505" lon="8.095062708667719"><ele>669.0</ele><time>2026-04-19T13:58:10.951Z</time></trkpt><trkpt lat="45.774504843050444" lon="8.095142011630916"><ele>669.0</ele><time>2026-04-19T13:58:11.951Z</time></trkpt><trkpt lat="45.77458302385096" lon="8.095227765704932"><ele>668.2</ele><time>2026-04-19T13:58:12.951Z</time></trkpt><trkpt lat="45.77466032327006" lon="8.095323732262417"><ele>667.4000000000001</ele><time>2026-04-19T13:58:13.951Z</time></trkpt><trkpt lat="45.77474859727649" lon="8.095417066348967"><ele>666.6</ele><time>2026-04-19T13:58:14.951Z</time></trkpt><trkpt lat="45.77484097558416" lon="8.09551295671644"><ele>665.8</ele><time>2026-04-19T13:58:15.951Z</time></trkpt><trkpt lat="45.774933738543595" lon="8.095619747875821"><ele>665.0</ele><time>2026-04-19T13:58:16.951Z</time></trkpt><trkpt lat="45.77502460955373" lon="8.095727431197666"><ele>664.75</ele><time>2026-04-19T13:58:17.951Z</time></trkpt><trkpt lat="45.775121895581925" lon="8.095843139250627"><ele>664.5</ele><time>2026-04-19T13:58:18.951Z</time></trkpt><trkpt lat="45.77522279449781" lon="8.095964221053917"><ele>664.25</ele><time>2026-04-19T13:58:19.951Z</time></trkpt><trkpt lat="45.77533159369802" lon="8.096083666103192"><ele>664.0</ele><time>2026-04-19T13:58:20.951Z</time></trkpt><trkpt lat="45.77544466230791" lon="8.09620247744232"><ele>664.5</ele><time>2026-04-19T13:58:21.951Z</time></trkpt><trkpt lat="45.7755573637358" lon="8.09632410909191"><ele>665.0</ele><time>2026-04-19T13:58:22.951Z</time></trkpt><trkpt lat="45.77566468688379" lon="8.096456981419355"><ele>665.5</ele><time>2026-04-19T13:58:23.951Z</time></trkpt><trkpt lat="45.77577206366984" lon="8.096590431485657"><ele>666.0</ele><time>2026-04-19T13:58:24.951Z</time></trkpt><trkpt lat="45.775878682829955" lon="8.096718229593302"><ele>666.25</ele><time>2026-04-19T13:58:25.951Z</time></trkpt><trkpt lat="45.77598743770883" lon="8.096843710149603"><ele>666.5</ele><time>2026-04-19T13:58:26.951Z</time></trkpt><trkpt lat="45.77609608975686" lon="8.096971077534336"><ele>666.75</ele><time>2026-04-19T13:58:27.951Z</time></trkpt><trkpt lat="45.77620709337266" lon="8.097094198404777"><ele>667.0</ele><time>2026-04-19T13:58:28.951Z</time></trkpt><trkpt lat="45.77631791127337" lon="8.097219875277958"><ele>667.0</ele><time>2026-04-19T13:58:29.951Z</time></trkpt><trkpt lat="45.776424614721094" lon="8.097351371930376"><ele>667.0</ele><time>2026-04-19T13:58:30.951Z</time></trkpt><trkpt lat="45.77652435927156" lon="8.097487477550132"><ele>667.0</ele><time>2026-04-19T13:58:31.951Z</time></trkpt><trkpt lat="45.77661309030671" lon="8.0976322138271"><ele>667.0</ele><time>2026-04-19T13:58:32.951Z</time></trkpt><trkpt lat="45.77669075913812" lon="8.097784749851378"><ele>666.5</ele><time>2026-04-19T13:58:33.951Z</time></trkpt><trkpt lat="45.77675640992614" lon="8.097949691940316"><ele>666.0</ele><time>2026-04-19T13:58:34.951Z</time></trkpt><trkpt lat="45.77681517759574" lon="8.098129125075104"><ele>665.5</ele><time>2026-04-19T13:58:35.951Z</time></trkpt><trkpt lat="45.77687127434083" lon="8.098315070290926"><ele>665.0</ele><time>2026-04-19T13:58:36.951Z</time></trkpt><trkpt lat="45.77692537099986" lon="8.098506083410541"><ele>668.0</ele><time>2026-04-19T13:58:37.951Z</time></trkpt><trkpt lat="45.77698455391432" lon="8.098698040270023"><ele>671.0</ele><time>2026-04-19T13:58:38.951Z</time></trkpt><trkpt lat="45.77705209999302" lon="8.098886855211921"><ele>674.0</ele><time>2026-04-19T13:58:39.951Z</time></trkpt><trkpt lat="45.777131229768074" lon="8.099069645048104"><ele>677.0</ele><time>2026-04-19T13:58:40.951Z</time></trkpt><trkpt lat="45.77721960078874" lon="8.099245016276667"><ele>677.0</ele><time>2026-04-19T13:58:41.952Z</time></trkpt><trkpt lat="45.77731893830524" lon="8.09941342091268"><ele>677.0</ele><time>2026-04-19T13:58:42.952Z</time></trkpt><trkpt lat="45.77742982345243" lon="8.09957773169902"><ele>677.0</ele><time>2026-04-19T13:58:43.952Z</time></trkpt><trkpt lat="45.77753992621357" lon="8.099727324705125"><ele>677.0</ele><time>2026-04-19T13:58:44.952Z</time></trkpt><trkpt lat="45.777645213894886" lon="8.09986691429783"><ele>677.0</ele><time>2026-04-19T13:58:45.952Z</time></trkpt><trkpt lat="45.77774471784536" lon="8.09998699634456"><ele>677.0</ele><time>2026-04-19T13:58:46.952Z</time></trkpt><trkpt lat="45.777829243575326" lon="8.100090595925318"><ele>677.0</ele><time>2026-04-19T13:58:47.952Z</time></trkpt><trkpt lat="45.77789375965655" lon="8.100185489037722"><ele>674.6</ele><time>2026-04-19T13:58:48.952Z</time></trkpt><trkpt lat="45.777945673946576" lon="8.100261782058114"><ele>672.2</ele><time>2026-04-19T13:58:49.952Z</time></trkpt><trkpt lat="45.778018410911365" lon="8.100367481206854"><ele>669.8</ele><time>2026-04-19T13:58:51.952Z</time></trkpt><trkpt lat="45.77807542463925" lon="8.100426501324787"><ele>667.4</ele><time>2026-04-19T14:00:37.951Z</time></trkpt><trkpt lat="45.77818300002397" lon="8.10047470961466"><ele>665.0</ele><time>2026-04-19T14:00:40.951Z</time></trkpt><trkpt lat="45.77829041925396" lon="8.100596852621416"><ele>665.0</ele><time>2026-04-19T14:00:42.951Z</time></trkpt><trkpt lat="45.77835514712139" lon="8.10067258418929"><ele>665.0</ele><time>2026-04-19T14:00:43.951Z</time></trkpt><trkpt lat="45.77843846487992" lon="8.100762388490217"><ele>665.0</ele><time>2026-04-19T14:00:44.951Z</time></trkpt><trkpt lat="45.77852790362947" lon="8.100863887750902"><ele>665.0</ele><time>2026-04-19T14:00:45.951Z</time></trkpt><trkpt lat="45.7786294006252" lon="8.100972934506428"><ele>665.0</ele><time>2026-04-19T14:00:46.951Z</time></trkpt><trkpt lat="45.77873781648413" lon="8.10109582040367"><ele>663.0</ele><time>2026-04-19T14:00:47.951Z</time></trkpt><trkpt lat="45.77884808628537" lon="8.101227762111122"><ele>661.0</ele><time>2026-04-19T14:00:48.951Z</time></trkpt><trkpt lat="45.778963982598455" lon="8.101373060378046"><ele>659.0</ele><time>2026-04-19T14:00:49.951Z</time></trkpt><trkpt lat="45.779076725368924" lon="8.101534877177624"><ele>656.3333333333333</ele><time>2026-04-19T14:00:50.951Z</time></trkpt><trkpt lat="45.779193315282036" lon="8.101708281453414"><ele>653.6666666666666</ele><time>2026-04-19T14:00:51.951Z</time></trkpt><trkpt lat="45.77930660638312" lon="8.101898099338218"><ele>651.0</ele><time>2026-04-19T14:00:52.951Z</time></trkpt><trkpt lat="45.7794240269111" lon="8.102087199798886"><ele>652.3333333333334</ele><time>2026-04-19T14:00:53.951Z</time></trkpt><trkpt lat="45.77956334622215" lon="8.102286434373717"><ele>653.6666666666667</ele><time>2026-04-19T14:00:54.951Z</time></trkpt><trkpt lat="45.77972176764892" lon="8.102474537772125"><ele>655.0</ele><time>2026-04-19T14:00:55.951Z</time></trkpt><trkpt lat="45.77987887819882" lon="8.102657475886234"><ele>655.0</ele><time>2026-04-19T14:00:56.951Z</time></trkpt><trkpt lat="45.78003047633414" lon="8.102831550424733"><ele>655.0</ele><time>2026-04-19T14:00:57.951Z</time></trkpt><trkpt lat="45.78017310174616" lon="8.102996316720105"><ele>655.0</ele><time>2026-04-19T14:00:58.951Z</time></trkpt><trkpt lat="45.78030922837035" lon="8.103155757988356"><ele>656.3333333333334</ele><time>2026-04-19T14:00:59.951Z</time></trkpt><trkpt lat="45.78044579543425" lon="8.10331565144024"><ele>657.6666666666666</ele><time>2026-04-19T14:01:00.951Z</time></trkpt><trkpt lat="45.78058430716764" lon="8.103479994912222"><ele>659.0</ele><time>2026-04-19T14:01:01.951Z</time></trkpt><trkpt lat="45.780721449029905" lon="8.103650643435953"><ele>659.0</ele><time>2026-04-19T14:01:02.951Z</time></trkpt><trkpt lat="45.78084499945473" lon="8.10384222613356"><ele>659.0</ele><time>2026-04-19T14:01:03.951Z</time></trkpt><trkpt lat="45.78095481670967" lon="8.10405097555306"><ele>659.0</ele><time>2026-04-19T14:01:04.951Z</time></trkpt><trkpt lat="45.78104511345552" lon="8.10429048725887"><ele>660.3333333333333</ele><time>2026-04-19T14:01:05.951Z</time></trkpt><trkpt lat="45.781142939538306" lon="8.104515430435178"><ele>661.6666666666666</ele><time>2026-04-19T14:01:06.951Z</time></trkpt><trkpt lat="45.78125777434046" lon="8.104724971652724"><ele>663.0</ele><time>2026-04-19T14:01:07.951Z</time></trkpt><trkpt lat="45.78138992412957" lon="8.104909416660497"><ele>657.3333333333334</ele><time>2026-04-19T14:01:08.952Z</time></trkpt><trkpt lat="45.78153409114239" lon="8.105074531356362"><ele>651.6666666666667</ele><time>2026-04-19T14:01:09.952Z</time></trkpt><trkpt lat="45.781681610931834" lon="8.105211736458275"><ele>646.0</ele><time>2026-04-19T14:01:10.952Z</time></trkpt><trkpt lat="45.78183425719189" lon="8.10531949898817"><ele>651.3333333333334</ele><time>2026-04-19T14:01:11.952Z</time></trkpt><trkpt lat="45.78198804394558" lon="8.105412649707464"><ele>656.6666666666666</ele><time>2026-04-19T14:01:12.952Z</time></trkpt><trkpt lat="45.782143960484525" lon="8.105484130214375"><ele>662.0</ele><time>2026-04-19T14:01:13.952Z</time></trkpt><trkpt lat="45.782295706603556" lon="8.10555650151317"><ele>662.0</ele><time>2026-04-19T14:01:14.952Z</time></trkpt><trkpt lat="45.78244328391335" lon="8.105644034522873"><ele>662.0</ele><time>2026-04-19T14:01:15.952Z</time></trkpt><trkpt lat="45.78258543242905" lon="8.10574251396631"><ele>662.0</ele><time>2026-04-19T14:01:16.952Z</time></trkpt><trkpt lat="45.78272123257776" lon="8.105851459270163"><ele>659.75</ele><time>2026-04-19T14:01:17.952Z</time></trkpt><trkpt lat="45.782846982081445" lon="8.105970260459596"><ele>657.5</ele><time>2026-04-19T14:01:18.952Z</time></trkpt><trkpt lat="45.78296158027806" lon="8.10609084362647"><ele>655.25</ele><time>2026-04-19T14:01:19.952Z</time></trkpt><trkpt lat="45.783074727851194" lon="8.106208799362566"><ele>653.0</ele><time>2026-04-19T14:01:20.952Z</time></trkpt><trkpt lat="45.783185718867685" lon="8.106328053385855"><ele>653.0</ele><time>2026-04-19T14:01:21.952Z</time></trkpt><trkpt lat="45.78328643705265" lon="8.106454146204296"><ele>653.0</ele><time>2026-04-19T14:01:22.952Z</time></trkpt><trkpt lat="45.78338353695287" lon="8.106582655462535"><ele>653.0</ele><time>2026-04-19T14:01:23.952Z</time></trkpt><trkpt lat="45.78347862457281" lon="8.10671678095862"><ele>653.0</ele><time>2026-04-19T14:01:24.952Z</time></trkpt><trkpt lat="45.783576954960225" lon="8.106851119060028"><ele>650.75</ele><time>2026-04-19T14:01:25.952Z</time></trkpt><trkpt lat="45.78367964373455" lon="8.106987579901567"><ele>648.5</ele><time>2026-04-19T14:01:26.952Z</time></trkpt><trkpt lat="45.783798242988574" lon="8.107110380767603"><ele>646.25</ele><time>2026-04-19T14:01:27.949Z</time></trkpt><trkpt lat="45.783924233782734" lon="8.107231572040773"><ele>644.0</ele><time>2026-04-19T14:01:28.949Z</time></trkpt><trkpt lat="45.78405760907743" lon="8.10734551430862"><ele>642.3333333333333</ele><time>2026-04-19T14:01:29.949Z</time></trkpt><trkpt lat="45.784198023409026" lon="8.107453749876822"><ele>640.6666666666666</ele><time>2026-04-19T14:01:30.949Z</time></trkpt><trkpt lat="45.784342220169684" lon="8.107555634605658"><ele>639.0</ele><time>2026-04-19T14:01:31.949Z</time></trkpt><trkpt lat="45.78448399823389" lon="8.107653491493128"><ele>639.0</ele><time>2026-04-19T14:01:32.949Z</time></trkpt><trkpt lat="45.784621425617125" lon="8.1077452262636"><ele>639.0</ele><time>2026-04-19T14:01:33.949Z</time></trkpt><trkpt lat="45.784746888940354" lon="8.107838712226663"><ele>639.0</ele><time>2026-04-19T14:01:34.949Z</time></trkpt><trkpt lat="45.78486808027875" lon="8.10792377919729"><ele>639.0</ele><time>2026-04-19T14:01:35.949Z</time></trkpt><trkpt lat="45.78498234113045" lon="8.108003162480227"><ele>639.0</ele><time>2026-04-19T14:01:36.949Z</time></trkpt><trkpt lat="45.78510055533753" lon="8.108083640864473"><ele>639.0</ele><time>2026-04-19T14:01:37.949Z</time></trkpt><trkpt lat="45.78522579336001" lon="8.108160495609203"><ele>639.0</ele><time>2026-04-19T14:01:38.949Z</time></trkpt><trkpt lat="45.78535406379332" lon="8.108240445498291"><ele>639.0</ele><time>2026-04-19T14:01:39.949Z</time></trkpt><trkpt lat="45.78548615973151" lon="8.108320756047297"><ele>637.5</ele><time>2026-04-19T14:01:40.949Z</time></trkpt><trkpt lat="45.785622310398885" lon="8.108392940448772"><ele>636.0</ele><time>2026-04-19T14:01:41.949Z</time></trkpt><trkpt lat="45.78576315966547" lon="8.108462233117821"><ele>634.5</ele><time>2026-04-19T14:01:42.949Z</time></trkpt><trkpt lat="45.78589735163956" lon="8.108522894973891"><ele>633.0</ele><time>2026-04-19T14:01:43.949Z</time></trkpt><trkpt lat="45.78602226607891" lon="8.1085749011057"><ele>638.25</ele><time>2026-04-19T14:01:44.949Z</time></trkpt><trkpt lat="45.78613999783565" lon="8.10862244131076"><ele>643.5</ele><time>2026-04-19T14:01:45.949Z</time></trkpt><trkpt lat="45.786254004941" lon="8.108665780613935"><ele>648.75</ele><time>2026-04-19T14:01:46.949Z</time></trkpt><trkpt lat="45.78636320629711" lon="8.108706785117128"><ele>654.0</ele><time>2026-04-19T14:01:47.949Z</time></trkpt><trkpt lat="45.78646497286554" lon="8.10874635481625"><ele>654.0</ele><time>2026-04-19T14:01:48.949Z</time></trkpt><trkpt lat="45.78656559059881" lon="8.108804567705715"><ele>654.0</ele><time>2026-04-19T14:01:49.949Z</time></trkpt><trkpt lat="45.786663730742696" lon="8.108888039849463"><ele>654.0</ele><time>2026-04-19T14:01:50.95Z</time></trkpt><trkpt lat="45.78676264258892" lon="8.1089909555832"><ele>654.0</ele><time>2026-04-19T14:01:51.95Z</time></trkpt><trkpt lat="45.78686421502783" lon="8.109088711673776"><ele>650.4000000000001</ele><time>2026-04-19T14:01:52.95Z</time></trkpt><trkpt lat="45.78695886743505" lon="8.109178416469966"><ele>646.8000000000001</ele><time>2026-04-19T14:01:53.95Z</time></trkpt><trkpt lat="45.78705298713813" lon="8.109261615705682"><ele>643.2</ele><time>2026-04-19T14:01:54.95Z</time></trkpt><trkpt lat="45.78713748278228" lon="8.109342700295992"><ele>639.6</ele><time>2026-04-19T14:01:55.95Z</time></trkpt><trkpt lat="45.7872320446613" lon="8.109409792676075"><ele>636.0</ele><time>2026-04-19T14:01:56.95Z</time></trkpt><trkpt lat="45.78733387270412" lon="8.109474245525808"><ele>636.0</ele><time>2026-04-19T14:01:57.95Z</time></trkpt><trkpt lat="45.787442128968856" lon="8.109541195920055"><ele>636.0</ele><time>2026-04-19T14:01:58.95Z</time></trkpt><trkpt lat="45.7875601265547" lon="8.109599025927489"><ele>636.0</ele><time>2026-04-19T14:01:59.95Z</time></trkpt><trkpt lat="45.787680025365084" lon="8.109652315408484"><ele>636.0</ele><time>2026-04-19T14:02:00.95Z</time></trkpt><trkpt lat="45.78779946330665" lon="8.109717077720552"><ele>637.0</ele><time>2026-04-19T14:02:01.95Z</time></trkpt><trkpt lat="45.787927682184865" lon="8.109765554469712"><ele>638.0</ele><time>2026-04-19T14:02:02.95Z</time></trkpt><trkpt lat="45.78805347607343" lon="8.10981847120823"><ele>639.0</ele><time>2026-04-19T14:02:03.95Z</time></trkpt><trkpt lat="45.78817053029084" lon="8.109872990974075"><ele>640.0</ele><time>2026-04-19T14:02:04.95Z</time></trkpt><trkpt lat="45.788290676786744" lon="8.109922457103497"><ele>637.25</ele><time>2026-04-19T14:02:05.95Z</time></trkpt><trkpt lat="45.788408531046976" lon="8.109995124041625"><ele>634.5</ele><time>2026-04-19T14:02:06.95Z</time></trkpt><trkpt lat="45.788528246508704" lon="8.110071076456563"><ele>631.75</ele><time>2026-04-19T14:02:07.95Z</time></trkpt><trkpt lat="45.788642394436465" lon="8.110147142987048"><ele>629.0</ele><time>2026-04-19T14:02:08.95Z</time></trkpt><trkpt lat="45.788753713360826" lon="8.110233375331113"><ele>629.0</ele><time>2026-04-19T14:02:09.95Z</time></trkpt><trkpt lat="45.78886391720488" lon="8.110324951383301"><ele>629.0</ele><time>2026-04-19T14:02:10.95Z</time></trkpt><trkpt lat="45.788976210452994" lon="8.110417656435525"><ele>629.0</ele><time>2026-04-19T14:02:11.95Z</time></trkpt><trkpt lat="45.78909192131483" lon="8.11050546887342"><ele>629.0</ele><time>2026-04-19T14:02:12.95Z</time></trkpt><trkpt lat="45.78921049764784" lon="8.11059486901556"><ele>629.0</ele><time>2026-04-19T14:02:13.95Z</time></trkpt><trkpt lat="45.7893284461912" lon="8.11068739936268"><ele>629.0</ele><time>2026-04-19T14:02:14.95Z</time></trkpt><trkpt lat="45.789447212356606" lon="8.110782704098597"><ele>629.0</ele><time>2026-04-19T14:02:15.95Z</time></trkpt><trkpt lat="45.78956647728697" lon="8.110881486590628"><ele>629.0</ele><time>2026-04-19T14:02:16.95Z</time></trkpt><trkpt lat="45.78968683480211" lon="8.110978217865286"><ele>626.75</ele><time>2026-04-19T14:02:17.95Z</time></trkpt><trkpt lat="45.789806028789656" lon="8.1110770809142"><ele>624.5</ele><time>2026-04-19T14:02:18.95Z</time></trkpt><trkpt lat="45.78992614372639" lon="8.111173993730528"><ele>622.25</ele><time>2026-04-19T14:02:19.95Z</time></trkpt><trkpt lat="45.79004959919375" lon="8.111266233241846"><ele>620.0</ele><time>2026-04-19T14:02:20.95Z</time></trkpt><trkpt lat="45.790169999082764" lon="8.111358694670972"><ele>621.0</ele><time>2026-04-19T14:02:21.95Z</time></trkpt><trkpt lat="45.79029237670886" lon="8.111452079412953"><ele>622.0</ele><time>2026-04-19T14:02:22.95Z</time></trkpt><trkpt lat="45.79041189832746" lon="8.111544683863588"><ele>623.0</ele><time>2026-04-19T14:02:23.95Z</time></trkpt><trkpt lat="45.790530141694596" lon="8.111636437093146"><ele>624.0</ele><time>2026-04-19T14:02:24.95Z</time></trkpt><trkpt lat="45.79064863590671" lon="8.111730959787673"><ele>624.0</ele><time>2026-04-19T14:02:25.95Z</time></trkpt><trkpt lat="45.790766186131066" lon="8.111821011687221"><ele>624.0</ele><time>2026-04-19T14:02:26.95Z</time></trkpt><trkpt lat="45.79088358053763" lon="8.111909051766872"><ele>624.0</ele><time>2026-04-19T14:02:27.95Z</time></trkpt><trkpt lat="45.79099278235551" lon="8.111993765549979"><ele>624.0</ele><time>2026-04-19T14:02:28.95Z</time></trkpt><trkpt lat="45.79109672631676" lon="8.112072730257847"><ele>624.5</ele><time>2026-04-19T14:02:29.95Z</time></trkpt><trkpt lat="45.791198195510795" lon="8.11214971800371"><ele>625.0</ele><time>2026-04-19T14:02:30.95Z</time></trkpt><trkpt lat="45.791300972160634" lon="8.112229007400204"><ele>625.5</ele><time>2026-04-19T14:02:31.95Z</time></trkpt><trkpt lat="45.79140426130626" lon="8.112316402398587"><ele>626.0</ele><time>2026-04-19T14:02:32.95Z</time></trkpt><trkpt lat="45.79150901904435" lon="8.112404439240269"><ele>625.5</ele><time>2026-04-19T14:02:33.95Z</time></trkpt><trkpt lat="45.79162326462161" lon="8.112486988267205"><ele>625.0</ele><time>2026-04-19T14:02:34.95Z</time></trkpt><trkpt lat="45.791738864023685" lon="8.112569128356059"><ele>624.5</ele><time>2026-04-19T14:02:35.951Z</time></trkpt><trkpt lat="45.791858966355534" lon="8.11264641565836"><ele>624.0</ele><time>2026-04-19T14:02:36.951Z</time></trkpt><trkpt lat="45.79198083268044" lon="8.112718151111492"><ele>624.0</ele><time>2026-04-19T14:02:37.951Z</time></trkpt><trkpt lat="45.79210707888105" lon="8.11278311048864"><ele>624.0</ele><time>2026-04-19T14:02:38.951Z</time></trkpt><trkpt lat="45.79223324203812" lon="8.112847215902665"><ele>624.0</ele><time>2026-04-19T14:02:39.951Z</time></trkpt><trkpt lat="45.79235435816979" lon="8.112913364373506"><ele>624.0</ele><time>2026-04-19T14:02:40.951Z</time></trkpt><trkpt lat="45.79247519571198" lon="8.112978228972912"><ele>624.0</ele><time>2026-04-19T14:02:41.951Z</time></trkpt><trkpt lat="45.79259368469218" lon="8.11304712326905"><ele>624.0</ele><time>2026-04-19T14:02:42.951Z</time></trkpt><trkpt lat="45.79271655009005" lon="8.113109479876822"><ele>624.0</ele><time>2026-04-19T14:02:43.951Z</time></trkpt><trkpt lat="45.7928406718243" lon="8.113177411114012"><ele>624.0</ele><time>2026-04-19T14:02:44.951Z</time></trkpt><trkpt lat="45.79296549360993" lon="8.113243000714546"><ele>623.25</ele><time>2026-04-19T14:02:45.951Z</time></trkpt><trkpt lat="45.793087318622234" lon="8.113317407601677"><ele>622.5</ele><time>2026-04-19T14:02:46.951Z</time></trkpt><trkpt lat="45.79321343950813" lon="8.11339146848704"><ele>621.75</ele><time>2026-04-19T14:02:47.951Z</time></trkpt><trkpt lat="45.7933416629528" lon="8.11346520277406"><ele>621.0</ele><time>2026-04-19T14:02:48.951Z</time></trkpt><trkpt lat="45.79346857966819" lon="8.113536936889997"><ele>621.25</ele><time>2026-04-19T14:02:49.951Z</time></trkpt><trkpt lat="45.79359566176254" lon="8.11360752401108"><ele>621.5</ele><time>2026-04-19T14:02:50.951Z</time></trkpt><trkpt lat="45.793725581043965" lon="8.113679135195717"><ele>621.75</ele><time>2026-04-19T14:02:51.951Z</time></trkpt><trkpt lat="45.79385554319245" lon="8.113749564620937"><ele>622.0</ele><time>2026-04-19T14:02:52.951Z</time></trkpt><trkpt lat="45.79398410372663" lon="8.11382163383334"><ele>622.0</ele><time>2026-04-19T14:02:53.951Z</time></trkpt><trkpt lat="45.79411560929407" lon="8.113892912852604"><ele>622.0</ele><time>2026-04-19T14:02:54.951Z</time></trkpt><trkpt lat="45.79424378384115" lon="8.113965576479028"><ele>622.0</ele><time>2026-04-19T14:02:55.951Z</time></trkpt><trkpt lat="45.79436899653479" lon="8.11403479837477"><ele>622.0</ele><time>2026-04-19T14:02:56.951Z</time></trkpt><trkpt lat="45.794491087584305" lon="8.114100332170159"><ele>620.0</ele><time>2026-04-19T14:02:57.951Z</time></trkpt><trkpt lat="45.79461567553091" lon="8.114175364237472"><ele>618.0</ele><time>2026-04-19T14:02:58.951Z</time></trkpt><trkpt lat="45.79474351966662" lon="8.11425146788162"><ele>616.0</ele><time>2026-04-19T14:02:59.951Z</time></trkpt><trkpt lat="45.794876016847084" lon="8.114324218992177"><ele>614.0</ele><time>2026-04-19T14:03:00.951Z</time></trkpt><trkpt lat="45.795011266614004" lon="8.114397376973685"><ele>614.0</ele><time>2026-04-19T14:03:01.951Z</time></trkpt><trkpt lat="45.79514719845669" lon="8.114470554339075"><ele>614.0</ele><time>2026-04-19T14:03:02.951Z</time></trkpt><trkpt lat="45.79528303980362" lon="8.114543732753688"><ele>614.0</ele><time>2026-04-19T14:03:03.951Z</time></trkpt><trkpt lat="45.79541885578887" lon="8.11462033053225"><ele>614.0</ele><time>2026-04-19T14:03:04.951Z</time></trkpt><trkpt lat="45.79555713365875" lon="8.11469768365831"><ele>613.6666666666666</ele><time>2026-04-19T14:03:05.951Z</time></trkpt><trkpt lat="45.79570015196687" lon="8.114776071367448"><ele>613.3333333333334</ele><time>2026-04-19T14:03:06.951Z</time></trkpt><trkpt lat="45.79584524159085" lon="8.114852656138874"><ele>613.0</ele><time>2026-04-19T14:03:07.951Z</time></trkpt><trkpt lat="45.795992637491246" lon="8.11493105984578"><ele>611.6666666666667</ele><time>2026-04-19T14:03:08.951Z</time></trkpt><trkpt lat="45.79614515333456" lon="8.115013506862832"><ele>610.3333333333334</ele><time>2026-04-19T14:03:09.951Z</time></trkpt><trkpt lat="45.796298994453885" lon="8.115097551749903"><ele>609.0</ele><time>2026-04-19T14:03:10.951Z</time></trkpt><trkpt lat="45.79645608714191" lon="8.115178272041769"><ele>609.0</ele><time>2026-04-19T14:03:11.951Z</time></trkpt><trkpt lat="45.796611524057795" lon="8.11525391558283"><ele>609.0</ele><time>2026-04-19T14:03:12.951Z</time></trkpt><trkpt lat="45.79676185725817" lon="8.115331828266434"><ele>609.0</ele><time>2026-04-19T14:03:13.951Z</time></trkpt><trkpt lat="45.79690679762386" lon="8.115412271621151"><ele>612.0</ele><time>2026-04-19T14:03:14.951Z</time></trkpt><trkpt lat="45.797050585434874" lon="8.115493099204427"><ele>615.0</ele><time>2026-04-19T14:03:15.951Z</time></trkpt><trkpt lat="45.79719171616658" lon="8.115576210019842"><ele>618.0</ele><time>2026-04-19T14:03:16.951Z</time></trkpt><trkpt lat="45.797329406409965" lon="8.11565991130134"><ele>618.0</ele><time>2026-04-19T14:03:17.951Z</time></trkpt><trkpt lat="45.79746420625002" lon="8.115741347892534"><ele>618.0</ele><time>2026-04-19T14:03:18.951Z</time></trkpt><trkpt lat="45.797597324198456" lon="8.115821625477466"><ele>618.0</ele><time>2026-04-19T14:03:19.951Z</time></trkpt><trkpt lat="45.797722583366046" lon="8.11590345494365"><ele>618.0</ele><time>2026-04-19T14:03:20.952Z</time></trkpt><trkpt lat="45.79783713815984" lon="8.115986543321215"><ele>618.0</ele><time>2026-04-19T14:03:21.952Z</time></trkpt><trkpt lat="45.79794558543287" lon="8.11607225734605"><ele>618.0</ele><time>2026-04-19T14:03:22.952Z</time></trkpt><trkpt lat="45.79804761234629" lon="8.116161173639444"><ele>618.0</ele><time>2026-04-19T14:03:23.952Z</time></trkpt><trkpt lat="45.79813992075663" lon="8.116253269210155"><ele>618.0</ele><time>2026-04-19T14:03:24.952Z</time></trkpt><trkpt lat="45.7982186312764" lon="8.116353515742247"><ele>618.0</ele><time>2026-04-19T14:03:25.952Z</time></trkpt><trkpt lat="45.798287826580456" lon="8.116470208698942"><ele>618.0</ele><time>2026-04-19T14:03:26.952Z</time></trkpt><trkpt lat="45.79836303794748" lon="8.11658665544831"><ele>618.0</ele><time>2026-04-19T14:03:27.952Z</time></trkpt><trkpt lat="45.79843851873909" lon="8.116710031197647"><ele>618.0</ele><time>2026-04-19T14:03:28.952Z</time></trkpt><trkpt lat="45.79852158263541" lon="8.116837182210334"><ele>618.75</ele><time>2026-04-19T14:03:29.952Z</time></trkpt><trkpt lat="45.79860775459604" lon="8.116974782501499"><ele>619.5</ele><time>2026-04-19T14:03:30.952Z</time></trkpt><trkpt lat="45.798691218332564" lon="8.117126477939285"><ele>620.25</ele><time>2026-04-19T14:03:31.952Z</time></trkpt><trkpt lat="45.79878436262931" lon="8.1172768119417"><ele>621.0</ele><time>2026-04-19T14:03:32.952Z</time></trkpt><trkpt lat="45.798882059107385" lon="8.117431633921962"><ele>618.6666666666666</ele><time>2026-04-19T14:03:33.948Z</time></trkpt><trkpt lat="45.79898733491204" lon="8.117581913034396"><ele>616.3333333333333</ele><time>2026-04-19T14:03:34.948Z</time></trkpt><trkpt lat="45.79910072737351" lon="8.11773137492923"><ele>614.0</ele><time>2026-04-19T14:03:35.948Z</time></trkpt><trkpt lat="45.799227002982164" lon="8.11785705191998"><ele>617.0</ele><time>2026-04-19T14:03:36.949Z</time></trkpt><trkpt lat="45.7993650841856" lon="8.11796427696372"><ele>620.0</ele><time>2026-04-19T14:03:37.949Z</time></trkpt><trkpt lat="45.799512437833215" lon="8.118055265485996"><ele>623.0</ele><time>2026-04-19T14:03:38.949Z</time></trkpt><trkpt lat="45.799661451592044" lon="8.11813512984059"><ele>623.0</ele><time>2026-04-19T14:03:39.949Z</time></trkpt><trkpt lat="45.799813872925654" lon="8.118210900715807"><ele>623.0</ele><time>2026-04-19T14:03:40.948Z</time></trkpt><trkpt lat="45.79997267494317" lon="8.11827994016829"><ele>623.0</ele><time>2026-04-19T14:03:41.948Z</time></trkpt><trkpt lat="45.80013280222479" lon="8.118341234761019"><ele>620.0</ele><time>2026-04-19T14:03:42.948Z</time></trkpt><trkpt lat="45.8002961754778" lon="8.118395499185663"><ele>617.0</ele><time>2026-04-19T14:03:43.949Z</time></trkpt><trkpt lat="45.80046028458725" lon="8.118440064584645"><ele>614.0</ele><time>2026-04-19T14:03:44.949Z</time></trkpt><trkpt lat="45.800618706514435" lon="8.118481762082528"><ele>614.0</ele><time>2026-04-19T14:03:45.949Z</time></trkpt><trkpt lat="45.80077106479915" lon="8.118518652816423"><ele>614.0</ele><time>2026-04-19T14:03:46.948Z</time></trkpt><trkpt lat="45.80091226429203" lon="8.118553450390033"><ele>614.0</ele><time>2026-04-19T14:03:47.948Z</time></trkpt><trkpt lat="45.801045994254046" lon="8.118586456048238"><ele>614.0</ele><time>2026-04-19T14:03:48.948Z</time></trkpt><trkpt lat="45.8011706469815" lon="8.118623092789605"><ele>615.5</ele><time>2026-04-19T14:03:49.948Z</time></trkpt><trkpt lat="45.801287156363976" lon="8.118679742918333"><ele>617.0</ele><time>2026-04-19T14:03:50.948Z</time></trkpt><trkpt lat="45.80138625931545" lon="8.118763854150195"><ele>618.5</ele><time>2026-04-19T14:03:51.948Z</time></trkpt><trkpt lat="45.80147883232041" lon="8.118844401729515"><ele>620.0</ele><time>2026-04-19T14:03:52.948Z</time></trkpt><trkpt lat="45.8015835320644" lon="8.118886866259007"><ele>620.0</ele><time>2026-04-19T14:03:53.948Z</time></trkpt><trkpt lat="45.801696070299165" lon="8.118926517316229"><ele>620.0</ele><time>2026-04-19T14:03:54.948Z</time></trkpt><trkpt lat="45.80179723783809" lon="8.119027502616715"><ele>620.0</ele><time>2026-04-19T14:03:55.948Z</time></trkpt><trkpt lat="45.801901299978574" lon="8.119160518439488"><ele>620.0</ele><time>2026-04-19T14:03:56.949Z</time></trkpt><trkpt lat="45.802014413320464" lon="8.119299971318245"><ele>617.6666666666666</ele><time>2026-04-19T14:03:57.949Z</time></trkpt><trkpt lat="45.802130251368574" lon="8.119440151218942"><ele>615.3333333333334</ele><time>2026-04-19T14:03:58.949Z</time></trkpt><trkpt lat="45.80224987559031" lon="8.119569387420436"><ele>613.0</ele><time>2026-04-19T14:03:59.949Z</time></trkpt><trkpt lat="45.802389174411395" lon="8.119682779701412"><ele>613.0</ele><time>2026-04-19T14:04:00.949Z</time></trkpt><trkpt lat="45.8025419607904" lon="8.119782850374675"><ele>613.0</ele><time>2026-04-19T14:04:01.949Z</time></trkpt><trkpt lat="45.80271052510624" lon="8.119859903353303"><ele>613.0</ele><time>2026-04-19T14:04:02.949Z</time></trkpt><trkpt lat="45.802888463556954" lon="8.119913146431182"><ele>610.3333333333334</ele><time>2026-04-19T14:04:03.949Z</time></trkpt><trkpt lat="45.80307476579664" lon="8.119931353773534"><ele>607.6666666666666</ele><time>2026-04-19T14:04:04.949Z</time></trkpt><trkpt lat="45.80325493435272" lon="8.119920474881077"><ele>605.0</ele><time>2026-04-19T14:04:05.949Z</time></trkpt><trkpt lat="45.80342993030225" lon="8.11990877867158"><ele>609.0</ele><time>2026-04-19T14:04:06.949Z</time></trkpt><trkpt lat="45.803597808891816" lon="8.119909795870855"><ele>613.0</ele><time>2026-04-19T14:04:07.949Z</time></trkpt><trkpt lat="45.80376553356033" lon="8.11996140455305"><ele>617.0</ele><time>2026-04-19T14:04:08.949Z</time></trkpt><trkpt lat="45.803929958428604" lon="8.120055345933325"><ele>617.0</ele><time>2026-04-19T14:04:09.949Z</time></trkpt><trkpt lat="45.80407335607422" lon="8.120207084055446"><ele>617.0</ele><time>2026-04-19T14:04:10.949Z</time></trkpt><trkpt lat="45.804196316368035" lon="8.12039724456577"><ele>617.0</ele><time>2026-04-19T14:04:11.949Z</time></trkpt><trkpt lat="45.80429792281942" lon="8.120608850277776"><ele>614.0</ele><time>2026-04-19T14:04:12.949Z</time></trkpt><trkpt lat="45.804417063353846" lon="8.120752583719426"><ele>611.0</ele><time>2026-04-19T14:04:13.949Z</time></trkpt><trkpt lat="45.80448620992281" lon="8.12096381629486"><ele>608.0</ele><time>2026-04-19T14:04:14.949Z</time></trkpt><trkpt lat="45.804566388169675" lon="8.121157466279039"><ele>608.0</ele><time>2026-04-19T14:04:15.949Z</time></trkpt><trkpt lat="45.80466452173041" lon="8.121340935543019"><ele>608.0</ele><time>2026-04-19T14:04:16.949Z</time></trkpt><trkpt lat="45.80477826252981" lon="8.121493914330486"><ele>608.0</ele><time>2026-04-19T14:04:17.949Z</time></trkpt><trkpt lat="45.80490038223605" lon="8.121634574341355"><ele>606.3333333333333</ele><time>2026-04-19T14:04:18.949Z</time></trkpt><trkpt lat="45.805025068021514" lon="8.121775490388611"><ele>604.6666666666666</ele><time>2026-04-19T14:04:19.949Z</time></trkpt><trkpt lat="45.80514983349376" lon="8.121919008513265"><ele>603.0</ele><time>2026-04-19T14:04:20.949Z</time></trkpt><trkpt lat="45.805275561461706" lon="8.122053232510574"><ele>603.0</ele><time>2026-04-19T14:04:21.949Z</time></trkpt><trkpt lat="45.805399100049755" lon="8.122189919419718"><ele>603.0</ele><time>2026-04-19T14:04:22.949Z</time></trkpt><trkpt lat="45.805524636746036" lon="8.12231978782404"><ele>603.0</ele><time>2026-04-19T14:04:23.949Z</time></trkpt><trkpt lat="45.80564982288102" lon="8.12245639511777"><ele>602.6666666666666</ele><time>2026-04-19T14:04:24.949Z</time></trkpt><trkpt lat="45.805775880043285" lon="8.122593060194834"><ele>602.3333333333333</ele><time>2026-04-19T14:04:25.949Z</time></trkpt><trkpt lat="45.80590191103154" lon="8.122728674037893"><ele>602.0</ele><time>2026-04-19T14:04:26.949Z</time></trkpt><trkpt lat="45.80602848584163" lon="8.122872986019612"><ele>602.0</ele><time>2026-04-19T14:04:27.949Z</time></trkpt><trkpt lat="45.806157891328375" lon="8.12301789929356"><ele>602.0</ele><time>2026-04-19T14:04:28.949Z</time></trkpt><trkpt lat="45.80629132355323" lon="8.123152957452207"><ele>602.0</ele><time>2026-04-19T14:04:29.949Z</time></trkpt><trkpt lat="45.806427512110574" lon="8.123292379833151"><ele>602.0</ele><time>2026-04-19T14:04:30.949Z</time></trkpt><trkpt lat="45.80656712306763" lon="8.123427634218993"><ele>602.0</ele><time>2026-04-19T14:04:31.949Z</time></trkpt><trkpt lat="45.80670768775647" lon="8.123573614729443"><ele>602.0</ele><time>2026-04-19T14:04:32.949Z</time></trkpt><trkpt lat="45.806845068610585" lon="8.123719961076707"><ele>602.6666666666666</ele><time>2026-04-19T14:04:33.949Z</time></trkpt><trkpt lat="45.8069852933253" lon="8.123862457491269"><ele>603.3333333333334</ele><time>2026-04-19T14:04:34.949Z</time></trkpt><trkpt lat="45.80712655042362" lon="8.124002646100006"><ele>604.0</ele><time>2026-04-19T14:04:35.949Z</time></trkpt><trkpt lat="45.80727548069988" lon="8.124138429146084"><ele>602.3333333333334</ele><time>2026-04-19T14:04:36.949Z</time></trkpt><trkpt lat="45.80742410850751" lon="8.124287222641938"><ele>600.6666666666666</ele><time>2026-04-19T14:04:37.949Z</time></trkpt><trkpt lat="45.80757769983171" lon="8.1244405233706"><ele>599.0</ele><time>2026-04-19T14:04:38.949Z</time></trkpt><trkpt lat="45.80773548842899" lon="8.12460232300916"><ele>599.0</ele><time>2026-04-19T14:04:39.949Z</time></trkpt><trkpt lat="45.80790403224669" lon="8.124767256599304"><ele>599.0</ele><time>2026-04-19T14:04:40.949Z</time></trkpt><trkpt lat="45.80807282368415" lon="8.124937596433544"><ele>599.0</ele><time>2026-04-19T14:04:41.95Z</time></trkpt><trkpt lat="45.80824371620395" lon="8.125116619468388"><ele>598.3333333333333</ele><time>2026-04-19T14:04:42.95Z</time></trkpt><trkpt lat="45.808415243932814" lon="8.125297893162065"><ele>597.6666666666666</ele><time>2026-04-19T14:04:43.95Z</time></trkpt><trkpt lat="45.808588472357165" lon="8.125476609153703"><ele>597.0</ele><time>2026-04-19T14:04:44.95Z</time></trkpt><trkpt lat="45.8087608288448" lon="8.125660671340635"><ele>597.3333333333334</ele><time>2026-04-19T14:04:45.95Z</time></trkpt><trkpt lat="45.80893892392754" lon="8.125842730657466"><ele>597.6666666666667</ele><time>2026-04-19T14:04:46.95Z</time></trkpt><trkpt lat="45.80911213138407" lon="8.126021962226211"><ele>598.0</ele><time>2026-04-19T14:04:47.95Z</time></trkpt><trkpt lat="45.809281523329" lon="8.126196074219534"><ele>599.6666666666667</ele><time>2026-04-19T14:04:48.95Z</time></trkpt><trkpt lat="45.809444964294606" lon="8.12636597482314"><ele>601.3333333333334</ele><time>2026-04-19T14:04:49.95Z</time></trkpt><trkpt lat="45.809607941422044" lon="8.126530137246593"><ele>603.0</ele><time>2026-04-19T14:04:50.95Z</time></trkpt><trkpt lat="45.809776109531555" lon="8.126681452914195"><ele>603.0</ele><time>2026-04-19T14:04:51.95Z</time></trkpt><trkpt lat="45.80994761981807" lon="8.126824537085756"><ele>603.0</ele><time>2026-04-19T14:04:52.95Z</time></trkpt><trkpt lat="45.81012060930694" lon="8.126956567666502"><ele>603.0</ele><time>2026-04-19T14:04:53.95Z</time></trkpt><trkpt lat="45.810296455781504" lon="8.127069642097235"><ele>601.6666666666666</ele><time>2026-04-19T14:04:54.95Z</time></trkpt><trkpt lat="45.81047839020847" lon="8.127177729895903"><ele>600.3333333333333</ele><time>2026-04-19T14:04:55.95Z</time></trkpt><trkpt lat="45.81065729481826" lon="8.127279764467758"><ele>599.0</ele><time>2026-04-19T14:04:56.95Z</time></trkpt><trkpt lat="45.810832579592" lon="8.127389805812086"><ele>601.0</ele><time>2026-04-19T14:04:57.95Z</time></trkpt><trkpt lat="45.81100864937134" lon="8.127490499971508"><ele>603.0</ele><time>2026-04-19T14:04:58.95Z</time></trkpt><trkpt lat="45.81118476289663" lon="8.12759782948513"><ele>605.0</ele><time>2026-04-19T14:04:59.95Z</time></trkpt><trkpt lat="45.8113613094242" lon="8.12770180788166"><ele>605.0</ele><time>2026-04-19T14:05:00.95Z</time></trkpt><trkpt lat="45.811534819643825" lon="8.127800125653792"><ele>605.0</ele><time>2026-04-19T14:05:01.95Z</time></trkpt><trkpt lat="45.81170628844525" lon="8.127903326363073"><ele>605.0</ele><time>2026-04-19T14:05:02.95Z</time></trkpt><trkpt lat="45.8118756628772" lon="8.128007024674803"><ele>609.0</ele><time>2026-04-19T14:05:03.95Z</time></trkpt><trkpt lat="45.812038695894024" lon="8.128109023842669"><ele>613.0</ele><time>2026-04-19T14:05:04.95Z</time></trkpt><trkpt lat="45.81219835610417" lon="8.128205883737717"><ele>617.0</ele><time>2026-04-19T14:05:05.95Z</time></trkpt><trkpt lat="45.812355572280076" lon="8.128300641273107"><ele>617.0</ele><time>2026-04-19T14:05:06.95Z</time></trkpt><trkpt lat="45.81250982032284" lon="8.12839637077818"><ele>617.0</ele><time>2026-04-19T14:05:07.95Z</time></trkpt><trkpt lat="45.81265957202901" lon="8.128492831539452"><ele>617.0</ele><time>2026-04-19T14:05:08.95Z</time></trkpt><trkpt lat="45.812805211403614" lon="8.128591728076987"><ele>615.0</ele><time>2026-04-19T14:05:09.95Z</time></trkpt><trkpt lat="45.812947548992625" lon="8.128692675596177"><ele>613.0</ele><time>2026-04-19T14:05:10.95Z</time></trkpt><trkpt lat="45.8130879146437" lon="8.128787498400735"><ele>611.0</ele><time>2026-04-19T14:05:11.95Z</time></trkpt><trkpt lat="45.81322634206808" lon="8.128885155581921"><ele>611.0</ele><time>2026-04-19T14:05:12.95Z</time></trkpt><trkpt lat="45.81336039675675" lon="8.128979546640467"><ele>611.0</ele><time>2026-04-19T14:05:13.95Z</time></trkpt><trkpt lat="45.81348684332071" lon="8.129074148991538"><ele>611.0</ele><time>2026-04-19T14:05:14.95Z</time></trkpt><trkpt lat="45.81360757267101" lon="8.129164958268353"><ele>611.0</ele><time>2026-04-19T14:05:15.95Z</time></trkpt><trkpt lat="45.81373036967454" lon="8.129256582986216"><ele>611.5</ele><time>2026-04-19T14:05:16.95Z</time></trkpt><trkpt lat="45.81385816904945" lon="8.129345463184292"><ele>612.0</ele><time>2026-04-19T14:05:17.95Z</time></trkpt><trkpt lat="45.81398628623922" lon="8.129436060466695"><ele>612.5</ele><time>2026-04-19T14:05:18.95Z</time></trkpt><trkpt lat="45.8141154087053" lon="8.129522961476816"><ele>613.0</ele><time>2026-04-19T14:05:19.95Z</time></trkpt><trkpt lat="45.814237882048765" lon="8.129604871890326"><ele>613.75</ele><time>2026-04-19T14:05:20.95Z</time></trkpt><trkpt lat="45.81435337062868" lon="8.129692971267309"><ele>614.5</ele><time>2026-04-19T14:05:21.95Z</time></trkpt><trkpt lat="45.81446240039558" lon="8.129801917032426"><ele>615.25</ele><time>2026-04-19T14:05:22.95Z</time></trkpt><trkpt lat="45.81457053988702" lon="8.129928210145426"><ele>616.0</ele><time>2026-04-19T14:05:23.95Z</time></trkpt><trkpt lat="45.81466040322813" lon="8.13008741286214"><ele>616.0</ele><time>2026-04-19T14:05:24.95Z</time></trkpt><trkpt lat="45.814739104685316" lon="8.130265442792394"><ele>616.0</ele><time>2026-04-19T14:05:25.95Z</time></trkpt><trkpt lat="45.814804722392886" lon="8.130457283408584"><ele>616.0</ele><time>2026-04-19T14:05:26.951Z</time></trkpt><trkpt lat="45.8148833197503" lon="8.130634647305365"><ele>616.0</ele><time>2026-04-19T14:05:27.951Z</time></trkpt><trkpt lat="45.81498715587006" lon="8.130770816423267"><ele>615.0</ele><time>2026-04-19T14:05:28.951Z</time></trkpt><trkpt lat="45.81510666120478" lon="8.130875393768058"><ele>614.0</ele><time>2026-04-19T14:05:29.951Z</time></trkpt><trkpt lat="45.81521180315588" lon="8.13100105630937"><ele>613.0</ele><time>2026-04-19T14:05:30.951Z</time></trkpt><trkpt lat="45.81529226278149" lon="8.131155897836168"><ele>612.0</ele><time>2026-04-19T14:05:31.951Z</time></trkpt><trkpt lat="45.8153401746052" lon="8.131334513151801"><ele>613.75</ele><time>2026-04-19T14:05:32.951Z</time></trkpt><trkpt lat="45.81534408767155" lon="8.131535614389586"><ele>615.5</ele><time>2026-04-19T14:05:33.951Z</time></trkpt><trkpt lat="45.81533445241453" lon="8.13173035905958"><ele>617.25</ele><time>2026-04-19T14:05:34.951Z</time></trkpt><trkpt lat="45.815351022900494" lon="8.131922041591018"><ele>619.0</ele><time>2026-04-19T14:05:35.951Z</time></trkpt><trkpt lat="45.81541258894567" lon="8.13210628033007"><ele>619.0</ele><time>2026-04-19T14:05:36.951Z</time></trkpt><trkpt lat="45.81548799272495" lon="8.132272276688605"><ele>619.0</ele><time>2026-04-19T14:05:37.951Z</time></trkpt><trkpt lat="45.81557051441712" lon="8.132414146242908"><ele>619.0</ele><time>2026-04-19T14:05:38.951Z</time></trkpt><trkpt lat="45.815652595567016" lon="8.132552243007368"><ele>619.0</ele><time>2026-04-19T14:05:39.999Z</time></trkpt><trkpt lat="45.815718053912356" lon="8.132697066728904"><ele>615.0</ele><time>2026-04-19T14:05:40.999Z</time></trkpt><trkpt lat="45.81576386688165" lon="8.132852772371702"><ele>611.0</ele><time>2026-04-19T14:05:41.999Z</time></trkpt><trkpt lat="45.81579572586876" lon="8.133037012938123"><ele>607.0</ele><time>2026-04-19T14:05:43Z</time></trkpt><trkpt lat="45.81580471495449" lon="8.133240054200176"><ele>603.0</ele><time>2026-04-19T14:05:44Z</time></trkpt><trkpt lat="45.81582723718566" lon="8.133434851629847"><ele>603.75</ele><time>2026-04-19T14:05:45Z</time></trkpt><trkpt lat="45.815865665531405" lon="8.1336293079391"><ele>604.5</ele><time>2026-04-19T14:05:46Z</time></trkpt><trkpt lat="45.81591590504235" lon="8.133816743346278"><ele>605.25</ele><time>2026-04-19T14:05:47Z</time></trkpt><trkpt lat="45.81596999119045" lon="8.13400038787012"><ele>606.0</ele><time>2026-04-19T14:05:48Z</time></trkpt><trkpt lat="45.81602492808248" lon="8.13416622221337"><ele>606.0</ele><time>2026-04-19T14:05:49Z</time></trkpt><trkpt lat="45.81607895314509" lon="8.134329975313046"><ele>606.0</ele><time>2026-04-19T14:05:50Z</time></trkpt><trkpt lat="45.81614418507387" lon="8.134483168857491"><ele>606.0</ele><time>2026-04-19T14:05:51Z</time></trkpt><trkpt lat="45.816222149250414" lon="8.134608859558142"><ele>606.0</ele><time>2026-04-19T14:05:52Z</time></trkpt><trkpt lat="45.816316718297486" lon="8.13472497238709"><ele>606.0</ele><time>2026-04-19T14:05:53Z</time></trkpt><trkpt lat="45.81643359124213" lon="8.134810440229137"><ele>606.0</ele><time>2026-04-19T14:05:54Z</time></trkpt><trkpt lat="45.816553053416875" lon="8.134900809160452"><ele>606.0</ele><time>2026-04-19T14:05:55Z</time></trkpt><trkpt lat="45.81667736516422" lon="8.134993128680962"><ele>606.0</ele><time>2026-04-19T14:05:56Z</time></trkpt><trkpt lat="45.81678103189071" lon="8.135142519017698"><ele>604.75</ele><time>2026-04-19T14:05:57Z</time></trkpt><trkpt lat="45.816865541048905" lon="8.135298522408569"><ele>603.5</ele><time>2026-04-19T14:05:58Z</time></trkpt><trkpt lat="45.81693963446042" lon="8.135482205752378"><ele>602.25</ele><time>2026-04-19T14:05:59Z</time></trkpt><trkpt lat="45.817011623381724" lon="8.13566279303158"><ele>601.0</ele><time>2026-04-19T14:06:00.001Z</time></trkpt><trkpt lat="45.81708883167563" lon="8.135840523753737"><ele>593.5</ele><time>2026-04-19T14:06:01.001Z</time></trkpt><trkpt lat="45.81717220479964" lon="8.136020864976746"><ele>586.0</ele><time>2026-04-19T14:06:02.001Z</time></trkpt><trkpt lat="45.81725102517555" lon="8.136204284786347"><ele>578.5</ele><time>2026-04-19T14:06:03.001Z</time></trkpt><trkpt lat="45.81732733474391" lon="8.136374803953387"><ele>571.0</ele><time>2026-04-19T14:06:04.001Z</time></trkpt><trkpt lat="45.817402506146536" lon="8.136541964770101"><ele>571.0</ele><time>2026-04-19T14:06:05.001Z</time></trkpt><trkpt lat="45.81747216544199" lon="8.136704620326052"><ele>571.0</ele><time>2026-04-19T14:06:06.001Z</time></trkpt><trkpt lat="45.817540255632075" lon="8.136865347037405"><ele>571.0</ele><time>2026-04-19T14:06:07.001Z</time></trkpt><trkpt lat="45.817601084115466" lon="8.137018277575502"><ele>571.0</ele><time>2026-04-19T14:06:08.001Z</time></trkpt><trkpt lat="45.817656790482104" lon="8.137177683765179"><ele>571.0</ele><time>2026-04-19T14:06:09.001Z</time></trkpt><trkpt lat="45.81770245344715" lon="8.137344416888675"><ele>571.0</ele><time>2026-04-19T14:06:10.001Z</time></trkpt><trkpt lat="45.817731142715026" lon="8.137542236514857"><ele>571.0</ele><time>2026-04-19T14:06:11.001Z</time></trkpt><trkpt lat="45.817746771661334" lon="8.137750407800985"><ele>571.0</ele><time>2026-04-19T14:06:12.001Z</time></trkpt><trkpt lat="45.817738289156495" lon="8.137975041237032"><ele>569.0</ele><time>2026-04-19T14:06:13.001Z</time></trkpt><trkpt lat="45.817706994590615" lon="8.138198338805589"><ele>567.0</ele><time>2026-04-19T14:06:14.001Z</time></trkpt><trkpt lat="45.817657831832754" lon="8.13841919817708"><ele>565.0</ele><time>2026-04-19T14:06:15.001Z</time></trkpt><trkpt lat="45.8175972522578" lon="8.138649436732955"><ele>562.6666666666667</ele><time>2026-04-19T14:06:16.001Z</time></trkpt><trkpt lat="45.81754804771894" lon="8.138884132197324"><ele>560.3333333333334</ele><time>2026-04-19T14:06:17.001Z</time></trkpt><trkpt lat="45.81750348766508" lon="8.139127706963885"><ele>558.0</ele><time>2026-04-19T14:06:18.001Z</time></trkpt><trkpt lat="45.81745893917255" lon="8.139369205859191"><ele>556.0</ele><time>2026-04-19T14:06:19.001Z</time></trkpt><trkpt lat="45.817412563969896" lon="8.139604062387086"><ele>554.0</ele><time>2026-04-19T14:06:20.001Z</time></trkpt><trkpt lat="45.81736793187282" lon="8.13983630103219"><ele>552.0</ele><time>2026-04-19T14:06:21.001Z</time></trkpt><trkpt lat="45.817336758051596" lon="8.140068666939529"><ele>551.6666666666666</ele><time>2026-04-19T14:06:22.001Z</time></trkpt><trkpt lat="45.817326613083644" lon="8.140303154022925"><ele>551.3333333333333</ele><time>2026-04-19T14:06:23.001Z</time></trkpt><trkpt lat="45.81734451422607" lon="8.140520293930766"><ele>551.0</ele><time>2026-04-19T14:06:24.001Z</time></trkpt><trkpt lat="45.81736886890326" lon="8.140733473870524"><ele>551.0</ele><time>2026-04-19T14:06:25.001Z</time></trkpt><trkpt lat="45.8173965826655" lon="8.140942304725474"><ele>551.0</ele><time>2026-04-19T14:06:26.002Z</time></trkpt><trkpt lat="45.81742417655944" lon="8.141157029529753"><ele>551.0</ele><time>2026-04-19T14:06:27.002Z</time></trkpt><trkpt lat="45.81745402398036" lon="8.141373688427086"><ele>550.5</ele><time>2026-04-19T14:06:28.002Z</time></trkpt><trkpt lat="45.81747926213846" lon="8.141593127343244"><ele>550.0</ele><time>2026-04-19T14:06:29.002Z</time></trkpt><trkpt lat="45.817504448375644" lon="8.141803671339"><ele>549.5</ele><time>2026-04-19T14:06:30.002Z</time></trkpt><trkpt lat="45.81753116661346" lon="8.141995835324483"><ele>549.0</ele><time>2026-04-19T14:06:31.002Z</time></trkpt><trkpt lat="45.81755838374013" lon="8.142177812655259"><ele>549.0</ele><time>2026-04-19T14:06:32.002Z</time></trkpt><trkpt lat="45.817599497266535" lon="8.142345784737573"><ele>549.0</ele><time>2026-04-19T14:06:33.002Z</time></trkpt><trkpt lat="45.81765480457982" lon="8.142512515956618"><ele>549.0</ele><time>2026-04-19T14:06:34.002Z</time></trkpt><trkpt lat="45.8177260325949" lon="8.142666632131162"><ele>549.0</ele><time>2026-04-19T14:06:35.002Z</time></trkpt><trkpt lat="45.817819705442915" lon="8.142803340232556"><ele>549.75</ele><time>2026-04-19T14:06:36.002Z</time></trkpt><trkpt lat="45.817915635839796" lon="8.142949432148175"><ele>550.5</ele><time>2026-04-19T14:06:37.002Z</time></trkpt><trkpt lat="45.81801128267193" lon="8.143103353028996"><ele>551.25</ele><time>2026-04-19T14:06:38.002Z</time></trkpt><trkpt lat="45.81811606232111" lon="8.143260703765637"><ele>552.0</ele><time>2026-04-19T14:06:39.002Z</time></trkpt><trkpt lat="45.81822252208298" lon="8.14341764477512"><ele>552.0</ele><time>2026-04-19T14:06:40.002Z</time></trkpt><trkpt lat="45.81834050697962" lon="8.143579426892144"><ele>552.0</ele><time>2026-04-19T14:06:41.002Z</time></trkpt><trkpt lat="45.81844976696134" lon="8.143746950770753"><ele>552.0</ele><time>2026-04-19T14:06:42.002Z</time></trkpt><trkpt lat="45.81856054679662" lon="8.143906926032992"><ele>554.0</ele><time>2026-04-19T14:06:43.002Z</time></trkpt><trkpt lat="45.81867170650819" lon="8.14406943352269"><ele>556.0</ele><time>2026-04-19T14:06:44.002Z</time></trkpt><trkpt lat="45.8187808630564" lon="8.144232782721101"><ele>558.0</ele><time>2026-04-19T14:06:45.002Z</time></trkpt><trkpt lat="45.81888597395292" lon="8.144376383488511"><ele>558.0</ele><time>2026-04-19T14:06:46.002Z</time></trkpt><trkpt lat="45.81899744157923" lon="8.144499142207572"><ele>558.0</ele><time>2026-04-19T14:06:47.002Z</time></trkpt><trkpt lat="45.81911505469541" lon="8.144612452118514"><ele>558.0</ele><time>2026-04-19T14:06:48.002Z</time></trkpt><trkpt lat="45.81922530834517" lon="8.144719908719136"><ele>558.0</ele><time>2026-04-19T14:06:49.002Z</time></trkpt><trkpt lat="45.81934343422243" lon="8.144818514544417"><ele>558.5</ele><time>2026-04-19T14:06:50.002Z</time></trkpt><trkpt lat="45.81945965991935" lon="8.144907616517095"><ele>559.0</ele><time>2026-04-19T14:06:51.002Z</time></trkpt><trkpt lat="45.819578064432505" lon="8.145004483899536"><ele>559.5</ele><time>2026-04-19T14:06:52.002Z</time></trkpt><trkpt lat="45.819694769049676" lon="8.145100859872695"><ele>560.0</ele><time>2026-04-19T14:06:53.002Z</time></trkpt><trkpt lat="45.81981268035102" lon="8.145198312633044"><ele>560.0</ele><time>2026-04-19T14:06:54.002Z</time></trkpt><trkpt lat="45.819928919716254" lon="8.145294276975976"><ele>560.0</ele><time>2026-04-19T14:06:55.002Z</time></trkpt><trkpt lat="45.820041738226045" lon="8.145392794784179"><ele>560.0</ele><time>2026-04-19T14:06:56.002Z</time></trkpt><trkpt lat="45.8201438687729" lon="8.145492977930282"><ele>560.0</ele><time>2026-04-19T14:06:57.002Z</time></trkpt><trkpt lat="45.82023601011798" lon="8.145602146652493"><ele>563.4</ele><time>2026-04-19T14:06:58.003Z</time></trkpt><trkpt lat="45.82031599174904" lon="8.145725610778099"><ele>566.8</ele><time>2026-04-19T14:06:59.003Z</time></trkpt><trkpt lat="45.820384247635516" lon="8.145853801788622"><ele>570.2</ele><time>2026-04-19T14:07:00.003Z</time></trkpt><trkpt lat="45.820435517684615" lon="8.145997285684299"><ele>573.6</ele><time>2026-04-19T14:07:01.003Z</time></trkpt><trkpt lat="45.82046385031703" lon="8.146137340092979"><ele>577.0</ele><time>2026-04-19T14:07:02.003Z</time></trkpt><trkpt lat="45.82047320187399" lon="8.146283339708862"><ele>577.0</ele><time>2026-04-19T14:07:03.003Z</time></trkpt><trkpt lat="45.82045933139333" lon="8.14644730484085"><ele>577.0</ele><time>2026-04-19T14:07:04.003Z</time></trkpt><trkpt lat="45.820427867843776" lon="8.146611437067548"><ele>577.0</ele><time>2026-04-19T14:07:05.003Z</time></trkpt><trkpt lat="45.82037138062484" lon="8.146772912812347"><ele>577.0</ele><time>2026-04-19T14:07:06.003Z</time></trkpt><trkpt lat="45.820310224245375" lon="8.146950860139691"><ele>578.0</ele><time>2026-04-19T14:07:07.003Z</time></trkpt><trkpt lat="45.820255722466214" lon="8.147151611390035"><ele>579.0</ele><time>2026-04-19T14:07:08.003Z</time></trkpt><trkpt lat="45.82020504988993" lon="8.147365222830194"><ele>580.0</ele><time>2026-04-19T14:07:09.003Z</time></trkpt><trkpt lat="45.82015218001747" lon="8.147587853458816"><ele>573.6666666666667</ele><time>2026-04-19T14:07:10.003Z</time></trkpt><trkpt lat="45.82009869007222" lon="8.147818443421674"><ele>567.3333333333334</ele><time>2026-04-19T14:07:11.003Z</time></trkpt><trkpt lat="45.82004300875508" lon="8.148059234007565"><ele>561.0</ele><time>2026-04-19T14:07:12.003Z</time></trkpt><trkpt lat="45.820000230877625" lon="8.14830004144387"><ele>561.0</ele><time>2026-04-19T14:07:13.003Z</time></trkpt><trkpt lat="45.81996319390835" lon="8.148542279878455"><ele>561.0</ele><time>2026-04-19T14:07:14.003Z</time></trkpt><trkpt lat="45.81992821448298" lon="8.148778525381248"><ele>561.0</ele><time>2026-04-19T14:07:15.003Z</time></trkpt><trkpt lat="45.81989340865619" lon="8.149010870564226"><ele>562.6666666666666</ele><time>2026-04-19T14:07:16.003Z</time></trkpt><trkpt lat="45.819870168987734" lon="8.149243763681126"><ele>564.3333333333333</ele><time>2026-04-19T14:07:17.003Z</time></trkpt><trkpt lat="45.81986374400402" lon="8.14947314859274"><ele>566.0</ele><time>2026-04-19T14:07:18.003Z</time></trkpt><trkpt lat="45.81987794063396" lon="8.14970643802184"><ele>565.6666666666666</ele><time>2026-04-19T14:07:19.003Z</time></trkpt><trkpt lat="45.81988922911208" lon="8.14994911374288"><ele>565.3333333333334</ele><time>2026-04-19T14:07:20.003Z</time></trkpt><trkpt lat="45.81989627482338" lon="8.150201220788611"><ele>565.0</ele><time>2026-04-19T14:07:21.003Z</time></trkpt><trkpt lat="45.81989711693209" lon="8.1504574692977"><ele>564.6666666666667</ele><time>2026-04-19T14:07:22.003Z</time></trkpt><trkpt lat="45.81989940662222" lon="8.150713887518041"><ele>564.3333333333334</ele><time>2026-04-19T14:07:23.003Z</time></trkpt><trkpt lat="45.81990528107105" lon="8.150972041521294"><ele>564.0</ele><time>2026-04-19T14:07:24.003Z</time></trkpt><trkpt lat="45.819912751129316" lon="8.15121842961321"><ele>564.0</ele><time>2026-04-19T14:07:25.003Z</time></trkpt><trkpt lat="45.81992687909463" lon="8.151459175434848"><ele>564.0</ele><time>2026-04-19T14:07:26.003Z</time></trkpt><trkpt lat="45.81994547832875" lon="8.151685683779945"><ele>564.0</ele><time>2026-04-19T14:07:27.003Z</time></trkpt><trkpt lat="45.81997133890149" lon="8.151886535522433"><ele>562.25</ele><time>2026-04-19T14:07:28.003Z</time></trkpt><trkpt lat="45.82000068698922" lon="8.152068313859562"><ele>560.5</ele><time>2026-04-19T14:07:29.003Z</time></trkpt><trkpt lat="45.82002927498407" lon="8.152243094885007"><ele>558.75</ele><time>2026-04-19T14:07:30.003Z</time></trkpt><trkpt lat="45.820059632126345" lon="8.152410147088828"><ele>557.0</ele><time>2026-04-19T14:07:31.004Z</time></trkpt><trkpt lat="45.82009478492262" lon="8.152581516463473"><ele>558.5</ele><time>2026-04-19T14:07:32.004Z</time></trkpt><trkpt lat="45.8201376407722" lon="8.152756134974707"><ele>560.0</ele><time>2026-04-19T14:07:33.004Z</time></trkpt><trkpt lat="45.82018509451293" lon="8.152918558930223"><ele>561.5</ele><time>2026-04-19T14:07:34.004Z</time></trkpt><trkpt lat="45.82024188208153" lon="8.153080796231944"><ele>563.0</ele><time>2026-04-19T14:07:35.004Z</time></trkpt><trkpt lat="45.820315755985064" lon="8.153241370059968"><ele>563.0</ele><time>2026-04-19T14:07:36.004Z</time></trkpt><trkpt lat="45.820402690108054" lon="8.153397596596795"><ele>563.0</ele><time>2026-04-19T14:07:37.004Z</time></trkpt><trkpt lat="45.82049839065739" lon="8.153536909977218"><ele>563.0</ele><time>2026-04-19T14:07:38.004Z</time></trkpt><trkpt lat="45.820610036216934" lon="8.153667606160836"><ele>563.0</ele><time>2026-04-19T14:07:39.004Z</time></trkpt><trkpt lat="45.8207318866476" lon="8.153791044238892"><ele>563.0</ele><time>2026-04-19T14:07:40.004Z</time></trkpt><trkpt lat="45.82085685935585" lon="8.153920779267262"><ele>563.0</ele><time>2026-04-19T14:07:41.004Z</time></trkpt><trkpt lat="45.82098503019347" lon="8.15405879420748"><ele>563.0</ele><time>2026-04-19T14:07:42.004Z</time></trkpt><trkpt lat="45.82112245150657" lon="8.154213543093887"><ele>562.6666666666666</ele><time>2026-04-19T14:07:43.004Z</time></trkpt><trkpt lat="45.82126912625327" lon="8.154391547316541"><ele>562.3333333333334</ele><time>2026-04-19T14:07:44.004Z</time></trkpt><trkpt lat="45.82141239903043" lon="8.154595672083985"><ele>562.0</ele><time>2026-04-19T14:07:45.004Z</time></trkpt><trkpt lat="45.82154395027942" lon="8.154806146834575"><ele>561.6666666666667</ele><time>2026-04-19T14:07:46.004Z</time></trkpt><trkpt lat="45.82165653279986" lon="8.1550077682656"><ele>561.3333333333334</ele><time>2026-04-19T14:07:47.004Z</time></trkpt><trkpt lat="45.821762760418714" lon="8.155193993325112"><ele>561.0</ele><time>2026-04-19T14:07:48.004Z</time></trkpt><trkpt lat="45.82186180936566" lon="8.155364279644953"><ele>562.5</ele><time>2026-04-19T14:07:49.004Z</time></trkpt><trkpt lat="45.82195763075748" lon="8.155521643999814"><ele>564.0</ele><time>2026-04-19T14:07:50.004Z</time></trkpt><trkpt lat="45.822044433219446" lon="8.155689912262456"><ele>565.5</ele><time>2026-04-19T14:07:51.004Z</time></trkpt><trkpt lat="45.82211914631914" lon="8.155860580401697"><ele>567.0</ele><time>2026-04-19T14:07:52.004Z</time></trkpt><trkpt lat="45.822180780948685" lon="8.15603277168557"><ele>567.0</ele><time>2026-04-19T14:07:53.004Z</time></trkpt><trkpt lat="45.82223065306276" lon="8.156207556161634"><ele>567.0</ele><time>2026-04-19T14:07:54.004Z</time></trkpt><trkpt lat="45.82227719773274" lon="8.156388732621885"><ele>567.0</ele><time>2026-04-19T14:07:55.004Z</time></trkpt><trkpt lat="45.82232540183427" lon="8.156574623405922"><ele>567.0</ele><time>2026-04-19T14:07:56.004Z</time></trkpt><trkpt lat="45.82238250277399" lon="8.156760378781454"><ele>565.3333333333334</ele><time>2026-04-19T14:07:57.004Z</time></trkpt><trkpt lat="45.822451428608424" lon="8.156947385442868"><ele>563.6666666666667</ele><time>2026-04-19T14:07:58.004Z</time></trkpt><trkpt lat="45.822526361109794" lon="8.157137000174378"><ele>562.0</ele><time>2026-04-19T14:07:59.004Z</time></trkpt><trkpt lat="45.82261004776617" lon="8.157324913158345"><ele>569.3333333333334</ele><time>2026-04-19T14:08:00.004Z</time></trkpt><trkpt lat="45.822695543950005" lon="8.157529496192529"><ele>576.6666666666666</ele><time>2026-04-19T14:08:01.004Z</time></trkpt><trkpt lat="45.82278903313192" lon="8.15773600410704"><ele>584.0</ele><time>2026-04-19T14:08:02.004Z</time></trkpt><trkpt lat="45.82289513010264" lon="8.157956815549571"><ele>584.0</ele><time>2026-04-19T14:08:03.004Z</time></trkpt><trkpt lat="45.823008200466305" lon="8.158191912866767"><ele>584.0</ele><time>2026-04-19T14:08:04.005Z</time></trkpt><trkpt lat="45.82312195320475" lon="8.15845287757151"><ele>584.0</ele><time>2026-04-19T14:08:05.005Z</time></trkpt><trkpt lat="45.82323599339873" lon="8.158726761059848"><ele>582.3333333333333</ele><time>2026-04-19T14:08:06.005Z</time></trkpt><trkpt lat="45.823347614033246" lon="8.159004265834762"><ele>580.6666666666666</ele><time>2026-04-19T14:08:07.005Z</time></trkpt><trkpt lat="45.823459197843945" lon="8.159283773976481"><ele>579.0</ele><time>2026-04-19T14:08:08.005Z</time></trkpt><trkpt lat="45.823574331166334" lon="8.159556667498943"><ele>579.0</ele><time>2026-04-19T14:08:09.005Z</time></trkpt><trkpt lat="45.823694226025125" lon="8.159821441857307"><ele>579.0</ele><time>2026-04-19T14:08:10.005Z</time></trkpt><trkpt lat="45.82382138611548" lon="8.160078625702239"><ele>579.0</ele><time>2026-04-19T14:08:11.005Z</time></trkpt><trkpt lat="45.823952245549584" lon="8.160327581767183"><ele>577.3333333333334</ele><time>2026-04-19T14:08:12.005Z</time></trkpt><trkpt lat="45.82408359379202" lon="8.160576800814058"><ele>575.6666666666667</ele><time>2026-04-19T14:08:13.005Z</time></trkpt><trkpt lat="45.82420976706918" lon="8.160830028333386"><ele>574.0</ele><time>2026-04-19T14:08:14.005Z</time></trkpt><trkpt lat="45.82432019751991" lon="8.161096309842556"><ele>574.0</ele><time>2026-04-19T14:08:15.005Z</time></trkpt><trkpt lat="45.82441693990757" lon="8.161365418864685"><ele>574.0</ele><time>2026-04-19T14:08:16.005Z</time></trkpt><trkpt lat="45.82451628572303" lon="8.161624253319669"><ele>574.0</ele><time>2026-04-19T14:08:17.005Z</time></trkpt><trkpt lat="45.82462539258504" lon="8.16186427877521"><ele>567.0</ele><time>2026-04-19T14:08:18.005Z</time></trkpt><trkpt lat="45.824749556443734" lon="8.162102444883123"><ele>560.0</ele><time>2026-04-19T14:08:19.005Z</time></trkpt><trkpt lat="45.82489731083764" lon="8.162319360729136"><ele>553.0</ele><time>2026-04-19T14:08:20.005Z</time></trkpt><trkpt lat="45.82504961049115" lon="8.162511792979515"><ele>555.6666666666667</ele><time>2026-04-19T14:08:21.005Z</time></trkpt><trkpt lat="45.825211488016485" lon="8.162698926676393"><ele>558.3333333333334</ele><time>2026-04-19T14:08:22.005Z</time></trkpt><trkpt lat="45.82536926736205" lon="8.162887454161222"><ele>561.0</ele><time>2026-04-19T14:08:23.005Z</time></trkpt><trkpt lat="45.825522398461864" lon="8.163088007137297"><ele>556.6666666666666</ele><time>2026-04-19T14:08:24.005Z</time></trkpt><trkpt lat="45.82567414546529" lon="8.16329864094716"><ele>552.3333333333333</ele><time>2026-04-19T14:08:25.005Z</time></trkpt><trkpt lat="45.82582241644058" lon="8.163513011786481"><ele>548.0</ele><time>2026-04-19T14:08:26.005Z</time></trkpt><trkpt lat="45.82597082890524" lon="8.163719297232376"><ele>548.6666666666666</ele><time>2026-04-19T14:08:27.005Z</time></trkpt><trkpt lat="45.82611693785485" lon="8.163901443230065"><ele>549.3333333333334</ele><time>2026-04-19T14:08:28.005Z</time></trkpt><trkpt lat="45.826261985736345" lon="8.164063230946459"><ele>550.0</ele><time>2026-04-19T14:08:29.005Z</time></trkpt><trkpt lat="45.82640754938693" lon="8.164193222449368"><ele>550.0</ele><time>2026-04-19T14:08:30.005Z</time></trkpt><trkpt lat="45.826564582008466" lon="8.164304746373197"><ele>550.0</ele><time>2026-04-19T14:08:31.005Z</time></trkpt><trkpt lat="45.826723241856314" lon="8.164418393999743"><ele>550.0</ele><time>2026-04-19T14:08:32.005Z</time></trkpt><trkpt lat="45.82687643439357" lon="8.164556691631766"><ele>549.3333333333334</ele><time>2026-04-19T14:08:33.005Z</time></trkpt><trkpt lat="45.82701711989334" lon="8.164728451503535"><ele>548.6666666666666</ele><time>2026-04-19T14:08:34.005Z</time></trkpt><trkpt lat="45.827142378943705" lon="8.164925846771705"><ele>548.0</ele><time>2026-04-19T14:08:35.005Z</time></trkpt><trkpt lat="45.82724186465574" lon="8.165159815201546"><ele>548.0</ele><time>2026-04-19T14:08:36.005Z</time></trkpt><trkpt lat="45.82733189274184" lon="8.165405976600999"><ele>548.0</ele><time>2026-04-19T14:08:37.006Z</time></trkpt><trkpt lat="45.82741206022603" lon="8.16566736175724"><ele>548.0</ele><time>2026-04-19T14:08:38.006Z</time></trkpt><trkpt lat="45.82748424151699" lon="8.165943667653515"><ele>545.3333333333333</ele><time>2026-04-19T14:08:39.006Z</time></trkpt><trkpt lat="45.82755008689077" lon="8.166230815059878"><ele>542.6666666666666</ele><time>2026-04-19T14:08:40.006Z</time></trkpt><trkpt lat="45.82761986299774" lon="8.166519719147468"><ele>540.0</ele><time>2026-04-19T14:08:41.006Z</time></trkpt><trkpt lat="45.82768845276642" lon="8.166815864798664"><ele>546.0</ele><time>2026-04-19T14:08:42.006Z</time></trkpt><trkpt lat="45.82775919248767" lon="8.167102862968783"><ele>552.0</ele><time>2026-04-19T14:08:43.006Z</time></trkpt><trkpt lat="45.82782656165901" lon="8.167384607568788"><ele>558.0</ele><time>2026-04-19T14:08:44.006Z</time></trkpt><trkpt lat="45.827893462566834" lon="8.16766476898753"><ele>558.0</ele><time>2026-04-19T14:08:45.006Z</time></trkpt><trkpt lat="45.82795512162685" lon="8.167943494379392"><ele>558.0</ele><time>2026-04-19T14:08:46.006Z</time></trkpt><trkpt lat="45.82800443474262" lon="8.16823439212223"><ele>558.0</ele><time>2026-04-19T14:08:47.006Z</time></trkpt><trkpt lat="45.82804517227352" lon="8.168526482572306"><ele>557.3333333333334</ele><time>2026-04-19T14:08:48.006Z</time></trkpt><trkpt lat="45.828081186571126" lon="8.168806134834375"><ele>556.6666666666667</ele><time>2026-04-19T14:08:49.006Z</time></trkpt><trkpt lat="45.82811396206391" lon="8.169073053212351"><ele>556.0</ele><time>2026-04-19T14:08:50.006Z</time></trkpt><trkpt lat="45.828147872159896" lon="8.16932529209318"><ele>554.0</ele><time>2026-04-19T14:08:51.006Z</time></trkpt><trkpt lat="45.82817860780339" lon="8.16956759392233"><ele>552.0</ele><time>2026-04-19T14:08:52.006Z</time></trkpt><trkpt lat="45.82820208250249" lon="8.169809252386258"><ele>550.0</ele><time>2026-04-19T14:08:53.006Z</time></trkpt><trkpt lat="45.82822235528606" lon="8.170057840635868"><ele>547.3333333333334</ele><time>2026-04-19T14:08:54.006Z</time></trkpt><trkpt lat="45.82823169396678" lon="8.170314695221409"><ele>544.6666666666666</ele><time>2026-04-19T14:08:55.006Z</time></trkpt><trkpt lat="45.8282238810368" lon="8.170561227577108"><ele>542.0</ele><time>2026-04-19T14:08:56.006Z</time></trkpt><trkpt lat="45.82820461016067" lon="8.170796924776672"><ele>541.6666666666666</ele><time>2026-04-19T14:08:57.006Z</time></trkpt><trkpt lat="45.828174336730406" lon="8.171024399443064"><ele>541.3333333333334</ele><time>2026-04-19T14:08:58.006Z</time></trkpt><trkpt lat="45.828133239296676" lon="8.171238759432903"><ele>541.0</ele><time>2026-04-19T14:08:59.006Z</time></trkpt><trkpt lat="45.82807285649422" lon="8.171432445919827"><ele>542.75</ele><time>2026-04-19T14:09:00.006Z</time></trkpt><trkpt lat="45.82798878003244" lon="8.171608782799442"><ele>544.5</ele><time>2026-04-19T14:09:01.006Z</time></trkpt><trkpt lat="45.82789553597688" lon="8.171768078428055"><ele>546.25</ele><time>2026-04-19T14:09:02.006Z</time></trkpt><trkpt lat="45.82780522588612" lon="8.171929995497383"><ele>548.0</ele><time>2026-04-19T14:09:03.006Z</time></trkpt><trkpt lat="45.827725251886406" lon="8.172104331089008"><ele>548.0</ele><time>2026-04-19T14:09:04.006Z</time></trkpt><trkpt lat="45.82766459480268" lon="8.172294512123747"><ele>548.0</ele><time>2026-04-19T14:09:05.006Z</time></trkpt><trkpt lat="45.82762550196555" lon="8.172502703253935"><ele>548.0</ele><time>2026-04-19T14:09:06.006Z</time></trkpt><trkpt lat="45.827601222127456" lon="8.172729231183581"><ele>542.0</ele><time>2026-04-19T14:09:07.006Z</time></trkpt><trkpt lat="45.82758426375263" lon="8.172963680805756"><ele>536.0</ele><time>2026-04-19T14:09:08.006Z</time></trkpt><trkpt lat="45.8275816743525" lon="8.173210931883155"><ele>530.0</ele><time>2026-04-19T14:09:09.006Z</time></trkpt><trkpt lat="45.82759634853191" lon="8.1734689777573"><ele>540.0</ele><time>2026-04-19T14:09:10.006Z</time></trkpt><trkpt lat="45.8276456347898" lon="8.17372181805088"><ele>550.0</ele><time>2026-04-19T14:09:11.007Z</time></trkpt><trkpt lat="45.82769668090387" lon="8.173978534838739"><ele>560.0</ele><time>2026-04-19T14:09:12.007Z</time></trkpt><trkpt lat="45.8277631258695" lon="8.174243808292527"><ele>560.3333333333333</ele><time>2026-04-19T14:09:13.007Z</time></trkpt><trkpt lat="45.8278419357471" lon="8.174503267058705"><ele>560.6666666666666</ele><time>2026-04-19T14:09:14.007Z</time></trkpt><trkpt lat="45.82792088876265" lon="8.174761327293778"><ele>561.0</ele><time>2026-04-19T14:09:15.007Z</time></trkpt><trkpt lat="45.82799772971102" lon="8.17501335380476"><ele>556.0</ele><time>2026-04-19T14:09:16.007Z</time></trkpt><trkpt lat="45.82807439043203" lon="8.175252005230503"><ele>551.0</ele><time>2026-04-19T14:09:17.007Z</time></trkpt><trkpt lat="45.82814967023713" lon="8.17548728610442"><ele>546.0</ele><time>2026-04-19T14:09:18.007Z</time></trkpt><trkpt lat="45.82821081446657" lon="8.175724639185209"><ele>542.6666666666666</ele><time>2026-04-19T14:09:19.007Z</time></trkpt><trkpt lat="45.82824980098768" lon="8.175980278477805"><ele>539.3333333333333</ele><time>2026-04-19T14:09:20.007Z</time></trkpt><trkpt lat="45.8282593203776" lon="8.176248580544174"><ele>536.0</ele><time>2026-04-19T14:09:21.007Z</time></trkpt><trkpt lat="45.828250054279735" lon="8.176523736321943"><ele>536.3333333333333</ele><time>2026-04-19T14:09:22.007Z</time></trkpt><trkpt lat="45.82822555083905" lon="8.17680540085745"><ele>536.6666666666666</ele><time>2026-04-19T14:09:23.007Z</time></trkpt><trkpt lat="45.828197235069425" lon="8.177088354626706"><ele>537.0</ele><time>2026-04-19T14:09:24.007Z</time></trkpt><trkpt lat="45.82817371544903" lon="8.177367333531793"><ele>537.0</ele><time>2026-04-19T14:09:25.007Z</time></trkpt><trkpt lat="45.828160147382206" lon="8.177635333094136"><ele>537.0</ele><time>2026-04-19T14:09:26.007Z</time></trkpt><trkpt lat="45.828159830387854" lon="8.177901595690338"><ele>537.0</ele><time>2026-04-19T14:09:27.007Z</time></trkpt><trkpt lat="45.82818766823283" lon="8.178155512666045"><ele>535.3333333333334</ele><time>2026-04-19T14:09:28.007Z</time></trkpt><trkpt lat="45.82822489306558" lon="8.178402097832242"><ele>533.6666666666667</ele><time>2026-04-19T14:09:29.007Z</time></trkpt><trkpt lat="45.82828355027607" lon="8.17864046026475"><ele>532.0</ele><time>2026-04-19T14:09:30.007Z</time></trkpt><trkpt lat="45.828350103505336" lon="8.178875787602413"><ele>528.3333333333334</ele><time>2026-04-19T14:09:31.007Z</time></trkpt><trkpt lat="45.828420001497875" lon="8.17912048006002"><ele>524.6666666666666</ele><time>2026-04-19T14:09:32.007Z</time></trkpt><trkpt lat="45.828484253435406" lon="8.179368314077523"><ele>521.0</ele><time>2026-04-19T14:09:33.007Z</time></trkpt><trkpt lat="45.828548346760215" lon="8.179618310297402"><ele>528.0</ele><time>2026-04-19T14:09:34.007Z</time></trkpt><trkpt lat="45.828602282589806" lon="8.179875528581999"><ele>535.0</ele><time>2026-04-19T14:09:35.007Z</time></trkpt><trkpt lat="45.828641024233846" lon="8.180138362507897"><ele>542.0</ele><time>2026-04-19T14:09:36.007Z</time></trkpt><trkpt lat="45.82866896298879" lon="8.180404722623592"><ele>542.0</ele><time>2026-04-19T14:09:37.007Z</time></trkpt><trkpt lat="45.82870620588424" lon="8.180664517078663"><ele>542.0</ele><time>2026-04-19T14:09:38.007Z</time></trkpt><trkpt lat="45.828765799082994" lon="8.180905377824983"><ele>542.0</ele><time>2026-04-19T14:09:39.007Z</time></trkpt><trkpt lat="45.8288325041971" lon="8.181123261979426"><ele>538.3333333333333</ele><time>2026-04-19T14:09:40.007Z</time></trkpt><trkpt lat="45.82890539666381" lon="8.181334992076915"><ele>534.6666666666666</ele><time>2026-04-19T14:09:41.007Z</time></trkpt><trkpt lat="45.82897629515023" lon="8.181554913339117"><ele>531.0</ele><time>2026-04-19T14:09:42.007Z</time></trkpt><trkpt lat="45.82904650340335" lon="8.181773506635922"><ele>528.0</ele><time>2026-04-19T14:09:43.008Z</time></trkpt><trkpt lat="45.82911741391278" lon="8.181986912145993"><ele>525.0</ele><time>2026-04-19T14:09:44.008Z</time></trkpt><trkpt lat="45.8291852908078" lon="8.182201014743907"><ele>522.0</ele><time>2026-04-19T14:09:45.008Z</time></trkpt><trkpt lat="45.82924937796022" lon="8.182412655333016"><ele>533.3333333333334</ele><time>2026-04-19T14:09:46.008Z</time></trkpt><trkpt lat="45.82931647348065" lon="8.182627461067602"><ele>544.6666666666667</ele><time>2026-04-19T14:09:47.008Z</time></trkpt><trkpt lat="45.829385830575816" lon="8.182845120833484"><ele>556.0</ele><time>2026-04-19T14:09:48.008Z</time></trkpt><trkpt lat="45.82945614216184" lon="8.183067246774282"><ele>550.3333333333334</ele><time>2026-04-19T14:09:49.008Z</time></trkpt><trkpt lat="45.8295250614957" lon="8.183291840579601"><ele>544.6666666666666</ele><time>2026-04-19T14:09:50.008Z</time></trkpt><trkpt lat="45.829596390739574" lon="8.183518966841094"><ele>539.0</ele><time>2026-04-19T14:09:51.008Z</time></trkpt><trkpt lat="45.829669588208944" lon="8.183743751053047"><ele>539.0</ele><time>2026-04-19T14:09:52.008Z</time></trkpt><trkpt lat="45.829742119037725" lon="8.183970640521624"><ele>539.0</ele><time>2026-04-19T14:09:53.008Z</time></trkpt><trkpt lat="45.82981448504989" lon="8.184197098119803"><ele>539.0</ele><time>2026-04-19T14:09:54.008Z</time></trkpt><trkpt lat="45.82988564011928" lon="8.184424859866716"><ele>535.3333333333333</ele><time>2026-04-19T14:09:55.008Z</time></trkpt><trkpt lat="45.82995710012835" lon="8.184648980645775"><ele>531.6666666666666</ele><time>2026-04-19T14:09:56.008Z</time></trkpt><trkpt lat="45.83002750098699" lon="8.18486922344001"><ele>528.0</ele><time>2026-04-19T14:09:57.008Z</time></trkpt><trkpt lat="45.83009631495649" lon="8.185088660797629"><ele>526.6666666666666</ele><time>2026-04-19T14:09:58.008Z</time></trkpt><trkpt lat="45.83016499053971" lon="8.185305681009272"><ele>525.3333333333333</ele><time>2026-04-19T14:09:59.008Z</time></trkpt><trkpt lat="45.83023300459393" lon="8.18552481091878"><ele>524.0</ele><time>2026-04-19T14:10:00.008Z</time></trkpt><trkpt lat="45.83029936942353" lon="8.185735346773395"><ele>524.0</ele><time>2026-04-19T14:10:01.008Z</time></trkpt><trkpt lat="45.830360097598124" lon="8.185936398511258"><ele>524.0</ele><time>2026-04-19T14:10:02.008Z</time></trkpt><trkpt lat="45.83041906107383" lon="8.186123984790951"><ele>524.0</ele><time>2026-04-19T14:10:03.008Z</time></trkpt><trkpt lat="45.83047443641214" lon="8.186301288482277"><ele>524.0</ele><time>2026-04-19T14:10:04.008Z</time></trkpt><trkpt lat="45.83053054997306" lon="8.186471320122655"><ele>521.25</ele><time>2026-04-19T14:10:05.008Z</time></trkpt><trkpt lat="45.83058604326052" lon="8.186645340037707"><ele>518.5</ele><time>2026-04-19T14:10:06.008Z</time></trkpt><trkpt lat="45.83063868126128" lon="8.186821439581278"><ele>515.75</ele><time>2026-04-19T14:10:07.008Z</time></trkpt><trkpt lat="45.8306968466946" lon="8.186999387093516"><ele>513.0</ele><time>2026-04-19T14:10:08.008Z</time></trkpt><trkpt lat="45.83075839693803" lon="8.187179735049652"><ele>514.5</ele><time>2026-04-19T14:10:09.008Z</time></trkpt><trkpt lat="45.830821246797846" lon="8.187358310253563"><ele>516.0</ele><time>2026-04-19T14:10:10.008Z</time></trkpt><trkpt lat="45.830883097790675" lon="8.18754089128184"><ele>517.5</ele><time>2026-04-19T14:10:11.008Z</time></trkpt><trkpt lat="45.83094013201821" lon="8.18772573261969"><ele>519.0</ele><time>2026-04-19T14:10:12.008Z</time></trkpt><trkpt lat="45.8309997292949" lon="8.187909486199974"><ele>527.5</ele><time>2026-04-19T14:10:13.008Z</time></trkpt><trkpt lat="45.831060971333414" lon="8.18809095375562"><ele>536.0</ele><time>2026-04-19T14:10:14.008Z</time></trkpt><trkpt lat="45.831122288757506" lon="8.188279340357383"><ele>544.5</ele><time>2026-04-19T14:10:15.008Z</time></trkpt><trkpt lat="45.83118681695082" lon="8.188471138696277"><ele>553.0</ele><time>2026-04-19T14:10:16.008Z</time></trkpt><trkpt lat="45.8312520462021" lon="8.18866049568415"><ele>553.0</ele><time>2026-04-19T14:10:17.009Z</time></trkpt><trkpt lat="45.831314074394754" lon="8.188851478087924"><ele>553.0</ele><time>2026-04-19T14:10:18.009Z</time></trkpt><trkpt lat="45.83137614757192" lon="8.189045780429295"><ele>553.0</ele><time>2026-04-19T14:10:19.009Z</time></trkpt><trkpt lat="45.83143734758901" lon="8.189239593556266"><ele>553.0</ele><time>2026-04-19T14:10:20.009Z</time></trkpt><trkpt lat="45.83150115307917" lon="8.189429272785793"><ele>542.6666666666667</ele><time>2026-04-19T14:10:21.009Z</time></trkpt><trkpt lat="45.831564915832715" lon="8.189621104091817"><ele>532.3333333333334</ele><time>2026-04-19T14:10:22.009Z</time></trkpt><trkpt lat="45.83163104528352" lon="8.189814184348718"><ele>522.0</ele><time>2026-04-19T14:10:23.009Z</time></trkpt><trkpt lat="45.831695571570364" lon="8.190014461174995"><ele>517.6666666666666</ele><time>2026-04-19T14:10:24.009Z</time></trkpt><trkpt lat="45.83176393158273" lon="8.19021725492981"><ele>513.3333333333333</ele><time>2026-04-19T14:10:25.009Z</time></trkpt><trkpt lat="45.83183052798636" lon="8.190425935084015"><ele>509.0</ele><time>2026-04-19T14:10:26.009Z</time></trkpt><trkpt lat="45.83189873764902" lon="8.19063634417754"><ele>511.66666666666663</ele><time>2026-04-19T14:10:27.009Z</time></trkpt><trkpt lat="45.83197045462668" lon="8.190848693623066"><ele>514.3333333333334</ele><time>2026-04-19T14:10:28.009Z</time></trkpt><trkpt lat="45.832042615998965" lon="8.191060234517426"><ele>517.0</ele><time>2026-04-19T14:10:29.009Z</time></trkpt><trkpt lat="45.83210909715808" lon="8.191269276077584"><ele>517.0</ele><time>2026-04-19T14:10:30.009Z</time></trkpt><trkpt lat="45.83217768919621" lon="8.191471039332166"><ele>517.0</ele><time>2026-04-19T14:10:31.009Z</time></trkpt><trkpt lat="45.83224584472485" lon="8.191669797618388"><ele>517.0</ele><time>2026-04-19T14:10:32.009Z</time></trkpt><trkpt lat="45.8323108480044" lon="8.191870556690752"><ele>514.5</ele><time>2026-04-19T14:10:33.009Z</time></trkpt><trkpt lat="45.832371890311066" lon="8.192066538246888"><ele>512.0</ele><time>2026-04-19T14:10:34.009Z</time></trkpt><trkpt lat="45.832422390940096" lon="8.192260601154928"><ele>509.5</ele><time>2026-04-19T14:10:35.009Z</time></trkpt><trkpt lat="45.83245550379118" lon="8.192450870721656"><ele>507.0</ele><time>2026-04-19T14:10:36.009Z</time></trkpt><trkpt lat="45.83247039936525" lon="8.192638749048669"><ele>506.75</ele><time>2026-04-19T14:10:37.009Z</time></trkpt><trkpt lat="45.8324737264575" lon="8.192826277854522"><ele>506.5</ele><time>2026-04-19T14:10:38.009Z</time></trkpt><trkpt lat="45.83246710745112" lon="8.193015617010138"><ele>506.25</ele><time>2026-04-19T14:10:39.009Z</time></trkpt><trkpt lat="45.832464818375875" lon="8.19320626260896"><ele>506.0</ele><time>2026-04-19T14:10:40.009Z</time></trkpt><trkpt lat="45.832460079546856" lon="8.193401722781598"><ele>506.0</ele><time>2026-04-19T14:10:41.009Z</time></trkpt><trkpt lat="45.832455907942425" lon="8.193599978001167"><ele>506.0</ele><time>2026-04-19T14:10:42.009Z</time></trkpt><trkpt lat="45.832450219170425" lon="8.19380177125436"><ele>506.0</ele><time>2026-04-19T14:10:43.009Z</time></trkpt><trkpt lat="45.83245033894147" lon="8.19400646607579"><ele>506.0</ele><time>2026-04-19T14:10:44.009Z</time></trkpt><trkpt lat="45.832454367033876" lon="8.194213867518169"><ele>506.3333333333333</ele><time>2026-04-19T14:10:45.009Z</time></trkpt><trkpt lat="45.83246821215137" lon="8.19442352990188"><ele>506.66666666666663</ele><time>2026-04-19T14:10:46.009Z</time></trkpt><trkpt lat="45.83249593537334" lon="8.194635998742061"><ele>507.0</ele><time>2026-04-19T14:10:47.009Z</time></trkpt><trkpt lat="45.83252977512937" lon="8.19485130396184"><ele>506.25</ele><time>2026-04-19T14:10:48.009Z</time></trkpt><trkpt lat="45.832558042159796" lon="8.195055756049038"><ele>505.5</ele><time>2026-04-19T14:10:49.009Z</time></trkpt><trkpt lat="45.83258386927202" lon="8.195253593724384"><ele>504.75</ele><time>2026-04-19T14:10:50.01Z</time></trkpt><trkpt lat="45.832609141934725" lon="8.195444160770371"><ele>504.0</ele><time>2026-04-19T14:10:51.01Z</time></trkpt><trkpt lat="45.83263252037754" lon="8.195632322606055"><ele>507.75</ele><time>2026-04-19T14:10:52.01Z</time></trkpt><trkpt lat="45.832654854288556" lon="8.195817631497262"><ele>511.5</ele><time>2026-04-19T14:10:53.01Z</time></trkpt><trkpt lat="45.83268070964957" lon="8.196000594729925"><ele>515.25</ele><time>2026-04-19T14:10:54.01Z</time></trkpt><trkpt lat="45.832702371667956" lon="8.196172088433743"><ele>519.0</ele><time>2026-04-19T14:10:55.01Z</time></trkpt><trkpt lat="45.83272610297221" lon="8.19635186995387"><ele>520.5</ele><time>2026-04-19T14:10:56.01Z</time></trkpt><trkpt lat="45.83274813736412" lon="8.196538294418211"><ele>522.0</ele><time>2026-04-19T14:10:57.01Z</time></trkpt><trkpt lat="45.83276483155655" lon="8.196733738234027"><ele>523.5</ele><time>2026-04-19T14:10:58.01Z</time></trkpt><trkpt lat="45.83277470429327" lon="8.19693673021647"><ele>525.0</ele><time>2026-04-19T14:10:59.01Z</time></trkpt><trkpt lat="45.83277694753115" lon="8.19714584250147"><ele>528.5</ele><time>2026-04-19T14:11:00.01Z</time></trkpt><trkpt lat="45.83277475883536" lon="8.197349725458402"><ele>532.0</ele><time>2026-04-19T14:11:01.01Z</time></trkpt><trkpt lat="45.83277324958833" lon="8.197547154502303"><ele>535.5</ele><time>2026-04-19T14:11:02.01Z</time></trkpt><trkpt lat="45.83275936220732" lon="8.19773645353861"><ele>539.0</ele><time>2026-04-19T14:11:03.01Z</time></trkpt><trkpt lat="45.83273150324384" lon="8.197914229909518"><ele>539.0</ele><time>2026-04-19T14:11:04.01Z</time></trkpt><trkpt lat="45.83268882559074" lon="8.198088145611505"><ele>539.0</ele><time>2026-04-19T14:11:05.01Z</time></trkpt><trkpt lat="45.832622888390155" lon="8.198254366755414"><ele>539.0</ele><time>2026-04-19T14:11:06.01Z</time></trkpt><trkpt lat="45.832533247638246" lon="8.198409429844137"><ele>539.0</ele><time>2026-04-19T14:11:07.01Z</time></trkpt><trkpt lat="45.83242402998031" lon="8.198572690685209"><ele>537.6666666666666</ele><time>2026-04-19T14:11:08.01Z</time></trkpt><trkpt lat="45.8323013577743" lon="8.198724391482914"><ele>536.3333333333334</ele><time>2026-04-19T14:11:09.01Z</time></trkpt><trkpt lat="45.83217454618117" lon="8.198875066469814"><ele>535.0</ele><time>2026-04-19T14:11:10.01Z</time></trkpt><trkpt lat="45.83205432350173" lon="8.199032184270498"><ele>535.0</ele><time>2026-04-19T14:11:11.01Z</time></trkpt><trkpt lat="45.8319331979185" lon="8.199183977400438"><ele>535.0</ele><time>2026-04-19T14:11:12.01Z</time></trkpt><trkpt lat="45.83181309772097" lon="8.199336675464904"><ele>535.0</ele><time>2026-04-19T14:11:13.01Z</time></trkpt><trkpt lat="45.83169129051455" lon="8.19948504974582"><ele>528.3333333333334</ele><time>2026-04-19T14:11:14.01Z</time></trkpt><trkpt lat="45.83157561682693" lon="8.199635892948814"><ele>521.6666666666666</ele><time>2026-04-19T14:11:15.01Z</time></trkpt><trkpt lat="45.83146400431636" lon="8.199794069149954"><ele>515.0</ele><time>2026-04-19T14:11:16.01Z</time></trkpt><trkpt lat="45.831361321088146" lon="8.199969339454745"><ele>515.0</ele><time>2026-04-19T14:11:17.01Z</time></trkpt><trkpt lat="45.831269060790916" lon="8.200168207880573"><ele>515.0</ele><time>2026-04-19T14:11:18.01Z</time></trkpt><trkpt lat="45.8311889289396" lon="8.200370433640316"><ele>515.0</ele><time>2026-04-19T14:11:19.01Z</time></trkpt><trkpt lat="45.83111800440858" lon="8.20057870631766"><ele>510.3333333333333</ele><time>2026-04-19T14:11:20.01Z</time></trkpt><trkpt lat="45.83103870238188" lon="8.200787886432241"><ele>505.66666666666663</ele><time>2026-04-19T14:11:21.01Z</time></trkpt><trkpt lat="45.830957711435985" lon="8.200986864541697"><ele>501.0</ele><time>2026-04-19T14:11:22.01Z</time></trkpt><trkpt lat="45.83085901417661" lon="8.201174022140396"><ele>501.0</ele><time>2026-04-19T14:11:23.011Z</time></trkpt><trkpt lat="45.83073995812026" lon="8.20133492115852"><ele>501.0</ele><time>2026-04-19T14:11:24.011Z</time></trkpt><trkpt lat="45.830611577626065" lon="8.201485053820964"><ele>501.0</ele><time>2026-04-19T14:11:25.011Z</time></trkpt><trkpt lat="45.83048169790277" lon="8.201633746322099"><ele>499.66666666666663</ele><time>2026-04-19T14:11:26.011Z</time></trkpt><trkpt lat="45.83034086241063" lon="8.201776870921895"><ele>498.3333333333333</ele><time>2026-04-19T14:11:27.011Z</time></trkpt><trkpt lat="45.83020661238244" lon="8.201929189783064"><ele>497.0</ele><time>2026-04-19T14:11:28.011Z</time></trkpt><trkpt lat="45.83006781213676" lon="8.202075105784568"><ele>497.0</ele><time>2026-04-19T14:11:29.011Z</time></trkpt><trkpt lat="45.829930964365154" lon="8.202224514644838"><ele>497.0</ele><time>2026-04-19T14:11:30.011Z</time></trkpt><trkpt lat="45.82979599261045" lon="8.202383301273931"><ele>497.0</ele><time>2026-04-19T14:11:31.011Z</time></trkpt><trkpt lat="45.829665514706136" lon="8.20254760927993"><ele>495.0</ele><time>2026-04-19T14:11:32.011Z</time></trkpt><trkpt lat="45.829539686738165" lon="8.202725668669812"><ele>493.0</ele><time>2026-04-19T14:11:33.011Z</time></trkpt><trkpt lat="45.82941438577707" lon="8.202907818633511"><ele>491.0</ele><time>2026-04-19T14:11:34.011Z</time></trkpt><trkpt lat="45.82929802538898" lon="8.203096364512328"><ele>493.3333333333333</ele><time>2026-04-19T14:11:35.011Z</time></trkpt><trkpt lat="45.829178784960845" lon="8.203280987519742"><ele>495.66666666666663</ele><time>2026-04-19T14:11:36.011Z</time></trkpt><trkpt lat="45.829059531746616" lon="8.203459442630239"><ele>498.0</ele><time>2026-04-19T14:11:37.011Z</time></trkpt><trkpt lat="45.828946067166186" lon="8.203637234130213"><ele>498.0</ele><time>2026-04-19T14:11:38.011Z</time></trkpt><trkpt lat="45.828836042697525" lon="8.203809689809164"><ele>498.0</ele><time>2026-04-19T14:11:39.011Z</time></trkpt><trkpt lat="45.82872819013884" lon="8.20398473387822"><ele>498.0</ele><time>2026-04-19T14:11:40.011Z</time></trkpt><trkpt lat="45.82862190810766" lon="8.204157652741753"><ele>497.33333333333337</ele><time>2026-04-19T14:11:41.011Z</time></trkpt><trkpt lat="45.8285140559378" lon="8.204325489520576"><ele>496.6666666666667</ele><time>2026-04-19T14:11:42.011Z</time></trkpt><trkpt lat="45.82840696268537" lon="8.204490066823176"><ele>496.0</ele><time>2026-04-19T14:11:43.011Z</time></trkpt><trkpt lat="45.82830558417912" lon="8.204649088859256"><ele>496.0</ele><time>2026-04-19T14:11:44.011Z</time></trkpt><trkpt lat="45.828205353584366" lon="8.204801928246292"><ele>496.0</ele><time>2026-04-19T14:11:45.011Z</time></trkpt><trkpt lat="45.8281078908032" lon="8.204952395345558"><ele>496.0</ele><time>2026-04-19T14:11:46.011Z</time></trkpt><trkpt lat="45.82801289281374" lon="8.205105328992346"><ele>496.0</ele><time>2026-04-19T14:11:47.011Z</time></trkpt><trkpt lat="45.82791228884166" lon="8.205262725517251"><ele>496.0</ele><time>2026-04-19T14:11:48.011Z</time></trkpt><trkpt lat="45.827803597917665" lon="8.20542939736874"><ele>496.0</ele><time>2026-04-19T14:11:49.011Z</time></trkpt><trkpt lat="45.827693030892995" lon="8.205607541637429"><ele>496.0</ele><time>2026-04-19T14:11:50.011Z</time></trkpt><trkpt lat="45.82757767834456" lon="8.205795668251934"><ele>495.0</ele><time>2026-04-19T14:11:51.011Z</time></trkpt><trkpt lat="45.82745789285246" lon="8.205985378416194"><ele>494.0</ele><time>2026-04-19T14:11:52.011Z</time></trkpt><trkpt lat="45.82733194381254" lon="8.206171870505973"><ele>493.0</ele><time>2026-04-19T14:11:53.011Z</time></trkpt><trkpt lat="45.82720083921313" lon="8.206356889754472"><ele>493.6666666666667</ele><time>2026-04-19T14:11:54.011Z</time></trkpt><trkpt lat="45.827065858061836" lon="8.2065476680306"><ele>494.33333333333337</ele><time>2026-04-19T14:11:55.011Z</time></trkpt><trkpt lat="45.82693516329288" lon="8.206743461660524"><ele>495.0</ele><time>2026-04-19T14:11:56.012Z</time></trkpt><trkpt lat="45.82680476990164" lon="8.206942099882092"><ele>494.0</ele><time>2026-04-19T14:11:57.012Z</time></trkpt><trkpt lat="45.82667551247929" lon="8.207142908592976"><ele>493.0</ele><time>2026-04-19T14:11:58.012Z</time></trkpt><trkpt lat="45.82654880132165" lon="8.207344195019504"><ele>492.0</ele><time>2026-04-19T14:11:59.012Z</time></trkpt><trkpt lat="45.8264173521374" lon="8.20754733902999"><ele>492.0</ele><time>2026-04-19T14:12:00.012Z</time></trkpt><trkpt lat="45.82628697119328" lon="8.207745398406592"><ele>492.0</ele><time>2026-04-19T14:12:01.012Z</time></trkpt><trkpt lat="45.82615754622646" lon="8.207939617695024"><ele>492.0</ele><time>2026-04-19T14:12:02.012Z</time></trkpt><trkpt lat="45.82603073650302" lon="8.208132002246037"><ele>490.66666666666663</ele><time>2026-04-19T14:12:03.012Z</time></trkpt><trkpt lat="45.8259062242403" lon="8.208323218011586"><ele>489.3333333333333</ele><time>2026-04-19T14:12:04.012Z</time></trkpt><trkpt lat="45.825783039370116" lon="8.208510413445651"><ele>488.0</ele><time>2026-04-19T14:12:05.012Z</time></trkpt><trkpt lat="45.825657972053065" lon="8.2086995957193"><ele>488.0</ele><time>2026-04-19T14:12:06.012Z</time></trkpt><trkpt lat="45.82553208686673" lon="8.20888843552411"><ele>488.0</ele><time>2026-04-19T14:12:07.012Z</time></trkpt><trkpt lat="45.82540810927083" lon="8.209081939920756"><ele>488.0</ele><time>2026-04-19T14:12:08.012Z</time></trkpt><trkpt lat="45.82529076169149" lon="8.209279051939118"><ele>487.3333333333333</ele><time>2026-04-19T14:12:09.012Z</time></trkpt><trkpt lat="45.825179626916274" lon="8.209473820644392"><ele>486.66666666666663</ele><time>2026-04-19T14:12:10.012Z</time></trkpt><trkpt lat="45.825070964451754" lon="8.209666366426374"><ele>486.0</ele><time>2026-04-19T14:12:11.012Z</time></trkpt><trkpt lat="45.82496359084479" lon="8.209853953393557"><ele>488.0</ele><time>2026-04-19T14:12:12.012Z</time></trkpt><trkpt lat="45.824855413672545" lon="8.210043845364726"><ele>490.0</ele><time>2026-04-19T14:12:13.012Z</time></trkpt><trkpt lat="45.82474785666739" lon="8.210234680574443"><ele>492.0</ele><time>2026-04-19T14:12:14.012Z</time></trkpt><trkpt lat="45.824643638625226" lon="8.210432025173807"><ele>492.0</ele><time>2026-04-19T14:12:15.012Z</time></trkpt><trkpt lat="45.82455004363011" lon="8.210638164131117"><ele>492.0</ele><time>2026-04-19T14:12:16.012Z</time></trkpt><trkpt lat="45.82447210104478" lon="8.21085528618597"><ele>492.0</ele><time>2026-04-19T14:12:17.012Z</time></trkpt><trkpt lat="45.82441060057418" lon="8.211073321471742"><ele>491.5</ele><time>2026-04-19T14:12:18.012Z</time></trkpt><trkpt lat="45.824359990219016" lon="8.211285540957293"><ele>491.0</ele><time>2026-04-19T14:12:19.012Z</time></trkpt><trkpt lat="45.824316170699134" lon="8.211486032865613"><ele>490.5</ele><time>2026-04-19T14:12:20.012Z</time></trkpt><trkpt lat="45.82427363627916" lon="8.211674569216989"><ele>490.0</ele><time>2026-04-19T14:12:21.012Z</time></trkpt><trkpt lat="45.824233043443435" lon="8.211855309618935"><ele>487.75</ele><time>2026-04-19T14:12:22.012Z</time></trkpt><trkpt lat="45.82419559755626" lon="8.212032314375117"><ele>485.5</ele><time>2026-04-19T14:12:23.012Z</time></trkpt><trkpt lat="45.82415632202112" lon="8.21220909183818"><ele>483.25</ele><time>2026-04-19T14:12:24.012Z</time></trkpt><trkpt lat="45.824117111087006" lon="8.212381516746696"><ele>481.0</ele><time>2026-04-19T14:12:25.012Z</time></trkpt><trkpt lat="45.82408029659227" lon="8.2125471624204"><ele>481.0</ele><time>2026-04-19T14:12:26.012Z</time></trkpt><trkpt lat="45.824048862516484" lon="8.212710594128962"><ele>481.0</ele><time>2026-04-19T14:12:27.012Z</time></trkpt><trkpt lat="45.82401676537598" lon="8.212866686933378"><ele>481.0</ele><time>2026-04-19T14:12:28.012Z</time></trkpt><trkpt lat="45.8239833035595" lon="8.21301981781858"><ele>481.0</ele><time>2026-04-19T14:12:29.013Z</time></trkpt><trkpt lat="45.823950530380806" lon="8.213175274847902"><ele>481.4</ele><time>2026-04-19T14:12:30.013Z</time></trkpt><trkpt lat="45.82391632931505" lon="8.213330242097792"><ele>481.8</ele><time>2026-04-19T14:12:31.013Z</time></trkpt><trkpt lat="45.82388274137447" lon="8.213480257228811"><ele>482.19999999999993</ele><time>2026-04-19T14:12:32.013Z</time></trkpt><trkpt lat="45.82384996184666" lon="8.213623041400313"><ele>482.59999999999997</ele><time>2026-04-19T14:12:33.013Z</time></trkpt><trkpt lat="45.82381730815338" lon="8.213766399854702"><ele>483.0</ele><time>2026-04-19T14:12:34.013Z</time></trkpt><trkpt lat="45.823783840848996" lon="8.213908657537717"><ele>483.0</ele><time>2026-04-19T14:12:35.013Z</time></trkpt><trkpt lat="45.823749119760166" lon="8.214053203148747"><ele>482.99999999999994</ele><time>2026-04-19T14:12:36.013Z</time></trkpt><trkpt lat="45.82371786143061" lon="8.214188893122406"><ele>482.99999999999994</ele><time>2026-04-19T14:12:37.013Z</time></trkpt><trkpt lat="45.82368542460441" lon="8.214310002883543"><ele>483.0</ele><time>2026-04-19T14:12:38.013Z</time></trkpt><trkpt lat="45.82365845455143" lon="8.214429575745928"><ele>483.0</ele><time>2026-04-19T14:12:39.013Z</time></trkpt><trkpt lat="45.82363462332776" lon="8.21453669847369"><ele>483.0</ele><time>2026-04-19T14:12:40.013Z</time></trkpt><trkpt lat="45.82361299465938" lon="8.214640924921449"><ele>483.0</ele><time>2026-04-19T14:12:41.013Z</time></trkpt><trkpt lat="45.82359187302346" lon="8.214735310563773"><ele>483.0</ele><time>2026-04-19T14:12:42.013Z</time></trkpt><trkpt lat="45.82357061185891" lon="8.214823433147021"><ele>483.0</ele><time>2026-04-19T14:12:43.013Z</time></trkpt><trkpt lat="45.823552110193425" lon="8.214911211983658"><ele>483.0</ele><time>2026-04-19T14:12:44.013Z</time></trkpt><trkpt lat="45.82351759566888" lon="8.215063213442694"><ele>483.0</ele><time>2026-04-19T14:12:46.013Z</time></trkpt><trkpt lat="45.82348165996919" lon="8.215200209274412"><ele>482.2</ele><time>2026-04-19T14:12:48.013Z</time></trkpt><trkpt lat="45.82342663693689" lon="8.215315845743923"><ele>481.4</ele><time>2026-04-19T14:12:50.013Z</time></trkpt><trkpt lat="45.823335041027136" lon="8.21539920741025"><ele>480.59999999999997</ele><time>2026-04-19T14:12:52.013Z</time></trkpt><trkpt lat="45.82327108079269" lon="8.215522488670459"><ele>479.79999999999995</ele><time>2026-04-19T14:12:54.013Z</time></trkpt><trkpt lat="45.823291202811504" lon="8.215668572958151"><ele>479.0</ele><time>2026-04-19T14:12:56.013Z</time></trkpt><trkpt lat="45.82331308030248" lon="8.215761551714047"><ele>478.6</ele><time>2026-04-19T14:12:57.013Z</time></trkpt><trkpt lat="45.823324671665915" lon="8.215874629708438"><ele>478.2</ele><time>2026-04-19T14:12:58.013Z</time></trkpt><trkpt lat="45.82331451936713" lon="8.216002317553054"><ele>477.80000000000007</ele><time>2026-04-19T14:12:59.013Z</time></trkpt><trkpt lat="45.823291515044744" lon="8.216125549966897"><ele>477.40000000000003</ele><time>2026-04-19T14:13:00.013Z</time></trkpt><trkpt lat="45.82326813168801" lon="8.216257647959665"><ele>477.0</ele><time>2026-04-19T14:13:01.013Z</time></trkpt><trkpt lat="45.823239960148776" lon="8.216414339868788"><ele>480.0</ele><time>2026-04-19T14:13:02.013Z</time></trkpt><trkpt lat="45.823200107894145" lon="8.216586673503778"><ele>483.0</ele><time>2026-04-19T14:13:03.014Z</time></trkpt><trkpt lat="45.82315573101343" lon="8.216770385095327"><ele>486.0</ele><time>2026-04-19T14:13:04.014Z</time></trkpt><trkpt lat="45.82311099803003" lon="8.216945941270716"><ele>489.0</ele><time>2026-04-19T14:13:05.014Z</time></trkpt><trkpt lat="45.82305483287631" lon="8.217128009325403"><ele>489.0</ele><time>2026-04-19T14:13:06.014Z</time></trkpt><trkpt lat="45.822985842452354" lon="8.217315285690578"><ele>489.0</ele><time>2026-04-19T14:13:07.014Z</time></trkpt><trkpt lat="45.82291552034763" lon="8.21750475899336"><ele>489.0</ele><time>2026-04-19T14:13:08.014Z</time></trkpt><trkpt lat="45.822848776615885" lon="8.217701940915621"><ele>487.75</ele><time>2026-04-19T14:13:09.014Z</time></trkpt><trkpt lat="45.82278553465341" lon="8.217898046655154"><ele>486.5</ele><time>2026-04-19T14:13:10.014Z</time></trkpt><trkpt lat="45.82272877706798" lon="8.21808095074599"><ele>485.25</ele><time>2026-04-19T14:13:11.014Z</time></trkpt><trkpt lat="45.82267398274797" lon="8.218245524086306"><ele>484.0</ele><time>2026-04-19T14:13:12.014Z</time></trkpt><trkpt lat="45.82262901585731" lon="8.218403116842225"><ele>484.0</ele><time>2026-04-19T14:13:13.014Z</time></trkpt><trkpt lat="45.822597575596106" lon="8.218570670033337"><ele>484.0</ele><time>2026-04-19T14:13:14.014Z</time></trkpt><trkpt lat="45.822586895533725" lon="8.218737841858228"><ele>484.0</ele><time>2026-04-19T14:13:15.014Z</time></trkpt><trkpt lat="45.822579314981155" lon="8.218890898585446"><ele>484.0</ele><time>2026-04-19T14:13:16.014Z</time></trkpt><trkpt lat="45.822587639208955" lon="8.21903175223398"><ele>484.0</ele><time>2026-04-19T14:13:17.014Z</time></trkpt><trkpt lat="45.8225942227869" lon="8.219179709741836"><ele>484.0</ele><time>2026-04-19T14:13:18.014Z</time></trkpt><trkpt lat="45.82259810806289" lon="8.21933310749297"><ele>484.0</ele><time>2026-04-19T14:13:19.014Z</time></trkpt><trkpt lat="45.82259422283046" lon="8.219487280178129"><ele>484.0</ele><time>2026-04-19T14:13:20.014Z</time></trkpt><trkpt lat="45.8225843753155" lon="8.219640515709747"><ele>484.0</ele><time>2026-04-19T14:13:21.014Z</time></trkpt><trkpt lat="45.822569871856366" lon="8.219801363219647"><ele>484.0</ele><time>2026-04-19T14:13:22.014Z</time></trkpt><trkpt lat="45.822546785103704" lon="8.219978090691077"><ele>485.4</ele><time>2026-04-19T14:13:23.014Z</time></trkpt><trkpt lat="45.822522898100274" lon="8.22014675489315"><ele>486.79999999999995</ele><time>2026-04-19T14:13:24.014Z</time></trkpt><trkpt lat="45.82250431098042" lon="8.220304873391102"><ele>488.20000000000005</ele><time>2026-04-19T14:13:25.014Z</time></trkpt><trkpt lat="45.82248293680919" lon="8.220458996194894"><ele>489.6</ele><time>2026-04-19T14:13:26.014Z</time></trkpt><trkpt lat="45.822468288653454" lon="8.22060114183822"><ele>491.0</ele><time>2026-04-19T14:13:27.014Z</time></trkpt><trkpt lat="45.822462997951526" lon="8.220749129795482"><ele>491.0</ele><time>2026-04-19T14:13:28.014Z</time></trkpt><trkpt lat="45.82246680774719" lon="8.220900305102964"><ele>491.0</ele><time>2026-04-19T14:13:29.014Z</time></trkpt><trkpt lat="45.822481362933964" lon="8.221052934800445"><ele>491.0</ele><time>2026-04-19T14:13:30.014Z</time></trkpt><trkpt lat="45.82250824299229" lon="8.22120268797523"><ele>491.0</ele><time>2026-04-19T14:13:31.014Z</time></trkpt><trkpt lat="45.82254535991645" lon="8.221348487309122"><ele>491.0</ele><time>2026-04-19T14:13:32.014Z</time></trkpt><trkpt lat="45.82258495680222" lon="8.221501737911264"><ele>490.5</ele><time>2026-04-19T14:13:33.014Z</time></trkpt><trkpt lat="45.822627052742675" lon="8.221660505343067"><ele>490.0</ele><time>2026-04-19T14:13:34.014Z</time></trkpt><trkpt lat="45.82267507200553" lon="8.221826503363111"><ele>489.5</ele><time>2026-04-19T14:13:35.014Z</time></trkpt><trkpt lat="45.82272522787727" lon="8.221996097446404"><ele>489.0</ele><time>2026-04-19T14:13:36.015Z</time></trkpt><trkpt lat="45.82277342855892" lon="8.222156749787967"><ele>486.5</ele><time>2026-04-19T14:13:37.015Z</time></trkpt><trkpt lat="45.822823213937795" lon="8.222320338864762"><ele>484.0</ele><time>2026-04-19T14:13:38.015Z</time></trkpt><trkpt lat="45.82286310895655" lon="8.222484295998436"><ele>481.5</ele><time>2026-04-19T14:13:39.015Z</time></trkpt><trkpt lat="45.822903928603004" lon="8.222636377750808"><ele>479.0</ele><time>2026-04-19T14:13:40.015Z</time></trkpt><trkpt lat="45.82294641380807" lon="8.222786984007877"><ele>479.0</ele><time>2026-04-19T14:13:41.015Z</time></trkpt><trkpt lat="45.82298778917306" lon="8.222949131426612"><ele>479.0</ele><time>2026-04-19T14:13:42.015Z</time></trkpt><trkpt lat="45.82303561109693" lon="8.22310853762431"><ele>479.0</ele><time>2026-04-19T14:13:43.015Z</time></trkpt><trkpt lat="45.82308274110183" lon="8.223268186865935"><ele>479.0</ele><time>2026-04-19T14:13:44.015Z</time></trkpt><trkpt lat="45.82313024743265" lon="8.223417445841513"><ele>478.0</ele><time>2026-04-19T14:13:45.015Z</time></trkpt><trkpt lat="45.82317127331334" lon="8.223556042017545"><ele>477.0</ele><time>2026-04-19T14:13:46.015Z</time></trkpt><trkpt lat="45.82320638689478" lon="8.223680083163089"><ele>476.0</ele><time>2026-04-19T14:13:47.015Z</time></trkpt><trkpt lat="45.823244451658404" lon="8.223794756840014"><ele>475.0</ele><time>2026-04-19T14:13:48.015Z</time></trkpt><trkpt lat="45.82328185411075" lon="8.223904348881952"><ele>474.0</ele><time>2026-04-19T14:13:49.015Z</time></trkpt><trkpt lat="45.82331890415503" lon="8.22402191299947"><ele>473.79999999999995</ele><time>2026-04-19T14:13:50.015Z</time></trkpt><trkpt lat="45.823353029333816" lon="8.22414768108259"><ele>473.59999999999997</ele><time>2026-04-19T14:13:51.015Z</time></trkpt><trkpt lat="45.82338553758926" lon="8.224281300752285"><ele>473.4</ele><time>2026-04-19T14:13:52.015Z</time></trkpt><trkpt lat="45.82342043252382" lon="8.224428359890888"><ele>473.2</ele><time>2026-04-19T14:13:53.015Z</time></trkpt><trkpt lat="45.82345014758497" lon="8.224584794486677"><ele>473.0</ele><time>2026-04-19T14:13:54.015Z</time></trkpt><trkpt lat="45.82346510901252" lon="8.224752461528483"><ele>473.0</ele><time>2026-04-19T14:13:55.015Z</time></trkpt><trkpt lat="45.82346278057381" lon="8.22491841388119"><ele>472.99999999999994</ele><time>2026-04-19T14:13:56.015Z</time></trkpt><trkpt lat="45.8234514805292" lon="8.225075486332733"><ele>472.99999999999994</ele><time>2026-04-19T14:13:57.015Z</time></trkpt><trkpt lat="45.82343166303435" lon="8.225232199320075"><ele>473.0</ele><time>2026-04-19T14:13:58.015Z</time></trkpt><trkpt lat="45.8234123046959" lon="8.225386765188674"><ele>473.0</ele><time>2026-04-19T14:13:59.015Z</time></trkpt><trkpt lat="45.823389165856376" lon="8.225547400624436"><ele>473.5</ele><time>2026-04-19T14:14:00.015Z</time></trkpt><trkpt lat="45.823363244920856" lon="8.225713403683415"><ele>474.0</ele><time>2026-04-19T14:14:01.015Z</time></trkpt><trkpt lat="45.823336139569406" lon="8.225885044012035"><ele>474.5</ele><time>2026-04-19T14:14:02.015Z</time></trkpt><trkpt lat="45.823308220393294" lon="8.226072915235418"><ele>475.0</ele><time>2026-04-19T14:14:03.015Z</time></trkpt><trkpt lat="45.823284772387495" lon="8.226278344395546"><ele>475.33333333333337</ele><time>2026-04-19T14:14:04.015Z</time></trkpt><trkpt lat="45.823262681684284" lon="8.226500142482793"><ele>475.66666666666663</ele><time>2026-04-19T14:14:05.015Z</time></trkpt><trkpt lat="45.823234794978575" lon="8.226738149382575"><ele>476.0</ele><time>2026-04-19T14:14:06.015Z</time></trkpt><trkpt lat="45.8232025864914" lon="8.226979540516083"><ele>476.0</ele><time>2026-04-19T14:14:07.015Z</time></trkpt><trkpt lat="45.82317110550578" lon="8.22720564404166"><ele>476.0</ele><time>2026-04-19T14:14:08.015Z</time></trkpt><trkpt lat="45.82314121091044" lon="8.227428099905575"><ele>476.0</ele><time>2026-04-19T14:14:09.016Z</time></trkpt><trkpt lat="45.823110945586684" lon="8.227648095479614"><ele>476.0</ele><time>2026-04-19T14:14:10.016Z</time></trkpt><trkpt lat="45.823086836018156" lon="8.2278596630149"><ele>476.0</ele><time>2026-04-19T14:14:11.016Z</time></trkpt><trkpt lat="45.82305923415253" lon="8.228066016129718"><ele>476.0</ele><time>2026-04-19T14:14:12.016Z</time></trkpt><trkpt lat="45.823029120445376" lon="8.228270828865563"><ele>476.0</ele><time>2026-04-19T14:14:13.016Z</time></trkpt><trkpt lat="45.82300169623165" lon="8.228470839977561"><ele>476.0</ele><time>2026-04-19T14:14:14.016Z</time></trkpt><trkpt lat="45.82297914422062" lon="8.228675090567341"><ele>476.0</ele><time>2026-04-19T14:14:15.016Z</time></trkpt><trkpt lat="45.82295143558861" lon="8.22887890481628"><ele>476.0</ele><time>2026-04-19T14:14:16.016Z</time></trkpt><trkpt lat="45.82291580289326" lon="8.229078734460632"><ele>476.0</ele><time>2026-04-19T14:14:17.016Z</time></trkpt><trkpt lat="45.822870552378916" lon="8.229264911960577"><ele>476.0</ele><time>2026-04-19T14:14:18.016Z</time></trkpt><trkpt lat="45.82280884875951" lon="8.229444608966055"><ele>476.0</ele><time>2026-04-19T14:14:19.016Z</time></trkpt><trkpt lat="45.82273007301621" lon="8.229617716962588"><ele>476.0</ele><time>2026-04-19T14:14:20.016Z</time></trkpt><trkpt lat="45.822636544925984" lon="8.229773086159081"><ele>476.0</ele><time>2026-04-19T14:14:21.016Z</time></trkpt><trkpt lat="45.82252769048485" lon="8.229906886813735"><ele>476.0</ele><time>2026-04-19T14:14:22.016Z</time></trkpt><trkpt lat="45.82240507832043" lon="8.230020716353103"><ele>476.0</ele><time>2026-04-19T14:14:23.016Z</time></trkpt><trkpt lat="45.82226918935525" lon="8.230113742464654"><ele>476.0</ele><time>2026-04-19T14:14:24.016Z</time></trkpt><trkpt lat="45.82212500054648" lon="8.230186333412835"><ele>476.0</ele><time>2026-04-19T14:14:25.016Z</time></trkpt><trkpt lat="45.82197700241368" lon="8.230236644706018"><ele>476.0</ele><time>2026-04-19T14:14:26.016Z</time></trkpt><trkpt lat="45.82182853867837" lon="8.230269466977227"><ele>476.0</ele><time>2026-04-19T14:14:27.016Z</time></trkpt><trkpt lat="45.82168414630848" lon="8.230295540189134"><ele>476.0</ele><time>2026-04-19T14:14:28.016Z</time></trkpt><trkpt lat="45.821539457735604" lon="8.23032074111851"><ele>476.0</ele><time>2026-04-19T14:14:29.016Z</time></trkpt><trkpt lat="45.82139884567121" lon="8.230346847646308"><ele>473.75</ele><time>2026-04-19T14:14:30.016Z</time></trkpt><trkpt lat="45.82126037606437" lon="8.230367365684875"><ele>471.5</ele><time>2026-04-19T14:14:31.016Z</time></trkpt><trkpt lat="45.82112073337452" lon="8.230384605965687"><ele>469.25</ele><time>2026-04-19T14:14:32.016Z</time></trkpt><trkpt lat="45.82098374186131" lon="8.23038966751943"><ele>467.0</ele><time>2026-04-19T14:14:33.016Z</time></trkpt><trkpt lat="45.82084870277241" lon="8.230389917255964"><ele>466.5</ele><time>2026-04-19T14:14:34.016Z</time></trkpt><trkpt lat="45.820710734255094" lon="8.230389331960023"><ele>466.0</ele><time>2026-04-19T14:14:35.016Z</time></trkpt><trkpt lat="45.82057292051105" lon="8.230393071459376"><ele>465.5</ele><time>2026-04-19T14:14:36.016Z</time></trkpt><trkpt lat="45.82044151907109" lon="8.230406579810877"><ele>465.0</ele><time>2026-04-19T14:14:37.016Z</time></trkpt><trkpt lat="45.82032205182356" lon="8.230438207532346"><ele>465.0</ele><time>2026-04-19T14:14:38.016Z</time></trkpt><trkpt lat="45.82019853553243" lon="8.230463759451082"><ele>465.0</ele><time>2026-04-19T14:14:39.016Z</time></trkpt><trkpt lat="45.82007121187947" lon="8.230489889464383"><ele>465.0</ele><time>2026-04-19T14:14:40.016Z</time></trkpt><trkpt lat="45.8199534131245" lon="8.230524269641348"><ele>465.0</ele><time>2026-04-19T14:14:41.016Z</time></trkpt><trkpt lat="45.81984390868553" lon="8.230558403237287"><ele>464.75</ele><time>2026-04-19T14:14:42.017Z</time></trkpt><trkpt lat="45.819734591076674" lon="8.230596679942737"><ele>464.5</ele><time>2026-04-19T14:14:43.017Z</time></trkpt><trkpt lat="45.81961903752214" lon="8.230650528409171"><ele>464.25</ele><time>2026-04-19T14:14:44.017Z</time></trkpt><trkpt lat="45.81951241063264" lon="8.230714070962451"><ele>464.0</ele><time>2026-04-19T14:14:45.017Z</time></trkpt><trkpt lat="45.819409198171016" lon="8.230777953623088"><ele>464.5</ele><time>2026-04-19T14:14:46.017Z</time></trkpt><trkpt lat="45.81932748405836" lon="8.230886207087094"><ele>465.0</ele><time>2026-04-19T14:14:47.017Z</time></trkpt><trkpt lat="45.81926194656143" lon="8.23102018669563"><ele>465.5</ele><time>2026-04-19T14:14:48.017Z</time></trkpt><trkpt lat="45.819212205313924" lon="8.231187960342176"><ele>466.0</ele><time>2026-04-19T14:14:49.017Z</time></trkpt><trkpt lat="45.81916761252574" lon="8.231356386363236"><ele>469.75</ele><time>2026-04-19T14:14:50.017Z</time></trkpt><trkpt lat="45.81912978206782" lon="8.231526534552163"><ele>473.5</ele><time>2026-04-19T14:14:51.017Z</time></trkpt><trkpt lat="45.81909650600587" lon="8.23169318525037"><ele>477.25</ele><time>2026-04-19T14:14:52.017Z</time></trkpt><trkpt lat="45.81906503770966" lon="8.231847937391402"><ele>481.0</ele><time>2026-04-19T14:14:53.017Z</time></trkpt><trkpt lat="45.81903705246172" lon="8.23199805537543"><ele>481.0</ele><time>2026-04-19T14:14:54.017Z</time></trkpt><trkpt lat="45.81901853897369" lon="8.232150479977902"><ele>481.0</ele><time>2026-04-19T14:14:55.017Z</time></trkpt><trkpt lat="45.81901072559325" lon="8.232308325674945"><ele>481.0</ele><time>2026-04-19T14:14:56.017Z</time></trkpt><trkpt lat="45.81902082971986" lon="8.23247305349059"><ele>481.0</ele><time>2026-04-19T14:14:57.017Z</time></trkpt><trkpt lat="45.819038979336796" lon="8.232656263438093"><ele>482.33333333333337</ele><time>2026-04-19T14:14:58.017Z</time></trkpt><trkpt lat="45.81905025144521" lon="8.232858939824004"><ele>483.66666666666663</ele><time>2026-04-19T14:14:59.017Z</time></trkpt><trkpt lat="45.819057153856726" lon="8.233076208623256"><ele>485.0</ele><time>2026-04-19T14:15:00.017Z</time></trkpt><trkpt lat="45.81905920987422" lon="8.233304956095308"><ele>485.0</ele><time>2026-04-19T14:15:01.017Z</time></trkpt><trkpt lat="45.81906424721228" lon="8.23353070110042"><ele>485.0</ele><time>2026-04-19T14:15:02.017Z</time></trkpt><trkpt lat="45.81906377614129" lon="8.23374126116257"><ele>485.0</ele><time>2026-04-19T14:15:03.017Z</time></trkpt><trkpt lat="45.819064159104656" lon="8.23394949679441"><ele>485.0</ele><time>2026-04-19T14:15:04.017Z</time></trkpt><trkpt lat="45.819065678328435" lon="8.234154691629682"><ele>484.5</ele><time>2026-04-19T14:15:05.017Z</time></trkpt><trkpt lat="45.81906835466543" lon="8.234358144603432"><ele>484.0</ele><time>2026-04-19T14:15:06.017Z</time></trkpt><trkpt lat="45.819071543734495" lon="8.23456395924135"><ele>483.5</ele><time>2026-04-19T14:15:07.017Z</time></trkpt><trkpt lat="45.819074855291866" lon="8.23477034333309"><ele>483.0</ele><time>2026-04-19T14:15:08.017Z</time></trkpt><trkpt lat="45.8190796580129" lon="8.23496040191572"><ele>480.0</ele><time>2026-04-19T14:15:09.017Z</time></trkpt><trkpt lat="45.81909244061486" lon="8.235140304464734"><ele>477.0</ele><time>2026-04-19T14:15:10.017Z</time></trkpt><trkpt lat="45.819117444628134" lon="8.235302590790385"><ele>474.0</ele><time>2026-04-19T14:15:11.017Z</time></trkpt><trkpt lat="45.819158834106695" lon="8.235453373294305"><ele>471.0</ele><time>2026-04-19T14:15:12.017Z</time></trkpt><trkpt lat="45.81921008925204" lon="8.235605783777702"><ele>471.5</ele><time>2026-04-19T14:15:13.017Z</time></trkpt><trkpt lat="45.81928037644829" lon="8.235753360441317"><ele>472.0</ele><time>2026-04-19T14:15:14.017Z</time></trkpt><trkpt lat="45.81935873493635" lon="8.23590019023151"><ele>472.5</ele><time>2026-04-19T14:15:15.018Z</time></trkpt><trkpt lat="45.81944460449282" lon="8.236042213802735"><ele>473.0</ele><time>2026-04-19T14:15:16.018Z</time></trkpt><trkpt lat="45.819527535807154" lon="8.236189148872736"><ele>473.0</ele><time>2026-04-19T14:15:17.018Z</time></trkpt><trkpt lat="45.819610752442266" lon="8.236338977457168"><ele>473.0</ele><time>2026-04-19T14:15:18.018Z</time></trkpt><trkpt lat="45.81969683698459" lon="8.236494844008437"><ele>473.0</ele><time>2026-04-19T14:15:19.018Z</time></trkpt><trkpt lat="45.81978384466076" lon="8.236656873497658"><ele>473.0</ele><time>2026-04-19T14:15:20.018Z</time></trkpt><trkpt lat="45.819874874366306" lon="8.236822381586753"><ele>473.75</ele><time>2026-04-19T14:15:21.018Z</time></trkpt><trkpt lat="45.81996713340247" lon="8.236988025609678"><ele>474.5</ele><time>2026-04-19T14:15:22.018Z</time></trkpt><trkpt lat="45.82005631453702" lon="8.237147175246704"><ele>475.25</ele><time>2026-04-19T14:15:23.018Z</time></trkpt><trkpt lat="45.820138982969226" lon="8.237296687559958"><ele>476.0</ele><time>2026-04-19T14:15:24.018Z</time></trkpt><trkpt lat="45.820216211612724" lon="8.23744368378442"><ele>476.0</ele><time>2026-04-19T14:15:25.018Z</time></trkpt><trkpt lat="45.82028958550479" lon="8.237582768790592"><ele>476.0</ele><time>2026-04-19T14:15:26.018Z</time></trkpt><trkpt lat="45.82036150736235" lon="8.237714313943313"><ele>476.0</ele><time>2026-04-19T14:15:27.018Z</time></trkpt><trkpt lat="45.82043456156958" lon="8.237851273817023"><ele>476.0</ele><time>2026-04-19T14:15:28.018Z</time></trkpt><trkpt lat="45.82051187182367" lon="8.237987579605571"><ele>476.0</ele><time>2026-04-19T14:15:29.018Z</time></trkpt><trkpt lat="45.82059278870989" lon="8.238125294209645"><ele>476.0</ele><time>2026-04-19T14:15:30.018Z</time></trkpt><trkpt lat="45.82066913174551" lon="8.23826346310071"><ele>476.0</ele><time>2026-04-19T14:15:31.018Z</time></trkpt><trkpt lat="45.82073792796134" lon="8.238408992150509"><ele>476.0</ele><time>2026-04-19T14:15:32.018Z</time></trkpt><trkpt lat="45.820795926019855" lon="8.238569138775443"><ele>474.25</ele><time>2026-04-19T14:15:33.018Z</time></trkpt><trkpt lat="45.820824547922804" lon="8.238745839085452"><ele>472.5</ele><time>2026-04-19T14:15:34.018Z</time></trkpt><trkpt lat="45.82082514288054" lon="8.2389411359876"><ele>470.75</ele><time>2026-04-19T14:15:35.018Z</time></trkpt><trkpt lat="45.82081421480748" lon="8.239128967672432"><ele>469.0</ele><time>2026-04-19T14:15:36.018Z</time></trkpt><trkpt lat="45.82079350812205" lon="8.239313172181951"><ele>468.75</ele><time>2026-04-19T14:15:37.018Z</time></trkpt><trkpt lat="45.82074965697636" lon="8.239493299154262"><ele>468.5</ele><time>2026-04-19T14:15:38.018Z</time></trkpt><trkpt lat="45.82068489289651" lon="8.239665872785872"><ele>468.25</ele><time>2026-04-19T14:15:39.018Z</time></trkpt><trkpt lat="45.820616974227065" lon="8.239839094487538"><ele>468.0</ele><time>2026-04-19T14:15:40.018Z</time></trkpt><trkpt lat="45.82056139738356" lon="8.239995280426204"><ele>474.0</ele><time>2026-04-19T14:15:41.018Z</time></trkpt><trkpt lat="45.820506147363446" lon="8.240151892126224"><ele>480.0</ele><time>2026-04-19T14:15:42.018Z</time></trkpt><trkpt lat="45.82045012101554" lon="8.240301906071135"><ele>486.0</ele><time>2026-04-19T14:15:43.018Z</time></trkpt><trkpt lat="45.820400598934924" lon="8.240448683965328"><ele>492.0</ele><time>2026-04-19T14:15:44.018Z</time></trkpt><trkpt lat="45.82035632212312" lon="8.240599889722057"><ele>496.25</ele><time>2026-04-19T14:15:45.018Z</time></trkpt><trkpt lat="45.82031115897941" lon="8.24077115997168"><ele>500.5</ele><time>2026-04-19T14:15:46.018Z</time></trkpt><trkpt lat="45.820270681281684" lon="8.240954480680928"><ele>504.75</ele><time>2026-04-19T14:15:47.018Z</time></trkpt><trkpt lat="45.82022453590519" lon="8.241147096539505"><ele>509.0</ele><time>2026-04-19T14:15:48.019Z</time></trkpt><trkpt lat="45.82017408966008" lon="8.241342980382825"><ele>501.0</ele><time>2026-04-19T14:15:49.019Z</time></trkpt><trkpt lat="45.82010334176444" lon="8.241528693176736"><ele>493.0</ele><time>2026-04-19T14:15:50.019Z</time></trkpt><trkpt lat="45.82000448227026" lon="8.24168605171355"><ele>485.0</ele><time>2026-04-19T14:15:51.019Z</time></trkpt><trkpt lat="45.819902332060046" lon="8.24181422090281"><ele>477.0</ele><time>2026-04-19T14:15:52.019Z</time></trkpt><trkpt lat="45.819799654716505" lon="8.24192688222483"><ele>477.0</ele><time>2026-04-19T14:15:53.019Z</time></trkpt><trkpt lat="45.81970111955456" lon="8.242045861504032"><ele>477.0</ele><time>2026-04-19T14:15:54.019Z</time></trkpt><trkpt lat="45.819598338423084" lon="8.242159928096816"><ele>477.0</ele><time>2026-04-19T14:15:55.019Z</time></trkpt><trkpt lat="45.81948419865842" lon="8.242250601927237"><ele>477.0</ele><time>2026-04-19T14:15:56.019Z</time></trkpt><trkpt lat="45.8193618306447" lon="8.242320713943494"><ele>476.75</ele><time>2026-04-19T14:15:57.019Z</time></trkpt><trkpt lat="45.819232412056415" lon="8.242375285037351"><ele>476.5</ele><time>2026-04-19T14:15:58.019Z</time></trkpt><trkpt lat="45.81909763428972" lon="8.24242450693501"><ele>476.25</ele><time>2026-04-19T14:15:59.019Z</time></trkpt><trkpt lat="45.8189679464972" lon="8.242475300111527"><ele>476.0</ele><time>2026-04-19T14:16:00.019Z</time></trkpt><trkpt lat="45.81884700078327" lon="8.242523146654017"><ele>476.0</ele><time>2026-04-19T14:16:01.019Z</time></trkpt><trkpt lat="45.81873302751417" lon="8.242563247600895"><ele>476.0</ele><time>2026-04-19T14:16:02.019Z</time></trkpt><trkpt lat="45.81862112816218" lon="8.242596335937973"><ele>476.0</ele><time>2026-04-19T14:16:03.019Z</time></trkpt><trkpt lat="45.818504922474716" lon="8.242632811863777"><ele>476.0</ele><time>2026-04-19T14:16:04.019Z</time></trkpt><trkpt lat="45.818386291027466" lon="8.242670988686877"><ele>469.75</ele><time>2026-04-19T14:16:05.019Z</time></trkpt><trkpt lat="45.81826112451476" lon="8.242712978466828"><ele>463.5</ele><time>2026-04-19T14:16:06.019Z</time></trkpt><trkpt lat="45.81812412365491" lon="8.24275491461807"><ele>457.25</ele><time>2026-04-19T14:16:07.019Z</time></trkpt><trkpt lat="45.817985923217876" lon="8.242805582575102"><ele>451.0</ele><time>2026-04-19T14:16:08.019Z</time></trkpt><trkpt lat="45.81784458761958" lon="8.242853939245308"><ele>451.0</ele><time>2026-04-19T14:16:09.019Z</time></trkpt><trkpt lat="45.81769596220519" lon="8.242907899755615"><ele>451.0</ele><time>2026-04-19T14:16:10.019Z</time></trkpt><trkpt lat="45.81753946852343" lon="8.242961134842197"><ele>451.0</ele><time>2026-04-19T14:16:11.019Z</time></trkpt><trkpt lat="45.81739192768275" lon="8.243016827622174"><ele>451.0</ele><time>2026-04-19T14:16:12.019Z</time></trkpt><trkpt lat="45.8172459351013" lon="8.243066148916652"><ele>451.0</ele><time>2026-04-19T14:16:13.019Z</time></trkpt><trkpt lat="45.8171014858928" lon="8.243117692699421"><ele>451.0</ele><time>2026-04-19T14:16:14.019Z</time></trkpt><trkpt lat="45.8169585134742" lon="8.243169367495355"><ele>451.0</ele><time>2026-04-19T14:16:15.019Z</time></trkpt><trkpt lat="45.81681830623163" lon="8.243220628078664"><ele>451.0</ele><time>2026-04-19T14:16:16.019Z</time></trkpt><trkpt lat="45.81668351691811" lon="8.243262609011563"><ele>451.0</ele><time>2026-04-19T14:16:17.019Z</time></trkpt><trkpt lat="45.816550637600386" lon="8.24329816262129"><ele>451.0</ele><time>2026-04-19T14:16:18.019Z</time></trkpt><trkpt lat="45.81641661152933" lon="8.243316478775993"><ele>451.0</ele><time>2026-04-19T14:16:19.019Z</time></trkpt><trkpt lat="45.81629165251567" lon="8.243303051956836"><ele>451.0</ele><time>2026-04-19T14:16:20.019Z</time></trkpt><trkpt lat="45.81617789265798" lon="8.243260263137024"><ele>451.0</ele><time>2026-04-19T14:16:21.019Z</time></trkpt><trkpt lat="45.81607325737774" lon="8.243186754821508"><ele>451.0</ele><time>2026-04-19T14:16:22.02Z</time></trkpt><trkpt lat="45.81599589266699" lon="8.243073651991379"><ele>451.0</ele><time>2026-04-19T14:16:23.02Z</time></trkpt><trkpt lat="45.81594084520449" lon="8.242923911356261"><ele>451.20000000000005</ele><time>2026-04-19T14:16:24.02Z</time></trkpt><trkpt lat="45.81589932534754" lon="8.242755750954878"><ele>451.40000000000003</ele><time>2026-04-19T14:16:25.02Z</time></trkpt><trkpt lat="45.81584712200998" lon="8.242617966528352"><ele>451.6</ele><time>2026-04-19T14:16:26.02Z</time></trkpt><trkpt lat="45.81577452192639" lon="8.24251541103167"><ele>451.8</ele><time>2026-04-19T14:16:27.02Z</time></trkpt><trkpt lat="45.81568764297491" lon="8.242436118361603"><ele>452.0</ele><time>2026-04-19T14:16:28.02Z</time></trkpt><trkpt lat="45.81559298611269" lon="8.242394642390392"><ele>452.0</ele><time>2026-04-19T14:16:29.02Z</time></trkpt><trkpt lat="45.81548765716315" lon="8.242385688920038"><ele>452.00000000000006</ele><time>2026-04-19T14:16:30.02Z</time></trkpt><trkpt lat="45.81538039534245" lon="8.242396590233444"><ele>452.00000000000006</ele><time>2026-04-19T14:16:31.02Z</time></trkpt><trkpt lat="45.815281761745275" lon="8.242448374906967"><ele>452.0</ele><time>2026-04-19T14:16:32.02Z</time></trkpt><trkpt lat="45.815188205470605" lon="8.242528376203442"><ele>452.0</ele><time>2026-04-19T14:16:33.02Z</time></trkpt><trkpt lat="45.81511437905723" lon="8.24264345405317"><ele>450.5</ele><time>2026-04-19T14:16:34.02Z</time></trkpt><trkpt lat="45.815058737477734" lon="8.242786849469368"><ele>449.0</ele><time>2026-04-19T14:16:35.02Z</time></trkpt><trkpt lat="45.81502910587025" lon="8.242946714621493"><ele>447.5</ele><time>2026-04-19T14:16:36.02Z</time></trkpt><trkpt lat="45.8150300330783" lon="8.243108885702094"><ele>446.0</ele><time>2026-04-19T14:16:37.02Z</time></trkpt><trkpt lat="45.81505513408616" lon="8.243274678783683"><ele>446.0</ele><time>2026-04-19T14:16:38.02Z</time></trkpt><trkpt lat="45.81510697129722" lon="8.243430475180235"><ele>446.0</ele><time>2026-04-19T14:16:39.02Z</time></trkpt><trkpt lat="45.81518656345701" lon="8.243585283251655"><ele>446.0</ele><time>2026-04-19T14:16:40.02Z</time></trkpt><trkpt lat="45.81527857891786" lon="8.243740551542686"><ele>446.0</ele><time>2026-04-19T14:16:41.02Z</time></trkpt><trkpt lat="45.8153771802281" lon="8.243898636169067"><ele>447.3333333333333</ele><time>2026-04-19T14:16:42.02Z</time></trkpt><trkpt lat="45.8154738189278" lon="8.244068164549724"><ele>448.66666666666663</ele><time>2026-04-19T14:16:43.02Z</time></trkpt><trkpt lat="45.815568277556196" lon="8.244236420153527"><ele>450.0</ele><time>2026-04-19T14:16:44.02Z</time></trkpt><trkpt lat="45.81566992594746" lon="8.244403794186798"><ele>450.0</ele><time>2026-04-19T14:16:45.02Z</time></trkpt><trkpt lat="45.81577253684432" lon="8.244552272954799"><ele>450.0</ele><time>2026-04-19T14:16:46.02Z</time></trkpt><trkpt lat="45.815879645663834" lon="8.244693337709583"><ele>450.0</ele><time>2026-04-19T14:16:47.02Z</time></trkpt><trkpt lat="45.8159924386023" lon="8.244822461592168"><ele>450.0</ele><time>2026-04-19T14:16:48.02Z</time></trkpt><trkpt lat="45.81610751997716" lon="8.244943485821585"><ele>452.25</ele><time>2026-04-19T14:16:49.02Z</time></trkpt><trkpt lat="45.816219902986575" lon="8.245047954189271"><ele>454.5</ele><time>2026-04-19T14:16:50.02Z</time></trkpt><trkpt lat="45.81632775001565" lon="8.24514372302797"><ele>456.75</ele><time>2026-04-19T14:16:51.02Z</time></trkpt><trkpt lat="45.816423191100824" lon="8.245233196302674"><ele>459.0</ele><time>2026-04-19T14:16:52.02Z</time></trkpt><trkpt lat="45.816499381892775" lon="8.245312840528591"><ele>459.0</ele><time>2026-04-19T14:16:53.02Z</time></trkpt><trkpt lat="45.816556559790726" lon="8.245380265561225"><ele>459.0</ele><time>2026-04-19T14:16:54.02Z</time></trkpt><trkpt lat="45.816612930102615" lon="8.245493557920033"><ele>459.0</ele><time>2026-04-19T14:16:56.021Z</time></trkpt><trkpt lat="45.81659539505194" lon="8.245649635032581"><ele>459.0</ele><time>2026-04-19T14:16:58.021Z</time></trkpt><trkpt lat="45.81654983229048" lon="8.24574415348316"><ele>459.0</ele><time>2026-04-19T14:16:59.021Z</time></trkpt><trkpt lat="45.81649982013645" lon="8.245852778290539"><ele>460.0</ele><time>2026-04-19T14:17:00.021Z</time></trkpt><trkpt lat="45.81644959373397" lon="8.245982868169337"><ele>461.0</ele><time>2026-04-19T14:17:01.021Z</time></trkpt><trkpt lat="45.81639407243034" lon="8.246117412258965"><ele>462.0</ele><time>2026-04-19T14:17:02.021Z</time></trkpt><trkpt lat="45.81634084702919" lon="8.246252028951515"><ele>463.0</ele><time>2026-04-19T14:17:03.021Z</time></trkpt><trkpt lat="45.816283568825256" lon="8.246400692190516"><ele>464.0</ele><time>2026-04-19T14:17:04.021Z</time></trkpt><trkpt lat="45.81622597774594" lon="8.246556425914882"><ele>464.25</ele><time>2026-04-19T14:17:05.021Z</time></trkpt><trkpt lat="45.816161514250105" lon="8.24672382351072"><ele>464.5</ele><time>2026-04-19T14:17:06.021Z</time></trkpt><trkpt lat="45.81609280243228" lon="8.246894363957054"><ele>464.75</ele><time>2026-04-19T14:17:07.021Z</time></trkpt><trkpt lat="45.816023251524975" lon="8.247067062466286"><ele>465.0</ele><time>2026-04-19T14:17:08.021Z</time></trkpt><trkpt lat="45.81595416305709" lon="8.24723809846973"><ele>463.8</ele><time>2026-04-19T14:17:09.021Z</time></trkpt><trkpt lat="45.81588923023913" lon="8.247397409639348"><ele>462.6</ele><time>2026-04-19T14:17:10.021Z</time></trkpt><trkpt lat="45.815837271369475" lon="8.247538870315942"><ele>461.4</ele><time>2026-04-19T14:17:11.021Z</time></trkpt><trkpt lat="45.815789062488584" lon="8.247660118708627"><ele>460.2</ele><time>2026-04-19T14:17:12.021Z</time></trkpt><trkpt lat="45.815747962742535" lon="8.247760620613475"><ele>459.0</ele><time>2026-04-19T14:17:13.021Z</time></trkpt><trkpt lat="45.815726441493034" lon="8.247848696364535"><ele>459.0</ele><time>2026-04-19T14:17:14.021Z</time></trkpt><trkpt lat="45.81575278481619" lon="8.247969414150045"><ele>459.0</ele><time>2026-04-19T14:17:16.021Z</time></trkpt><trkpt lat="45.815876299919346" lon="8.248036138395895"><ele>459.0</ele><time>2026-04-19T14:17:18.021Z</time></trkpt><trkpt lat="45.81596543237413" lon="8.248054765566483"><ele>459.0</ele><time>2026-04-19T14:17:19.021Z</time></trkpt><trkpt lat="45.816052958658915" lon="8.248068760254172"><ele>459.0</ele><time>2026-04-19T14:17:20.021Z</time></trkpt><trkpt lat="45.816158139121384" lon="8.24810100403666"><ele>459.5</ele><time>2026-04-19T14:17:21.021Z</time></trkpt><trkpt lat="45.816269794806594" lon="8.248139483539722"><ele>460.0</ele><time>2026-04-19T14:17:22.021Z</time></trkpt><trkpt lat="45.81637903787625" lon="8.248175642672532"><ele>460.5</ele><time>2026-04-19T14:17:23.021Z</time></trkpt><trkpt lat="45.816497699979024" lon="8.248214633911383"><ele>461.0</ele><time>2026-04-19T14:17:24.021Z</time></trkpt><trkpt lat="45.816616575006094" lon="8.248244927981657"><ele>461.0</ele><time>2026-04-19T14:17:25.021Z</time></trkpt><trkpt lat="45.816733909853724" lon="8.24827177513979"><ele>461.0</ele><time>2026-04-19T14:17:26.021Z</time></trkpt><trkpt lat="45.816839080276445" lon="8.2483013478627"><ele>461.0</ele><time>2026-04-19T14:17:27.021Z</time></trkpt><trkpt lat="45.81693803369819" lon="8.24832985449258"><ele>461.0</ele><time>2026-04-19T14:17:28.022Z</time></trkpt><trkpt lat="45.81703475493348" lon="8.248348027004528"><ele>461.0</ele><time>2026-04-19T14:17:29.022Z</time></trkpt><trkpt lat="45.81713375346228" lon="8.248354967075224"><ele>461.5</ele><time>2026-04-19T14:17:30.022Z</time></trkpt><trkpt lat="45.81723782132018" lon="8.24836642012008"><ele>462.0</ele><time>2026-04-19T14:17:31.022Z</time></trkpt><trkpt lat="45.817351793435435" lon="8.248373588705117"><ele>462.5</ele><time>2026-04-19T14:17:32.022Z</time></trkpt><trkpt lat="45.81746914345768" lon="8.248390141510722"><ele>463.0</ele><time>2026-04-19T14:17:33.022Z</time></trkpt><trkpt lat="45.817591104090106" lon="8.24840825751091"><ele>464.25</ele><time>2026-04-19T14:17:34.022Z</time></trkpt><trkpt lat="45.81771232255291" lon="8.248441593163628"><ele>465.5</ele><time>2026-04-19T14:17:35.022Z</time></trkpt><trkpt lat="45.81782724956429" lon="8.248491175200158"><ele>466.75</ele><time>2026-04-19T14:17:36.022Z</time></trkpt><trkpt lat="45.817943272570695" lon="8.248538062139223"><ele>468.0</ele><time>2026-04-19T14:17:37.022Z</time></trkpt><trkpt lat="45.818050251658356" lon="8.248587288651278"><ele>468.0</ele><time>2026-04-19T14:17:38.022Z</time></trkpt><trkpt lat="45.81815438392123" lon="8.24862784301933"><ele>467.99999999999994</ele><time>2026-04-19T14:17:39.022Z</time></trkpt><trkpt lat="45.818256809574144" lon="8.24866739755878"><ele>467.99999999999994</ele><time>2026-04-19T14:17:40.022Z</time></trkpt><trkpt lat="45.81836015895375" lon="8.248726351260572"><ele>468.0</ele><time>2026-04-19T14:17:41.022Z</time></trkpt><trkpt lat="45.818466616464576" lon="8.248800085766133"><ele>468.0</ele><time>2026-04-19T14:17:42.022Z</time></trkpt><trkpt lat="45.818567757859405" lon="8.248884564418814"><ele>468.0</ele><time>2026-04-19T14:17:43.022Z</time></trkpt><trkpt lat="45.81866557088657" lon="8.248979622552048"><ele>468.0</ele><time>2026-04-19T14:17:44.022Z</time></trkpt><trkpt lat="45.818762970453754" lon="8.249079484385716"><ele>468.0</ele><time>2026-04-19T14:17:45.022Z</time></trkpt><trkpt lat="45.81886229617672" lon="8.249178062066724"><ele>468.0</ele><time>2026-04-19T14:17:46.022Z</time></trkpt><trkpt lat="45.81896093517836" lon="8.249277792678564"><ele>468.0</ele><time>2026-04-19T14:17:47.022Z</time></trkpt><trkpt lat="45.8190676224801" lon="8.249374165889979"><ele>468.0</ele><time>2026-04-19T14:17:48.022Z</time></trkpt><trkpt lat="45.819171646357084" lon="8.249474499183211"><ele>468.0</ele><time>2026-04-19T14:17:49.022Z</time></trkpt><trkpt lat="45.81927761060504" lon="8.24957521072719"><ele>468.0</ele><time>2026-04-19T14:17:50.022Z</time></trkpt><trkpt lat="45.819385884067295" lon="8.24967774141038"><ele>468.25</ele><time>2026-04-19T14:17:51.022Z</time></trkpt><trkpt lat="45.81948828747302" lon="8.24978423349271"><ele>468.5</ele><time>2026-04-19T14:17:52.022Z</time></trkpt><trkpt lat="45.81958868954992" lon="8.249886248805687"><ele>468.75</ele><time>2026-04-19T14:17:53.022Z</time></trkpt><trkpt lat="45.819688473187384" lon="8.249993215731232"><ele>469.0</ele><time>2026-04-19T14:17:54.022Z</time></trkpt><trkpt lat="45.8197847660206" lon="8.250109657698733"><ele>469.0</ele><time>2026-04-19T14:17:55.022Z</time></trkpt><trkpt lat="45.81987660762644" lon="8.250231825320093"><ele>469.0</ele><time>2026-04-19T14:17:56.022Z</time></trkpt><trkpt lat="45.819967685841135" lon="8.250353531012701"><ele>469.0</ele><time>2026-04-19T14:17:57.022Z</time></trkpt><trkpt lat="45.820080303201266" lon="8.250430434997947"><ele>469.0</ele><time>2026-04-19T14:17:58.022Z</time></trkpt><trkpt lat="45.820214038372065" lon="8.250457080067799"><ele>469.0</ele><time>2026-04-19T14:17:59.022Z</time></trkpt><trkpt lat="45.82034254997038" lon="8.250446939977895"><ele>469.0</ele><time>2026-04-19T14:18:00.022Z</time></trkpt><trkpt lat="45.82045836275146" lon="8.250409973970427"><ele>469.0</ele><time>2026-04-19T14:18:01.023Z</time></trkpt><trkpt lat="45.82056072956208" lon="8.25032173093973"><ele>469.0</ele><time>2026-04-19T14:18:02.023Z</time></trkpt><trkpt lat="45.82065452913015" lon="8.250215904978068"><ele>469.00000000000006</ele><time>2026-04-19T14:18:03.023Z</time></trkpt><trkpt lat="45.82073480512649" lon="8.250097136655782"><ele>469.0</ele><time>2026-04-19T14:18:04.023Z</time></trkpt><trkpt lat="45.82079836512954" lon="8.249985204173216"><ele>469.0</ele><time>2026-04-19T14:18:05.023Z</time></trkpt><trkpt lat="45.820854621890305" lon="8.249896216677739"><ele>469.0</ele><time>2026-04-19T14:18:06.023Z</time></trkpt><trkpt lat="45.82090288908209" lon="8.249834800369383"><ele>469.00000000000006</ele><time>2026-04-19T14:18:07.023Z</time></trkpt><trkpt lat="45.82097508793988" lon="8.249809793515443"><ele>469.0</ele><time>2026-04-19T14:18:09.023Z</time></trkpt><trkpt lat="45.8210414940679" lon="8.249938806128247"><ele>470.6</ele><time>2026-04-19T14:18:11.023Z</time></trkpt><trkpt lat="45.821068082029996" lon="8.250050965278165"><ele>472.2</ele><time>2026-04-19T14:18:12.023Z</time></trkpt><trkpt lat="45.82110079707408" lon="8.250164671602978"><ele>473.80000000000007</ele><time>2026-04-19T14:18:13.023Z</time></trkpt><trkpt lat="45.82113276009525" lon="8.250293352573616"><ele>475.40000000000003</ele><time>2026-04-19T14:18:14.023Z</time></trkpt><trkpt lat="45.82115322326618" lon="8.25043942902328"><ele>477.0</ele><time>2026-04-19T14:18:15.023Z</time></trkpt><trkpt lat="45.82115973102979" lon="8.25060230558215"><ele>481.25</ele><time>2026-04-19T14:18:16.023Z</time></trkpt><trkpt lat="45.821151058725" lon="8.250780425812682"><ele>485.5</ele><time>2026-04-19T14:18:17.023Z</time></trkpt><trkpt lat="45.82113307369616" lon="8.25095186510172"><ele>489.75</ele><time>2026-04-19T14:18:18.023Z</time></trkpt><trkpt lat="45.82110438421182" lon="8.251134493876393"><ele>494.0</ele><time>2026-04-19T14:18:19.023Z</time></trkpt><trkpt lat="45.821064936934334" lon="8.251322417899901"><ele>498.0</ele><time>2026-04-19T14:18:20.023Z</time></trkpt><trkpt lat="45.82100845055282" lon="8.251510157282553"><ele>502.0</ele><time>2026-04-19T14:18:21.023Z</time></trkpt><trkpt lat="45.82093870417008" lon="8.251691922316708"><ele>506.0</ele><time>2026-04-19T14:18:22.023Z</time></trkpt><trkpt lat="45.82084620650389" lon="8.25185568054567"><ele>510.0</ele><time>2026-04-19T14:18:23.023Z</time></trkpt><trkpt lat="45.82074370187799" lon="8.25199313835791"><ele>503.25</ele><time>2026-04-19T14:18:24.023Z</time></trkpt><trkpt lat="45.82062324892616" lon="8.252105785762962"><ele>496.5</ele><time>2026-04-19T14:18:25.023Z</time></trkpt><trkpt lat="45.82049385271442" lon="8.252200891706053"><ele>489.75</ele><time>2026-04-19T14:18:26.023Z</time></trkpt><trkpt lat="45.82036996065547" lon="8.252278585761065"><ele>483.0</ele><time>2026-04-19T14:18:27.023Z</time></trkpt><trkpt lat="45.820244461549954" lon="8.25235855328943"><ele>479.0</ele><time>2026-04-19T14:18:28.023Z</time></trkpt><trkpt lat="45.8201209645498" lon="8.25244452102179"><ele>475.0</ele><time>2026-04-19T14:18:29.023Z</time></trkpt><trkpt lat="45.820002215069266" lon="8.252528537254726"><ele>471.0</ele><time>2026-04-19T14:18:30.023Z</time></trkpt><trkpt lat="45.81989157819962" lon="8.252605204479368"><ele>467.0</ele><time>2026-04-19T14:18:31.023Z</time></trkpt><trkpt lat="45.819786112783476" lon="8.252681699856872"><ele>467.0</ele><time>2026-04-19T14:18:32.023Z</time></trkpt><trkpt lat="45.81968743959249" lon="8.25275613117594"><ele>467.0</ele><time>2026-04-19T14:18:33.023Z</time></trkpt><trkpt lat="45.81958502244013" lon="8.252831303403392"><ele>467.0</ele><time>2026-04-19T14:18:34.024Z</time></trkpt><trkpt lat="45.81947866449449" lon="8.252914759776457"><ele>467.0</ele><time>2026-04-19T14:18:35.024Z</time></trkpt><trkpt lat="45.81936568066648" lon="8.252998959594052"><ele>468.75</ele><time>2026-04-19T14:18:36.024Z</time></trkpt><trkpt lat="45.81925026089214" lon="8.253080163996174"><ele>470.5</ele><time>2026-04-19T14:18:37.024Z</time></trkpt><trkpt lat="45.81913197373993" lon="8.253156705997682"><ele>472.25</ele><time>2026-04-19T14:18:38.024Z</time></trkpt><trkpt lat="45.819013553610795" lon="8.25323463775517"><ele>474.0</ele><time>2026-04-19T14:18:39.024Z</time></trkpt><trkpt lat="45.8189027689234" lon="8.253300600114883"><ele>474.0</ele><time>2026-04-19T14:18:40.024Z</time></trkpt><trkpt lat="45.81879179438475" lon="8.253349393676029"><ele>474.0</ele><time>2026-04-19T14:18:41.024Z</time></trkpt><trkpt lat="45.81867663237398" lon="8.253363069173865"><ele>474.0</ele><time>2026-04-19T14:18:42.024Z</time></trkpt><trkpt lat="45.818565621905876" lon="8.253352324316356"><ele>474.0</ele><time>2026-04-19T14:18:43.024Z</time></trkpt><trkpt lat="45.818458137488896" lon="8.253296650257871"><ele>474.3333333333333</ele><time>2026-04-19T14:18:44.024Z</time></trkpt><trkpt lat="45.818364269311125" lon="8.25324484829296"><ele>474.66666666666663</ele><time>2026-04-19T14:18:45.024Z</time></trkpt><trkpt lat="45.81828744632361" lon="8.25320556837644"><ele>475.0</ele><time>2026-04-19T14:18:46.024Z</time></trkpt><trkpt lat="45.81822488129392" lon="8.253188222665731"><ele>475.3333333333333</ele><time>2026-04-19T14:18:47.024Z</time></trkpt><trkpt lat="45.818122978630704" lon="8.253186238400428"><ele>475.66666666666663</ele><time>2026-04-19T14:18:49.024Z</time></trkpt><trkpt lat="45.818034003807576" lon="8.253185738711394"><ele>476.0</ele><time>2026-04-19T14:18:51.024Z</time></trkpt><trkpt lat="45.817937989084236" lon="8.253136813436582"><ele>474.20000000000005</ele><time>2026-04-19T14:18:53.024Z</time></trkpt><trkpt lat="45.81784070198266" lon="8.253063929018671"><ele>472.40000000000003</ele><time>2026-04-19T14:18:55.024Z</time></trkpt><trkpt lat="45.81774327579718" lon="8.253006743503327"><ele>470.6</ele><time>2026-04-19T14:18:57.024Z</time></trkpt><trkpt lat="45.81764048068857" lon="8.252933677015768"><ele>468.8</ele><time>2026-04-19T14:18:59.024Z</time></trkpt><trkpt lat="45.8175427745339" lon="8.252866703358812"><ele>467.0</ele><time>2026-04-19T14:19:01.024Z</time></trkpt><trkpt lat="45.81744191232164" lon="8.252817710333803"><ele>467.0</ele><time>2026-04-19T14:19:03.024Z</time></trkpt><trkpt lat="45.81735263816471" lon="8.25274512969156"><ele>467.00000000000006</ele><time>2026-04-19T14:19:05.024Z</time></trkpt><trkpt lat="45.817257552005636" lon="8.252662517567519"><ele>467.00000000000006</ele><time>2026-04-19T14:19:07.025Z</time></trkpt><trkpt lat="45.81715269864939" lon="8.252606908089605"><ele>467.0</ele><time>2026-04-19T14:19:09.025Z</time></trkpt><trkpt lat="45.817057348891254" lon="8.252682797395307"><ele>467.0</ele><time>2026-04-19T14:19:11.025Z</time></trkpt><trkpt lat="45.8170297423271" lon="8.252770921267857"><ele>466.99999999999994</ele><time>2026-04-19T14:19:12.025Z</time></trkpt><trkpt lat="45.816992871628536" lon="8.25286288824345"><ele>467.0</ele><time>2026-04-19T14:19:13.025Z</time></trkpt><trkpt lat="45.81695700403804" lon="8.252965855058907"><ele>467.0</ele><time>2026-04-19T14:19:14.025Z</time></trkpt><trkpt lat="45.81692513545585" lon="8.253066868833168"><ele>467.0</ele><time>2026-04-19T14:19:15.025Z</time></trkpt><trkpt lat="45.81690442280699" lon="8.25316094167463"><ele>466.99999999999994</ele><time>2026-04-19T14:19:16.025Z</time></trkpt><trkpt lat="45.816854281189556" lon="8.253311661685952"><ele>467.0</ele><time>2026-04-19T14:19:18.025Z</time></trkpt><trkpt lat="45.81686106447367" lon="8.253453719126771"><ele>467.49999999999994</ele><time>2026-04-19T14:19:20.025Z</time></trkpt><trkpt lat="45.8169167428022" lon="8.253540706539143"><ele>468.0</ele><time>2026-04-19T14:19:22.025Z</time></trkpt><trkpt lat="45.817014683649546" lon="8.253605966282356"><ele>468.5</ele><time>2026-04-19T14:19:24.025Z</time></trkpt><trkpt lat="45.817071699570796" lon="8.253664410635448"><ele>469.0</ele><time>2026-04-19T14:19:25.025Z</time></trkpt><trkpt lat="45.817123239001496" lon="8.253742757293992"><ele>469.49999999999994</ele><time>2026-04-19T14:19:26.025Z</time></trkpt><trkpt lat="45.81717474646779" lon="8.253836077313185"><ele>470.0</ele><time>2026-04-19T14:19:27.025Z</time></trkpt><trkpt lat="45.817207625585475" lon="8.254008101626399"><ele>471.75</ele><time>2026-04-19T14:19:29.025Z</time></trkpt><trkpt lat="45.817218724224126" lon="8.254166293727117"><ele>473.5</ele><time>2026-04-19T14:19:31.025Z</time></trkpt><trkpt lat="45.817111256984134" lon="8.254295685606241"><ele>475.25</ele><time>2026-04-19T14:19:33.025Z</time></trkpt><trkpt lat="45.817024654261004" lon="8.254358049469225"><ele>477.0</ele><time>2026-04-19T14:19:34.025Z</time></trkpt><trkpt lat="45.81692666691734" lon="8.254432366105394"><ele>477.0</ele><time>2026-04-19T14:19:35.025Z</time></trkpt><trkpt lat="45.81682654004978" lon="8.2544946715671"><ele>477.00000000000006</ele><time>2026-04-19T14:19:36.025Z</time></trkpt><trkpt lat="45.816731081379615" lon="8.254540144316978"><ele>477.00000000000006</ele><time>2026-04-19T14:19:37.025Z</time></trkpt><trkpt lat="45.81662297432805" lon="8.254562393477874"><ele>477.0</ele><time>2026-04-19T14:19:38.025Z</time></trkpt><trkpt lat="45.816506059277714" lon="8.254568813964612"><ele>477.0</ele><time>2026-04-19T14:19:39.025Z</time></trkpt><trkpt lat="45.81640142973504" lon="8.254577219900026"><ele>477.20000000000005</ele><time>2026-04-19T14:19:40.025Z</time></trkpt><trkpt lat="45.81630215725814" lon="8.254611185482592"><ele>477.40000000000003</ele><time>2026-04-19T14:19:41.026Z</time></trkpt><trkpt lat="45.816201494943016" lon="8.254670224055978"><ele>477.59999999999997</ele><time>2026-04-19T14:19:42.026Z</time></trkpt><trkpt lat="45.816103724530294" lon="8.254741485332028"><ele>477.79999999999995</ele><time>2026-04-19T14:19:43.026Z</time></trkpt><trkpt lat="45.81601506139072" lon="8.25481317208977"><ele>478.0</ele><time>2026-04-19T14:19:44.026Z</time></trkpt><trkpt lat="45.81593494497048" lon="8.25489662810572"><ele>475.4</ele><time>2026-04-19T14:19:45.026Z</time></trkpt><trkpt lat="45.81585728166534" lon="8.255001098146808"><ele>472.79999999999995</ele><time>2026-04-19T14:19:46.026Z</time></trkpt><trkpt lat="45.81578492733918" lon="8.255120274293256"><ele>470.2</ele><time>2026-04-19T14:19:47.026Z</time></trkpt><trkpt lat="45.81572334185105" lon="8.255259795900402"><ele>467.6</ele><time>2026-04-19T14:19:48.026Z</time></trkpt><trkpt lat="45.81567882537435" lon="8.255408458243316"><ele>465.0</ele><time>2026-04-19T14:19:49.026Z</time></trkpt><trkpt lat="45.81563993117143" lon="8.255563902393519"><ele>467.0</ele><time>2026-04-19T14:19:50.026Z</time></trkpt><trkpt lat="45.81560417339523" lon="8.255721443716011"><ele>469.0</ele><time>2026-04-19T14:19:51.026Z</time></trkpt><trkpt lat="45.81557530257084" lon="8.255870645817689"><ele>471.0</ele><time>2026-04-19T14:19:52.026Z</time></trkpt><trkpt lat="45.81555043939736" lon="8.256008631416456"><ele>473.0</ele><time>2026-04-19T14:19:53.026Z</time></trkpt><trkpt lat="45.81552543033768" lon="8.256158021884492"><ele>475.0</ele><time>2026-04-19T14:19:54.026Z</time></trkpt><trkpt lat="45.81549835970835" lon="8.256282639632397"><ele>475.00000000000006</ele><time>2026-04-19T14:19:55.026Z</time></trkpt><trkpt lat="45.815458252979084" lon="8.256372243294694"><ele>475.0</ele><time>2026-04-19T14:19:56.026Z</time></trkpt><trkpt lat="45.815391256022174" lon="8.256516532805756"><ele>475.0</ele><time>2026-04-19T14:19:58.026Z</time></trkpt><trkpt lat="45.81536194285789" lon="8.256648423647725"><ele>475.0</ele><time>2026-04-19T14:20:00.026Z</time></trkpt><trkpt lat="45.81537902267629" lon="8.256745671557825"><ele>475.00000000000006</ele><time>2026-04-19T14:20:01.026Z</time></trkpt><trkpt lat="45.81536943917144" lon="8.25687006117506"><ele>475.0</ele><time>2026-04-19T14:20:02.026Z</time></trkpt><trkpt lat="45.81533078646901" lon="8.257000202967989"><ele>472.8</ele><time>2026-04-19T14:20:03.026Z</time></trkpt><trkpt lat="45.815297467615125" lon="8.257121123594697"><ele>470.6</ele><time>2026-04-19T14:20:04.026Z</time></trkpt><trkpt lat="45.81526057140971" lon="8.25726118433014"><ele>468.4</ele><time>2026-04-19T14:20:05.026Z</time></trkpt><trkpt lat="45.81521205283322" lon="8.257405567823673"><ele>466.2</ele><time>2026-04-19T14:20:06.026Z</time></trkpt><trkpt lat="45.81516721049946" lon="8.257553360751066"><ele>464.0</ele><time>2026-04-19T14:20:07.026Z</time></trkpt><trkpt lat="45.815127574266484" lon="8.257709088768419"><ele>461.5</ele><time>2026-04-19T14:20:08.026Z</time></trkpt><trkpt lat="45.815084918760505" lon="8.257869793744433"><ele>459.0</ele><time>2026-04-19T14:20:09.026Z</time></trkpt><trkpt lat="45.815032408618116" lon="8.258019786243432"><ele>456.5</ele><time>2026-04-19T14:20:10.026Z</time></trkpt><trkpt lat="45.814986254760655" lon="8.258172033815658"><ele>454.0</ele><time>2026-04-19T14:20:11.026Z</time></trkpt><trkpt lat="45.814949013338286" lon="8.258338558979844"><ele>453.5</ele><time>2026-04-19T14:20:12.026Z</time></trkpt><trkpt lat="45.81490498408189" lon="8.25850223271677"><ele>453.0</ele><time>2026-04-19T14:20:13.026Z</time></trkpt><trkpt lat="45.81485122105263" lon="8.258657253441747"><ele>452.5</ele><time>2026-04-19T14:20:14.027Z</time></trkpt><trkpt lat="45.814798646263746" lon="8.258818522799114"><ele>452.0</ele><time>2026-04-19T14:20:15.027Z</time></trkpt><trkpt lat="45.81475572748171" lon="8.258969599078524"><ele>452.0</ele><time>2026-04-19T14:20:16.027Z</time></trkpt><trkpt lat="45.814724199289635" lon="8.259105331363275"><ele>452.00000000000006</ele><time>2026-04-19T14:20:17.027Z</time></trkpt><trkpt lat="45.81470134754003" lon="8.259233552964425"><ele>452.00000000000006</ele><time>2026-04-19T14:20:18.027Z</time></trkpt><trkpt lat="45.81467758726355" lon="8.25935813427969"><ele>452.0</ele><time>2026-04-19T14:20:19.027Z</time></trkpt><trkpt lat="45.81465849848706" lon="8.25948243668453"><ele>452.0</ele><time>2026-04-19T14:20:20.027Z</time></trkpt><trkpt lat="45.814638443774825" lon="8.259613032498537"><ele>452.0</ele><time>2026-04-19T14:20:21.027Z</time></trkpt><trkpt lat="45.81461932796471" lon="8.259750976126478"><ele>452.00000000000006</ele><time>2026-04-19T14:20:22.027Z</time></trkpt><trkpt lat="45.814599816219264" lon="8.25990113035292"><ele>452.00000000000006</ele><time>2026-04-19T14:20:23.027Z</time></trkpt><trkpt lat="45.81457812009182" lon="8.260059438452794"><ele>452.0</ele><time>2026-04-19T14:20:24.027Z</time></trkpt><trkpt lat="45.81455715109479" lon="8.26022814273253"><ele>452.0</ele><time>2026-04-19T14:20:25.027Z</time></trkpt><trkpt lat="45.81453592756994" lon="8.26040237219622"><ele>452.25</ele><time>2026-04-19T14:20:26.027Z</time></trkpt><trkpt lat="45.81451687519697" lon="8.260580037560715"><ele>452.5</ele><time>2026-04-19T14:20:27.027Z</time></trkpt><trkpt lat="45.81449451514029" lon="8.26075874883707"><ele>452.75</ele><time>2026-04-19T14:20:28.027Z</time></trkpt><trkpt lat="45.81447097822428" lon="8.260937323085756"><ele>453.0</ele><time>2026-04-19T14:20:29.027Z</time></trkpt><trkpt lat="45.81444786810809" lon="8.26111890003564"><ele>453.5</ele><time>2026-04-19T14:20:30.027Z</time></trkpt><trkpt lat="45.814420914530665" lon="8.26129947531277"><ele>454.0</ele><time>2026-04-19T14:20:31.027Z</time></trkpt><trkpt lat="45.81439465761865" lon="8.261481620760273"><ele>454.5</ele><time>2026-04-19T14:20:32.027Z</time></trkpt><trkpt lat="45.814369397332136" lon="8.26166573257146"><ele>455.0</ele><time>2026-04-19T14:20:33.027Z</time></trkpt><trkpt lat="45.814344200463054" lon="8.261853781016802"><ele>455.0</ele><time>2026-04-19T14:20:34.027Z</time></trkpt><trkpt lat="45.81431755373337" lon="8.262042726910204"><ele>455.0</ele><time>2026-04-19T14:20:35.027Z</time></trkpt><trkpt lat="45.81428881515376" lon="8.26222814998578"><ele>455.0</ele><time>2026-04-19T14:20:36.027Z</time></trkpt><trkpt lat="45.814260192714215" lon="8.262411481503475"><ele>455.0</ele><time>2026-04-19T14:20:37.027Z</time></trkpt><trkpt lat="45.81423363360439" lon="8.26259480102946"><ele>455.0</ele><time>2026-04-19T14:20:38.027Z</time></trkpt><trkpt lat="45.81420358138435" lon="8.262774165581746"><ele>455.0</ele><time>2026-04-19T14:20:39.027Z</time></trkpt><trkpt lat="45.814173535232634" lon="8.262950476577862"><ele>455.0</ele><time>2026-04-19T14:20:40.027Z</time></trkpt><trkpt lat="45.814137662152305" lon="8.263118076696774"><ele>455.0</ele><time>2026-04-19T14:20:41.027Z</time></trkpt><trkpt lat="45.814098710233125" lon="8.263284588049011"><ele>455.4</ele><time>2026-04-19T14:20:42.027Z</time></trkpt><trkpt lat="45.81406651843354" lon="8.263451361921966"><ele>455.8</ele><time>2026-04-19T14:20:43.027Z</time></trkpt><trkpt lat="45.81403424805902" lon="8.2636049130847"><ele>456.20000000000005</ele><time>2026-04-19T14:20:44.027Z</time></trkpt><trkpt lat="45.81400657405067" lon="8.263746161071458"><ele>456.6</ele><time>2026-04-19T14:20:45.027Z</time></trkpt><trkpt lat="45.813975260433814" lon="8.263875118085696"><ele>457.0</ele><time>2026-04-19T14:20:46.027Z</time></trkpt><trkpt lat="45.81394511510779" lon="8.263991032512221"><ele>457.40000000000003</ele><time>2026-04-19T14:20:47.028Z</time></trkpt><trkpt lat="45.8139139252083" lon="8.264100250901787"><ele>457.80000000000007</ele><time>2026-04-19T14:20:48.028Z</time></trkpt><trkpt lat="45.81387547377973" lon="8.264202251769808"><ele>458.2</ele><time>2026-04-19T14:20:49.028Z</time></trkpt><trkpt lat="45.81382882058653" lon="8.264313531501875"><ele>458.6</ele><time>2026-04-19T14:20:50.028Z</time></trkpt><trkpt lat="45.81377784054729" lon="8.264433846263948"><ele>459.0</ele><time>2026-04-19T14:20:51.028Z</time></trkpt><trkpt lat="45.81371521896852" lon="8.264559116467776"><ele>459.0</ele><time>2026-04-19T14:20:52.028Z</time></trkpt><trkpt lat="45.81365670839975" lon="8.264695000233719"><ele>459.0</ele><time>2026-04-19T14:20:53.028Z</time></trkpt><trkpt lat="45.813603487909766" lon="8.264818949878887"><ele>459.0</ele><time>2026-04-19T14:20:54.028Z</time></trkpt><trkpt lat="45.81355017439903" lon="8.264940726863633"><ele>459.0</ele><time>2026-04-19T14:20:55.028Z</time></trkpt><trkpt lat="45.81349804474231" lon="8.265058518496037"><ele>459.0</ele><time>2026-04-19T14:20:56.028Z</time></trkpt><trkpt lat="45.81345293611158" lon="8.265162421856164"><ele>458.8333333333333</ele><time>2026-04-19T14:20:57.028Z</time></trkpt><trkpt lat="45.813409406510594" lon="8.265273249859812"><ele>458.66666666666663</ele><time>2026-04-19T14:20:59.028Z</time></trkpt><trkpt lat="45.81337117619168" lon="8.265354790099469"><ele>458.5</ele><time>2026-04-19T14:21:03.028Z</time></trkpt><trkpt lat="45.813315450861374" lon="8.265456066858599"><ele>458.3333333333333</ele><time>2026-04-19T14:21:05.028Z</time></trkpt><trkpt lat="45.81326777894957" lon="8.265530568081784"><ele>458.16666666666663</ele><time>2026-04-19T14:21:06.028Z</time></trkpt><trkpt lat="45.81321819179255" lon="8.265609666233276"><ele>458.0</ele><time>2026-04-19T14:21:07.028Z</time></trkpt><trkpt lat="45.813165127444265" lon="8.26570208096441"><ele>458.0</ele><time>2026-04-19T14:21:08.028Z</time></trkpt><trkpt lat="45.813104140543494" lon="8.26580392714125"><ele>457.99999999999994</ele><time>2026-04-19T14:21:09.028Z</time></trkpt><trkpt lat="45.81304135763189" lon="8.265913312566965"><ele>457.99999999999994</ele><time>2026-04-19T14:21:10.028Z</time></trkpt><trkpt lat="45.81297215087846" lon="8.266029104960761"><ele>458.0</ele><time>2026-04-19T14:21:11.028Z</time></trkpt><trkpt lat="45.812894561176996" lon="8.266154468912875"><ele>458.0</ele><time>2026-04-19T14:21:12.028Z</time></trkpt><trkpt lat="45.812816170906785" lon="8.266277187329287"><ele>458.0</ele><time>2026-04-19T14:21:13.028Z</time></trkpt><trkpt lat="45.81273553821739" lon="8.266392827605385"><ele>458.0</ele><time>2026-04-19T14:21:14.028Z</time></trkpt><trkpt lat="45.81265429663189" lon="8.26651529919335"><ele>458.0</ele><time>2026-04-19T14:21:15.028Z</time></trkpt><trkpt lat="45.81257254930156" lon="8.266644427893823"><ele>458.0</ele><time>2026-04-19T14:21:16.028Z</time></trkpt><trkpt lat="45.81248670567239" lon="8.266779274213253"><ele>458.0</ele><time>2026-04-19T14:21:17.028Z</time></trkpt><trkpt lat="45.812397218232" lon="8.266919858566336"><ele>458.0</ele><time>2026-04-19T14:21:18.028Z</time></trkpt><trkpt lat="45.81230817856836" lon="8.267070653677672"><ele>458.0</ele><time>2026-04-19T14:21:19.028Z</time></trkpt><trkpt lat="45.81221428113" lon="8.267222560625793"><ele>458.0</ele><time>2026-04-19T14:21:20.029Z</time></trkpt><trkpt lat="45.81212045126784" lon="8.267378263030894"><ele>458.0</ele><time>2026-04-19T14:21:21.029Z</time></trkpt><trkpt lat="45.81202618340441" lon="8.267532213782125"><ele>458.0</ele><time>2026-04-19T14:21:22.029Z</time></trkpt><trkpt lat="45.81193144366438" lon="8.267687135272956"><ele>458.0</ele><time>2026-04-19T14:21:23.029Z</time></trkpt><trkpt lat="45.811837218253835" lon="8.267841220671453"><ele>458.0</ele><time>2026-04-19T14:21:24.029Z</time></trkpt><trkpt lat="45.81174297719782" lon="8.26799251630753"><ele>457.5</ele><time>2026-04-19T14:21:25.029Z</time></trkpt><trkpt lat="45.811654857438114" lon="8.268137932150385"><ele>457.0</ele><time>2026-04-19T14:21:26.029Z</time></trkpt><trkpt lat="45.811568205263264" lon="8.268270214911535"><ele>456.5</ele><time>2026-04-19T14:21:27.029Z</time></trkpt><trkpt lat="45.81147719989095" lon="8.268394027278873"><ele>456.0</ele><time>2026-04-19T14:21:28.029Z</time></trkpt><trkpt lat="45.811378905615655" lon="8.26851361627995"><ele>456.0</ele><time>2026-04-19T14:21:29.029Z</time></trkpt><trkpt lat="45.81126987677889" lon="8.26862245721252"><ele>456.0</ele><time>2026-04-19T14:21:30.029Z</time></trkpt><trkpt lat="45.81115520519035" lon="8.268724469137242"><ele>456.0</ele><time>2026-04-19T14:21:31.029Z</time></trkpt><trkpt lat="45.81103976524005" lon="8.268818870761617"><ele>456.0</ele><time>2026-04-19T14:21:32.029Z</time></trkpt><trkpt lat="45.81092341561113" lon="8.268910909166692"><ele>456.75</ele><time>2026-04-19T14:21:33.029Z</time></trkpt><trkpt lat="45.810809250398954" lon="8.269010487403754"><ele>457.5</ele><time>2026-04-19T14:21:34.029Z</time></trkpt><trkpt lat="45.810698780540164" lon="8.26911200505665"><ele>458.25</ele><time>2026-04-19T14:21:35.029Z</time></trkpt><trkpt lat="45.81058974868254" lon="8.269209247104817"><ele>459.0</ele><time>2026-04-19T14:21:36.029Z</time></trkpt><trkpt lat="45.81048371447021" lon="8.269311477354297"><ele>459.0</ele><time>2026-04-19T14:21:37.029Z</time></trkpt><trkpt lat="45.810383351307834" lon="8.269412161100792"><ele>459.0</ele><time>2026-04-19T14:21:38.029Z</time></trkpt><trkpt lat="45.810289905542845" lon="8.269520981135415"><ele>459.0</ele><time>2026-04-19T14:21:39.029Z</time></trkpt><trkpt lat="45.81020002896268" lon="8.269639982395132"><ele>459.0</ele><time>2026-04-19T14:21:40.029Z</time></trkpt><trkpt lat="45.810109371300065" lon="8.269759970014686"><ele>458.5</ele><time>2026-04-19T14:21:41.029Z</time></trkpt><trkpt lat="45.810015709524166" lon="8.269881292793322"><ele>458.0</ele><time>2026-04-19T14:21:42.029Z</time></trkpt><trkpt lat="45.80992594534988" lon="8.269999467355436"><ele>457.5</ele><time>2026-04-19T14:21:43.029Z</time></trkpt><trkpt lat="45.80984267852787" lon="8.270110363106209"><ele>457.0</ele><time>2026-04-19T14:21:44.029Z</time></trkpt><trkpt lat="45.809763323335886" lon="8.270214064180745"><ele>457.00000000000006</ele><time>2026-04-19T14:21:45.029Z</time></trkpt><trkpt lat="45.80968653863537" lon="8.2703029429298"><ele>457.0</ele><time>2026-04-19T14:21:46.029Z</time></trkpt><trkpt lat="45.80960867290347" lon="8.270365139197361"><ele>457.0</ele><time>2026-04-19T14:21:47.029Z</time></trkpt><trkpt lat="45.80953077149604" lon="8.270389765535933"><ele>457.0</ele><time>2026-04-19T14:21:48.029Z</time></trkpt><trkpt lat="45.80945795843347" lon="8.270409946457873"><ele>457.00000000000006</ele><time>2026-04-19T14:21:49.029Z</time></trkpt><trkpt lat="45.80938585253003" lon="8.27041503400078"><ele>457.0</ele><time>2026-04-19T14:21:50.029Z</time></trkpt><trkpt lat="45.809321009308256" lon="8.27040432317968"><ele>456.83333333333337</ele><time>2026-04-19T14:21:51.029Z</time></trkpt><trkpt lat="45.80925253719482" lon="8.27038931698119"><ele>456.6666666666667</ele><time>2026-04-19T14:21:53.03Z</time></trkpt><trkpt lat="45.80918048577226" lon="8.270373773725256"><ele>456.5</ele><time>2026-04-19T14:21:56.03Z</time></trkpt><trkpt lat="45.80906394602752" lon="8.270396392410607"><ele>456.33333333333337</ele><time>2026-04-19T14:21:58.03Z</time></trkpt><trkpt lat="45.80898251764259" lon="8.270438814048935"><ele>456.1666666666667</ele><time>2026-04-19T14:21:59.03Z</time></trkpt><trkpt lat="45.80890033903886" lon="8.270481852650814"><ele>456.0</ele><time>2026-04-19T14:22:00.03Z</time></trkpt><trkpt lat="45.808800799251664" lon="8.270536165657134"><ele>456.0</ele><time>2026-04-19T14:22:01.03Z</time></trkpt><trkpt lat="45.808685491322414" lon="8.270587805825485"><ele>456.0</ele><time>2026-04-19T14:22:02.03Z</time></trkpt><trkpt lat="45.80856933507346" lon="8.270640624036993"><ele>456.0</ele><time>2026-04-19T14:22:03.03Z</time></trkpt><trkpt lat="45.80844665387479" lon="8.270706174191487"><ele>456.0</ele><time>2026-04-19T14:22:04.03Z</time></trkpt><trkpt lat="45.80831477767091" lon="8.270774370277996"><ele>458.25</ele><time>2026-04-19T14:22:05.03Z</time></trkpt><trkpt lat="45.808183649435094" lon="8.270843110371382"><ele>460.5</ele><time>2026-04-19T14:22:06.03Z</time></trkpt><trkpt lat="45.808064664725315" lon="8.270908624486719"><ele>462.75</ele><time>2026-04-19T14:22:07.03Z</time></trkpt><trkpt lat="45.8079515235939" lon="8.270972665288262"><ele>465.0</ele><time>2026-04-19T14:22:08.03Z</time></trkpt><trkpt lat="45.807839253119134" lon="8.271033957833982"><ele>465.0</ele><time>2026-04-19T14:22:09.03Z</time></trkpt><trkpt lat="45.80772476323769" lon="8.271099208781022"><ele>465.0</ele><time>2026-04-19T14:22:10.03Z</time></trkpt><trkpt lat="45.80761042289155" lon="8.271167243469812"><ele>465.0</ele><time>2026-04-19T14:22:11.03Z</time></trkpt><trkpt lat="45.80749665018735" lon="8.271232810469744"><ele>465.0</ele><time>2026-04-19T14:22:12.03Z</time></trkpt><trkpt lat="45.8073850470608" lon="8.271297450300464"><ele>466.25</ele><time>2026-04-19T14:22:13.03Z</time></trkpt><trkpt lat="45.80727492387412" lon="8.271355590596627"><ele>467.5</ele><time>2026-04-19T14:22:14.03Z</time></trkpt><trkpt lat="45.807167613500674" lon="8.271412330074723"><ele>468.75</ele><time>2026-04-19T14:22:15.03Z</time></trkpt><trkpt lat="45.807057118626425" lon="8.271460731472827"><ele>470.0</ele><time>2026-04-19T14:22:16.03Z</time></trkpt><trkpt lat="45.806945287773985" lon="8.271512263226938"><ele>470.75</ele><time>2026-04-19T14:22:17.03Z</time></trkpt><trkpt lat="45.80683466682982" lon="8.271563181108014"><ele>471.5</ele><time>2026-04-19T14:22:18.03Z</time></trkpt><trkpt lat="45.80672337953471" lon="8.271599434020972"><ele>472.25</ele><time>2026-04-19T14:22:19.03Z</time></trkpt><trkpt lat="45.806613324304735" lon="8.27163246406506"><ele>473.0</ele><time>2026-04-19T14:22:20.03Z</time></trkpt><trkpt lat="45.80650695257134" lon="8.271661203847117"><ele>471.8333333333333</ele><time>2026-04-19T14:22:21.03Z</time></trkpt><trkpt lat="45.806408723560146" lon="8.271697641168457"><ele>470.66666666666663</ele><time>2026-04-19T14:22:22.03Z</time></trkpt><trkpt lat="45.8063230839812" lon="8.271739575492742"><ele>469.5</ele><time>2026-04-19T14:22:23.03Z</time></trkpt><trkpt lat="45.8062442111486" lon="8.271782275910876"><ele>468.33333333333337</ele><time>2026-04-19T14:22:24.03Z</time></trkpt><trkpt lat="45.806169766629345" lon="8.27181625725774"><ele>467.1666666666667</ele><time>2026-04-19T14:22:25.03Z</time></trkpt><trkpt lat="45.80610410075345" lon="8.271841740689096"><ele>466.0</ele><time>2026-04-19T14:22:26.031Z</time></trkpt><trkpt lat="45.80599659778822" lon="8.271904626537149"><ele>466.42857142857144</ele><time>2026-04-19T14:22:28.031Z</time></trkpt><trkpt lat="45.80596144207935" lon="8.271983737332421"><ele>466.85714285714283</ele><time>2026-04-19T14:22:29.031Z</time></trkpt><trkpt lat="45.80592737067442" lon="8.272077268524296"><ele>467.2857142857143</ele><time>2026-04-19T14:22:30.031Z</time></trkpt><trkpt lat="45.805883639570304" lon="8.27215385801091"><ele>467.7142857142857</ele><time>2026-04-19T14:22:31.031Z</time></trkpt><trkpt lat="45.80582087277898" lon="8.272189658244674"><ele>468.1428571428571</ele><time>2026-04-19T14:22:32.031Z</time></trkpt><trkpt lat="45.805755726022795" lon="8.272173556513467"><ele>468.57142857142856</ele><time>2026-04-19T14:22:33.031Z</time></trkpt><trkpt lat="45.80567986551885" lon="8.272139408331455"><ele>469.0</ele><time>2026-04-19T14:22:34.031Z</time></trkpt><trkpt lat="45.805608664914494" lon="8.272135610952159"><ele>469.0</ele><time>2026-04-19T14:22:35.031Z</time></trkpt><trkpt lat="45.80552756763933" lon="8.272174248005676"><ele>469.0</ele><time>2026-04-19T14:22:36.031Z</time></trkpt><trkpt lat="45.80544317809658" lon="8.272250068138101"><ele>469.0</ele><time>2026-04-19T14:22:37.031Z</time></trkpt><trkpt lat="45.805368481255876" lon="8.272360296916547"><ele>469.0</ele><time>2026-04-19T14:22:38.031Z</time></trkpt><trkpt lat="45.80531100141558" lon="8.272500270108647"><ele>469.0</ele><time>2026-04-19T14:22:39.031Z</time></trkpt><trkpt lat="45.80527190768949" lon="8.272666637418276"><ele>471.0</ele><time>2026-04-19T14:22:40.031Z</time></trkpt><trkpt lat="45.805233132734735" lon="8.272839485884312"><ele>473.0</ele><time>2026-04-19T14:22:41.031Z</time></trkpt><trkpt lat="45.805185850564065" lon="8.273003024257315"><ele>475.0</ele><time>2026-04-19T14:22:42.031Z</time></trkpt><trkpt lat="45.80511921149328" lon="8.273155755926048"><ele>477.0</ele><time>2026-04-19T14:22:43.031Z</time></trkpt><trkpt lat="45.80504000541358" lon="8.273308793787999"><ele>478.25</ele><time>2026-04-19T14:22:44.031Z</time></trkpt><trkpt lat="45.80494708150544" lon="8.273446826363976"><ele>479.5</ele><time>2026-04-19T14:22:45.031Z</time></trkpt><trkpt lat="45.80484028254526" lon="8.273570688186991"><ele>480.75</ele><time>2026-04-19T14:22:46.031Z</time></trkpt><trkpt lat="45.80472436303163" lon="8.273680598875584"><ele>482.0</ele><time>2026-04-19T14:22:47.031Z</time></trkpt><trkpt lat="45.80460115724505" lon="8.273779536836336"><ele>482.0</ele><time>2026-04-19T14:22:48.031Z</time></trkpt><trkpt lat="45.804474120605015" lon="8.273877641985614"><ele>482.0</ele><time>2026-04-19T14:22:49.031Z</time></trkpt><trkpt lat="45.80434800498389" lon="8.273981123803928"><ele>482.0</ele><time>2026-04-19T14:22:50.031Z</time></trkpt><trkpt lat="45.804220558549964" lon="8.274083686287891"><ele>482.0</ele><time>2026-04-19T14:22:51.031Z</time></trkpt><trkpt lat="45.80409259471628" lon="8.274189562958655"><ele>484.0</ele><time>2026-04-19T14:22:52.031Z</time></trkpt><trkpt lat="45.80396395146204" lon="8.27429691111706"><ele>486.0</ele><time>2026-04-19T14:22:53.031Z</time></trkpt><trkpt lat="45.803835581586966" lon="8.274398855216031"><ele>488.0</ele><time>2026-04-19T14:22:54.031Z</time></trkpt><trkpt lat="45.80370631335473" lon="8.274508111059967"><ele>490.0</ele><time>2026-04-19T14:22:55.031Z</time></trkpt><trkpt lat="45.803573665073266" lon="8.27461274997192"><ele>491.33333333333337</ele><time>2026-04-19T14:22:56.031Z</time></trkpt><trkpt lat="45.80343974890339" lon="8.274714046394577"><ele>492.66666666666663</ele><time>2026-04-19T14:22:57.031Z</time></trkpt><trkpt lat="45.80330604139846" lon="8.274819112802598"><ele>494.0</ele><time>2026-04-19T14:22:58.031Z</time></trkpt><trkpt lat="45.80317195814455" lon="8.274927749268258"><ele>494.0</ele><time>2026-04-19T14:22:59.031Z</time></trkpt><trkpt lat="45.803037014212556" lon="8.2750385996185"><ele>494.0</ele><time>2026-04-19T14:23:00.032Z</time></trkpt><trkpt lat="45.8029061963047" lon="8.275146887129715"><ele>494.0</ele><time>2026-04-19T14:23:01.032Z</time></trkpt><trkpt lat="45.80277289882328" lon="8.275244538205401"><ele>494.0</ele><time>2026-04-19T14:23:02.032Z</time></trkpt><trkpt lat="45.80264938587054" lon="8.275343203778368"><ele>494.0</ele><time>2026-04-19T14:23:03.032Z</time></trkpt><trkpt lat="45.80253942565196" lon="8.275423806459736"><ele>494.0</ele><time>2026-04-19T14:23:04.032Z</time></trkpt><trkpt lat="45.80244508080683" lon="8.275500983613073"><ele>494.0</ele><time>2026-04-19T14:23:05.032Z</time></trkpt><trkpt lat="45.80236881219016" lon="8.27557984675946"><ele>494.3333333333333</ele><time>2026-04-19T14:23:06.032Z</time></trkpt><trkpt lat="45.802319186692344" lon="8.27567597370173"><ele>494.66666666666663</ele><time>2026-04-19T14:23:07.032Z</time></trkpt><trkpt lat="45.80230036672233" lon="8.275792426389563"><ele>495.0</ele><time>2026-04-19T14:23:08.032Z</time></trkpt><trkpt lat="45.80230840990176" lon="8.275918439251898"><ele>495.33333333333337</ele><time>2026-04-19T14:23:09.032Z</time></trkpt><trkpt lat="45.80233610721347" lon="8.276032713800992"><ele>495.6666666666667</ele><time>2026-04-19T14:23:10.032Z</time></trkpt><trkpt lat="45.80239976380838" lon="8.276121189732358"><ele>496.0</ele><time>2026-04-19T14:23:11.032Z</time></trkpt><trkpt lat="45.802480213455226" lon="8.276162489527731"><ele>496.0</ele><time>2026-04-19T14:23:12.032Z</time></trkpt><trkpt lat="45.802574545363576" lon="8.276156959179838"><ele>496.0</ele><time>2026-04-19T14:23:13.032Z</time></trkpt><trkpt lat="45.802668553809745" lon="8.276107351820993"><ele>496.0</ele><time>2026-04-19T14:23:14.032Z</time></trkpt><trkpt lat="45.802763582764335" lon="8.27601701872247"><ele>496.0</ele><time>2026-04-19T14:23:15.032Z</time></trkpt><trkpt lat="45.802860751745854" lon="8.275902013405261"><ele>496.0</ele><time>2026-04-19T14:23:16.032Z</time></trkpt><trkpt lat="45.802959115493046" lon="8.275781310415457"><ele>495.5</ele><time>2026-04-19T14:23:17.032Z</time></trkpt><trkpt lat="45.80306477640501" lon="8.275666827382974"><ele>495.0</ele><time>2026-04-19T14:23:18.032Z</time></trkpt><trkpt lat="45.80316567354516" lon="8.27555546380373"><ele>494.5</ele><time>2026-04-19T14:23:19.032Z</time></trkpt><trkpt lat="45.803255029412874" lon="8.275420045033894"><ele>494.0</ele><time>2026-04-19T14:23:20.032Z</time></trkpt><trkpt lat="45.8033406332148" lon="8.275263186810717"><ele>494.0</ele><time>2026-04-19T14:23:21.032Z</time></trkpt><trkpt lat="45.803424813360564" lon="8.275115864849491"><ele>494.0</ele><time>2026-04-19T14:23:22.032Z</time></trkpt><trkpt lat="45.803514105495246" lon="8.274995704860801"><ele>494.0</ele><time>2026-04-19T14:23:23.032Z</time></trkpt><trkpt lat="45.80361606997139" lon="8.27492180456504"><ele>494.0</ele><time>2026-04-19T14:23:24.032Z</time></trkpt><trkpt lat="45.80372673642224" lon="8.274892871353831"><ele>501.0</ele><time>2026-04-19T14:23:25.032Z</time></trkpt><trkpt lat="45.80384548287656" lon="8.274893081482649"><ele>508.0</ele><time>2026-04-19T14:23:26.032Z</time></trkpt><trkpt lat="45.80396920111449" lon="8.274893322667218"><ele>515.0</ele><time>2026-04-19T14:23:27.032Z</time></trkpt><trkpt lat="45.80409405083094" lon="8.274857679898666"><ele>522.0</ele><time>2026-04-19T14:23:28.032Z</time></trkpt><trkpt lat="45.8042242349024" lon="8.274805958638025"><ele>518.75</ele><time>2026-04-19T14:23:29.032Z</time></trkpt><trkpt lat="45.80435379538945" lon="8.274728442135261"><ele>515.5</ele><time>2026-04-19T14:23:30.032Z</time></trkpt><trkpt lat="45.80448489972562" lon="8.274649466089413"><ele>512.25</ele><time>2026-04-19T14:23:31.032Z</time></trkpt><trkpt lat="45.80462166677607" lon="8.274583087730429"><ele>509.0</ele><time>2026-04-19T14:23:32.032Z</time></trkpt><trkpt lat="45.804765472212985" lon="8.274545402365376"><ele>509.0</ele><time>2026-04-19T14:23:33.033Z</time></trkpt><trkpt lat="45.804907242050355" lon="8.27451223833375"><ele>509.0</ele><time>2026-04-19T14:23:34.033Z</time></trkpt><trkpt lat="45.805049645379356" lon="8.27446540253484"><ele>509.0</ele><time>2026-04-19T14:23:35.033Z</time></trkpt><trkpt lat="45.80519064905973" lon="8.274404071908023"><ele>509.0</ele><time>2026-04-19T14:23:36.033Z</time></trkpt><trkpt lat="45.80532742672486" lon="8.274326981578369"><ele>515.3333333333333</ele><time>2026-04-19T14:23:37.033Z</time></trkpt><trkpt lat="45.8054686318337" lon="8.274241385642707"><ele>521.6666666666666</ele><time>2026-04-19T14:23:38.033Z</time></trkpt><trkpt lat="45.80560873503104" lon="8.274151351635355"><ele>528.0</ele><time>2026-04-19T14:23:39.033Z</time></trkpt><trkpt lat="45.805745180913746" lon="8.27405478184809"><ele>528.0</ele><time>2026-04-19T14:23:40.033Z</time></trkpt><trkpt lat="45.80587703805715" lon="8.273956798773447"><ele>528.0</ele><time>2026-04-19T14:23:41.033Z</time></trkpt><trkpt lat="45.80598832043475" lon="8.27385021931072"><ele>528.0</ele><time>2026-04-19T14:23:42.033Z</time></trkpt><trkpt lat="45.806079031796386" lon="8.273739703969202"><ele>528.0</ele><time>2026-04-19T14:23:43.033Z</time></trkpt><trkpt lat="45.80615884411689" lon="8.273631521592263"><ele>528.3333333333334</ele><time>2026-04-19T14:23:44.033Z</time></trkpt><trkpt lat="45.8062250422059" lon="8.273531400851647"><ele>528.6666666666666</ele><time>2026-04-19T14:23:45.033Z</time></trkpt><trkpt lat="45.8062868929934" lon="8.273444843337943"><ele>529.0</ele><time>2026-04-19T14:23:46.033Z</time></trkpt><trkpt lat="45.806348775165844" lon="8.273382923808864"><ele>529.3333333333333</ele><time>2026-04-19T14:23:47.033Z</time></trkpt><trkpt lat="45.80642346445433" lon="8.27337344625285"><ele>529.6666666666666</ele><time>2026-04-19T14:23:48.033Z</time></trkpt><trkpt lat="45.80647981181453" lon="8.273424214036272"><ele>530.0</ele><time>2026-04-19T14:23:49.033Z</time></trkpt><trkpt lat="45.806514142214255" lon="8.273508643208489"><ele>530.0</ele><time>2026-04-19T14:23:50.033Z</time></trkpt><trkpt lat="45.806469610846975" lon="8.27367516308893"><ele>530.0</ele><time>2026-04-19T14:23:52.033Z</time></trkpt><trkpt lat="45.806387767249426" lon="8.273730214493511"><ele>530.0</ele><time>2026-04-19T14:23:53.033Z</time></trkpt><trkpt lat="45.806289190266476" lon="8.273785736659262"><ele>530.0</ele><time>2026-04-19T14:23:54.033Z</time></trkpt><trkpt lat="45.80618316252285" lon="8.2738708139316"><ele>530.0</ele><time>2026-04-19T14:23:55.033Z</time></trkpt><trkpt lat="45.80607831344631" lon="8.273978085356818"><ele>529.5</ele><time>2026-04-19T14:23:56.033Z</time></trkpt><trkpt lat="45.805978385079946" lon="8.2740814793229"><ele>529.0</ele><time>2026-04-19T14:23:57.033Z</time></trkpt><trkpt lat="45.80587564550849" lon="8.274186662180963"><ele>528.5</ele><time>2026-04-19T14:23:58.033Z</time></trkpt><trkpt lat="45.80576254965626" lon="8.274302668181354"><ele>528.0</ele><time>2026-04-19T14:23:59.033Z</time></trkpt><trkpt lat="45.8056385941072" lon="8.274419972806896"><ele>528.0</ele><time>2026-04-19T14:24:00.033Z</time></trkpt><trkpt lat="45.80551056622415" lon="8.274540326527417"><ele>528.0</ele><time>2026-04-19T14:24:01.033Z</time></trkpt><trkpt lat="45.805386618518796" lon="8.274647793427429"><ele>528.0</ele><time>2026-04-19T14:24:02.033Z</time></trkpt><trkpt lat="45.80525613285144" lon="8.274762234364083"><ele>531.3333333333334</ele><time>2026-04-19T14:24:03.033Z</time></trkpt><trkpt lat="45.80511240365428" lon="8.274867933993317"><ele>534.6666666666667</ele><time>2026-04-19T14:24:04.033Z</time></trkpt><trkpt lat="45.80496656221631" lon="8.274973682418405"><ele>538.0</ele><time>2026-04-19T14:24:05.033Z</time></trkpt><trkpt lat="45.804813004630255" lon="8.275064333652118"><ele>538.0</ele><time>2026-04-19T14:24:06.034Z</time></trkpt><trkpt lat="45.80466097504357" lon="8.275140812000325"><ele>538.0</ele><time>2026-04-19T14:24:07.034Z</time></trkpt><trkpt lat="45.80450917587037" lon="8.275215129139044"><ele>538.0</ele><time>2026-04-19T14:24:08.034Z</time></trkpt><trkpt lat="45.80435776969093" lon="8.275288134026106"><ele>534.0</ele><time>2026-04-19T14:24:09.034Z</time></trkpt><trkpt lat="45.80421559302394" lon="8.275348769244907"><ele>530.0</ele><time>2026-04-19T14:24:10.034Z</time></trkpt><trkpt lat="45.804083495679265" lon="8.275406264843237"><ele>526.0</ele><time>2026-04-19T14:24:11.034Z</time></trkpt><trkpt lat="45.803976144928086" lon="8.275496308285087"><ele>522.0</ele><time>2026-04-19T14:24:12.034Z</time></trkpt><trkpt lat="45.80388966693341" lon="8.27561948875276"><ele>533.25</ele><time>2026-04-19T14:24:13.034Z</time></trkpt><trkpt lat="45.80383081648671" lon="8.275779122894386"><ele>544.5</ele><time>2026-04-19T14:24:14.034Z</time></trkpt><trkpt lat="45.8037922311791" lon="8.275956971171658"><ele>555.75</ele><time>2026-04-19T14:24:15.034Z</time></trkpt><trkpt lat="45.803776289072296" lon="8.27615020323739"><ele>567.0</ele><time>2026-04-19T14:24:16.034Z</time></trkpt><trkpt lat="45.80375661977702" lon="8.276352393316053"><ele>571.0</ele><time>2026-04-19T14:24:17.034Z</time></trkpt><trkpt lat="45.80373774585586" lon="8.276537414852902"><ele>575.0</ele><time>2026-04-19T14:24:18.034Z</time></trkpt><trkpt lat="45.80372579269866" lon="8.276725892450811"><ele>579.0</ele><time>2026-04-19T14:24:19.034Z</time></trkpt><trkpt lat="45.80372842637388" lon="8.276931803631737"><ele>583.0</ele><time>2026-04-19T14:24:20.034Z</time></trkpt><trkpt lat="45.80373166297368" lon="8.277139719276855"><ele>586.0</ele><time>2026-04-19T14:24:21.034Z</time></trkpt><trkpt lat="45.80372493277532" lon="8.277354565099719"><ele>589.0</ele><time>2026-04-19T14:24:22.034Z</time></trkpt><trkpt lat="45.80369231203527" lon="8.277566423560621"><ele>592.0</ele><time>2026-04-19T14:24:23.034Z</time></trkpt><trkpt lat="45.80363331371016" lon="8.277766361895262"><ele>592.0</ele><time>2026-04-19T14:24:24.034Z</time></trkpt><trkpt lat="45.80354629902916" lon="8.277944196118503"><ele>592.0</ele><time>2026-04-19T14:24:25.034Z</time></trkpt><trkpt lat="45.80343949924878" lon="8.278103400992915"><ele>592.0</ele><time>2026-04-19T14:24:26.034Z</time></trkpt><trkpt lat="45.803317910711385" lon="8.278230850975364"><ele>585.3333333333334</ele><time>2026-04-19T14:24:27.034Z</time></trkpt><trkpt lat="45.8031853904351" lon="8.278337055388553"><ele>578.6666666666666</ele><time>2026-04-19T14:24:28.034Z</time></trkpt><trkpt lat="45.80304627183707" lon="8.27842617388391"><ele>572.0</ele><time>2026-04-19T14:24:29.034Z</time></trkpt><trkpt lat="45.80290544820689" lon="8.278519449216567"><ele>572.0</ele><time>2026-04-19T14:24:30.034Z</time></trkpt><trkpt lat="45.802767210570096" lon="8.278613663587812"><ele>572.0</ele><time>2026-04-19T14:24:31.034Z</time></trkpt><trkpt lat="45.80264262845949" lon="8.278694831830336"><ele>572.0</ele><time>2026-04-19T14:24:32.034Z</time></trkpt><trkpt lat="45.80253628686847" lon="8.278774019214124"><ele>572.0</ele><time>2026-04-19T14:24:33.034Z</time></trkpt><trkpt lat="45.802457788599874" lon="8.27887151140388"><ele>574.5</ele><time>2026-04-19T14:24:34.034Z</time></trkpt><trkpt lat="45.80241566771787" lon="8.279007045893037"><ele>577.0</ele><time>2026-04-19T14:24:35.034Z</time></trkpt><trkpt lat="45.80239288504696" lon="8.279174455389256"><ele>579.5</ele><time>2026-04-19T14:24:36.034Z</time></trkpt><trkpt lat="45.80238908559202" lon="8.279345078228603"><ele>582.0</ele><time>2026-04-19T14:24:37.034Z</time></trkpt><trkpt lat="45.80240591586849" lon="8.279527880008844"><ele>582.0</ele><time>2026-04-19T14:24:38.034Z</time></trkpt><trkpt lat="45.80242428753637" lon="8.279720239949167"><ele>582.0</ele><time>2026-04-19T14:24:39.035Z</time></trkpt><trkpt lat="45.80245024128877" lon="8.279907463202028"><ele>582.0</ele><time>2026-04-19T14:24:40.035Z</time></trkpt><trkpt lat="45.80250045856029" lon="8.280078924074122"><ele>582.0</ele><time>2026-04-19T14:24:41.035Z</time></trkpt><trkpt lat="45.80257355193113" lon="8.280236349557164"><ele>586.0</ele><time>2026-04-19T14:24:42.035Z</time></trkpt><trkpt lat="45.80266886294112" lon="8.280374106178444"><ele>590.0</ele><time>2026-04-19T14:24:43.035Z</time></trkpt><trkpt lat="45.802785767823224" lon="8.280501019729774"><ele>594.0</ele><time>2026-04-19T14:24:44.035Z</time></trkpt><trkpt lat="45.80290335798492" lon="8.280633077088835"><ele>598.0</ele><time>2026-04-19T14:24:45.035Z</time></trkpt><trkpt lat="45.80302213973008" lon="8.280770866154883"><ele>598.0</ele><time>2026-04-19T14:24:46.035Z</time></trkpt><trkpt lat="45.80314212295117" lon="8.280910040307846"><ele>598.0</ele><time>2026-04-19T14:24:47.035Z</time></trkpt><trkpt lat="45.803261823074806" lon="8.28105277130429"><ele>598.0</ele><time>2026-04-19T14:24:48.035Z</time></trkpt><trkpt lat="45.80338173886128" lon="8.2811932670542"><ele>601.0</ele><time>2026-04-19T14:24:49.035Z</time></trkpt><trkpt lat="45.803497546620314" lon="8.281326835988356"><ele>604.0</ele><time>2026-04-19T14:24:50.035Z</time></trkpt><trkpt lat="45.80360177182231" lon="8.281467172787574"><ele>607.0</ele><time>2026-04-19T14:24:51.035Z</time></trkpt><trkpt lat="45.8036901722616" lon="8.281631024534878"><ele>610.0</ele><time>2026-04-19T14:24:52.035Z</time></trkpt><trkpt lat="45.8037678382521" lon="8.281818370727201"><ele>610.0</ele><time>2026-04-19T14:24:53.035Z</time></trkpt><trkpt lat="45.80381905422268" lon="8.282015901565815"><ele>610.0</ele><time>2026-04-19T14:24:54.035Z</time></trkpt><trkpt lat="45.80384018094113" lon="8.282219390788365"><ele>610.0</ele><time>2026-04-19T14:24:55.035Z</time></trkpt><trkpt lat="45.80383085865759" lon="8.282424754153771"><ele>610.0</ele><time>2026-04-19T14:24:56.035Z</time></trkpt><trkpt lat="45.80379264233673" lon="8.282630519437417"><ele>613.0</ele><time>2026-04-19T14:24:57.035Z</time></trkpt><trkpt lat="45.80373168960042" lon="8.282825318984033"><ele>616.0</ele><time>2026-04-19T14:24:58.035Z</time></trkpt><trkpt lat="45.80365619781612" lon="8.283008380497053"><ele>619.0</ele><time>2026-04-19T14:24:59.035Z</time></trkpt><trkpt lat="45.80357908405151" lon="8.283183338664736"><ele>622.0</ele><time>2026-04-19T14:25:00.035Z</time></trkpt><trkpt lat="45.80351333013745" lon="8.283359458061813"><ele>619.5</ele><time>2026-04-19T14:25:01.035Z</time></trkpt><trkpt lat="45.80345247830182" lon="8.283541033255576"><ele>617.0</ele><time>2026-04-19T14:25:02.036Z</time></trkpt><trkpt lat="45.80341106782846" lon="8.283735465238516"><ele>614.5</ele><time>2026-04-19T14:25:03.035Z</time></trkpt><trkpt lat="45.80338660561087" lon="8.283922149749516"><ele>612.0</ele><time>2026-04-19T14:25:04.035Z</time></trkpt><trkpt lat="45.80339250728897" lon="8.284095552464027"><ele>612.0</ele><time>2026-04-19T14:25:05.035Z</time></trkpt><trkpt lat="45.80342100231416" lon="8.284266884174208"><ele>612.0</ele><time>2026-04-19T14:25:06.035Z</time></trkpt><trkpt lat="45.80346414953233" lon="8.2844412616114"><ele>612.0</ele><time>2026-04-19T14:25:07.035Z</time></trkpt><trkpt lat="45.80349391265069" lon="8.284631529426516"><ele>612.0</ele><time>2026-04-19T14:25:08.035Z</time></trkpt><trkpt lat="45.8034945621741" lon="8.284827101360028"><ele>615.25</ele><time>2026-04-19T14:25:09.035Z</time></trkpt><trkpt lat="45.803478312619" lon="8.285025670177857"><ele>618.5</ele><time>2026-04-19T14:25:10.035Z</time></trkpt><trkpt lat="45.803435702347784" lon="8.285216391417356"><ele>621.75</ele><time>2026-04-19T14:25:11.035Z</time></trkpt><trkpt lat="45.80335955530109" lon="8.285391429936755"><ele>625.0</ele><time>2026-04-19T14:25:12.036Z</time></trkpt><trkpt lat="45.80326218189386" lon="8.28555639924359"><ele>627.25</ele><time>2026-04-19T14:25:13.036Z</time></trkpt><trkpt lat="45.80316533846206" lon="8.285715031422287"><ele>629.5</ele><time>2026-04-19T14:25:14.036Z</time></trkpt><trkpt lat="45.803079623493154" lon="8.285875849222004"><ele>631.75</ele><time>2026-04-19T14:25:15.036Z</time></trkpt><trkpt lat="45.80299311139649" lon="8.286030370890156"><ele>634.0</ele><time>2026-04-19T14:25:16.036Z</time></trkpt><trkpt lat="45.80291051765613" lon="8.286172408759482"><ele>634.0</ele><time>2026-04-19T14:25:17.036Z</time></trkpt><trkpt lat="45.80284353108711" lon="8.286302019413005"><ele>634.0</ele><time>2026-04-19T14:25:18.036Z</time></trkpt><trkpt lat="45.80278800178152" lon="8.286416808582395"><ele>634.0</ele><time>2026-04-19T14:25:19.036Z</time></trkpt><trkpt lat="45.802746544083746" lon="8.28653718158484"><ele>634.0</ele><time>2026-04-19T14:25:20.036Z</time></trkpt><trkpt lat="45.80272358177348" lon="8.286672691934157"><ele>634.0</ele><time>2026-04-19T14:25:21.036Z</time></trkpt><trkpt lat="45.8027124134463" lon="8.28681444255763"><ele>637.0</ele><time>2026-04-19T14:25:22.036Z</time></trkpt><trkpt lat="45.802688095349346" lon="8.2869340428506"><ele>640.0</ele><time>2026-04-19T14:25:23.036Z</time></trkpt><trkpt lat="45.802640239280514" lon="8.287032546649055"><ele>643.0</ele><time>2026-04-19T14:25:24.036Z</time></trkpt><trkpt lat="45.80258059582217" lon="8.287109995163526"><ele>646.0</ele><time>2026-04-19T14:25:25.036Z</time></trkpt><trkpt lat="45.80253071680976" lon="8.287274956577635"><ele>649.0</ele><time>2026-04-19T14:25:27.036Z</time></trkpt><trkpt lat="45.802550182636594" lon="8.287371039625446"><ele>652.0</ele><time>2026-04-19T14:25:28.036Z</time></trkpt><trkpt lat="45.802604855121956" lon="8.287444142994682"><ele>652.0</ele><time>2026-04-19T14:25:29.036Z</time></trkpt><trkpt lat="45.802674072072556" lon="8.287467688427"><ele>652.0</ele><time>2026-04-19T14:25:30.036Z</time></trkpt><trkpt lat="45.80274594116458" lon="8.287438291644909"><ele>652.0</ele><time>2026-04-19T14:25:31.036Z</time></trkpt><trkpt lat="45.80279627023307" lon="8.28735237802185"><ele>652.0</ele><time>2026-04-19T14:25:32.036Z</time></trkpt><trkpt lat="45.802822748133956" lon="8.287235008610807"><ele>652.0</ele><time>2026-04-19T14:25:33.036Z</time></trkpt><trkpt lat="45.80283259062465" lon="8.28709556556434"><ele>652.0</ele><time>2026-04-19T14:25:34.036Z</time></trkpt><trkpt lat="45.80284154454244" lon="8.28694099296123"><ele>652.0</ele><time>2026-04-19T14:25:35.036Z</time></trkpt><trkpt lat="45.80286461053938" lon="8.286773272147938"><ele>652.0</ele><time>2026-04-19T14:25:36.036Z</time></trkpt><trkpt lat="45.80289347071701" lon="8.28662080489858"><ele>652.0</ele><time>2026-04-19T14:25:37.036Z</time></trkpt><trkpt lat="45.802940722515146" lon="8.28646932499898"><ele>652.0</ele><time>2026-04-19T14:25:38.036Z</time></trkpt><trkpt lat="45.80301436396842" lon="8.286335900726176"><ele>647.5</ele><time>2026-04-19T14:25:39.036Z</time></trkpt><trkpt lat="45.803107681898425" lon="8.286211768429503"><ele>643.0</ele><time>2026-04-19T14:25:40.036Z</time></trkpt><trkpt lat="45.803206609565514" lon="8.286088956597519"><ele>638.5</ele><time>2026-04-19T14:25:41.036Z</time></trkpt><trkpt lat="45.80330499897659" lon="8.285963321436027"><ele>634.0</ele><time>2026-04-19T14:25:42.036Z</time></trkpt><trkpt lat="45.80340272871974" lon="8.285842594049196"><ele>634.0</ele><time>2026-04-19T14:25:43.036Z</time></trkpt><trkpt lat="45.803493559736" lon="8.285733697369393"><ele>634.0</ele><time>2026-04-19T14:25:44.009Z</time></trkpt><trkpt lat="45.803577882309405" lon="8.285626490561839"><ele>634.0</ele><time>2026-04-19T14:25:45.009Z</time></trkpt><trkpt lat="45.803647117638896" lon="8.285525018193587"><ele>634.0</ele><time>2026-04-19T14:25:46.009Z</time></trkpt><trkpt lat="45.80370609414655" lon="8.285435160915961"><ele>634.0</ele><time>2026-04-19T14:25:47.009Z</time></trkpt><trkpt lat="45.803748125990225" lon="8.285349942690386"><ele>645.0</ele><time>2026-04-19T14:25:48.009Z</time></trkpt><trkpt lat="45.803816585368004" lon="8.28524502517026"><ele>656.0</ele><time>2026-04-19T14:25:50.009Z</time></trkpt><trkpt lat="45.80392260221044" lon="8.285225257378913"><ele>667.0</ele><time>2026-04-19T14:25:52.009Z</time></trkpt><trkpt lat="45.80397559958258" lon="8.285281681555304"><ele>678.0</ele><time>2026-04-19T14:25:53.009Z</time></trkpt><trkpt lat="45.80398309626569" lon="8.28544789259597"><ele>689.0</ele><time>2026-04-19T14:25:55.009Z</time></trkpt><trkpt lat="45.80392777150694" lon="8.285520645635307"><ele>689.0</ele><time>2026-04-19T14:25:56.009Z</time></trkpt><trkpt lat="45.803843785320176" lon="8.285580015325618"><ele>689.0</ele><time>2026-04-19T14:25:57.009Z</time></trkpt><trkpt lat="45.80375352193835" lon="8.285645047120784"><ele>689.0</ele><time>2026-04-19T14:25:58.009Z</time></trkpt><trkpt lat="45.80366182672609" lon="8.285721857509257"><ele>689.0</ele><time>2026-04-19T14:25:59.009Z</time></trkpt><trkpt lat="45.803575837094535" lon="8.285821654923986"><ele>689.0</ele><time>2026-04-19T14:26:00.009Z</time></trkpt><trkpt lat="45.80349710715258" lon="8.28594212200586"><ele>679.75</ele><time>2026-04-19T14:26:01.009Z</time></trkpt><trkpt lat="45.80343177163547" lon="8.286061279810733"><ele>670.5</ele><time>2026-04-19T14:26:02.009Z</time></trkpt><trkpt lat="45.80336184454081" lon="8.28619589013248"><ele>661.25</ele><time>2026-04-19T14:26:03.009Z</time></trkpt><trkpt lat="45.803287935738076" lon="8.286346382868881"><ele>652.0</ele><time>2026-04-19T14:26:04.009Z</time></trkpt><trkpt lat="45.80321540432811" lon="8.28649810473821"><ele>652.0</ele><time>2026-04-19T14:26:05.009Z</time></trkpt><trkpt lat="45.80313749491569" lon="8.286648669744594"><ele>652.0</ele><time>2026-04-19T14:26:06.009Z</time></trkpt><trkpt lat="45.80307544703332" lon="8.28681488198669"><ele>652.0</ele><time>2026-04-19T14:26:07.009Z</time></trkpt><trkpt lat="45.80304318730051" lon="8.286999592028915"><ele>652.0</ele><time>2026-04-19T14:26:08.009Z</time></trkpt><trkpt lat="45.80302803911658" lon="8.287182233177553"><ele>653.25</ele><time>2026-04-19T14:26:09.009Z</time></trkpt><trkpt lat="45.803028135030026" lon="8.28735917740996"><ele>654.5</ele><time>2026-04-19T14:26:10.009Z</time></trkpt><trkpt lat="45.803044587508985" lon="8.287537197578123"><ele>655.75</ele><time>2026-04-19T14:26:11.009Z</time></trkpt><trkpt lat="45.803064071387865" lon="8.287710451293787"><ele>657.0</ele><time>2026-04-19T14:26:12.009Z</time></trkpt><trkpt lat="45.80308473951714" lon="8.287866883844021"><ele>657.0</ele><time>2026-04-19T14:26:13.01Z</time></trkpt><trkpt lat="45.8031117250001" lon="8.288009516616164"><ele>657.0</ele><time>2026-04-19T14:26:14.01Z</time></trkpt><trkpt lat="45.80315115400544" lon="8.288135142666798"><ele>657.0</ele><time>2026-04-19T14:26:15.01Z</time></trkpt><trkpt lat="45.803200884659454" lon="8.288242060214023"><ele>657.0</ele><time>2026-04-19T14:26:16.01Z</time></trkpt><trkpt lat="45.803245193050515" lon="8.288330819373858"><ele>657.0</ele><time>2026-04-19T14:26:17.01Z</time></trkpt><trkpt lat="45.80329346305985" lon="8.288399903843162"><ele>657.0</ele><time>2026-04-19T14:26:18.01Z</time></trkpt><trkpt lat="45.80341123515288" lon="8.288431473416383"><ele>657.0</ele><time>2026-04-19T14:26:20.01Z</time></trkpt><trkpt lat="45.803463096008805" lon="8.288375897983286"><ele>657.0</ele><time>2026-04-19T14:26:21.01Z</time></trkpt><trkpt lat="45.80348565417392" lon="8.288276333381981"><ele>657.0</ele><time>2026-04-19T14:26:22.01Z</time></trkpt><trkpt lat="45.80348050977536" lon="8.288165871024995"><ele>657.0</ele><time>2026-04-19T14:26:23.01Z</time></trkpt><trkpt lat="45.803444153814304" lon="8.288053804172739"><ele>657.0</ele><time>2026-04-19T14:26:24.01Z</time></trkpt><trkpt lat="45.80341248614321" lon="8.287931462559756"><ele>657.0</ele><time>2026-04-19T14:26:25.01Z</time></trkpt><trkpt lat="45.80339938722899" lon="8.287794383652102"><ele>657.0</ele><time>2026-04-19T14:26:26.01Z</time></trkpt><trkpt lat="45.803413730824786" lon="8.287643894255078"><ele>657.0</ele><time>2026-04-19T14:26:27.01Z</time></trkpt><trkpt lat="45.80344294914999" lon="8.287495971586546"><ele>657.0</ele><time>2026-04-19T14:26:28.01Z</time></trkpt><trkpt lat="45.80347731849451" lon="8.287347403388358"><ele>657.0</ele><time>2026-04-19T14:26:29.01Z</time></trkpt><trkpt lat="45.80350172348386" lon="8.287194222337687"><ele>657.0</ele><time>2026-04-19T14:26:30.01Z</time></trkpt><trkpt lat="45.803515681096805" lon="8.287051187666892"><ele>665.4000000000001</ele><time>2026-04-19T14:26:31.01Z</time></trkpt><trkpt lat="45.80352616274437" lon="8.28691718484062"><ele>673.8000000000001</ele><time>2026-04-19T14:26:32.01Z</time></trkpt><trkpt lat="45.80352462458524" lon="8.286796544907272"><ele>682.2</ele><time>2026-04-19T14:26:33.01Z</time></trkpt><trkpt lat="45.80351975666868" lon="8.286697121388771"><ele>690.6</ele><time>2026-04-19T14:26:34.01Z</time></trkpt><trkpt lat="45.80351315479922" lon="8.286539431916449"><ele>699.0</ele><time>2026-04-19T14:26:36.01Z</time></trkpt><trkpt lat="45.80356282774616" lon="8.286375965568844"><ele>699.0</ele><time>2026-04-19T14:26:38.01Z</time></trkpt><trkpt lat="45.80362326917691" lon="8.286343536925012"><ele>699.0</ele><time>2026-04-19T14:26:39.01Z</time></trkpt><trkpt lat="45.803696008159804" lon="8.286365870795642"><ele>699.0</ele><time>2026-04-19T14:26:40.008Z</time></trkpt><trkpt lat="45.80374844793968" lon="8.286442793629417"><ele>699.0</ele><time>2026-04-19T14:26:41.008Z</time></trkpt><trkpt lat="45.80376338365658" lon="8.286543363758513"><ele>699.0</ele><time>2026-04-19T14:26:42.008Z</time></trkpt><trkpt lat="45.8037342325879" lon="8.286654460640772"><ele>699.0</ele><time>2026-04-19T14:26:43.008Z</time></trkpt><trkpt lat="45.80369549039776" lon="8.286776642233503"><ele>699.6</ele><time>2026-04-19T14:26:44.008Z</time></trkpt><trkpt lat="45.80367755208507" lon="8.286918234201336"><ele>700.2</ele><time>2026-04-19T14:26:45.008Z</time></trkpt><trkpt lat="45.803677779218454" lon="8.287063695223416"><ele>700.8000000000001</ele><time>2026-04-19T14:26:46.008Z</time></trkpt><trkpt lat="45.8037002652413" lon="8.287237829381393"><ele>701.4000000000001</ele><time>2026-04-19T14:26:47.009Z</time></trkpt><trkpt lat="45.803723998104886" lon="8.287410020891368"><ele>702.0</ele><time>2026-04-19T14:26:48.009Z</time></trkpt><trkpt lat="45.803750056388516" lon="8.287579125921653"><ele>702.25</ele><time>2026-04-19T14:26:49.008Z</time></trkpt><trkpt lat="45.80377670672089" lon="8.287752754849079"><ele>702.5</ele><time>2026-04-19T14:26:50.008Z</time></trkpt><trkpt lat="45.803804945616626" lon="8.2879256432396"><ele>702.75</ele><time>2026-04-19T14:26:51.008Z</time></trkpt><trkpt lat="45.803837948833895" lon="8.288104919820944"><ele>703.0</ele><time>2026-04-19T14:26:52.008Z</time></trkpt><trkpt lat="45.80386279910872" lon="8.288289161602497"><ele>702.0</ele><time>2026-04-19T14:26:53.009Z</time></trkpt><trkpt lat="45.80389409147757" lon="8.2884742481042"><ele>701.0</ele><time>2026-04-19T14:26:54.009Z</time></trkpt><trkpt lat="45.80393027862196" lon="8.288656821719842"><ele>700.0</ele><time>2026-04-19T14:26:55.009Z</time></trkpt><trkpt lat="45.803979785816765" lon="8.288822764755274"><ele>699.0</ele><time>2026-04-19T14:26:56.009Z</time></trkpt><trkpt lat="45.80404308590043" lon="8.28896112822119"><ele>694.5</ele><time>2026-04-19T14:26:57.009Z</time></trkpt><trkpt lat="45.804120536255674" lon="8.289080474352978"><ele>690.0</ele><time>2026-04-19T14:26:58.009Z</time></trkpt><trkpt lat="45.80421168633506" lon="8.289181221470564"><ele>685.5</ele><time>2026-04-19T14:26:59.009Z</time></trkpt><trkpt lat="45.8043090741733" lon="8.289261252404723"><ele>681.0</ele><time>2026-04-19T14:27:00.009Z</time></trkpt><trkpt lat="45.80442089604281" lon="8.289327038830656"><ele>690.75</ele><time>2026-04-19T14:27:01.009Z</time></trkpt><trkpt lat="45.80454280924241" lon="8.289386514693305"><ele>700.5</ele><time>2026-04-19T14:27:02.009Z</time></trkpt><trkpt lat="45.804666552419825" lon="8.28944159336112"><ele>710.25</ele><time>2026-04-19T14:27:03.009Z</time></trkpt><trkpt lat="45.80479580078176" lon="8.289496825695087"><ele>720.0</ele><time>2026-04-19T14:27:04.009Z</time></trkpt><trkpt lat="45.80492699157721" lon="8.289557188372006"><ele>720.0</ele><time>2026-04-19T14:27:05.009Z</time></trkpt><trkpt lat="45.80505994552704" lon="8.289625589833735"><ele>720.0</ele><time>2026-04-19T14:27:06.009Z</time></trkpt><trkpt lat="45.805196015918696" lon="8.289689553272419"><ele>720.0</ele><time>2026-04-19T14:27:07.009Z</time></trkpt><trkpt lat="45.80533322179097" lon="8.289743400722323"><ele>720.0</ele><time>2026-04-19T14:27:08.009Z</time></trkpt><trkpt lat="45.805475413846835" lon="8.289771969057647"><ele>720.75</ele><time>2026-04-19T14:27:09.009Z</time></trkpt><trkpt lat="45.80562060268688" lon="8.28977364470221"><ele>721.5</ele><time>2026-04-19T14:27:10.009Z</time></trkpt><trkpt lat="45.805768210790674" lon="8.289762331228923"><ele>722.25</ele><time>2026-04-19T14:27:11.009Z</time></trkpt><trkpt lat="45.805915135860175" lon="8.289749597179343"><ele>723.0</ele><time>2026-04-19T14:27:12.009Z</time></trkpt><trkpt lat="45.80605851942615" lon="8.28973744148523"><ele>723.0</ele><time>2026-04-19T14:27:13.009Z</time></trkpt><trkpt lat="45.80617787259024" lon="8.289730701272305"><ele>723.0</ele><time>2026-04-19T14:27:14.009Z</time></trkpt><trkpt lat="45.8062907269805" lon="8.28973554964125"><ele>723.0</ele><time>2026-04-19T14:27:15.009Z</time></trkpt><trkpt lat="45.806385049624346" lon="8.289785684261767"><ele>723.0</ele><time>2026-04-19T14:27:16.009Z</time></trkpt><trkpt lat="45.80645385632217" lon="8.289884739298184"><ele>723.0</ele><time>2026-04-19T14:27:17.009Z</time></trkpt><trkpt lat="45.8064974228495" lon="8.290010311763183"><ele>722.3333333333334</ele><time>2026-04-19T14:27:18.009Z</time></trkpt><trkpt lat="45.80650514675539" lon="8.29015016943847"><ele>721.6666666666666</ele><time>2026-04-19T14:27:19.009Z</time></trkpt><trkpt lat="45.80648852684835" lon="8.290300409468747"><ele>721.0</ele><time>2026-04-19T14:27:20.009Z</time></trkpt><trkpt lat="45.806489976377286" lon="8.290430807020583"><ele>720.3333333333333</ele><time>2026-04-19T14:27:21.01Z</time></trkpt><trkpt lat="45.806507039097106" lon="8.290531341242037"><ele>719.6666666666666</ele><time>2026-04-19T14:27:22.01Z</time></trkpt><trkpt lat="45.80654504008143" lon="8.29062748168191"><ele>719.0</ele><time>2026-04-19T14:27:23.01Z</time></trkpt><trkpt lat="45.806605450771016" lon="8.29072588748413"><ele>717.0</ele><time>2026-04-19T14:27:24.01Z</time></trkpt><trkpt lat="45.80666856740181" lon="8.290829219790487"><ele>715.0</ele><time>2026-04-19T14:27:25.01Z</time></trkpt><trkpt lat="45.80673158238184" lon="8.290942582273408"><ele>713.0</ele><time>2026-04-19T14:27:26.01Z</time></trkpt><trkpt lat="45.80678961192989" lon="8.291071715433787"><ele>711.0</ele><time>2026-04-19T14:27:27.01Z</time></trkpt><trkpt lat="45.806826955532955" lon="8.29120559962549"><ele>709.0</ele><time>2026-04-19T14:27:28.01Z</time></trkpt><trkpt lat="45.8068363177595" lon="8.291338654197821"><ele>713.8000000000001</ele><time>2026-04-19T14:27:29.01Z</time></trkpt><trkpt lat="45.806843795221816" lon="8.291469555423701"><ele>718.6</ele><time>2026-04-19T14:27:30.01Z</time></trkpt><trkpt lat="45.80686609755951" lon="8.291608875172416"><ele>723.4</ele><time>2026-04-19T14:27:31.01Z</time></trkpt><trkpt lat="45.806897850256206" lon="8.291735778467565"><ele>728.2</ele><time>2026-04-19T14:27:32.01Z</time></trkpt><trkpt lat="45.80692516645572" lon="8.291847762247421"><ele>733.0</ele><time>2026-04-19T14:27:33.01Z</time></trkpt><trkpt lat="45.806925267353805" lon="8.291970198632633"><ele>733.0</ele><time>2026-04-19T14:27:34.01Z</time></trkpt><trkpt lat="45.80690042278089" lon="8.292093451174678"><ele>733.0</ele><time>2026-04-19T14:27:35.01Z</time></trkpt><trkpt lat="45.80686181505499" lon="8.292210976596815"><ele>733.0</ele><time>2026-04-19T14:27:36.01Z</time></trkpt><trkpt lat="45.8068238080054" lon="8.292319671687876"><ele>733.0</ele><time>2026-04-19T14:27:37.01Z</time></trkpt><trkpt lat="45.80678511609687" lon="8.29242020653603"><ele>733.0</ele><time>2026-04-19T14:27:38.01Z</time></trkpt><trkpt lat="45.80674892616372" lon="8.292510748576968"><ele>733.0</ele><time>2026-04-19T14:27:39.01Z</time></trkpt><trkpt lat="45.80670583920674" lon="8.292599351659137"><ele>729.5714285714286</ele><time>2026-04-19T14:27:40.01Z</time></trkpt><trkpt lat="45.8066666134713" lon="8.292689948965245"><ele>726.1428571428571</ele><time>2026-04-19T14:27:41.01Z</time></trkpt><trkpt lat="45.806648947971276" lon="8.292785615111807"><ele>722.7142857142858</ele><time>2026-04-19T14:27:42.01Z</time></trkpt><trkpt lat="45.80664983101204" lon="8.292880396042042"><ele>719.2857142857142</ele><time>2026-04-19T14:27:43.01Z</time></trkpt><trkpt lat="45.80667911501454" lon="8.29297162183359"><ele>715.8571428571429</ele><time>2026-04-19T14:27:44.01Z</time></trkpt><trkpt lat="45.80672248527994" lon="8.293064086319822"><ele>712.4285714285714</ele><time>2026-04-19T14:27:45.01Z</time></trkpt><trkpt lat="45.806765743504364" lon="8.293166666204737"><ele>709.0</ele><time>2026-04-19T14:27:46.01Z</time></trkpt><trkpt lat="45.80680598618325" lon="8.293279824427007"><ele>710.3333333333334</ele><time>2026-04-19T14:27:47.01Z</time></trkpt><trkpt lat="45.80684483851153" lon="8.293378005887524"><ele>711.6666666666667</ele><time>2026-04-19T14:27:48.01Z</time></trkpt><trkpt lat="45.80688366100183" lon="8.293483199412417"><ele>713.0</ele><time>2026-04-19T14:27:49.01Z</time></trkpt><trkpt lat="45.80691392860144" lon="8.293599585281829"><ele>714.3333333333334</ele><time>2026-04-19T14:27:50.01Z</time></trkpt><trkpt lat="45.80692859400444" lon="8.293739993486122"><ele>715.6666666666666</ele><time>2026-04-19T14:27:51.01Z</time></trkpt><trkpt lat="45.806943241690675" lon="8.293883933365139"><ele>717.0</ele><time>2026-04-19T14:27:52.01Z</time></trkpt><trkpt lat="45.80695601202549" lon="8.29402133639853"><ele>717.0</ele><time>2026-04-19T14:27:53.01Z</time></trkpt><trkpt lat="45.80696695447918" lon="8.294147935851628"><ele>717.0</ele><time>2026-04-19T14:27:54.011Z</time></trkpt><trkpt lat="45.80697439270409" lon="8.294264567720981"><ele>717.0</ele><time>2026-04-19T14:27:55.011Z</time></trkpt><trkpt lat="45.80697570888339" lon="8.294375995133022"><ele>717.0</ele><time>2026-04-19T14:27:56.011Z</time></trkpt><trkpt lat="45.80699139645911" lon="8.294475392515569"><ele>717.0</ele><time>2026-04-19T14:27:57.011Z</time></trkpt><trkpt lat="45.80701702154041" lon="8.294560568178719"><ele>717.0</ele><time>2026-04-19T14:27:58.011Z</time></trkpt><trkpt lat="45.80706133004436" lon="8.294625589517622"><ele>717.0</ele><time>2026-04-19T14:27:59.011Z</time></trkpt><trkpt lat="45.80717596665032" lon="8.294661655520462"><ele>717.0</ele><time>2026-04-19T14:28:01.011Z</time></trkpt><trkpt lat="45.807242596135204" lon="8.294640602879428"><ele>717.0</ele><time>2026-04-19T14:28:02.011Z</time></trkpt><trkpt lat="45.807306080232784" lon="8.29459727086167"><ele>717.0</ele><time>2026-04-19T14:28:03.011Z</time></trkpt><trkpt lat="45.80737100575814" lon="8.29454350015943"><ele>717.0</ele><time>2026-04-19T14:28:04.011Z</time></trkpt><trkpt lat="45.807437749717835" lon="8.29448956899543"><ele>717.0</ele><time>2026-04-19T14:28:05.011Z</time></trkpt><trkpt lat="45.807512813802504" lon="8.294439363204358"><ele>717.0</ele><time>2026-04-19T14:28:06.011Z</time></trkpt><trkpt lat="45.807576373839645" lon="8.294380440535065"><ele>717.0</ele><time>2026-04-19T14:28:07.011Z</time></trkpt><trkpt lat="45.80763866298231" lon="8.29433475901744"><ele>717.8333333333334</ele><time>2026-04-19T14:28:08.011Z</time></trkpt><trkpt lat="45.80771003649921" lon="8.294332455517424"><ele>718.6666666666666</ele><time>2026-04-19T14:28:09.011Z</time></trkpt><trkpt lat="45.8078068567142" lon="8.294440163406135"><ele>719.5</ele><time>2026-04-19T14:28:11.011Z</time></trkpt><trkpt lat="45.80783305093583" lon="8.29453691513795"><ele>720.3333333333333</ele><time>2026-04-19T14:28:12.011Z</time></trkpt><trkpt lat="45.80784835763058" lon="8.29465182171929"><ele>721.1666666666666</ele><time>2026-04-19T14:28:13.011Z</time></trkpt><trkpt lat="45.807884776758755" lon="8.294769473951826"><ele>722.0</ele><time>2026-04-19T14:28:14.011Z</time></trkpt><trkpt lat="45.807924264918356" lon="8.294895464101852"><ele>722.0</ele><time>2026-04-19T14:28:15.011Z</time></trkpt><trkpt lat="45.80796681577002" lon="8.295022243915458"><ele>722.0</ele><time>2026-04-19T14:28:16.011Z</time></trkpt><trkpt lat="45.807998360467955" lon="8.295162971257998"><ele>722.0</ele><time>2026-04-19T14:28:17.011Z</time></trkpt><trkpt lat="45.808027310824635" lon="8.295298413503415"><ele>722.0</ele><time>2026-04-19T14:28:18.011Z</time></trkpt><trkpt lat="45.80805390069791" lon="8.29541907695956"><ele>722.0</ele><time>2026-04-19T14:28:19.011Z</time></trkpt><trkpt lat="45.80808856670516" lon="8.295518726584234"><ele>723.8333333333333</ele><time>2026-04-19T14:28:20.011Z</time></trkpt><trkpt lat="45.808138891857304" lon="8.295596700057578"><ele>725.6666666666666</ele><time>2026-04-19T14:28:21.011Z</time></trkpt><trkpt lat="45.808198913882485" lon="8.295658395699988"><ele>727.5</ele><time>2026-04-19T14:28:22.011Z</time></trkpt><trkpt lat="45.80827249275986" lon="8.295684755269011"><ele>729.3333333333334</ele><time>2026-04-19T14:28:23.011Z</time></trkpt><trkpt lat="45.80835446941389" lon="8.295670361386762"><ele>731.1666666666667</ele><time>2026-04-19T14:28:24.011Z</time></trkpt><trkpt lat="45.80843528579699" lon="8.295625577232446"><ele>733.0</ele><time>2026-04-19T14:28:25.011Z</time></trkpt><trkpt lat="45.808513220127836" lon="8.295578616300661"><ele>733.0</ele><time>2026-04-19T14:28:26.011Z</time></trkpt><trkpt lat="45.80860885080226" lon="8.295561647574553"><ele>733.0</ele><time>2026-04-19T14:28:27.011Z</time></trkpt><trkpt lat="45.80870310511409" lon="8.295583908347096"><ele>733.0</ele><time>2026-04-19T14:28:28.012Z</time></trkpt><trkpt lat="45.80878800622971" lon="8.295597173643499"><ele>733.0</ele><time>2026-04-19T14:28:29.012Z</time></trkpt><trkpt lat="45.80887084547217" lon="8.29560982227544"><ele>733.0</ele><time>2026-04-19T14:28:30.012Z</time></trkpt><trkpt lat="45.80894734909249" lon="8.29562990106874"><ele>733.0</ele><time>2026-04-19T14:28:31.012Z</time></trkpt><trkpt lat="45.809008972941" lon="8.295689334656378"><ele>730.1666666666667</ele><time>2026-04-19T14:28:32.012Z</time></trkpt><trkpt lat="45.80905060425869" lon="8.295779752520732"><ele>727.3333333333334</ele><time>2026-04-19T14:28:33.012Z</time></trkpt><trkpt lat="45.80907308613237" lon="8.295881594261907"><ele>724.5</ele><time>2026-04-19T14:28:34.012Z</time></trkpt><trkpt lat="45.809077017745615" lon="8.295977355884151"><ele>721.6666666666666</ele><time>2026-04-19T14:28:35.012Z</time></trkpt><trkpt lat="45.809002299797996" lon="8.296091837875274"><ele>718.8333333333333</ele><time>2026-04-19T14:28:37.012Z</time></trkpt><trkpt lat="45.80892769265084" lon="8.296147736404915"><ele>716.0</ele><time>2026-04-19T14:28:38.012Z</time></trkpt><trkpt lat="45.80884779018444" lon="8.296232637506776"><ele>716.0</ele><time>2026-04-19T14:28:39.012Z</time></trkpt><trkpt lat="45.8087739982492" lon="8.296323544460883"><ele>716.0</ele><time>2026-04-19T14:28:40.012Z</time></trkpt><trkpt lat="45.808707933600466" lon="8.296420736029772"><ele>716.0</ele><time>2026-04-19T14:28:41.012Z</time></trkpt><trkpt lat="45.80865002265068" lon="8.296524550190064"><ele>716.0</ele><time>2026-04-19T14:28:42.012Z</time></trkpt><trkpt lat="45.808604274878114" lon="8.296642830331614"><ele>716.0</ele><time>2026-04-19T14:28:43.012Z</time></trkpt><trkpt lat="45.80858211356414" lon="8.296762119790634"><ele>717.1999999999999</ele><time>2026-04-19T14:28:44.012Z</time></trkpt><trkpt lat="45.808574774189836" lon="8.296892857396742"><ele>718.4</ele><time>2026-04-19T14:28:45.012Z</time></trkpt><trkpt lat="45.80858764861575" lon="8.297032389936495"><ele>719.6</ele><time>2026-04-19T14:28:46.009Z</time></trkpt><trkpt lat="45.808623575525466" lon="8.297172384014416"><ele>720.8</ele><time>2026-04-19T14:28:47.009Z</time></trkpt><trkpt lat="45.80866972887826" lon="8.29731417807201"><ele>722.0</ele><time>2026-04-19T14:28:48.009Z</time></trkpt><trkpt lat="45.8087236687528" lon="8.297460908350033"><ele>722.0</ele><time>2026-04-19T14:28:49.008Z</time></trkpt><trkpt lat="45.80876953606418" lon="8.297615237576045"><ele>722.0</ele><time>2026-04-19T14:28:50.008Z</time></trkpt><trkpt lat="45.80880866842488" lon="8.297777714496847"><ele>722.0</ele><time>2026-04-19T14:28:51.008Z</time></trkpt><trkpt lat="45.80884553139644" lon="8.297947163868695"><ele>722.0</ele><time>2026-04-19T14:28:52.008Z</time></trkpt><trkpt lat="45.808881005553324" lon="8.298120662360223"><ele>722.0</ele><time>2026-04-19T14:28:53.008Z</time></trkpt><trkpt lat="45.808916452162116" lon="8.298293549521906"><ele>722.0</ele><time>2026-04-19T14:28:54.008Z</time></trkpt><trkpt lat="45.808959897564065" lon="8.298466432554621"><ele>722.0</ele><time>2026-04-19T14:28:55.008Z</time></trkpt><trkpt lat="45.80900204995781" lon="8.298647319218015"><ele>722.0</ele><time>2026-04-19T14:28:56.008Z</time></trkpt><trkpt lat="45.80904156400046" lon="8.298828502499353"><ele>721.25</ele><time>2026-04-19T14:28:57.008Z</time></trkpt><trkpt lat="45.80908517603771" lon="8.299011835234655"><ele>720.5</ele><time>2026-04-19T14:28:58.008Z</time></trkpt><trkpt lat="45.80912300602925" lon="8.299186055183398"><ele>719.75</ele><time>2026-04-19T14:28:59.008Z</time></trkpt><trkpt lat="45.80915370505776" lon="8.299337768930458"><ele>719.0</ele><time>2026-04-19T14:29:00.008Z</time></trkpt><trkpt lat="45.809215243305125" lon="8.299447958323771"><ele>719.0</ele><time>2026-04-19T14:29:01.008Z</time></trkpt><trkpt lat="45.809295550094255" lon="8.299511451240532"><ele>719.0</ele><time>2026-04-19T14:29:02.008Z</time></trkpt><trkpt lat="45.8093895798167" lon="8.299523197019514"><ele>719.0</ele><time>2026-04-19T14:29:03.008Z</time></trkpt><trkpt lat="45.80947782983396" lon="8.299530558459843"><ele>719.0</ele><time>2026-04-19T14:29:04.008Z</time></trkpt><trkpt lat="45.80954905732512" lon="8.29958738954592"><ele>719.0</ele><time>2026-04-19T14:29:05.008Z</time></trkpt><trkpt lat="45.80958557645597" lon="8.299690378664865"><ele>719.0</ele><time>2026-04-19T14:29:06.008Z</time></trkpt><trkpt lat="45.809592670885905" lon="8.299796607289066"><ele>723.8000000000001</ele><time>2026-04-19T14:29:07.008Z</time></trkpt><trkpt lat="45.809569017184366" lon="8.299915633382552"><ele>728.6</ele><time>2026-04-19T14:29:08.008Z</time></trkpt><trkpt lat="45.80953877268345" lon="8.300045243078191"><ele>733.4</ele><time>2026-04-19T14:29:09.008Z</time></trkpt><trkpt lat="45.809525842490544" lon="8.300196608903773"><ele>738.2</ele><time>2026-04-19T14:29:10.008Z</time></trkpt><trkpt lat="45.80954240037746" lon="8.300350514494422"><ele>743.0</ele><time>2026-04-19T14:29:11.008Z</time></trkpt><trkpt lat="45.80959276176666" lon="8.300498965565039"><ele>740.25</ele><time>2026-04-19T14:29:12.008Z</time></trkpt><trkpt lat="45.80965678902214" lon="8.300647063969935"><ele>737.5</ele><time>2026-04-19T14:29:13.008Z</time></trkpt><trkpt lat="45.80973080219777" lon="8.300799665702478"><ele>734.75</ele><time>2026-04-19T14:29:14.008Z</time></trkpt><trkpt lat="45.809815311632455" lon="8.300926266437864"><ele>732.0</ele><time>2026-04-19T14:29:15.008Z</time></trkpt><trkpt lat="45.80991833088169" lon="8.301023377011832"><ele>732.0</ele><time>2026-04-19T14:29:16.008Z</time></trkpt><trkpt lat="45.81002626048127" lon="8.301087912175415"><ele>732.0</ele><time>2026-04-19T14:29:17.008Z</time></trkpt><trkpt lat="45.810129471517264" lon="8.301164623851074"><ele>732.0</ele><time>2026-04-19T14:29:18.008Z</time></trkpt><trkpt lat="45.81020693849535" lon="8.301274845172772"><ele>732.0</ele><time>2026-04-19T14:29:19.008Z</time></trkpt><trkpt lat="45.81025260351309" lon="8.301419609276488"><ele>736.5</ele><time>2026-04-19T14:29:20.008Z</time></trkpt><trkpt lat="45.81027546499843" lon="8.301587433915806"><ele>741.0</ele><time>2026-04-19T14:29:21.008Z</time></trkpt><trkpt lat="45.81031130749378" lon="8.301755866342676"><ele>745.5</ele><time>2026-04-19T14:29:22.008Z</time></trkpt><trkpt lat="45.810376229422694" lon="8.301911980228445"><ele>750.0</ele><time>2026-04-19T14:29:23.008Z</time></trkpt><trkpt lat="45.81046341528051" lon="8.302053066684078"><ele>750.0</ele><time>2026-04-19T14:29:24.008Z</time></trkpt><trkpt lat="45.81056588326086" lon="8.302179299417192"><ele>750.0</ele><time>2026-04-19T14:29:25.008Z</time></trkpt><trkpt lat="45.810667873135394" lon="8.302304011510431"><ele>750.0</ele><time>2026-04-19T14:29:26.008Z</time></trkpt><trkpt lat="45.81077193220728" lon="8.30241959448166"><ele>750.0</ele><time>2026-04-19T14:29:27.009Z</time></trkpt><trkpt lat="45.81088263045675" lon="8.302526712415341"><ele>753.0</ele><time>2026-04-19T14:29:28.009Z</time></trkpt><trkpt lat="45.81098570062156" lon="8.302638346238368"><ele>756.0</ele><time>2026-04-19T14:29:29.009Z</time></trkpt><trkpt lat="45.8110782449828" lon="8.302756248129127"><ele>759.0</ele><time>2026-04-19T14:29:30.009Z</time></trkpt><trkpt lat="45.81117643416144" lon="8.302872421310733"><ele>762.0</ele><time>2026-04-19T14:29:31.009Z</time></trkpt><trkpt lat="45.81128235721933" lon="8.3029790737166"><ele>762.0</ele><time>2026-04-19T14:29:32.009Z</time></trkpt><trkpt lat="45.81140211433101" lon="8.303055303939773"><ele>762.0</ele><time>2026-04-19T14:29:33.009Z</time></trkpt><trkpt lat="45.81153141660046" lon="8.303086094038713"><ele>762.0</ele><time>2026-04-19T14:29:34.009Z</time></trkpt><trkpt lat="45.8116585650874" lon="8.3030833864799"><ele>762.0</ele><time>2026-04-19T14:29:35.009Z</time></trkpt><trkpt lat="45.811776554279305" lon="8.303033937107847"><ele>763.0</ele><time>2026-04-19T14:29:36.009Z</time></trkpt><trkpt lat="45.81186777715074" lon="8.30295806380428"><ele>764.0</ele><time>2026-04-19T14:29:37.009Z</time></trkpt><trkpt lat="45.8119470604824" lon="8.302894922412747"><ele>765.0</ele><time>2026-04-19T14:29:38.009Z</time></trkpt><trkpt lat="45.812031253039535" lon="8.302873281566178"><ele>766.0</ele><time>2026-04-19T14:29:39.009Z</time></trkpt><trkpt lat="45.81210874151078" lon="8.302904440130499"><ele>767.0</ele><time>2026-04-19T14:29:40.009Z</time></trkpt><trkpt lat="45.81215847077963" lon="8.30298972638847"><ele>768.0</ele><time>2026-04-19T14:29:41.009Z</time></trkpt><trkpt lat="45.81218939730944" lon="8.303117577337792"><ele>768.0</ele><time>2026-04-19T14:29:42.009Z</time></trkpt><trkpt lat="45.81219782542567" lon="8.303251369806699"><ele>768.0</ele><time>2026-04-19T14:29:43.009Z</time></trkpt><trkpt lat="45.81220447239512" lon="8.303414629645909"><ele>768.0</ele><time>2026-04-19T14:29:44.009Z</time></trkpt><trkpt lat="45.81221553811745" lon="8.30358864883957"><ele>768.0</ele><time>2026-04-19T14:29:45.009Z</time></trkpt><trkpt lat="45.81222299791981" lon="8.30377091305541"><ele>766.5</ele><time>2026-04-19T14:29:46.009Z</time></trkpt><trkpt lat="45.81223435207898" lon="8.303944944416184"><ele>765.0</ele><time>2026-04-19T14:29:47.009Z</time></trkpt><trkpt lat="45.81224693705251" lon="8.30410822154764"><ele>763.5</ele><time>2026-04-19T14:29:48.009Z</time></trkpt><trkpt lat="45.81226503306369" lon="8.304284200510564"><ele>762.0</ele><time>2026-04-19T14:29:49.009Z</time></trkpt><trkpt lat="45.812280478316524" lon="8.304468992236853"><ele>762.0</ele><time>2026-04-19T14:29:50.009Z</time></trkpt><trkpt lat="45.8122937720593" lon="8.304647256527044"><ele>762.0</ele><time>2026-04-19T14:29:51.009Z</time></trkpt><trkpt lat="45.812302583078285" lon="8.304812711775941"><ele>762.0</ele><time>2026-04-19T14:29:52.009Z</time></trkpt><trkpt lat="45.81230722497994" lon="8.304976377380331"><ele>762.0</ele><time>2026-04-19T14:29:53.009Z</time></trkpt><trkpt lat="45.81231830398019" lon="8.305153713461292"><ele>758.5</ele><time>2026-04-19T14:29:54.009Z</time></trkpt><trkpt lat="45.812335518867435" lon="8.305327271320122"><ele>755.0</ele><time>2026-04-19T14:29:55.009Z</time></trkpt><trkpt lat="45.81235020964269" lon="8.305493560581125"><ele>751.5</ele><time>2026-04-19T14:29:56.009Z</time></trkpt><trkpt lat="45.812388181458076" lon="8.30564308602353"><ele>748.0</ele><time>2026-04-19T14:29:57.009Z</time></trkpt><trkpt lat="45.8124416605488" lon="8.305777286035223"><ele>749.8</ele><time>2026-04-19T14:29:58.009Z</time></trkpt><trkpt lat="45.81248356040822" lon="8.305903661300547"><ele>751.5999999999999</ele><time>2026-04-19T14:29:59.009Z</time></trkpt><trkpt lat="45.81252731029039" lon="8.306018212291274"><ele>753.4000000000001</ele><time>2026-04-19T14:30:00.009Z</time></trkpt><trkpt lat="45.812581247133956" lon="8.306111202960976"><ele>755.2</ele><time>2026-04-19T14:30:01.01Z</time></trkpt><trkpt lat="45.812663602349964" lon="8.306173985426263"><ele>757.0</ele><time>2026-04-19T14:30:02.01Z</time></trkpt><trkpt lat="45.81276800917858" lon="8.306200279523651"><ele>757.0</ele><time>2026-04-19T14:30:03.01Z</time></trkpt><trkpt lat="45.81288045779658" lon="8.306196778126028"><ele>757.0</ele><time>2026-04-19T14:30:04.01Z</time></trkpt><trkpt lat="45.81298881266717" lon="8.306159238001559"><ele>757.0</ele><time>2026-04-19T14:30:05.01Z</time></trkpt><trkpt lat="45.81309579618948" lon="8.306102504619906"><ele>757.0</ele><time>2026-04-19T14:30:06.01Z</time></trkpt><trkpt lat="45.81318329234388" lon="8.306088330794589"><ele>757.0</ele><time>2026-04-19T14:30:07.01Z</time></trkpt><trkpt lat="45.813242534835354" lon="8.306130492762653"><ele>757.0</ele><time>2026-04-19T14:30:08.01Z</time></trkpt><trkpt lat="45.813292926599395" lon="8.306191785529132"><ele>757.0</ele><time>2026-04-19T14:30:09.01Z</time></trkpt><trkpt lat="45.813310093064295" lon="8.306282177906223"><ele>757.0</ele><time>2026-04-19T14:30:10.01Z</time></trkpt><trkpt lat="45.81329748347684" lon="8.306383723811539"><ele>757.0</ele><time>2026-04-19T14:30:11.01Z</time></trkpt><trkpt lat="45.81325212498975" lon="8.306495722930372"><ele>757.0</ele><time>2026-04-19T14:30:12.01Z</time></trkpt><trkpt lat="45.81318203325259" lon="8.30660473091719"><ele>757.0</ele><time>2026-04-19T14:30:13.01Z</time></trkpt><trkpt lat="45.81311033065073" lon="8.306713504646607"><ele>752.75</ele><time>2026-04-19T14:30:14.01Z</time></trkpt><trkpt lat="45.813034222685744" lon="8.306834775002766"><ele>748.5</ele><time>2026-04-19T14:30:15.01Z</time></trkpt><trkpt lat="45.81294727820423" lon="8.306955266159834"><ele>744.25</ele><time>2026-04-19T14:30:16.01Z</time></trkpt><trkpt lat="45.81285191781845" lon="8.307038263388165"><ele>740.0</ele><time>2026-04-19T14:30:17.01Z</time></trkpt><trkpt lat="45.812749114322884" lon="8.307081335426593"><ele>740.0</ele><time>2026-04-19T14:30:18.01Z</time></trkpt><trkpt lat="45.81265941507171" lon="8.307126188547002"><ele>740.0</ele><time>2026-04-19T14:30:19.01Z</time></trkpt><trkpt lat="45.81258854806425" lon="8.30720712375847"><ele>740.0</ele><time>2026-04-19T14:30:20.01Z</time></trkpt><trkpt lat="45.81255680964661" lon="8.307322867070344"><ele>740.0</ele><time>2026-04-19T14:30:21.01Z</time></trkpt><trkpt lat="45.812557625085525" lon="8.307454385414468"><ele>740.0</ele><time>2026-04-19T14:30:22.01Z</time></trkpt><trkpt lat="45.81259770476475" lon="8.307581037729523"><ele>740.25</ele><time>2026-04-19T14:30:23.01Z</time></trkpt><trkpt lat="45.81267443956642" lon="8.30769896592127"><ele>740.5</ele><time>2026-04-19T14:30:24.01Z</time></trkpt><trkpt lat="45.81276382475473" lon="8.307816402678203"><ele>740.75</ele><time>2026-04-19T14:30:25.01Z</time></trkpt><trkpt lat="45.812855044574526" lon="8.307949141334907"><ele>741.0</ele><time>2026-04-19T14:30:26.01Z</time></trkpt><trkpt lat="45.81295059375511" lon="8.308090915147625"><ele>740.25</ele><time>2026-04-19T14:30:27.01Z</time></trkpt><trkpt lat="45.813052538950394" lon="8.308232190736092"><ele>739.5</ele><time>2026-04-19T14:30:28.01Z</time></trkpt><trkpt lat="45.81315129228962" lon="8.308372259519512"><ele>738.75</ele><time>2026-04-19T14:30:29.01Z</time></trkpt><trkpt lat="45.81324329267197" lon="8.308496166893546"><ele>738.0</ele><time>2026-04-19T14:30:30.01Z</time></trkpt><trkpt lat="45.81333010104756" lon="8.308607258581914"><ele>738.0</ele><time>2026-04-19T14:30:31.01Z</time></trkpt><trkpt lat="45.81340547042134" lon="8.308704786536026"><ele>738.0</ele><time>2026-04-19T14:30:32.01Z</time></trkpt><trkpt lat="45.81345625316507" lon="8.308799249568382"><ele>738.0</ele><time>2026-04-19T14:30:33.01Z</time></trkpt><trkpt lat="45.813472705296384" lon="8.308896682389562"><ele>738.0</ele><time>2026-04-19T14:30:34.011Z</time></trkpt><trkpt lat="45.81346288413846" lon="8.308987062086791"><ele>738.0</ele><time>2026-04-19T14:30:35.011Z</time></trkpt><trkpt lat="45.81341731331883" lon="8.309050315370458"><ele>738.0</ele><time>2026-04-19T14:30:36.011Z</time></trkpt><trkpt lat="45.813349473525165" lon="8.309087857389352"><ele>738.2</ele><time>2026-04-19T14:30:37.011Z</time></trkpt><trkpt lat="45.813261751927314" lon="8.30912865676105"><ele>738.4</ele><time>2026-04-19T14:30:38.011Z</time></trkpt><trkpt lat="45.813163773832635" lon="8.309145000247538"><ele>738.6</ele><time>2026-04-19T14:30:39.011Z</time></trkpt><trkpt lat="45.81305525779081" lon="8.309121771953842"><ele>738.8000000000001</ele><time>2026-04-19T14:30:40.011Z</time></trkpt><trkpt lat="45.8129462939579" lon="8.309084404970038"><ele>739.0</ele><time>2026-04-19T14:30:41.011Z</time></trkpt><trkpt lat="45.81282702123854" lon="8.309054843569063"><ele>739.0</ele><time>2026-04-19T14:30:42.011Z</time></trkpt><trkpt lat="45.81269835112186" lon="8.309028456376868"><ele>739.0</ele><time>2026-04-19T14:30:43.011Z</time></trkpt><trkpt lat="45.81256825481562" lon="8.308989674232865"><ele>739.0</ele><time>2026-04-19T14:30:44.011Z</time></trkpt><trkpt lat="45.81243784615359" lon="8.308933610723088"><ele>739.0</ele><time>2026-04-19T14:30:45.011Z</time></trkpt><trkpt lat="45.81231071281794" lon="8.308854603422855"><ele>737.4000000000001</ele><time>2026-04-19T14:30:46.011Z</time></trkpt><trkpt lat="45.81219338199755" lon="8.308764729452635"><ele>735.8</ele><time>2026-04-19T14:30:47.011Z</time></trkpt><trkpt lat="45.81210138276148" lon="8.308658713348171"><ele>734.2</ele><time>2026-04-19T14:30:48.011Z</time></trkpt><trkpt lat="45.812037891351345" lon="8.308548856836003"><ele>732.5999999999999</ele><time>2026-04-19T14:30:49.011Z</time></trkpt><trkpt lat="45.8119753001598" lon="8.308444746194883"><ele>731.0</ele><time>2026-04-19T14:30:50.011Z</time></trkpt><trkpt lat="45.81190073822285" lon="8.308381018086193"><ele>732.5999999999999</ele><time>2026-04-19T14:30:51.011Z</time></trkpt><trkpt lat="45.81181902361392" lon="8.308370095869442"><ele>734.2</ele><time>2026-04-19T14:30:52.009Z</time></trkpt><trkpt lat="45.811742187556455" lon="8.30841235285064"><ele>735.8</ele><time>2026-04-19T14:30:53.008Z</time></trkpt><trkpt lat="45.81167754905332" lon="8.308503056579246"><ele>737.4000000000001</ele><time>2026-04-19T14:30:54.008Z</time></trkpt><trkpt lat="45.81161577904594" lon="8.30862120032399"><ele>739.0</ele><time>2026-04-19T14:30:55.009Z</time></trkpt><trkpt lat="45.81154516370149" lon="8.308751544038724"><ele>739.0</ele><time>2026-04-19T14:30:56.008Z</time></trkpt><trkpt lat="45.8114632496286" lon="8.308878943879526"><ele>739.0</ele><time>2026-04-19T14:30:57.008Z</time></trkpt><trkpt lat="45.81137844003969" lon="8.309018822222358"><ele>739.0</ele><time>2026-04-19T14:30:58.008Z</time></trkpt><trkpt lat="45.81129521215117" lon="8.309183933598618"><ele>739.0</ele><time>2026-04-19T14:30:59.008Z</time></trkpt><trkpt lat="45.811218174484324" lon="8.309358713919345"><ele>746.5</ele><time>2026-04-19T14:31:00.008Z</time></trkpt><trkpt lat="45.81114919312968" lon="8.309524857631777"><ele>754.0</ele><time>2026-04-19T14:31:01.009Z</time></trkpt><trkpt lat="45.811087600769476" lon="8.309676420963717"><ele>761.5</ele><time>2026-04-19T14:31:02.008Z</time></trkpt><trkpt lat="45.81105166104202" lon="8.309848429918215"><ele>769.0</ele><time>2026-04-19T14:31:03.008Z</time></trkpt><trkpt lat="45.81103798170832" lon="8.310033188926642"><ele>775.25</ele><time>2026-04-19T14:31:04.009Z</time></trkpt><trkpt lat="45.81103426054599" lon="8.310231077943495"><ele>781.5</ele><time>2026-04-19T14:31:05.008Z</time></trkpt><trkpt lat="45.81104135296445" lon="8.310436252422289"><ele>787.75</ele><time>2026-04-19T14:31:06.008Z</time></trkpt><trkpt lat="45.811061150578226" lon="8.310640662920346"><ele>794.0</ele><time>2026-04-19T14:31:07.008Z</time></trkpt><trkpt lat="45.81109115989131" lon="8.310825827541585"><ele>795.8000000000001</ele><time>2026-04-19T14:31:08.008Z</time></trkpt><trkpt lat="45.811110323500756" lon="8.310990415858287"><ele>797.6</ele><time>2026-04-19T14:31:09.008Z</time></trkpt><trkpt lat="45.81108897839873" lon="8.31113312323207"><ele>799.4</ele><time>2026-04-19T14:31:10.008Z</time></trkpt><trkpt lat="45.811055022480794" lon="8.311278490238143"><ele>801.2</ele><time>2026-04-19T14:31:11.008Z</time></trkpt><trkpt lat="45.81103107141726" lon="8.311434825082056"><ele>803.0</ele><time>2026-04-19T14:31:12.008Z</time></trkpt><trkpt lat="45.81103179261301" lon="8.31161035566493"><ele>804.0000000000001</ele><time>2026-04-19T14:31:13.008Z</time></trkpt><trkpt lat="45.81105090936436" lon="8.311766991716281"><ele>805.0</ele><time>2026-04-19T14:31:14.008Z</time></trkpt><trkpt lat="45.811076894375965" lon="8.311899444108985"><ele>806.0</ele><time>2026-04-19T14:31:15.008Z</time></trkpt><trkpt lat="45.81109849029269" lon="8.312009584995664"><ele>807.0</ele><time>2026-04-19T14:31:16.008Z</time></trkpt><trkpt lat="45.81107754243853" lon="8.312114128392267"><ele>808.0000000000001</ele><time>2026-04-19T14:31:17.008Z</time></trkpt><trkpt lat="45.811025533100235" lon="8.312191363902647"><ele>809.0</ele><time>2026-04-19T14:31:18.008Z</time></trkpt><trkpt lat="45.81096238827408" lon="8.312220542506934"><ele>803.4000000000001</ele><time>2026-04-19T14:31:19.008Z</time></trkpt><trkpt lat="45.8108877652838" lon="8.3122060064548"><ele>797.8</ele><time>2026-04-19T14:31:20.008Z</time></trkpt><trkpt lat="45.81082018533521" lon="8.312132178584497"><ele>792.2</ele><time>2026-04-19T14:31:21.009Z</time></trkpt><trkpt lat="45.810771159333804" lon="8.31201332036372"><ele>786.5999999999999</ele><time>2026-04-19T14:31:22.009Z</time></trkpt><trkpt lat="45.810740682432495" lon="8.31185152565932"><ele>781.0</ele><time>2026-04-19T14:31:23.009Z</time></trkpt><trkpt lat="45.81069691111235" lon="8.311680286090018"><ele>781.0</ele><time>2026-04-19T14:31:24.009Z</time></trkpt><trkpt lat="45.81062392829677" lon="8.311549527939802"><ele>781.0</ele><time>2026-04-19T14:31:25.009Z</time></trkpt><trkpt lat="45.81053348922708" lon="8.311425853893315"><ele>781.0</ele><time>2026-04-19T14:31:26.009Z</time></trkpt><trkpt lat="45.81044141070411" lon="8.311286935820647"><ele>781.0</ele><time>2026-04-19T14:31:27.009Z</time></trkpt><trkpt lat="45.81035301598476" lon="8.311123181552349"><ele>782.75</ele><time>2026-04-19T14:31:28.009Z</time></trkpt><trkpt lat="45.81027247774481" lon="8.31096849552104"><ele>784.5</ele><time>2026-04-19T14:31:29.009Z</time></trkpt><trkpt lat="45.81018230446859" lon="8.310841267311035"><ele>786.25</ele><time>2026-04-19T14:31:30.009Z</time></trkpt><trkpt lat="45.810077708173466" lon="8.310750413685225"><ele>788.0</ele><time>2026-04-19T14:31:31.009Z</time></trkpt><trkpt lat="45.80997461600957" lon="8.310707255893258"><ele>788.0</ele><time>2026-04-19T14:31:32.009Z</time></trkpt><trkpt lat="45.809857477913496" lon="8.31071309679175"><ele>788.0</ele><time>2026-04-19T14:31:33.009Z</time></trkpt><trkpt lat="45.80976076898395" lon="8.310724330320765"><ele>788.0</ele><time>2026-04-19T14:31:34.009Z</time></trkpt><trkpt lat="45.80967337555543" lon="8.310724527632871"><ele>788.0</ele><time>2026-04-19T14:31:35.009Z</time></trkpt><trkpt lat="45.80959671154323" lon="8.31070454242912"><ele>788.0</ele><time>2026-04-19T14:31:36.009Z</time></trkpt><trkpt lat="45.80953904230352" lon="8.310647097409905"><ele>786.2</ele><time>2026-04-19T14:31:37.009Z</time></trkpt><trkpt lat="45.80951125094634" lon="8.310548389328993"><ele>784.4</ele><time>2026-04-19T14:31:38.009Z</time></trkpt><trkpt lat="45.80951282291526" lon="8.310425483162119"><ele>782.6</ele><time>2026-04-19T14:31:39.009Z</time></trkpt><trkpt lat="45.809532743243295" lon="8.310286253701337"><ele>780.8000000000001</ele><time>2026-04-19T14:31:40.009Z</time></trkpt><trkpt lat="45.80953061812644" lon="8.31012774054197"><ele>779.0</ele><time>2026-04-19T14:31:41.009Z</time></trkpt><trkpt lat="45.809511400100064" lon="8.30996444139326"><ele>779.0</ele><time>2026-04-19T14:31:42.009Z</time></trkpt><trkpt lat="45.80949057405315" lon="8.309800000050299"><ele>779.0</ele><time>2026-04-19T14:31:43.009Z</time></trkpt><trkpt lat="45.80948404833729" lon="8.309614597931928"><ele>779.0</ele><time>2026-04-19T14:31:44.009Z</time></trkpt><trkpt lat="45.80948183856633" lon="8.309421828854296"><ele>779.0</ele><time>2026-04-19T14:31:45.009Z</time></trkpt><trkpt lat="45.80948305222381" lon="8.309222533455818"><ele>779.25</ele><time>2026-04-19T14:31:46.009Z</time></trkpt><trkpt lat="45.80947799474294" lon="8.309017546505299"><ele>779.5</ele><time>2026-04-19T14:31:47.009Z</time></trkpt><trkpt lat="45.809476105203224" lon="8.308807314338715"><ele>779.75</ele><time>2026-04-19T14:31:48.009Z</time></trkpt><trkpt lat="45.80945741538645" lon="8.308605776796947"><ele>780.0</ele><time>2026-04-19T14:31:49.009Z</time></trkpt><trkpt lat="45.80945406273376" lon="8.308428833164234"><ele>783.75</ele><time>2026-04-19T14:31:50.009Z</time></trkpt><trkpt lat="45.80948022974656" lon="8.30826328586158"><ele>787.5</ele><time>2026-04-19T14:31:51.009Z</time></trkpt><trkpt lat="45.809537906948826" lon="8.308113233925203"><ele>791.25</ele><time>2026-04-19T14:31:52.009Z</time></trkpt><trkpt lat="45.80962526359975" lon="8.307973649409185"><ele>795.0</ele><time>2026-04-19T14:31:53.009Z</time></trkpt><trkpt lat="45.80971764606326" lon="8.307844606694422"><ele>796.3333333333334</ele><time>2026-04-19T14:31:54.01Z</time></trkpt><trkpt lat="45.80979788436882" lon="8.307741568839345"><ele>797.6666666666667</ele><time>2026-04-19T14:31:55.01Z</time></trkpt><trkpt lat="45.80981892550696" lon="8.307617587587062"><ele>799.0</ele><time>2026-04-19T14:31:56.01Z</time></trkpt><trkpt lat="45.80979013696203" lon="8.307522172246182"><ele>800.3333333333334</ele><time>2026-04-19T14:31:57.01Z</time></trkpt><trkpt lat="45.80975808254592" lon="8.307436021430679"><ele>801.6666666666667</ele><time>2026-04-19T14:31:58.01Z</time></trkpt><trkpt lat="45.8096766933894" lon="8.307330816720704"><ele>803.0</ele><time>2026-04-19T14:31:59.01Z</time></trkpt><trkpt lat="45.8095919127384" lon="8.307176686650001"><ele>797.6666666666667</ele><time>2026-04-19T14:32:00.01Z</time></trkpt><trkpt lat="45.80948440335575" lon="8.306991113597542"><ele>792.3333333333333</ele><time>2026-04-19T14:32:01.01Z</time></trkpt><trkpt lat="45.80937743439212" lon="8.306826922144127"><ele>787.0</ele><time>2026-04-19T14:32:02.01Z</time></trkpt><trkpt lat="45.80926690050456" lon="8.306699303819162"><ele>791.5</ele><time>2026-04-19T14:32:03.01Z</time></trkpt><trkpt lat="45.80915214169121" lon="8.306559404602186"><ele>796.0</ele><time>2026-04-19T14:32:04.01Z</time></trkpt><trkpt lat="45.80905306201601" lon="8.306415401635105"><ele>800.5</ele><time>2026-04-19T14:32:05.01Z</time></trkpt><trkpt lat="45.80898161488803" lon="8.306251998936215"><ele>805.0</ele><time>2026-04-19T14:32:06.01Z</time></trkpt><trkpt lat="45.80892461261427" lon="8.306102995738302"><ele>805.0</ele><time>2026-04-19T14:32:07.01Z</time></trkpt><trkpt lat="45.808828448098865" lon="8.305997903672512"><ele>805.0</ele><time>2026-04-19T14:32:08.01Z</time></trkpt><trkpt lat="45.80870968598271" lon="8.305917199424394"><ele>805.0</ele><time>2026-04-19T14:32:09.01Z</time></trkpt><trkpt lat="45.80857657866341" lon="8.305846857661646"><ele>805.0</ele><time>2026-04-19T14:32:10.01Z</time></trkpt><trkpt lat="45.80845858391362" lon="8.305787612704156"><ele>809.3333333333333</ele><time>2026-04-19T14:32:11.01Z</time></trkpt><trkpt lat="45.80836415640333" lon="8.305756295741189"><ele>813.6666666666666</ele><time>2026-04-19T14:32:12.01Z</time></trkpt><trkpt lat="45.808277018413435" lon="8.305775869869493"><ele>818.0</ele><time>2026-04-19T14:32:13.01Z</time></trkpt><trkpt lat="45.808206867949735" lon="8.30583604684828"><ele>822.3333333333333</ele><time>2026-04-19T14:32:14.01Z</time></trkpt><trkpt lat="45.80815799483952" lon="8.305932460068526"><ele>826.6666666666666</ele><time>2026-04-19T14:32:15.01Z</time></trkpt><trkpt lat="45.80813761622166" lon="8.30606583965351"><ele>831.0</ele><time>2026-04-19T14:32:16.01Z</time></trkpt><trkpt lat="45.80815193692527" lon="8.306228925950853"><ele>831.0</ele><time>2026-04-19T14:32:17.01Z</time></trkpt><trkpt lat="45.80819051010631" lon="8.30640239508931"><ele>831.0</ele><time>2026-04-19T14:32:18.01Z</time></trkpt><trkpt lat="45.80824597147217" lon="8.306589575720007"><ele>831.0</ele><time>2026-04-19T14:32:19.01Z</time></trkpt><trkpt lat="45.80829879878672" lon="8.306782295645359"><ele>831.0</ele><time>2026-04-19T14:32:20.01Z</time></trkpt><trkpt lat="45.80834591905251" lon="8.306977798417144"><ele>834.5</ele><time>2026-04-19T14:32:21.01Z</time></trkpt><trkpt lat="45.808361524885335" lon="8.307180938160144"><ele>838.0</ele><time>2026-04-19T14:32:22.01Z</time></trkpt><trkpt lat="45.80835314081321" lon="8.307383926826091"><ele>841.5</ele><time>2026-04-19T14:32:23.01Z</time></trkpt><trkpt lat="45.80835371534035" lon="8.30759075230778"><ele>845.0</ele><time>2026-04-19T14:32:24.01Z</time></trkpt><trkpt lat="45.808370860012516" lon="8.307800608872448"><ele>845.5</ele><time>2026-04-19T14:32:25.01Z</time></trkpt><trkpt lat="45.808406448326124" lon="8.307993394973614"><ele>846.0</ele><time>2026-04-19T14:32:26.01Z</time></trkpt><trkpt lat="45.80845110606599" lon="8.308183732291434"><ele>846.5</ele><time>2026-04-19T14:32:27.01Z</time></trkpt><trkpt lat="45.80847321383984" lon="8.308378649671463"><ele>847.0</ele><time>2026-04-19T14:32:28.011Z</time></trkpt><trkpt lat="45.808467115881726" lon="8.308577732397469"><ele>847.25</ele><time>2026-04-19T14:32:29.011Z</time></trkpt><trkpt lat="45.808442545850134" lon="8.308779905213417"><ele>847.5</ele><time>2026-04-19T14:32:30.011Z</time></trkpt><trkpt lat="45.80840341160456" lon="8.308979955867162"><ele>847.75</ele><time>2026-04-19T14:32:31.011Z</time></trkpt><trkpt lat="45.808374546420495" lon="8.309185484599448"><ele>848.0</ele><time>2026-04-19T14:32:32.011Z</time></trkpt><trkpt lat="45.80837316913721" lon="8.309394750896987"><ele>848.6666666666667</ele><time>2026-04-19T14:32:33.011Z</time></trkpt><trkpt lat="45.80838590371448" lon="8.309610081880306"><ele>849.3333333333333</ele><time>2026-04-19T14:32:34.011Z</time></trkpt><trkpt lat="45.80840849267805" lon="8.309828032474886"><ele>850.0</ele><time>2026-04-19T14:32:35.011Z</time></trkpt><trkpt lat="45.808431512245235" lon="8.31003885415768"><ele>850.0</ele><time>2026-04-19T14:32:36.011Z</time></trkpt><trkpt lat="45.808456916869844" lon="8.310255384488766"><ele>850.0</ele><time>2026-04-19T14:32:37.011Z</time></trkpt><trkpt lat="45.80848314573927" lon="8.310475439758868"><ele>850.0</ele><time>2026-04-19T14:32:38.011Z</time></trkpt><trkpt lat="45.808504879508746" lon="8.310692493127792"><ele>842.6666666666666</ele><time>2026-04-19T14:32:39.011Z</time></trkpt><trkpt lat="45.808526219641735" lon="8.310914615785078"><ele>835.3333333333333</ele><time>2026-04-19T14:32:40.011Z</time></trkpt><trkpt lat="45.808551383236654" lon="8.311134553190339"><ele>828.0</ele><time>2026-04-19T14:32:41.011Z</time></trkpt><trkpt lat="45.80857532359936" lon="8.311347112141956"><ele>831.5</ele><time>2026-04-19T14:32:42.011Z</time></trkpt><trkpt lat="45.8086022166501" lon="8.311540465329319"><ele>835.0</ele><time>2026-04-19T14:32:43.011Z</time></trkpt><trkpt lat="45.80863724276764" lon="8.311709128779446"><ele>838.5</ele><time>2026-04-19T14:32:44.011Z</time></trkpt><trkpt lat="45.80865651701714" lon="8.311865618789803"><ele>842.0</ele><time>2026-04-19T14:32:45.011Z</time></trkpt><trkpt lat="45.8086527453136" lon="8.312014339240223"><ele>842.0</ele><time>2026-04-19T14:32:46.011Z</time></trkpt><trkpt lat="45.80861612698157" lon="8.312153461383987"><ele>842.0</ele><time>2026-04-19T14:32:47.011Z</time></trkpt><trkpt lat="45.808567147808816" lon="8.312293824946632"><ele>842.0</ele><time>2026-04-19T14:32:48.011Z</time></trkpt><trkpt lat="45.80853439736546" lon="8.312453518985519"><ele>842.0</ele><time>2026-04-19T14:32:49.011Z</time></trkpt><trkpt lat="45.80854753211628" lon="8.312622456776065"><ele>842.0</ele><time>2026-04-19T14:32:50.011Z</time></trkpt><trkpt lat="45.80858000326759" lon="8.31279640076234"><ele>846.0</ele><time>2026-04-19T14:32:51.011Z</time></trkpt><trkpt lat="45.80861598608056" lon="8.312976687386264"><ele>850.0</ele><time>2026-04-19T14:32:52.011Z</time></trkpt><trkpt lat="45.80865801472238" lon="8.313155778033787"><ele>854.0</ele><time>2026-04-19T14:32:53.011Z</time></trkpt><trkpt lat="45.80869071994082" lon="8.313333626505022"><ele>858.0</ele><time>2026-04-19T14:32:54.011Z</time></trkpt><trkpt lat="45.80870805485169" lon="8.313518275588759"><ele>861.25</ele><time>2026-04-19T14:32:55.011Z</time></trkpt><trkpt lat="45.80869903400328" lon="8.31370653305142"><ele>864.5</ele><time>2026-04-19T14:32:56.011Z</time></trkpt><trkpt lat="45.80866166663986" lon="8.313885927982973"><ele>867.75</ele><time>2026-04-19T14:32:57.011Z</time></trkpt><trkpt lat="45.80860887298281" lon="8.314052972192576"><ele>871.0</ele><time>2026-04-19T14:32:58.009Z</time></trkpt><trkpt lat="45.80857854279668" lon="8.314214742286236"><ele>874.0</ele><time>2026-04-19T14:32:59.009Z</time></trkpt><trkpt lat="45.808582778782664" lon="8.314376783491763"><ele>877.0</ele><time>2026-04-19T14:33:00.009Z</time></trkpt><trkpt lat="45.80861199222408" lon="8.314542712875305"><ele>880.0</ele><time>2026-04-19T14:33:01.009Z</time></trkpt><trkpt lat="45.80865130275931" lon="8.31470739308864"><ele>883.0</ele><time>2026-04-19T14:33:02.009Z</time></trkpt><trkpt lat="45.80869191213767" lon="8.314877790012595"><ele>884.25</ele><time>2026-04-19T14:33:03.009Z</time></trkpt><trkpt lat="45.80872967332052" lon="8.315053350905957"><ele>885.5</ele><time>2026-04-19T14:33:04.009Z</time></trkpt><trkpt lat="45.80876577546191" lon="8.315230562277575"><ele>886.75</ele><time>2026-04-19T14:33:05.009Z</time></trkpt><trkpt lat="45.80880260238201" lon="8.31541727815957"><ele>888.0</ele><time>2026-04-19T14:33:06.009Z</time></trkpt><trkpt lat="45.80883635484227" lon="8.315607825979429"><ele>888.75</ele><time>2026-04-19T14:33:07.009Z</time></trkpt><trkpt lat="45.80886725481496" lon="8.315805376658888"><ele>889.5</ele><time>2026-04-19T14:33:08.009Z</time></trkpt><trkpt lat="45.808897027478174" lon="8.316003763175038"><ele>890.25</ele><time>2026-04-19T14:33:09.009Z</time></trkpt><trkpt lat="45.808927990432984" lon="8.316206933380357"><ele>891.0</ele><time>2026-04-19T14:33:10.009Z</time></trkpt><trkpt lat="45.808956748341" lon="8.316416480576162"><ele>892.5</ele><time>2026-04-19T14:33:11.009Z</time></trkpt><trkpt lat="45.80898444613653" lon="8.316621692250264"><ele>894.0</ele><time>2026-04-19T14:33:12.009Z</time></trkpt><trkpt lat="45.80900042129003" lon="8.316831508764901"><ele>895.5</ele><time>2026-04-19T14:33:13.009Z</time></trkpt><trkpt lat="45.80901013444243" lon="8.317046628056675"><ele>897.0</ele><time>2026-04-19T14:33:14.009Z</time></trkpt><trkpt lat="45.80901874962294" lon="8.317258548548427"><ele>897.25</ele><time>2026-04-19T14:33:15.009Z</time></trkpt><trkpt lat="45.8090244631725" lon="8.317464219475513"><ele>897.5</ele><time>2026-04-19T14:33:16.009Z</time></trkpt><trkpt lat="45.80902647203884" lon="8.31765419649031"><ele>897.75</ele><time>2026-04-19T14:33:17.009Z</time></trkpt><trkpt lat="45.809008027546405" lon="8.317820386672446"><ele>898.0</ele><time>2026-04-19T14:33:18.009Z</time></trkpt><trkpt lat="45.80895751540967" lon="8.317978960922705"><ele>899.75</ele><time>2026-04-19T14:33:19.009Z</time></trkpt><trkpt lat="45.80886661436854" lon="8.318105049085071"><ele>901.5</ele><time>2026-04-19T14:33:20.009Z</time></trkpt><trkpt lat="45.808757438586476" lon="8.318197986019545"><ele>903.25</ele><time>2026-04-19T14:33:21.009Z</time></trkpt><trkpt lat="45.80864498574341" lon="8.318270853007549"><ele>905.0</ele><time>2026-04-19T14:33:22.009Z</time></trkpt><trkpt lat="45.80855064508812" lon="8.318349445307922"><ele>906.8</ele><time>2026-04-19T14:33:23.009Z</time></trkpt><trkpt lat="45.80848992665272" lon="8.318453805571483"><ele>908.6</ele><time>2026-04-19T14:33:24.009Z</time></trkpt><trkpt lat="45.808460499845694" lon="8.318576859165265"><ele>910.4000000000001</ele><time>2026-04-19T14:33:25.009Z</time></trkpt><trkpt lat="45.808449369557984" lon="8.318719636348535"><ele>912.2</ele><time>2026-04-19T14:33:26.009Z</time></trkpt><trkpt lat="45.80845131117533" lon="8.318876332944921"><ele>914.0</ele><time>2026-04-19T14:33:27.009Z</time></trkpt><trkpt lat="45.808452890729164" lon="8.319043257361537"><ele>915.5</ele><time>2026-04-19T14:33:28.009Z</time></trkpt><trkpt lat="45.808442823471836" lon="8.31921336245787"><ele>917.0</ele><time>2026-04-19T14:33:29.009Z</time></trkpt><trkpt lat="45.808456211350446" lon="8.319384280174269"><ele>918.5</ele><time>2026-04-19T14:33:30.009Z</time></trkpt><trkpt lat="45.80849512880224" lon="8.31954828528186"><ele>920.0</ele><time>2026-04-19T14:33:31.01Z</time></trkpt><trkpt lat="45.808559445656314" lon="8.319704104853008"><ele>922.5</ele><time>2026-04-19T14:33:32.01Z</time></trkpt><trkpt lat="45.8086482731632" lon="8.319861870064113"><ele>925.0</ele><time>2026-04-19T14:33:33.01Z</time></trkpt><trkpt lat="45.80873695891206" lon="8.320006686236853"><ele>927.5</ele><time>2026-04-19T14:33:34.01Z</time></trkpt><trkpt lat="45.808833784490076" lon="8.32012882651222"><ele>930.0</ele><time>2026-04-19T14:33:35.01Z</time></trkpt><trkpt lat="45.808919699252094" lon="8.320238528194967"><ele>930.0</ele><time>2026-04-19T14:33:36.01Z</time></trkpt><trkpt lat="45.8089647695952" lon="8.320354583479213"><ele>930.0</ele><time>2026-04-19T14:33:37.01Z</time></trkpt><trkpt lat="45.808987614185256" lon="8.320484651682484"><ele>930.0</ele><time>2026-04-19T14:33:38.01Z</time></trkpt><trkpt lat="45.80899857342323" lon="8.320625295935956"><ele>930.0</ele><time>2026-04-19T14:33:39.01Z</time></trkpt><trkpt lat="45.809011329728214" lon="8.320779418856599"><ele>930.0</ele><time>2026-04-19T14:33:40.01Z</time></trkpt><trkpt lat="45.80902384606377" lon="8.320941373174596"><ele>932.25</ele><time>2026-04-19T14:33:41.01Z</time></trkpt><trkpt lat="45.80903878123051" lon="8.321108650384556"><ele>934.5</ele><time>2026-04-19T14:33:42.01Z</time></trkpt><trkpt lat="45.80904918649337" lon="8.321283371022574"><ele>936.75</ele><time>2026-04-19T14:33:43.01Z</time></trkpt><trkpt lat="45.809063098726895" lon="8.321460666463398"><ele>939.0</ele><time>2026-04-19T14:33:44.01Z</time></trkpt><trkpt lat="45.80907698922217" lon="8.32163127485201"><ele>939.3333333333334</ele><time>2026-04-19T14:33:45.01Z</time></trkpt><trkpt lat="45.80909358066389" lon="8.321780607300855"><ele>939.6666666666667</ele><time>2026-04-19T14:33:46.01Z</time></trkpt><trkpt lat="45.809117700781194" lon="8.321910258365275"><ele>940.0</ele><time>2026-04-19T14:33:47.01Z</time></trkpt><trkpt lat="45.809133523363506" lon="8.32202073348866"><ele>940.3333333333334</ele><time>2026-04-19T14:33:48.01Z</time></trkpt><trkpt lat="45.80915943558845" lon="8.322126887262453"><ele>940.6666666666667</ele><time>2026-04-19T14:33:49.01Z</time></trkpt><trkpt lat="45.809182206583785" lon="8.322243258759308"><ele>941.0</ele><time>2026-04-19T14:33:50.01Z</time></trkpt><trkpt lat="45.80919984821599" lon="8.32237603625507"><ele>941.0</ele><time>2026-04-19T14:33:51.01Z</time></trkpt><trkpt lat="45.80922377361651" lon="8.322520676241263"><ele>940.9999999999999</ele><time>2026-04-19T14:33:52.01Z</time></trkpt><trkpt lat="45.809250466611026" lon="8.322678690319112"><ele>940.9999999999999</ele><time>2026-04-19T14:33:53.01Z</time></trkpt><trkpt lat="45.80928296005709" lon="8.322843798472759"><ele>941.0</ele><time>2026-04-19T14:33:54.01Z</time></trkpt><trkpt lat="45.80932247004769" lon="8.322987021477921"><ele>941.0</ele><time>2026-04-19T14:33:55.01Z</time></trkpt><trkpt lat="45.80937422505691" lon="8.323099008444064"><ele>940.5999999999999</ele><time>2026-04-19T14:33:56.01Z</time></trkpt><trkpt lat="45.80945408417125" lon="8.323160547696117"><ele>940.1999999999999</ele><time>2026-04-19T14:33:57.01Z</time></trkpt><trkpt lat="45.8095491316818" lon="8.323166577831023"><ele>939.8000000000001</ele><time>2026-04-19T14:33:58.01Z</time></trkpt><trkpt lat="45.80965820785613" lon="8.32314247398809"><ele>939.4000000000001</ele><time>2026-04-19T14:33:59.01Z</time></trkpt><trkpt lat="45.80977134069275" lon="8.323132446840166"><ele>939.0</ele><time>2026-04-19T14:34:00.01Z</time></trkpt><trkpt lat="45.80987321795191" lon="8.32317825474845"><ele>939.0</ele><time>2026-04-19T14:34:01.01Z</time></trkpt><trkpt lat="45.80996588943758" lon="8.323265251318041"><ele>939.0</ele><time>2026-04-19T14:34:02.01Z</time></trkpt><trkpt lat="45.81004780893188" lon="8.323391727624083"><ele>939.0</ele><time>2026-04-19T14:34:03.01Z</time></trkpt><trkpt lat="45.81012975979874" lon="8.323543415046448"><ele>939.0</ele><time>2026-04-19T14:34:04.01Z</time></trkpt><trkpt lat="45.81021186180389" lon="8.323688594018021"><ele>943.0</ele><time>2026-04-19T14:34:05.011Z</time></trkpt><trkpt lat="45.81029741194338" lon="8.323823622809993"><ele>947.0</ele><time>2026-04-19T14:34:06.011Z</time></trkpt><trkpt lat="45.81037987119809" lon="8.323952605178805"><ele>951.0</ele><time>2026-04-19T14:34:07.011Z</time></trkpt><trkpt lat="45.81045058180929" lon="8.324092072307366"><ele>955.0</ele><time>2026-04-19T14:34:08.011Z</time></trkpt><trkpt lat="45.810507438318616" lon="8.32425568331148"><ele>955.0</ele><time>2026-04-19T14:34:09.011Z</time></trkpt><trkpt lat="45.81055224848557" lon="8.324426169093242"><ele>955.0</ele><time>2026-04-19T14:34:10.011Z</time></trkpt><trkpt lat="45.81058194419509" lon="8.324591634631444"><ele>955.0</ele><time>2026-04-19T14:34:11.011Z</time></trkpt><trkpt lat="45.81060571851499" lon="8.324752457998644"><ele>955.0</ele><time>2026-04-19T14:34:12.011Z</time></trkpt><trkpt lat="45.810608243847774" lon="8.32490922423166"><ele>952.3333333333333</ele><time>2026-04-19T14:34:13.011Z</time></trkpt><trkpt lat="45.81057676188426" lon="8.325041272841073"><ele>949.6666666666666</ele><time>2026-04-19T14:34:14.011Z</time></trkpt><trkpt lat="45.810517791764006" lon="8.325140562431264"><ele>947.0</ele><time>2026-04-19T14:34:15.011Z</time></trkpt><trkpt lat="45.81046748703113" lon="8.325233473775482"><ele>944.3333333333333</ele><time>2026-04-19T14:34:16.011Z</time></trkpt><trkpt lat="45.810441916705244" lon="8.325342776331029"><ele>941.6666666666666</ele><time>2026-04-19T14:34:17.011Z</time></trkpt><trkpt lat="45.81045087387277" lon="8.325455494424832"><ele>939.0</ele><time>2026-04-19T14:34:18.011Z</time></trkpt><trkpt lat="45.8104968127877" lon="8.325564839512852"><ele>936.0</ele><time>2026-04-19T14:34:19.011Z</time></trkpt><trkpt lat="45.81056520382335" lon="8.325681725212656"><ele>933.0</ele><time>2026-04-19T14:34:20.011Z</time></trkpt><trkpt lat="45.810632857717046" lon="8.325806040038616"><ele>930.0</ele><time>2026-04-19T14:34:21.011Z</time></trkpt><trkpt lat="45.81068705834548" lon="8.32595825058617"><ele>927.0</ele><time>2026-04-19T14:34:22.011Z</time></trkpt><trkpt lat="45.81072231992715" lon="8.326151282400275"><ele>927.0</ele><time>2026-04-19T14:34:23.011Z</time></trkpt><trkpt lat="45.81073461097876" lon="8.326363693925146"><ele>927.0</ele><time>2026-04-19T14:34:24.011Z</time></trkpt><trkpt lat="45.810746623794145" lon="8.326559647096952"><ele>927.0</ele><time>2026-04-19T14:34:25.011Z</time></trkpt><trkpt lat="45.8107744947729" lon="8.326734036866096"><ele>927.0</ele><time>2026-04-19T14:34:26.011Z</time></trkpt><trkpt lat="45.81081271470626" lon="8.326890739062621"><ele>926.6</ele><time>2026-04-19T14:34:27.011Z</time></trkpt><trkpt lat="45.8108663907967" lon="8.32702203436286"><ele>926.2</ele><time>2026-04-19T14:34:28.011Z</time></trkpt><trkpt lat="45.81095336707543" lon="8.327125342956606"><ele>925.8</ele><time>2026-04-19T14:34:29.011Z</time></trkpt><trkpt lat="45.8110377698748" lon="8.327193147511922"><ele>925.4</ele><time>2026-04-19T14:34:30.011Z</time></trkpt><trkpt lat="45.811141177737355" lon="8.327224003555392"><ele>925.0</ele><time>2026-04-19T14:34:31.011Z</time></trkpt><trkpt lat="45.811262563486764" lon="8.327219973408875"><ele>925.0</ele><time>2026-04-19T14:34:32.011Z</time></trkpt><trkpt lat="45.81138606813415" lon="8.327215700132314"><ele>925.0</ele><time>2026-04-19T14:34:33.011Z</time></trkpt><trkpt lat="45.81151170549401" lon="8.327219005880771"><ele>925.0</ele><time>2026-04-19T14:34:34.011Z</time></trkpt><trkpt lat="45.81163581039137" lon="8.327217329223737"><ele>925.0</ele><time>2026-04-19T14:34:35.011Z</time></trkpt><trkpt lat="45.8117550515854" lon="8.327222093523048"><ele>921.2</ele><time>2026-04-19T14:34:36.011Z</time></trkpt><trkpt lat="45.81186905707498" lon="8.327240422031323"><ele>917.4</ele><time>2026-04-19T14:34:37.011Z</time></trkpt><trkpt lat="45.811984923178755" lon="8.327253593659094"><ele>913.5999999999999</ele><time>2026-04-19T14:34:38.012Z</time></trkpt><trkpt lat="45.8120886550538" lon="8.327225749785077"><ele>909.8</ele><time>2026-04-19T14:34:39.012Z</time></trkpt><trkpt lat="45.81217405371765" lon="8.327143622423293"><ele>906.0</ele><time>2026-04-19T14:34:40.012Z</time></trkpt><trkpt lat="45.812247304523865" lon="8.327024466123978"><ele>906.0</ele><time>2026-04-19T14:34:41.012Z</time></trkpt><trkpt lat="45.812327415195405" lon="8.326901509650265"><ele>905.9999999999999</ele><time>2026-04-19T14:34:42.012Z</time></trkpt><trkpt lat="45.81241911054811" lon="8.326806185396832"><ele>905.9999999999999</ele><time>2026-04-19T14:34:43.012Z</time></trkpt><trkpt lat="45.81251915353668" lon="8.326732368704468"><ele>906.0</ele><time>2026-04-19T14:34:44.012Z</time></trkpt><trkpt lat="45.81261229594589" lon="8.326685615806557"><ele>906.0</ele><time>2026-04-19T14:34:45.012Z</time></trkpt><trkpt lat="45.81269804228216" lon="8.326651954717656"><ele>907.5</ele><time>2026-04-19T14:34:46.012Z</time></trkpt><trkpt lat="45.812776615598345" lon="8.3266521504286"><ele>909.0</ele><time>2026-04-19T14:34:47.012Z</time></trkpt><trkpt lat="45.81284253195565" lon="8.326713168391636"><ele>910.5</ele><time>2026-04-19T14:34:48.012Z</time></trkpt><trkpt lat="45.81288614467233" lon="8.326804895042667"><ele>912.0</ele><time>2026-04-19T14:34:49.012Z</time></trkpt><trkpt lat="45.81289910125709" lon="8.326920798552587"><ele>913.5</ele><time>2026-04-19T14:34:50.012Z</time></trkpt><trkpt lat="45.81287062682281" lon="8.327036418122725"><ele>915.0</ele><time>2026-04-19T14:34:51.012Z</time></trkpt><trkpt lat="45.81281977484858" lon="8.327163367582363"><ele>916.0</ele><time>2026-04-19T14:34:52.012Z</time></trkpt><trkpt lat="45.81276247634666" lon="8.327318750471484"><ele>917.0</ele><time>2026-04-19T14:34:53.012Z</time></trkpt><trkpt lat="45.812714295450725" lon="8.327481999006078"><ele>918.0</ele><time>2026-04-19T14:34:54.012Z</time></trkpt><trkpt lat="45.8126718796885" lon="8.327663786110902"><ele>919.0</ele><time>2026-04-19T14:34:55.012Z</time></trkpt><trkpt lat="45.812634741230575" lon="8.327856578672469"><ele>911.25</ele><time>2026-04-19T14:34:56.012Z</time></trkpt><trkpt lat="45.81260348046924" lon="8.328042897540254"><ele>903.5</ele><time>2026-04-19T14:34:57.012Z</time></trkpt><trkpt lat="45.81257575598972" lon="8.32821902231341"><ele>895.75</ele><time>2026-04-19T14:34:58.012Z</time></trkpt><trkpt lat="45.812551613662464" lon="8.328376413398514"><ele>888.0</ele><time>2026-04-19T14:34:59.012Z</time></trkpt><trkpt lat="45.81253501314686" lon="8.32850940320733"><ele>889.5999999999999</ele><time>2026-04-19T14:35:00.012Z</time></trkpt><trkpt lat="45.812527479714475" lon="8.328626069532962"><ele>891.1999999999999</ele><time>2026-04-19T14:35:01.012Z</time></trkpt><trkpt lat="45.81253653915268" lon="8.328731041360339"><ele>892.8</ele><time>2026-04-19T14:35:02.012Z</time></trkpt><trkpt lat="45.812563131247344" lon="8.328862546244622"><ele>894.4</ele><time>2026-04-19T14:35:03.012Z</time></trkpt><trkpt lat="45.812612970190315" lon="8.328997541083544"><ele>896.0</ele><time>2026-04-19T14:35:04.009Z</time></trkpt><trkpt lat="45.812683951982315" lon="8.329132957965271"><ele>896.0</ele><time>2026-04-19T14:35:05.009Z</time></trkpt><trkpt lat="45.81275034631993" lon="8.329224625721695"><ele>895.9999999999999</ele><time>2026-04-19T14:35:06.009Z</time></trkpt><trkpt lat="45.8128405950227" lon="8.329286883072506"><ele>895.9999999999999</ele><time>2026-04-19T14:35:07.01Z</time></trkpt><trkpt lat="45.81290794131121" lon="8.329369162765946"><ele>896.0</ele><time>2026-04-19T14:35:08.009Z</time></trkpt><trkpt lat="45.81295350297041" lon="8.329467197210276"><ele>896.0</ele><time>2026-04-19T14:35:09.009Z</time></trkpt><trkpt lat="45.81298604050392" lon="8.329611811769826"><ele>893.1999999999999</ele><time>2026-04-19T14:35:10.009Z</time></trkpt><trkpt lat="45.812980497068175" lon="8.32976834806117"><ele>890.3999999999999</ele><time>2026-04-19T14:35:11.01Z</time></trkpt><trkpt lat="45.81295493396906" lon="8.329908420763028"><ele>887.6</ele><time>2026-04-19T14:35:12.01Z</time></trkpt><trkpt lat="45.81291033028439" lon="8.330059768683334"><ele>884.8</ele><time>2026-04-19T14:35:13.01Z</time></trkpt><trkpt lat="45.812883688492704" lon="8.330192533738476"><ele>882.0</ele><time>2026-04-19T14:35:14.009Z</time></trkpt><trkpt lat="45.81288209390658" lon="8.330356747878128"><ele>882.0</ele><time>2026-04-19T14:35:15.009Z</time></trkpt><trkpt lat="45.812917440045396" lon="8.330503675152336"><ele>882.0</ele><time>2026-04-19T14:35:16.01Z</time></trkpt><trkpt lat="45.81297068122968" lon="8.330600549922567"><ele>882.0</ele><time>2026-04-19T14:35:17.01Z</time></trkpt><trkpt lat="45.81303540976243" lon="8.330655653273137"><ele>882.0</ele><time>2026-04-19T14:35:18.01Z</time></trkpt><trkpt lat="45.8131201772359" lon="8.330674568030418"><ele>882.0</ele><time>2026-04-19T14:35:19.01Z</time></trkpt><trkpt lat="45.81320089933269" lon="8.330651077713645"><ele>882.0</ele><time>2026-04-19T14:35:20.01Z</time></trkpt><trkpt lat="45.81329977568681" lon="8.330598499900825"><ele>882.0</ele><time>2026-04-19T14:35:21.01Z</time></trkpt><trkpt lat="45.81340921432438" lon="8.330541044955654"><ele>882.0</ele><time>2026-04-19T14:35:22.01Z</time></trkpt><trkpt lat="45.8135233327103" lon="8.330508792939114"><ele>882.0</ele><time>2026-04-19T14:35:23.01Z</time></trkpt><trkpt lat="45.813643675282094" lon="8.33051247559578"><ele>882.0</ele><time>2026-04-19T14:35:24.01Z</time></trkpt><trkpt lat="45.813762269697406" lon="8.330497159161755"><ele>881.8</ele><time>2026-04-19T14:35:25.01Z</time></trkpt><trkpt lat="45.81385643340236" lon="8.330452023722284"><ele>881.6</ele><time>2026-04-19T14:35:26.01Z</time></trkpt><trkpt lat="45.813940619403354" lon="8.330342816439767"><ele>881.3999999999999</ele><time>2026-04-19T14:35:27.01Z</time></trkpt><trkpt lat="45.814012413589346" lon="8.33021726432139"><ele>881.1999999999999</ele><time>2026-04-19T14:35:28.01Z</time></trkpt><trkpt lat="45.814090228533374" lon="8.330123234862329"><ele>881.0</ele><time>2026-04-19T14:35:29.01Z</time></trkpt><trkpt lat="45.81417917051199" lon="8.330097002718215"><ele>881.0</ele><time>2026-04-19T14:35:30.01Z</time></trkpt><trkpt lat="45.81428090269495" lon="8.330114851920927"><ele>880.9999999999999</ele><time>2026-04-19T14:35:31.01Z</time></trkpt><trkpt lat="45.81437629281802" lon="8.330184133277209"><ele>880.9999999999999</ele><time>2026-04-19T14:35:32.01Z</time></trkpt><trkpt lat="45.81444261922921" lon="8.330282497837004"><ele>881.0</ele><time>2026-04-19T14:35:33.01Z</time></trkpt><trkpt lat="45.814505145803274" lon="8.330399958132709"><ele>881.0</ele><time>2026-04-19T14:35:34.01Z</time></trkpt><trkpt lat="45.814581004285145" lon="8.330523019708863"><ele>877.5</ele><time>2026-04-19T14:35:35.01Z</time></trkpt><trkpt lat="45.81467838821591" lon="8.330634259734266"><ele>874.0</ele><time>2026-04-19T14:35:36.01Z</time></trkpt><trkpt lat="45.8147877570361" lon="8.330734479154431"><ele>870.5</ele><time>2026-04-19T14:35:37.01Z</time></trkpt><trkpt lat="45.814900855552324" lon="8.33082076945461"><ele>867.0</ele><time>2026-04-19T14:35:38.01Z</time></trkpt><trkpt lat="45.81501051491919" lon="8.33090363701618"><ele>867.0</ele><time>2026-04-19T14:35:39.01Z</time></trkpt><trkpt lat="45.815123474533536" lon="8.330984767857311"><ele>867.0</ele><time>2026-04-19T14:35:40.01Z</time></trkpt><trkpt lat="45.81524088655024" lon="8.33108252741046"><ele>867.0</ele><time>2026-04-19T14:35:41.011Z</time></trkpt><trkpt lat="45.815353260614025" lon="8.331179669893029"><ele>867.0</ele><time>2026-04-19T14:35:42.011Z</time></trkpt><trkpt lat="45.81546714215614" lon="8.33127982144965"><ele>871.5</ele><time>2026-04-19T14:35:43.011Z</time></trkpt><trkpt lat="45.815581276959335" lon="8.331383669983447"><ele>876.0</ele><time>2026-04-19T14:35:44.011Z</time></trkpt><trkpt lat="45.815693779697966" lon="8.331477794504009"><ele>880.5</ele><time>2026-04-19T14:35:45.011Z</time></trkpt><trkpt lat="45.81579812607422" lon="8.331568476895116"><ele>885.0</ele><time>2026-04-19T14:35:46.011Z</time></trkpt><trkpt lat="45.815911013520946" lon="8.331631428387293"><ele>881.75</ele><time>2026-04-19T14:35:47.011Z</time></trkpt><trkpt lat="45.816026549070585" lon="8.331664871498125"><ele>878.5</ele><time>2026-04-19T14:35:48.011Z</time></trkpt><trkpt lat="45.81614240737533" lon="8.331668520752181"><ele>875.25</ele><time>2026-04-19T14:35:49.011Z</time></trkpt><trkpt lat="45.816263294687246" lon="8.33167030735512"><ele>872.0</ele><time>2026-04-19T14:35:50.011Z</time></trkpt><trkpt lat="45.81637721841893" lon="8.33168928425246"><ele>872.0</ele><time>2026-04-19T14:35:51.011Z</time></trkpt><trkpt lat="45.81647272445042" lon="8.331752487427472"><ele>872.0</ele><time>2026-04-19T14:35:52.011Z</time></trkpt><trkpt lat="45.81655071596047" lon="8.331851261674986"><ele>872.0</ele><time>2026-04-19T14:35:53.011Z</time></trkpt><trkpt lat="45.81660594687017" lon="8.331968397390227"><ele>872.0</ele><time>2026-04-19T14:35:54.011Z</time></trkpt><trkpt lat="45.81664886816597" lon="8.332108397836492"><ele>872.0</ele><time>2026-04-19T14:35:55.011Z</time></trkpt><trkpt lat="45.8166755674566" lon="8.332278814297874"><ele>866.75</ele><time>2026-04-19T14:35:56.011Z</time></trkpt><trkpt lat="45.81670006661796" lon="8.33246116769942"><ele>861.5</ele><time>2026-04-19T14:35:57.011Z</time></trkpt><trkpt lat="45.81672899583494" lon="8.33264560983304"><ele>856.25</ele><time>2026-04-19T14:35:58.011Z</time></trkpt><trkpt lat="45.81675518631259" lon="8.332816458138394"><ele>851.0</ele><time>2026-04-19T14:35:59.011Z</time></trkpt><trkpt lat="45.816778600920394" lon="8.332981890914315"><ele>848.0</ele><time>2026-04-19T14:36:00.011Z</time></trkpt><trkpt lat="45.81679489550525" lon="8.333146050343238"><ele>845.0</ele><time>2026-04-19T14:36:01.011Z</time></trkpt><trkpt lat="45.81678829205553" lon="8.333309400803008"><ele>842.0</ele><time>2026-04-19T14:36:02.011Z</time></trkpt><trkpt lat="45.81675235034077" lon="8.333462256203461"><ele>839.0</ele><time>2026-04-19T14:36:03.011Z</time></trkpt><trkpt lat="45.81668963147926" lon="8.333606634743083"><ele>839.0</ele><time>2026-04-19T14:36:04.011Z</time></trkpt><trkpt lat="45.81659800692161" lon="8.333743733364775"><ele>839.0</ele><time>2026-04-19T14:36:05.011Z</time></trkpt><trkpt lat="45.816516806946936" lon="8.333878817581983"><ele>839.0</ele><time>2026-04-19T14:36:06.011Z</time></trkpt><trkpt lat="45.81645097443693" lon="8.334009125837499"><ele>839.0</ele><time>2026-04-19T14:36:07.011Z</time></trkpt><trkpt lat="45.8164131730098" lon="8.33415627007086"><ele>838.0</ele><time>2026-04-19T14:36:08.011Z</time></trkpt><trkpt lat="45.81642539783831" lon="8.334301697370924"><ele>837.0</ele><time>2026-04-19T14:36:09.011Z</time></trkpt><trkpt lat="45.81646978160618" lon="8.33442309820826"><ele>836.0</ele><time>2026-04-19T14:36:10.011Z</time></trkpt><trkpt lat="45.81654986429191" lon="8.334525894360459"><ele>835.0</ele><time>2026-04-19T14:36:11.011Z</time></trkpt><trkpt lat="45.8166413767205" lon="8.334610400808518"><ele>834.0</ele><time>2026-04-19T14:36:12.011Z</time></trkpt><trkpt lat="45.81675583165964" lon="8.334664925427676"><ele>834.0</ele><time>2026-04-19T14:36:13.011Z</time></trkpt><trkpt lat="45.81688096267905" lon="8.334709340218621"><ele>834.0</ele><time>2026-04-19T14:36:14.012Z</time></trkpt><trkpt lat="45.817016604725076" lon="8.334764491131764"><ele>834.0</ele><time>2026-04-19T14:36:15.012Z</time></trkpt><trkpt lat="45.81714716319996" lon="8.334830894201358"><ele>834.0</ele><time>2026-04-19T14:36:16.012Z</time></trkpt><trkpt lat="45.81727754683922" lon="8.334888349840718"><ele>831.2</ele><time>2026-04-19T14:36:17.012Z</time></trkpt><trkpt lat="45.81740320949984" lon="8.334940239837241"><ele>828.4000000000001</ele><time>2026-04-19T14:36:18.012Z</time></trkpt><trkpt lat="45.817519154027195" lon="8.334973879406505"><ele>825.6</ele><time>2026-04-19T14:36:19.012Z</time></trkpt><trkpt lat="45.81760582268116" lon="8.33497849075159"><ele>822.8</ele><time>2026-04-19T14:36:20.012Z</time></trkpt><trkpt lat="45.8176726973289" lon="8.334928958226396"><ele>820.0</ele><time>2026-04-19T14:36:21.012Z</time></trkpt><trkpt lat="45.81772050880304" lon="8.334830563918029"><ele>820.6</ele><time>2026-04-19T14:36:22.012Z</time></trkpt><trkpt lat="45.81776753018157" lon="8.334703998411584"><ele>821.2</ele><time>2026-04-19T14:36:23.012Z</time></trkpt><trkpt lat="45.817823137900895" lon="8.334571468858902"><ele>821.8</ele><time>2026-04-19T14:36:24.012Z</time></trkpt><trkpt lat="45.817887115342224" lon="8.334466913001288"><ele>822.4</ele><time>2026-04-19T14:36:25.012Z</time></trkpt><trkpt lat="45.817960944826545" lon="8.33440255215787"><ele>823.0</ele><time>2026-04-19T14:36:26.012Z</time></trkpt><trkpt lat="45.81804147373899" lon="8.334396174187182"><ele>823.0</ele><time>2026-04-19T14:36:27.012Z</time></trkpt><trkpt lat="45.8181143711128" lon="8.334422213856076"><ele>823.0</ele><time>2026-04-19T14:36:28.012Z</time></trkpt><trkpt lat="45.818192348256765" lon="8.334455380965025"><ele>823.0</ele><time>2026-04-19T14:36:29.012Z</time></trkpt><trkpt lat="45.81832012169226" lon="8.33450717991551"><ele>823.0</ele><time>2026-04-19T14:36:31.012Z</time></trkpt><trkpt lat="45.818376800327286" lon="8.334601298880674"><ele>823.0</ele><time>2026-04-19T14:36:32.012Z</time></trkpt><trkpt lat="45.81840645913594" lon="8.334718806362554"><ele>822.25</ele><time>2026-04-19T14:36:33.012Z</time></trkpt><trkpt lat="45.818419952737266" lon="8.334869680680738"><ele>821.5</ele><time>2026-04-19T14:36:34.012Z</time></trkpt><trkpt lat="45.81843962255708" lon="8.335032378143218"><ele>820.75</ele><time>2026-04-19T14:36:35.012Z</time></trkpt><trkpt lat="45.818474598358655" lon="8.335190859433586"><ele>820.0</ele><time>2026-04-19T14:36:36.012Z</time></trkpt><trkpt lat="45.81850778077488" lon="8.335362361133773"><ele>829.5</ele><time>2026-04-19T14:36:37.012Z</time></trkpt><trkpt lat="45.818542016963676" lon="8.33553927298735"><ele>839.0</ele><time>2026-04-19T14:36:38.012Z</time></trkpt><trkpt lat="45.818565073501595" lon="8.335717293285485"><ele>848.5</ele><time>2026-04-19T14:36:39.012Z</time></trkpt><trkpt lat="45.81857534113372" lon="8.33589124385707"><ele>858.0</ele><time>2026-04-19T14:36:40.012Z</time></trkpt><trkpt lat="45.818559109330394" lon="8.336045488859856"><ele>859.0</ele><time>2026-04-19T14:36:41.012Z</time></trkpt><trkpt lat="45.81851725886066" lon="8.336191439817961"><ele>860.0</ele><time>2026-04-19T14:36:42.012Z</time></trkpt><trkpt lat="45.818443690271565" lon="8.336324128993834"><ele>861.0</ele><time>2026-04-19T14:36:43.012Z</time></trkpt><trkpt lat="45.81834598423004" lon="8.336440439020247"><ele>862.0</ele><time>2026-04-19T14:36:44.012Z</time></trkpt><trkpt lat="45.81824645428082" lon="8.336552068435536"><ele>854.5</ele><time>2026-04-19T14:36:45.012Z</time></trkpt><trkpt lat="45.818145944693335" lon="8.336683408339054"><ele>847.0</ele><time>2026-04-19T14:36:46.012Z</time></trkpt><trkpt lat="45.81804592906788" lon="8.33680616656523"><ele>839.5</ele><time>2026-04-19T14:36:47.012Z</time></trkpt><trkpt lat="45.81795536619079" lon="8.336926973833991"><ele>832.0</ele><time>2026-04-19T14:36:48.013Z</time></trkpt><trkpt lat="45.81786674497397" lon="8.337044211331394"><ele>832.0</ele><time>2026-04-19T14:36:49.013Z</time></trkpt><trkpt lat="45.817779827125705" lon="8.337144715853396"><ele>832.0</ele><time>2026-04-19T14:36:50.013Z</time></trkpt><trkpt lat="45.81768862540717" lon="8.33720857110819"><ele>832.0</ele><time>2026-04-19T14:36:51.013Z</time></trkpt><trkpt lat="45.81759872026402" lon="8.337226607136147"><ele>832.0</ele><time>2026-04-19T14:36:52.013Z</time></trkpt><trkpt lat="45.81750774539967" lon="8.337186708150895"><ele>832.0</ele><time>2026-04-19T14:36:53.013Z</time></trkpt><trkpt lat="45.81742633333091" lon="8.337102558216593"><ele>827.0</ele><time>2026-04-19T14:36:54.013Z</time></trkpt><trkpt lat="45.81735224905552" lon="8.337016603366568"><ele>822.0</ele><time>2026-04-19T14:36:55.013Z</time></trkpt><trkpt lat="45.81726304907965" lon="8.336967151518333"><ele>817.0</ele><time>2026-04-19T14:36:56.013Z</time></trkpt><trkpt lat="45.81715623026905" lon="8.336968962459078"><ele>812.0</ele><time>2026-04-19T14:36:57.013Z</time></trkpt><trkpt lat="45.81704236063488" lon="8.337005921667343"><ele>807.0</ele><time>2026-04-19T14:36:58.013Z</time></trkpt><trkpt lat="45.816927927305876" lon="8.337065711205998"><ele>803.75</ele><time>2026-04-19T14:36:59.013Z</time></trkpt><trkpt lat="45.81680580585868" lon="8.337134429407605"><ele>800.5</ele><time>2026-04-19T14:37:00.013Z</time></trkpt><trkpt lat="45.816678835509315" lon="8.337204724066567"><ele>797.25</ele><time>2026-04-19T14:37:01.013Z</time></trkpt><trkpt lat="45.816545970758874" lon="8.337278132804721"><ele>794.0</ele><time>2026-04-19T14:37:02.013Z</time></trkpt><trkpt lat="45.81641276449437" lon="8.337349613061676"><ele>797.25</ele><time>2026-04-19T14:37:03.013Z</time></trkpt><trkpt lat="45.81628602577372" lon="8.337425866569625"><ele>800.5</ele><time>2026-04-19T14:37:04.013Z</time></trkpt><trkpt lat="45.816162799152465" lon="8.33750601980789"><ele>803.75</ele><time>2026-04-19T14:37:05.013Z</time></trkpt><trkpt lat="45.81604808605029" lon="8.337581523678217"><ele>807.0</ele><time>2026-04-19T14:37:06.013Z</time></trkpt><trkpt lat="45.81595204780953" lon="8.337649082457508"><ele>807.0</ele><time>2026-04-19T14:37:07.013Z</time></trkpt><trkpt lat="45.81588932325198" lon="8.337747794991893"><ele>807.0</ele><time>2026-04-19T14:37:08.013Z</time></trkpt><trkpt lat="45.81586241603745" lon="8.337867389327082"><ele>807.0</ele><time>2026-04-19T14:37:09.013Z</time></trkpt><trkpt lat="45.81586505698646" lon="8.338011832464188"><ele>807.0</ele><time>2026-04-19T14:37:10.01Z</time></trkpt><trkpt lat="45.815888966281236" lon="8.338174532062668"><ele>807.0</ele><time>2026-04-19T14:37:11.01Z</time></trkpt><trkpt lat="45.81592039383421" lon="8.338340577317839"><ele>809.6</ele><time>2026-04-19T14:37:12.01Z</time></trkpt><trkpt lat="45.81594110229874" lon="8.33848534426478"><ele>812.2</ele><time>2026-04-19T14:37:13.01Z</time></trkpt><trkpt lat="45.81595401138974" lon="8.338619627372367"><ele>814.8</ele><time>2026-04-19T14:37:14.01Z</time></trkpt><trkpt lat="45.81593602460479" lon="8.338748968796722"><ele>817.4</ele><time>2026-04-19T14:37:15.01Z</time></trkpt><trkpt lat="45.81591300271521" lon="8.338852306117136"><ele>820.0</ele><time>2026-04-19T14:37:16.01Z</time></trkpt><trkpt lat="45.81584049688964" lon="8.338953018379359"><ele>822.75</ele><time>2026-04-19T14:37:17.011Z</time></trkpt><trkpt lat="45.81573352161227" lon="8.339037677324582"><ele>825.5</ele><time>2026-04-19T14:37:18.011Z</time></trkpt><trkpt lat="45.81562091915333" lon="8.339085296707935"><ele>828.25</ele><time>2026-04-19T14:37:19.011Z</time></trkpt><trkpt lat="45.81550029320479" lon="8.339111559753558"><ele>831.0</ele><time>2026-04-19T14:37:20.01Z</time></trkpt><trkpt lat="45.815382012758576" lon="8.3391318474416"><ele>831.0</ele><time>2026-04-19T14:37:21.01Z</time></trkpt><trkpt lat="45.81526820825467" lon="8.339173211857549"><ele>831.0</ele><time>2026-04-19T14:37:22.01Z</time></trkpt><trkpt lat="45.81516329731127" lon="8.339212313148899"><ele>831.0</ele><time>2026-04-19T14:37:23.011Z</time></trkpt><trkpt lat="45.81506729388353" lon="8.339248210209302"><ele>831.0</ele><time>2026-04-19T14:37:24.011Z</time></trkpt><trkpt lat="45.81497311840625" lon="8.339272896236881"><ele>831.0</ele><time>2026-04-19T14:37:25.011Z</time></trkpt><trkpt lat="45.81487870500898" lon="8.339298583019922"><ele>828.8333333333334</ele><time>2026-04-19T14:37:26.011Z</time></trkpt><trkpt lat="45.814783842620784" lon="8.339331650410273"><ele>826.6666666666667</ele><time>2026-04-19T14:37:27.011Z</time></trkpt><trkpt lat="45.81469895783263" lon="8.339369994506558"><ele>824.5</ele><time>2026-04-19T14:37:28.011Z</time></trkpt><trkpt lat="45.814611689155534" lon="8.339398538396816"><ele>822.3333333333334</ele><time>2026-04-19T14:37:29.011Z</time></trkpt><trkpt lat="45.814527138496985" lon="8.339431153827265"><ele>820.1666666666667</ele><time>2026-04-19T14:37:30.011Z</time></trkpt><trkpt lat="45.81444836067961" lon="8.339469398926626"><ele>818.0</ele><time>2026-04-19T14:37:31.011Z</time></trkpt><trkpt lat="45.814378028725585" lon="8.339518882484546"><ele>819.1666666666667</ele><time>2026-04-19T14:37:32.011Z</time></trkpt><trkpt lat="45.814316506003735" lon="8.339601141795397"><ele>820.3333333333334</ele><time>2026-04-19T14:37:33.011Z</time></trkpt><trkpt lat="45.81425766831631" lon="8.339695327778351"><ele>821.5</ele><time>2026-04-19T14:37:34.011Z</time></trkpt><trkpt lat="45.81420601890809" lon="8.339799714559286"><ele>822.6666666666667</ele><time>2026-04-19T14:37:35.011Z</time></trkpt><trkpt lat="45.81415240050816" lon="8.339907077056763"><ele>823.8333333333334</ele><time>2026-04-19T14:37:36.011Z</time></trkpt><trkpt lat="45.814075373159895" lon="8.339986728802232"><ele>825.0</ele><time>2026-04-19T14:37:37.011Z</time></trkpt><trkpt lat="45.81397748018749" lon="8.34002461284952"><ele>825.0</ele><time>2026-04-19T14:37:38.011Z</time></trkpt><trkpt lat="45.8138652993869" lon="8.34002813572984"><ele>825.0</ele><time>2026-04-19T14:37:39.011Z</time></trkpt><trkpt lat="45.81374312782188" lon="8.340018802649938"><ele>825.0</ele><time>2026-04-19T14:37:40.011Z</time></trkpt><trkpt lat="45.813612130190315" lon="8.339992772137736"><ele>825.0</ele><time>2026-04-19T14:37:41.011Z</time></trkpt><trkpt lat="45.813472508566754" lon="8.339948066398673"><ele>822.3333333333333</ele><time>2026-04-19T14:37:42.011Z</time></trkpt><trkpt lat="45.81332218542656" lon="8.339874896813294"><ele>819.6666666666666</ele><time>2026-04-19T14:37:43.011Z</time></trkpt><trkpt lat="45.81317087949377" lon="8.339795820896834"><ele>817.0</ele><time>2026-04-19T14:37:44.011Z</time></trkpt><trkpt lat="45.81302607291173" lon="8.339722297941414"><ele>810.75</ele><time>2026-04-19T14:37:45.011Z</time></trkpt><trkpt lat="45.8128874243741" lon="8.33964397301089"><ele>804.5</ele><time>2026-04-19T14:37:46.011Z</time></trkpt><trkpt lat="45.812751885216684" lon="8.339578325085732"><ele>798.25</ele><time>2026-04-19T14:37:47.011Z</time></trkpt><trkpt lat="45.81262144853933" lon="8.33952079743489"><ele>792.0</ele><time>2026-04-19T14:37:48.011Z</time></trkpt><trkpt lat="45.812495433429696" lon="8.339469818538674"><ele>792.0</ele><time>2026-04-19T14:37:49.011Z</time></trkpt><trkpt lat="45.8123746706435" lon="8.339412307340886"><ele>792.0</ele><time>2026-04-19T14:37:50.012Z</time></trkpt><trkpt lat="45.81225956049978" lon="8.339384480470986"><ele>792.0</ele><time>2026-04-19T14:37:51.012Z</time></trkpt><trkpt lat="45.81215211841233" lon="8.339401129833591"><ele>792.0</ele><time>2026-04-19T14:37:52.012Z</time></trkpt><trkpt lat="45.81206198713793" lon="8.339475048958601"><ele>792.0</ele><time>2026-04-19T14:37:53.012Z</time></trkpt><trkpt lat="45.81200016790229" lon="8.339585198457014"><ele>792.0</ele><time>2026-04-19T14:37:54.012Z</time></trkpt><trkpt lat="45.81196836444759" lon="8.33972592184773"><ele>792.0</ele><time>2026-04-19T14:37:55.012Z</time></trkpt><trkpt lat="45.81196295346358" lon="8.339884270735535"><ele>792.0</ele><time>2026-04-19T14:37:56.012Z</time></trkpt><trkpt lat="45.81197921660144" lon="8.340055373710545"><ele>792.0</ele><time>2026-04-19T14:37:57.012Z</time></trkpt><trkpt lat="45.811996523019644" lon="8.340245027614287"><ele>796.75</ele><time>2026-04-19T14:37:58.012Z</time></trkpt><trkpt lat="45.812005480832376" lon="8.340429722398891"><ele>801.5</ele><time>2026-04-19T14:37:59.012Z</time></trkpt><trkpt lat="45.81199175349092" lon="8.340603852736237"><ele>806.25</ele><time>2026-04-19T14:38:00.012Z</time></trkpt><trkpt lat="45.81194474587186" lon="8.340768073148254"><ele>811.0</ele><time>2026-04-19T14:38:01.012Z</time></trkpt><trkpt lat="45.81187202571911" lon="8.340900885093996"><ele>806.5</ele><time>2026-04-19T14:38:02.012Z</time></trkpt><trkpt lat="45.811785429123795" lon="8.340981967236065"><ele>802.0</ele><time>2026-04-19T14:38:03.012Z</time></trkpt><trkpt lat="45.811680009094005" lon="8.341052182715377"><ele>797.5</ele><time>2026-04-19T14:38:04.012Z</time></trkpt><trkpt lat="45.81156819470356" lon="8.341125661281614"><ele>793.0</ele><time>2026-04-19T14:38:05.012Z</time></trkpt><trkpt lat="45.81144939125415" lon="8.341186804051429"><ele>793.0</ele><time>2026-04-19T14:38:06.012Z</time></trkpt><trkpt lat="45.81133273727332" lon="8.341268137302162"><ele>793.0</ele><time>2026-04-19T14:38:07.012Z</time></trkpt><trkpt lat="45.81120935783707" lon="8.34134585398242"><ele>793.0</ele><time>2026-04-19T14:38:08.012Z</time></trkpt><trkpt lat="45.811083727004586" lon="8.341427305186972"><ele>793.0</ele><time>2026-04-19T14:38:09.012Z</time></trkpt><trkpt lat="45.810960891463374" lon="8.34150592396749"><ele>792.25</ele><time>2026-04-19T14:38:10.012Z</time></trkpt><trkpt lat="45.810841813518856" lon="8.341583379309668"><ele>791.5</ele><time>2026-04-19T14:38:11.012Z</time></trkpt><trkpt lat="45.81073642473481" lon="8.34166977990242"><ele>790.75</ele><time>2026-04-19T14:38:12.012Z</time></trkpt><trkpt lat="45.81066437364718" lon="8.34178287461987"><ele>790.0</ele><time>2026-04-19T14:38:13.012Z</time></trkpt><trkpt lat="45.810624511132545" lon="8.341914866513905"><ele>790.0</ele><time>2026-04-19T14:38:14.012Z</time></trkpt><trkpt lat="45.81062270533822" lon="8.342061464571376"><ele>790.0</ele><time>2026-04-19T14:38:15.012Z</time></trkpt><trkpt lat="45.81064423878773" lon="8.342213974485432"><ele>790.0</ele><time>2026-04-19T14:38:16.012Z</time></trkpt><trkpt lat="45.81069778893921" lon="8.342350580520518"><ele>790.0</ele><time>2026-04-19T14:38:17.012Z</time></trkpt><trkpt lat="45.81077327871482" lon="8.342478808410817"><ele>790.0</ele><time>2026-04-19T14:38:18.012Z</time></trkpt><trkpt lat="45.81086203183035" lon="8.342603944209559"><ele>790.25</ele><time>2026-04-19T14:38:19.012Z</time></trkpt><trkpt lat="45.81096165201253" lon="8.342730888468791"><ele>790.5</ele><time>2026-04-19T14:38:20.012Z</time></trkpt><trkpt lat="45.81105715613007" lon="8.342868075780995"><ele>790.75</ele><time>2026-04-19T14:38:21.012Z</time></trkpt><trkpt lat="45.811157766834015" lon="8.343004774333018"><ele>791.0</ele><time>2026-04-19T14:38:22.012Z</time></trkpt><trkpt lat="45.81125092034264" lon="8.343136876055818"><ele>791.0</ele><time>2026-04-19T14:38:23.012Z</time></trkpt><trkpt lat="45.81133405168673" lon="8.343276662960264"><ele>791.0</ele><time>2026-04-19T14:38:24.013Z</time></trkpt><trkpt lat="45.81141528872757" lon="8.343404003568683"><ele>791.0</ele><time>2026-04-19T14:38:25.013Z</time></trkpt><trkpt lat="45.811499503821395" lon="8.343525116876496"><ele>791.0</ele><time>2026-04-19T14:38:26.013Z</time></trkpt><trkpt lat="45.81157786639442" lon="8.34364805676306"><ele>791.0</ele><time>2026-04-19T14:38:27.013Z</time></trkpt><trkpt lat="45.81163541662121" lon="8.343793942250679"><ele>791.0</ele><time>2026-04-19T14:38:28.013Z</time></trkpt><trkpt lat="45.81166014443132" lon="8.343949241904935"><ele>791.0</ele><time>2026-04-19T14:38:29.013Z</time></trkpt><trkpt lat="45.8116591805039" lon="8.34410154639646"><ele>791.0</ele><time>2026-04-19T14:38:30.013Z</time></trkpt><trkpt lat="45.811619228412795" lon="8.344247219664954"><ele>791.0</ele><time>2026-04-19T14:38:31.013Z</time></trkpt><trkpt lat="45.811558673657444" lon="8.344373491824093"><ele>790.0</ele><time>2026-04-19T14:38:32.013Z</time></trkpt><trkpt lat="45.81147179087038" lon="8.344497532670834"><ele>789.0</ele><time>2026-04-19T14:38:33.013Z</time></trkpt><trkpt lat="45.81137035163197" lon="8.344615276552036"><ele>788.0</ele><time>2026-04-19T14:38:34.013Z</time></trkpt><trkpt lat="45.81125754693254" lon="8.344734605111316"><ele>787.0</ele><time>2026-04-19T14:38:35.013Z</time></trkpt><trkpt lat="45.81113883831031" lon="8.344852705719351"><ele>787.0</ele><time>2026-04-19T14:38:36.013Z</time></trkpt><trkpt lat="45.811024409246244" lon="8.344975638166174"><ele>787.0</ele><time>2026-04-19T14:38:37.013Z</time></trkpt><trkpt lat="45.81090749941074" lon="8.345092497234834"><ele>787.0</ele><time>2026-04-19T14:38:38.013Z</time></trkpt><trkpt lat="45.81079478278036" lon="8.345209713973563"><ele>787.0</ele><time>2026-04-19T14:38:39.013Z</time></trkpt><trkpt lat="45.81068973459925" lon="8.345318284516026"><ele>781.75</ele><time>2026-04-19T14:38:40.013Z</time></trkpt><trkpt lat="45.81060944526039" lon="8.3454494025976"><ele>776.5</ele><time>2026-04-19T14:38:41.013Z</time></trkpt><trkpt lat="45.810553793176396" lon="8.345598737726277"><ele>771.25</ele><time>2026-04-19T14:38:42.013Z</time></trkpt><trkpt lat="45.81052951340649" lon="8.345762273394307"><ele>766.0</ele><time>2026-04-19T14:38:43.013Z</time></trkpt><trkpt lat="45.81054186183392" lon="8.345922090743132"><ele>766.0</ele><time>2026-04-19T14:38:44.013Z</time></trkpt><trkpt lat="45.81058094501941" lon="8.346078183781087"><ele>766.0</ele><time>2026-04-19T14:38:45.013Z</time></trkpt><trkpt lat="45.81065284798696" lon="8.346224112384759"><ele>766.0</ele><time>2026-04-19T14:38:46.013Z</time></trkpt><trkpt lat="45.81072917923179" lon="8.346354555643723"><ele>766.0</ele><time>2026-04-19T14:38:47.013Z</time></trkpt><trkpt lat="45.810782991380215" lon="8.346492313745918"><ele>764.0</ele><time>2026-04-19T14:38:48.013Z</time></trkpt><trkpt lat="45.810806804472406" lon="8.34664711682563"><ele>762.0</ele><time>2026-04-19T14:38:49.013Z</time></trkpt><trkpt lat="45.810808426066004" lon="8.346811278163"><ele>760.0</ele><time>2026-04-19T14:38:50.013Z</time></trkpt><trkpt lat="45.81077375175286" lon="8.346990867592345"><ele>758.0</ele><time>2026-04-19T14:38:51.013Z</time></trkpt><trkpt lat="45.81072105855746" lon="8.347168869466625"><ele>758.5</ele><time>2026-04-19T14:38:52.013Z</time></trkpt><trkpt lat="45.8106857013055" lon="8.347344464562372"><ele>759.0</ele><time>2026-04-19T14:38:53.013Z</time></trkpt><trkpt lat="45.810635817274886" lon="8.347521493068273"><ele>759.5</ele><time>2026-04-19T14:38:54.013Z</time></trkpt><trkpt lat="45.810562435366535" lon="8.347683597744437"><ele>760.0</ele><time>2026-04-19T14:38:55.013Z</time></trkpt><trkpt lat="45.81048192980231" lon="8.347832689999025"><ele>760.0</ele><time>2026-04-19T14:38:56.013Z</time></trkpt><trkpt lat="45.810405372726024" lon="8.347978816801303"><ele>760.0</ele><time>2026-04-19T14:38:57.014Z</time></trkpt><trkpt lat="45.810336686749956" lon="8.348112703611305"><ele>760.0</ele><time>2026-04-19T14:38:58.014Z</time></trkpt><trkpt lat="45.81027184652669" lon="8.348241748057788"><ele>760.0</ele><time>2026-04-19T14:38:59.014Z</time></trkpt><trkpt lat="45.81023252355594" lon="8.348378315583313"><ele>761.0</ele><time>2026-04-19T14:39:00.014Z</time></trkpt><trkpt lat="45.81021539406723" lon="8.348534682062068"><ele>762.0</ele><time>2026-04-19T14:39:01.014Z</time></trkpt><trkpt lat="45.81023376944156" lon="8.348684055683192"><ele>763.0</ele><time>2026-04-19T14:39:02.014Z</time></trkpt><trkpt lat="45.81028656665339" lon="8.348823381836166"><ele>764.0</ele><time>2026-04-19T14:39:03.014Z</time></trkpt><trkpt lat="45.81036937282893" lon="8.34893150760276"><ele>765.0</ele><time>2026-04-19T14:39:04.014Z</time></trkpt><trkpt lat="45.81048050551748" lon="8.348993834789884"><ele>759.5</ele><time>2026-04-19T14:39:05.014Z</time></trkpt><trkpt lat="45.81060755939816" lon="8.349029531303458"><ele>754.0</ele><time>2026-04-19T14:39:06.014Z</time></trkpt><trkpt lat="45.81074007572801" lon="8.349079666390576"><ele>748.5</ele><time>2026-04-19T14:39:07.014Z</time></trkpt><trkpt lat="45.81087466481755" lon="8.349136380367774"><ele>743.0</ele><time>2026-04-19T14:39:08.014Z</time></trkpt><trkpt lat="45.811003268486665" lon="8.349184945375258"><ele>743.0</ele><time>2026-04-19T14:39:09.014Z</time></trkpt><trkpt lat="45.81112713137474" lon="8.349237702062862"><ele>743.0</ele><time>2026-04-19T14:39:10.014Z</time></trkpt><trkpt lat="45.81122625035281" lon="8.349309054389778"><ele>743.0</ele><time>2026-04-19T14:39:11.014Z</time></trkpt><trkpt lat="45.81129014594904" lon="8.34940893717141"><ele>743.0</ele><time>2026-04-19T14:39:12.014Z</time></trkpt><trkpt lat="45.811325914839564" lon="8.349524122242705"><ele>743.0</ele><time>2026-04-19T14:39:13.014Z</time></trkpt><trkpt lat="45.811338986595516" lon="8.34966113125233"><ele>741.1666666666666</ele><time>2026-04-19T14:39:14.014Z</time></trkpt><trkpt lat="45.81136030437321" lon="8.349794216708453"><ele>739.3333333333333</ele><time>2026-04-19T14:39:15.014Z</time></trkpt><trkpt lat="45.81139408504863" lon="8.349930346429854"><ele>737.5</ele><time>2026-04-19T14:39:16.011Z</time></trkpt><trkpt lat="45.81142083103867" lon="8.350059664233703"><ele>735.6666666666666</ele><time>2026-04-19T14:39:17.012Z</time></trkpt><trkpt lat="45.81144606553044" lon="8.35017532795725"><ele>733.8333333333334</ele><time>2026-04-19T14:39:18.012Z</time></trkpt><trkpt lat="45.811461134482634" lon="8.350275727731743"><ele>732.0</ele><time>2026-04-19T14:39:19.011Z</time></trkpt><trkpt lat="45.8113858094397" lon="8.35043705393514"><ele>732.0</ele><time>2026-04-19T14:39:21.011Z</time></trkpt><trkpt lat="45.81130974846416" lon="8.350509285375418"><ele>732.0</ele><time>2026-04-19T14:39:22.011Z</time></trkpt><trkpt lat="45.811223717630504" lon="8.350578221508087"><ele>732.0</ele><time>2026-04-19T14:39:23.012Z</time></trkpt><trkpt lat="45.81112280665222" lon="8.350653332621441"><ele>732.0</ele><time>2026-04-19T14:39:24.012Z</time></trkpt><trkpt lat="45.81103270159252" lon="8.350727134000962"><ele>732.0</ele><time>2026-04-19T14:39:25.012Z</time></trkpt><trkpt lat="45.810943193347086" lon="8.350797813317065"><ele>732.1666666666666</ele><time>2026-04-19T14:39:26.011Z</time></trkpt><trkpt lat="45.81086009320681" lon="8.350873421421419"><ele>732.3333333333334</ele><time>2026-04-19T14:39:27.011Z</time></trkpt><trkpt lat="45.810787531765236" lon="8.350951432786408"><ele>732.5</ele><time>2026-04-19T14:39:28.012Z</time></trkpt><trkpt lat="45.81075409713388" lon="8.351053598638366"><ele>732.6666666666667</ele><time>2026-04-19T14:39:29.012Z</time></trkpt><trkpt lat="45.810746840901224" lon="8.35116774127497"><ele>732.8333333333334</ele><time>2026-04-19T14:39:30.012Z</time></trkpt><trkpt lat="45.81076271836376" lon="8.351300695251565"><ele>733.0</ele><time>2026-04-19T14:39:31.012Z</time></trkpt><trkpt lat="45.81079458628861" lon="8.351433857136207"><ele>733.0</ele><time>2026-04-19T14:39:32.012Z</time></trkpt><trkpt lat="45.81080794732468" lon="8.35156664287315"><ele>733.0</ele><time>2026-04-19T14:39:33.012Z</time></trkpt><trkpt lat="45.81079227325117" lon="8.351688670377214"><ele>733.0</ele><time>2026-04-19T14:39:34.012Z</time></trkpt><trkpt lat="45.81074988166843" lon="8.351793096255301"><ele>733.0</ele><time>2026-04-19T14:39:35.012Z</time></trkpt><trkpt lat="45.81067986733722" lon="8.351887446534066"><ele>733.0</ele><time>2026-04-19T14:39:36.012Z</time></trkpt><trkpt lat="45.810594046881576" lon="8.351968852650774"><ele>733.0</ele><time>2026-04-19T14:39:37.012Z</time></trkpt><trkpt lat="45.81050347812889" lon="8.352066600211264"><ele>733.0</ele><time>2026-04-19T14:39:38.012Z</time></trkpt><trkpt lat="45.81041876653842" lon="8.352185601039087"><ele>733.0</ele><time>2026-04-19T14:39:39.012Z</time></trkpt><trkpt lat="45.81033797023602" lon="8.352323100322232"><ele>733.0</ele><time>2026-04-19T14:39:40.012Z</time></trkpt><trkpt lat="45.810254272193276" lon="8.352458242966634"><ele>735.5</ele><time>2026-04-19T14:39:41.012Z</time></trkpt><trkpt lat="45.81017867170705" lon="8.352584982591138"><ele>738.0</ele><time>2026-04-19T14:39:42.012Z</time></trkpt><trkpt lat="45.810099817802616" lon="8.352713199632616"><ele>740.5</ele><time>2026-04-19T14:39:43.012Z</time></trkpt><trkpt lat="45.810030029230546" lon="8.352844314305713"><ele>743.0</ele><time>2026-04-19T14:39:44.012Z</time></trkpt><trkpt lat="45.80996881243196" lon="8.352979462602256"><ele>734.75</ele><time>2026-04-19T14:39:45.012Z</time></trkpt><trkpt lat="45.80993581381001" lon="8.353134635459467"><ele>726.5</ele><time>2026-04-19T14:39:46.012Z</time></trkpt><trkpt lat="45.80992789534624" lon="8.353305049976013"><ele>718.25</ele><time>2026-04-19T14:39:47.012Z</time></trkpt><trkpt lat="45.809923878472915" lon="8.35348799088893"><ele>710.0</ele><time>2026-04-19T14:39:48.012Z</time></trkpt><trkpt lat="45.809915921637305" lon="8.353678494911556"><ele>710.0</ele><time>2026-04-19T14:39:49.012Z</time></trkpt><trkpt lat="45.809904893122265" lon="8.353867223669166"><ele>710.0</ele><time>2026-04-19T14:39:50.012Z</time></trkpt><trkpt lat="45.809895409195704" lon="8.354058248124472"><ele>710.0</ele><time>2026-04-19T14:39:51.012Z</time></trkpt><trkpt lat="45.80988506824007" lon="8.354249355714437"><ele>710.0</ele><time>2026-04-19T14:39:52.012Z</time></trkpt><trkpt lat="45.80987597942314" lon="8.354437619400809"><ele>710.5</ele><time>2026-04-19T14:39:53.013Z</time></trkpt><trkpt lat="45.80985607460306" lon="8.35461829002094"><ele>711.0</ele><time>2026-04-19T14:39:54.013Z</time></trkpt><trkpt lat="45.809844042967825" lon="8.354794220787287"><ele>711.5</ele><time>2026-04-19T14:39:55.013Z</time></trkpt><trkpt lat="45.809815573965146" lon="8.354959543489404"><ele>712.0</ele><time>2026-04-19T14:39:56.013Z</time></trkpt><trkpt lat="45.809763064635135" lon="8.355107043713224"><ele>712.25</ele><time>2026-04-19T14:39:57.013Z</time></trkpt><trkpt lat="45.80969835708451" lon="8.355245641350859"><ele>712.5</ele><time>2026-04-19T14:39:58.013Z</time></trkpt><trkpt lat="45.80962856026177" lon="8.355381934919073"><ele>712.75</ele><time>2026-04-19T14:39:59.013Z</time></trkpt><trkpt lat="45.809551455551855" lon="8.355509823973037"><ele>713.0</ele><time>2026-04-19T14:40:00.013Z</time></trkpt><trkpt lat="45.80948268391767" lon="8.355640278610528"><ele>714.5</ele><time>2026-04-19T14:40:01.013Z</time></trkpt><trkpt lat="45.809418738955635" lon="8.3557765284426"><ele>716.0</ele><time>2026-04-19T14:40:02.013Z</time></trkpt><trkpt lat="45.80936695409129" lon="8.355911753486442"><ele>717.5</ele><time>2026-04-19T14:40:03.013Z</time></trkpt><trkpt lat="45.80934950235794" lon="8.356073302792053"><ele>719.0</ele><time>2026-04-19T14:40:04.013Z</time></trkpt><trkpt lat="45.80934476751013" lon="8.356245346626773"><ele>718.0</ele><time>2026-04-19T14:40:05.013Z</time></trkpt><trkpt lat="45.80934319985717" lon="8.356428234267495"><ele>717.0</ele><time>2026-04-19T14:40:06.013Z</time></trkpt><trkpt lat="45.80933328074489" lon="8.35660450100618"><ele>716.0</ele><time>2026-04-19T14:40:07.013Z</time></trkpt><trkpt lat="45.80933561594716" lon="8.356776606332312"><ele>715.0</ele><time>2026-04-19T14:40:08.013Z</time></trkpt><trkpt lat="45.809364243095025" lon="8.356943317528675"><ele>715.0</ele><time>2026-04-19T14:40:09.013Z</time></trkpt><trkpt lat="45.809407378489496" lon="8.357101680820914"><ele>715.0</ele><time>2026-04-19T14:40:10.013Z</time></trkpt><trkpt lat="45.80946135521633" lon="8.357248698266586"><ele>715.0</ele><time>2026-04-19T14:40:11.013Z</time></trkpt><trkpt lat="45.80952707925575" lon="8.357375375443558"><ele>715.0</ele><time>2026-04-19T14:40:12.013Z</time></trkpt><trkpt lat="45.80960707045938" lon="8.357470605319627"><ele>715.0</ele><time>2026-04-19T14:40:13.013Z</time></trkpt><trkpt lat="45.80970530591629" lon="8.357538908959366"><ele>708.5</ele><time>2026-04-19T14:40:14.013Z</time></trkpt><trkpt lat="45.809819626901415" lon="8.357599613521389"><ele>702.0</ele><time>2026-04-19T14:40:15.013Z</time></trkpt><trkpt lat="45.809943380712035" lon="8.357670798474675"><ele>695.5</ele><time>2026-04-19T14:40:16.013Z</time></trkpt><trkpt lat="45.810071687663566" lon="8.3577332773098"><ele>689.0</ele><time>2026-04-19T14:40:17.013Z</time></trkpt><trkpt lat="45.81020229723971" lon="8.357795543381007"><ele>689.0</ele><time>2026-04-19T14:40:18.013Z</time></trkpt><trkpt lat="45.810341393353454" lon="8.357864005544293"><ele>689.0</ele><time>2026-04-19T14:40:19.013Z</time></trkpt><trkpt lat="45.81048229163073" lon="8.357933421879492"><ele>689.0</ele><time>2026-04-19T14:40:20.013Z</time></trkpt><trkpt lat="45.810622734623585" lon="8.358004429613095"><ele>689.0</ele><time>2026-04-19T14:40:21.013Z</time></trkpt><trkpt lat="45.81075951385427" lon="8.358072994101525"><ele>680.0</ele><time>2026-04-19T14:40:22.013Z</time></trkpt><trkpt lat="45.81089520149928" lon="8.35813150804413"><ele>671.0</ele><time>2026-04-19T14:40:23.013Z</time></trkpt><trkpt lat="45.81102677134851" lon="8.358192976448406"><ele>662.0</ele><time>2026-04-19T14:40:24.013Z</time></trkpt><trkpt lat="45.81116426638141" lon="8.358230019273396"><ele>653.0</ele><time>2026-04-19T14:40:25.013Z</time></trkpt><trkpt lat="45.81129804958984" lon="8.3582394371885"><ele>652.75</ele><time>2026-04-19T14:40:26.014Z</time></trkpt><trkpt lat="45.81143145178275" lon="8.358231657361864"><ele>652.5</ele><time>2026-04-19T14:40:27.014Z</time></trkpt><trkpt lat="45.81156342427504" lon="8.358226818053838"><ele>652.25</ele><time>2026-04-19T14:40:28.014Z</time></trkpt><trkpt lat="45.81169350641367" lon="8.358223477108098"><ele>652.0</ele><time>2026-04-19T14:40:29.014Z</time></trkpt><trkpt lat="45.811824452056555" lon="8.358221225338703"><ele>649.8333333333334</ele><time>2026-04-19T14:40:30.014Z</time></trkpt><trkpt lat="45.81195161237414" lon="8.358204813857805"><ele>647.6666666666667</ele><time>2026-04-19T14:40:31.014Z</time></trkpt><trkpt lat="45.81205035960458" lon="8.35820202148107"><ele>645.5</ele><time>2026-04-19T14:40:32.014Z</time></trkpt><trkpt lat="45.81212420369333" lon="8.358225077411284"><ele>643.3333333333334</ele><time>2026-04-19T14:40:33.014Z</time></trkpt><trkpt lat="45.81218781538601" lon="8.358268724427584"><ele>641.1666666666666</ele><time>2026-04-19T14:40:34.014Z</time></trkpt><trkpt lat="45.812219142502805" lon="8.358366099466554"><ele>639.0</ele><time>2026-04-19T14:40:35.014Z</time></trkpt><trkpt lat="45.81221697458191" lon="8.358474369531297"><ele>639.0</ele><time>2026-04-19T14:40:36.014Z</time></trkpt><trkpt lat="45.812173112830166" lon="8.358579856319274"><ele>639.0</ele><time>2026-04-19T14:40:37.014Z</time></trkpt><trkpt lat="45.81211377855832" lon="8.35866212740711"><ele>639.0</ele><time>2026-04-19T14:40:38.014Z</time></trkpt><trkpt lat="45.81203981168223" lon="8.358700773745403"><ele>639.0</ele><time>2026-04-19T14:40:39.014Z</time></trkpt><trkpt lat="45.81194741386857" lon="8.358700690706195"><ele>639.0</ele><time>2026-04-19T14:40:40.014Z</time></trkpt><trkpt lat="45.81184888051283" lon="8.358684772359332"><ele>639.0</ele><time>2026-04-19T14:40:41.014Z</time></trkpt><trkpt lat="45.811742861769254" lon="8.358677024754625"><ele>642.25</ele><time>2026-04-19T14:40:42.014Z</time></trkpt><trkpt lat="45.81163166875783" lon="8.358678313424733"><ele>645.5</ele><time>2026-04-19T14:40:43.014Z</time></trkpt><trkpt lat="45.81150903792979" lon="8.358680355078484"><ele>648.75</ele><time>2026-04-19T14:40:44.014Z</time></trkpt><trkpt lat="45.81138504225216" lon="8.358682692172787"><ele>652.0</ele><time>2026-04-19T14:40:45.014Z</time></trkpt><trkpt lat="45.8112583569145" lon="8.358681805516886"><ele>652.0</ele><time>2026-04-19T14:40:46.014Z</time></trkpt><trkpt lat="45.81113237283296" lon="8.358687823666628"><ele>652.0</ele><time>2026-04-19T14:40:47.014Z</time></trkpt><trkpt lat="45.81100559093986" lon="8.358686793496451"><ele>652.0</ele><time>2026-04-19T14:40:48.014Z</time></trkpt><trkpt lat="45.810871836789204" lon="8.358672062703963"><ele>652.0</ele><time>2026-04-19T14:40:49.014Z</time></trkpt><trkpt lat="45.81073810586792" lon="8.35864262896113"><ele>652.25</ele><time>2026-04-19T14:40:50.014Z</time></trkpt><trkpt lat="45.81061016651068" lon="8.358622319761366"><ele>652.5</ele><time>2026-04-19T14:40:51.014Z</time></trkpt><trkpt lat="45.81048023051315" lon="8.358601611188384"><ele>652.75</ele><time>2026-04-19T14:40:52.014Z</time></trkpt><trkpt lat="45.810349262284" lon="8.358592005618371"><ele>653.0</ele><time>2026-04-19T14:40:53.014Z</time></trkpt><trkpt lat="45.8102206452544" lon="8.358582944174547"><ele>650.25</ele><time>2026-04-19T14:40:54.014Z</time></trkpt><trkpt lat="45.810089669680075" lon="8.35858236768857"><ele>647.5</ele><time>2026-04-19T14:40:55.014Z</time></trkpt><trkpt lat="45.80996087435129" lon="8.358585881636108"><ele>644.75</ele><time>2026-04-19T14:40:56.014Z</time></trkpt><trkpt lat="45.80983676062238" lon="8.358585395972607"><ele>642.0</ele><time>2026-04-19T14:40:57.014Z</time></trkpt><trkpt lat="45.80972506713702" lon="8.358581657224143"><ele>642.0</ele><time>2026-04-19T14:40:58.014Z</time></trkpt><trkpt lat="45.80962993189859" lon="8.358563892950386"><ele>642.0</ele><time>2026-04-19T14:40:59.015Z</time></trkpt><trkpt lat="45.809544096126345" lon="8.358566241390893"><ele>642.0</ele><time>2026-04-19T14:41:00.015Z</time></trkpt><trkpt lat="45.80946200616316" lon="8.358582215594316"><ele>642.0</ele><time>2026-04-19T14:41:01.015Z</time></trkpt><trkpt lat="45.80939529483974" lon="8.358628651129802"><ele>642.0</ele><time>2026-04-19T14:41:02.015Z</time></trkpt><trkpt lat="45.80935028401681" lon="8.358693676029263"><ele>642.0</ele><time>2026-04-19T14:41:03.015Z</time></trkpt><trkpt lat="45.809336367375906" lon="8.358788504888894"><ele>636.5</ele><time>2026-04-19T14:41:04.015Z</time></trkpt><trkpt lat="45.80933988207604" lon="8.358884003197332"><ele>631.0</ele><time>2026-04-19T14:41:05.015Z</time></trkpt><trkpt lat="45.80937209974049" lon="8.3589945442812"><ele>625.5</ele><time>2026-04-19T14:41:06.015Z</time></trkpt><trkpt lat="45.809431326816295" lon="8.359078494632705"><ele>620.0</ele><time>2026-04-19T14:41:07.015Z</time></trkpt><trkpt lat="45.80951546916295" lon="8.359097962280662"><ele>614.5</ele><time>2026-04-19T14:41:08.015Z</time></trkpt><trkpt lat="45.80959988480531" lon="8.359097946282619"><ele>609.0</ele><time>2026-04-19T14:41:09.015Z</time></trkpt><trkpt lat="45.80968538150281" lon="8.35910785996247"><ele>609.0</ele><time>2026-04-19T14:41:10.015Z</time></trkpt><trkpt lat="45.80978420483877" lon="8.359119315899429"><ele>609.0</ele><time>2026-04-19T14:41:11.015Z</time></trkpt><trkpt lat="45.80987616970267" lon="8.359161900497618"><ele>609.0</ele><time>2026-04-19T14:41:12.015Z</time></trkpt><trkpt lat="45.809987082857646" lon="8.359204844235839"><ele>609.0</ele><time>2026-04-19T14:41:13.015Z</time></trkpt><trkpt lat="45.81011041196298" lon="8.359257144536816"><ele>609.0</ele><time>2026-04-19T14:41:14.015Z</time></trkpt><trkpt lat="45.810242218472965" lon="8.359310872547976"><ele>611.0</ele><time>2026-04-19T14:41:15.015Z</time></trkpt><trkpt lat="45.81037114450446" lon="8.359373015971636"><ele>613.0</ele><time>2026-04-19T14:41:16.015Z</time></trkpt><trkpt lat="45.81050007357719" lon="8.359443286740253"><ele>615.0</ele><time>2026-04-19T14:41:17.015Z</time></trkpt><trkpt lat="45.81062722771912" lon="8.359513389540913"><ele>617.0</ele><time>2026-04-19T14:41:18.015Z</time></trkpt><trkpt lat="45.810747913806686" lon="8.359582756991262"><ele>617.0</ele><time>2026-04-19T14:41:19.015Z</time></trkpt><trkpt lat="45.810865028434854" lon="8.359645038193802"><ele>617.0</ele><time>2026-04-19T14:41:20.015Z</time></trkpt><trkpt lat="45.81097539836276" lon="8.359721089415887"><ele>617.0</ele><time>2026-04-19T14:41:21.015Z</time></trkpt><trkpt lat="45.81108043880845" lon="8.359796988879218"><ele>617.0</ele><time>2026-04-19T14:41:22.012Z</time></trkpt><trkpt lat="45.81118484900112" lon="8.359843093862752"><ele>618.6</ele><time>2026-04-19T14:41:23.013Z</time></trkpt><trkpt lat="45.81129564262096" lon="8.359840041709878"><ele>620.2</ele><time>2026-04-19T14:41:24.013Z</time></trkpt><trkpt lat="45.81140625495965" lon="8.359801738016003"><ele>621.8</ele><time>2026-04-19T14:41:25.012Z</time></trkpt><trkpt lat="45.81151321604927" lon="8.359762704332448"><ele>623.4</ele><time>2026-04-19T14:41:26.012Z</time></trkpt><trkpt lat="45.81162510656137" lon="8.359728774496741"><ele>625.0</ele><time>2026-04-19T14:41:27.012Z</time></trkpt><trkpt lat="45.81173918022206" lon="8.35969602061039"><ele>623.5</ele><time>2026-04-19T14:41:28.012Z</time></trkpt><trkpt lat="45.81185774090077" lon="8.359660691815028"><ele>622.0</ele><time>2026-04-19T14:41:29.013Z</time></trkpt><trkpt lat="45.811978683053525" lon="8.359647550253461"><ele>620.5</ele><time>2026-04-19T14:41:30.013Z</time></trkpt><trkpt lat="45.81209784420877" lon="8.359681844773961"><ele>619.0</ele><time>2026-04-19T14:41:31.013Z</time></trkpt><trkpt lat="45.81222375124693" lon="8.359718385347138"><ele>613.25</ele><time>2026-04-19T14:41:32.013Z</time></trkpt><trkpt lat="45.81234896979796" lon="8.35976353363849"><ele>607.5</ele><time>2026-04-19T14:41:33.013Z</time></trkpt><trkpt lat="45.81248029744734" lon="8.359819761590645"><ele>601.75</ele><time>2026-04-19T14:41:34.012Z</time></trkpt><trkpt lat="45.812613976815385" lon="8.3598948676423"><ele>596.0</ele><time>2026-04-19T14:41:35.013Z</time></trkpt><trkpt lat="45.81274325948868" lon="8.359970336018764"><ele>596.0</ele><time>2026-04-19T14:41:36.013Z</time></trkpt><trkpt lat="45.81287543284525" lon="8.360055620720974"><ele>596.0</ele><time>2026-04-19T14:41:37.013Z</time></trkpt><trkpt lat="45.813001528359266" lon="8.36014531449051"><ele>596.0</ele><time>2026-04-19T14:41:38.013Z</time></trkpt><trkpt lat="45.81312296775147" lon="8.360224374679877"><ele>596.0</ele><time>2026-04-19T14:41:39.013Z</time></trkpt><trkpt lat="45.81324088710976" lon="8.360297094135403"><ele>596.0</ele><time>2026-04-19T14:41:40.013Z</time></trkpt><trkpt lat="45.81335544665125" lon="8.360377570997262"><ele>596.0</ele><time>2026-04-19T14:41:41.013Z</time></trkpt><trkpt lat="45.813466368354085" lon="8.360462660774646"><ele>596.0</ele><time>2026-04-19T14:41:42.013Z</time></trkpt><trkpt lat="45.813568200019155" lon="8.360569094783138"><ele>596.0</ele><time>2026-04-19T14:41:43.013Z</time></trkpt><trkpt lat="45.813667125460356" lon="8.360697533696852"><ele>594.0</ele><time>2026-04-19T14:41:44.013Z</time></trkpt><trkpt lat="45.8137682740407" lon="8.360821749182152"><ele>592.0</ele><time>2026-04-19T14:41:45.013Z</time></trkpt><trkpt lat="45.813887737524674" lon="8.360928120925863"><ele>590.0</ele><time>2026-04-19T14:41:46.013Z</time></trkpt><trkpt lat="45.814008646345115" lon="8.361012120217525"><ele>588.0</ele><time>2026-04-19T14:41:47.013Z</time></trkpt><trkpt lat="45.81413137979501" lon="8.361102903358965"><ele>588.0</ele><time>2026-04-19T14:41:48.013Z</time></trkpt><trkpt lat="45.81425885346732" lon="8.361195620472532"><ele>588.0</ele><time>2026-04-19T14:41:49.013Z</time></trkpt><trkpt lat="45.814384671673174" lon="8.361297739505705"><ele>588.0</ele><time>2026-04-19T14:41:50.013Z</time></trkpt><trkpt lat="45.814516580046" lon="8.361396827116007"><ele>588.0</ele><time>2026-04-19T14:41:51.013Z</time></trkpt><trkpt lat="45.81464531965357" lon="8.361482680141208"><ele>585.5</ele><time>2026-04-19T14:41:52.013Z</time></trkpt><trkpt lat="45.81476350836252" lon="8.361563902253264"><ele>583.0</ele><time>2026-04-19T14:41:53.013Z</time></trkpt><trkpt lat="45.81487028860572" lon="8.361631203161902"><ele>580.5</ele><time>2026-04-19T14:41:54.013Z</time></trkpt><trkpt lat="45.81498397937619" lon="8.361673563732642"><ele>578.0</ele><time>2026-04-19T14:41:55.013Z</time></trkpt><trkpt lat="45.815096381126466" lon="8.361686092725073"><ele>578.0</ele><time>2026-04-19T14:41:56.013Z</time></trkpt><trkpt lat="45.81518941364412" lon="8.361682173022727"><ele>578.0</ele><time>2026-04-19T14:41:57.013Z</time></trkpt><trkpt lat="45.81525436526596" lon="8.361696104259549"><ele>578.0</ele><time>2026-04-19T14:41:58.014Z</time></trkpt><trkpt lat="45.815310055253356" lon="8.361777530126812"><ele>578.0</ele><time>2026-04-19T14:42:00.014Z</time></trkpt><trkpt lat="45.81525004278804" lon="8.36184708749837"><ele>578.0</ele><time>2026-04-19T14:42:02.014Z</time></trkpt><trkpt lat="45.81510598227931" lon="8.361829398833011"><ele>578.0</ele><time>2026-04-19T14:42:04.014Z</time></trkpt><trkpt lat="45.81502135112812" lon="8.361808740780278"><ele>578.0</ele><time>2026-04-19T14:42:05.014Z</time></trkpt><trkpt lat="45.814925826548496" lon="8.361789171686548"><ele>578.0</ele><time>2026-04-19T14:42:06.014Z</time></trkpt><trkpt lat="45.814820048879525" lon="8.361759501417401"><ele>578.0</ele><time>2026-04-19T14:42:07.014Z</time></trkpt><trkpt lat="45.814701832909975" lon="8.361715630154611"><ele>578.0</ele><time>2026-04-19T14:42:08.014Z</time></trkpt><trkpt lat="45.81458055290265" lon="8.361665320993739"><ele>578.0</ele><time>2026-04-19T14:42:09.014Z</time></trkpt><trkpt lat="45.814456432234635" lon="8.361621872231343"><ele>578.0</ele><time>2026-04-19T14:42:10.014Z</time></trkpt><trkpt lat="45.81432032369746" lon="8.361574533139173"><ele>578.0</ele><time>2026-04-19T14:42:11.014Z</time></trkpt><trkpt lat="45.814185761132634" lon="8.361518891041813"><ele>578.0</ele><time>2026-04-19T14:42:12.014Z</time></trkpt><trkpt lat="45.814055298515186" lon="8.361471848817914"><ele>580.5</ele><time>2026-04-19T14:42:13.014Z</time></trkpt><trkpt lat="45.8139310918803" lon="8.361420074674859"><ele>583.0</ele><time>2026-04-19T14:42:14.014Z</time></trkpt><trkpt lat="45.81381798148926" lon="8.361352258227944"><ele>585.5</ele><time>2026-04-19T14:42:15.014Z</time></trkpt><trkpt lat="45.81372263884133" lon="8.361269814982542"><ele>588.0</ele><time>2026-04-19T14:42:16.014Z</time></trkpt><trkpt lat="45.813634693123326" lon="8.361213776375036"><ele>588.0</ele><time>2026-04-19T14:42:17.014Z</time></trkpt><trkpt lat="45.8135484925265" lon="8.361187729906245"><ele>588.0</ele><time>2026-04-19T14:42:18.014Z</time></trkpt><trkpt lat="45.81347529493478" lon="8.361202848920419"><ele>588.0</ele><time>2026-04-19T14:42:19.014Z</time></trkpt><trkpt lat="45.81341905674706" lon="8.361251282089217"><ele>588.0</ele><time>2026-04-19T14:42:20.014Z</time></trkpt><trkpt lat="45.813369366761634" lon="8.36142113425919"><ele>588.0</ele><time>2026-04-19T14:42:22.014Z</time></trkpt><trkpt lat="45.813360630282716" lon="8.361510889629812"><ele>588.0</ele><time>2026-04-19T14:42:23.014Z</time></trkpt><trkpt lat="45.81335327806422" lon="8.361626393685539"><ele>582.8333333333334</ele><time>2026-04-19T14:42:24.014Z</time></trkpt><trkpt lat="45.81333915666082" lon="8.361745382779155"><ele>577.6666666666666</ele><time>2026-04-19T14:42:25.014Z</time></trkpt><trkpt lat="45.81333232785521" lon="8.361854372663398"><ele>572.5</ele><time>2026-04-19T14:42:26.014Z</time></trkpt><trkpt lat="45.81333648743595" lon="8.361962965303626"><ele>567.3333333333333</ele><time>2026-04-19T14:42:27.014Z</time></trkpt><trkpt lat="45.8133553076644" lon="8.362065963770833"><ele>562.1666666666666</ele><time>2026-04-19T14:42:28.014Z</time></trkpt><trkpt lat="45.81339741431186" lon="8.362168592864784"><ele>557.0</ele><time>2026-04-19T14:42:29.014Z</time></trkpt><trkpt lat="45.81347255687753" lon="8.362241009806922"><ele>554.5</ele><time>2026-04-19T14:42:30.014Z</time></trkpt><trkpt lat="45.813569959022495" lon="8.36228235650042"><ele>552.0</ele><time>2026-04-19T14:42:31.015Z</time></trkpt><trkpt lat="45.81367575733425" lon="8.362322194135958"><ele>549.5</ele><time>2026-04-19T14:42:32.015Z</time></trkpt><trkpt lat="45.81378877415917" lon="8.362373739790335"><ele>547.0</ele><time>2026-04-19T14:42:33.015Z</time></trkpt><trkpt lat="45.813907415514706" lon="8.36242881528199"><ele>547.0</ele><time>2026-04-19T14:42:34.015Z</time></trkpt><trkpt lat="45.814033362374985" lon="8.36247768373805"><ele>547.0</ele><time>2026-04-19T14:42:35.015Z</time></trkpt><trkpt lat="45.81415891450909" lon="8.362521051491724"><ele>547.0</ele><time>2026-04-19T14:42:36.015Z</time></trkpt><trkpt lat="45.8142914613425" lon="8.3625383456869"><ele>547.0</ele><time>2026-04-19T14:42:37.015Z</time></trkpt><trkpt lat="45.814427724021975" lon="8.362554477254802"><ele>547.0</ele><time>2026-04-19T14:42:38.015Z</time></trkpt><trkpt lat="45.81456420766107" lon="8.362562785859255"><ele>547.0</ele><time>2026-04-19T14:42:39.015Z</time></trkpt><trkpt lat="45.81470289467939" lon="8.362565406763823"><ele>547.0</ele><time>2026-04-19T14:42:40.015Z</time></trkpt><trkpt lat="45.8148344706195" lon="8.362564760010756"><ele>547.0</ele><time>2026-04-19T14:42:41.015Z</time></trkpt><trkpt lat="45.8149730224902" lon="8.362562965142688"><ele>547.0</ele><time>2026-04-19T14:42:42.015Z</time></trkpt><trkpt lat="45.81511760946083" lon="8.362540496638742"><ele>547.0</ele><time>2026-04-19T14:42:43.015Z</time></trkpt><trkpt lat="45.81525493849938" lon="8.362505598299588"><ele>547.0</ele><time>2026-04-19T14:42:44.015Z</time></trkpt><trkpt lat="45.815385062253185" lon="8.362450519512619"><ele>547.0</ele><time>2026-04-19T14:42:45.015Z</time></trkpt><trkpt lat="45.81550978366353" lon="8.362388244200348"><ele>543.0</ele><time>2026-04-19T14:42:46.015Z</time></trkpt><trkpt lat="45.81563019817257" lon="8.362301543109217"><ele>539.0</ele><time>2026-04-19T14:42:47.015Z</time></trkpt><trkpt lat="45.81574647235775" lon="8.362211745123933"><ele>535.0</ele><time>2026-04-19T14:42:48.015Z</time></trkpt><trkpt lat="45.81585899836914" lon="8.362113700102759"><ele>531.0</ele><time>2026-04-19T14:42:49.015Z</time></trkpt><trkpt lat="45.81595420502368" lon="8.361993202748625"><ele>534.5</ele><time>2026-04-19T14:42:50.015Z</time></trkpt><trkpt lat="45.816025945721954" lon="8.361890121580956"><ele>538.0</ele><time>2026-04-19T14:42:51.015Z</time></trkpt><trkpt lat="45.816086664635876" lon="8.361799730534173"><ele>541.5</ele><time>2026-04-19T14:42:52.015Z</time></trkpt><trkpt lat="45.81615865980301" lon="8.361723223256321"><ele>545.0</ele><time>2026-04-19T14:42:53.015Z</time></trkpt><trkpt lat="45.816233228721686" lon="8.361696792882624"><ele>548.5</ele><time>2026-04-19T14:42:54.015Z</time></trkpt><trkpt lat="45.81630827473654" lon="8.36171686212209"><ele>552.0</ele><time>2026-04-19T14:42:55.015Z</time></trkpt><trkpt lat="45.816387611780975" lon="8.361768914356212"><ele>552.0</ele><time>2026-04-19T14:42:56.015Z</time></trkpt><trkpt lat="45.816485315279955" lon="8.361852713682739"><ele>552.0</ele><time>2026-04-19T14:42:57.015Z</time></trkpt><trkpt lat="45.81656684875744" lon="8.36195692598956"><ele>552.0</ele><time>2026-04-19T14:42:58.015Z</time></trkpt><trkpt lat="45.816640438276906" lon="8.362078793826816"><ele>552.0</ele><time>2026-04-19T14:42:59.015Z</time></trkpt><trkpt lat="45.81669737997587" lon="8.362231141831785"><ele>546.5</ele><time>2026-04-19T14:43:00.015Z</time></trkpt><trkpt lat="45.816739195890115" lon="8.362405261503827"><ele>541.0</ele><time>2026-04-19T14:43:01.015Z</time></trkpt><trkpt lat="45.816762113212356" lon="8.362596048088255"><ele>535.5</ele><time>2026-04-19T14:43:02.015Z</time></trkpt><trkpt lat="45.816761046982805" lon="8.362760641621964"><ele>530.0</ele><time>2026-04-19T14:43:03.015Z</time></trkpt><trkpt lat="45.816747663173686" lon="8.362910761316172"><ele>528.4</ele><time>2026-04-19T14:43:04.016Z</time></trkpt><trkpt lat="45.81671427297774" lon="8.363052045904004"><ele>526.8</ele><time>2026-04-19T14:43:05.016Z</time></trkpt><trkpt lat="45.81665005997043" lon="8.363182369940501"><ele>525.2</ele><time>2026-04-19T14:43:06.016Z</time></trkpt><trkpt lat="45.816563730791856" lon="8.363303312872576"><ele>523.6</ele><time>2026-04-19T14:43:07.016Z</time></trkpt><trkpt lat="45.81648735278338" lon="8.36341808468238"><ele>522.0</ele><time>2026-04-19T14:43:08.016Z</time></trkpt><trkpt lat="45.81641650820512" lon="8.363533133751163"><ele>522.0</ele><time>2026-04-19T14:43:09.016Z</time></trkpt><trkpt lat="45.81635688961903" lon="8.363650462457572"><ele>522.0</ele><time>2026-04-19T14:43:10.016Z</time></trkpt><trkpt lat="45.81632173604989" lon="8.363774234825941"><ele>522.0</ele><time>2026-04-19T14:43:11.016Z</time></trkpt><trkpt lat="45.81631840123632" lon="8.363907234346009"><ele>522.0</ele><time>2026-04-19T14:43:12.016Z</time></trkpt><trkpt lat="45.81635286155923" lon="8.36403288677908"><ele>522.0</ele><time>2026-04-19T14:43:13.016Z</time></trkpt><trkpt lat="45.81641204193551" lon="8.364152733888023"><ele>520.6666666666666</ele><time>2026-04-19T14:43:14.016Z</time></trkpt><trkpt lat="45.8164853175237" lon="8.364260362442247"><ele>519.3333333333334</ele><time>2026-04-19T14:43:15.016Z</time></trkpt><trkpt lat="45.816556474707916" lon="8.364358124566024"><ele>518.0</ele><time>2026-04-19T14:43:16.016Z</time></trkpt><trkpt lat="45.81662681062011" lon="8.364447399966139"><ele>516.6666666666667</ele><time>2026-04-19T14:43:17.016Z</time></trkpt><trkpt lat="45.81669257602696" lon="8.364506572019533"><ele>515.3333333333334</ele><time>2026-04-19T14:43:18.016Z</time></trkpt><trkpt lat="45.81676202868332" lon="8.364521415872092"><ele>514.0</ele><time>2026-04-19T14:43:19.016Z</time></trkpt><trkpt lat="45.81683297006432" lon="8.364491979594932"><ele>511.4</ele><time>2026-04-19T14:43:20.016Z</time></trkpt><trkpt lat="45.81690847736559" lon="8.36443821880978"><ele>508.79999999999995</ele><time>2026-04-19T14:43:21.016Z</time></trkpt><trkpt lat="45.81698800172083" lon="8.36437488641559"><ele>506.20000000000005</ele><time>2026-04-19T14:43:22.016Z</time></trkpt><trkpt lat="45.81707988655037" lon="8.36430123795987"><ele>503.6</ele><time>2026-04-19T14:43:23.016Z</time></trkpt><trkpt lat="45.81718047361256" lon="8.364220096746198"><ele>501.0</ele><time>2026-04-19T14:43:24.016Z</time></trkpt><trkpt lat="45.817282089507074" lon="8.364121156217717"><ele>501.0</ele><time>2026-04-19T14:43:25.016Z</time></trkpt><trkpt lat="45.81738248452157" lon="8.364010909234219"><ele>501.0</ele><time>2026-04-19T14:43:26.016Z</time></trkpt><trkpt lat="45.817472371394544" lon="8.363893967597566"><ele>501.0</ele><time>2026-04-19T14:43:27.016Z</time></trkpt><trkpt lat="45.81753648246582" lon="8.363743242303737"><ele>501.0</ele><time>2026-04-19T14:43:28.014Z</time></trkpt><trkpt lat="45.81759555733937" lon="8.363580709735"><ele>500.8</ele><time>2026-04-19T14:43:29.013Z</time></trkpt><trkpt lat="45.81765668979432" lon="8.363422490412963"><ele>500.6</ele><time>2026-04-19T14:43:30.013Z</time></trkpt><trkpt lat="45.81771979829067" lon="8.363284282719436"><ele>500.4</ele><time>2026-04-19T14:43:31.013Z</time></trkpt><trkpt lat="45.817789082961255" lon="8.363175758599729"><ele>500.2</ele><time>2026-04-19T14:43:32.013Z</time></trkpt><trkpt lat="45.817858061586556" lon="8.363105615315632"><ele>500.0</ele><time>2026-04-19T14:43:33.013Z</time></trkpt><trkpt lat="45.817928172710566" lon="8.363075032507867"><ele>500.0</ele><time>2026-04-19T14:43:34.013Z</time></trkpt><trkpt lat="45.81801403384669" lon="8.363108142324272"><ele>500.0</ele><time>2026-04-19T14:43:35.014Z</time></trkpt><trkpt lat="45.818082157080255" lon="8.36318012140649"><ele>500.0</ele><time>2026-04-19T14:43:36.014Z</time></trkpt><trkpt lat="45.81814257714848" lon="8.363261727235745"><ele>500.0</ele><time>2026-04-19T14:43:37.013Z</time></trkpt><trkpt lat="45.8182114797892" lon="8.363329535543125"><ele>500.0</ele><time>2026-04-19T14:43:38.013Z</time></trkpt><trkpt lat="45.81833831423113" lon="8.363362375448974"><ele>500.0</ele><time>2026-04-19T14:43:40.013Z</time></trkpt><trkpt lat="45.81841678249926" lon="8.363344608747074"><ele>500.0</ele><time>2026-04-19T14:43:41.013Z</time></trkpt><trkpt lat="45.81850500232539" lon="8.36330305892641"><ele>500.0</ele><time>2026-04-19T14:43:42.013Z</time></trkpt><trkpt lat="45.81860177398087" lon="8.363264613904903"><ele>500.0</ele><time>2026-04-19T14:43:43.013Z</time></trkpt><trkpt lat="45.81870606519187" lon="8.363242405564135"><ele>500.0</ele><time>2026-04-19T14:43:44.013Z</time></trkpt><trkpt lat="45.818810881967075" lon="8.363232259658023"><ele>503.8</ele><time>2026-04-19T14:43:45.013Z</time></trkpt><trkpt lat="45.81891590327325" lon="8.363211576772363"><ele>507.6</ele><time>2026-04-19T14:43:46.013Z</time></trkpt><trkpt lat="45.819021375481015" lon="8.36318375129246"><ele>511.4</ele><time>2026-04-19T14:43:47.013Z</time></trkpt><trkpt lat="45.819121489314234" lon="8.363140128001168"><ele>515.2</ele><time>2026-04-19T14:43:48.013Z</time></trkpt><trkpt lat="45.81921145997483" lon="8.363057987795237"><ele>519.0</ele><time>2026-04-19T14:43:49.013Z</time></trkpt><trkpt lat="45.81929666383974" lon="8.362962423806618"><ele>511.0</ele><time>2026-04-19T14:43:50.013Z</time></trkpt><trkpt lat="45.8193786141666" lon="8.362859018103885"><ele>503.0</ele><time>2026-04-19T14:43:51.013Z</time></trkpt><trkpt lat="45.819462065539305" lon="8.362764432793831"><ele>495.0</ele><time>2026-04-19T14:43:52.013Z</time></trkpt><trkpt lat="45.81954460935935" lon="8.362660236391035"><ele>487.0</ele><time>2026-04-19T14:43:53.014Z</time></trkpt><trkpt lat="45.819639519358056" lon="8.362566130108549"><ele>479.0</ele><time>2026-04-19T14:43:54.014Z</time></trkpt><trkpt lat="45.819741944977864" lon="8.362489957208568"><ele>479.0</ele><time>2026-04-19T14:43:55.014Z</time></trkpt><trkpt lat="45.81984707132482" lon="8.362410741459044"><ele>479.0</ele><time>2026-04-19T14:43:56.014Z</time></trkpt><trkpt lat="45.81995287965525" lon="8.36232215592529"><ele>479.0</ele><time>2026-04-19T14:43:57.014Z</time></trkpt><trkpt lat="45.82006253718095" lon="8.362223547224477"><ele>479.0</ele><time>2026-04-19T14:43:58.014Z</time></trkpt><trkpt lat="45.82017618710915" lon="8.362128540169934"><ele>479.5</ele><time>2026-04-19T14:43:59.014Z</time></trkpt><trkpt lat="45.82028805900016" lon="8.362030245586517"><ele>480.0</ele><time>2026-04-19T14:44:00.014Z</time></trkpt><trkpt lat="45.820397455170045" lon="8.361931540697347"><ele>480.5</ele><time>2026-04-19T14:44:01.014Z</time></trkpt><trkpt lat="45.82051348478607" lon="8.361849704452819"><ele>481.0</ele><time>2026-04-19T14:44:02.014Z</time></trkpt><trkpt lat="45.820634127359575" lon="8.361781240183326"><ele>481.0</ele><time>2026-04-19T14:44:03.014Z</time></trkpt><trkpt lat="45.8207577583451" lon="8.361752670272816"><ele>481.0</ele><time>2026-04-19T14:44:04.014Z</time></trkpt><trkpt lat="45.820893689205576" lon="8.361729973232384"><ele>481.0</ele><time>2026-04-19T14:44:05.014Z</time></trkpt><trkpt lat="45.821029876700415" lon="8.361730140996578"><ele>481.0</ele><time>2026-04-19T14:44:06.014Z</time></trkpt><trkpt lat="45.82116327058768" lon="8.361712694508716"><ele>479.5</ele><time>2026-04-19T14:44:07.014Z</time></trkpt><trkpt lat="45.82128782531478" lon="8.361701607389"><ele>478.0</ele><time>2026-04-19T14:44:08.014Z</time></trkpt><trkpt lat="45.82141160513371" lon="8.361725905976794"><ele>476.5</ele><time>2026-04-19T14:44:09.014Z</time></trkpt><trkpt lat="45.82153223736867" lon="8.361781856791113"><ele>475.0</ele><time>2026-04-19T14:44:10.014Z</time></trkpt><trkpt lat="45.82165444775105" lon="8.361874658524028"><ele>475.0</ele><time>2026-04-19T14:44:11.014Z</time></trkpt><trkpt lat="45.82177837084835" lon="8.36197461491866"><ele>475.0</ele><time>2026-04-19T14:44:12.014Z</time></trkpt><trkpt lat="45.821901186095545" lon="8.362071383116586"><ele>475.0</ele><time>2026-04-19T14:44:13.014Z</time></trkpt><trkpt lat="45.82202316879015" lon="8.362173123023238"><ele>475.0</ele><time>2026-04-19T14:44:14.014Z</time></trkpt><trkpt lat="45.822143790093016" lon="8.362258908875672"><ele>472.25</ele><time>2026-04-19T14:44:15.014Z</time></trkpt><trkpt lat="45.82226731211408" lon="8.362322807672562"><ele>469.5</ele><time>2026-04-19T14:44:16.014Z</time></trkpt><trkpt lat="45.82239286229044" lon="8.362370255385327"><ele>466.75</ele><time>2026-04-19T14:44:17.014Z</time></trkpt><trkpt lat="45.82251406390594" lon="8.362389102027127"><ele>464.0</ele><time>2026-04-19T14:44:18.014Z</time></trkpt><trkpt lat="45.82262495434984" lon="8.36239778507284"><ele>464.8333333333333</ele><time>2026-04-19T14:44:19.014Z</time></trkpt><trkpt lat="45.82272863424578" lon="8.3624102282894"><ele>465.66666666666663</ele><time>2026-04-19T14:44:20.014Z</time></trkpt><trkpt lat="45.822823326554925" lon="8.362431060493146"><ele>466.5</ele><time>2026-04-19T14:44:21.014Z</time></trkpt><trkpt lat="45.82290604486091" lon="8.36247514499849"><ele>467.33333333333337</ele><time>2026-04-19T14:44:22.014Z</time></trkpt><trkpt lat="45.82296425833879" lon="8.362547134406006"><ele>468.1666666666667</ele><time>2026-04-19T14:44:23.014Z</time></trkpt><trkpt lat="45.822998547689274" lon="8.362635789553755"><ele>469.0</ele><time>2026-04-19T14:44:24.014Z</time></trkpt><trkpt lat="45.823019944947774" lon="8.362789234550922"><ele>469.0</ele><time>2026-04-19T14:44:26.015Z</time></trkpt><trkpt lat="45.822991452230816" lon="8.36291773551854"><ele>469.0</ele><time>2026-04-19T14:44:28.015Z</time></trkpt><trkpt lat="45.82288746456783" lon="8.36301436747509"><ele>469.0</ele><time>2026-04-19T14:44:30.015Z</time></trkpt><trkpt lat="45.82281042106507" lon="8.363043296357388"><ele>469.0</ele><time>2026-04-19T14:44:31.015Z</time></trkpt><trkpt lat="45.822729462227784" lon="8.363054052341347"><ele>469.0</ele><time>2026-04-19T14:44:32.015Z</time></trkpt><trkpt lat="45.82262738055768" lon="8.363033818701242"><ele>467.75</ele><time>2026-04-19T14:44:33.015Z</time></trkpt><trkpt lat="45.822522350653145" lon="8.362999282312092"><ele>466.5</ele><time>2026-04-19T14:44:34.015Z</time></trkpt><trkpt lat="45.82241169151509" lon="8.362953079778322"><ele>465.25</ele><time>2026-04-19T14:44:35.015Z</time></trkpt><trkpt lat="45.82228644776197" lon="8.362899462849876"><ele>464.0</ele><time>2026-04-19T14:44:36.015Z</time></trkpt><trkpt lat="45.822162003080095" lon="8.36284764768392"><ele>464.0</ele><time>2026-04-19T14:44:37.015Z</time></trkpt><trkpt lat="45.82203303625268" lon="8.362800196668905"><ele>464.0</ele><time>2026-04-19T14:44:38.015Z</time></trkpt><trkpt lat="45.82190728246207" lon="8.362806148113133"><ele>464.0</ele><time>2026-04-19T14:44:39.015Z</time></trkpt><trkpt lat="45.82178703868324" lon="8.362866239188962"><ele>464.0</ele><time>2026-04-19T14:44:40.015Z</time></trkpt><trkpt lat="45.82167718958661" lon="8.362959436589668"><ele>466.5</ele><time>2026-04-19T14:44:41.015Z</time></trkpt><trkpt lat="45.821569395306426" lon="8.36307801744967"><ele>469.0</ele><time>2026-04-19T14:44:42.015Z</time></trkpt><trkpt lat="45.82146709871939" lon="8.363209306691529"><ele>471.5</ele><time>2026-04-19T14:44:43.015Z</time></trkpt><trkpt lat="45.82136508537001" lon="8.363343329064307"><ele>474.0</ele><time>2026-04-19T14:44:44.015Z</time></trkpt><trkpt lat="45.821262573096114" lon="8.363483210437987"><ele>474.0</ele><time>2026-04-19T14:44:45.015Z</time></trkpt><trkpt lat="45.82116055721812" lon="8.363626362675726"><ele>474.0</ele><time>2026-04-19T14:44:46.015Z</time></trkpt><trkpt lat="45.82106353171273" lon="8.363781389726622"><ele>474.0</ele><time>2026-04-19T14:44:47.015Z</time></trkpt><trkpt lat="45.82097462288385" lon="8.363941171561883"><ele>474.0</ele><time>2026-04-19T14:44:48.015Z</time></trkpt><trkpt lat="45.8208907517638" lon="8.364105269632216"><ele>471.5</ele><time>2026-04-19T14:44:49.015Z</time></trkpt><trkpt lat="45.82078788022311" lon="8.364252195236263"><ele>469.0</ele><time>2026-04-19T14:44:50.015Z</time></trkpt><trkpt lat="45.82067621854054" lon="8.364379632255408"><ele>466.5</ele><time>2026-04-19T14:44:51.015Z</time></trkpt><trkpt lat="45.82055615213393" lon="8.364493683839001"><ele>464.0</ele><time>2026-04-19T14:44:52.015Z</time></trkpt><trkpt lat="45.820433334623615" lon="8.364605161441085"><ele>462.0</ele><time>2026-04-19T14:44:53.015Z</time></trkpt><trkpt lat="45.82031091001738" lon="8.364715278853021"><ele>460.0</ele><time>2026-04-19T14:44:54.015Z</time></trkpt><trkpt lat="45.82019421638124" lon="8.36483741549262"><ele>458.0</ele><time>2026-04-19T14:44:55.015Z</time></trkpt><trkpt lat="45.82007637432654" lon="8.36496127874291"><ele>456.0</ele><time>2026-04-19T14:44:56.015Z</time></trkpt><trkpt lat="45.8199525039321" lon="8.36507913357796"><ele>456.0</ele><time>2026-04-19T14:44:57.015Z</time></trkpt><trkpt lat="45.81983217418313" lon="8.365205715512474"><ele>456.0</ele><time>2026-04-19T14:44:58.015Z</time></trkpt><trkpt lat="45.81971236436322" lon="8.365339114722183"><ele>456.0</ele><time>2026-04-19T14:44:59.015Z</time></trkpt><trkpt lat="45.81959169248748" lon="8.365474484601345"><ele>456.66666666666663</ele><time>2026-04-19T14:45:00.016Z</time></trkpt><trkpt lat="45.81947820022351" lon="8.365611846281162"><ele>457.3333333333333</ele><time>2026-04-19T14:45:01.016Z</time></trkpt><trkpt lat="45.81935838878231" lon="8.365750628628005"><ele>458.0</ele><time>2026-04-19T14:45:02.016Z</time></trkpt><trkpt lat="45.819235768651325" lon="8.365882496605014"><ele>458.0</ele><time>2026-04-19T14:45:03.016Z</time></trkpt><trkpt lat="45.819109554783815" lon="8.366004467334841"><ele>458.0</ele><time>2026-04-19T14:45:04.016Z</time></trkpt><trkpt lat="45.8189822948103" lon="8.366119125343094"><ele>458.0</ele><time>2026-04-19T14:45:05.016Z</time></trkpt><trkpt lat="45.8188543130612" lon="8.366229566136017"><ele>458.0</ele><time>2026-04-19T14:45:06.016Z</time></trkpt><trkpt lat="45.81873278919325" lon="8.366351568808957"><ele>458.0</ele><time>2026-04-19T14:45:07.016Z</time></trkpt><trkpt lat="45.81862208571911" lon="8.36648393151674"><ele>458.0</ele><time>2026-04-19T14:45:08.016Z</time></trkpt><trkpt lat="45.81852756994219" lon="8.366630669828329"><ele>458.0</ele><time>2026-04-19T14:45:09.016Z</time></trkpt><trkpt lat="45.81844889297013" lon="8.366799595553129"><ele>457.25</ele><time>2026-04-19T14:45:10.016Z</time></trkpt><trkpt lat="45.818387496086636" lon="8.36698414975471"><ele>456.5</ele><time>2026-04-19T14:45:11.016Z</time></trkpt><trkpt lat="45.818313735843525" lon="8.367161671082998"><ele>455.75</ele><time>2026-04-19T14:45:12.016Z</time></trkpt><trkpt lat="45.81822460463407" lon="8.367329967135277"><ele>455.0</ele><time>2026-04-19T14:45:13.016Z</time></trkpt><trkpt lat="45.818119225173" lon="8.367474341586709"><ele>457.25</ele><time>2026-04-19T14:45:14.016Z</time></trkpt><trkpt lat="45.818005161791646" lon="8.367617660025243"><ele>459.5</ele><time>2026-04-19T14:45:15.016Z</time></trkpt><trkpt lat="45.81789962678275" lon="8.36776314155025"><ele>461.75</ele><time>2026-04-19T14:45:16.016Z</time></trkpt><trkpt lat="45.81778991085251" lon="8.36790898623962"><ele>464.0</ele><time>2026-04-19T14:45:17.016Z</time></trkpt><trkpt lat="45.81767321984785" lon="8.368047794952352"><ele>461.3333333333333</ele><time>2026-04-19T14:45:18.016Z</time></trkpt><trkpt lat="45.817547490673036" lon="8.368172480647123"><ele>458.66666666666663</ele><time>2026-04-19T14:45:19.016Z</time></trkpt><trkpt lat="45.8174138708213" lon="8.368285706976739"><ele>456.0</ele><time>2026-04-19T14:45:20.016Z</time></trkpt><trkpt lat="45.817278434454636" lon="8.36839693895818"><ele>456.0</ele><time>2026-04-19T14:45:21.016Z</time></trkpt><trkpt lat="45.817143279783984" lon="8.368502601273882"><ele>456.0</ele><time>2026-04-19T14:45:22.016Z</time></trkpt><trkpt lat="45.81701273788723" lon="8.368598148202363"><ele>456.0</ele><time>2026-04-19T14:45:23.016Z</time></trkpt><trkpt lat="45.81687784653057" lon="8.368656234969936"><ele>456.0</ele><time>2026-04-19T14:45:24.016Z</time></trkpt><trkpt lat="45.81673428552482" lon="8.368691506709759"><ele>452.5</ele><time>2026-04-19T14:45:25.016Z</time></trkpt><trkpt lat="45.81658972873476" lon="8.368695950422552"><ele>449.0</ele><time>2026-04-19T14:45:26.016Z</time></trkpt><trkpt lat="45.8164527273617" lon="8.368658560526006"><ele>445.5</ele><time>2026-04-19T14:45:27.016Z</time></trkpt><trkpt lat="45.81632691257265" lon="8.36859651498288"><ele>442.0</ele><time>2026-04-19T14:45:28.016Z</time></trkpt><trkpt lat="45.81620718722215" lon="8.368488200291807"><ele>442.0</ele><time>2026-04-19T14:45:29.016Z</time></trkpt><trkpt lat="45.81609571784028" lon="8.368341107008911"><ele>442.0</ele><time>2026-04-19T14:45:30.016Z</time></trkpt><trkpt lat="45.815985192820996" lon="8.368176107152564"><ele>442.0</ele><time>2026-04-19T14:45:31.016Z</time></trkpt><trkpt lat="45.815876913018656" lon="8.368027359521053"><ele>444.0</ele><time>2026-04-19T14:45:32.016Z</time></trkpt><trkpt lat="45.81576491929267" lon="8.367875970409079"><ele>446.0</ele><time>2026-04-19T14:45:33.017Z</time></trkpt><trkpt lat="45.815646420537526" lon="8.36771686804751"><ele>448.0</ele><time>2026-04-19T14:45:34.015Z</time></trkpt><trkpt lat="45.8155256836246" lon="8.367554317624197"><ele>448.0</ele><time>2026-04-19T14:45:35.014Z</time></trkpt><trkpt lat="45.81540384129943" lon="8.367387888811034"><ele>448.0</ele><time>2026-04-19T14:45:36.014Z</time></trkpt><trkpt lat="45.81528192633449" lon="8.367218800601123"><ele>448.0</ele><time>2026-04-19T14:45:37.014Z</time></trkpt><trkpt lat="45.815160577781214" lon="8.367056788183566"><ele>446.0</ele><time>2026-04-19T14:45:38.014Z</time></trkpt><trkpt lat="45.815039621956714" lon="8.36689736935724"><ele>444.0</ele><time>2026-04-19T14:45:39.014Z</time></trkpt><trkpt lat="45.814922760659634" lon="8.366738010024543"><ele>442.0</ele><time>2026-04-19T14:45:40.014Z</time></trkpt><trkpt lat="45.814804881932545" lon="8.366587875610845"><ele>442.0</ele><time>2026-04-19T14:45:41.015Z</time></trkpt><trkpt lat="45.81467450427671" lon="8.366449624977937"><ele>442.0</ele><time>2026-04-19T14:45:42.015Z</time></trkpt><trkpt lat="45.814530489971126" lon="8.366337305395238"><ele>442.0</ele><time>2026-04-19T14:45:43.015Z</time></trkpt><trkpt lat="45.81437577165628" lon="8.366237290218539"><ele>441.0</ele><time>2026-04-19T14:45:44.014Z</time></trkpt><trkpt lat="45.81421269094063" lon="8.366150902529304"><ele>440.0</ele><time>2026-04-19T14:45:45.014Z</time></trkpt><trkpt lat="45.81404999711761" lon="8.366064693505894"><ele>439.0</ele><time>2026-04-19T14:45:46.014Z</time></trkpt><trkpt lat="45.81387752993779" lon="8.365980540311506"><ele>439.0</ele><time>2026-04-19T14:45:47.014Z</time></trkpt><trkpt lat="45.81370452335405" lon="8.365880532574598"><ele>439.0</ele><time>2026-04-19T14:45:48.014Z</time></trkpt><trkpt lat="45.813528764478775" lon="8.365783678337348"><ele>439.0</ele><time>2026-04-19T14:45:49.014Z</time></trkpt><trkpt lat="45.81335049313047" lon="8.365685088925582"><ele>437.6666666666667</ele><time>2026-04-19T14:45:50.014Z</time></trkpt><trkpt lat="45.81316823170931" lon="8.36558163659438"><ele>436.33333333333337</ele><time>2026-04-19T14:45:51.014Z</time></trkpt><trkpt lat="45.8129851242461" lon="8.365484251073664"><ele>435.0</ele><time>2026-04-19T14:45:52.014Z</time></trkpt><trkpt lat="45.81280284079226" lon="8.365392777672268"><ele>434.66666666666663</ele><time>2026-04-19T14:45:53.014Z</time></trkpt><trkpt lat="45.81261269255776" lon="8.36529106825728"><ele>434.3333333333333</ele><time>2026-04-19T14:45:54.014Z</time></trkpt><trkpt lat="45.812417832027755" lon="8.365189505529894"><ele>434.0</ele><time>2026-04-19T14:45:55.014Z</time></trkpt><trkpt lat="45.812225421157" lon="8.365080392066156"><ele>434.0</ele><time>2026-04-19T14:45:56.014Z</time></trkpt><trkpt lat="45.81203550226523" lon="8.364969484033539"><ele>434.0</ele><time>2026-04-19T14:45:57.014Z</time></trkpt><trkpt lat="45.811860333327864" lon="8.364871559113661"><ele>434.0</ele><time>2026-04-19T14:45:58.014Z</time></trkpt><trkpt lat="45.8116900033056" lon="8.364777798660016"><ele>432.0</ele><time>2026-04-19T14:45:59.014Z</time></trkpt><trkpt lat="45.81153282505593" lon="8.364688514975128"><ele>430.0</ele><time>2026-04-19T14:46:00.014Z</time></trkpt><trkpt lat="45.81139677591885" lon="8.364615134685865"><ele>428.0</ele><time>2026-04-19T14:46:01.014Z</time></trkpt><trkpt lat="45.81127220839706" lon="8.364535361539971"><ele>428.0</ele><time>2026-04-19T14:46:02.014Z</time></trkpt><trkpt lat="45.81114990180932" lon="8.364470269791585"><ele>428.0</ele><time>2026-04-19T14:46:03.014Z</time></trkpt><trkpt lat="45.811041296525545" lon="8.364427631719739"><ele>428.0</ele><time>2026-04-19T14:46:04.014Z</time></trkpt><trkpt lat="45.81092830269518" lon="8.36441857157699"><ele>428.0</ele><time>2026-04-19T14:46:05.014Z</time></trkpt><trkpt lat="45.8108298905777" lon="8.364464472969146"><ele>427.5</ele><time>2026-04-19T14:46:06.014Z</time></trkpt><trkpt lat="45.81073789763667" lon="8.364559994901585"><ele>427.0</ele><time>2026-04-19T14:46:07.014Z</time></trkpt><trkpt lat="45.81065905055925" lon="8.3647010695275"><ele>426.5</ele><time>2026-04-19T14:46:08.014Z</time></trkpt><trkpt lat="45.81059980615499" lon="8.364884574803556"><ele>426.0</ele><time>2026-04-19T14:46:09.014Z</time></trkpt><trkpt lat="45.81055255743817" lon="8.365078047539464"><ele>430.33333333333337</ele><time>2026-04-19T14:46:10.014Z</time></trkpt><trkpt lat="45.81049832786723" lon="8.36529194647392"><ele>434.6666666666667</ele><time>2026-04-19T14:46:11.014Z</time></trkpt><trkpt lat="45.810433592807186" lon="8.365501040118046"><ele>439.0</ele><time>2026-04-19T14:46:12.015Z</time></trkpt><trkpt lat="45.81035904769701" lon="8.365708254874148"><ele>435.33333333333337</ele><time>2026-04-19T14:46:13.015Z</time></trkpt><trkpt lat="45.81026821131396" lon="8.365914032531858"><ele>431.66666666666663</ele><time>2026-04-19T14:46:14.015Z</time></trkpt><trkpt lat="45.81016065860861" lon="8.366118628961734"><ele>428.0</ele><time>2026-04-19T14:46:15.015Z</time></trkpt><trkpt lat="45.81004874947384" lon="8.366328628126466"><ele>431.3333333333333</ele><time>2026-04-19T14:46:16.015Z</time></trkpt><trkpt lat="45.80993082412611" lon="8.366541803192582"><ele>434.66666666666663</ele><time>2026-04-19T14:46:17.015Z</time></trkpt><trkpt lat="45.80981713861276" lon="8.366766368288497"><ele>438.0</ele><time>2026-04-19T14:46:18.015Z</time></trkpt><trkpt lat="45.80970978174894" lon="8.367009790292334"><ele>442.0</ele><time>2026-04-19T14:46:19.015Z</time></trkpt><trkpt lat="45.809614711897986" lon="8.367255472660004"><ele>446.0</ele><time>2026-04-19T14:46:20.015Z</time></trkpt><trkpt lat="45.80952892055615" lon="8.367492808621343"><ele>450.0</ele><time>2026-04-19T14:46:21.015Z</time></trkpt><trkpt lat="45.80944632541833" lon="8.367716939352803"><ele>450.0</ele><time>2026-04-19T14:46:22.015Z</time></trkpt><trkpt lat="45.80936551050656" lon="8.36792764568582"><ele>450.0</ele><time>2026-04-19T14:46:23.015Z</time></trkpt><trkpt lat="45.8092715293303" lon="8.368110247950927"><ele>450.0</ele><time>2026-04-19T14:46:24.015Z</time></trkpt><trkpt lat="45.80915530797038" lon="8.368257429521496"><ele>446.0</ele><time>2026-04-19T14:46:25.015Z</time></trkpt><trkpt lat="45.809035308412014" lon="8.368368947336409"><ele>442.0</ele><time>2026-04-19T14:46:26.015Z</time></trkpt><trkpt lat="45.8089320217741" lon="8.368479123491106"><ele>438.0</ele><time>2026-04-19T14:46:27.015Z</time></trkpt><trkpt lat="45.80885879468594" lon="8.368611590780397"><ele>434.0</ele><time>2026-04-19T14:46:28.015Z</time></trkpt><trkpt lat="45.80880400170017" lon="8.368781511652937"><ele>440.0</ele><time>2026-04-19T14:46:29.015Z</time></trkpt><trkpt lat="45.80875308413852" lon="8.368967658192958"><ele>446.0</ele><time>2026-04-19T14:46:30.015Z</time></trkpt><trkpt lat="45.80870541346822" lon="8.369164755386022"><ele>452.0</ele><time>2026-04-19T14:46:31.015Z</time></trkpt><trkpt lat="45.80864718720083" lon="8.369350729003674"><ele>458.0</ele><time>2026-04-19T14:46:32.015Z</time></trkpt><trkpt lat="45.80856407688903" lon="8.369509575847747"><ele>453.0</ele><time>2026-04-19T14:46:33.015Z</time></trkpt><trkpt lat="45.80846435980705" lon="8.369650804556688"><ele>448.0</ele><time>2026-04-19T14:46:34.015Z</time></trkpt><trkpt lat="45.808352594604905" lon="8.369768228162695"><ele>443.0</ele><time>2026-04-19T14:46:35.015Z</time></trkpt><trkpt lat="45.808218779603756" lon="8.369846266034047"><ele>438.0</ele><time>2026-04-19T14:46:36.015Z</time></trkpt><trkpt lat="45.80809831804334" lon="8.369910276392384"><ele>438.0</ele><time>2026-04-19T14:46:37.015Z</time></trkpt><trkpt lat="45.80798278589484" lon="8.37001441899402"><ele>438.0</ele><time>2026-04-19T14:46:38.015Z</time></trkpt><trkpt lat="45.80789175829696" lon="8.370167327288659"><ele>438.0</ele><time>2026-04-19T14:46:39.015Z</time></trkpt><trkpt lat="45.80780799493123" lon="8.370337084818221"><ele>438.0</ele><time>2026-04-19T14:46:40.015Z</time></trkpt><trkpt lat="45.80771475825116" lon="8.37052077752381"><ele>430.33333333333337</ele><time>2026-04-19T14:46:41.015Z</time></trkpt><trkpt lat="45.80762101014512" lon="8.370723419482083"><ele>422.6666666666667</ele><time>2026-04-19T14:46:42.015Z</time></trkpt><trkpt lat="45.80751628615298" lon="8.370925870673027"><ele>415.0</ele><time>2026-04-19T14:46:43.015Z</time></trkpt><trkpt lat="45.80741626953043" lon="8.37112127058834"><ele>415.0</ele><time>2026-04-19T14:46:44.015Z</time></trkpt><trkpt lat="45.80733366823479" lon="8.37134346013079"><ele>415.0</ele><time>2026-04-19T14:46:45.016Z</time></trkpt><trkpt lat="45.80726856487424" lon="8.371557478412939"><ele>415.0</ele><time>2026-04-19T14:46:46.016Z</time></trkpt><trkpt lat="45.807212612700624" lon="8.37176394236189"><ele>419.33333333333337</ele><time>2026-04-19T14:46:47.016Z</time></trkpt><trkpt lat="45.80718138730733" lon="8.37197593842939"><ele>423.66666666666663</ele><time>2026-04-19T14:46:48.016Z</time></trkpt><trkpt lat="45.807182640833915" lon="8.372197909086804"><ele>428.0</ele><time>2026-04-19T14:46:49.016Z</time></trkpt><trkpt lat="45.80719058738772" lon="8.372413201673783"><ele>433.0</ele><time>2026-04-19T14:46:50.016Z</time></trkpt><trkpt lat="45.80717533478076" lon="8.372621478207801"><ele>438.0</ele><time>2026-04-19T14:46:51.016Z</time></trkpt><trkpt lat="45.80711033341312" lon="8.372813036312479"><ele>443.0</ele><time>2026-04-19T14:46:52.016Z</time></trkpt><trkpt lat="45.8070220747598" lon="8.372994327894212"><ele>448.0</ele><time>2026-04-19T14:46:53.016Z</time></trkpt><trkpt lat="45.80692717585652" lon="8.373186736725952"><ele>452.33333333333337</ele><time>2026-04-19T14:46:54.016Z</time></trkpt><trkpt lat="45.806846474346045" lon="8.37339226176245"><ele>456.66666666666663</ele><time>2026-04-19T14:46:55.016Z</time></trkpt><trkpt lat="45.806787438341914" lon="8.373622371232054"><ele>461.0</ele><time>2026-04-19T14:46:56.016Z</time></trkpt><trkpt lat="45.80674502766638" lon="8.373861822912636"><ele>444.3333333333333</ele><time>2026-04-19T14:46:57.016Z</time></trkpt><trkpt lat="45.80671727719384" lon="8.374098390319402"><ele>427.66666666666663</ele><time>2026-04-19T14:46:58.016Z</time></trkpt><trkpt lat="45.80668617604216" lon="8.374326310765749"><ele>411.0</ele><time>2026-04-19T14:46:59.016Z</time></trkpt><trkpt lat="45.806656986447685" lon="8.374547035187115"><ele>414.66666666666663</ele><time>2026-04-19T14:47:00.016Z</time></trkpt><trkpt lat="45.806609522867575" lon="8.374767124080009"><ele>418.3333333333333</ele><time>2026-04-19T14:47:01.016Z</time></trkpt><trkpt lat="45.80653897227069" lon="8.374974095364594"><ele>422.0</ele><time>2026-04-19T14:47:02.016Z</time></trkpt><trkpt lat="45.80643781170008" lon="8.375174619253677"><ele>422.0</ele><time>2026-04-19T14:47:03.016Z</time></trkpt><trkpt lat="45.80633579550595" lon="8.375361698523596"><ele>422.0</ele><time>2026-04-19T14:47:04.016Z</time></trkpt><trkpt lat="45.80621169698789" lon="8.375517018709877"><ele>422.0</ele><time>2026-04-19T14:47:05.016Z</time></trkpt><trkpt lat="45.806080649279295" lon="8.37564926431055"><ele>415.66666666666663</ele><time>2026-04-19T14:47:06.016Z</time></trkpt><trkpt lat="45.80593922026221" lon="8.375774302512198"><ele>409.33333333333337</ele><time>2026-04-19T14:47:07.016Z</time></trkpt><trkpt lat="45.805810415404586" lon="8.375931884782048"><ele>403.0</ele><time>2026-04-19T14:47:08.016Z</time></trkpt><trkpt lat="45.80572453505402" lon="8.376121402340646"><ele>403.0</ele><time>2026-04-19T14:47:09.016Z</time></trkpt><trkpt lat="45.80565482378339" lon="8.376288001100459"><ele>403.0</ele><time>2026-04-19T14:47:10.016Z</time></trkpt><trkpt lat="45.80557932228557" lon="8.376456358359786"><ele>403.0</ele><time>2026-04-19T14:47:11.016Z</time></trkpt><trkpt lat="45.80548927200167" lon="8.376598184214943"><ele>403.0</ele><time>2026-04-19T14:47:12.016Z</time></trkpt><trkpt lat="45.80537501272473" lon="8.376672542605636"><ele>401.0</ele><time>2026-04-19T14:47:13.016Z</time></trkpt><trkpt lat="45.80526663261069" lon="8.376719568442104"><ele>399.0</ele><time>2026-04-19T14:47:14.016Z</time></trkpt><trkpt lat="45.805153933808924" lon="8.376726093338322"><ele>397.0</ele><time>2026-04-19T14:47:15.016Z</time></trkpt><trkpt lat="45.80505042988705" lon="8.376686707679836"><ele>395.0</ele><time>2026-04-19T14:47:16.016Z</time></trkpt><trkpt lat="45.80493492002495" lon="8.376663074469933"><ele>395.0</ele><time>2026-04-19T14:47:17.016Z</time></trkpt><trkpt lat="45.80480047227217" lon="8.376678335484717"><ele>395.0</ele><time>2026-04-19T14:47:18.016Z</time></trkpt><trkpt lat="45.804682613176595" lon="8.376729462111166"><ele>395.0</ele><time>2026-04-19T14:47:19.017Z</time></trkpt><trkpt lat="45.80458167593198" lon="8.376801011086746"><ele>395.0</ele><time>2026-04-19T14:47:20.017Z</time></trkpt><trkpt lat="45.80450052852311" lon="8.376893972506014"><ele>395.0</ele><time>2026-04-19T14:47:21.017Z</time></trkpt><trkpt lat="45.80444476625365" lon="8.377039526583816"><ele>395.0</ele><time>2026-04-19T14:47:22.017Z</time></trkpt><trkpt lat="45.80439035105381" lon="8.377187532431819"><ele>395.0</ele><time>2026-04-19T14:47:23.017Z</time></trkpt><trkpt lat="45.80432403860499" lon="8.377354464793324"><ele>395.0</ele><time>2026-04-19T14:47:24.017Z</time></trkpt><trkpt lat="45.804243282575094" lon="8.377520013806167"><ele>397.5</ele><time>2026-04-19T14:47:25.017Z</time></trkpt><trkpt lat="45.804155294253306" lon="8.377681915026379"><ele>400.0</ele><time>2026-04-19T14:47:26.017Z</time></trkpt><trkpt lat="45.8040663603837" lon="8.37782805145983"><ele>402.5</ele><time>2026-04-19T14:47:27.017Z</time></trkpt><trkpt lat="45.803983660187605" lon="8.377969126272722"><ele>405.0</ele><time>2026-04-19T14:47:28.017Z</time></trkpt><trkpt lat="45.80391732064762" lon="8.3780921805104"><ele>406.0</ele><time>2026-04-19T14:47:29.017Z</time></trkpt><trkpt lat="45.80386637231467" lon="8.378184286157374"><ele>407.0</ele><time>2026-04-19T14:47:30.017Z</time></trkpt><trkpt lat="45.803784384838934" lon="8.37825298425359"><ele>408.0</ele><time>2026-04-19T14:47:32.017Z</time></trkpt><trkpt lat="45.80366302375849" lon="8.378196768736341"><ele>409.0</ele><time>2026-04-19T14:47:34.017Z</time></trkpt><trkpt lat="45.80358243104063" lon="8.378158705728197"><ele>410.0</ele><time>2026-04-19T14:47:35.017Z</time></trkpt><trkpt lat="45.8034926823927" lon="8.378114591409759"><ele>406.8333333333333</ele><time>2026-04-19T14:47:36.017Z</time></trkpt><trkpt lat="45.80340093705908" lon="8.378065749306323"><ele>403.66666666666663</ele><time>2026-04-19T14:47:37.017Z</time></trkpt><trkpt lat="45.80332211145909" lon="8.378029525738244"><ele>400.5</ele><time>2026-04-19T14:47:38.017Z</time></trkpt><trkpt lat="45.80325026745612" lon="8.378016489713648"><ele>397.33333333333337</ele><time>2026-04-19T14:47:39.017Z</time></trkpt><trkpt lat="45.80318084514013" lon="8.378029568023074"><ele>394.1666666666667</ele><time>2026-04-19T14:47:40.015Z</time></trkpt><trkpt lat="45.8031158034795" lon="8.378092093585977"><ele>391.0</ele><time>2026-04-19T14:47:41.015Z</time></trkpt><trkpt lat="45.80305485232997" lon="8.378183220142153"><ele>391.0</ele><time>2026-04-19T14:47:42.015Z</time></trkpt><trkpt lat="45.80299090920755" lon="8.378296164817915"><ele>391.0</ele><time>2026-04-19T14:47:43.015Z</time></trkpt><trkpt lat="45.80292348274619" lon="8.378413047084345"><ele>391.0</ele><time>2026-04-19T14:47:44.015Z</time></trkpt><trkpt lat="45.80285928347872" lon="8.378522661172756"><ele>391.0</ele><time>2026-04-19T14:47:45.015Z</time></trkpt><trkpt lat="45.802794483253656" lon="8.378641509163744"><ele>391.0</ele><time>2026-04-19T14:47:46.015Z</time></trkpt><trkpt lat="45.80274874644767" lon="8.378792550908269"><ele>390.5</ele><time>2026-04-19T14:47:47.015Z</time></trkpt><trkpt lat="45.80270848685464" lon="8.37895591978938"><ele>390.0</ele><time>2026-04-19T14:47:48.015Z</time></trkpt><trkpt lat="45.80264412265188" lon="8.379108439699362"><ele>389.5</ele><time>2026-04-19T14:47:49.015Z</time></trkpt><trkpt lat="45.80258144088958" lon="8.379252605278579"><ele>389.0</ele><time>2026-04-19T14:47:50.015Z</time></trkpt><trkpt lat="45.80248820565412" lon="8.379383101576078"><ele>386.5</ele><time>2026-04-19T14:47:51.015Z</time></trkpt><trkpt lat="45.80238665486209" lon="8.37951967503556"><ele>384.0</ele><time>2026-04-19T14:47:52.016Z</time></trkpt><trkpt lat="45.80228383539957" lon="8.379656879118308"><ele>381.5</ele><time>2026-04-19T14:47:53.015Z</time></trkpt><trkpt lat="45.80217446851578" lon="8.37979140098553"><ele>379.0</ele><time>2026-04-19T14:47:54.015Z</time></trkpt><trkpt lat="45.80206931499726" lon="8.37991958952173"><ele>379.0</ele><time>2026-04-19T14:47:55.015Z</time></trkpt><trkpt lat="45.801971768515756" lon="8.380062835306541"><ele>379.0</ele><time>2026-04-19T14:47:56.015Z</time></trkpt><trkpt lat="45.80188312358075" lon="8.380225210571735"><ele>379.0</ele><time>2026-04-19T14:47:57.015Z</time></trkpt><trkpt lat="45.8018140799743" lon="8.38040658722028"><ele>379.0</ele><time>2026-04-19T14:47:58.015Z</time></trkpt><trkpt lat="45.80175160193965" lon="8.38058911497565"><ele>381.25</ele><time>2026-04-19T14:47:59.015Z</time></trkpt><trkpt lat="45.801702101041734" lon="8.380779811147859"><ele>383.5</ele><time>2026-04-19T14:48:00.015Z</time></trkpt><trkpt lat="45.80165268200199" lon="8.380948648540047"><ele>385.75</ele><time>2026-04-19T14:48:01.015Z</time></trkpt><trkpt lat="45.801612042481544" lon="8.381106706875046"><ele>388.0</ele><time>2026-04-19T14:48:02.015Z</time></trkpt><trkpt lat="45.80156978228489" lon="8.38125037019983"><ele>386.00000000000006</ele><time>2026-04-19T14:48:03.015Z</time></trkpt><trkpt lat="45.80152732897846" lon="8.381377418689679"><ele>384.0</ele><time>2026-04-19T14:48:04.015Z</time></trkpt><trkpt lat="45.80147893784092" lon="8.381467852266557"><ele>382.0</ele><time>2026-04-19T14:48:05.015Z</time></trkpt><trkpt lat="45.80141255416274" lon="8.381528875950158"><ele>380.0</ele><time>2026-04-19T14:48:06.015Z</time></trkpt><trkpt lat="45.80133221978935" lon="8.381548095984012"><ele>378.0</ele><time>2026-04-19T14:48:07.015Z</time></trkpt><trkpt lat="45.80123775646134" lon="8.381540907416067"><ele>376.0</ele><time>2026-04-19T14:48:08.015Z</time></trkpt><trkpt lat="45.80113686408089" lon="8.381522748336616"><ele>376.0</ele><time>2026-04-19T14:48:09.015Z</time></trkpt><trkpt lat="45.801030800617525" lon="8.381496880414462"><ele>376.0</ele><time>2026-04-19T14:48:10.016Z</time></trkpt><trkpt lat="45.80091895030145" lon="8.381463400962145"><ele>376.0</ele><time>2026-04-19T14:48:11.016Z</time></trkpt><trkpt lat="45.8008158041721" lon="8.381427805462637"><ele>376.0</ele><time>2026-04-19T14:48:12.016Z</time></trkpt><trkpt lat="45.8007207262958" lon="8.381397464266778"><ele>376.0</ele><time>2026-04-19T14:48:13.016Z</time></trkpt><trkpt lat="45.80063847383667" lon="8.381358227967535"><ele>379.6</ele><time>2026-04-19T14:48:14.016Z</time></trkpt><trkpt lat="45.8005648954796" lon="8.381298744239155"><ele>383.20000000000005</ele><time>2026-04-19T14:48:15.016Z</time></trkpt><trkpt lat="45.80050032900121" lon="8.38119994618812"><ele>386.79999999999995</ele><time>2026-04-19T14:48:16.016Z</time></trkpt><trkpt lat="45.800442004235165" lon="8.38107005301761"><ele>390.4</ele><time>2026-04-19T14:48:17.016Z</time></trkpt><trkpt lat="45.80037777743513" lon="8.380926711853633"><ele>394.0</ele><time>2026-04-19T14:48:18.016Z</time></trkpt><trkpt lat="45.80030729547805" lon="8.380779964900237"><ele>394.0</ele><time>2026-04-19T14:48:19.016Z</time></trkpt><trkpt lat="45.80024469596433" lon="8.380638468055364"><ele>394.0</ele><time>2026-04-19T14:48:20.016Z</time></trkpt><trkpt lat="45.800201749003335" lon="8.38049941719838"><ele>394.0</ele><time>2026-04-19T14:48:21.016Z</time></trkpt><trkpt lat="45.80019318314384" lon="8.380356883573166"><ele>394.0</ele><time>2026-04-19T14:48:22.016Z</time></trkpt><trkpt lat="45.800199828500496" lon="8.380200569154724"><ele>394.0</ele><time>2026-04-19T14:48:23.016Z</time></trkpt><trkpt lat="45.80017829100853" lon="8.380041334379017"><ele>393.6</ele><time>2026-04-19T14:48:24.016Z</time></trkpt><trkpt lat="45.800121194465206" lon="8.379883949440867"><ele>393.2</ele><time>2026-04-19T14:48:25.016Z</time></trkpt><trkpt lat="45.80005366005485" lon="8.379738672838034"><ele>392.8</ele><time>2026-04-19T14:48:26.016Z</time></trkpt><trkpt lat="45.79999040777906" lon="8.379616706081901"><ele>392.40000000000003</ele><time>2026-04-19T14:48:27.016Z</time></trkpt><trkpt lat="45.79992109333541" lon="8.379522036268302"><ele>392.0</ele><time>2026-04-19T14:48:28.016Z</time></trkpt><trkpt lat="45.79984856393862" lon="8.37947125974992"><ele>394.8</ele><time>2026-04-19T14:48:29.016Z</time></trkpt><trkpt lat="45.799747834815825" lon="8.379451363436958"><ele>397.6</ele><time>2026-04-19T14:48:30.016Z</time></trkpt><trkpt lat="45.799625857105376" lon="8.379450504500522"><ele>400.40000000000003</ele><time>2026-04-19T14:48:31.016Z</time></trkpt><trkpt lat="45.799519521294776" lon="8.379465202535167"><ele>403.20000000000005</ele><time>2026-04-19T14:48:32.016Z</time></trkpt><trkpt lat="45.7994364287435" lon="8.379527554867028"><ele>406.0</ele><time>2026-04-19T14:48:33.016Z</time></trkpt><trkpt lat="45.79936614036503" lon="8.379633100310791"><ele>402.25</ele><time>2026-04-19T14:48:34.016Z</time></trkpt><trkpt lat="45.79931286687724" lon="8.379770136898923"><ele>398.5</ele><time>2026-04-19T14:48:35.016Z</time></trkpt><trkpt lat="45.799253985532204" lon="8.379913042841489"><ele>394.75</ele><time>2026-04-19T14:48:36.016Z</time></trkpt><trkpt lat="45.799171592015504" lon="8.380040252601498"><ele>391.0</ele><time>2026-04-19T14:48:37.016Z</time></trkpt><trkpt lat="45.79907439973081" lon="8.380146208988469"><ele>391.0</ele><time>2026-04-19T14:48:38.016Z</time></trkpt><trkpt lat="45.798967281376335" lon="8.380230441222738"><ele>391.0</ele><time>2026-04-19T14:48:39.016Z</time></trkpt><trkpt lat="45.79885537812441" lon="8.380278684513646"><ele>391.0</ele><time>2026-04-19T14:48:40.016Z</time></trkpt><trkpt lat="45.79874043780568" lon="8.38028132114677"><ele>391.0</ele><time>2026-04-19T14:48:41.016Z</time></trkpt><trkpt lat="45.79861884101334" lon="8.380257585774274"><ele>389.75</ele><time>2026-04-19T14:48:42.016Z</time></trkpt><trkpt lat="45.79849853056094" lon="8.380203140428826"><ele>388.5</ele><time>2026-04-19T14:48:43.017Z</time></trkpt><trkpt lat="45.79838751252496" lon="8.380128812330646"><ele>387.25</ele><time>2026-04-19T14:48:44.017Z</time></trkpt><trkpt lat="45.798276627099625" lon="8.380032985374225"><ele>386.0</ele><time>2026-04-19T14:48:45.017Z</time></trkpt><trkpt lat="45.798159948670914" lon="8.379923533593889"><ele>386.0</ele><time>2026-04-19T14:48:46.017Z</time></trkpt><trkpt lat="45.79803780380108" lon="8.37981745437287"><ele>386.0</ele><time>2026-04-19T14:48:47.017Z</time></trkpt><trkpt lat="45.797912166456356" lon="8.37971288300202"><ele>386.0</ele><time>2026-04-19T14:48:48.017Z</time></trkpt><trkpt lat="45.79777886239024" lon="8.379612668119677"><ele>386.0</ele><time>2026-04-19T14:48:49.017Z</time></trkpt><trkpt lat="45.7976484058567" lon="8.37952416011766"><ele>387.75</ele><time>2026-04-19T14:48:50.017Z</time></trkpt><trkpt lat="45.797524237561476" lon="8.379442582332466"><ele>389.5</ele><time>2026-04-19T14:48:51.017Z</time></trkpt><trkpt lat="45.79740131964353" lon="8.37936059493188"><ele>391.25</ele><time>2026-04-19T14:48:52.017Z</time></trkpt><trkpt lat="45.79727647944463" lon="8.379275242796133"><ele>393.0</ele><time>2026-04-19T14:48:53.017Z</time></trkpt><trkpt lat="45.797153648795685" lon="8.379187135987118"><ele>393.0</ele><time>2026-04-19T14:48:54.017Z</time></trkpt><trkpt lat="45.79703088166927" lon="8.379105315125651"><ele>393.0</ele><time>2026-04-19T14:48:55.017Z</time></trkpt><trkpt lat="45.796913254799044" lon="8.379029129473789"><ele>393.0</ele><time>2026-04-19T14:48:56.017Z</time></trkpt><trkpt lat="45.796802578402655" lon="8.3789588988178"><ele>393.0</ele><time>2026-04-19T14:48:57.017Z</time></trkpt><trkpt lat="45.796691682879604" lon="8.378914712527617"><ele>390.0</ele><time>2026-04-19T14:48:58.017Z</time></trkpt><trkpt lat="45.796572779785734" lon="8.378895200134272"><ele>387.0</ele><time>2026-04-19T14:48:59.017Z</time></trkpt><trkpt lat="45.79645038103816" lon="8.378906150500214"><ele>384.0</ele><time>2026-04-19T14:49:00.017Z</time></trkpt><trkpt lat="45.796326559581466" lon="8.378923685212946"><ele>381.0</ele><time>2026-04-19T14:49:01.017Z</time></trkpt><trkpt lat="45.796208800211865" lon="8.378936645692084"><ele>381.0</ele><time>2026-04-19T14:49:02.017Z</time></trkpt><trkpt lat="45.79609516559834" lon="8.378950333386953"><ele>381.0</ele><time>2026-04-19T14:49:03.017Z</time></trkpt><trkpt lat="45.795983354041326" lon="8.3789617046979"><ele>381.0</ele><time>2026-04-19T14:49:04.017Z</time></trkpt><trkpt lat="45.79587739834155" lon="8.378972149730826"><ele>381.0</ele><time>2026-04-19T14:49:05.017Z</time></trkpt><trkpt lat="45.79578055202038" lon="8.378978265318775"><ele>381.0</ele><time>2026-04-19T14:49:06.017Z</time></trkpt><trkpt lat="45.7956905169624" lon="8.378966523425763"><ele>380.4</ele><time>2026-04-19T14:49:07.017Z</time></trkpt><trkpt lat="45.79559765871091" lon="8.378944945755848"><ele>379.8</ele><time>2026-04-19T14:49:08.017Z</time></trkpt><trkpt lat="45.79550525588222" lon="8.378878992785339"><ele>379.2</ele><time>2026-04-19T14:49:09.017Z</time></trkpt><trkpt lat="45.79541658369763" lon="8.378794278996521"><ele>378.59999999999997</ele><time>2026-04-19T14:49:10.017Z</time></trkpt><trkpt lat="45.795327290001545" lon="8.378696617635471"><ele>378.0</ele><time>2026-04-19T14:49:11.017Z</time></trkpt><trkpt lat="45.79523215052294" lon="8.378603712793922"><ele>380.0</ele><time>2026-04-19T14:49:12.017Z</time></trkpt><trkpt lat="45.79513233304443" lon="8.378508336895436"><ele>382.0</ele><time>2026-04-19T14:49:13.017Z</time></trkpt><trkpt lat="45.79503216985843" lon="8.378405240598697"><ele>384.0</ele><time>2026-04-19T14:49:14.017Z</time></trkpt><trkpt lat="45.79492924532365" lon="8.378297202895038"><ele>386.0</ele><time>2026-04-19T14:49:15.017Z</time></trkpt><trkpt lat="45.79482497547064" lon="8.37819053375312"><ele>386.0</ele><time>2026-04-19T14:49:16.018Z</time></trkpt><trkpt lat="45.794721858309195" lon="8.37808343580874"><ele>386.0</ele><time>2026-04-19T14:49:17.018Z</time></trkpt><trkpt lat="45.79461609692067" lon="8.377974436653192"><ele>386.0</ele><time>2026-04-19T14:49:18.018Z</time></trkpt><trkpt lat="45.79450856527319" lon="8.377866151797315"><ele>386.0</ele><time>2026-04-19T14:49:19.018Z</time></trkpt><trkpt lat="45.794403023803" lon="8.37776733041122"><ele>388.0</ele><time>2026-04-19T14:49:20.018Z</time></trkpt><trkpt lat="45.79429297992741" lon="8.377689697361191"><ele>390.0</ele><time>2026-04-19T14:49:21.018Z</time></trkpt><trkpt lat="45.79417598089349" lon="8.377635371237474"><ele>392.0</ele><time>2026-04-19T14:49:22.018Z</time></trkpt><trkpt lat="45.79405220049981" lon="8.377608253285787"><ele>394.0</ele><time>2026-04-19T14:49:23.018Z</time></trkpt><trkpt lat="45.793924804538015" lon="8.377594409572948"><ele>394.0</ele><time>2026-04-19T14:49:24.018Z</time></trkpt><trkpt lat="45.793796845054665" lon="8.377591680297053"><ele>394.0</ele><time>2026-04-19T14:49:25.018Z</time></trkpt><trkpt lat="45.793670693626126" lon="8.377585493717522"><ele>394.0</ele><time>2026-04-19T14:49:26.018Z</time></trkpt><trkpt lat="45.79354654732094" lon="8.377576392799208"><ele>394.0</ele><time>2026-04-19T14:49:27.018Z</time></trkpt><trkpt lat="45.79342073779385" lon="8.377566540766814"><ele>393.25</ele><time>2026-04-19T14:49:28.018Z</time></trkpt><trkpt lat="45.793294229833585" lon="8.377561458191167"><ele>392.5</ele><time>2026-04-19T14:49:29.018Z</time></trkpt><trkpt lat="45.793167761130896" lon="8.377553210070198"><ele>391.75</ele><time>2026-04-19T14:49:30.018Z</time></trkpt><trkpt lat="45.79304960520762" lon="8.377539108849719"><ele>391.0</ele><time>2026-04-19T14:49:31.018Z</time></trkpt><trkpt lat="45.792933453224734" lon="8.377524103850591"><ele>391.0</ele><time>2026-04-19T14:49:32.018Z</time></trkpt><trkpt lat="45.79281520489324" lon="8.377511457330353"><ele>391.0</ele><time>2026-04-19T14:49:33.018Z</time></trkpt><trkpt lat="45.7926901772365" lon="8.377497510806975"><ele>391.0</ele><time>2026-04-19T14:49:34.018Z</time></trkpt><trkpt lat="45.79256318363408" lon="8.377484534854561"><ele>391.0</ele><time>2026-04-19T14:49:35.018Z</time></trkpt><trkpt lat="45.792433435556816" lon="8.37747971241246"><ele>391.5</ele><time>2026-04-19T14:49:36.018Z</time></trkpt><trkpt lat="45.79230412988635" lon="8.377485250829956"><ele>392.0</ele><time>2026-04-19T14:49:37.018Z</time></trkpt><trkpt lat="45.79217409770643" lon="8.377494658764336"><ele>392.5</ele><time>2026-04-19T14:49:38.018Z</time></trkpt><trkpt lat="45.79204490891259" lon="8.377513195650915"><ele>393.0</ele><time>2026-04-19T14:49:39.018Z</time></trkpt><trkpt lat="45.79191634779988" lon="8.377532883001292"><ele>393.25</ele><time>2026-04-19T14:49:40.018Z</time></trkpt><trkpt lat="45.79179027372905" lon="8.377547265745747"><ele>393.5</ele><time>2026-04-19T14:49:41.018Z</time></trkpt><trkpt lat="45.791667611384504" lon="8.377567597400736"><ele>393.75</ele><time>2026-04-19T14:49:42.018Z</time></trkpt><trkpt lat="45.79154686093339" lon="8.377585182080878"><ele>394.0</ele><time>2026-04-19T14:49:43.018Z</time></trkpt><trkpt lat="45.791431756983606" lon="8.377599823424069"><ele>394.0</ele><time>2026-04-19T14:49:44.018Z</time></trkpt><trkpt lat="45.79131259175925" lon="8.377618245267458"><ele>394.0</ele><time>2026-04-19T14:49:45.018Z</time></trkpt><trkpt lat="45.7911869905877" lon="8.37763779678307"><ele>394.0</ele><time>2026-04-19T14:49:46.016Z</time></trkpt><trkpt lat="45.791056239856744" lon="8.377659110614953"><ele>394.0</ele><time>2026-04-19T14:49:47.016Z</time></trkpt><trkpt lat="45.79092458207894" lon="8.377694911264804"><ele>394.25</ele><time>2026-04-19T14:49:48.016Z</time></trkpt><trkpt lat="45.79079562777847" lon="8.377737070085233"><ele>394.5</ele><time>2026-04-19T14:49:49.016Z</time></trkpt><trkpt lat="45.790664719603114" lon="8.37778561532456"><ele>394.75</ele><time>2026-04-19T14:49:50.016Z</time></trkpt><trkpt lat="45.79053042695712" lon="8.377849028650223"><ele>395.0</ele><time>2026-04-19T14:49:51.016Z</time></trkpt><trkpt lat="45.79039320501237" lon="8.377917643865153"><ele>395.0</ele><time>2026-04-19T14:49:52.016Z</time></trkpt><trkpt lat="45.790253685833235" lon="8.377997574375732"><ele>395.0</ele><time>2026-04-19T14:49:53.016Z</time></trkpt><trkpt lat="45.79010907648368" lon="8.3780633031694"><ele>395.0</ele><time>2026-04-19T14:49:54.016Z</time></trkpt><trkpt lat="45.78996290750847" lon="8.378133490713191"><ele>393.0</ele><time>2026-04-19T14:49:55.016Z</time></trkpt><trkpt lat="45.78981494572416" lon="8.378205321622358"><ele>391.0</ele><time>2026-04-19T14:49:56.016Z</time></trkpt><trkpt lat="45.789665904514415" lon="8.378269812501157"><ele>389.0</ele><time>2026-04-19T14:49:57.016Z</time></trkpt><trkpt lat="45.78951602880067" lon="8.378334816880615"><ele>389.0</ele><time>2026-04-19T14:49:58.017Z</time></trkpt><trkpt lat="45.789366093446965" lon="8.378397759426957"><ele>389.0</ele><time>2026-04-19T14:49:59.017Z</time></trkpt><trkpt lat="45.789214606745155" lon="8.378470830883765"><ele>389.0</ele><time>2026-04-19T14:50:00.017Z</time></trkpt><trkpt lat="45.789067713953955" lon="8.378542144990494"><ele>390.0</ele><time>2026-04-19T14:50:01.017Z</time></trkpt><trkpt lat="45.78892225880624" lon="8.378610705562632"><ele>391.0</ele><time>2026-04-19T14:50:02.017Z</time></trkpt><trkpt lat="45.78877407110643" lon="8.378682934405349"><ele>392.0</ele><time>2026-04-19T14:50:03.017Z</time></trkpt><trkpt lat="45.78862592926588" lon="8.378742823301435"><ele>390.75</ele><time>2026-04-19T14:50:04.017Z</time></trkpt><trkpt lat="45.788480273796445" lon="8.378789444395261"><ele>389.5</ele><time>2026-04-19T14:50:05.017Z</time></trkpt><trkpt lat="45.788334512575204" lon="8.378824727890475"><ele>388.25</ele><time>2026-04-19T14:50:06.017Z</time></trkpt><trkpt lat="45.78819297550746" lon="8.378847208662457"><ele>387.0</ele><time>2026-04-19T14:50:07.017Z</time></trkpt><trkpt lat="45.78805146850223" lon="8.378871931169138"><ele>387.0</ele><time>2026-04-19T14:50:08.017Z</time></trkpt><trkpt lat="45.787910118210505" lon="8.378889615314257"><ele>387.0</ele><time>2026-04-19T14:50:09.017Z</time></trkpt><trkpt lat="45.787761732982496" lon="8.37890876239732"><ele>387.0</ele><time>2026-04-19T14:50:10.017Z</time></trkpt><trkpt lat="45.787608950837004" lon="8.378911305005758"><ele>387.0</ele><time>2026-04-19T14:50:11.017Z</time></trkpt><trkpt lat="45.78745435140027" lon="8.378914092250003"><ele>387.75</ele><time>2026-04-19T14:50:12.017Z</time></trkpt><trkpt lat="45.787305827366595" lon="8.378904463675214"><ele>388.5</ele><time>2026-04-19T14:50:13.017Z</time></trkpt><trkpt lat="45.78716327204582" lon="8.378890569415905"><ele>389.25</ele><time>2026-04-19T14:50:14.017Z</time></trkpt><trkpt lat="45.78701946110118" lon="8.37887452074948"><ele>390.0</ele><time>2026-04-19T14:50:15.017Z</time></trkpt><trkpt lat="45.78687525214661" lon="8.378862426726327"><ele>393.0</ele><time>2026-04-19T14:50:16.017Z</time></trkpt><trkpt lat="45.78673471022329" lon="8.378839863359737"><ele>396.0</ele><time>2026-04-19T14:50:17.017Z</time></trkpt><trkpt lat="45.7865965485439" lon="8.378828593458708"><ele>399.0</ele><time>2026-04-19T14:50:18.017Z</time></trkpt><trkpt lat="45.78646826644875" lon="8.378806319748024"><ele>402.0</ele><time>2026-04-19T14:50:19.017Z</time></trkpt><trkpt lat="45.78635483492969" lon="8.378784155865802"><ele>402.0</ele><time>2026-04-19T14:50:20.017Z</time></trkpt><trkpt lat="45.78624163945792" lon="8.378778817344847"><ele>402.0</ele><time>2026-04-19T14:50:21.017Z</time></trkpt><trkpt lat="45.78611951127977" lon="8.378823328568373"><ele>402.0</ele><time>2026-04-19T14:50:22.017Z</time></trkpt><trkpt lat="45.785991809055496" lon="8.378894397571457"><ele>402.0</ele><time>2026-04-19T14:50:23.017Z</time></trkpt><trkpt lat="45.785857896421135" lon="8.378967751736779"><ele>399.0</ele><time>2026-04-19T14:50:24.017Z</time></trkpt><trkpt lat="45.78572333539186" lon="8.379049489916598"><ele>396.0</ele><time>2026-04-19T14:50:25.017Z</time></trkpt><trkpt lat="45.78559339840142" lon="8.379143603387801"><ele>393.0</ele><time>2026-04-19T14:50:26.017Z</time></trkpt><trkpt lat="45.785461640571185" lon="8.379235001919154"><ele>390.0</ele><time>2026-04-19T14:50:27.017Z</time></trkpt><trkpt lat="45.78532964462854" lon="8.379333568531683"><ele>390.0</ele><time>2026-04-19T14:50:28.017Z</time></trkpt><trkpt lat="45.785205532042426" lon="8.379458947186828"><ele>390.0</ele><time>2026-04-19T14:50:29.017Z</time></trkpt><trkpt lat="45.78510000540493" lon="8.37961060555488"><ele>390.0</ele><time>2026-04-19T14:50:30.017Z</time></trkpt><trkpt lat="45.785003345784176" lon="8.379779387620676"><ele>389.33333333333337</ele><time>2026-04-19T14:50:31.018Z</time></trkpt><trkpt lat="45.78491217910468" lon="8.379964459536968"><ele>388.6666666666667</ele><time>2026-04-19T14:50:32.018Z</time></trkpt><trkpt lat="45.78482741115567" lon="8.380141692222224"><ele>388.0</ele><time>2026-04-19T14:50:33.018Z</time></trkpt><trkpt lat="45.78474930224163" lon="8.380330023112537"><ele>388.0</ele><time>2026-04-19T14:50:34.018Z</time></trkpt><trkpt lat="45.784678860909395" lon="8.380511365993955"><ele>388.0</ele><time>2026-04-19T14:50:35.018Z</time></trkpt><trkpt lat="45.78459617442745" lon="8.380681805640668"><ele>388.0</ele><time>2026-04-19T14:50:36.018Z</time></trkpt><trkpt lat="45.78451137276412" lon="8.380838458975544"><ele>388.0</ele><time>2026-04-19T14:50:37.018Z</time></trkpt><trkpt lat="45.784422061799376" lon="8.380984842725157"><ele>389.0</ele><time>2026-04-19T14:50:38.018Z</time></trkpt><trkpt lat="45.784332155861065" lon="8.381134056243914"><ele>390.0</ele><time>2026-04-19T14:50:39.018Z</time></trkpt><trkpt lat="45.784240660502334" lon="8.381277621793936"><ele>391.0</ele><time>2026-04-19T14:50:40.018Z</time></trkpt><trkpt lat="45.784144948440314" lon="8.381407091394255"><ele>392.0</ele><time>2026-04-19T14:50:41.018Z</time></trkpt><trkpt lat="45.78405062832247" lon="8.38152958666054"><ele>392.0</ele><time>2026-04-19T14:50:42.018Z</time></trkpt><trkpt lat="45.78395814966274" lon="8.381641419533347"><ele>392.0</ele><time>2026-04-19T14:50:43.018Z</time></trkpt><trkpt lat="45.78387616672015" lon="8.381753138106227"><ele>392.0</ele><time>2026-04-19T14:50:44.018Z</time></trkpt><trkpt lat="45.78382034785448" lon="8.381872594979908"><ele>392.0</ele><time>2026-04-19T14:50:45.018Z</time></trkpt><trkpt lat="45.78378642084236" lon="8.381993777148379"><ele>392.0</ele><time>2026-04-19T14:50:46.018Z</time></trkpt><trkpt lat="45.783762740902965" lon="8.382103045496155"><ele>391.8</ele><time>2026-04-19T14:50:47.018Z</time></trkpt><trkpt lat="45.783718375212125" lon="8.382208359519955"><ele>391.6</ele><time>2026-04-19T14:50:48.018Z</time></trkpt><trkpt lat="45.7836521717705" lon="8.382307413335877"><ele>391.40000000000003</ele><time>2026-04-19T14:50:49.018Z</time></trkpt><trkpt lat="45.78356357565456" lon="8.382384041175188"><ele>391.20000000000005</ele><time>2026-04-19T14:50:50.018Z</time></trkpt><trkpt lat="45.78343982035744" lon="8.382428548606235"><ele>391.0</ele><time>2026-04-19T14:50:51.018Z</time></trkpt><trkpt lat="45.783305436631785" lon="8.382469237835808"><ele>391.0</ele><time>2026-04-19T14:50:52.018Z</time></trkpt><trkpt lat="45.783204089923196" lon="8.38251414475598"><ele>391.0</ele><time>2026-04-19T14:50:53.018Z</time></trkpt><trkpt lat="45.78307489102358" lon="8.382569908738255"><ele>391.0</ele><time>2026-04-19T14:50:54.018Z</time></trkpt><trkpt lat="45.78293670972915" lon="8.382633424432195"><ele>391.0</ele><time>2026-04-19T14:50:55.018Z</time></trkpt><trkpt lat="45.78279428912669" lon="8.382702817715328"><ele>392.6666666666667</ele><time>2026-04-19T14:50:56.018Z</time></trkpt><trkpt lat="45.78265676055591" lon="8.382776280855511"><ele>394.33333333333337</ele><time>2026-04-19T14:50:57.018Z</time></trkpt><trkpt lat="45.78250606057501" lon="8.382855500579701"><ele>396.0</ele><time>2026-04-19T14:50:58.018Z</time></trkpt><trkpt lat="45.782346264752135" lon="8.382936601343253"><ele>393.66666666666663</ele><time>2026-04-19T14:50:59.018Z</time></trkpt><trkpt lat="45.782182859786" lon="8.38301942125543"><ele>391.3333333333333</ele><time>2026-04-19T14:51:00.018Z</time></trkpt><trkpt lat="45.78201800096282" lon="8.383101639779388"><ele>389.0</ele><time>2026-04-19T14:51:01.018Z</time></trkpt><trkpt lat="45.78186299916312" lon="8.38318029422545"><ele>390.66666666666663</ele><time>2026-04-19T14:51:02.018Z</time></trkpt><trkpt lat="45.78169579510199" lon="8.383268166751915"><ele>392.33333333333337</ele><time>2026-04-19T14:51:03.018Z</time></trkpt><trkpt lat="45.78152900867392" lon="8.38334731912307"><ele>394.0</ele><time>2026-04-19T14:51:04.019Z</time></trkpt><trkpt lat="45.78136006136082" lon="8.38342331204949"><ele>394.0</ele><time>2026-04-19T14:51:05.019Z</time></trkpt><trkpt lat="45.78119071740547" lon="8.3835002042038"><ele>394.0</ele><time>2026-04-19T14:51:06.019Z</time></trkpt><trkpt lat="45.78101979728105" lon="8.383579473859342"><ele>394.0</ele><time>2026-04-19T14:51:07.019Z</time></trkpt><trkpt lat="45.780848665214734" lon="8.383661641747516"><ele>396.33333333333337</ele><time>2026-04-19T14:51:08.019Z</time></trkpt><trkpt lat="45.780674065865185" lon="8.383743858713745"><ele>398.66666666666663</ele><time>2026-04-19T14:51:09.019Z</time></trkpt><trkpt lat="45.78049849006832" lon="8.383826748940775"><ele>401.0</ele><time>2026-04-19T14:51:10.019Z</time></trkpt><trkpt lat="45.78032264754271" lon="8.383910955783577"><ele>396.3333333333333</ele><time>2026-04-19T14:51:11.019Z</time></trkpt><trkpt lat="45.78014688080197" lon="8.383989522190594"><ele>391.66666666666663</ele><time>2026-04-19T14:51:12.019Z</time></trkpt><trkpt lat="45.779969114737625" lon="8.384069881399073"><ele>387.0</ele><time>2026-04-19T14:51:13.019Z</time></trkpt><trkpt lat="45.77979321637334" lon="8.384153061601713"><ele>387.0</ele><time>2026-04-19T14:51:14.019Z</time></trkpt><trkpt lat="45.77961583923123" lon="8.384234934727779"><ele>387.0</ele><time>2026-04-19T14:51:15.019Z</time></trkpt><trkpt lat="45.779439340449464" lon="8.384316645452142"><ele>387.0</ele><time>2026-04-19T14:51:16.019Z</time></trkpt><trkpt lat="45.77926331223125" lon="8.38439957724099"><ele>388.33333333333337</ele><time>2026-04-19T14:51:17.019Z</time></trkpt><trkpt lat="45.77908418512163" lon="8.384488837268"><ele>389.6666666666667</ele><time>2026-04-19T14:51:18.019Z</time></trkpt><trkpt lat="45.778904753604415" lon="8.384581938772827"><ele>391.0</ele><time>2026-04-19T14:51:19.019Z</time></trkpt><trkpt lat="45.77872470480084" lon="8.384662291332232"><ele>389.0</ele><time>2026-04-19T14:51:20.019Z</time></trkpt><trkpt lat="45.778542006289676" lon="8.384723933965718"><ele>387.0</ele><time>2026-04-19T14:51:21.019Z</time></trkpt><trkpt lat="45.778361772703825" lon="8.384771423000739"><ele>385.0</ele><time>2026-04-19T14:51:22.019Z</time></trkpt><trkpt lat="45.77818456293925" lon="8.384819978058937"><ele>385.0</ele><time>2026-04-19T14:51:23.019Z</time></trkpt><trkpt lat="45.77801668934111" lon="8.384862914809313"><ele>385.0</ele><time>2026-04-19T14:51:24.019Z</time></trkpt><trkpt lat="45.77785368462365" lon="8.384897623318029"><ele>385.0</ele><time>2026-04-19T14:51:25.019Z</time></trkpt><trkpt lat="45.77768816667542" lon="8.384916309553283"><ele>387.0</ele><time>2026-04-19T14:51:26.019Z</time></trkpt><trkpt lat="45.77752057679852" lon="8.384918713138244"><ele>389.0</ele><time>2026-04-19T14:51:27.019Z</time></trkpt><trkpt lat="45.777353147084156" lon="8.384897753605824"><ele>391.0</ele><time>2026-04-19T14:51:28.019Z</time></trkpt><trkpt lat="45.77719772587802" lon="8.38485189639322"><ele>391.0</ele><time>2026-04-19T14:51:29.019Z</time></trkpt><trkpt lat="45.777052056266456" lon="8.384834196533612"><ele>391.0</ele><time>2026-04-19T14:51:30.019Z</time></trkpt><trkpt lat="45.77689998091865" lon="8.384857574682341"><ele>391.0</ele><time>2026-04-19T14:51:31.019Z</time></trkpt><trkpt lat="45.77675495159972" lon="8.384925845696426"><ele>392.75</ele><time>2026-04-19T14:51:32.019Z</time></trkpt><trkpt lat="45.77661592170221" lon="8.385037651291592"><ele>394.5</ele><time>2026-04-19T14:51:33.019Z</time></trkpt><trkpt lat="45.77649938587239" lon="8.385160726456999"><ele>396.25</ele><time>2026-04-19T14:51:34.019Z</time></trkpt><trkpt lat="45.77639045078305" lon="8.385269767713314"><ele>398.0</ele><time>2026-04-19T14:51:35.019Z</time></trkpt><trkpt lat="45.776275788655894" lon="8.385354091273948"><ele>398.0</ele><time>2026-04-19T14:51:36.019Z</time></trkpt><trkpt lat="45.776157023987274" lon="8.385399385853127"><ele>398.0</ele><time>2026-04-19T14:51:37.019Z</time></trkpt><trkpt lat="45.776037401589" lon="8.385406120906524"><ele>398.0</ele><time>2026-04-19T14:51:38.02Z</time></trkpt><trkpt lat="45.77591796759345" lon="8.385376248512102"><ele>398.0</ele><time>2026-04-19T14:51:39.02Z</time></trkpt><trkpt lat="45.77580904133305" lon="8.385318368236188"><ele>399.25</ele><time>2026-04-19T14:51:40.02Z</time></trkpt><trkpt lat="45.77570039043229" lon="8.385258647301608"><ele>400.5</ele><time>2026-04-19T14:51:41.02Z</time></trkpt><trkpt lat="45.775580310341475" lon="8.385190601564565"><ele>401.75</ele><time>2026-04-19T14:51:42.02Z</time></trkpt><trkpt lat="45.77544726435171" lon="8.385105085348954"><ele>403.0</ele><time>2026-04-19T14:51:43.02Z</time></trkpt><trkpt lat="45.775307020298" lon="8.385037888012924"><ele>400.6666666666667</ele><time>2026-04-19T14:51:44.02Z</time></trkpt><trkpt lat="45.775163235539736" lon="8.38496127508114"><ele>398.33333333333337</ele><time>2026-04-19T14:51:45.02Z</time></trkpt><trkpt lat="45.77501740303117" lon="8.3848750021575"><ele>396.0</ele><time>2026-04-19T14:51:46.02Z</time></trkpt><trkpt lat="45.77486687710704" lon="8.38480102267818"><ele>396.0</ele><time>2026-04-19T14:51:47.02Z</time></trkpt><trkpt lat="45.77471193713792" lon="8.384722592698353"><ele>396.0</ele><time>2026-04-19T14:51:48.02Z</time></trkpt><trkpt lat="45.774554179517594" lon="8.384643873968958"><ele>396.0</ele><time>2026-04-19T14:51:49.02Z</time></trkpt><trkpt lat="45.77439883223425" lon="8.384552479760496"><ele>401.0</ele><time>2026-04-19T14:51:50.02Z</time></trkpt><trkpt lat="45.77424390192892" lon="8.384458638104558"><ele>406.0</ele><time>2026-04-19T14:51:51.02Z</time></trkpt><trkpt lat="45.77408161280889" lon="8.384368434622354"><ele>411.0</ele><time>2026-04-19T14:51:52.017Z</time></trkpt><trkpt lat="45.77392240851547" lon="8.384284315790424"><ele>411.0</ele><time>2026-04-19T14:51:53.017Z</time></trkpt><trkpt lat="45.773765166558626" lon="8.384201871734026"><ele>411.0</ele><time>2026-04-19T14:51:54.017Z</time></trkpt><trkpt lat="45.77361328379677" lon="8.38412059276181"><ele>411.0</ele><time>2026-04-19T14:51:55.017Z</time></trkpt><trkpt lat="45.77346246177619" lon="8.384042891596916"><ele>408.33333333333337</ele><time>2026-04-19T14:51:56.017Z</time></trkpt><trkpt lat="45.77330864003362" lon="8.383991656390943"><ele>405.6666666666667</ele><time>2026-04-19T14:51:57.017Z</time></trkpt><trkpt lat="45.77315209323336" lon="8.383963457614382"><ele>403.0</ele><time>2026-04-19T14:51:58.017Z</time></trkpt><trkpt lat="45.772995006734924" lon="8.383939479770532"><ele>403.0</ele><time>2026-04-19T14:51:59.017Z</time></trkpt><trkpt lat="45.772832512600864" lon="8.383948863633485"><ele>403.0</ele><time>2026-04-19T14:52:00.017Z</time></trkpt><trkpt lat="45.77266546162295" lon="8.383973747978821"><ele>403.0</ele><time>2026-04-19T14:52:01.017Z</time></trkpt><trkpt lat="45.77249771152616" lon="8.383995037380071"><ele>401.6666666666667</ele><time>2026-04-19T14:52:02.017Z</time></trkpt><trkpt lat="45.772330740486126" lon="8.384015337700765"><ele>400.33333333333337</ele><time>2026-04-19T14:52:03.017Z</time></trkpt><trkpt lat="45.77215930903004" lon="8.38403078680098"><ele>399.0</ele><time>2026-04-19T14:52:04.017Z</time></trkpt><trkpt lat="45.77198982411164" lon="8.384047838421509"><ele>399.66666666666663</ele><time>2026-04-19T14:52:05.017Z</time></trkpt><trkpt lat="45.771827724166315" lon="8.384056481192733"><ele>400.3333333333333</ele><time>2026-04-19T14:52:06.017Z</time></trkpt><trkpt lat="45.77167011330656" lon="8.384069044435398"><ele>401.0</ele><time>2026-04-19T14:52:07.017Z</time></trkpt><trkpt lat="45.77151037656034" lon="8.384081203589252"><ele>401.0</ele><time>2026-04-19T14:52:08.017Z</time></trkpt><trkpt lat="45.77134833072405" lon="8.38410229923859"><ele>401.0</ele><time>2026-04-19T14:52:09.017Z</time></trkpt><trkpt lat="45.771187162292" lon="8.384123435610627"><ele>401.0</ele><time>2026-04-19T14:52:10.017Z</time></trkpt><trkpt lat="45.77102466257125" lon="8.384166595105372"><ele>402.3333333333333</ele><time>2026-04-19T14:52:11.017Z</time></trkpt><trkpt lat="45.770861568120154" lon="8.384229445637612"><ele>403.66666666666663</ele><time>2026-04-19T14:52:12.017Z</time></trkpt><trkpt lat="45.77069738967686" lon="8.384310261731507"><ele>405.0</ele><time>2026-04-19T14:52:13.017Z</time></trkpt><trkpt lat="45.770532580452624" lon="8.384387267454754"><ele>405.0</ele><time>2026-04-19T14:52:14.017Z</time></trkpt><trkpt lat="45.770365007796784" lon="8.38446217786061"><ele>405.0</ele><time>2026-04-19T14:52:15.017Z</time></trkpt><trkpt lat="45.770199324120625" lon="8.38452491524018"><ele>405.0</ele><time>2026-04-19T14:52:16.017Z</time></trkpt><trkpt lat="45.770025538293154" lon="8.384571175745911"><ele>407.66666666666663</ele><time>2026-04-19T14:52:17.017Z</time></trkpt><trkpt lat="45.769848644031725" lon="8.384588026165666"><ele>410.3333333333333</ele><time>2026-04-19T14:52:18.017Z</time></trkpt><trkpt lat="45.769664456445966" lon="8.38458972783743"><ele>413.0</ele><time>2026-04-19T14:52:19.017Z</time></trkpt><trkpt lat="45.769487785368455" lon="8.384593082213241"><ele>411.66666666666663</ele><time>2026-04-19T14:52:20.017Z</time></trkpt><trkpt lat="45.769323564575565" lon="8.384616950512411"><ele>410.33333333333337</ele><time>2026-04-19T14:52:21.017Z</time></trkpt><trkpt lat="45.76916705728314" lon="8.38469353245711"><ele>409.0</ele><time>2026-04-19T14:52:22.017Z</time></trkpt><trkpt lat="45.76900687331249" lon="8.384808358237727"><ele>409.0</ele><time>2026-04-19T14:52:23.018Z</time></trkpt><trkpt lat="45.768853336274624" lon="8.384952309944532"><ele>409.0</ele><time>2026-04-19T14:52:24.018Z</time></trkpt><trkpt lat="45.76869775845221" lon="8.38509531016053"><ele>409.0</ele><time>2026-04-19T14:52:25.018Z</time></trkpt><trkpt lat="45.76854004847213" lon="8.385217947234885"><ele>415.6666666666667</ele><time>2026-04-19T14:52:26.018Z</time></trkpt><trkpt lat="45.76837577555602" lon="8.385308902105065"><ele>422.33333333333337</ele><time>2026-04-19T14:52:27.018Z</time></trkpt><trkpt lat="45.768202500809586" lon="8.385360521244753"><ele>429.0</ele><time>2026-04-19T14:52:28.018Z</time></trkpt><trkpt lat="45.768025938399774" lon="8.385390729112451"><ele>429.0</ele><time>2026-04-19T14:52:29.018Z</time></trkpt><trkpt lat="45.76784480210223" lon="8.385415401227812"><ele>429.0</ele><time>2026-04-19T14:52:30.018Z</time></trkpt><trkpt lat="45.767663861342264" lon="8.385459656929733"><ele>429.0</ele><time>2026-04-19T14:52:31.018Z</time></trkpt><trkpt lat="45.7674811721704" lon="8.385517916929379"><ele>420.66666666666663</ele><time>2026-04-19T14:52:32.018Z</time></trkpt><trkpt lat="45.767300881716224" lon="8.385594292754565"><ele>412.3333333333333</ele><time>2026-04-19T14:52:33.018Z</time></trkpt><trkpt lat="45.767133024456626" lon="8.385681389326546"><ele>404.0</ele><time>2026-04-19T14:52:34.018Z</time></trkpt><trkpt lat="45.76696949645543" lon="8.385781932692746"><ele>407.3333333333333</ele><time>2026-04-19T14:52:35.018Z</time></trkpt><trkpt lat="45.76681029311125" lon="8.38585588841364"><ele>410.66666666666663</ele><time>2026-04-19T14:52:36.018Z</time></trkpt><trkpt lat="45.76663721577247" lon="8.38588835568947"><ele>414.0</ele><time>2026-04-19T14:52:37.018Z</time></trkpt><trkpt lat="45.76646081954368" lon="8.385897814802172"><ele>414.0</ele><time>2026-04-19T14:52:38.018Z</time></trkpt><trkpt lat="45.766283927025384" lon="8.385920447979194"><ele>414.0</ele><time>2026-04-19T14:52:39.018Z</time></trkpt><trkpt lat="45.76611552314206" lon="8.385965009520357"><ele>414.0</ele><time>2026-04-19T14:52:40.018Z</time></trkpt><trkpt lat="45.765960753196744" lon="8.386017549481807"><ele>415.25</ele><time>2026-04-19T14:52:41.018Z</time></trkpt><trkpt lat="45.76581673724657" lon="8.386064019925302"><ele>416.5</ele><time>2026-04-19T14:52:42.018Z</time></trkpt><trkpt lat="45.76567883437675" lon="8.386091047465976"><ele>417.75</ele><time>2026-04-19T14:52:43.018Z</time></trkpt><trkpt lat="45.765545105458436" lon="8.386086757748583"><ele>419.0</ele><time>2026-04-19T14:52:44.018Z</time></trkpt><trkpt lat="45.765421943781455" lon="8.386033247829621"><ele>419.0</ele><time>2026-04-19T14:52:45.018Z</time></trkpt><trkpt lat="45.765312063225" lon="8.385947431531006"><ele>419.0</ele><time>2026-04-19T14:52:46.018Z</time></trkpt><trkpt lat="45.76521546363627" lon="8.385827881082244"><ele>419.0</ele><time>2026-04-19T14:52:47.018Z</time></trkpt><trkpt lat="45.765120651971856" lon="8.38570929126808"><ele>419.0</ele><time>2026-04-19T14:52:48.018Z</time></trkpt><trkpt lat="45.765014450801054" lon="8.385594612144153"><ele>423.0</ele><time>2026-04-19T14:52:49.018Z</time></trkpt><trkpt lat="45.76489557571547" lon="8.385491120879982"><ele>427.0</ele><time>2026-04-19T14:52:50.018Z</time></trkpt><trkpt lat="45.7647679155841" lon="8.3854033999313"><ele>431.0</ele><time>2026-04-19T14:52:51.018Z</time></trkpt><trkpt lat="45.764627466312554" lon="8.385343036631593"><ele>435.0</ele><time>2026-04-19T14:52:52.018Z</time></trkpt><trkpt lat="45.76448107332326" lon="8.385289450458794"><ele>433.66666666666663</ele><time>2026-04-19T14:52:53.018Z</time></trkpt><trkpt lat="45.76432980112014" lon="8.385236152197985"><ele>432.3333333333333</ele><time>2026-04-19T14:52:54.018Z</time></trkpt><trkpt lat="45.764179716328506" lon="8.385184227363673"><ele>431.0</ele><time>2026-04-19T14:52:55.018Z</time></trkpt><trkpt lat="45.76402230588995" lon="8.385154392972824"><ele>431.0</ele><time>2026-04-19T14:52:56.019Z</time></trkpt><trkpt lat="45.7638644672769" lon="8.385133377073956"><ele>431.0</ele><time>2026-04-19T14:52:57.019Z</time></trkpt><trkpt lat="45.763705827489005" lon="8.385127349259568"><ele>431.0</ele><time>2026-04-19T14:52:58.019Z</time></trkpt><trkpt lat="45.76355118820938" lon="8.385118832376389"><ele>431.25</ele><time>2026-04-19T14:52:59.019Z</time></trkpt><trkpt lat="45.76340420575844" lon="8.38510337125846"><ele>431.5</ele><time>2026-04-19T14:53:00.019Z</time></trkpt><trkpt lat="45.7632583055661" lon="8.385097431326809"><ele>431.75</ele><time>2026-04-19T14:53:01.019Z</time></trkpt><trkpt lat="45.7631140858636" lon="8.38508420226467"><ele>432.0</ele><time>2026-04-19T14:53:02.019Z</time></trkpt><trkpt lat="45.76297344591757" lon="8.385068125534893"><ele>432.0</ele><time>2026-04-19T14:53:03.019Z</time></trkpt><trkpt lat="45.762829347533234" lon="8.385057507836226"><ele>432.0</ele><time>2026-04-19T14:53:04.019Z</time></trkpt><trkpt lat="45.76268654128477" lon="8.385051119650475"><ele>432.0</ele><time>2026-04-19T14:53:05.019Z</time></trkpt><trkpt lat="45.76254279654133" lon="8.385046875176574"><ele>432.0</ele><time>2026-04-19T14:53:06.019Z</time></trkpt><trkpt lat="45.76240086690088" lon="8.385047840740457"><ele>432.5</ele><time>2026-04-19T14:53:07.019Z</time></trkpt><trkpt lat="45.76225529056217" lon="8.385041365689949"><ele>433.0</ele><time>2026-04-19T14:53:08.019Z</time></trkpt><trkpt lat="45.762107313338745" lon="8.385045551900795"><ele>433.5</ele><time>2026-04-19T14:53:09.019Z</time></trkpt><trkpt lat="45.7619586014511" lon="8.385051250742622"><ele>434.0</ele><time>2026-04-19T14:53:10.019Z</time></trkpt><trkpt lat="45.761812429570526" lon="8.385074571075682"><ele>434.0</ele><time>2026-04-19T14:53:11.019Z</time></trkpt><trkpt lat="45.7616672626157" lon="8.385130214758837"><ele>434.0</ele><time>2026-04-19T14:53:12.019Z</time></trkpt><trkpt lat="45.761527401246276" lon="8.385215766405668"><ele>434.0</ele><time>2026-04-19T14:53:13.019Z</time></trkpt><trkpt lat="45.761387198044005" lon="8.385303841263864"><ele>434.0</ele><time>2026-04-19T14:53:14.019Z</time></trkpt><trkpt lat="45.76124299431104" lon="8.385383585929443"><ele>434.0</ele><time>2026-04-19T14:53:15.019Z</time></trkpt><trkpt lat="45.761093551486056" lon="8.385438723675362"><ele>434.0</ele><time>2026-04-19T14:53:16.019Z</time></trkpt><trkpt lat="45.760942789062845" lon="8.38547520672056"><ele>438.3333333333333</ele><time>2026-04-19T14:53:17.019Z</time></trkpt><trkpt lat="45.76079286704741" lon="8.385501402580577"><ele>442.66666666666663</ele><time>2026-04-19T14:53:18.019Z</time></trkpt><trkpt lat="45.760643038503346" lon="8.385514806482607"><ele>447.0</ele><time>2026-04-19T14:53:19.019Z</time></trkpt><trkpt lat="45.76049388642662" lon="8.385516044387364"><ele>447.0</ele><time>2026-04-19T14:53:20.019Z</time></trkpt><trkpt lat="45.7603434730377" lon="8.38549164967568"><ele>447.0</ele><time>2026-04-19T14:53:21.019Z</time></trkpt><trkpt lat="45.76019117456968" lon="8.385484115872373"><ele>447.0</ele><time>2026-04-19T14:53:22.019Z</time></trkpt><trkpt lat="45.760039990337766" lon="8.3854983460817"><ele>440.33333333333337</ele><time>2026-04-19T14:53:23.019Z</time></trkpt><trkpt lat="45.759886042402286" lon="8.385528903389178"><ele>433.6666666666667</ele><time>2026-04-19T14:53:24.019Z</time></trkpt><trkpt lat="45.75972967207632" lon="8.38557785358567"><ele>427.0</ele><time>2026-04-19T14:53:25.019Z</time></trkpt><trkpt lat="45.75957726128844" lon="8.385640643628719"><ele>427.0</ele><time>2026-04-19T14:53:26.019Z</time></trkpt><trkpt lat="45.75942544456654" lon="8.385700194160059"><ele>427.0</ele><time>2026-04-19T14:53:27.019Z</time></trkpt><trkpt lat="45.75927919358323" lon="8.385770987342019"><ele>427.0</ele><time>2026-04-19T14:53:28.019Z</time></trkpt><trkpt lat="45.759141372840126" lon="8.385870138187624"><ele>431.0</ele><time>2026-04-19T14:53:29.019Z</time></trkpt><trkpt lat="45.7590152265981" lon="8.385965400147182"><ele>435.0</ele><time>2026-04-19T14:53:30.02Z</time></trkpt><trkpt lat="45.7588933706598" lon="8.38606507923971"><ele>439.0</ele><time>2026-04-19T14:53:31.02Z</time></trkpt><trkpt lat="45.758768297573766" lon="8.386161454196296"><ele>443.0</ele><time>2026-04-19T14:53:32.02Z</time></trkpt><trkpt lat="45.758635637904256" lon="8.386244339743776"><ele>442.5</ele><time>2026-04-19T14:53:33.02Z</time></trkpt><trkpt lat="45.75850682828647" lon="8.386302526445101"><ele>442.0</ele><time>2026-04-19T14:53:34.02Z</time></trkpt><trkpt lat="45.758386077133615" lon="8.386352369036562"><ele>441.5</ele><time>2026-04-19T14:53:35.02Z</time></trkpt><trkpt lat="45.758271489298934" lon="8.386435900014833"><ele>441.0</ele><time>2026-04-19T14:53:36.02Z</time></trkpt><trkpt lat="45.75815768992532" lon="8.38654687964063"><ele>441.0</ele><time>2026-04-19T14:53:37.02Z</time></trkpt><trkpt lat="45.75804865136284" lon="8.386667410618209"><ele>441.0</ele><time>2026-04-19T14:53:38.02Z</time></trkpt><trkpt lat="45.757938765709376" lon="8.386778549859121"><ele>441.0</ele><time>2026-04-19T14:53:39.02Z</time></trkpt><trkpt lat="45.7578282055435" lon="8.386856924348903"><ele>441.0</ele><time>2026-04-19T14:53:40.02Z</time></trkpt><trkpt lat="45.75771878096048" lon="8.38690763448762"><ele>441.75</ele><time>2026-04-19T14:53:41.02Z</time></trkpt><trkpt lat="45.757618770405294" lon="8.386990213552242"><ele>442.5</ele><time>2026-04-19T14:53:42.02Z</time></trkpt><trkpt lat="45.75753926639679" lon="8.387126709091543"><ele>443.25</ele><time>2026-04-19T14:53:43.02Z</time></trkpt><trkpt lat="45.757468945059465" lon="8.387289386643221"><ele>444.0</ele><time>2026-04-19T14:53:44.02Z</time></trkpt><trkpt lat="45.757411287018456" lon="8.387438810773446"><ele>444.0</ele><time>2026-04-19T14:53:45.02Z</time></trkpt><trkpt lat="45.75735037978156" lon="8.387561410178726"><ele>444.0</ele><time>2026-04-19T14:53:46.02Z</time></trkpt><trkpt lat="45.757288289933946" lon="8.387673275058678"><ele>444.0</ele><time>2026-04-19T14:53:47.02Z</time></trkpt><trkpt lat="45.75723205938912" lon="8.387785475118399"><ele>444.0</ele><time>2026-04-19T14:53:48.02Z</time></trkpt><trkpt lat="45.757177233077435" lon="8.387897879797848"><ele>444.0</ele><time>2026-04-19T14:53:49.02Z</time></trkpt><trkpt lat="45.75711944754588" lon="8.387998560064638"><ele>444.3333333333333</ele><time>2026-04-19T14:53:50.02Z</time></trkpt><trkpt lat="45.75705052968922" lon="8.388076493901455"><ele>444.66666666666663</ele><time>2026-04-19T14:53:51.02Z</time></trkpt><trkpt lat="45.75697881594598" lon="8.388119865094987"><ele>445.0</ele><time>2026-04-19T14:53:52.02Z</time></trkpt><trkpt lat="45.7568940901135" lon="8.388126213291457"><ele>445.3333333333333</ele><time>2026-04-19T14:53:53.02Z</time></trkpt><trkpt lat="45.75681221759177" lon="8.388091469256638"><ele>445.66666666666663</ele><time>2026-04-19T14:53:54.02Z</time></trkpt><trkpt lat="45.756741752797566" lon="8.388039669139953"><ele>446.0</ele><time>2026-04-19T14:53:55.02Z</time></trkpt><trkpt lat="45.75668452201678" lon="8.3879853439141"><ele>446.66666666666663</ele><time>2026-04-19T14:53:56.02Z</time></trkpt><trkpt lat="45.75663244823423" lon="8.387928766911138"><ele>447.3333333333333</ele><time>2026-04-19T14:53:57.02Z</time></trkpt><trkpt lat="45.75655235882502" lon="8.387826051368473"><ele>448.0</ele><time>2026-04-19T14:53:59.018Z</time></trkpt><trkpt lat="45.7564984533202" lon="8.38776518446735"><ele>448.66666666666663</ele><time>2026-04-19T14:54:01.017Z</time></trkpt><trkpt lat="45.756445777129386" lon="8.387702631536783"><ele>449.3333333333333</ele><time>2026-04-19T14:54:08.018Z</time></trkpt><trkpt lat="45.75636191981441" lon="8.387734132308701"><ele>450.0</ele><time>2026-04-19T14:54:11.018Z</time></trkpt><trkpt lat="45.75631164093928" lon="8.387886598212233"><ele>450.0</ele><time>2026-04-19T14:54:13.018Z</time></trkpt><trkpt lat="45.756275475522465" lon="8.387960586611756"><ele>450.0</ele><time>2026-04-19T14:54:14.018Z</time></trkpt><trkpt lat="45.756229576209854" lon="8.388058669222819"><ele>450.0</ele><time>2026-04-19T14:54:15.018Z</time></trkpt><trkpt lat="45.7561820305627" lon="8.38816369494842"><ele>450.0</ele><time>2026-04-19T14:54:16.018Z</time></trkpt><trkpt lat="45.756131482337" lon="8.388268398901511"><ele>450.0</ele><time>2026-04-19T14:54:17.018Z</time></trkpt><trkpt lat="45.75607021799397" lon="8.38838401990193"><ele>450.0</ele><time>2026-04-19T14:54:18.018Z</time></trkpt><trkpt lat="45.75600499307605" lon="8.388508734566958"><ele>449.6</ele><time>2026-04-19T14:54:19.018Z</time></trkpt><trkpt lat="45.75594074369296" lon="8.388632648930223"><ele>449.2</ele><time>2026-04-19T14:54:20.018Z</time></trkpt><trkpt lat="45.75587625880652" lon="8.388767692191163"><ele>448.79999999999995</ele><time>2026-04-19T14:54:21.018Z</time></trkpt><trkpt lat="45.75581980760966" lon="8.388912304294278"><ele>448.4</ele><time>2026-04-19T14:54:22.018Z</time></trkpt><trkpt lat="45.75577925267953" lon="8.389061017599973"><ele>448.0</ele><time>2026-04-19T14:54:23.018Z</time></trkpt><trkpt lat="45.7557662451008" lon="8.3892107155466"><ele>447.5</ele><time>2026-04-19T14:54:24.018Z</time></trkpt><trkpt lat="45.755780946711546" lon="8.389355761916105"><ele>447.0</ele><time>2026-04-19T14:54:25.018Z</time></trkpt><trkpt lat="45.75582091495067" lon="8.389502505167519"><ele>446.5</ele><time>2026-04-19T14:54:26.018Z</time></trkpt><trkpt lat="45.75588701273336" lon="8.389653560468636"><ele>446.0</ele><time>2026-04-19T14:54:27.018Z</time></trkpt><trkpt lat="45.75596422864191" lon="8.389801146290214"><ele>442.5</ele><time>2026-04-19T14:54:28.018Z</time></trkpt><trkpt lat="45.75604952898634" lon="8.38995189634176"><ele>439.0</ele><time>2026-04-19T14:54:29.018Z</time></trkpt><trkpt lat="45.756122805319784" lon="8.390115537939211"><ele>435.5</ele><time>2026-04-19T14:54:30.018Z</time></trkpt><trkpt lat="45.75618600494677" lon="8.390288080766409"><ele>432.0</ele><time>2026-04-19T14:54:31.019Z</time></trkpt><trkpt lat="45.75623746786768" lon="8.390485635042731"><ele>429.75</ele><time>2026-04-19T14:54:32.019Z</time></trkpt><trkpt lat="45.75627257346136" lon="8.390690391363952"><ele>427.5</ele><time>2026-04-19T14:54:33.019Z</time></trkpt><trkpt lat="45.75628310970655" lon="8.390898959674535"><ele>425.25</ele><time>2026-04-19T14:54:34.019Z</time></trkpt><trkpt lat="45.75628315278234" lon="8.391104021185042"><ele>423.0</ele><time>2026-04-19T14:54:35.019Z</time></trkpt><trkpt lat="45.75627496759629" lon="8.391307315139189"><ele>421.5</ele><time>2026-04-19T14:54:36.019Z</time></trkpt><trkpt lat="45.756269009746376" lon="8.391513727252878"><ele>420.0</ele><time>2026-04-19T14:54:37.019Z</time></trkpt><trkpt lat="45.75627550845904" lon="8.39172496286325"><ele>418.5</ele><time>2026-04-19T14:54:38.019Z</time></trkpt><trkpt lat="45.756295119996416" lon="8.391933787502184"><ele>417.0</ele><time>2026-04-19T14:54:39.019Z</time></trkpt><trkpt lat="45.75632986548966" lon="8.392143081219059"><ele>417.25</ele><time>2026-04-19T14:54:40.019Z</time></trkpt><trkpt lat="45.75636195200698" lon="8.392346163148883"><ele>417.5</ele><time>2026-04-19T14:54:41.019Z</time></trkpt><trkpt lat="45.756383584270424" lon="8.392547269636507"><ele>417.75</ele><time>2026-04-19T14:54:42.019Z</time></trkpt><trkpt lat="45.75638221069563" lon="8.392746497149023"><ele>418.0</ele><time>2026-04-19T14:54:43.019Z</time></trkpt><trkpt lat="45.75637134294271" lon="8.392954343976129"><ele>417.33333333333337</ele><time>2026-04-19T14:54:44.019Z</time></trkpt><trkpt lat="45.75634782351577" lon="8.393169745112937"><ele>416.66666666666663</ele><time>2026-04-19T14:54:45.019Z</time></trkpt><trkpt lat="45.75633725092213" lon="8.393385320560101"><ele>416.0</ele><time>2026-04-19T14:54:46.019Z</time></trkpt><trkpt lat="45.75634504357181" lon="8.393609653560565"><ele>413.66666666666663</ele><time>2026-04-19T14:54:47.019Z</time></trkpt><trkpt lat="45.75635798678753" lon="8.393840852278863"><ele>411.33333333333337</ele><time>2026-04-19T14:54:48.019Z</time></trkpt><trkpt lat="45.756373964921494" lon="8.394082451176608"><ele>409.0</ele><time>2026-04-19T14:54:49.019Z</time></trkpt><trkpt lat="45.75638905888823" lon="8.394316545829446"><ele>409.0</ele><time>2026-04-19T14:54:50.019Z</time></trkpt><trkpt lat="45.75640381075275" lon="8.394552586575582"><ele>409.0</ele><time>2026-04-19T14:54:51.019Z</time></trkpt><trkpt lat="45.756430328556526" lon="8.394785047267687"><ele>409.0</ele><time>2026-04-19T14:54:52.019Z</time></trkpt><trkpt lat="45.75647832279092" lon="8.395007546318773"><ele>408.6666666666667</ele><time>2026-04-19T14:54:53.019Z</time></trkpt><trkpt lat="45.7565437576182" lon="8.395224071111762"><ele>408.33333333333337</ele><time>2026-04-19T14:54:54.019Z</time></trkpt><trkpt lat="45.75660869082874" lon="8.3954370192102"><ele>408.0</ele><time>2026-04-19T14:54:55.019Z</time></trkpt><trkpt lat="45.756678547695095" lon="8.395653331878874"><ele>409.33333333333337</ele><time>2026-04-19T14:54:56.019Z</time></trkpt><trkpt lat="45.75675179826507" lon="8.395870357688757"><ele>410.6666666666667</ele><time>2026-04-19T14:54:57.019Z</time></trkpt><trkpt lat="45.756823460921396" lon="8.396078236911986"><ele>412.0</ele><time>2026-04-19T14:54:58.019Z</time></trkpt><trkpt lat="45.75689016407922" lon="8.396288932426875"><ele>404.0</ele><time>2026-04-19T14:54:59.019Z</time></trkpt><trkpt lat="45.75694575312855" lon="8.396500001407677"><ele>396.0</ele><time>2026-04-19T14:55:00.019Z</time></trkpt><trkpt lat="45.756984927450674" lon="8.396718163704975"><ele>388.0</ele><time>2026-04-19T14:55:01.019Z</time></trkpt><trkpt lat="45.75700365580416" lon="8.396951778391099"><ele>387.6666666666667</ele><time>2026-04-19T14:55:02.019Z</time></trkpt><trkpt lat="45.757035433816746" lon="8.397171467187379"><ele>387.33333333333337</ele><time>2026-04-19T14:55:03.019Z</time></trkpt><trkpt lat="45.757058385020805" lon="8.397403242117434"><ele>387.0</ele><time>2026-04-19T14:55:04.019Z</time></trkpt><trkpt lat="45.75707720002237" lon="8.397636516390891"><ele>387.0</ele><time>2026-04-19T14:55:05.02Z</time></trkpt><trkpt lat="45.757104508269215" lon="8.397865423606007"><ele>387.0</ele><time>2026-04-19T14:55:06.02Z</time></trkpt><trkpt lat="45.75713651799945" lon="8.398088217243567"><ele>387.0</ele><time>2026-04-19T14:55:07.02Z</time></trkpt><trkpt lat="45.75718151153511" lon="8.39830356258162"><ele>387.33333333333337</ele><time>2026-04-19T14:55:08.02Z</time></trkpt><trkpt lat="45.75724456908758" lon="8.398517118298972"><ele>387.6666666666667</ele><time>2026-04-19T14:55:09.02Z</time></trkpt><trkpt lat="45.75730621510853" lon="8.398726254541293"><ele>388.0</ele><time>2026-04-19T14:55:10.02Z</time></trkpt><trkpt lat="45.75735385067471" lon="8.398938719369598"><ele>389.33333333333337</ele><time>2026-04-19T14:55:11.02Z</time></trkpt><trkpt lat="45.757378034966784" lon="8.399167039220504"><ele>390.66666666666663</ele><time>2026-04-19T14:55:12.02Z</time></trkpt><trkpt lat="45.757384282022976" lon="8.399393913802127"><ele>392.0</ele><time>2026-04-19T14:55:13.02Z</time></trkpt><trkpt lat="45.75739589083509" lon="8.399617760789326"><ele>393.3333333333333</ele><time>2026-04-19T14:55:14.02Z</time></trkpt><trkpt lat="45.75741676475997" lon="8.399840170381381"><ele>394.66666666666663</ele><time>2026-04-19T14:55:15.02Z</time></trkpt><trkpt lat="45.75745905848629" lon="8.40006577149855"><ele>396.0</ele><time>2026-04-19T14:55:16.02Z</time></trkpt><trkpt lat="45.757512940107546" lon="8.400292380245292"><ele>397.0</ele><time>2026-04-19T14:55:17.02Z</time></trkpt><trkpt lat="45.75756804831072" lon="8.400519937333703"><ele>398.0</ele><time>2026-04-19T14:55:18.02Z</time></trkpt><trkpt lat="45.75762209063437" lon="8.400751520666782"><ele>399.0</ele><time>2026-04-19T14:55:19.02Z</time></trkpt><trkpt lat="45.75766623608673" lon="8.400984012740608"><ele>393.3333333333333</ele><time>2026-04-19T14:55:20.02Z</time></trkpt><trkpt lat="45.757711996138106" lon="8.401216725115956"><ele>387.66666666666663</ele><time>2026-04-19T14:55:21.02Z</time></trkpt><trkpt lat="45.75777664202558" lon="8.401447001561122"><ele>382.0</ele><time>2026-04-19T14:55:22.02Z</time></trkpt><trkpt lat="45.75784782199621" lon="8.401671227055989"><ele>381.66666666666663</ele><time>2026-04-19T14:55:23.02Z</time></trkpt><trkpt lat="45.75792967926139" lon="8.401884417798941"><ele>381.3333333333333</ele><time>2026-04-19T14:55:24.02Z</time></trkpt><trkpt lat="45.758026840246394" lon="8.402091786628384"><ele>381.0</ele><time>2026-04-19T14:55:25.02Z</time></trkpt><trkpt lat="45.758133524188516" lon="8.40229164734253"><ele>381.6666666666667</ele><time>2026-04-19T14:55:26.02Z</time></trkpt><trkpt lat="45.75822564006269" lon="8.40250968936485"><ele>382.33333333333337</ele><time>2026-04-19T14:55:27.02Z</time></trkpt><trkpt lat="45.758291601539696" lon="8.40272652136548"><ele>383.0</ele><time>2026-04-19T14:55:28.02Z</time></trkpt><trkpt lat="45.75834716561954" lon="8.402945339819734"><ele>383.6666666666667</ele><time>2026-04-19T14:55:29.02Z</time></trkpt><trkpt lat="45.75839682199223" lon="8.40315839127316"><ele>384.33333333333337</ele><time>2026-04-19T14:55:30.02Z</time></trkpt><trkpt lat="45.75842794054281" lon="8.403374860900673"><ele>385.0</ele><time>2026-04-19T14:55:31.02Z</time></trkpt><trkpt lat="45.75845523146923" lon="8.403589768669997"><ele>385.0</ele><time>2026-04-19T14:55:32.02Z</time></trkpt><trkpt lat="45.758493811061705" lon="8.40380765963832"><ele>385.0</ele><time>2026-04-19T14:55:33.02Z</time></trkpt><trkpt lat="45.75852017038768" lon="8.404030361330054"><ele>385.0</ele><time>2026-04-19T14:55:34.02Z</time></trkpt><trkpt lat="45.75852603631864" lon="8.404251242786513"><ele>385.33333333333337</ele><time>2026-04-19T14:55:35.02Z</time></trkpt><trkpt lat="45.75850917302084" lon="8.404474981800611"><ele>385.66666666666663</ele><time>2026-04-19T14:55:36.02Z</time></trkpt><trkpt lat="45.758477314054" lon="8.404703078752176"><ele>386.0</ele><time>2026-04-19T14:55:37.02Z</time></trkpt><trkpt lat="45.75845063437044" lon="8.404935593870782"><ele>386.0</ele><time>2026-04-19T14:55:38.021Z</time></trkpt><trkpt lat="45.75842794512918" lon="8.40517152852083"><ele>386.0</ele><time>2026-04-19T14:55:39.021Z</time></trkpt><trkpt lat="45.758406560822536" lon="8.405408527384974"><ele>386.0</ele><time>2026-04-19T14:55:40.021Z</time></trkpt><trkpt lat="45.758384759086034" lon="8.40564800782325"><ele>385.66666666666663</ele><time>2026-04-19T14:55:41.021Z</time></trkpt><trkpt lat="45.758366642055485" lon="8.405886710748602"><ele>385.33333333333337</ele><time>2026-04-19T14:55:42.021Z</time></trkpt><trkpt lat="45.75834965756569" lon="8.406124241750838"><ele>385.0</ele><time>2026-04-19T14:55:43.021Z</time></trkpt><trkpt lat="45.75833206167594" lon="8.406358186465233"><ele>384.6666666666667</ele><time>2026-04-19T14:55:44.021Z</time></trkpt><trkpt lat="45.75831791015836" lon="8.406586706849929"><ele>384.33333333333337</ele><time>2026-04-19T14:55:45.021Z</time></trkpt><trkpt lat="45.75829710757798" lon="8.40681349350649"><ele>384.0</ele><time>2026-04-19T14:55:46.021Z</time></trkpt><trkpt lat="45.75827541534739" lon="8.40703921156532"><ele>383.6666666666667</ele><time>2026-04-19T14:55:47.021Z</time></trkpt><trkpt lat="45.75824364125426" lon="8.407258659043416"><ele>383.33333333333337</ele><time>2026-04-19T14:55:48.021Z</time></trkpt><trkpt lat="45.75821135978243" lon="8.407477228492924"><ele>383.0</ele><time>2026-04-19T14:55:49.021Z</time></trkpt><trkpt lat="45.758171128945904" lon="8.407696263521844"><ele>383.0</ele><time>2026-04-19T14:55:50.021Z</time></trkpt><trkpt lat="45.75814477175094" lon="8.407921273801483"><ele>383.0</ele><time>2026-04-19T14:55:51.021Z</time></trkpt><trkpt lat="45.758122891445616" lon="8.408147035987055"><ele>383.0</ele><time>2026-04-19T14:55:52.021Z</time></trkpt><trkpt lat="45.75810228796381" lon="8.408373930002982"><ele>382.33333333333337</ele><time>2026-04-19T14:55:53.021Z</time></trkpt><trkpt lat="45.75807606211043" lon="8.408602772958048"><ele>381.6666666666667</ele><time>2026-04-19T14:55:54.021Z</time></trkpt><trkpt lat="45.75805190440232" lon="8.408832438098674"><ele>381.0</ele><time>2026-04-19T14:55:55.021Z</time></trkpt><trkpt lat="45.758024280376816" lon="8.409066240912665"><ele>380.0</ele><time>2026-04-19T14:55:56.021Z</time></trkpt><trkpt lat="45.75799932285365" lon="8.409300896926824"><ele>379.0</ele><time>2026-04-19T14:55:57.021Z</time></trkpt><trkpt lat="45.75797908811019" lon="8.4095361220875"><ele>378.0</ele><time>2026-04-19T14:55:58.021Z</time></trkpt><trkpt lat="45.75795569593089" lon="8.409776185026619"><ele>377.0</ele><time>2026-04-19T14:55:59.021Z</time></trkpt><trkpt lat="45.75793448023205" lon="8.410019546822575"><ele>376.0</ele><time>2026-04-19T14:56:00.021Z</time></trkpt><trkpt lat="45.757911956523415" lon="8.410265078608322"><ele>375.0</ele><time>2026-04-19T14:56:01.021Z</time></trkpt><trkpt lat="45.75788563665487" lon="8.410511006956872"><ele>375.0</ele><time>2026-04-19T14:56:02.021Z</time></trkpt><trkpt lat="45.757860287790905" lon="8.410757520773124"><ele>375.0</ele><time>2026-04-19T14:56:03.021Z</time></trkpt><trkpt lat="45.75783821321417" lon="8.411001904302625"><ele>375.0</ele><time>2026-04-19T14:56:04.018Z</time></trkpt><trkpt lat="45.75781468144838" lon="8.411249235930205"><ele>375.6666666666667</ele><time>2026-04-19T14:56:05.018Z</time></trkpt><trkpt lat="45.757788698001576" lon="8.411492206305923"><ele>376.33333333333337</ele><time>2026-04-19T14:56:06.018Z</time></trkpt><trkpt lat="45.75776196230972" lon="8.411731456036865"><ele>377.0</ele><time>2026-04-19T14:56:07.018Z</time></trkpt><trkpt lat="45.75773658356674" lon="8.41197056271524"><ele>376.6666666666667</ele><time>2026-04-19T14:56:08.018Z</time></trkpt><trkpt lat="45.75770997661128" lon="8.41221000356402"><ele>376.3333333333333</ele><time>2026-04-19T14:56:09.018Z</time></trkpt><trkpt lat="45.75768238699104" lon="8.41244647234137"><ele>376.0</ele><time>2026-04-19T14:56:10.017Z</time></trkpt><trkpt lat="45.757648293494675" lon="8.412672940247546"><ele>375.75</ele><time>2026-04-19T14:56:11.018Z</time></trkpt><trkpt lat="45.75760223294559" lon="8.412876360020702"><ele>375.5</ele><time>2026-04-19T14:56:12.018Z</time></trkpt><trkpt lat="45.757553153824276" lon="8.41307812665416"><ele>375.25</ele><time>2026-04-19T14:56:13.017Z</time></trkpt><trkpt lat="45.757499685060765" lon="8.413279423884125"><ele>375.0</ele><time>2026-04-19T14:56:14.018Z</time></trkpt><trkpt lat="45.7574497579874" lon="8.413486297156014"><ele>374.3333333333333</ele><time>2026-04-19T14:56:15.018Z</time></trkpt><trkpt lat="45.75740362111694" lon="8.413698327614602"><ele>373.66666666666663</ele><time>2026-04-19T14:56:16.018Z</time></trkpt><trkpt lat="45.75736419842742" lon="8.413916720992402"><ele>373.0</ele><time>2026-04-19T14:56:17.018Z</time></trkpt><trkpt lat="45.75731822478314" lon="8.41413419854085"><ele>372.3333333333333</ele><time>2026-04-19T14:56:18.018Z</time></trkpt><trkpt lat="45.757265195448404" lon="8.414346420781879"><ele>371.6666666666667</ele><time>2026-04-19T14:56:19.018Z</time></trkpt><trkpt lat="45.75721272580208" lon="8.414558873161686"><ele>371.0</ele><time>2026-04-19T14:56:20.018Z</time></trkpt><trkpt lat="45.75715672939886" lon="8.414773920111013"><ele>370.0</ele><time>2026-04-19T14:56:21.018Z</time></trkpt><trkpt lat="45.75710408971262" lon="8.414986888054178"><ele>369.0</ele><time>2026-04-19T14:56:22.018Z</time></trkpt><trkpt lat="45.75705371144742" lon="8.415206513528696"><ele>368.0</ele><time>2026-04-19T14:56:23.018Z</time></trkpt><trkpt lat="45.757006072671096" lon="8.41542204598829"><ele>368.0</ele><time>2026-04-19T14:56:24.018Z</time></trkpt><trkpt lat="45.75695494961585" lon="8.415629214830545"><ele>368.0</ele><time>2026-04-19T14:56:25.018Z</time></trkpt><trkpt lat="45.75689806205784" lon="8.415836571716575"><ele>368.0</ele><time>2026-04-19T14:56:26.018Z</time></trkpt><trkpt lat="45.75683302803744" lon="8.41604144029215"><ele>368.0</ele><time>2026-04-19T14:56:27.018Z</time></trkpt><trkpt lat="45.75676384058818" lon="8.416233634902666"><ele>368.0</ele><time>2026-04-19T14:56:28.018Z</time></trkpt><trkpt lat="45.756694253452096" lon="8.416428688996215"><ele>368.0</ele><time>2026-04-19T14:56:29.018Z</time></trkpt><trkpt lat="45.75662525340597" lon="8.416620254778014"><ele>368.0</ele><time>2026-04-19T14:56:30.018Z</time></trkpt><trkpt lat="45.75655486996031" lon="8.416809073946048"><ele>368.0</ele><time>2026-04-19T14:56:31.018Z</time></trkpt><trkpt lat="45.75648500500227" lon="8.416996571015003"><ele>368.0</ele><time>2026-04-19T14:56:32.018Z</time></trkpt><trkpt lat="45.756416567941834" lon="8.417180119153432"><ele>368.0</ele><time>2026-04-19T14:56:33.018Z</time></trkpt><trkpt lat="45.756349255359915" lon="8.417357825975564"><ele>368.0</ele><time>2026-04-19T14:56:34.018Z</time></trkpt><trkpt lat="45.75628345549453" lon="8.417531867077226"><ele>368.0</ele><time>2026-04-19T14:56:35.019Z</time></trkpt><trkpt lat="45.7562181938015" lon="8.41770338437695"><ele>368.0</ele><time>2026-04-19T14:56:36.019Z</time></trkpt><trkpt lat="45.75615201032597" lon="8.417878089502072"><ele>368.0</ele><time>2026-04-19T14:56:37.019Z</time></trkpt><trkpt lat="45.75608314631749" lon="8.418052824629116"><ele>367.25</ele><time>2026-04-19T14:56:38.019Z</time></trkpt><trkpt lat="45.75601357011217" lon="8.418235019830842"><ele>366.5</ele><time>2026-04-19T14:56:39.019Z</time></trkpt><trkpt lat="45.75594871642421" lon="8.418411002358306"><ele>365.75</ele><time>2026-04-19T14:56:40.019Z</time></trkpt><trkpt lat="45.755884683453814" lon="8.41857851957051"><ele>365.0</ele><time>2026-04-19T14:56:41.019Z</time></trkpt><trkpt lat="45.75582139642157" lon="8.418739320104438"><ele>364.8</ele><time>2026-04-19T14:56:42.019Z</time></trkpt><trkpt lat="45.75576434119464" lon="8.418893661445514"><ele>364.6</ele><time>2026-04-19T14:56:43.019Z</time></trkpt><trkpt lat="45.75571191562244" lon="8.41903749940304"><ele>364.4</ele><time>2026-04-19T14:56:44.019Z</time></trkpt><trkpt lat="45.755668309924346" lon="8.41917418808039"><ele>364.2</ele><time>2026-04-19T14:56:45.019Z</time></trkpt><trkpt lat="45.75564037962119" lon="8.419305633842159"><ele>364.0</ele><time>2026-04-19T14:56:46.019Z</time></trkpt><trkpt lat="45.75562739450365" lon="8.419406167771344"><ele>364.0</ele><time>2026-04-19T14:56:47.019Z</time></trkpt><trkpt lat="45.75561162173475" lon="8.419503731003713"><ele>364.0</ele><time>2026-04-19T14:56:49.019Z</time></trkpt><trkpt lat="45.755553657632205" lon="8.419571653999707"><ele>364.0</ele><time>2026-04-19T14:56:52.019Z</time></trkpt><trkpt lat="45.75550103299808" lon="8.419692790692471"><ele>364.0</ele><time>2026-04-19T14:56:54.019Z</time></trkpt><trkpt lat="45.755482636741704" lon="8.419784082694404"><ele>364.0</ele><time>2026-04-19T14:56:55.019Z</time></trkpt><trkpt lat="45.755467423563054" lon="8.419890568128308"><ele>364.0</ele><time>2026-04-19T14:56:56.019Z</time></trkpt><trkpt lat="45.75543362617239" lon="8.419997598284311"><ele>364.0</ele><time>2026-04-19T14:56:57.019Z</time></trkpt><trkpt lat="45.75538233434393" lon="8.420094257205383"><ele>364.0</ele><time>2026-04-19T14:56:58.019Z</time></trkpt><trkpt lat="45.75531319146557" lon="8.420197780919601"><ele>364.0</ele><time>2026-04-19T14:56:59.019Z</time></trkpt><trkpt lat="45.755245057462595" lon="8.420301076809274"><ele>364.0</ele><time>2026-04-19T14:57:00.019Z</time></trkpt><trkpt lat="45.755184122755146" lon="8.420423133240005"><ele>364.0</ele><time>2026-04-19T14:57:01.019Z</time></trkpt><trkpt lat="45.755121824406636" lon="8.420562261472737"><ele>364.0</ele><time>2026-04-19T14:57:02.019Z</time></trkpt><trkpt lat="45.755065694770366" lon="8.420714435862152"><ele>364.0</ele><time>2026-04-19T14:57:03.019Z</time></trkpt><trkpt lat="45.75500990913878" lon="8.420862624363158"><ele>364.0</ele><time>2026-04-19T14:57:04.019Z</time></trkpt><trkpt lat="45.75495118479951" lon="8.421008784152418"><ele>364.0</ele><time>2026-04-19T14:57:05.019Z</time></trkpt><trkpt lat="45.7548985749588" lon="8.42114768046226"><ele>364.0</ele><time>2026-04-19T14:57:06.019Z</time></trkpt><trkpt lat="45.7548458239672" lon="8.42128208705034"><ele>364.0</ele><time>2026-04-19T14:57:07.019Z</time></trkpt><trkpt lat="45.754794521075844" lon="8.421411862193267"><ele>364.0</ele><time>2026-04-19T14:57:08.02Z</time></trkpt><trkpt lat="45.7547433677361" lon="8.421549074509944"><ele>364.0</ele><time>2026-04-19T14:57:09.02Z</time></trkpt><trkpt lat="45.75469190300894" lon="8.42169394954813"><ele>364.0</ele><time>2026-04-19T14:57:10.02Z</time></trkpt><trkpt lat="45.754637491517855" lon="8.42182747484236"><ele>364.0</ele><time>2026-04-19T14:57:11.02Z</time></trkpt><trkpt lat="45.75457903776332" lon="8.421968935103573"><ele>364.0</ele><time>2026-04-19T14:57:12.02Z</time></trkpt><trkpt lat="45.754523140589725" lon="8.422114721917076"><ele>364.0</ele><time>2026-04-19T14:57:13.02Z</time></trkpt><trkpt lat="45.75447139547896" lon="8.422270471542985"><ele>364.0</ele><time>2026-04-19T14:57:14.02Z</time></trkpt><trkpt lat="45.75441137550821" lon="8.42242319638668"><ele>364.0</ele><time>2026-04-19T14:57:15.02Z</time></trkpt><trkpt lat="45.75434696857657" lon="8.422572057204114"><ele>364.0</ele><time>2026-04-19T14:57:16.02Z</time></trkpt><trkpt lat="45.75428430310905" lon="8.422723412482496"><ele>364.0</ele><time>2026-04-19T14:57:17.02Z</time></trkpt><trkpt lat="45.754221415382" lon="8.422874083122803"><ele>364.0</ele><time>2026-04-19T14:57:18.02Z</time></trkpt><trkpt lat="45.754162934806494" lon="8.423024196567981"><ele>364.25</ele><time>2026-04-19T14:57:19.02Z</time></trkpt><trkpt lat="45.75411016662375" lon="8.42317479996591"><ele>364.5</ele><time>2026-04-19T14:57:20.02Z</time></trkpt><trkpt lat="45.75404981846693" lon="8.423323806519745"><ele>364.75</ele><time>2026-04-19T14:57:21.02Z</time></trkpt><trkpt lat="45.75398949277042" lon="8.423474808778433"><ele>365.0</ele><time>2026-04-19T14:57:22.02Z</time></trkpt><trkpt lat="45.753926620075575" lon="8.423627153641077"><ele>365.0</ele><time>2026-04-19T14:57:23.02Z</time></trkpt><trkpt lat="45.753858562414685" lon="8.423776910150115"><ele>365.0</ele><time>2026-04-19T14:57:24.02Z</time></trkpt><trkpt lat="45.75378465889757" lon="8.423920532675497"><ele>365.0</ele><time>2026-04-19T14:57:25.02Z</time></trkpt><trkpt lat="45.75370235757972" lon="8.424052771915276"><ele>365.0</ele><time>2026-04-19T14:57:26.02Z</time></trkpt><trkpt lat="45.75361401374514" lon="8.424179256278785"><ele>364.6</ele><time>2026-04-19T14:57:27.02Z</time></trkpt><trkpt lat="45.753532910693934" lon="8.42430151537816"><ele>364.2</ele><time>2026-04-19T14:57:28.02Z</time></trkpt><trkpt lat="45.75345717880247" lon="8.424414413523689"><ele>363.79999999999995</ele><time>2026-04-19T14:57:29.02Z</time></trkpt><trkpt lat="45.75338571473455" lon="8.42452411870512"><ele>363.4</ele><time>2026-04-19T14:57:30.02Z</time></trkpt><trkpt lat="45.753321948090985" lon="8.424626968857282"><ele>363.0</ele><time>2026-04-19T14:57:31.02Z</time></trkpt><trkpt lat="45.75326021376067" lon="8.424721519776956"><ele>363.0</ele><time>2026-04-19T14:57:32.02Z</time></trkpt><trkpt lat="45.75318891229469" lon="8.42480830725751"><ele>363.0</ele><time>2026-04-19T14:57:33.02Z</time></trkpt><trkpt lat="45.753102217970195" lon="8.424872936082929"><ele>363.0</ele><time>2026-04-19T14:57:34.02Z</time></trkpt><trkpt lat="45.752998732007924" lon="8.424913907564054"><ele>363.0</ele><time>2026-04-19T14:57:35.02Z</time></trkpt><trkpt lat="45.75288635186924" lon="8.424942174526812"><ele>363.0</ele><time>2026-04-19T14:57:36.02Z</time></trkpt><trkpt lat="45.75276813175705" lon="8.424963470066436"><ele>363.0</ele><time>2026-04-19T14:57:37.02Z</time></trkpt><trkpt lat="45.75264301531916" lon="8.424986589715438"><ele>363.0</ele><time>2026-04-19T14:57:38.02Z</time></trkpt><trkpt lat="45.75251208633656" lon="8.425011858288414"><ele>363.0</ele><time>2026-04-19T14:57:39.02Z</time></trkpt><trkpt lat="45.75237708220376" lon="8.42503472721039"><ele>363.0</ele><time>2026-04-19T14:57:40.02Z</time></trkpt><trkpt lat="45.75224126024068" lon="8.425052825084036"><ele>363.0</ele><time>2026-04-19T14:57:41.02Z</time></trkpt><trkpt lat="45.752099942926385" lon="8.425063078533082"><ele>363.0</ele><time>2026-04-19T14:57:42.021Z</time></trkpt><trkpt lat="45.751960195752325" lon="8.42506651683685"><ele>363.0</ele><time>2026-04-19T14:57:43.021Z</time></trkpt><trkpt lat="45.75181637661454" lon="8.425061788506543"><ele>363.0</ele><time>2026-04-19T14:57:44.021Z</time></trkpt><trkpt lat="45.75167451630489" lon="8.425060698937623"><ele>362.75</ele><time>2026-04-19T14:57:45.021Z</time></trkpt><trkpt lat="45.751533101015546" lon="8.42506188536463"><ele>362.5</ele><time>2026-04-19T14:57:46.021Z</time></trkpt><trkpt lat="45.75139282443818" lon="8.425061522978444"><ele>362.25</ele><time>2026-04-19T14:57:47.021Z</time></trkpt><trkpt lat="45.751256627691156" lon="8.425060821485875"><ele>362.0</ele><time>2026-04-19T14:57:48.021Z</time></trkpt><trkpt lat="45.75111761759576" lon="8.425055960158474"><ele>361.75</ele><time>2026-04-19T14:57:49.021Z</time></trkpt><trkpt lat="45.75097467384385" lon="8.42505437576517"><ele>361.5</ele><time>2026-04-19T14:57:50.021Z</time></trkpt><trkpt lat="45.7508284307729" lon="8.425058746172072"><ele>361.25</ele><time>2026-04-19T14:57:51.021Z</time></trkpt><trkpt lat="45.75068152083152" lon="8.425053375037606"><ele>361.0</ele><time>2026-04-19T14:57:52.021Z</time></trkpt><trkpt lat="45.75053508626167" lon="8.425039056032782"><ele>361.0</ele><time>2026-04-19T14:57:53.021Z</time></trkpt><trkpt lat="45.750387498988324" lon="8.42502060203356"><ele>361.0</ele><time>2026-04-19T14:57:54.021Z</time></trkpt><trkpt lat="45.75023843424673" lon="8.425011184629316"><ele>361.0</ele><time>2026-04-19T14:57:55.021Z</time></trkpt><trkpt lat="45.75008906649854" lon="8.425008540913739"><ele>361.0</ele><time>2026-04-19T14:57:56.021Z</time></trkpt><trkpt lat="45.7499420082489" lon="8.425001421608956"><ele>361.3333333333333</ele><time>2026-04-19T14:57:57.021Z</time></trkpt><trkpt lat="45.749788917140556" lon="8.42499876600814"><ele>361.6666666666667</ele><time>2026-04-19T14:57:58.021Z</time></trkpt><trkpt lat="45.74963082863656" lon="8.4250106589307"><ele>362.0</ele><time>2026-04-19T14:57:59.021Z</time></trkpt><trkpt lat="45.749473848588124" lon="8.425016225430237"><ele>361.0</ele><time>2026-04-19T14:58:00.021Z</time></trkpt><trkpt lat="45.74931208098967" lon="8.425026525591658"><ele>360.0</ele><time>2026-04-19T14:58:01.021Z</time></trkpt><trkpt lat="45.74914698621724" lon="8.425046294703094"><ele>359.0</ele><time>2026-04-19T14:58:02.021Z</time></trkpt><trkpt lat="45.748980527526236" lon="8.425071765188834"><ele>359.0</ele><time>2026-04-19T14:58:03.021Z</time></trkpt><trkpt lat="45.74880886997615" lon="8.425078866740224"><ele>359.0</ele><time>2026-04-19T14:58:04.021Z</time></trkpt><trkpt lat="45.74864226941377" lon="8.425112231864746"><ele>359.0</ele><time>2026-04-19T14:58:05.021Z</time></trkpt><trkpt lat="45.74847407922066" lon="8.425159629577436"><ele>357.6666666666667</ele><time>2026-04-19T14:58:06.021Z</time></trkpt><trkpt lat="45.748312801307826" lon="8.425218591995005"><ele>356.3333333333333</ele><time>2026-04-19T14:58:07.021Z</time></trkpt><trkpt lat="45.748156897981346" lon="8.425280777903934"><ele>355.0</ele><time>2026-04-19T14:58:08.021Z</time></trkpt><trkpt lat="45.74800180916713" lon="8.42535217290196"><ele>355.0</ele><time>2026-04-19T14:58:09.021Z</time></trkpt><trkpt lat="45.747849736562394" lon="8.42543023181572"><ele>355.0</ele><time>2026-04-19T14:58:10.018Z</time></trkpt><trkpt lat="45.747702749318634" lon="8.425511947554147"><ele>355.0</ele><time>2026-04-19T14:58:11.017Z</time></trkpt><trkpt lat="45.74755517506648" lon="8.425602770286803"><ele>355.3333333333333</ele><time>2026-04-19T14:58:12.017Z</time></trkpt><trkpt lat="45.74741031033579" lon="8.425693589258325"><ele>355.6666666666667</ele><time>2026-04-19T14:58:13.018Z</time></trkpt><trkpt lat="45.74726444758937" lon="8.425783719628889"><ele>356.0</ele><time>2026-04-19T14:58:14.018Z</time></trkpt><trkpt lat="45.74712846932298" lon="8.425873405565312"><ele>356.0</ele><time>2026-04-19T14:58:15.018Z</time></trkpt><trkpt lat="45.74699831129616" lon="8.425956289692339"><ele>356.0</ele><time>2026-04-19T14:58:16.018Z</time></trkpt><trkpt lat="45.7468720798686" lon="8.42603506517646"><ele>356.0</ele><time>2026-04-19T14:58:17.018Z</time></trkpt><trkpt lat="45.74674747979831" lon="8.42611398989052"><ele>356.0</ele><time>2026-04-19T14:58:18.018Z</time></trkpt><trkpt lat="45.74662976897975" lon="8.426186484335084"><ele>355.75</ele><time>2026-04-19T14:58:19.018Z</time></trkpt><trkpt lat="45.74651353154371" lon="8.426255920523284"><ele>355.5</ele><time>2026-04-19T14:58:20.017Z</time></trkpt><trkpt lat="45.74639587470485" lon="8.426333624667818"><ele>355.25</ele><time>2026-04-19T14:58:21.017Z</time></trkpt><trkpt lat="45.74627569475662" lon="8.42640923002057"><ele>355.0</ele><time>2026-04-19T14:58:22.018Z</time></trkpt><trkpt lat="45.7461557353672" lon="8.426487228940555"><ele>354.75</ele><time>2026-04-19T14:58:23.017Z</time></trkpt><trkpt lat="45.74603939915906" lon="8.426563078239639"><ele>354.5</ele><time>2026-04-19T14:58:24.017Z</time></trkpt><trkpt lat="45.745932997424" lon="8.426639334269485"><ele>354.25</ele><time>2026-04-19T14:58:25.017Z</time></trkpt><trkpt lat="45.745832854605055" lon="8.42670531227827"><ele>354.0</ele><time>2026-04-19T14:58:26.017Z</time></trkpt><trkpt lat="45.74573583497794" lon="8.426771994646591"><ele>354.0</ele><time>2026-04-19T14:58:27.017Z</time></trkpt><trkpt lat="45.74564633708287" lon="8.426828536185551"><ele>354.0</ele><time>2026-04-19T14:58:28.017Z</time></trkpt><trkpt lat="45.74557906795887" lon="8.426875667816295"><ele>354.0</ele><time>2026-04-19T14:58:29.018Z</time></trkpt><trkpt lat="45.7454793875868" lon="8.426927333541553"><ele>354.0</ele><time>2026-04-19T14:58:31.018Z</time></trkpt><trkpt lat="45.745386430134126" lon="8.426927901791718"><ele>354.0</ele><time>2026-04-19T14:58:33.018Z</time></trkpt><trkpt lat="45.74529274575933" lon="8.426862641543723"><ele>354.0</ele><time>2026-04-19T14:58:35.018Z</time></trkpt><trkpt lat="45.745254385962426" lon="8.426786084091681"><ele>354.0</ele><time>2026-04-19T14:58:36.018Z</time></trkpt><trkpt lat="45.7452261033687" lon="8.426702840498871"><ele>354.0</ele><time>2026-04-19T14:58:37.018Z</time></trkpt><trkpt lat="45.74521073115743" lon="8.426579710991756"><ele>354.0</ele><time>2026-04-19T14:58:38.018Z</time></trkpt><trkpt lat="45.74518890431474" lon="8.426447926582515"><ele>354.0</ele><time>2026-04-19T14:58:39.018Z</time></trkpt><trkpt lat="45.745164145860386" lon="8.426302613383378"><ele>354.0</ele><time>2026-04-19T14:58:40.018Z</time></trkpt><trkpt lat="45.74513515175834" lon="8.426162767474493"><ele>356.0</ele><time>2026-04-19T14:58:41.018Z</time></trkpt><trkpt lat="45.74510047193339" lon="8.42602097991549"><ele>358.0</ele><time>2026-04-19T14:58:42.018Z</time></trkpt><trkpt lat="45.745059086984064" lon="8.42587446280487"><ele>360.0</ele><time>2026-04-19T14:58:43.018Z</time></trkpt><trkpt lat="45.745009430257426" lon="8.425726427767097"><ele>362.0</ele><time>2026-04-19T14:58:44.018Z</time></trkpt><trkpt lat="45.74495545171847" lon="8.42557137420078"><ele>364.0</ele><time>2026-04-19T14:58:45.018Z</time></trkpt><trkpt lat="45.74489522132267" lon="8.425423612338832"><ele>366.0</ele><time>2026-04-19T14:58:46.018Z</time></trkpt><trkpt lat="45.744821474684954" lon="8.425279559562481"><ele>368.0</ele><time>2026-04-19T14:58:47.018Z</time></trkpt><trkpt lat="45.744747563021605" lon="8.425154955598991"><ele>370.0</ele><time>2026-04-19T14:58:48.018Z</time></trkpt><trkpt lat="45.74467310497599" lon="8.425042973285867"><ele>370.0</ele><time>2026-04-19T14:58:49.018Z</time></trkpt><trkpt lat="45.74459702520606" lon="8.424934536248365"><ele>370.0</ele><time>2026-04-19T14:58:50.018Z</time></trkpt><trkpt lat="45.74451862419152" lon="8.42483798677281"><ele>370.0</ele><time>2026-04-19T14:58:51.018Z</time></trkpt><trkpt lat="45.74443784797581" lon="8.42474801146993"><ele>370.0</ele><time>2026-04-19T14:58:52.018Z</time></trkpt><trkpt lat="45.74435625182031" lon="8.424661251044643"><ele>370.0</ele><time>2026-04-19T14:58:53.018Z</time></trkpt><trkpt lat="45.74427166984105" lon="8.424579590681157"><ele>370.8</ele><time>2026-04-19T14:58:54.018Z</time></trkpt><trkpt lat="45.744189341049676" lon="8.424494397212776"><ele>371.6</ele><time>2026-04-19T14:58:55.018Z</time></trkpt><trkpt lat="45.744108062347095" lon="8.424416763909523"><ele>372.4</ele><time>2026-04-19T14:58:56.018Z</time></trkpt><trkpt lat="45.74402310650588" lon="8.424346185360692"><ele>373.2</ele><time>2026-04-19T14:58:57.018Z</time></trkpt><trkpt lat="45.74394703278586" lon="8.424282450015191"><ele>374.0</ele><time>2026-04-19T14:58:58.018Z</time></trkpt><trkpt lat="45.74387442959039" lon="8.424233263468222"><ele>374.0</ele><time>2026-04-19T14:58:59.018Z</time></trkpt><trkpt lat="45.7438080503527" lon="8.424182734452318"><ele>374.0</ele><time>2026-04-19T14:59:00.018Z</time></trkpt><trkpt lat="45.74374431010428" lon="8.424134830199412"><ele>374.0</ele><time>2026-04-19T14:59:01.018Z</time></trkpt><trkpt lat="45.743682720923246" lon="8.424090286406651"><ele>374.0</ele><time>2026-04-19T14:59:02.019Z</time></trkpt><trkpt lat="45.743624727168786" lon="8.424033007942363"><ele>374.0</ele><time>2026-04-19T14:59:03.019Z</time></trkpt><trkpt lat="45.74357155650189" lon="8.423960125374027"><ele>374.0</ele><time>2026-04-19T14:59:04.019Z</time></trkpt><trkpt lat="45.74352132561393" lon="8.423879794072702"><ele>374.0</ele><time>2026-04-19T14:59:05.019Z</time></trkpt><trkpt lat="45.74346633013616" lon="8.423825255906493"><ele>373.2</ele><time>2026-04-19T14:59:06.019Z</time></trkpt><trkpt lat="45.743335832981636" lon="8.423821695379262"><ele>372.4</ele><time>2026-04-19T14:59:08.019Z</time></trkpt><trkpt lat="45.743262172556484" lon="8.423873420773011"><ele>371.6</ele><time>2026-04-19T14:59:09.019Z</time></trkpt><trkpt lat="45.743189808860905" lon="8.423948952141783"><ele>370.8</ele><time>2026-04-19T14:59:10.019Z</time></trkpt><trkpt lat="45.74310637769775" lon="8.424006577235138"><ele>370.0</ele><time>2026-04-19T14:59:11.019Z</time></trkpt><trkpt lat="45.74300354336896" lon="8.42405558109854"><ele>370.0</ele><time>2026-04-19T14:59:12.019Z</time></trkpt><trkpt lat="45.742884629745475" lon="8.424080459291124"><ele>370.0</ele><time>2026-04-19T14:59:13.019Z</time></trkpt><trkpt lat="45.74275022080782" lon="8.424127163555879"><ele>370.0</ele><time>2026-04-19T14:59:14.019Z</time></trkpt><trkpt lat="45.742611882722585" lon="8.424188647654553"><ele>370.0</ele><time>2026-04-19T14:59:15.019Z</time></trkpt><trkpt lat="45.74248154685723" lon="8.424258278662755"><ele>368.66666666666663</ele><time>2026-04-19T14:59:16.019Z</time></trkpt><trkpt lat="45.74234957257917" lon="8.424338577548646"><ele>367.3333333333333</ele><time>2026-04-19T14:59:17.019Z</time></trkpt><trkpt lat="45.74221365468634" lon="8.424435447224715"><ele>366.0</ele><time>2026-04-19T14:59:18.019Z</time></trkpt><trkpt lat="45.74207308159927" lon="8.424540373149602"><ele>367.0</ele><time>2026-04-19T14:59:19.019Z</time></trkpt><trkpt lat="45.74193227347343" lon="8.424649750068896"><ele>368.0</ele><time>2026-04-19T14:59:20.019Z</time></trkpt><trkpt lat="45.74179460142096" lon="8.424765291458597"><ele>369.0</ele><time>2026-04-19T14:59:21.019Z</time></trkpt><trkpt lat="45.741657547405964" lon="8.424886214804387"><ele>369.0</ele><time>2026-04-19T14:59:22.019Z</time></trkpt><trkpt lat="45.74152103037655" lon="8.425012635969637"><ele>369.0</ele><time>2026-04-19T14:59:23.019Z</time></trkpt><trkpt lat="45.74138059800518" lon="8.425147548391172"><ele>369.0</ele><time>2026-04-19T14:59:24.019Z</time></trkpt><trkpt lat="45.74123967896684" lon="8.425278216927154"><ele>369.0</ele><time>2026-04-19T14:59:25.019Z</time></trkpt><trkpt lat="45.74110353287832" lon="8.425406631540623"><ele>369.0</ele><time>2026-04-19T14:59:26.019Z</time></trkpt><trkpt lat="45.74097465929705" lon="8.425531251288863"><ele>369.0</ele><time>2026-04-19T14:59:27.019Z</time></trkpt><trkpt lat="45.7408406073116" lon="8.425656483253585"><ele>368.3333333333333</ele><time>2026-04-19T14:59:28.019Z</time></trkpt><trkpt lat="45.740705829351555" lon="8.425787625589612"><ele>367.66666666666663</ele><time>2026-04-19T14:59:29.019Z</time></trkpt><trkpt lat="45.740565147061474" lon="8.42592559806102"><ele>367.0</ele><time>2026-04-19T14:59:30.019Z</time></trkpt><trkpt lat="45.74042433921674" lon="8.42605422167258"><ele>367.0</ele><time>2026-04-19T14:59:31.019Z</time></trkpt><trkpt lat="45.740291970316804" lon="8.426182041510039"><ele>367.0</ele><time>2026-04-19T14:59:32.019Z</time></trkpt><trkpt lat="45.740166575671836" lon="8.426316553399028"><ele>367.0</ele><time>2026-04-19T14:59:33.019Z</time></trkpt><trkpt lat="45.740048440710645" lon="8.426460422635683"><ele>367.66666666666663</ele><time>2026-04-19T14:59:34.019Z</time></trkpt><trkpt lat="45.739934409978254" lon="8.426615997121406"><ele>368.3333333333333</ele><time>2026-04-19T14:59:35.019Z</time></trkpt><trkpt lat="45.739818416133595" lon="8.426770318376688"><ele>369.0</ele><time>2026-04-19T14:59:36.02Z</time></trkpt><trkpt lat="45.73971121177787" lon="8.426939928764874"><ele>369.0</ele><time>2026-04-19T14:59:37.02Z</time></trkpt><trkpt lat="45.73960758827482" lon="8.427121822268804"><ele>369.0</ele><time>2026-04-19T14:59:38.02Z</time></trkpt><trkpt lat="45.73950750788866" lon="8.427311564687987"><ele>369.0</ele><time>2026-04-19T14:59:39.02Z</time></trkpt><trkpt lat="45.7394183054569" lon="8.427507271020778"><ele>368.6666666666667</ele><time>2026-04-19T14:59:40.02Z</time></trkpt><trkpt lat="45.739341728874294" lon="8.427717356461525"><ele>368.33333333333337</ele><time>2026-04-19T14:59:41.02Z</time></trkpt><trkpt lat="45.73927258678181" lon="8.427928535941557"><ele>368.0</ele><time>2026-04-19T14:59:42.02Z</time></trkpt><trkpt lat="45.73921297878733" lon="8.428147336683326"><ele>368.0</ele><time>2026-04-19T14:59:43.02Z</time></trkpt><trkpt lat="45.739159945681884" lon="8.428371515032234"><ele>368.0</ele><time>2026-04-19T14:59:44.02Z</time></trkpt><trkpt lat="45.73911683321946" lon="8.428595908629099"><ele>368.0</ele><time>2026-04-19T14:59:45.02Z</time></trkpt><trkpt lat="45.73908818295802" lon="8.42881544969907"><ele>367.25</ele><time>2026-04-19T14:59:46.02Z</time></trkpt><trkpt lat="45.73907084436741" lon="8.429021327257818"><ele>366.5</ele><time>2026-04-19T14:59:47.02Z</time></trkpt><trkpt lat="45.73906266438255" lon="8.429219113624486"><ele>365.75</ele><time>2026-04-19T14:59:48.02Z</time></trkpt><trkpt lat="45.73905459160062" lon="8.429406383091369"><ele>365.0</ele><time>2026-04-19T14:59:49.02Z</time></trkpt><trkpt lat="45.73904016037258" lon="8.429594437441676"><ele>364.5</ele><time>2026-04-19T14:59:50.02Z</time></trkpt><trkpt lat="45.739023939456104" lon="8.429780108388186"><ele>364.0</ele><time>2026-04-19T14:59:51.02Z</time></trkpt><trkpt lat="45.73900265143597" lon="8.429963689178877"><ele>363.5</ele><time>2026-04-19T14:59:52.02Z</time></trkpt><trkpt lat="45.73897885764046" lon="8.43013507677592"><ele>363.0</ele><time>2026-04-19T14:59:53.02Z</time></trkpt><trkpt lat="45.73894460587113" lon="8.430293501125378"><ele>363.0</ele><time>2026-04-19T14:59:54.02Z</time></trkpt><trkpt lat="45.73890769396276" lon="8.430435142265338"><ele>363.0</ele><time>2026-04-19T14:59:55.02Z</time></trkpt><trkpt lat="45.738871707438584" lon="8.430570111777937"><ele>363.0</ele><time>2026-04-19T14:59:56.02Z</time></trkpt><trkpt lat="45.738824019934285" lon="8.430694502589798"><ele>363.0</ele><time>2026-04-19T14:59:57.02Z</time></trkpt><trkpt lat="45.73877259531815" lon="8.430805779942759"><ele>363.0</ele><time>2026-04-19T14:59:58.02Z</time></trkpt><trkpt lat="45.73872855324729" lon="8.430897733992074"><ele>362.3333333333333</ele><time>2026-04-19T14:59:59.02Z</time></trkpt><trkpt lat="45.73868744117838" lon="8.430969770150872"><ele>361.6666666666667</ele><time>2026-04-19T15:00:00.02Z</time></trkpt><trkpt lat="45.73863012982383" lon="8.431071022481682"><ele>361.0</ele><time>2026-04-19T15:00:02.02Z</time></trkpt><trkpt lat="45.738590744107675" lon="8.431143840912386"><ele>360.33333333333337</ele><time>2026-04-19T15:00:04.02Z</time></trkpt><trkpt lat="45.73854330308801" lon="8.431226273715634"><ele>359.6666666666667</ele><time>2026-04-19T15:00:07.02Z</time></trkpt><trkpt lat="45.73846376078497" lon="8.431330709684627"><ele>359.0</ele><time>2026-04-19T15:00:10.021Z</time></trkpt><trkpt lat="45.73834223402425" lon="8.431400750966858"><ele>358.4</ele><time>2026-04-19T15:00:12.021Z</time></trkpt><trkpt lat="45.73826518315765" lon="8.431415072855764"><ele>357.79999999999995</ele><time>2026-04-19T15:00:13.021Z</time></trkpt><trkpt lat="45.73816380017649" lon="8.431403033511618"><ele>357.20000000000005</ele><time>2026-04-19T15:00:14.021Z</time></trkpt><trkpt lat="45.738056231314225" lon="8.431373856696776"><ele>356.6</ele><time>2026-04-19T15:00:15.021Z</time></trkpt><trkpt lat="45.73794032493249" lon="8.431321589581495"><ele>356.0</ele><time>2026-04-19T15:00:16.018Z</time></trkpt><trkpt lat="45.73782181749163" lon="8.43126178022104"><ele>358.75</ele><time>2026-04-19T15:00:17.018Z</time></trkpt><trkpt lat="45.73769111870339" lon="8.431191683788864"><ele>361.5</ele><time>2026-04-19T15:00:18.018Z</time></trkpt><trkpt lat="45.73755503277844" lon="8.43110952765782"><ele>364.25</ele><time>2026-04-19T15:00:19.018Z</time></trkpt><trkpt lat="45.73741839973362" lon="8.431030215928297"><ele>367.0</ele><time>2026-04-19T15:00:20.017Z</time></trkpt><trkpt lat="45.73727471339343" lon="8.430945496174807"><ele>367.0</ele><time>2026-04-19T15:00:21.017Z</time></trkpt><trkpt lat="45.73712336748226" lon="8.430861596138268"><ele>367.0</ele><time>2026-04-19T15:00:22.017Z</time></trkpt><trkpt lat="45.736976398318674" lon="8.430769255184613"><ele>367.0</ele><time>2026-04-19T15:00:23.017Z</time></trkpt><trkpt lat="45.7368239058899" lon="8.430666189689566"><ele>368.3333333333333</ele><time>2026-04-19T15:00:24.017Z</time></trkpt><trkpt lat="45.73666824427553" lon="8.430557801333807"><ele>369.6666666666667</ele><time>2026-04-19T15:00:25.018Z</time></trkpt><trkpt lat="45.736508406692494" lon="8.430441267550654"><ele>371.0</ele><time>2026-04-19T15:00:26.017Z</time></trkpt><trkpt lat="45.73634257434626" lon="8.43032245193991"><ele>371.0</ele><time>2026-04-19T15:00:27.017Z</time></trkpt><trkpt lat="45.73617259963454" lon="8.430216632261137"><ele>371.0</ele><time>2026-04-19T15:00:28.018Z</time></trkpt><trkpt lat="45.736000520412965" lon="8.43012675526311"><ele>371.0</ele><time>2026-04-19T15:00:29.018Z</time></trkpt><trkpt lat="45.735826293842514" lon="8.430048982145207"><ele>366.6666666666667</ele><time>2026-04-19T15:00:30.018Z</time></trkpt><trkpt lat="45.73565424452116" lon="8.429986712250859"><ele>362.3333333333333</ele><time>2026-04-19T15:00:31.018Z</time></trkpt><trkpt lat="45.735486264523274" lon="8.42992070502154"><ele>358.0</ele><time>2026-04-19T15:00:32.018Z</time></trkpt><trkpt lat="45.73532603546798" lon="8.42984410996333"><ele>357.66666666666663</ele><time>2026-04-19T15:00:33.018Z</time></trkpt><trkpt lat="45.73517774579584" lon="8.429743291918033"><ele>357.3333333333333</ele><time>2026-04-19T15:00:34.018Z</time></trkpt><trkpt lat="45.73503387251625" lon="8.429629180506312"><ele>357.0</ele><time>2026-04-19T15:00:35.018Z</time></trkpt><trkpt lat="45.734898182457" lon="8.429514840558644"><ele>357.0</ele><time>2026-04-19T15:00:36.018Z</time></trkpt><trkpt lat="45.73477108308305" lon="8.429379134935395"><ele>357.0</ele><time>2026-04-19T15:00:37.018Z</time></trkpt><trkpt lat="45.73465967833017" lon="8.429240463685153"><ele>357.0</ele><time>2026-04-19T15:00:38.018Z</time></trkpt><trkpt lat="45.73456055151062" lon="8.429102048205976"><ele>357.0</ele><time>2026-04-19T15:00:39.018Z</time></trkpt><trkpt lat="45.73447248686766" lon="8.428971222850599"><ele>357.0</ele><time>2026-04-19T15:00:40.018Z</time></trkpt><trkpt lat="45.73439409427133" lon="8.42884499799162"><ele>357.0</ele><time>2026-04-19T15:00:41.018Z</time></trkpt><trkpt lat="45.73431939473589" lon="8.42872322798921"><ele>357.0</ele><time>2026-04-19T15:00:42.018Z</time></trkpt><trkpt lat="45.73425087119813" lon="8.428608050515162"><ele>357.0</ele><time>2026-04-19T15:00:43.018Z</time></trkpt><trkpt lat="45.73418468033737" lon="8.4284965479469"><ele>357.0</ele><time>2026-04-19T15:00:44.018Z</time></trkpt><trkpt lat="45.73411811344744" lon="8.42838731063391"><ele>356.0</ele><time>2026-04-19T15:00:45.018Z</time></trkpt><trkpt lat="45.73405514811556" lon="8.428282129679443"><ele>355.0</ele><time>2026-04-19T15:00:46.018Z</time></trkpt><trkpt lat="45.73399063365706" lon="8.428185728388248"><ele>354.0</ele><time>2026-04-19T15:00:47.019Z</time></trkpt><trkpt lat="45.73391934200333" lon="8.428096012059761"><ele>353.0</ele><time>2026-04-19T15:00:48.019Z</time></trkpt><trkpt lat="45.733840457809386" lon="8.428038748018167"><ele>352.0</ele><time>2026-04-19T15:00:49.019Z</time></trkpt><trkpt lat="45.73375191093587" lon="8.428026276577926"><ele>352.0</ele><time>2026-04-19T15:00:50.019Z</time></trkpt><trkpt lat="45.73365932316925" lon="8.428057976497376"><ele>352.0</ele><time>2026-04-19T15:00:51.019Z</time></trkpt><trkpt lat="45.7335703797871" lon="8.428123118799988"><ele>352.0</ele><time>2026-04-19T15:00:52.019Z</time></trkpt><trkpt lat="45.73348065804095" lon="8.428189969107246"><ele>352.0</ele><time>2026-04-19T15:00:53.019Z</time></trkpt><trkpt lat="45.73339664433006" lon="8.428260590873382"><ele>352.0</ele><time>2026-04-19T15:00:54.019Z</time></trkpt><trkpt lat="45.733298368886594" lon="8.42833210535591"><ele>355.5</ele><time>2026-04-19T15:00:55.019Z</time></trkpt><trkpt lat="45.73318741892137" lon="8.428414644452571"><ele>359.0</ele><time>2026-04-19T15:00:56.019Z</time></trkpt><trkpt lat="45.73307965087189" lon="8.428512989201879"><ele>362.5</ele><time>2026-04-19T15:00:57.019Z</time></trkpt><trkpt lat="45.732984696210245" lon="8.428616139669305"><ele>366.0</ele><time>2026-04-19T15:00:58.019Z</time></trkpt><trkpt lat="45.73289295900165" lon="8.428702017642228"><ele>366.0</ele><time>2026-04-19T15:00:59.019Z</time></trkpt><trkpt lat="45.73279611807349" lon="8.428737392805234"><ele>366.0</ele><time>2026-04-19T15:01:00.019Z</time></trkpt><trkpt lat="45.73268685062116" lon="8.428733545472312"><ele>366.0</ele><time>2026-04-19T15:01:01.019Z</time></trkpt><trkpt lat="45.732571728879684" lon="8.428729559867195"><ele>366.0</ele><time>2026-04-19T15:01:02.019Z</time></trkpt><trkpt lat="45.732454345616446" lon="8.42874470294989"><ele>366.0</ele><time>2026-04-19T15:01:03.019Z</time></trkpt><trkpt lat="45.73233244813192" lon="8.42875920713804"><ele>366.5</ele><time>2026-04-19T15:01:04.019Z</time></trkpt><trkpt lat="45.73221067935863" lon="8.428777389401043"><ele>367.0</ele><time>2026-04-19T15:01:05.019Z</time></trkpt><trkpt lat="45.73208751439265" lon="8.428798798453357"><ele>367.5</ele><time>2026-04-19T15:01:06.019Z</time></trkpt><trkpt lat="45.731963691681216" lon="8.42883375393297"><ele>368.0</ele><time>2026-04-19T15:01:07.019Z</time></trkpt><trkpt lat="45.7318423206925" lon="8.42888089386414"><ele>369.75</ele><time>2026-04-19T15:01:08.019Z</time></trkpt><trkpt lat="45.731720386163445" lon="8.428931609822127"><ele>371.5</ele><time>2026-04-19T15:01:09.019Z</time></trkpt><trkpt lat="45.73160474602586" lon="8.428993172646562"><ele>373.25</ele><time>2026-04-19T15:01:10.019Z</time></trkpt><trkpt lat="45.731491421555546" lon="8.429054756125531"><ele>375.0</ele><time>2026-04-19T15:01:11.019Z</time></trkpt><trkpt lat="45.7313747801749" lon="8.429111394127123"><ele>375.0</ele><time>2026-04-19T15:01:12.019Z</time></trkpt><trkpt lat="45.73125697284348" lon="8.429170260024067"><ele>375.0</ele><time>2026-04-19T15:01:13.019Z</time></trkpt><trkpt lat="45.73113820890654" lon="8.4292302130265"><ele>375.0</ele><time>2026-04-19T15:01:14.019Z</time></trkpt><trkpt lat="45.731010073598746" lon="8.429285239558073"><ele>375.0</ele><time>2026-04-19T15:01:15.019Z</time></trkpt><trkpt lat="45.730880897920606" lon="8.429344404213339"><ele>377.5</ele><time>2026-04-19T15:01:16.019Z</time></trkpt><trkpt lat="45.73074570340272" lon="8.429392778948381"><ele>380.0</ele><time>2026-04-19T15:01:17.019Z</time></trkpt><trkpt lat="45.73061695104095" lon="8.429435952099576"><ele>382.5</ele><time>2026-04-19T15:01:18.019Z</time></trkpt><trkpt lat="45.7304911350396" lon="8.429471303698529"><ele>385.0</ele><time>2026-04-19T15:01:19.019Z</time></trkpt><trkpt lat="45.7303672542873" lon="8.429497822288326"><ele>385.0</ele><time>2026-04-19T15:01:20.02Z</time></trkpt><trkpt lat="45.730245703432125" lon="8.429528276994256"><ele>385.0</ele><time>2026-04-19T15:01:21.02Z</time></trkpt><trkpt lat="45.73012973392818" lon="8.429556909437869"><ele>385.0</ele><time>2026-04-19T15:01:22.02Z</time></trkpt><trkpt lat="45.73003192339026" lon="8.429577590593054"><ele>385.0</ele><time>2026-04-19T15:01:23.02Z</time></trkpt><trkpt lat="45.72994166879447" lon="8.429607913119288"><ele>385.0</ele><time>2026-04-19T15:01:24.02Z</time></trkpt><trkpt lat="45.72985918406828" lon="8.429644826117988"><ele>384.4</ele><time>2026-04-19T15:01:25.02Z</time></trkpt><trkpt lat="45.729782513562284" lon="8.429664916313444"><ele>383.8</ele><time>2026-04-19T15:01:26.02Z</time></trkpt><trkpt lat="45.72971371035507" lon="8.429682324616612"><ele>383.20000000000005</ele><time>2026-04-19T15:01:27.02Z</time></trkpt><trkpt lat="45.72959481322551" lon="8.429705910450947"><ele>382.6</ele><time>2026-04-19T15:01:29.02Z</time></trkpt><trkpt lat="45.72948825422213" lon="8.429647190580871"><ele>382.0</ele><time>2026-04-19T15:01:31.02Z</time></trkpt><trkpt lat="45.72945449997437" lon="8.429543174778672"><ele>384.3333333333333</ele><time>2026-04-19T15:01:32.02Z</time></trkpt><trkpt lat="45.72942071767869" lon="8.429457813030805"><ele>386.66666666666663</ele><time>2026-04-19T15:01:33.02Z</time></trkpt><trkpt lat="45.72936356641646" lon="8.429388386119069"><ele>389.0</ele><time>2026-04-19T15:01:34.02Z</time></trkpt><trkpt lat="45.729294913673066" lon="8.429328782964628"><ele>391.3333333333333</ele><time>2026-04-19T15:01:35.02Z</time></trkpt><trkpt lat="45.72920961272166" lon="8.42930126674022"><ele>393.6666666666667</ele><time>2026-04-19T15:01:36.02Z</time></trkpt><trkpt lat="45.72911831859572" lon="8.429306155789943"><ele>396.0</ele><time>2026-04-19T15:01:37.02Z</time></trkpt><trkpt lat="45.72903056350109" lon="8.429334404743864"><ele>396.3333333333333</ele><time>2026-04-19T15:01:38.02Z</time></trkpt><trkpt lat="45.728944008626414" lon="8.42937297241502"><ele>396.66666666666663</ele><time>2026-04-19T15:01:39.02Z</time></trkpt><trkpt lat="45.72886095426094" lon="8.42941029597601"><ele>397.0</ele><time>2026-04-19T15:01:40.02Z</time></trkpt><trkpt lat="45.728776758785465" lon="8.429441283457459"><ele>397.3333333333333</ele><time>2026-04-19T15:01:41.02Z</time></trkpt><trkpt lat="45.72869343489544" lon="8.42948196599494"><ele>397.66666666666663</ele><time>2026-04-19T15:01:42.02Z</time></trkpt><trkpt lat="45.728615307362254" lon="8.429538664322214"><ele>398.0</ele><time>2026-04-19T15:01:43.02Z</time></trkpt><trkpt lat="45.72853560368866" lon="8.429573733589455"><ele>398.0</ele><time>2026-04-19T15:01:44.02Z</time></trkpt><trkpt lat="45.728411752605766" lon="8.429608821594087"><ele>398.0</ele><time>2026-04-19T15:01:46.02Z</time></trkpt><trkpt lat="45.72833644415371" lon="8.429633135350933"><ele>398.0</ele><time>2026-04-19T15:01:47.02Z</time></trkpt><trkpt lat="45.728246187040334" lon="8.429657814250756"><ele>398.0</ele><time>2026-04-19T15:01:48.02Z</time></trkpt><trkpt lat="45.7281458465095" lon="8.42969885648978"><ele>398.0</ele><time>2026-04-19T15:01:49.02Z</time></trkpt><trkpt lat="45.72805124219404" lon="8.429733473691305"><ele>398.0</ele><time>2026-04-19T15:01:50.02Z</time></trkpt><trkpt lat="45.72794472849789" lon="8.42977753166783"><ele>398.0</ele><time>2026-04-19T15:01:51.02Z</time></trkpt><trkpt lat="45.727834049279934" lon="8.42981284855255"><ele>398.0</ele><time>2026-04-19T15:01:52.02Z</time></trkpt><trkpt lat="45.72772350422964" lon="8.429848775871706"><ele>398.0</ele><time>2026-04-19T15:01:53.021Z</time></trkpt><trkpt lat="45.72761324974524" lon="8.429887158197436"><ele>397.75</ele><time>2026-04-19T15:01:54.021Z</time></trkpt><trkpt lat="45.727503097323286" lon="8.429929692468395"><ele>397.5</ele><time>2026-04-19T15:01:55.021Z</time></trkpt><trkpt lat="45.72739612519352" lon="8.429974611059892"><ele>397.25</ele><time>2026-04-19T15:01:56.021Z</time></trkpt><trkpt lat="45.727288144938186" lon="8.430014290409312"><ele>397.0</ele><time>2026-04-19T15:01:57.021Z</time></trkpt><trkpt lat="45.72717895707373" lon="8.43005412297349"><ele>397.0</ele><time>2026-04-19T15:01:58.021Z</time></trkpt><trkpt lat="45.727071268708514" lon="8.430103080584272"><ele>397.0</ele><time>2026-04-19T15:01:59.021Z</time></trkpt><trkpt lat="45.72696315456721" lon="8.430149473796684"><ele>397.0</ele><time>2026-04-19T15:02:00.021Z</time></trkpt><trkpt lat="45.726854191339584" lon="8.430198145078268"><ele>397.0</ele><time>2026-04-19T15:02:01.021Z</time></trkpt><trkpt lat="45.72674746817989" lon="8.430245479609722"><ele>396.8</ele><time>2026-04-19T15:02:02.021Z</time></trkpt><trkpt lat="45.726649332763394" lon="8.430297333544253"><ele>396.6</ele><time>2026-04-19T15:02:03.021Z</time></trkpt><trkpt lat="45.72654866628464" lon="8.430338576995343"><ele>396.40000000000003</ele><time>2026-04-19T15:02:04.021Z</time></trkpt><trkpt lat="45.726459137697724" lon="8.430372231303753"><ele>396.20000000000005</ele><time>2026-04-19T15:02:05.021Z</time></trkpt><trkpt lat="45.72637061703782" lon="8.430397156276133"><ele>396.0</ele><time>2026-04-19T15:02:06.021Z</time></trkpt><trkpt lat="45.72629313648321" lon="8.430391928729977"><ele>396.0</ele><time>2026-04-19T15:02:07.021Z</time></trkpt><trkpt lat="45.72623168884406" lon="8.430366569431351"><ele>396.0</ele><time>2026-04-19T15:02:08.021Z</time></trkpt><trkpt lat="45.7261755904062" lon="8.430300175222127"><ele>396.0</ele><time>2026-04-19T15:02:09.021Z</time></trkpt><trkpt lat="45.726125067720155" lon="8.430190062127393"><ele>396.0</ele><time>2026-04-19T15:02:10.021Z</time></trkpt><trkpt lat="45.726072704315094" lon="8.43007389693526"><ele>396.0</ele><time>2026-04-19T15:02:11.021Z</time></trkpt><trkpt lat="45.725989590687206" lon="8.429972324246753"><ele>396.0</ele><time>2026-04-19T15:02:12.021Z</time></trkpt><trkpt lat="45.725895175575744" lon="8.429891763428712"><ele>395.8</ele><time>2026-04-19T15:02:13.021Z</time></trkpt><trkpt lat="45.72579579583109" lon="8.429819970698183"><ele>395.6</ele><time>2026-04-19T15:02:14.021Z</time></trkpt><trkpt lat="45.72569339996193" lon="8.429755515955952"><ele>395.4</ele><time>2026-04-19T15:02:15.021Z</time></trkpt><trkpt lat="45.72560139741904" lon="8.429679594168185"><ele>395.2</ele><time>2026-04-19T15:02:16.021Z</time></trkpt><trkpt lat="45.72552232470946" lon="8.429577114373355"><ele>395.0</ele><time>2026-04-19T15:02:17.021Z</time></trkpt><trkpt lat="45.72545842112255" lon="8.429451142674942"><ele>395.0</ele><time>2026-04-19T15:02:18.021Z</time></trkpt><trkpt lat="45.725399750232256" lon="8.429308864933402"><ele>395.0</ele><time>2026-04-19T15:02:19.021Z</time></trkpt><trkpt lat="45.725344337145096" lon="8.429163490071819"><ele>395.0</ele><time>2026-04-19T15:02:20.021Z</time></trkpt><trkpt lat="45.72529170507414" lon="8.429015498372564"><ele>395.0</ele><time>2026-04-19T15:02:21.021Z</time></trkpt><trkpt lat="45.72523733017242" lon="8.428869148671243"><ele>394.6</ele><time>2026-04-19T15:02:22.017Z</time></trkpt><trkpt lat="45.725184849799724" lon="8.428726326471814"><ele>394.2</ele><time>2026-04-19T15:02:23.018Z</time></trkpt><trkpt lat="45.725124724851014" lon="8.428592649702548"><ele>393.79999999999995</ele><time>2026-04-19T15:02:24.018Z</time></trkpt><trkpt lat="45.72504999883322" lon="8.428482624616954"><ele>393.4</ele><time>2026-04-19T15:02:25.018Z</time></trkpt><trkpt lat="45.724956896159895" lon="8.428388176847701"><ele>393.0</ele><time>2026-04-19T15:02:26.018Z</time></trkpt><trkpt lat="45.72484802561147" lon="8.428314731445482"><ele>393.0</ele><time>2026-04-19T15:02:27.018Z</time></trkpt><trkpt lat="45.72474064639772" lon="8.428252353407172"><ele>393.0</ele><time>2026-04-19T15:02:28.018Z</time></trkpt><trkpt lat="45.72465045259658" lon="8.428169815232671"><ele>393.0</ele><time>2026-04-19T15:02:29.018Z</time></trkpt><trkpt lat="45.724568903452685" lon="8.428057599491494"><ele>393.0</ele><time>2026-04-19T15:02:30.018Z</time></trkpt><trkpt lat="45.72449199107917" lon="8.427929568929063"><ele>392.75</ele><time>2026-04-19T15:02:31.017Z</time></trkpt><trkpt lat="45.72441372776116" lon="8.427790705793482"><ele>392.5</ele><time>2026-04-19T15:02:32.017Z</time></trkpt><trkpt lat="45.724337454154984" lon="8.427644579950039"><ele>392.25</ele><time>2026-04-19T15:02:33.017Z</time></trkpt><trkpt lat="45.72425988532275" lon="8.427506536882294"><ele>392.0</ele><time>2026-04-19T15:02:34.018Z</time></trkpt><trkpt lat="45.72418573280564" lon="8.427375238782776"><ele>391.20000000000005</ele><time>2026-04-19T15:02:35.017Z</time></trkpt><trkpt lat="45.72411617694145" lon="8.427252772708856"><ele>390.4</ele><time>2026-04-19T15:02:36.017Z</time></trkpt><trkpt lat="45.72405427287111" lon="8.42713772203188"><ele>389.6</ele><time>2026-04-19T15:02:37.017Z</time></trkpt><trkpt lat="45.723998468645455" lon="8.427029819114043"><ele>388.79999999999995</ele><time>2026-04-19T15:02:38.017Z</time></trkpt><trkpt lat="45.72394957869609" lon="8.42692576270889"><ele>388.0</ele><time>2026-04-19T15:02:39.017Z</time></trkpt><trkpt lat="45.72390737221929" lon="8.42683670270776"><ele>387.59999999999997</ele><time>2026-04-19T15:02:40.017Z</time></trkpt><trkpt lat="45.7238233549187" lon="8.426719370219507"><ele>387.2</ele><time>2026-04-19T15:02:42.017Z</time></trkpt><trkpt lat="45.723732192134854" lon="8.426719964774396"><ele>386.8</ele><time>2026-04-19T15:02:44.018Z</time></trkpt><trkpt lat="45.72363597856997" lon="8.426816265339609"><ele>386.4</ele><time>2026-04-19T15:02:46.018Z</time></trkpt><trkpt lat="45.72356402305697" lon="8.426866384228607"><ele>386.0</ele><time>2026-04-19T15:02:47.018Z</time></trkpt><trkpt lat="45.723480143154504" lon="8.426918964834078"><ele>386.0</ele><time>2026-04-19T15:02:48.018Z</time></trkpt><trkpt lat="45.72340094342083" lon="8.426982671753114"><ele>386.0</ele><time>2026-04-19T15:02:49.018Z</time></trkpt><trkpt lat="45.72331710671477" lon="8.427055506108989"><ele>386.0</ele><time>2026-04-19T15:02:50.018Z</time></trkpt><trkpt lat="45.72322155990492" lon="8.427136108716244"><ele>386.0</ele><time>2026-04-19T15:02:51.018Z</time></trkpt><trkpt lat="45.723119448937005" lon="8.427221676678943"><ele>386.0</ele><time>2026-04-19T15:02:52.018Z</time></trkpt><trkpt lat="45.72302465022698" lon="8.427314465937904"><ele>385.75</ele><time>2026-04-19T15:02:53.018Z</time></trkpt><trkpt lat="45.72293382257305" lon="8.42742793090467"><ele>385.5</ele><time>2026-04-19T15:02:54.018Z</time></trkpt><trkpt lat="45.72284450630616" lon="8.427561027939724"><ele>385.25</ele><time>2026-04-19T15:02:55.018Z</time></trkpt><trkpt lat="45.72275367755014" lon="8.427708044244328"><ele>385.0</ele><time>2026-04-19T15:02:56.018Z</time></trkpt><trkpt lat="45.72266155181356" lon="8.427860069311226"><ele>385.5</ele><time>2026-04-19T15:02:57.018Z</time></trkpt><trkpt lat="45.72256912227418" lon="8.428016380969494"><ele>386.0</ele><time>2026-04-19T15:02:58.018Z</time></trkpt><trkpt lat="45.72247643383304" lon="8.428162384591218"><ele>386.5</ele><time>2026-04-19T15:02:59.018Z</time></trkpt><trkpt lat="45.72238376708907" lon="8.428295490443556"><ele>387.0</ele><time>2026-04-19T15:03:00.018Z</time></trkpt><trkpt lat="45.72229706495091" lon="8.428416509521831"><ele>387.0</ele><time>2026-04-19T15:03:01.018Z</time></trkpt><trkpt lat="45.72220812475408" lon="8.42851965886739"><ele>387.0</ele><time>2026-04-19T15:03:02.018Z</time></trkpt><trkpt lat="45.7221183159704" lon="8.428592137833936"><ele>387.0</ele><time>2026-04-19T15:03:03.018Z</time></trkpt><trkpt lat="45.72201652737808" lon="8.428648018315007"><ele>387.0</ele><time>2026-04-19T15:03:04.018Z</time></trkpt><trkpt lat="45.72190593020191" lon="8.428697079769112"><ele>387.0</ele><time>2026-04-19T15:03:05.018Z</time></trkpt><trkpt lat="45.72178939987108" lon="8.428749521177107"><ele>386.75</ele><time>2026-04-19T15:03:06.018Z</time></trkpt><trkpt lat="45.72166846331317" lon="8.428805817081368"><ele>386.5</ele><time>2026-04-19T15:03:07.018Z</time></trkpt><trkpt lat="45.72154545541062" lon="8.4288632228474"><ele>386.25</ele><time>2026-04-19T15:03:08.018Z</time></trkpt><trkpt lat="45.72143015175309" lon="8.428917822442575"><ele>386.0</ele><time>2026-04-19T15:03:09.018Z</time></trkpt><trkpt lat="45.721318268151336" lon="8.42897401564007"><ele>386.5</ele><time>2026-04-19T15:03:10.018Z</time></trkpt><trkpt lat="45.72120771490111" lon="8.429033725075676"><ele>387.0</ele><time>2026-04-19T15:03:11.018Z</time></trkpt><trkpt lat="45.72108716795708" lon="8.429095555822792"><ele>387.5</ele><time>2026-04-19T15:03:12.018Z</time></trkpt><trkpt lat="45.72096591256296" lon="8.429159317845706"><ele>388.0</ele><time>2026-04-19T15:03:13.018Z</time></trkpt><trkpt lat="45.72084680823386" lon="8.429220366431148"><ele>387.2</ele><time>2026-04-19T15:03:14.018Z</time></trkpt><trkpt lat="45.720732889619505" lon="8.429272873085253"><ele>386.4</ele><time>2026-04-19T15:03:15.018Z</time></trkpt><trkpt lat="45.72062404906884" lon="8.429322545905947"><ele>385.59999999999997</ele><time>2026-04-19T15:03:16.019Z</time></trkpt><trkpt lat="45.72052293714763" lon="8.42937148192497"><ele>384.79999999999995</ele><time>2026-04-19T15:03:17.019Z</time></trkpt><trkpt lat="45.720436309033964" lon="8.42941309255542"><ele>384.0</ele><time>2026-04-19T15:03:18.019Z</time></trkpt><trkpt lat="45.72036193323041" lon="8.429474290743963"><ele>384.0</ele><time>2026-04-19T15:03:19.019Z</time></trkpt><trkpt lat="45.72030210346292" lon="8.429555286199514"><ele>384.0</ele><time>2026-04-19T15:03:20.019Z</time></trkpt><trkpt lat="45.72024947053688" lon="8.429649330645836"><ele>384.0</ele><time>2026-04-19T15:03:21.019Z</time></trkpt><trkpt lat="45.720188827307844" lon="8.429755589452933"><ele>384.0</ele><time>2026-04-19T15:03:22.019Z</time></trkpt><trkpt lat="45.72012334307032" lon="8.429858657754156"><ele>384.0</ele><time>2026-04-19T15:03:23.019Z</time></trkpt><trkpt lat="45.72006165715427" lon="8.429939292655568"><ele>384.0</ele><time>2026-04-19T15:03:24.019Z</time></trkpt><trkpt lat="45.719994809177926" lon="8.43002798589727"><ele>383.4</ele><time>2026-04-19T15:03:25.019Z</time></trkpt><trkpt lat="45.71991619899981" lon="8.430099948012126"><ele>382.79999999999995</ele><time>2026-04-19T15:03:26.019Z</time></trkpt><trkpt lat="45.719842571024984" lon="8.430183764118253"><ele>382.20000000000005</ele><time>2026-04-19T15:03:27.019Z</time></trkpt><trkpt lat="45.71975674864436" lon="8.430243698569765"><ele>381.6</ele><time>2026-04-19T15:03:28.019Z</time></trkpt><trkpt lat="45.71967166417963" lon="8.430301175640498"><ele>381.0</ele><time>2026-04-19T15:03:29.019Z</time></trkpt><trkpt lat="45.71957956984096" lon="8.430352105209218"><ele>381.0</ele><time>2026-04-19T15:03:30.019Z</time></trkpt><trkpt lat="45.71949236727031" lon="8.430407282828728"><ele>381.0</ele><time>2026-04-19T15:03:31.019Z</time></trkpt><trkpt lat="45.719400087237574" lon="8.430450346372993"><ele>381.0</ele><time>2026-04-19T15:03:32.019Z</time></trkpt><trkpt lat="45.719308391195106" lon="8.430469081236847"><ele>381.0</ele><time>2026-04-19T15:03:33.019Z</time></trkpt><trkpt lat="45.71923180040461" lon="8.430501861272383"><ele>381.0</ele><time>2026-04-19T15:03:34.019Z</time></trkpt><trkpt lat="45.71916927232321" lon="8.430559712058669"><ele>381.0</ele><time>2026-04-19T15:03:35.019Z</time></trkpt><trkpt lat="45.71910411306857" lon="8.430644728435336"><ele>380.5</ele><time>2026-04-19T15:03:36.019Z</time></trkpt><trkpt lat="45.7190343235631" lon="8.430757041764176"><ele>380.0</ele><time>2026-04-19T15:03:37.019Z</time></trkpt><trkpt lat="45.71895325488267" lon="8.430875665713652"><ele>379.5</ele><time>2026-04-19T15:03:38.019Z</time></trkpt><trkpt lat="45.718863439608164" lon="8.430996880528552"><ele>379.0</ele><time>2026-04-19T15:03:39.019Z</time></trkpt><trkpt lat="45.7187602026422" lon="8.4311047467997"><ele>379.0</ele><time>2026-04-19T15:03:40.019Z</time></trkpt><trkpt lat="45.718654053405054" lon="8.431222686007116"><ele>379.0</ele><time>2026-04-19T15:03:41.019Z</time></trkpt><trkpt lat="45.71854396803235" lon="8.431336667143245"><ele>379.0</ele><time>2026-04-19T15:03:42.019Z</time></trkpt><trkpt lat="45.71843831296937" lon="8.431450314369208"><ele>379.0</ele><time>2026-04-19T15:03:43.019Z</time></trkpt><trkpt lat="45.71831970339225" lon="8.43153878097207"><ele>379.5</ele><time>2026-04-19T15:03:44.019Z</time></trkpt><trkpt lat="45.71818771050037" lon="8.43159596972595"><ele>380.0</ele><time>2026-04-19T15:03:45.019Z</time></trkpt><trkpt lat="45.71804619157982" lon="8.43163249656143"><ele>380.5</ele><time>2026-04-19T15:03:46.019Z</time></trkpt><trkpt lat="45.71790185367361" lon="8.431672442745942"><ele>381.0</ele><time>2026-04-19T15:03:47.019Z</time></trkpt><trkpt lat="45.71775980900875" lon="8.431732366883091"><ele>381.0</ele><time>2026-04-19T15:03:48.019Z</time></trkpt><trkpt lat="45.71761589298716" lon="8.431793248228239"><ele>381.0</ele><time>2026-04-19T15:03:49.019Z</time></trkpt><trkpt lat="45.71747894050888" lon="8.431845327325844"><ele>381.0</ele><time>2026-04-19T15:03:50.02Z</time></trkpt><trkpt lat="45.717348589634874" lon="8.431885711121875"><ele>381.0</ele><time>2026-04-19T15:03:51.02Z</time></trkpt><trkpt lat="45.71723288797568" lon="8.431923518113726"><ele>381.0</ele><time>2026-04-19T15:03:52.02Z</time></trkpt><trkpt lat="45.717130071802835" lon="8.4319695413043"><ele>381.0</ele><time>2026-04-19T15:03:53.02Z</time></trkpt><trkpt lat="45.71703577071201" lon="8.432037407621817"><ele>381.0</ele><time>2026-04-19T15:03:54.02Z</time></trkpt><trkpt lat="45.71695494565771" lon="8.43212602431338"><ele>381.0</ele><time>2026-04-19T15:03:55.02Z</time></trkpt><trkpt lat="45.71690586297781" lon="8.43224680637992"><ele>381.0</ele><time>2026-04-19T15:03:56.02Z</time></trkpt><trkpt lat="45.716885113179146" lon="8.432378470466707"><ele>381.25</ele><time>2026-04-19T15:03:57.02Z</time></trkpt><trkpt lat="45.71689162478095" lon="8.432527882935064"><ele>381.5</ele><time>2026-04-19T15:03:58.02Z</time></trkpt><trkpt lat="45.716921016233556" lon="8.43268521069321"><ele>381.75</ele><time>2026-04-19T15:03:59.02Z</time></trkpt><trkpt lat="45.71696434065393" lon="8.432838803631698"><ele>382.0</ele><time>2026-04-19T15:04:00.02Z</time></trkpt><trkpt lat="45.71701169177439" lon="8.433007008622369"><ele>382.5</ele><time>2026-04-19T15:04:01.02Z</time></trkpt><trkpt lat="45.717055697417415" lon="8.433182442405554"><ele>383.0</ele><time>2026-04-19T15:04:02.02Z</time></trkpt><trkpt lat="45.71709852396678" lon="8.433366157553602"><ele>383.5</ele><time>2026-04-19T15:04:03.02Z</time></trkpt><trkpt lat="45.71714540188586" lon="8.433558444909607"><ele>384.0</ele><time>2026-04-19T15:04:04.02Z</time></trkpt><trkpt lat="45.71719132919189" lon="8.433756075932955"><ele>384.0</ele><time>2026-04-19T15:04:05.02Z</time></trkpt><trkpt lat="45.7172307654289" lon="8.433959916279022"><ele>384.0</ele><time>2026-04-19T15:04:06.02Z</time></trkpt><trkpt lat="45.717266941436556" lon="8.434157071816074"><ele>384.0</ele><time>2026-04-19T15:04:07.02Z</time></trkpt><trkpt lat="45.717302096090336" lon="8.434345551645768"><ele>384.0</ele><time>2026-04-19T15:04:08.02Z</time></trkpt><trkpt lat="45.71733878528506" lon="8.434523052809732"><ele>383.75</ele><time>2026-04-19T15:04:09.02Z</time></trkpt><trkpt lat="45.717378190681885" lon="8.434688078054682"><ele>383.5</ele><time>2026-04-19T15:04:10.02Z</time></trkpt><trkpt lat="45.71741743192849" lon="8.434851653611034"><ele>383.25</ele><time>2026-04-19T15:04:11.02Z</time></trkpt><trkpt lat="45.71743316993538" lon="8.435016783257428"><ele>383.0</ele><time>2026-04-19T15:04:12.02Z</time></trkpt><trkpt lat="45.71740446356966" lon="8.435165918053016"><ele>383.0</ele><time>2026-04-19T15:04:13.02Z</time></trkpt><trkpt lat="45.717343820583444" lon="8.43527827817489"><ele>383.0</ele><time>2026-04-19T15:04:14.02Z</time></trkpt><trkpt lat="45.71724949537643" lon="8.43536055239896"><ele>383.0</ele><time>2026-04-19T15:04:15.02Z</time></trkpt><trkpt lat="45.7171387126271" lon="8.435414512746327"><ele>383.0</ele><time>2026-04-19T15:04:16.02Z</time></trkpt><trkpt lat="45.71701887263975" lon="8.435475150411778"><ele>382.0</ele><time>2026-04-19T15:04:17.02Z</time></trkpt><trkpt lat="45.71690149152634" lon="8.435567484296028"><ele>381.0</ele><time>2026-04-19T15:04:18.02Z</time></trkpt><trkpt lat="45.71678343315577" lon="8.43568485335405"><ele>380.0</ele><time>2026-04-19T15:04:19.02Z</time></trkpt><trkpt lat="45.71666896641765" lon="8.435828926037011"><ele>379.0</ele><time>2026-04-19T15:04:20.02Z</time></trkpt><trkpt lat="45.7165472866864" lon="8.435980000925955"><ele>379.0</ele><time>2026-04-19T15:04:21.02Z</time></trkpt><trkpt lat="45.71641764524864" lon="8.43612672427558"><ele>379.0</ele><time>2026-04-19T15:04:22.02Z</time></trkpt><trkpt lat="45.7162885687066" lon="8.436257233752592"><ele>379.0</ele><time>2026-04-19T15:04:23.021Z</time></trkpt><trkpt lat="45.71614869555047" lon="8.436372160043197"><ele>378.66666666666663</ele><time>2026-04-19T15:04:24.021Z</time></trkpt><trkpt lat="45.716002414890085" lon="8.436472344543477"><ele>378.3333333333333</ele><time>2026-04-19T15:04:25.021Z</time></trkpt><trkpt lat="45.71585444328996" lon="8.436561850308095"><ele>378.0</ele><time>2026-04-19T15:04:26.021Z</time></trkpt><trkpt lat="45.71570056351145" lon="8.436644467746815"><ele>378.0</ele><time>2026-04-19T15:04:27.021Z</time></trkpt><trkpt lat="45.71554835848559" lon="8.436732678375519"><ele>378.0</ele><time>2026-04-19T15:04:28.018Z</time></trkpt><trkpt lat="45.715393385836194" lon="8.43682336375526"><ele>378.0</ele><time>2026-04-19T15:04:29.018Z</time></trkpt><trkpt lat="45.71523772133521" lon="8.436919999424921"><ele>378.3333333333333</ele><time>2026-04-19T15:04:30.018Z</time></trkpt><trkpt lat="45.71508294437799" lon="8.437021481895073"><ele>378.66666666666663</ele><time>2026-04-19T15:04:31.017Z</time></trkpt><trkpt lat="45.71492752294561" lon="8.437124571287747"><ele>379.0</ele><time>2026-04-19T15:04:32.017Z</time></trkpt><trkpt lat="45.71477443722336" lon="8.437225893124086"><ele>379.66666666666663</ele><time>2026-04-19T15:04:33.017Z</time></trkpt><trkpt lat="45.71462536968754" lon="8.437325514309215"><ele>380.3333333333333</ele><time>2026-04-19T15:04:34.017Z</time></trkpt><trkpt lat="45.714479728662674" lon="8.43741578587019"><ele>381.0</ele><time>2026-04-19T15:04:35.018Z</time></trkpt><trkpt lat="45.71434076415733" lon="8.43750429737011"><ele>381.0</ele><time>2026-04-19T15:04:36.018Z</time></trkpt><trkpt lat="45.7142082769771" lon="8.437591778858673"><ele>381.0</ele><time>2026-04-19T15:04:37.017Z</time></trkpt><trkpt lat="45.71408240341694" lon="8.437674525165981"><ele>381.0</ele><time>2026-04-19T15:04:38.017Z</time></trkpt><trkpt lat="45.713967066785315" lon="8.437761411013426"><ele>381.0</ele><time>2026-04-19T15:04:39.017Z</time></trkpt><trkpt lat="45.7138589033229" lon="8.437866445613194"><ele>381.0</ele><time>2026-04-19T15:04:40.018Z</time></trkpt><trkpt lat="45.713752964214684" lon="8.437997001860092"><ele>381.0</ele><time>2026-04-19T15:04:41.017Z</time></trkpt><trkpt lat="45.71364292084662" lon="8.438128695159682"><ele>381.0</ele><time>2026-04-19T15:04:42.017Z</time></trkpt><trkpt lat="45.713531726169016" lon="8.43826562499232"><ele>381.0</ele><time>2026-04-19T15:04:43.017Z</time></trkpt><trkpt lat="45.71342141333818" lon="8.438407852185104"><ele>381.0</ele><time>2026-04-19T15:04:44.017Z</time></trkpt><trkpt lat="45.71330876244917" lon="8.438542362890194"><ele>381.0</ele><time>2026-04-19T15:04:45.017Z</time></trkpt><trkpt lat="45.713197461570516" lon="8.438666809779177"><ele>381.0</ele><time>2026-04-19T15:04:46.017Z</time></trkpt><trkpt lat="45.713085110550196" lon="8.438786685097192"><ele>381.0</ele><time>2026-04-19T15:04:47.017Z</time></trkpt><trkpt lat="45.71296233847393" lon="8.438900401785963"><ele>379.75</ele><time>2026-04-19T15:04:48.017Z</time></trkpt><trkpt lat="45.71283249655029" lon="8.438999969438042"><ele>378.5</ele><time>2026-04-19T15:04:49.017Z</time></trkpt><trkpt lat="45.71270096716424" lon="8.439095060422897"><ele>377.25</ele><time>2026-04-19T15:04:50.017Z</time></trkpt><trkpt lat="45.712560938231306" lon="8.439182414258962"><ele>376.0</ele><time>2026-04-19T15:04:51.017Z</time></trkpt><trkpt lat="45.71242283057926" lon="8.43927044473479"><ele>376.0</ele><time>2026-04-19T15:04:52.017Z</time></trkpt><trkpt lat="45.71228532586066" lon="8.439363116768266"><ele>376.0</ele><time>2026-04-19T15:04:53.017Z</time></trkpt><trkpt lat="45.712157078471115" lon="8.439469246800796"><ele>376.0</ele><time>2026-04-19T15:04:54.017Z</time></trkpt><trkpt lat="45.71204192305789" lon="8.439602550939423"><ele>376.0</ele><time>2026-04-19T15:04:55.017Z</time></trkpt><trkpt lat="45.71193549427687" lon="8.439755686965317"><ele>373.75</ele><time>2026-04-19T15:04:56.017Z</time></trkpt><trkpt lat="45.71183772182259" lon="8.439916290248767"><ele>371.5</ele><time>2026-04-19T15:04:57.017Z</time></trkpt><trkpt lat="45.711745091559585" lon="8.44007799526868"><ele>369.25</ele><time>2026-04-19T15:04:58.018Z</time></trkpt><trkpt lat="45.71166123338527" lon="8.440245114898772"><ele>367.0</ele><time>2026-04-19T15:04:59.018Z</time></trkpt><trkpt lat="45.71156697537851" lon="8.440412635070418"><ele>362.66666666666663</ele><time>2026-04-19T15:05:00.018Z</time></trkpt><trkpt lat="45.71146079039068" lon="8.440564155683985"><ele>358.3333333333333</ele><time>2026-04-19T15:05:01.018Z</time></trkpt><trkpt lat="45.71134174383099" lon="8.440708672159204"><ele>354.0</ele><time>2026-04-19T15:05:02.018Z</time></trkpt><trkpt lat="45.71121871397851" lon="8.440857000201294"><ele>354.0</ele><time>2026-04-19T15:05:03.018Z</time></trkpt><trkpt lat="45.71109466556616" lon="8.441001353429954"><ele>354.0</ele><time>2026-04-19T15:05:04.018Z</time></trkpt><trkpt lat="45.71096687122855" lon="8.441148906257084"><ele>354.0</ele><time>2026-04-19T15:05:05.018Z</time></trkpt><trkpt lat="45.71083567261141" lon="8.441299317591145"><ele>354.0</ele><time>2026-04-19T15:05:06.018Z</time></trkpt><trkpt lat="45.71070210284776" lon="8.441450266892817"><ele>354.0</ele><time>2026-04-19T15:05:07.018Z</time></trkpt><trkpt lat="45.710565624636274" lon="8.441596523346973"><ele>354.0</ele><time>2026-04-19T15:05:08.018Z</time></trkpt><trkpt lat="45.7104218646174" lon="8.44173027985847"><ele>354.0</ele><time>2026-04-19T15:05:09.018Z</time></trkpt><trkpt lat="45.710274310668666" lon="8.441869248562304"><ele>354.0</ele><time>2026-04-19T15:05:10.018Z</time></trkpt><trkpt lat="45.71012900189699" lon="8.442010429621014"><ele>354.0</ele><time>2026-04-19T15:05:11.018Z</time></trkpt><trkpt lat="45.709982369026264" lon="8.442169668370523"><ele>352.3333333333333</ele><time>2026-04-19T15:05:12.018Z</time></trkpt><trkpt lat="45.70983773230538" lon="8.442337026414965"><ele>350.66666666666663</ele><time>2026-04-19T15:05:13.018Z</time></trkpt><trkpt lat="45.709695498730675" lon="8.442510553174913"><ele>349.0</ele><time>2026-04-19T15:05:14.018Z</time></trkpt><trkpt lat="45.709550843472" lon="8.442684494733037"><ele>348.0</ele><time>2026-04-19T15:05:15.018Z</time></trkpt><trkpt lat="45.70940341144111" lon="8.442857267627655"><ele>347.0</ele><time>2026-04-19T15:05:16.018Z</time></trkpt><trkpt lat="45.70925269048317" lon="8.443036722897363"><ele>346.0</ele><time>2026-04-19T15:05:17.018Z</time></trkpt><trkpt lat="45.70910124055188" lon="8.44322188301148"><ele>346.0</ele><time>2026-04-19T15:05:18.018Z</time></trkpt><trkpt lat="45.70895002761061" lon="8.443412490599695"><ele>346.0</ele><time>2026-04-19T15:05:19.018Z</time></trkpt><trkpt lat="45.70879698614175" lon="8.443605069610356"><ele>346.0</ele><time>2026-04-19T15:05:20.018Z</time></trkpt><trkpt lat="45.70864137325599" lon="8.443793771706147"><ele>343.3333333333333</ele><time>2026-04-19T15:05:21.018Z</time></trkpt><trkpt lat="45.70848378975793" lon="8.443978539425059"><ele>340.6666666666667</ele><time>2026-04-19T15:05:22.018Z</time></trkpt><trkpt lat="45.70832606891196" lon="8.44415940504657"><ele>338.0</ele><time>2026-04-19T15:05:23.018Z</time></trkpt><trkpt lat="45.70817347449125" lon="8.444341928942821"><ele>338.0</ele><time>2026-04-19T15:05:24.018Z</time></trkpt><trkpt lat="45.70802553173399" lon="8.444523397792056"><ele>338.0</ele><time>2026-04-19T15:05:25.018Z</time></trkpt><trkpt lat="45.707884064200755" lon="8.444699211292534"><ele>338.0</ele><time>2026-04-19T15:05:26.018Z</time></trkpt><trkpt lat="45.70774695166162" lon="8.444867619878012"><ele>336.33333333333337</ele><time>2026-04-19T15:05:27.018Z</time></trkpt><trkpt lat="45.70761355240981" lon="8.445030241779127"><ele>334.6666666666667</ele><time>2026-04-19T15:05:28.018Z</time></trkpt><trkpt lat="45.707484214556324" lon="8.445188134475071"><ele>333.0</ele><time>2026-04-19T15:05:29.018Z</time></trkpt><trkpt lat="45.70735862468937" lon="8.445335837998906"><ele>330.0</ele><time>2026-04-19T15:05:30.018Z</time></trkpt><trkpt lat="45.707238310270405" lon="8.445479045259704"><ele>327.0</ele><time>2026-04-19T15:05:31.019Z</time></trkpt><trkpt lat="45.707127885112484" lon="8.445609397470612"><ele>324.0</ele><time>2026-04-19T15:05:32.019Z</time></trkpt><trkpt lat="45.70702889036514" lon="8.445725020135438"><ele>321.0</ele><time>2026-04-19T15:05:33.019Z</time></trkpt><trkpt lat="45.70694183081433" lon="8.445822924258911"><ele>322.6</ele><time>2026-04-19T15:05:34.019Z</time></trkpt><trkpt lat="45.70685047422711" lon="8.44589292432442"><ele>324.20000000000005</ele><time>2026-04-19T15:05:35.019Z</time></trkpt><trkpt lat="45.70675758631727" lon="8.445931215609637"><ele>325.79999999999995</ele><time>2026-04-19T15:05:36.019Z</time></trkpt><trkpt lat="45.70666438525593" lon="8.445961843695478"><ele>327.4</ele><time>2026-04-19T15:05:37.019Z</time></trkpt><trkpt lat="45.706580108004886" lon="8.445991707570371"><ele>329.0</ele><time>2026-04-19T15:05:38.019Z</time></trkpt><trkpt lat="45.70649988677775" lon="8.446029948450166"><ele>329.0</ele><time>2026-04-19T15:05:39.019Z</time></trkpt><trkpt lat="45.706421371629986" lon="8.446085714376062"><ele>329.0</ele><time>2026-04-19T15:05:40.019Z</time></trkpt><trkpt lat="45.70634952826245" lon="8.446167014445214"><ele>329.0</ele><time>2026-04-19T15:05:41.019Z</time></trkpt><trkpt lat="45.706273590389976" lon="8.446252258739868"><ele>329.0</ele><time>2026-04-19T15:05:42.019Z</time></trkpt><trkpt lat="45.70618203315102" lon="8.446306288355816"><ele>329.0</ele><time>2026-04-19T15:05:43.019Z</time></trkpt><trkpt lat="45.706079945183795" lon="8.446330732636557"><ele>327.0</ele><time>2026-04-19T15:05:44.019Z</time></trkpt><trkpt lat="45.705972983092664" lon="8.446344031507122"><ele>325.0</ele><time>2026-04-19T15:05:45.019Z</time></trkpt><trkpt lat="45.70585891295397" lon="8.446356294241623"><ele>323.0</ele><time>2026-04-19T15:05:46.019Z</time></trkpt><trkpt lat="45.70574037265024" lon="8.446365143959591"><ele>321.0</ele><time>2026-04-19T15:05:47.019Z</time></trkpt><trkpt lat="45.70561542204403" lon="8.446381745063894"><ele>321.0</ele><time>2026-04-19T15:05:48.019Z</time></trkpt><trkpt lat="45.705484925466656" lon="8.446399259287478"><ele>321.0</ele><time>2026-04-19T15:05:49.019Z</time></trkpt><trkpt lat="45.705352908380185" lon="8.446414561026579"><ele>321.0</ele><time>2026-04-19T15:05:50.019Z</time></trkpt><trkpt lat="45.705221207189695" lon="8.446429389853604"><ele>321.0</ele><time>2026-04-19T15:05:51.019Z</time></trkpt><trkpt lat="45.70509276168097" lon="8.446445220128153"><ele>321.25</ele><time>2026-04-19T15:05:52.019Z</time></trkpt><trkpt lat="45.70496848712217" lon="8.446457947698482"><ele>321.5</ele><time>2026-04-19T15:05:53.019Z</time></trkpt><trkpt lat="45.704855610002895" lon="8.44647289255901"><ele>321.75</ele><time>2026-04-19T15:05:54.019Z</time></trkpt><trkpt lat="45.70474709529649" lon="8.446491350662678"><ele>322.0</ele><time>2026-04-19T15:05:55.019Z</time></trkpt><trkpt lat="45.704638680109596" lon="8.44650494544396"><ele>322.0</ele><time>2026-04-19T15:05:56.019Z</time></trkpt><trkpt lat="45.70452911692393" lon="8.446514936690887"><ele>322.0</ele><time>2026-04-19T15:05:57.019Z</time></trkpt><trkpt lat="45.704419973622905" lon="8.446531637597914"><ele>322.0</ele><time>2026-04-19T15:05:58.019Z</time></trkpt><trkpt lat="45.70431368743079" lon="8.446548305658785"><ele>322.0</ele><time>2026-04-19T15:05:59.019Z</time></trkpt><trkpt lat="45.70420758067169" lon="8.446573123122448"><ele>322.0</ele><time>2026-04-19T15:06:00.019Z</time></trkpt><trkpt lat="45.704104277030744" lon="8.446609138383335"><ele>321.6</ele><time>2026-04-19T15:06:01.019Z</time></trkpt><trkpt lat="45.70399981626217" lon="8.446654389504346"><ele>321.20000000000005</ele><time>2026-04-19T15:06:02.019Z</time></trkpt><trkpt lat="45.70390046500557" lon="8.446696756725624"><ele>320.8</ele><time>2026-04-19T15:06:03.019Z</time></trkpt><trkpt lat="45.70380832434728" lon="8.446734962943836"><ele>320.4</ele><time>2026-04-19T15:06:04.019Z</time></trkpt><trkpt lat="45.70371599172461" lon="8.446774232733008"><ele>320.0</ele><time>2026-04-19T15:06:05.02Z</time></trkpt><trkpt lat="45.70362176098756" lon="8.446816112127859"><ele>319.33333333333337</ele><time>2026-04-19T15:06:06.02Z</time></trkpt><trkpt lat="45.70353777636013" lon="8.44685073804311"><ele>318.6666666666667</ele><time>2026-04-19T15:06:07.02Z</time></trkpt><trkpt lat="45.70345357696274" lon="8.446887086626104"><ele>318.0</ele><time>2026-04-19T15:06:08.02Z</time></trkpt><trkpt lat="45.70336449148007" lon="8.446924671140767"><ele>317.3333333333333</ele><time>2026-04-19T15:06:09.02Z</time></trkpt><trkpt lat="45.70327732319716" lon="8.446962255652165"><ele>316.66666666666663</ele><time>2026-04-19T15:06:10.02Z</time></trkpt><trkpt lat="45.70319637978633" lon="8.446990502661304"><ele>316.0</ele><time>2026-04-19T15:06:11.02Z</time></trkpt><trkpt lat="45.70312593082338" lon="8.447023576268252"><ele>316.0</ele><time>2026-04-19T15:06:12.02Z</time></trkpt><trkpt lat="45.70305928106845" lon="8.447053046063077"><ele>316.0</ele><time>2026-04-19T15:06:13.02Z</time></trkpt><trkpt lat="45.70299710768446" lon="8.447078343551482"><ele>316.0</ele><time>2026-04-19T15:06:14.02Z</time></trkpt><trkpt lat="45.70287834628104" lon="8.447122822880392"><ele>316.0</ele><time>2026-04-19T15:06:16.02Z</time></trkpt><trkpt lat="45.70276845963834" lon="8.447139432364722"><ele>316.0</ele><time>2026-04-19T15:06:18.02Z</time></trkpt><trkpt lat="45.702678395173024" lon="8.447160011926982"><ele>316.0</ele><time>2026-04-19T15:06:20.02Z</time></trkpt><trkpt lat="45.7026408367021" lon="8.447264141590571"><ele>316.0</ele><time>2026-04-19T15:06:22.02Z</time></trkpt><trkpt lat="45.70268060846359" lon="8.447442022199773"><ele>316.0</ele><time>2026-04-19T15:06:24.02Z</time></trkpt><trkpt lat="45.70270870439611" lon="8.447558337518396"><ele>316.0</ele><time>2026-04-19T15:06:25.02Z</time></trkpt><trkpt lat="45.70273074106482" lon="8.447669267929966"><ele>316.0</ele><time>2026-04-19T15:06:26.02Z</time></trkpt><trkpt lat="45.702754858733336" lon="8.447795702314767"><ele>316.0</ele><time>2026-04-19T15:06:27.02Z</time></trkpt><trkpt lat="45.70278189390579" lon="8.447933792053213"><ele>316.0</ele><time>2026-04-19T15:06:28.02Z</time></trkpt><trkpt lat="45.70281261398444" lon="8.448076250478998"><ele>316.0</ele><time>2026-04-19T15:06:29.02Z</time></trkpt><trkpt lat="45.70283310202231" lon="8.448222266133268"><ele>316.0</ele><time>2026-04-19T15:06:30.02Z</time></trkpt><trkpt lat="45.702859540174074" lon="8.448375936601215"><ele>316.0</ele><time>2026-04-19T15:06:31.02Z</time></trkpt><trkpt lat="45.70288525048052" lon="8.448535587119803"><ele>316.0</ele><time>2026-04-19T15:06:32.02Z</time></trkpt><trkpt lat="45.70291032330781" lon="8.448689511768935"><ele>316.0</ele><time>2026-04-19T15:06:33.02Z</time></trkpt><trkpt lat="45.70293450486338" lon="8.448841766853882"><ele>316.0</ele><time>2026-04-19T15:06:34.017Z</time></trkpt><trkpt lat="45.702956999111954" lon="8.448993180441638"><ele>316.0</ele><time>2026-04-19T15:06:35.017Z</time></trkpt><trkpt lat="45.7029772622659" lon="8.449148236236887"><ele>316.0</ele><time>2026-04-19T15:06:36.017Z</time></trkpt><trkpt lat="45.70299498089763" lon="8.449303935506585"><ele>316.25</ele><time>2026-04-19T15:06:37.018Z</time></trkpt><trkpt lat="45.7030165797676" lon="8.449459219130784"><ele>316.5</ele><time>2026-04-19T15:06:38.018Z</time></trkpt><trkpt lat="45.7030383946001" lon="8.449616346141706"><ele>316.75</ele><time>2026-04-19T15:06:39.018Z</time></trkpt><trkpt lat="45.703062963774435" lon="8.44978145431091"><ele>317.0</ele><time>2026-04-19T15:06:40.018Z</time></trkpt><trkpt lat="45.70308748679153" lon="8.449952757056705"><ele>317.0</ele><time>2026-04-19T15:06:41.017Z</time></trkpt><trkpt lat="45.70310918629689" lon="8.450128447998418"><ele>317.0</ele><time>2026-04-19T15:06:42.017Z</time></trkpt><trkpt lat="45.70312577099989" lon="8.450297313197284"><ele>317.0</ele><time>2026-04-19T15:06:43.017Z</time></trkpt><trkpt lat="45.703138828235176" lon="8.450455992242185"><ele>317.0</ele><time>2026-04-19T15:06:44.017Z</time></trkpt><trkpt lat="45.70314721125587" lon="8.450616215707472"><ele>317.0</ele><time>2026-04-19T15:06:45.017Z</time></trkpt><trkpt lat="45.70315876141447" lon="8.450779833295153"><ele>317.0</ele><time>2026-04-19T15:06:46.018Z</time></trkpt><trkpt lat="45.703169029495854" lon="8.45094889787794"><ele>317.0</ele><time>2026-04-19T15:06:47.017Z</time></trkpt><trkpt lat="45.70319003480846" lon="8.451118722441542"><ele>317.0</ele><time>2026-04-19T15:06:48.017Z</time></trkpt><trkpt lat="45.703212767691184" lon="8.451288993730348"><ele>316.75</ele><time>2026-04-19T15:06:49.017Z</time></trkpt><trkpt lat="45.70322920381986" lon="8.451460447651657"><ele>316.5</ele><time>2026-04-19T15:06:50.017Z</time></trkpt><trkpt lat="45.70324583460052" lon="8.451630741405461"><ele>316.25</ele><time>2026-04-19T15:06:51.018Z</time></trkpt><trkpt lat="45.70327012816504" lon="8.451804921380193"><ele>316.0</ele><time>2026-04-19T15:06:52.018Z</time></trkpt><trkpt lat="45.703299598429666" lon="8.451979570740795"><ele>315.75</ele><time>2026-04-19T15:06:53.018Z</time></trkpt><trkpt lat="45.70332658578428" lon="8.452154415653483"><ele>315.5</ele><time>2026-04-19T15:06:54.018Z</time></trkpt><trkpt lat="45.703355837405695" lon="8.452328326731786"><ele>315.25</ele><time>2026-04-19T15:06:55.018Z</time></trkpt><trkpt lat="45.70338624676301" lon="8.452504558140983"><ele>315.0</ele><time>2026-04-19T15:06:56.018Z</time></trkpt><trkpt lat="45.703418931388136" lon="8.452677997795963"><ele>315.0</ele><time>2026-04-19T15:06:57.018Z</time></trkpt><trkpt lat="45.7034482649305" lon="8.452843386045771"><ele>315.0</ele><time>2026-04-19T15:06:58.018Z</time></trkpt><trkpt lat="45.703474839913476" lon="8.452998281659301"><ele>315.0</ele><time>2026-04-19T15:06:59.018Z</time></trkpt><trkpt lat="45.70349965991536" lon="8.453139806792674"><ele>315.0</ele><time>2026-04-19T15:07:00.018Z</time></trkpt><trkpt lat="45.70351050887865" lon="8.453259005225494"><ele>315.0</ele><time>2026-04-19T15:07:01.018Z</time></trkpt><trkpt lat="45.703509928241075" lon="8.45335704003581"><ele>315.0</ele><time>2026-04-19T15:07:02.018Z</time></trkpt><trkpt lat="45.70348544124036" lon="8.45344852288837"><ele>315.0</ele><time>2026-04-19T15:07:03.018Z</time></trkpt><trkpt lat="45.70344039629902" lon="8.453551143211854"><ele>315.0</ele><time>2026-04-19T15:07:04.018Z</time></trkpt><trkpt lat="45.70337910260452" lon="8.45366882825355"><ele>315.0</ele><time>2026-04-19T15:07:05.018Z</time></trkpt><trkpt lat="45.70331802908486" lon="8.453792092008863"><ele>315.0</ele><time>2026-04-19T15:07:06.018Z</time></trkpt><trkpt lat="45.703255236270834" lon="8.453923812323616"><ele>315.0</ele><time>2026-04-19T15:07:07.018Z</time></trkpt><trkpt lat="45.70319227966806" lon="8.454064073877436"><ele>315.0</ele><time>2026-04-19T15:07:08.018Z</time></trkpt><trkpt lat="45.703130142291606" lon="8.454201312831986"><ele>315.0</ele><time>2026-04-19T15:07:09.018Z</time></trkpt><trkpt lat="45.70306674458252" lon="8.45434069908535"><ele>315.0</ele><time>2026-04-19T15:07:10.018Z</time></trkpt><trkpt lat="45.70299966426245" lon="8.454487529730018"><ele>314.25</ele><time>2026-04-19T15:07:11.018Z</time></trkpt><trkpt lat="45.702928434002345" lon="8.454634370091865"><ele>313.5</ele><time>2026-04-19T15:07:12.018Z</time></trkpt><trkpt lat="45.70285551219887" lon="8.454779665654765"><ele>312.75</ele><time>2026-04-19T15:07:13.018Z</time></trkpt><trkpt lat="45.70278122817192" lon="8.454918449860005"><ele>312.0</ele><time>2026-04-19T15:07:14.018Z</time></trkpt><trkpt lat="45.70270491942269" lon="8.455055295416177"><ele>312.0</ele><time>2026-04-19T15:07:15.018Z</time></trkpt><trkpt lat="45.70262740181852" lon="8.455183783755343"><ele>312.0</ele><time>2026-04-19T15:07:16.018Z</time></trkpt><trkpt lat="45.702545909962204" lon="8.455307320970723"><ele>312.0</ele><time>2026-04-19T15:07:17.018Z</time></trkpt><trkpt lat="45.70245352485616" lon="8.455416937350678"><ele>312.0</ele><time>2026-04-19T15:07:18.018Z</time></trkpt><trkpt lat="45.70234533407808" lon="8.455510070705735"><ele>312.0</ele><time>2026-04-19T15:07:19.018Z</time></trkpt><trkpt lat="45.70224425660574" lon="8.455603822617055"><ele>312.0</ele><time>2026-04-19T15:07:20.018Z</time></trkpt><trkpt lat="45.70214765245154" lon="8.45569845412384"><ele>312.0</ele><time>2026-04-19T15:07:21.018Z</time></trkpt><trkpt lat="45.70205506762883" lon="8.455790216427259"><ele>312.0</ele><time>2026-04-19T15:07:22.018Z</time></trkpt><trkpt lat="45.70195900026724" lon="8.455865205093664"><ele>311.8</ele><time>2026-04-19T15:07:23.018Z</time></trkpt><trkpt lat="45.701867225209824" lon="8.455941714355987"><ele>311.6</ele><time>2026-04-19T15:07:24.019Z</time></trkpt><trkpt lat="45.70178298590561" lon="8.456020759547169"><ele>311.40000000000003</ele><time>2026-04-19T15:07:25.019Z</time></trkpt><trkpt lat="45.70169855225978" lon="8.456096225910809"><ele>311.2</ele><time>2026-04-19T15:07:26.019Z</time></trkpt><trkpt lat="45.7016163792462" lon="8.456169322680978"><ele>311.0</ele><time>2026-04-19T15:07:27.019Z</time></trkpt><trkpt lat="45.70153734727267" lon="8.45624589946184"><ele>311.0</ele><time>2026-04-19T15:07:28.019Z</time></trkpt><trkpt lat="45.70146252804341" lon="8.456316796688343"><ele>311.0</ele><time>2026-04-19T15:07:29.019Z</time></trkpt><trkpt lat="45.701386076286894" lon="8.45638960471985"><ele>311.0</ele><time>2026-04-19T15:07:30.019Z</time></trkpt><trkpt lat="45.701303898281" lon="8.456451321800774"><ele>311.0</ele><time>2026-04-19T15:07:31.019Z</time></trkpt><trkpt lat="45.70122152817549" lon="8.456510317750272"><ele>311.0</ele><time>2026-04-19T15:07:32.019Z</time></trkpt><trkpt lat="45.70114280003349" lon="8.456574817900869"><ele>311.6</ele><time>2026-04-19T15:07:33.019Z</time></trkpt><trkpt lat="45.70106356267597" lon="8.45664134351739"><ele>312.20000000000005</ele><time>2026-04-19T15:07:34.019Z</time></trkpt><trkpt lat="45.70098605196352" lon="8.456705796482032"><ele>312.79999999999995</ele><time>2026-04-19T15:07:35.019Z</time></trkpt><trkpt lat="45.70090767654044" lon="8.456772565210038"><ele>313.4</ele><time>2026-04-19T15:07:36.019Z</time></trkpt><trkpt lat="45.70082876047494" lon="8.456839120776849"><ele>314.0</ele><time>2026-04-19T15:07:37.019Z</time></trkpt><trkpt lat="45.700749084660615" lon="8.456895649658104"><ele>314.0</ele><time>2026-04-19T15:07:38.019Z</time></trkpt><trkpt lat="45.70067095714252" lon="8.45695115397899"><ele>314.0</ele><time>2026-04-19T15:07:39.019Z</time></trkpt><trkpt lat="45.700598633494764" lon="8.457016428191793"><ele>314.0</ele><time>2026-04-19T15:07:40.019Z</time></trkpt><trkpt lat="45.70053452492157" lon="8.457075783870424"><ele>314.0</ele><time>2026-04-19T15:07:41.019Z</time></trkpt><trkpt lat="45.700467412807505" lon="8.457126425356586"><ele>314.0</ele><time>2026-04-19T15:07:42.019Z</time></trkpt><trkpt lat="45.700406773505684" lon="8.457180646399959"><ele>314.0</ele><time>2026-04-19T15:07:43.019Z</time></trkpt><trkpt lat="45.70034534492812" lon="8.457228057650989"><ele>313.8</ele><time>2026-04-19T15:07:44.019Z</time></trkpt><trkpt lat="45.700284371611666" lon="8.45727397555943"><ele>313.59999999999997</ele><time>2026-04-19T15:07:45.019Z</time></trkpt><trkpt lat="45.70017431038774" lon="8.457361928005337"><ele>313.4</ele><time>2026-04-19T15:07:47.019Z</time></trkpt><trkpt lat="45.70011691542522" lon="8.457404284467708"><ele>313.2</ele><time>2026-04-19T15:07:48.019Z</time></trkpt><trkpt lat="45.700007758940764" lon="8.457496960376778"><ele>313.0</ele><time>2026-04-19T15:07:50.019Z</time></trkpt><trkpt lat="45.699944542732524" lon="8.457539771807966"><ele>312.8333333333333</ele><time>2026-04-19T15:07:51.019Z</time></trkpt><trkpt lat="45.69987897280909" lon="8.457584731524143"><ele>312.66666666666663</ele><time>2026-04-19T15:07:52.019Z</time></trkpt><trkpt lat="45.69981416973111" lon="8.45762971812089"><ele>312.5</ele><time>2026-04-19T15:07:53.019Z</time></trkpt><trkpt lat="45.699740122146615" lon="8.45768346826614"><ele>312.3333333333333</ele><time>2026-04-19T15:07:54.019Z</time></trkpt><trkpt lat="45.69966482622995" lon="8.45773839932125"><ele>312.1666666666667</ele><time>2026-04-19T15:07:55.019Z</time></trkpt><trkpt lat="45.69958762592406" lon="8.457792553078944"><ele>312.0</ele><time>2026-04-19T15:07:56.019Z</time></trkpt><trkpt lat="45.69950785589582" lon="8.457846672679295"><ele>312.0</ele><time>2026-04-19T15:07:57.02Z</time></trkpt><trkpt lat="45.69942828373864" lon="8.45790947092982"><ele>312.0</ele><time>2026-04-19T15:07:58.02Z</time></trkpt><trkpt lat="45.69934933945144" lon="8.457975456670896"><ele>312.0</ele><time>2026-04-19T15:07:59.02Z</time></trkpt><trkpt lat="45.69927054179859" lon="8.458044011376712"><ele>312.0</ele><time>2026-04-19T15:08:00.02Z</time></trkpt><trkpt lat="45.69919758732143" lon="8.458115282454283"><ele>312.0</ele><time>2026-04-19T15:08:01.02Z</time></trkpt><trkpt lat="45.69913123336457" lon="8.458180134127202"><ele>312.0</ele><time>2026-04-19T15:08:02.02Z</time></trkpt><trkpt lat="45.699067207603306" lon="8.458239926540692"><ele>312.0</ele><time>2026-04-19T15:08:03.02Z</time></trkpt><trkpt lat="45.69900790265702" lon="8.458290701351556"><ele>312.0</ele><time>2026-04-19T15:08:04.02Z</time></trkpt><trkpt lat="45.6989480105087" lon="8.458333757815542"><ele>312.0</ele><time>2026-04-19T15:08:05.02Z</time></trkpt><trkpt lat="45.69888229594691" lon="8.458374626420175"><ele>312.0</ele><time>2026-04-19T15:08:06.02Z</time></trkpt><trkpt lat="45.69881748232802" lon="8.458413736817747"><ele>312.0</ele><time>2026-04-19T15:08:07.02Z</time></trkpt><trkpt lat="45.69875593519347" lon="8.458453273976883"><ele>312.0</ele><time>2026-04-19T15:08:08.02Z</time></trkpt><trkpt lat="45.69869372736651" lon="8.458487600447366"><ele>312.0</ele><time>2026-04-19T15:08:09.02Z</time></trkpt><trkpt lat="45.69862616183481" lon="8.458523680071062"><ele>311.5</ele><time>2026-04-19T15:08:10.02Z</time></trkpt><trkpt lat="45.69855354774151" lon="8.45855870080073"><ele>311.0</ele><time>2026-04-19T15:08:11.02Z</time></trkpt><trkpt lat="45.698481192753704" lon="8.458584219373915"><ele>310.5</ele><time>2026-04-19T15:08:12.02Z</time></trkpt><trkpt lat="45.69840339925445" lon="8.458592492238985"><ele>310.0</ele><time>2026-04-19T15:08:13.02Z</time></trkpt><trkpt lat="45.69832228157344" lon="8.45860524902304"><ele>309.5</ele><time>2026-04-19T15:08:14.02Z</time></trkpt><trkpt lat="45.698236834291436" lon="8.458620634385639"><ele>309.0</ele><time>2026-04-19T15:08:15.02Z</time></trkpt><trkpt lat="45.698149100685534" lon="8.458639180795691"><ele>309.0</ele><time>2026-04-19T15:08:16.02Z</time></trkpt><trkpt lat="45.69806160357987" lon="8.458658323902835"><ele>309.0</ele><time>2026-04-19T15:08:17.02Z</time></trkpt><trkpt lat="45.697974056153136" lon="8.458668673247553"><ele>309.0</ele><time>2026-04-19T15:08:18.02Z</time></trkpt><trkpt lat="45.697887175042005" lon="8.458667735299132"><ele>309.0</ele><time>2026-04-19T15:08:19.02Z</time></trkpt><trkpt lat="45.697808538493234" lon="8.458657234095162"><ele>309.0</ele><time>2026-04-19T15:08:20.02Z</time></trkpt><trkpt lat="45.69773049388376" lon="8.458632756946681"><ele>309.0</ele><time>2026-04-19T15:08:21.02Z</time></trkpt><trkpt lat="45.69765750075032" lon="8.458611204608356"><ele>308.8333333333333</ele><time>2026-04-19T15:08:22.02Z</time></trkpt><trkpt lat="45.697592896173724" lon="8.458603243874652"><ele>308.6666666666667</ele><time>2026-04-19T15:08:23.02Z</time></trkpt><trkpt lat="45.69748079562326" lon="8.458592837174562"><ele>308.5</ele><time>2026-04-19T15:08:25.02Z</time></trkpt><trkpt lat="45.69738497706689" lon="8.458575738058071"><ele>308.33333333333337</ele><time>2026-04-19T15:08:27.02Z</time></trkpt><trkpt lat="45.69730355194432" lon="8.458549186702747"><ele>308.1666666666667</ele><time>2026-04-19T15:08:29.02Z</time></trkpt><trkpt lat="45.69724169983747" lon="8.458568931742004"><ele>308.0</ele><time>2026-04-19T15:08:31.021Z</time></trkpt><trkpt lat="45.69720603909875" lon="8.45865055888634"><ele>308.0</ele><time>2026-04-19T15:08:33.021Z</time></trkpt><trkpt lat="45.6972463108311" lon="8.45881694151056"><ele>308.0</ele><time>2026-04-19T15:08:35.021Z</time></trkpt><trkpt lat="45.69728588810529" lon="8.458907211152782"><ele>308.0</ele><time>2026-04-19T15:08:36.021Z</time></trkpt><trkpt lat="45.697323804664954" lon="8.45898959725158"><ele>308.0</ele><time>2026-04-19T15:08:37.021Z</time></trkpt><trkpt lat="45.697354663647936" lon="8.459074247776236"><ele>308.0</ele><time>2026-04-19T15:08:38.021Z</time></trkpt><trkpt lat="45.69738670331746" lon="8.459171313369525"><ele>308.0</ele><time>2026-04-19T15:08:39.021Z</time></trkpt><trkpt lat="45.697414387312485" lon="8.459257109197376"><ele>308.0</ele><time>2026-04-19T15:08:40.016Z</time></trkpt><trkpt lat="45.69747600507006" lon="8.45935803940847"><ele>308.0</ele><time>2026-04-19T15:08:42.017Z</time></trkpt><trkpt lat="45.69749833327555" lon="8.459478453777386"><ele>308.0</ele><time>2026-04-19T15:08:45.016Z</time></trkpt><trkpt lat="45.697434070252946" lon="8.45958273984523"><ele>308.0</ele><time>2026-04-19T15:08:47.016Z</time></trkpt><trkpt lat="45.697312081422595" lon="8.459656462097707"><ele>308.0</ele><time>2026-04-19T15:08:49.017Z</time></trkpt><trkpt lat="45.69724246233972" lon="8.459695226007645"><ele>308.2</ele><time>2026-04-19T15:08:50.017Z</time></trkpt><trkpt lat="45.69716254276017" lon="8.459739906466572"><ele>308.4</ele><time>2026-04-19T15:08:51.017Z</time></trkpt><trkpt lat="45.6970713357374" lon="8.459780142451573"><ele>308.59999999999997</ele><time>2026-04-19T15:08:52.017Z</time></trkpt><trkpt lat="45.69697316219371" lon="8.459809644141666"><ele>308.8</ele><time>2026-04-19T15:08:53.017Z</time></trkpt><trkpt lat="45.69687247708264" lon="8.459835116329991"><ele>309.0</ele><time>2026-04-19T15:08:54.017Z</time></trkpt><trkpt lat="45.6967640125826" lon="8.45986981922552"><ele>308.5</ele><time>2026-04-19T15:08:55.017Z</time></trkpt><trkpt lat="45.696647843254915" lon="8.459909665557793"><ele>308.0</ele><time>2026-04-19T15:08:56.017Z</time></trkpt><trkpt lat="45.69653422555815" lon="8.459951465268453"><ele>307.5</ele><time>2026-04-19T15:08:57.017Z</time></trkpt><trkpt lat="45.696415841219114" lon="8.459993996382016"><ele>307.0</ele><time>2026-04-19T15:08:58.017Z</time></trkpt><trkpt lat="45.69630101935226" lon="8.46003374370754"><ele>307.0</ele><time>2026-04-19T15:08:59.017Z</time></trkpt><trkpt lat="45.69619645819453" lon="8.460058273609029"><ele>307.0</ele><time>2026-04-19T15:09:00.017Z</time></trkpt><trkpt lat="45.696097206859214" lon="8.46008985403458"><ele>307.0</ele><time>2026-04-19T15:09:01.017Z</time></trkpt><trkpt lat="45.695990977928446" lon="8.460126458117836"><ele>307.0</ele><time>2026-04-19T15:09:02.017Z</time></trkpt><trkpt lat="45.69588304452746" lon="8.460155469319076"><ele>307.0</ele><time>2026-04-19T15:09:03.017Z</time></trkpt><trkpt lat="45.69576795479418" lon="8.460184717321887"><ele>306.5</ele><time>2026-04-19T15:09:04.017Z</time></trkpt><trkpt lat="45.69565299961018" lon="8.460220142076254"><ele>306.0</ele><time>2026-04-19T15:09:05.017Z</time></trkpt><trkpt lat="45.69553775464257" lon="8.460257431478716"><ele>305.5</ele><time>2026-04-19T15:09:06.017Z</time></trkpt><trkpt lat="45.69542427215406" lon="8.460303427269942"><ele>305.0</ele><time>2026-04-19T15:09:07.017Z</time></trkpt><trkpt lat="45.695316753227154" lon="8.46036388639098"><ele>305.0</ele><time>2026-04-19T15:09:08.017Z</time></trkpt><trkpt lat="45.69521410299944" lon="8.460433341745837"><ele>305.0</ele><time>2026-04-19T15:09:09.017Z</time></trkpt><trkpt lat="45.69511556237704" lon="8.460507026246175"><ele>305.0</ele><time>2026-04-19T15:09:10.017Z</time></trkpt><trkpt lat="45.695018662001765" lon="8.460589130138118"><ele>305.0</ele><time>2026-04-19T15:09:11.017Z</time></trkpt><trkpt lat="45.69491619948476" lon="8.460679830448635"><ele>305.0</ele><time>2026-04-19T15:09:12.017Z</time></trkpt><trkpt lat="45.6948388933513" lon="8.460769141210134"><ele>305.0</ele><time>2026-04-19T15:09:13.017Z</time></trkpt><trkpt lat="45.69477143215835" lon="8.460848580679382"><ele>305.0</ele><time>2026-04-19T15:09:14.017Z</time></trkpt><trkpt lat="45.69470310320395" lon="8.460928732303863"><ele>305.0</ele><time>2026-04-19T15:09:15.017Z</time></trkpt><trkpt lat="45.694621622183355" lon="8.461016596614426"><ele>305.0</ele><time>2026-04-19T15:09:16.017Z</time></trkpt><trkpt lat="45.69454542419608" lon="8.461110409734173"><ele>305.0</ele><time>2026-04-19T15:09:17.017Z</time></trkpt><trkpt lat="45.69447802705861" lon="8.461199012906334"><ele>305.0</ele><time>2026-04-19T15:09:18.017Z</time></trkpt><trkpt lat="45.69441057015981" lon="8.461292272197444"><ele>305.0</ele><time>2026-04-19T15:09:19.017Z</time></trkpt><trkpt lat="45.69434099828447" lon="8.46139642153386"><ele>305.0</ele><time>2026-04-19T15:09:20.017Z</time></trkpt><trkpt lat="45.694258600258635" lon="8.461501589851293"><ele>305.0</ele><time>2026-04-19T15:09:21.017Z</time></trkpt><trkpt lat="45.69417549757387" lon="8.461608013596083"><ele>305.0</ele><time>2026-04-19T15:09:22.017Z</time></trkpt><trkpt lat="45.69408598611179" lon="8.461718769195077"><ele>305.0</ele><time>2026-04-19T15:09:23.017Z</time></trkpt><trkpt lat="45.69399051674411" lon="8.461834765541328"><ele>305.0</ele><time>2026-04-19T15:09:24.018Z</time></trkpt><trkpt lat="45.69389550197853" lon="8.461950256129725"><ele>305.0</ele><time>2026-04-19T15:09:25.018Z</time></trkpt><trkpt lat="45.69380548311952" lon="8.462072856367703"><ele>305.0</ele><time>2026-04-19T15:09:26.018Z</time></trkpt><trkpt lat="45.693718741678545" lon="8.46219335310361"><ele>305.0</ele><time>2026-04-19T15:09:27.018Z</time></trkpt><trkpt lat="45.69363213288542" lon="8.4623109503526"><ele>305.0</ele><time>2026-04-19T15:09:28.018Z</time></trkpt><trkpt lat="45.693547761362254" lon="8.462430569755602"><ele>305.0</ele><time>2026-04-19T15:09:29.018Z</time></trkpt><trkpt lat="45.69346991574442" lon="8.462551970427985"><ele>305.0</ele><time>2026-04-19T15:09:30.018Z</time></trkpt><trkpt lat="45.693397301931064" lon="8.462662863437576"><ele>305.0</ele><time>2026-04-19T15:09:31.018Z</time></trkpt><trkpt lat="45.69333029919677" lon="8.462768879550866"><ele>305.0</ele><time>2026-04-19T15:09:32.018Z</time></trkpt><trkpt lat="45.69326610837728" lon="8.462867482606113"><ele>305.0</ele><time>2026-04-19T15:09:33.018Z</time></trkpt><trkpt lat="45.69320392586558" lon="8.462970039850138"><ele>305.0</ele><time>2026-04-19T15:09:34.018Z</time></trkpt><trkpt lat="45.69314049092332" lon="8.463077121851121"><ele>304.6</ele><time>2026-04-19T15:09:35.018Z</time></trkpt><trkpt lat="45.69307351958539" lon="8.463183923360214"><ele>304.2</ele><time>2026-04-19T15:09:36.018Z</time></trkpt><trkpt lat="45.693002135932936" lon="8.463289119034508"><ele>303.8</ele><time>2026-04-19T15:09:37.018Z</time></trkpt><trkpt lat="45.69292664973971" lon="8.46340382711075"><ele>303.4</ele><time>2026-04-19T15:09:38.018Z</time></trkpt><trkpt lat="45.69284831818214" lon="8.463526093779391"><ele>303.0</ele><time>2026-04-19T15:09:39.018Z</time></trkpt><trkpt lat="45.69277021284598" lon="8.463651123373728"><ele>303.0</ele><time>2026-04-19T15:09:40.018Z</time></trkpt><trkpt lat="45.69269427930018" lon="8.463770833675051"><ele>303.0</ele><time>2026-04-19T15:09:41.018Z</time></trkpt><trkpt lat="45.69261804505977" lon="8.463885690123947"><ele>303.0</ele><time>2026-04-19T15:09:42.018Z</time></trkpt><trkpt lat="45.69254948107814" lon="8.463995408658173"><ele>303.0</ele><time>2026-04-19T15:09:43.018Z</time></trkpt><trkpt lat="45.69248434682867" lon="8.464097629776951"><ele>303.0</ele><time>2026-04-19T15:09:44.018Z</time></trkpt><trkpt lat="45.692422543002756" lon="8.464195550420536"><ele>303.0</ele><time>2026-04-19T15:09:45.018Z</time></trkpt><trkpt lat="45.69236364942878" lon="8.464290813661453"><ele>303.0</ele><time>2026-04-19T15:09:46.018Z</time></trkpt><trkpt lat="45.69230221077037" lon="8.464384159867823"><ele>303.0</ele><time>2026-04-19T15:09:47.018Z</time></trkpt><trkpt lat="45.692241151217495" lon="8.464463836131785"><ele>303.0</ele><time>2026-04-19T15:09:48.018Z</time></trkpt><trkpt lat="45.69218288826675" lon="8.464534381137588"><ele>303.0</ele><time>2026-04-19T15:09:49.018Z</time></trkpt><trkpt lat="45.69212519672707" lon="8.464597945475203"><ele>303.0</ele><time>2026-04-19T15:09:50.018Z</time></trkpt><trkpt lat="45.692067324720234" lon="8.464652454559616"><ele>303.0</ele><time>2026-04-19T15:09:51.018Z</time></trkpt><trkpt lat="45.69200433614614" lon="8.464694699764133"><ele>303.0</ele><time>2026-04-19T15:09:52.018Z</time></trkpt><trkpt lat="45.69193379172033" lon="8.464725455180831"><ele>303.0</ele><time>2026-04-19T15:09:53.018Z</time></trkpt><trkpt lat="45.69186843267281" lon="8.464743810664812"><ele>303.0</ele><time>2026-04-19T15:09:54.018Z</time></trkpt><trkpt lat="45.6917758989348" lon="8.464836949276433"><ele>303.0</ele><time>2026-04-19T15:09:56.018Z</time></trkpt><trkpt lat="45.691764052870035" lon="8.46501748367087"><ele>303.0</ele><time>2026-04-19T15:09:58.019Z</time></trkpt><trkpt lat="45.691775400944515" lon="8.465138878002715"><ele>303.0</ele><time>2026-04-19T15:09:59.019Z</time></trkpt><trkpt lat="45.69177781246576" lon="8.465270126726667"><ele>303.0</ele><time>2026-04-19T15:10:00.019Z</time></trkpt><trkpt lat="45.69177061791746" lon="8.465398695944648"><ele>303.0</ele><time>2026-04-19T15:10:01.019Z</time></trkpt><trkpt lat="45.691758567395325" lon="8.465533615294978"><ele>303.0</ele><time>2026-04-19T15:10:02.019Z</time></trkpt><trkpt lat="45.69175575091293" lon="8.465676802388716"><ele>303.0</ele><time>2026-04-19T15:10:03.019Z</time></trkpt><trkpt lat="45.69176725186955" lon="8.465826106421808"><ele>303.0</ele><time>2026-04-19T15:10:04.019Z</time></trkpt><trkpt lat="45.69179116203449" lon="8.465969361503108"><ele>303.0</ele><time>2026-04-19T15:10:05.019Z</time></trkpt><trkpt lat="45.6918336966589" lon="8.466099580162645"><ele>303.0</ele><time>2026-04-19T15:10:06.019Z</time></trkpt><trkpt lat="45.69187809424818" lon="8.466230142394428"><ele>303.0</ele><time>2026-04-19T15:10:07.019Z</time></trkpt><trkpt lat="45.69193085237807" lon="8.46635446837626"><ele>303.2</ele><time>2026-04-19T15:10:08.019Z</time></trkpt><trkpt lat="45.69199393394739" lon="8.466478197879708"><ele>303.4</ele><time>2026-04-19T15:10:09.019Z</time></trkpt><trkpt lat="45.69205165160077" lon="8.466605267096165"><ele>303.59999999999997</ele><time>2026-04-19T15:10:10.019Z</time></trkpt><trkpt lat="45.692105940653484" lon="8.466734404799396"><ele>303.8</ele><time>2026-04-19T15:10:11.019Z</time></trkpt><trkpt lat="45.69215974886413" lon="8.466863684972619"><ele>304.0</ele><time>2026-04-19T15:10:12.019Z</time></trkpt><trkpt lat="45.69221447993947" lon="8.466992884003632"><ele>304.2</ele><time>2026-04-19T15:10:13.019Z</time></trkpt><trkpt lat="45.69226628119636" lon="8.467119115121315"><ele>304.4</ele><time>2026-04-19T15:10:14.019Z</time></trkpt><trkpt lat="45.69231964431617" lon="8.467245654149258"><ele>304.6</ele><time>2026-04-19T15:10:15.019Z</time></trkpt><trkpt lat="45.69237430651471" lon="8.467370982309193"><ele>304.8</ele><time>2026-04-19T15:10:16.019Z</time></trkpt><trkpt lat="45.69242854126139" lon="8.46750049662247"><ele>305.0</ele><time>2026-04-19T15:10:17.019Z</time></trkpt><trkpt lat="45.69248586432259" lon="8.467632404102902"><ele>305.0</ele><time>2026-04-19T15:10:18.019Z</time></trkpt><trkpt lat="45.692546138551464" lon="8.467760944616632"><ele>305.0</ele><time>2026-04-19T15:10:19.019Z</time></trkpt><trkpt lat="45.6926007957397" lon="8.46789105321324"><ele>305.0</ele><time>2026-04-19T15:10:20.019Z</time></trkpt><trkpt lat="45.69265598309965" lon="8.468026140283277"><ele>305.0</ele><time>2026-04-19T15:10:21.019Z</time></trkpt><trkpt lat="45.69270885296836" lon="8.468160606987048"><ele>305.0</ele><time>2026-04-19T15:10:22.019Z</time></trkpt><trkpt lat="45.692767336735415" lon="8.468294769019279"><ele>305.0</ele><time>2026-04-19T15:10:23.019Z</time></trkpt><trkpt lat="45.69282249725551" lon="8.468426634242503"><ele>305.0</ele><time>2026-04-19T15:10:24.019Z</time></trkpt><trkpt lat="45.69287604330349" lon="8.468549238659923"><ele>305.0</ele><time>2026-04-19T15:10:25.019Z</time></trkpt><trkpt lat="45.6929232945343" lon="8.468662567764081"><ele>305.0</ele><time>2026-04-19T15:10:26.019Z</time></trkpt><trkpt lat="45.69297422268659" lon="8.468769145786908"><ele>305.0</ele><time>2026-04-19T15:10:27.019Z</time></trkpt><trkpt lat="45.693016221756146" lon="8.468870340630549"><ele>304.8</ele><time>2026-04-19T15:10:28.019Z</time></trkpt><trkpt lat="45.693052851330975" lon="8.468957999424985"><ele>304.6</ele><time>2026-04-19T15:10:29.019Z</time></trkpt><trkpt lat="45.693091374336944" lon="8.469031795347767"><ele>304.4</ele><time>2026-04-19T15:10:30.019Z</time></trkpt><trkpt lat="45.69313428723724" lon="8.469168414697512"><ele>304.2</ele><time>2026-04-19T15:10:32.02Z</time></trkpt><trkpt lat="45.69310620572642" lon="8.469368756489935"><ele>304.0</ele><time>2026-04-19T15:10:34.02Z</time></trkpt><trkpt lat="45.69305818975465" lon="8.469470616009101"><ele>304.0</ele><time>2026-04-19T15:10:35.02Z</time></trkpt><trkpt lat="45.692992986539195" lon="8.469568918769639"><ele>304.0</ele><time>2026-04-19T15:10:36.02Z</time></trkpt><trkpt lat="45.69291274586448" lon="8.469678265153389"><ele>304.0</ele><time>2026-04-19T15:10:37.02Z</time></trkpt><trkpt lat="45.69283005531621" lon="8.469790894668604"><ele>304.0</ele><time>2026-04-19T15:10:38.02Z</time></trkpt><trkpt lat="45.69275908400882" lon="8.46990999450967"><ele>304.0</ele><time>2026-04-19T15:10:39.02Z</time></trkpt><trkpt lat="45.692704654702325" lon="8.47002593138952"><ele>303.59999999999997</ele><time>2026-04-19T15:10:40.02Z</time></trkpt><trkpt lat="45.69263783179142" lon="8.470136817705653"><ele>303.2</ele><time>2026-04-19T15:10:41.02Z</time></trkpt><trkpt lat="45.692561640012975" lon="8.470228806838778"><ele>302.79999999999995</ele><time>2026-04-19T15:10:42.02Z</time></trkpt><trkpt lat="45.69247654687633" lon="8.470323657285501"><ele>302.4</ele><time>2026-04-19T15:10:43.02Z</time></trkpt><trkpt lat="45.69240475011079" lon="8.47042730353255"><ele>302.0</ele><time>2026-04-19T15:10:44.02Z</time></trkpt><trkpt lat="45.69233075106917" lon="8.470527161707613"><ele>302.0</ele><time>2026-04-19T15:10:45.02Z</time></trkpt><trkpt lat="45.69226212856726" lon="8.470627707180347"><ele>302.0</ele><time>2026-04-19T15:10:46.016Z</time></trkpt><trkpt lat="45.692188300414585" lon="8.470731940957352"><ele>302.0</ele><time>2026-04-19T15:10:47.015Z</time></trkpt><trkpt lat="45.692114990940325" lon="8.470833925512132"><ele>302.0</ele><time>2026-04-19T15:10:48.015Z</time></trkpt><trkpt lat="45.692048816105356" lon="8.47093373039719"><ele>302.0</ele><time>2026-04-19T15:10:49.016Z</time></trkpt><trkpt lat="45.69198602957406" lon="8.47103475437356"><ele>302.0</ele><time>2026-04-19T15:10:50.016Z</time></trkpt><trkpt lat="45.69191933985548" lon="8.471135587514794"><ele>302.0</ele><time>2026-04-19T15:10:51.016Z</time></trkpt><trkpt lat="45.69184618493904" lon="8.471232198974931"><ele>302.0</ele><time>2026-04-19T15:10:52.015Z</time></trkpt><trkpt lat="45.69177377735007" lon="8.471333390096419"><ele>302.0</ele><time>2026-04-19T15:10:53.016Z</time></trkpt><trkpt lat="45.69170316322198" lon="8.471436078239531"><ele>302.0</ele><time>2026-04-19T15:10:54.016Z</time></trkpt><trkpt lat="45.69163169575356" lon="8.471543589876426"><ele>301.8</ele><time>2026-04-19T15:10:55.016Z</time></trkpt><trkpt lat="45.69156049613723" lon="8.471646200176687"><ele>301.6</ele><time>2026-04-19T15:10:56.016Z</time></trkpt><trkpt lat="45.6914902382028" lon="8.471752355831832"><ele>301.40000000000003</ele><time>2026-04-19T15:10:57.016Z</time></trkpt><trkpt lat="45.691418327425154" lon="8.471856012615433"><ele>301.2</ele><time>2026-04-19T15:10:58.016Z</time></trkpt><trkpt lat="45.691341748648085" lon="8.47195802776672"><ele>301.0</ele><time>2026-04-19T15:10:59.016Z</time></trkpt><trkpt lat="45.69126402492842" lon="8.472066053019198"><ele>301.0</ele><time>2026-04-19T15:11:00.016Z</time></trkpt><trkpt lat="45.691190409114455" lon="8.472177863539411"><ele>301.0</ele><time>2026-04-19T15:11:01.016Z</time></trkpt><trkpt lat="45.69111644580745" lon="8.472294661512706"><ele>301.0</ele><time>2026-04-19T15:11:02.016Z</time></trkpt><trkpt lat="45.69104134338306" lon="8.472411746377594"><ele>301.0</ele><time>2026-04-19T15:11:03.016Z</time></trkpt><trkpt lat="45.690961145272645" lon="8.472521458054441"><ele>301.0</ele><time>2026-04-19T15:11:04.016Z</time></trkpt><trkpt lat="45.690877915375815" lon="8.47262980138408"><ele>301.0</ele><time>2026-04-19T15:11:05.016Z</time></trkpt><trkpt lat="45.69079487971805" lon="8.472746100068585"><ele>301.0</ele><time>2026-04-19T15:11:06.016Z</time></trkpt><trkpt lat="45.690721051114245" lon="8.47286054070793"><ele>301.0</ele><time>2026-04-19T15:11:07.016Z</time></trkpt><trkpt lat="45.690641825584144" lon="8.47297232677418"><ele>301.0</ele><time>2026-04-19T15:11:08.016Z</time></trkpt><trkpt lat="45.69055867145634" lon="8.473094453558794"><ele>301.0</ele><time>2026-04-19T15:11:09.016Z</time></trkpt><trkpt lat="45.6904765950372" lon="8.47320885556232"><ele>301.0</ele><time>2026-04-19T15:11:10.016Z</time></trkpt><trkpt lat="45.69039604754455" lon="8.47331975370628"><ele>301.0</ele><time>2026-04-19T15:11:11.016Z</time></trkpt><trkpt lat="45.69031397160935" lon="8.473439416456003"><ele>301.0</ele><time>2026-04-19T15:11:12.016Z</time></trkpt><trkpt lat="45.69023457065883" lon="8.473548723251623"><ele>301.0</ele><time>2026-04-19T15:11:13.016Z</time></trkpt><trkpt lat="45.690148761601115" lon="8.473645354079757"><ele>301.0</ele><time>2026-04-19T15:11:14.016Z</time></trkpt><trkpt lat="45.69005475916691" lon="8.473738412544039"><ele>301.0</ele><time>2026-04-19T15:11:15.016Z</time></trkpt><trkpt lat="45.68995900812975" lon="8.473819594723158"><ele>301.0</ele><time>2026-04-19T15:11:16.016Z</time></trkpt><trkpt lat="45.68985740224515" lon="8.473902096493259"><ele>301.2</ele><time>2026-04-19T15:11:17.016Z</time></trkpt><trkpt lat="45.689757772939906" lon="8.47398770029082"><ele>301.40000000000003</ele><time>2026-04-19T15:11:18.016Z</time></trkpt><trkpt lat="45.689663708526595" lon="8.474073791577466"><ele>301.6</ele><time>2026-04-19T15:11:19.016Z</time></trkpt><trkpt lat="45.68956897917969" lon="8.474154550238527"><ele>301.8</ele><time>2026-04-19T15:11:20.016Z</time></trkpt><trkpt lat="45.689475261252035" lon="8.474232876375801"><ele>302.0</ele><time>2026-04-19T15:11:21.016Z</time></trkpt><trkpt lat="45.689383562107395" lon="8.47431737036145"><ele>302.0</ele><time>2026-04-19T15:11:22.016Z</time></trkpt><trkpt lat="45.68928685562169" lon="8.474398210078705"><ele>302.0</ele><time>2026-04-19T15:11:23.016Z</time></trkpt><trkpt lat="45.68919547117088" lon="8.474476978237163"><ele>302.0</ele><time>2026-04-19T15:11:24.016Z</time></trkpt><trkpt lat="45.68910096534194" lon="8.47455952631281"><ele>302.0</ele><time>2026-04-19T15:11:25.016Z</time></trkpt><trkpt lat="45.68900664866172" lon="8.474641162019415"><ele>302.0</ele><time>2026-04-19T15:11:26.016Z</time></trkpt><trkpt lat="45.68891036180595" lon="8.474724980179237"><ele>302.0</ele><time>2026-04-19T15:11:27.016Z</time></trkpt><trkpt lat="45.68881255851986" lon="8.47481613722332"><ele>302.0</ele><time>2026-04-19T15:11:28.016Z</time></trkpt><trkpt lat="45.68871336189512" lon="8.47491014197018"><ele>302.0</ele><time>2026-04-19T15:11:29.016Z</time></trkpt><trkpt lat="45.688614908583354" lon="8.475002753579583"><ele>302.0</ele><time>2026-04-19T15:11:30.017Z</time></trkpt><trkpt lat="45.688515313370324" lon="8.475086281307883"><ele>301.8</ele><time>2026-04-19T15:11:31.017Z</time></trkpt><trkpt lat="45.68842366687966" lon="8.475181366140996"><ele>301.6</ele><time>2026-04-19T15:11:32.017Z</time></trkpt><trkpt lat="45.68833188342681" lon="8.475260922048461"><ele>301.40000000000003</ele><time>2026-04-19T15:11:33.017Z</time></trkpt><trkpt lat="45.688237749610764" lon="8.47534815878103"><ele>301.2</ele><time>2026-04-19T15:11:34.017Z</time></trkpt><trkpt lat="45.68814141042482" lon="8.475432103079985"><ele>301.0</ele><time>2026-04-19T15:11:35.017Z</time></trkpt><trkpt lat="45.688048853692685" lon="8.475517722318264"><ele>301.0</ele><time>2026-04-19T15:11:36.017Z</time></trkpt><trkpt lat="45.68795979365903" lon="8.475598408107013"><ele>301.0</ele><time>2026-04-19T15:11:37.017Z</time></trkpt><trkpt lat="45.6878751441236" lon="8.475666319799531"><ele>301.0</ele><time>2026-04-19T15:11:38.017Z</time></trkpt><trkpt lat="45.68779241044806" lon="8.47573810302621"><ele>301.0</ele><time>2026-04-19T15:11:39.017Z</time></trkpt><trkpt lat="45.687709583446924" lon="8.475811415482742"><ele>301.0</ele><time>2026-04-19T15:11:40.017Z</time></trkpt><trkpt lat="45.68762582614902" lon="8.475888976036886"><ele>300.6</ele><time>2026-04-19T15:11:41.017Z</time></trkpt><trkpt lat="45.6875441560476" lon="8.475954468827053"><ele>300.20000000000005</ele><time>2026-04-19T15:11:42.017Z</time></trkpt><trkpt lat="45.687459308332215" lon="8.476026902619395"><ele>299.79999999999995</ele><time>2026-04-19T15:11:43.017Z</time></trkpt><trkpt lat="45.68737825429522" lon="8.476098466346615"><ele>299.4</ele><time>2026-04-19T15:11:44.017Z</time></trkpt><trkpt lat="45.68729020852444" lon="8.476166265295186"><ele>299.0</ele><time>2026-04-19T15:11:45.017Z</time></trkpt><trkpt lat="45.68720085818986" lon="8.476238355040714"><ele>299.0</ele><time>2026-04-19T15:11:46.017Z</time></trkpt><trkpt lat="45.68711193738862" lon="8.476315242298249"><ele>299.0</ele><time>2026-04-19T15:11:47.017Z</time></trkpt><trkpt lat="45.68701364067843" lon="8.476399479951036"><ele>299.0</ele><time>2026-04-19T15:11:48.017Z</time></trkpt><trkpt lat="45.68693069997897" lon="8.476477501201368"><ele>299.0</ele><time>2026-04-19T15:11:49.017Z</time></trkpt><trkpt lat="45.68683626718921" lon="8.476556180187119"><ele>299.0</ele><time>2026-04-19T15:11:50.017Z</time></trkpt><trkpt lat="45.68674205436855" lon="8.476640428429373"><ele>299.0</ele><time>2026-04-19T15:11:51.017Z</time></trkpt><trkpt lat="45.686642411214144" lon="8.476713556819274"><ele>299.0</ele><time>2026-04-19T15:11:52.017Z</time></trkpt><trkpt lat="45.68654868559942" lon="8.476802243086007"><ele>299.0</ele><time>2026-04-19T15:11:53.017Z</time></trkpt><trkpt lat="45.686447030763176" lon="8.476887700686234"><ele>299.0</ele><time>2026-04-19T15:11:54.017Z</time></trkpt><trkpt lat="45.68634879093564" lon="8.47696757259383"><ele>299.0</ele><time>2026-04-19T15:11:55.017Z</time></trkpt><trkpt lat="45.686247841962064" lon="8.477053426647233"><ele>299.0</ele><time>2026-04-19T15:11:56.017Z</time></trkpt><trkpt lat="45.68614358109012" lon="8.477141349887809"><ele>299.0</ele><time>2026-04-19T15:11:57.017Z</time></trkpt><trkpt lat="45.68604414771209" lon="8.477225823125064"><ele>299.0</ele><time>2026-04-19T15:11:58.017Z</time></trkpt><trkpt lat="45.68594267229989" lon="8.47731569824675"><ele>299.0</ele><time>2026-04-19T15:11:59.017Z</time></trkpt><trkpt lat="45.68584419294408" lon="8.477401903356862"><ele>299.0</ele><time>2026-04-19T15:12:00.017Z</time></trkpt><trkpt lat="45.685745338644026" lon="8.477481481926803"><ele>299.0</ele><time>2026-04-19T15:12:01.017Z</time></trkpt><trkpt lat="45.685649246755304" lon="8.477562059760112"><ele>299.0</ele><time>2026-04-19T15:12:02.017Z</time></trkpt><trkpt lat="45.68555330004516" lon="8.477647108841708"><ele>299.0</ele><time>2026-04-19T15:12:03.018Z</time></trkpt><trkpt lat="45.6854562508677" lon="8.477750427251774"><ele>299.0</ele><time>2026-04-19T15:12:04.018Z</time></trkpt><trkpt lat="45.685373955806526" lon="8.477825543162115"><ele>299.0</ele><time>2026-04-19T15:12:05.018Z</time></trkpt><trkpt lat="45.68528449230814" lon="8.477913746156261"><ele>299.0</ele><time>2026-04-19T15:12:06.018Z</time></trkpt><trkpt lat="45.68519228316296" lon="8.477997940864002"><ele>299.0</ele><time>2026-04-19T15:12:07.018Z</time></trkpt><trkpt lat="45.68509624464147" lon="8.478074948703364"><ele>298.75</ele><time>2026-04-19T15:12:08.018Z</time></trkpt><trkpt lat="45.68500629299433" lon="8.478167980603788"><ele>298.5</ele><time>2026-04-19T15:12:09.018Z</time></trkpt><trkpt lat="45.68491109212043" lon="8.478258269011784"><ele>298.25</ele><time>2026-04-19T15:12:10.018Z</time></trkpt><trkpt lat="45.68481383051739" lon="8.47835297690178"><ele>298.0</ele><time>2026-04-19T15:12:11.018Z</time></trkpt><trkpt lat="45.68471437332512" lon="8.478440571393037"><ele>298.0</ele><time>2026-04-19T15:12:12.018Z</time></trkpt><trkpt lat="45.68461842851543" lon="8.47851899477938"><ele>298.0</ele><time>2026-04-19T15:12:13.018Z</time></trkpt><trkpt lat="45.684517847689705" lon="8.478599571584047"><ele>298.0</ele><time>2026-04-19T15:12:14.018Z</time></trkpt><trkpt lat="45.684418110755914" lon="8.478677487633748"><ele>298.0</ele><time>2026-04-19T15:12:15.018Z</time></trkpt><trkpt lat="45.68431653626432" lon="8.478756979095435"><ele>297.75</ele><time>2026-04-19T15:12:16.018Z</time></trkpt><trkpt lat="45.68421114805936" lon="8.478836213498727"><ele>297.5</ele><time>2026-04-19T15:12:17.018Z</time></trkpt><trkpt lat="45.68410269360785" lon="8.478913697590173"><ele>297.25</ele><time>2026-04-19T15:12:18.018Z</time></trkpt><trkpt lat="45.68399402170624" lon="8.478990757517607"><ele>297.0</ele><time>2026-04-19T15:12:19.018Z</time></trkpt><trkpt lat="45.6838851960203" lon="8.479070822086387"><ele>297.0</ele><time>2026-04-19T15:12:20.018Z</time></trkpt><trkpt lat="45.68377648231798" lon="8.47915162327355"><ele>297.0</ele><time>2026-04-19T15:12:21.018Z</time></trkpt><trkpt lat="45.683664713008326" lon="8.479228895358066"><ele>297.0</ele><time>2026-04-19T15:12:22.018Z</time></trkpt><trkpt lat="45.68355126359556" lon="8.479303678662959"><ele>297.0</ele><time>2026-04-19T15:12:23.018Z</time></trkpt><trkpt lat="45.68343808695187" lon="8.479376659298335"><ele>296.75</ele><time>2026-04-19T15:12:24.018Z</time></trkpt><trkpt lat="45.68332582026122" lon="8.479454057163014"><ele>296.5</ele><time>2026-04-19T15:12:25.018Z</time></trkpt><trkpt lat="45.68321611741528" lon="8.479531981086932"><ele>296.25</ele><time>2026-04-19T15:12:26.018Z</time></trkpt><trkpt lat="45.68310387007659" lon="8.479609292286424"><ele>296.0</ele><time>2026-04-19T15:12:27.018Z</time></trkpt><trkpt lat="45.68299013163318" lon="8.479684123947006"><ele>295.75</ele><time>2026-04-19T15:12:28.018Z</time></trkpt><trkpt lat="45.682878305446565" lon="8.47975884044777"><ele>295.5</ele><time>2026-04-19T15:12:29.018Z</time></trkpt><trkpt lat="45.68276432145227" lon="8.479835250167211"><ele>295.25</ele><time>2026-04-19T15:12:30.018Z</time></trkpt><trkpt lat="45.682651544253346" lon="8.479915548293476"><ele>295.0</ele><time>2026-04-19T15:12:31.018Z</time></trkpt><trkpt lat="45.68253764975467" lon="8.479997450741765"><ele>295.0</ele><time>2026-04-19T15:12:32.018Z</time></trkpt><trkpt lat="45.6824290649817" lon="8.480074686348843"><ele>295.0</ele><time>2026-04-19T15:12:33.018Z</time></trkpt><trkpt lat="45.68232799796307" lon="8.480151358944504"><ele>295.0</ele><time>2026-04-19T15:12:34.018Z</time></trkpt><trkpt lat="45.68223468243023" lon="8.48022477839999"><ele>295.0</ele><time>2026-04-19T15:12:35.018Z</time></trkpt><trkpt lat="45.682141877855194" lon="8.48029081246345"><ele>295.0</ele><time>2026-04-19T15:12:36.019Z</time></trkpt><trkpt lat="45.682075059732355" lon="8.480333313049684"><ele>295.0</ele><time>2026-04-19T15:12:37.019Z</time></trkpt><trkpt lat="45.68200834684904" lon="8.480371806101623"><ele>295.0</ele><time>2026-04-19T15:12:38.019Z</time></trkpt><trkpt lat="45.681945888165615" lon="8.480406856250807"><ele>295.0</ele><time>2026-04-19T15:12:39.019Z</time></trkpt><trkpt lat="45.681883556817205" lon="8.480452389576003"><ele>295.0</ele><time>2026-04-19T15:12:40.019Z</time></trkpt><trkpt lat="45.681813037726656" lon="8.480507383306625"><ele>295.0</ele><time>2026-04-19T15:12:41.019Z</time></trkpt><trkpt lat="45.68173354272505" lon="8.480570111385658"><ele>295.0</ele><time>2026-04-19T15:12:42.019Z</time></trkpt><trkpt lat="45.681643101481875" lon="8.480634520942747"><ele>294.75</ele><time>2026-04-19T15:12:43.019Z</time></trkpt><trkpt lat="45.68154388949426" lon="8.48070800824257"><ele>294.5</ele><time>2026-04-19T15:12:44.019Z</time></trkpt><trkpt lat="45.681436168065" lon="8.480786294162854"><ele>294.25</ele><time>2026-04-19T15:12:45.019Z</time></trkpt><trkpt lat="45.681325961146015" lon="8.480860565010557"><ele>294.0</ele><time>2026-04-19T15:12:46.019Z</time></trkpt><trkpt lat="45.68121573665828" lon="8.480935042856006"><ele>294.0</ele><time>2026-04-19T15:12:47.019Z</time></trkpt><trkpt lat="45.68110570745608" lon="8.481016488804435"><ele>294.0</ele><time>2026-04-19T15:12:48.019Z</time></trkpt><trkpt lat="45.68098315758884" lon="8.481109522887431"><ele>294.0</ele><time>2026-04-19T15:12:49.019Z</time></trkpt><trkpt lat="45.68085891987859" lon="8.48120092211459"><ele>294.0</ele><time>2026-04-19T15:12:50.019Z</time></trkpt><trkpt lat="45.68073423387274" lon="8.481291921873208"><ele>294.0</ele><time>2026-04-19T15:12:51.019Z</time></trkpt><trkpt lat="45.680607527518326" lon="8.48138030283064"><ele>294.0</ele><time>2026-04-19T15:12:52.015Z</time></trkpt><trkpt lat="45.680478423249795" lon="8.481475079877283"><ele>294.0</ele><time>2026-04-19T15:12:53.015Z</time></trkpt><trkpt lat="45.68034079936354" lon="8.481579394156695"><ele>294.0</ele><time>2026-04-19T15:12:54.015Z</time></trkpt><trkpt lat="45.68020703677164" lon="8.481681908002667"><ele>293.3333333333333</ele><time>2026-04-19T15:12:55.014Z</time></trkpt><trkpt lat="45.6800638441859" lon="8.481780959266755"><ele>292.66666666666663</ele><time>2026-04-19T15:12:56.015Z</time></trkpt><trkpt lat="45.679920486500016" lon="8.48188350499746"><ele>292.0</ele><time>2026-04-19T15:12:57.015Z</time></trkpt><trkpt lat="45.67977793787877" lon="8.481984171346081"><ele>292.0</ele><time>2026-04-19T15:12:58.015Z</time></trkpt><trkpt lat="45.67963743251716" lon="8.482082392292805"><ele>292.0</ele><time>2026-04-19T15:12:59.015Z</time></trkpt><trkpt lat="45.67949839814956" lon="8.4821859720343"><ele>292.0</ele><time>2026-04-19T15:13:00.015Z</time></trkpt><trkpt lat="45.67935572056614" lon="8.482291811025739"><ele>291.66666666666663</ele><time>2026-04-19T15:13:01.015Z</time></trkpt><trkpt lat="45.679215803222995" lon="8.48239985055174"><ele>291.3333333333333</ele><time>2026-04-19T15:13:02.015Z</time></trkpt><trkpt lat="45.67907597194009" lon="8.482502504279404"><ele>291.0</ele><time>2026-04-19T15:13:03.015Z</time></trkpt><trkpt lat="45.678935191488144" lon="8.48260211929884"><ele>291.0</ele><time>2026-04-19T15:13:04.014Z</time></trkpt><trkpt lat="45.67879299510915" lon="8.48269898973445"><ele>291.0</ele><time>2026-04-19T15:13:05.015Z</time></trkpt><trkpt lat="45.67864958877628" lon="8.4827910913073"><ele>291.0</ele><time>2026-04-19T15:13:06.015Z</time></trkpt><trkpt lat="45.67850829900331" lon="8.48288993254542"><ele>291.3333333333333</ele><time>2026-04-19T15:13:07.015Z</time></trkpt><trkpt lat="45.678365980326475" lon="8.482994633220112"><ele>291.66666666666663</ele><time>2026-04-19T15:13:08.015Z</time></trkpt><trkpt lat="45.678223205750534" lon="8.483100961245762"><ele>292.0</ele><time>2026-04-19T15:13:09.015Z</time></trkpt><trkpt lat="45.678078276469186" lon="8.483204779902795"><ele>292.0</ele><time>2026-04-19T15:13:10.015Z</time></trkpt><trkpt lat="45.677928361540836" lon="8.483301367110139"><ele>292.0</ele><time>2026-04-19T15:13:11.015Z</time></trkpt><trkpt lat="45.677778452263226" lon="8.483393531672652"><ele>292.0</ele><time>2026-04-19T15:13:12.015Z</time></trkpt><trkpt lat="45.677627620095535" lon="8.483485040373937"><ele>291.0</ele><time>2026-04-19T15:13:13.015Z</time></trkpt><trkpt lat="45.67747432841792" lon="8.48356856578534"><ele>290.0</ele><time>2026-04-19T15:13:14.015Z</time></trkpt><trkpt lat="45.67731789427757" lon="8.483648342970133"><ele>289.0</ele><time>2026-04-19T15:13:15.015Z</time></trkpt><trkpt lat="45.67715893695909" lon="8.483725833255019"><ele>289.0</ele><time>2026-04-19T15:13:16.015Z</time></trkpt><trkpt lat="45.67700087386552" lon="8.483810029665378"><ele>289.0</ele><time>2026-04-19T15:13:17.015Z</time></trkpt><trkpt lat="45.67684185426274" lon="8.48389442897746"><ele>289.0</ele><time>2026-04-19T15:13:18.015Z</time></trkpt><trkpt lat="45.67668701670981" lon="8.483978303553151"><ele>288.75</ele><time>2026-04-19T15:13:19.015Z</time></trkpt><trkpt lat="45.67653584797056" lon="8.48405616039954"><ele>288.5</ele><time>2026-04-19T15:13:20.015Z</time></trkpt><trkpt lat="45.67639348124147" lon="8.484122068202751"><ele>288.25</ele><time>2026-04-19T15:13:21.015Z</time></trkpt><trkpt lat="45.676259237419835" lon="8.484161757438224"><ele>288.0</ele><time>2026-04-19T15:13:22.015Z</time></trkpt><trkpt lat="45.67614172571325" lon="8.484142762635395"><ele>287.75</ele><time>2026-04-19T15:13:23.015Z</time></trkpt><trkpt lat="45.676024800111584" lon="8.484109704174426"><ele>287.5</ele><time>2026-04-19T15:13:24.015Z</time></trkpt><trkpt lat="45.67591712039873" lon="8.484064286468541"><ele>287.25</ele><time>2026-04-19T15:13:25.015Z</time></trkpt><trkpt lat="45.675822838170944" lon="8.483984435587931"><ele>287.0</ele><time>2026-04-19T15:13:26.015Z</time></trkpt><trkpt lat="45.675739072784815" lon="8.483881633367874"><ele>286.75</ele><time>2026-04-19T15:13:27.015Z</time></trkpt><trkpt lat="45.675663613709254" lon="8.483736902661335"><ele>286.5</ele><time>2026-04-19T15:13:28.016Z</time></trkpt><trkpt lat="45.675573320376074" lon="8.483593816340226"><ele>286.25</ele><time>2026-04-19T15:13:29.016Z</time></trkpt><trkpt lat="45.675462677716986" lon="8.483484626145984"><ele>286.0</ele><time>2026-04-19T15:13:30.016Z</time></trkpt><trkpt lat="45.67533196097352" lon="8.483430102079499"><ele>286.0</ele><time>2026-04-19T15:13:31.016Z</time></trkpt><trkpt lat="45.67519599752961" lon="8.483425727027326"><ele>286.0</ele><time>2026-04-19T15:13:32.016Z</time></trkpt><trkpt lat="45.67506328887643" lon="8.483462602990379"><ele>286.0</ele><time>2026-04-19T15:13:33.016Z</time></trkpt><trkpt lat="45.67494162836376" lon="8.4835452537988"><ele>286.0</ele><time>2026-04-19T15:13:34.016Z</time></trkpt><trkpt lat="45.674838283328036" lon="8.483655752366642"><ele>286.0</ele><time>2026-04-19T15:13:35.016Z</time></trkpt><trkpt lat="45.67476000514193" lon="8.483798120316871"><ele>286.0</ele><time>2026-04-19T15:13:36.016Z</time></trkpt><trkpt lat="45.67471297319909" lon="8.48397341760548"><ele>286.0</ele><time>2026-04-19T15:13:37.016Z</time></trkpt><trkpt lat="45.6746857618885" lon="8.484149890413661"><ele>286.0</ele><time>2026-04-19T15:13:38.016Z</time></trkpt><trkpt lat="45.67469568567631" lon="8.484336404338544"><ele>286.0</ele><time>2026-04-19T15:13:39.016Z</time></trkpt><trkpt lat="45.67473058143149" lon="8.484519872207613"><ele>286.0</ele><time>2026-04-19T15:13:40.016Z</time></trkpt><trkpt lat="45.67478660235444" lon="8.484695306225671"><ele>286.0</ele><time>2026-04-19T15:13:41.016Z</time></trkpt><trkpt lat="45.67485286001553" lon="8.484855415644482"><ele>286.0</ele><time>2026-04-19T15:13:42.016Z</time></trkpt><trkpt lat="45.674899078288156" lon="8.485012176290502"><ele>286.25</ele><time>2026-04-19T15:13:43.016Z</time></trkpt><trkpt lat="45.674901967583416" lon="8.485165987880343"><ele>286.5</ele><time>2026-04-19T15:13:44.016Z</time></trkpt><trkpt lat="45.67479981645854" lon="8.485428737236838"><ele>286.75</ele><time>2026-04-19T15:13:46.016Z</time></trkpt><trkpt lat="45.67469767167856" lon="8.485517889019448"><ele>287.0</ele><time>2026-04-19T15:13:47.016Z</time></trkpt><trkpt lat="45.674580291037685" lon="8.485590821441045"><ele>287.0</ele><time>2026-04-19T15:13:48.016Z</time></trkpt><trkpt lat="45.67445009201729" lon="8.485659307858665"><ele>287.0</ele><time>2026-04-19T15:13:49.016Z</time></trkpt><trkpt lat="45.674314946557146" lon="8.48573035779288"><ele>287.0</ele><time>2026-04-19T15:13:50.016Z</time></trkpt><trkpt lat="45.674174719651816" lon="8.485802692306272"><ele>287.0</ele><time>2026-04-19T15:13:51.016Z</time></trkpt><trkpt lat="45.67403737167176" lon="8.485874443924978"><ele>287.0</ele><time>2026-04-19T15:13:52.016Z</time></trkpt><trkpt lat="45.67389154816477" lon="8.48595794469577"><ele>287.0</ele><time>2026-04-19T15:13:53.016Z</time></trkpt><trkpt lat="45.673741097730954" lon="8.486038085271725"><ele>287.0</ele><time>2026-04-19T15:13:54.016Z</time></trkpt><trkpt lat="45.67358655275464" lon="8.486116845316905"><ele>287.0</ele><time>2026-04-19T15:13:55.016Z</time></trkpt><trkpt lat="45.673431451296274" lon="8.486196931988625"><ele>287.0</ele><time>2026-04-19T15:13:56.016Z</time></trkpt><trkpt lat="45.67327447208017" lon="8.486283112174078"><ele>287.0</ele><time>2026-04-19T15:13:57.016Z</time></trkpt><trkpt lat="45.6731143931379" lon="8.486370382880375"><ele>287.0</ele><time>2026-04-19T15:13:58.016Z</time></trkpt><trkpt lat="45.67295513194629" lon="8.486459330023875"><ele>287.0</ele><time>2026-04-19T15:13:59.016Z</time></trkpt><trkpt lat="45.67279976640692" lon="8.4865448123702"><ele>287.0</ele><time>2026-04-19T15:14:00.016Z</time></trkpt><trkpt lat="45.67265283414358" lon="8.486626762654957"><ele>287.0</ele><time>2026-04-19T15:14:01.017Z</time></trkpt><trkpt lat="45.67251807592806" lon="8.486720107423293"><ele>287.0</ele><time>2026-04-19T15:14:02.017Z</time></trkpt><trkpt lat="45.67239245032917" lon="8.486842122216542"><ele>287.0</ele><time>2026-04-19T15:14:03.017Z</time></trkpt><trkpt lat="45.67228819515118" lon="8.486986838710571"><ele>287.0</ele><time>2026-04-19T15:14:04.017Z</time></trkpt><trkpt lat="45.67220528623569" lon="8.487165358551842"><ele>286.6666666666667</ele><time>2026-04-19T15:14:05.017Z</time></trkpt><trkpt lat="45.672150735842294" lon="8.487373364263306"><ele>286.3333333333333</ele><time>2026-04-19T15:14:06.017Z</time></trkpt><trkpt lat="45.67210296981634" lon="8.48758340907126"><ele>286.0</ele><time>2026-04-19T15:14:07.017Z</time></trkpt><trkpt lat="45.6720450264574" lon="8.487789078426198"><ele>286.0</ele><time>2026-04-19T15:14:08.017Z</time></trkpt><trkpt lat="45.67196747206239" lon="8.487983855658214"><ele>286.0</ele><time>2026-04-19T15:14:09.017Z</time></trkpt><trkpt lat="45.671864972248464" lon="8.488157025487501"><ele>286.0</ele><time>2026-04-19T15:14:10.017Z</time></trkpt><trkpt lat="45.67174121494912" lon="8.4883035701225"><ele>286.0</ele><time>2026-04-19T15:14:11.017Z</time></trkpt><trkpt lat="45.671592779868575" lon="8.488421507797495"><ele>286.0</ele><time>2026-04-19T15:14:12.017Z</time></trkpt><trkpt lat="45.671438159075215" lon="8.488522671098517"><ele>286.0</ele><time>2026-04-19T15:14:13.017Z</time></trkpt><trkpt lat="45.671280503410706" lon="8.488619996559542"><ele>286.0</ele><time>2026-04-19T15:14:14.017Z</time></trkpt><trkpt lat="45.67112181199301" lon="8.488716877921128"><ele>286.0</ele><time>2026-04-19T15:14:15.017Z</time></trkpt><trkpt lat="45.670959503373034" lon="8.48881935701585"><ele>286.0</ele><time>2026-04-19T15:14:16.017Z</time></trkpt><trkpt lat="45.67080583609225" lon="8.48892200956274"><ele>285.66666666666663</ele><time>2026-04-19T15:14:17.017Z</time></trkpt><trkpt lat="45.67064388327145" lon="8.489027045398982"><ele>285.3333333333333</ele><time>2026-04-19T15:14:18.017Z</time></trkpt><trkpt lat="45.67047351001684" lon="8.48913281783017"><ele>285.0</ele><time>2026-04-19T15:14:19.017Z</time></trkpt><trkpt lat="45.67031110723618" lon="8.489249718416591"><ele>284.3333333333333</ele><time>2026-04-19T15:14:20.017Z</time></trkpt><trkpt lat="45.67014642667814" lon="8.489366890755347"><ele>283.66666666666663</ele><time>2026-04-19T15:14:21.017Z</time></trkpt><trkpt lat="45.66997743500555" lon="8.489468482499193"><ele>283.0</ele><time>2026-04-19T15:14:22.017Z</time></trkpt><trkpt lat="45.669811469595" lon="8.489565511334638"><ele>283.0</ele><time>2026-04-19T15:14:23.017Z</time></trkpt><trkpt lat="45.66963667404403" lon="8.48965765085796"><ele>283.0</ele><time>2026-04-19T15:14:24.017Z</time></trkpt><trkpt lat="45.66945460265707" lon="8.489752086929153"><ele>283.0</ele><time>2026-04-19T15:14:25.017Z</time></trkpt><trkpt lat="45.66927433243603" lon="8.48985113493311"><ele>283.0</ele><time>2026-04-19T15:14:26.017Z</time></trkpt><trkpt lat="45.66909927813768" lon="8.48994260927658"><ele>283.0</ele><time>2026-04-19T15:14:27.017Z</time></trkpt><trkpt lat="45.66892347697563" lon="8.490030629012939"><ele>283.0</ele><time>2026-04-19T15:14:28.017Z</time></trkpt><trkpt lat="45.6687414142528" lon="8.49012175096815"><ele>282.66666666666663</ele><time>2026-04-19T15:14:29.017Z</time></trkpt><trkpt lat="45.66856003096197" lon="8.490210928088072"><ele>282.3333333333333</ele><time>2026-04-19T15:14:30.017Z</time></trkpt><trkpt lat="45.66837765595435" lon="8.490287034751626"><ele>282.0</ele><time>2026-04-19T15:14:31.017Z</time></trkpt><trkpt lat="45.668197576856016" lon="8.490361981082534"><ele>281.6666666666667</ele><time>2026-04-19T15:14:32.017Z</time></trkpt><trkpt lat="45.66801611570322" lon="8.49044290503278"><ele>281.33333333333337</ele><time>2026-04-19T15:14:33.017Z</time></trkpt><trkpt lat="45.66783164961149" lon="8.490511126799502"><ele>281.0</ele><time>2026-04-19T15:14:34.018Z</time></trkpt><trkpt lat="45.66764390003284" lon="8.49057849148873"><ele>282.0</ele><time>2026-04-19T15:14:35.018Z</time></trkpt><trkpt lat="45.667451867274124" lon="8.490633099317652"><ele>283.0</ele><time>2026-04-19T15:14:36.018Z</time></trkpt><trkpt lat="45.66726070686097" lon="8.490685892128859"><ele>284.0</ele><time>2026-04-19T15:14:37.018Z</time></trkpt><trkpt lat="45.66706963930741" lon="8.49073690957076"><ele>283.33333333333337</ele><time>2026-04-19T15:14:38.018Z</time></trkpt><trkpt lat="45.66687605759157" lon="8.490793867955718"><ele>282.6666666666667</ele><time>2026-04-19T15:14:39.018Z</time></trkpt><trkpt lat="45.66668366097251" lon="8.490852071051712"><ele>282.0</ele><time>2026-04-19T15:14:40.018Z</time></trkpt><trkpt lat="45.66648888020702" lon="8.490911882749463"><ele>282.0</ele><time>2026-04-19T15:14:41.018Z</time></trkpt><trkpt lat="45.66629415410351" lon="8.49097090578715"><ele>282.0</ele><time>2026-04-19T15:14:42.018Z</time></trkpt><trkpt lat="45.66609896506955" lon="8.491026086396504"><ele>282.0</ele><time>2026-04-19T15:14:43.018Z</time></trkpt><trkpt lat="45.66590254111548" lon="8.491082840819193"><ele>281.3333333333333</ele><time>2026-04-19T15:14:44.018Z</time></trkpt><trkpt lat="45.6657082132006" lon="8.491149574410958"><ele>280.66666666666663</ele><time>2026-04-19T15:14:45.018Z</time></trkpt><trkpt lat="45.665513816489714" lon="8.491226945694306"><ele>280.0</ele><time>2026-04-19T15:14:46.018Z</time></trkpt><trkpt lat="45.66532162047863" lon="8.491320497752593"><ele>280.3333333333333</ele><time>2026-04-19T15:14:47.018Z</time></trkpt><trkpt lat="45.665133590014264" lon="8.491433620579226"><ele>280.6666666666667</ele><time>2026-04-19T15:14:48.018Z</time></trkpt><trkpt lat="45.664949685928235" lon="8.491558233470814"><ele>281.0</ele><time>2026-04-19T15:14:49.018Z</time></trkpt><trkpt lat="45.664767796165755" lon="8.491686044655166"><ele>281.0</ele><time>2026-04-19T15:14:50.018Z</time></trkpt><trkpt lat="45.664587166503956" lon="8.49181890366059"><ele>281.0</ele><time>2026-04-19T15:14:51.018Z</time></trkpt><trkpt lat="45.66440837716616" lon="8.491953138394454"><ele>281.0</ele><time>2026-04-19T15:14:52.018Z</time></trkpt><trkpt lat="45.6642315056648" lon="8.49209300805499"><ele>280.6666666666667</ele><time>2026-04-19T15:14:53.018Z</time></trkpt><trkpt lat="45.664051664092895" lon="8.492233706991827"><ele>280.3333333333333</ele><time>2026-04-19T15:14:54.018Z</time></trkpt><trkpt lat="45.66387196773177" lon="8.49237648471469"><ele>280.0</ele><time>2026-04-19T15:14:55.018Z</time></trkpt><trkpt lat="45.663684625274925" lon="8.492502118555775"><ele>280.3333333333333</ele><time>2026-04-19T15:14:56.018Z</time></trkpt><trkpt lat="45.663491114023984" lon="8.492604443898939"><ele>280.6666666666667</ele><time>2026-04-19T15:14:57.018Z</time></trkpt><trkpt lat="45.663293714515646" lon="8.49267477361584"><ele>281.0</ele><time>2026-04-19T15:14:58.014Z</time></trkpt><trkpt lat="45.66309705669409" lon="8.492738095025743"><ele>281.0</ele><time>2026-04-19T15:14:59.014Z</time></trkpt><trkpt lat="45.66289966699926" lon="8.492796959912162"><ele>281.0</ele><time>2026-04-19T15:15:00.014Z</time></trkpt><trkpt lat="45.66270066446505" lon="8.492857691699488"><ele>281.0</ele><time>2026-04-19T15:15:01.014Z</time></trkpt><trkpt lat="45.6625012736236" lon="8.492922864788035"><ele>280.33333333333337</ele><time>2026-04-19T15:15:02.014Z</time></trkpt><trkpt lat="45.662301042741774" lon="8.492984785336406"><ele>279.6666666666667</ele><time>2026-04-19T15:15:03.014Z</time></trkpt><trkpt lat="45.662099636249614" lon="8.493046529211489"><ele>279.0</ele><time>2026-04-19T15:15:04.014Z</time></trkpt><trkpt lat="45.66189844385855" lon="8.493109265176168"><ele>277.6666666666667</ele><time>2026-04-19T15:15:05.014Z</time></trkpt><trkpt lat="45.6616993390518" lon="8.49317447221092"><ele>276.33333333333337</ele><time>2026-04-19T15:15:06.014Z</time></trkpt><trkpt lat="45.66149890452304" lon="8.493236560657078"><ele>275.0</ele><time>2026-04-19T15:15:07.014Z</time></trkpt><trkpt lat="45.66130097801293" lon="8.493298545495277"><ele>275.33333333333337</ele><time>2026-04-19T15:15:08.014Z</time></trkpt><trkpt lat="45.661114181973964" lon="8.493357705740763"><ele>275.6666666666667</ele><time>2026-04-19T15:15:09.014Z</time></trkpt><trkpt lat="45.66093816936986" lon="8.493411571590807"><ele>276.0</ele><time>2026-04-19T15:15:10.014Z</time></trkpt><trkpt lat="45.660771160712066" lon="8.493465066207456"><ele>276.0</ele><time>2026-04-19T15:15:11.014Z</time></trkpt><trkpt lat="45.66061497546209" lon="8.493514082586033"><ele>276.0</ele><time>2026-04-19T15:15:12.014Z</time></trkpt><trkpt lat="45.660470550055706" lon="8.4935626790804"><ele>276.0</ele><time>2026-04-19T15:15:13.014Z</time></trkpt><trkpt lat="45.66033910886908" lon="8.493606800807484"><ele>276.0</ele><time>2026-04-19T15:15:14.014Z</time></trkpt><trkpt lat="45.660224039393356" lon="8.493648638217897"><ele>276.0</ele><time>2026-04-19T15:15:15.014Z</time></trkpt><trkpt lat="45.660123391830325" lon="8.493684147367166"><ele>276.0</ele><time>2026-04-19T15:15:16.014Z</time></trkpt><trkpt lat="45.660045420083044" lon="8.493724644281647"><ele>276.0</ele><time>2026-04-19T15:15:17.014Z</time></trkpt><trkpt lat="45.65998726214061" lon="8.493776763396571"><ele>276.0</ele><time>2026-04-19T15:15:18.014Z</time></trkpt><trkpt lat="45.659948520106234" lon="8.49392934821695"><ele>276.0</ele><time>2026-04-19T15:15:20.014Z</time></trkpt><trkpt lat="45.65997171103645" lon="8.494031934989238"><ele>276.0</ele><time>2026-04-19T15:15:21.014Z</time></trkpt><trkpt lat="45.66000811488103" lon="8.494151377364869"><ele>276.0</ele><time>2026-04-19T15:15:22.014Z</time></trkpt><trkpt lat="45.66003512278603" lon="8.4943005609104"><ele>276.0</ele><time>2026-04-19T15:15:23.014Z</time></trkpt><trkpt lat="45.660056670909015" lon="8.49447240837912"><ele>276.0</ele><time>2026-04-19T15:15:24.014Z</time></trkpt><trkpt lat="45.660080954334134" lon="8.4946623606835"><ele>276.0</ele><time>2026-04-19T15:15:25.014Z</time></trkpt><trkpt lat="45.660105907299176" lon="8.494869070222425"><ele>276.0</ele><time>2026-04-19T15:15:26.014Z</time></trkpt><trkpt lat="45.66013121582661" lon="8.495075543830136"><ele>276.0</ele><time>2026-04-19T15:15:27.014Z</time></trkpt><trkpt lat="45.66016048983551" lon="8.495294020064797"><ele>276.0</ele><time>2026-04-19T15:15:28.014Z</time></trkpt><trkpt lat="45.66019991922188" lon="8.49552137883919"><ele>276.3333333333333</ele><time>2026-04-19T15:15:29.014Z</time></trkpt><trkpt lat="45.6602538140095" lon="8.495746156420733"><ele>276.66666666666663</ele><time>2026-04-19T15:15:30.014Z</time></trkpt><trkpt lat="45.660309119727316" lon="8.495947773511112"><ele>277.0</ele><time>2026-04-19T15:15:31.014Z</time></trkpt><trkpt lat="45.660363144238815" lon="8.496129306438853"><ele>276.5</ele><time>2026-04-19T15:15:32.014Z</time></trkpt><trkpt lat="45.66040511316831" lon="8.496278054703811"><ele>276.0</ele><time>2026-04-19T15:15:33.014Z</time></trkpt><trkpt lat="45.660429859709225" lon="8.496407238325189"><ele>275.5</ele><time>2026-04-19T15:15:34.014Z</time></trkpt><trkpt lat="45.660444646155376" lon="8.496529202546775"><ele>275.0</ele><time>2026-04-19T15:15:35.014Z</time></trkpt><trkpt lat="45.6604405137215" lon="8.496643992601133"><ele>274.5</ele><time>2026-04-19T15:15:36.014Z</time></trkpt><trkpt lat="45.66040271017354" lon="8.4967387140822"><ele>274.0</ele><time>2026-04-19T15:15:37.015Z</time></trkpt><trkpt lat="45.6603357053" lon="8.496810836700723"><ele>274.0</ele><time>2026-04-19T15:15:38.015Z</time></trkpt><trkpt lat="45.660248387409005" lon="8.496871182550533"><ele>274.0</ele><time>2026-04-19T15:15:39.015Z</time></trkpt><trkpt lat="45.66014798736154" lon="8.496929965293763"><ele>274.0</ele><time>2026-04-19T15:15:40.015Z</time></trkpt><trkpt lat="45.66004575620142" lon="8.496999581228222"><ele>274.0</ele><time>2026-04-19T15:15:41.015Z</time></trkpt><trkpt lat="45.65993324952586" lon="8.4970735667272"><ele>274.0</ele><time>2026-04-19T15:15:42.015Z</time></trkpt><trkpt lat="45.659827010380376" lon="8.497147897595214"><ele>274.0</ele><time>2026-04-19T15:15:43.015Z</time></trkpt><trkpt lat="45.659714560631045" lon="8.497242298867679"><ele>274.0</ele><time>2026-04-19T15:15:44.015Z</time></trkpt><trkpt lat="45.659586375307065" lon="8.49735928857961"><ele>274.0</ele><time>2026-04-19T15:15:45.015Z</time></trkpt><trkpt lat="45.65943687082335" lon="8.49747249810758"><ele>274.3333333333333</ele><time>2026-04-19T15:15:46.015Z</time></trkpt><trkpt lat="45.659299047145915" lon="8.49760727056442"><ele>274.6666666666667</ele><time>2026-04-19T15:15:47.015Z</time></trkpt><trkpt lat="45.65915285747115" lon="8.497737770018102"><ele>275.0</ele><time>2026-04-19T15:15:48.015Z</time></trkpt><trkpt lat="45.659013634768876" lon="8.497877047527655"><ele>274.6666666666667</ele><time>2026-04-19T15:15:49.015Z</time></trkpt><trkpt lat="45.658883264675644" lon="8.498036305853882"><ele>274.3333333333333</ele><time>2026-04-19T15:15:50.015Z</time></trkpt><trkpt lat="45.658743979552426" lon="8.498187479752753"><ele>274.0</ele><time>2026-04-19T15:15:51.015Z</time></trkpt><trkpt lat="45.65860500012495" lon="8.498345639153424"><ele>274.0</ele><time>2026-04-19T15:15:52.015Z</time></trkpt><trkpt lat="45.658462272349674" lon="8.49850090783241"><ele>274.0</ele><time>2026-04-19T15:15:53.015Z</time></trkpt><trkpt lat="45.658313703681365" lon="8.498651890790818"><ele>274.0</ele><time>2026-04-19T15:15:54.015Z</time></trkpt><trkpt lat="45.65816304760654" lon="8.498809065694935"><ele>274.0</ele><time>2026-04-19T15:15:55.015Z</time></trkpt><trkpt lat="45.658013291027764" lon="8.498968398455382"><ele>274.0</ele><time>2026-04-19T15:15:56.015Z</time></trkpt><trkpt lat="45.6578674663863" lon="8.499131169977638"><ele>274.0</ele><time>2026-04-19T15:15:57.015Z</time></trkpt><trkpt lat="45.65772617748174" lon="8.499297226432383"><ele>274.0</ele><time>2026-04-19T15:15:58.015Z</time></trkpt><trkpt lat="45.657585047867705" lon="8.499455808026566"><ele>274.0</ele><time>2026-04-19T15:15:59.015Z</time></trkpt><trkpt lat="45.65744617351094" lon="8.499607244269878"><ele>274.0</ele><time>2026-04-19T15:16:00.015Z</time></trkpt><trkpt lat="45.65731279854003" lon="8.499746714107221"><ele>274.0</ele><time>2026-04-19T15:16:01.015Z</time></trkpt><trkpt lat="45.65718237636354" lon="8.49987071864672"><ele>274.0</ele><time>2026-04-19T15:16:02.015Z</time></trkpt><trkpt lat="45.65704314057913" lon="8.499969689325043"><ele>274.0</ele><time>2026-04-19T15:16:03.015Z</time></trkpt><trkpt lat="45.65689531282487" lon="8.500050635898901"><ele>273.0</ele><time>2026-04-19T15:16:04.015Z</time></trkpt><trkpt lat="45.65674174154518" lon="8.500120305571267"><ele>272.0</ele><time>2026-04-19T15:16:05.015Z</time></trkpt><trkpt lat="45.656585352584386" lon="8.500192031792608"><ele>271.0</ele><time>2026-04-19T15:16:06.015Z</time></trkpt><trkpt lat="45.65642723858895" lon="8.500258522056324"><ele>271.0</ele><time>2026-04-19T15:16:07.015Z</time></trkpt><trkpt lat="45.65629140938081" lon="8.500313340900787"><ele>271.0</ele><time>2026-04-19T15:16:08.015Z</time></trkpt><trkpt lat="45.65617610780302" lon="8.500369251137355"><ele>271.0</ele><time>2026-04-19T15:16:09.015Z</time></trkpt><trkpt lat="45.65607940042612" lon="8.500406861798167"><ele>271.0</ele><time>2026-04-19T15:16:10.016Z</time></trkpt><trkpt lat="45.65599983023132" lon="8.500437326787203"><ele>271.0</ele><time>2026-04-19T15:16:11.016Z</time></trkpt><trkpt lat="45.65592492679709" lon="8.500472822297711"><ele>270.8</ele><time>2026-04-19T15:16:12.016Z</time></trkpt><trkpt lat="45.65584185924376" lon="8.500506687141321"><ele>270.6</ele><time>2026-04-19T15:16:13.016Z</time></trkpt><trkpt lat="45.655745448538724" lon="8.500541986082968"><ele>270.4</ele><time>2026-04-19T15:16:14.016Z</time></trkpt><trkpt lat="45.65564200980928" lon="8.500581902152868"><ele>270.2</ele><time>2026-04-19T15:16:15.016Z</time></trkpt><trkpt lat="45.655528652247945" lon="8.500626912252853"><ele>270.0</ele><time>2026-04-19T15:16:16.016Z</time></trkpt><trkpt lat="45.655407195560876" lon="8.500679509978827"><ele>270.25</ele><time>2026-04-19T15:16:17.016Z</time></trkpt><trkpt lat="45.65527989721704" lon="8.500749227129747"><ele>270.5</ele><time>2026-04-19T15:16:18.016Z</time></trkpt><trkpt lat="45.6551468085017" lon="8.500835555600041"><ele>270.75</ele><time>2026-04-19T15:16:19.016Z</time></trkpt><trkpt lat="45.65500930938607" lon="8.500933744394914"><ele>271.0</ele><time>2026-04-19T15:16:20.016Z</time></trkpt><trkpt lat="45.65487652846848" lon="8.501046181212253"><ele>271.0</ele><time>2026-04-19T15:16:21.016Z</time></trkpt><trkpt lat="45.654747386087145" lon="8.5011715040349"><ele>271.0</ele><time>2026-04-19T15:16:22.016Z</time></trkpt><trkpt lat="45.65461982260007" lon="8.501302523851923"><ele>271.0</ele><time>2026-04-19T15:16:23.016Z</time></trkpt><trkpt lat="45.65448960142176" lon="8.501443537351221"><ele>271.0</ele><time>2026-04-19T15:16:24.016Z</time></trkpt><trkpt lat="45.654359368242275" lon="8.501586573201868"><ele>271.0</ele><time>2026-04-19T15:16:25.016Z</time></trkpt><trkpt lat="45.65423294326879" lon="8.5017223182273"><ele>271.0</ele><time>2026-04-19T15:16:26.016Z</time></trkpt><trkpt lat="45.65411567460624" lon="8.501857988522254"><ele>271.0</ele><time>2026-04-19T15:16:27.016Z</time></trkpt><trkpt lat="45.65401035405134" lon="8.50199194881345"><ele>271.0</ele><time>2026-04-19T15:16:28.016Z</time></trkpt><trkpt lat="45.653935589852196" lon="8.502147487690355"><ele>271.0</ele><time>2026-04-19T15:16:29.016Z</time></trkpt><trkpt lat="45.653901860282794" lon="8.502317695984729"><ele>271.0</ele><time>2026-04-19T15:16:30.016Z</time></trkpt><trkpt lat="45.65390251915747" lon="8.502493624985988"><ele>271.0</ele><time>2026-04-19T15:16:31.016Z</time></trkpt><trkpt lat="45.65392177377237" lon="8.502678647446928"><ele>271.0</ele><time>2026-04-19T15:16:32.016Z</time></trkpt><trkpt lat="45.653947057599396" lon="8.502873699699112"><ele>271.0</ele><time>2026-04-19T15:16:33.016Z</time></trkpt><trkpt lat="45.653963416824766" lon="8.503069210458772"><ele>271.0</ele><time>2026-04-19T15:16:34.016Z</time></trkpt><trkpt lat="45.65397813826746" lon="8.503245200169939"><ele>271.5</ele><time>2026-04-19T15:16:35.016Z</time></trkpt><trkpt lat="45.65398656017371" lon="8.503414024179367"><ele>272.0</ele><time>2026-04-19T15:16:36.016Z</time></trkpt><trkpt lat="45.6539773308345" lon="8.503590022731542"><ele>272.5</ele><time>2026-04-19T15:16:37.016Z</time></trkpt><trkpt lat="45.65395082825971" lon="8.5037621812533"><ele>273.0</ele><time>2026-04-19T15:16:38.016Z</time></trkpt><trkpt lat="45.65390079270911" lon="8.503940793603968"><ele>272.0</ele><time>2026-04-19T15:16:39.016Z</time></trkpt><trkpt lat="45.65381769781299" lon="8.504106028739852"><ele>271.0</ele><time>2026-04-19T15:16:40.016Z</time></trkpt><trkpt lat="45.65372376836476" lon="8.504271724172565"><ele>270.0</ele><time>2026-04-19T15:16:41.016Z</time></trkpt><trkpt lat="45.65363148510545" lon="8.50444352786516"><ele>269.0</ele><time>2026-04-19T15:16:42.016Z</time></trkpt><trkpt lat="45.65353952821678" lon="8.504618326602323"><ele>269.0</ele><time>2026-04-19T15:16:43.017Z</time></trkpt><trkpt lat="45.65345271807052" lon="8.504788446850995"><ele>269.0</ele><time>2026-04-19T15:16:44.017Z</time></trkpt><trkpt lat="45.65337398405207" lon="8.504950896629177"><ele>269.0</ele><time>2026-04-19T15:16:45.017Z</time></trkpt><trkpt lat="45.653291901431146" lon="8.505097591713907"><ele>269.0</ele><time>2026-04-19T15:16:46.017Z</time></trkpt><trkpt lat="45.653204953339134" lon="8.505231063278128"><ele>269.0</ele><time>2026-04-19T15:16:47.017Z</time></trkpt><trkpt lat="45.653095516956505" lon="8.505334899576672"><ele>269.0</ele><time>2026-04-19T15:16:48.017Z</time></trkpt><trkpt lat="45.65297344262736" lon="8.505409584829641"><ele>269.0</ele><time>2026-04-19T15:16:49.017Z</time></trkpt><trkpt lat="45.652845573444594" lon="8.505483041830425"><ele>269.0</ele><time>2026-04-19T15:16:50.017Z</time></trkpt><trkpt lat="45.6527242318671" lon="8.505567894062832"><ele>268.75</ele><time>2026-04-19T15:16:51.017Z</time></trkpt><trkpt lat="45.65260775647095" lon="8.505655794380367"><ele>268.5</ele><time>2026-04-19T15:16:52.017Z</time></trkpt><trkpt lat="45.65249725041311" lon="8.505750340374927"><ele>268.25</ele><time>2026-04-19T15:16:53.017Z</time></trkpt><trkpt lat="45.65239477710957" lon="8.505860074211963"><ele>268.0</ele><time>2026-04-19T15:16:54.017Z</time></trkpt><trkpt lat="45.65230101017095" lon="8.505974896391404"><ele>268.0</ele><time>2026-04-19T15:16:55.017Z</time></trkpt><trkpt lat="45.65221219255342" lon="8.506089740140665"><ele>268.0</ele><time>2026-04-19T15:16:56.017Z</time></trkpt><trkpt lat="45.652127117548055" lon="8.506203956531401"><ele>268.0</ele><time>2026-04-19T15:16:57.017Z</time></trkpt><trkpt lat="45.65204086167642" lon="8.506320429285713"><ele>268.0</ele><time>2026-04-19T15:16:58.017Z</time></trkpt><trkpt lat="45.65195016330777" lon="8.506430608929968"><ele>267.75</ele><time>2026-04-19T15:16:59.017Z</time></trkpt><trkpt lat="45.651851429210815" lon="8.506535125526074"><ele>267.5</ele><time>2026-04-19T15:17:00.017Z</time></trkpt><trkpt lat="45.651752974615455" lon="8.506644209959523"><ele>267.25</ele><time>2026-04-19T15:17:01.017Z</time></trkpt><trkpt lat="45.65165310289834" lon="8.506750675148096"><ele>267.0</ele><time>2026-04-19T15:17:02.017Z</time></trkpt><trkpt lat="45.65155258513921" lon="8.506852640297819"><ele>267.0</ele><time>2026-04-19T15:17:03.017Z</time></trkpt><trkpt lat="45.65144187984145" lon="8.50695199478361"><ele>267.0</ele><time>2026-04-19T15:17:04.014Z</time></trkpt><trkpt lat="45.6513342006604" lon="8.507055021378216"><ele>267.0</ele><time>2026-04-19T15:17:05.014Z</time></trkpt><trkpt lat="45.651236555394384" lon="8.50716052556948"><ele>267.0</ele><time>2026-04-19T15:17:06.014Z</time></trkpt><trkpt lat="45.6511351517647" lon="8.507263886866202"><ele>267.0</ele><time>2026-04-19T15:17:07.014Z</time></trkpt><trkpt lat="45.65103101855592" lon="8.507364832010142"><ele>267.0</ele><time>2026-04-19T15:17:08.014Z</time></trkpt><trkpt lat="45.65091969657644" lon="8.507459437314195"><ele>267.0</ele><time>2026-04-19T15:17:09.014Z</time></trkpt><trkpt lat="45.65080840940393" lon="8.507560627089706"><ele>267.0</ele><time>2026-04-19T15:17:10.014Z</time></trkpt><trkpt lat="45.650700464339224" lon="8.507664682738309"><ele>267.0</ele><time>2026-04-19T15:17:11.014Z</time></trkpt><trkpt lat="45.650592225048264" lon="8.507764111945848"><ele>267.0</ele><time>2026-04-19T15:17:12.014Z</time></trkpt><trkpt lat="45.6504811768981" lon="8.507864333205887"><ele>267.0</ele><time>2026-04-19T15:17:13.014Z</time></trkpt><trkpt lat="45.65037074274943" lon="8.507958945242441"><ele>267.0</ele><time>2026-04-19T15:17:14.014Z</time></trkpt><trkpt lat="45.6502625726915" lon="8.508057982254288"><ele>267.25</ele><time>2026-04-19T15:17:15.014Z</time></trkpt><trkpt lat="45.65015946460459" lon="8.50816065445416"><ele>267.5</ele><time>2026-04-19T15:17:16.014Z</time></trkpt><trkpt lat="45.65005784524206" lon="8.508254230134819"><ele>267.75</ele><time>2026-04-19T15:17:17.014Z</time></trkpt><trkpt lat="45.6499635383854" lon="8.508342364136183"><ele>268.0</ele><time>2026-04-19T15:17:18.014Z</time></trkpt><trkpt lat="45.64987538224611" lon="8.508426678892576"><ele>268.0</ele><time>2026-04-19T15:17:19.014Z</time></trkpt><trkpt lat="45.64979663235838" lon="8.508506697537872"><ele>268.0</ele><time>2026-04-19T15:17:20.014Z</time></trkpt><trkpt lat="45.64972378728783" lon="8.508566756851842"><ele>268.0</ele><time>2026-04-19T15:17:21.014Z</time></trkpt><trkpt lat="45.6496483385923" lon="8.508640769215075"><ele>268.0</ele><time>2026-04-19T15:17:23.014Z</time></trkpt><trkpt lat="45.64962047952747" lon="8.508750590213634"><ele>268.0</ele><time>2026-04-19T15:17:31.014Z</time></trkpt><trkpt lat="45.649671619672084" lon="8.508868676595057"><ele>268.16666666666663</ele><time>2026-04-19T15:17:33.014Z</time></trkpt><trkpt lat="45.649715224329455" lon="8.50894494928838"><ele>268.3333333333333</ele><time>2026-04-19T15:17:34.014Z</time></trkpt><trkpt lat="45.64974894614045" lon="8.509042323566211"><ele>268.5</ele><time>2026-04-19T15:17:35.014Z</time></trkpt><trkpt lat="45.64977561866407" lon="8.509149096022648"><ele>268.6666666666667</ele><time>2026-04-19T15:17:36.014Z</time></trkpt><trkpt lat="45.64980140269302" lon="8.50927486308694"><ele>268.83333333333337</ele><time>2026-04-19T15:17:37.015Z</time></trkpt><trkpt lat="45.64982347634995" lon="8.509399965332156"><ele>269.0</ele><time>2026-04-19T15:17:38.015Z</time></trkpt><trkpt lat="45.649846478254474" lon="8.509538923255223"><ele>269.0</ele><time>2026-04-19T15:17:39.015Z</time></trkpt><trkpt lat="45.64987088844342" lon="8.509692017387117"><ele>269.0</ele><time>2026-04-19T15:17:40.015Z</time></trkpt><trkpt lat="45.649898648819736" lon="8.509852659591418"><ele>269.0</ele><time>2026-04-19T15:17:41.015Z</time></trkpt><trkpt lat="45.64992804799504" lon="8.509995979898314"><ele>269.0</ele><time>2026-04-19T15:17:42.015Z</time></trkpt><trkpt lat="45.64995140671255" lon="8.51012629905672"><ele>269.0</ele><time>2026-04-19T15:17:43.015Z</time></trkpt><trkpt lat="45.64997234260218" lon="8.51023426437213"><ele>269.0</ele><time>2026-04-19T15:17:44.015Z</time></trkpt><trkpt lat="45.64999116200836" lon="8.510322294234008"><ele>269.0</ele><time>2026-04-19T15:17:45.015Z</time></trkpt><trkpt lat="45.64998368817911" lon="8.510432852423655"><ele>269.0</ele><time>2026-04-19T15:17:47.015Z</time></trkpt><trkpt lat="45.64992095358898" lon="8.510475190419891"><ele>269.0</ele><time>2026-04-19T15:17:49.015Z</time></trkpt><trkpt lat="45.64984669650168" lon="8.51049345122167"><ele>269.0</ele><time>2026-04-19T15:17:50.015Z</time></trkpt><trkpt lat="45.64976365195953" lon="8.510521280040384"><ele>269.0</ele><time>2026-04-19T15:17:51.015Z</time></trkpt><trkpt lat="45.649677853520316" lon="8.510558569556993"><ele>269.2</ele><time>2026-04-19T15:17:52.015Z</time></trkpt><trkpt lat="45.64958083536812" lon="8.510601983978603"><ele>269.4</ele><time>2026-04-19T15:17:53.015Z</time></trkpt><trkpt lat="45.649474844680434" lon="8.510646656284742"><ele>269.6</ele><time>2026-04-19T15:17:54.015Z</time></trkpt><trkpt lat="45.64936089257406" lon="8.510689381947998"><ele>269.8</ele><time>2026-04-19T15:17:55.015Z</time></trkpt><trkpt lat="45.649249996183094" lon="8.510732088697742"><ele>270.0</ele><time>2026-04-19T15:17:56.015Z</time></trkpt><trkpt lat="45.64913147557331" lon="8.51077684069644"><ele>269.5</ele><time>2026-04-19T15:17:57.015Z</time></trkpt><trkpt lat="45.649019054681084" lon="8.510822876564738"><ele>269.0</ele><time>2026-04-19T15:17:58.015Z</time></trkpt><trkpt lat="45.64889935478908" lon="8.510874318720944"><ele>268.5</ele><time>2026-04-19T15:17:59.015Z</time></trkpt><trkpt lat="45.64877694971068" lon="8.510930517519867"><ele>268.0</ele><time>2026-04-19T15:18:00.015Z</time></trkpt><trkpt lat="45.64865144469814" lon="8.510978415518675"><ele>267.75</ele><time>2026-04-19T15:18:01.015Z</time></trkpt><trkpt lat="45.64852550016914" lon="8.511023921710565"><ele>267.5</ele><time>2026-04-19T15:18:02.015Z</time></trkpt><trkpt lat="45.64839787365892" lon="8.511073926158872"><ele>267.25</ele><time>2026-04-19T15:18:03.015Z</time></trkpt><trkpt lat="45.648270379494726" lon="8.51112631663131"><ele>267.0</ele><time>2026-04-19T15:18:04.015Z</time></trkpt><trkpt lat="45.648143162249795" lon="8.511175515520211"><ele>267.0</ele><time>2026-04-19T15:18:05.015Z</time></trkpt><trkpt lat="45.64801556395002" lon="8.511222042529859"><ele>267.0</ele><time>2026-04-19T15:18:06.015Z</time></trkpt><trkpt lat="45.64788530718624" lon="8.511274807437399"><ele>267.0</ele><time>2026-04-19T15:18:07.015Z</time></trkpt><trkpt lat="45.64776231017513" lon="8.51132154404128"><ele>267.0</ele><time>2026-04-19T15:18:08.015Z</time></trkpt><trkpt lat="45.64764015621856" lon="8.511361999277266"><ele>266.25</ele><time>2026-04-19T15:18:09.015Z</time></trkpt><trkpt lat="45.64751444353775" lon="8.511408212843813"><ele>265.5</ele><time>2026-04-19T15:18:10.016Z</time></trkpt><trkpt lat="45.6473874932734" lon="8.51145964655564"><ele>264.75</ele><time>2026-04-19T15:18:11.016Z</time></trkpt><trkpt lat="45.64725789954661" lon="8.511510233619171"><ele>264.0</ele><time>2026-04-19T15:18:12.016Z</time></trkpt><trkpt lat="45.647128743354095" lon="8.511562106244451"><ele>264.0</ele><time>2026-04-19T15:18:13.016Z</time></trkpt><trkpt lat="45.64700701653601" lon="8.511609539515195"><ele>264.0</ele><time>2026-04-19T15:18:14.016Z</time></trkpt><trkpt lat="45.64689719800462" lon="8.511655771266478"><ele>264.0</ele><time>2026-04-19T15:18:15.016Z</time></trkpt><trkpt lat="45.64679354735879" lon="8.5116944596034"><ele>264.0</ele><time>2026-04-19T15:18:16.016Z</time></trkpt><trkpt lat="45.64669611777008" lon="8.511721793631478"><ele>264.0</ele><time>2026-04-19T15:18:17.016Z</time></trkpt><trkpt lat="45.64660360588469" lon="8.51171979520724"><ele>264.3333333333333</ele><time>2026-04-19T15:18:18.016Z</time></trkpt><trkpt lat="45.64652044296084" lon="8.511691855035943"><ele>264.6666666666667</ele><time>2026-04-19T15:18:19.016Z</time></trkpt><trkpt lat="45.646446439427606" lon="8.511645156853541"><ele>265.0</ele><time>2026-04-19T15:18:20.016Z</time></trkpt><trkpt lat="45.64637959730191" lon="8.51159983840045"><ele>265.33333333333337</ele><time>2026-04-19T15:18:21.016Z</time></trkpt><trkpt lat="45.64629780564623" lon="8.511559745137896"><ele>265.6666666666667</ele><time>2026-04-19T15:18:23.016Z</time></trkpt><trkpt lat="45.64623484404867" lon="8.511602608995517"><ele>266.0</ele><time>2026-04-19T15:18:25.016Z</time></trkpt><trkpt lat="45.64619031823132" lon="8.511683155128111"><ele>266.0</ele><time>2026-04-19T15:18:26.016Z</time></trkpt><trkpt lat="45.64613430598933" lon="8.511789870041822"><ele>266.0</ele><time>2026-04-19T15:18:27.016Z</time></trkpt><trkpt lat="45.64606867683359" lon="8.511889445624053"><ele>266.0</ele><time>2026-04-19T15:18:28.016Z</time></trkpt><trkpt lat="45.645992337424964" lon="8.511999852128307"><ele>266.0</ele><time>2026-04-19T15:18:29.016Z</time></trkpt><trkpt lat="45.645912564616154" lon="8.512112540833979"><ele>266.0</ele><time>2026-04-19T15:18:30.016Z</time></trkpt><trkpt lat="45.64582565656323" lon="8.512236731078177"><ele>266.75</ele><time>2026-04-19T15:18:31.016Z</time></trkpt><trkpt lat="45.64572809473846" lon="8.512372034731571"><ele>267.5</ele><time>2026-04-19T15:18:32.016Z</time></trkpt><trkpt lat="45.645630037929685" lon="8.512511510516925"><ele>268.25</ele><time>2026-04-19T15:18:33.016Z</time></trkpt><trkpt lat="45.64552622263567" lon="8.512649675587632"><ele>269.0</ele><time>2026-04-19T15:18:34.016Z</time></trkpt><trkpt lat="45.6454175993293" lon="8.512794917638962"><ele>269.33333333333337</ele><time>2026-04-19T15:18:35.016Z</time></trkpt><trkpt lat="45.645307057600675" lon="8.512949387454581"><ele>269.6666666666667</ele><time>2026-04-19T15:18:36.016Z</time></trkpt><trkpt lat="45.64520047044084" lon="8.513100738023365"><ele>270.0</ele><time>2026-04-19T15:18:37.016Z</time></trkpt><trkpt lat="45.64508902982041" lon="8.513258813469111"><ele>270.0</ele><time>2026-04-19T15:18:38.016Z</time></trkpt><trkpt lat="45.6449708215071" lon="8.51342564007453"><ele>270.0</ele><time>2026-04-19T15:18:39.016Z</time></trkpt><trkpt lat="45.6448509545439" lon="8.513592557196423"><ele>270.0</ele><time>2026-04-19T15:18:40.016Z</time></trkpt><trkpt lat="45.644727052970886" lon="8.51376277298442"><ele>269.6666666666667</ele><time>2026-04-19T15:18:41.016Z</time></trkpt><trkpt lat="45.644604028803535" lon="8.513937990231998"><ele>269.33333333333337</ele><time>2026-04-19T15:18:42.016Z</time></trkpt><trkpt lat="45.644474066376674" lon="8.514119253145152"><ele>269.0</ele><time>2026-04-19T15:18:43.017Z</time></trkpt><trkpt lat="45.64434061950171" lon="8.51430536137532"><ele>269.0</ele><time>2026-04-19T15:18:44.017Z</time></trkpt><trkpt lat="45.64420741736621" lon="8.514488304786031"><ele>269.0</ele><time>2026-04-19T15:18:45.017Z</time></trkpt><trkpt lat="45.644070499654966" lon="8.514672843771551"><ele>269.0</ele><time>2026-04-19T15:18:46.017Z</time></trkpt><trkpt lat="45.643935428280095" lon="8.514861913297299"><ele>269.0</ele><time>2026-04-19T15:18:47.017Z</time></trkpt><trkpt lat="45.64379990307862" lon="8.515053313014155"><ele>269.0</ele><time>2026-04-19T15:18:48.017Z</time></trkpt><trkpt lat="45.64366395905659" lon="8.515247301436906"><ele>269.0</ele><time>2026-04-19T15:18:49.017Z</time></trkpt><trkpt lat="45.643527720617165" lon="8.51544200515106"><ele>268.33333333333337</ele><time>2026-04-19T15:18:50.017Z</time></trkpt><trkpt lat="45.64338959961281" lon="8.515640737981466"><ele>267.6666666666667</ele><time>2026-04-19T15:18:51.017Z</time></trkpt><trkpt lat="45.64325184367838" lon="8.515840194786584"><ele>267.0</ele><time>2026-04-19T15:18:52.017Z</time></trkpt><trkpt lat="45.64311195210377" lon="8.516040421230635"><ele>267.0</ele><time>2026-04-19T15:18:53.017Z</time></trkpt><trkpt lat="45.64297492634808" lon="8.516236264758822"><ele>267.0</ele><time>2026-04-19T15:18:54.017Z</time></trkpt><trkpt lat="45.642836882328666" lon="8.516430542991802"><ele>267.0</ele><time>2026-04-19T15:18:55.017Z</time></trkpt><trkpt lat="45.64270203874586" lon="8.516623868052557"><ele>267.6666666666667</ele><time>2026-04-19T15:18:56.017Z</time></trkpt><trkpt lat="45.64257723534732" lon="8.516805323132326"><ele>268.33333333333337</ele><time>2026-04-19T15:18:57.017Z</time></trkpt><trkpt lat="45.642458008131925" lon="8.516976560093546"><ele>269.0</ele><time>2026-04-19T15:18:58.017Z</time></trkpt><trkpt lat="45.642343165771" lon="8.517136643716643"><ele>269.0</ele><time>2026-04-19T15:18:59.017Z</time></trkpt><trkpt lat="45.64223105620109" lon="8.517291889720969"><ele>269.0</ele><time>2026-04-19T15:19:00.017Z</time></trkpt><trkpt lat="45.6421160311262" lon="8.517457201730263"><ele>269.0</ele><time>2026-04-19T15:19:01.017Z</time></trkpt><trkpt lat="45.64199713815439" lon="8.517625440234784"><ele>268.33333333333337</ele><time>2026-04-19T15:19:02.017Z</time></trkpt><trkpt lat="45.64187328476014" lon="8.517796021738974"><ele>267.6666666666667</ele><time>2026-04-19T15:19:03.017Z</time></trkpt><trkpt lat="45.64174789817729" lon="8.517973295516802"><ele>267.0</ele><time>2026-04-19T15:19:04.017Z</time></trkpt><trkpt lat="45.64161991229618" lon="8.518153935186703"><ele>266.3333333333333</ele><time>2026-04-19T15:19:05.017Z</time></trkpt><trkpt lat="45.64148928729217" lon="8.518338283869205"><ele>265.66666666666663</ele><time>2026-04-19T15:19:06.017Z</time></trkpt><trkpt lat="45.641354722303554" lon="8.51852349867281"><ele>265.0</ele><time>2026-04-19T15:19:07.017Z</time></trkpt><trkpt lat="45.641219155498355" lon="8.518711634041782"><ele>264.66666666666663</ele><time>2026-04-19T15:19:08.017Z</time></trkpt><trkpt lat="45.641083567182406" lon="8.518906564110724"><ele>264.3333333333333</ele><time>2026-04-19T15:19:09.017Z</time></trkpt><trkpt lat="45.64094919294495" lon="8.519100646582068"><ele>264.0</ele><time>2026-04-19T15:19:10.015Z</time></trkpt><trkpt lat="45.64081949660469" lon="8.519303494379695"><ele>264.0</ele><time>2026-04-19T15:19:11.014Z</time></trkpt><trkpt lat="45.64069034388645" lon="8.519510303152172"><ele>264.0</ele><time>2026-04-19T15:19:12.015Z</time></trkpt><trkpt lat="45.64056151622698" lon="8.519720547231515"><ele>264.0</ele><time>2026-04-19T15:19:13.014Z</time></trkpt><trkpt lat="45.64043017081053" lon="8.519932778036749"><ele>264.0</ele><time>2026-04-19T15:19:14.014Z</time></trkpt><trkpt lat="45.640299587685874" lon="8.52014568901265"><ele>264.0</ele><time>2026-04-19T15:19:15.014Z</time></trkpt><trkpt lat="45.64016673502206" lon="8.520361731999618"><ele>264.0</ele><time>2026-04-19T15:19:16.015Z</time></trkpt><trkpt lat="45.64003438452029" lon="8.520582363101381"><ele>264.0</ele><time>2026-04-19T15:19:17.015Z</time></trkpt><trkpt lat="45.63990289298272" lon="8.520803861488941"><ele>264.0</ele><time>2026-04-19T15:19:18.015Z</time></trkpt><trkpt lat="45.63976968613933" lon="8.52102531483505"><ele>264.0</ele><time>2026-04-19T15:19:19.014Z</time></trkpt><trkpt lat="45.63963675617595" lon="8.521250597033513"><ele>264.0</ele><time>2026-04-19T15:19:20.014Z</time></trkpt><trkpt lat="45.639504280121095" lon="8.521475335488327"><ele>264.0</ele><time>2026-04-19T15:19:21.014Z</time></trkpt><trkpt lat="45.63937230942871" lon="8.52168994169082"><ele>264.0</ele><time>2026-04-19T15:19:22.014Z</time></trkpt><trkpt lat="45.63924282904341" lon="8.521896246001956"><ele>264.0</ele><time>2026-04-19T15:19:23.015Z</time></trkpt><trkpt lat="45.639115877725956" lon="8.522102734838274"><ele>264.0</ele><time>2026-04-19T15:19:24.015Z</time></trkpt><trkpt lat="45.638989596684056" lon="8.522310047165014"><ele>264.0</ele><time>2026-04-19T15:19:25.015Z</time></trkpt><trkpt lat="45.638860879860275" lon="8.522515290247801"><ele>264.0</ele><time>2026-04-19T15:19:26.015Z</time></trkpt><trkpt lat="45.6387242456217" lon="8.522717989905116"><ele>264.0</ele><time>2026-04-19T15:19:27.015Z</time></trkpt><trkpt lat="45.638579005792735" lon="8.522909498643918"><ele>264.0</ele><time>2026-04-19T15:19:28.015Z</time></trkpt><trkpt lat="45.63842628248823" lon="8.523082937520321"><ele>263.3333333333333</ele><time>2026-04-19T15:19:29.015Z</time></trkpt><trkpt lat="45.6382711352132" lon="8.523249632409808"><ele>262.66666666666663</ele><time>2026-04-19T15:19:30.015Z</time></trkpt><trkpt lat="45.638114109029374" lon="8.523415563184379"><ele>262.0</ele><time>2026-04-19T15:19:31.015Z</time></trkpt><trkpt lat="45.637956835296514" lon="8.523581787662154"><ele>262.0</ele><time>2026-04-19T15:19:32.015Z</time></trkpt><trkpt lat="45.63779912099395" lon="8.523750238502476"><ele>262.0</ele><time>2026-04-19T15:19:33.015Z</time></trkpt><trkpt lat="45.637640726353474" lon="8.52391762245716"><ele>262.0</ele><time>2026-04-19T15:19:34.015Z</time></trkpt><trkpt lat="45.63748176757832" lon="8.524089603975082"><ele>262.0</ele><time>2026-04-19T15:19:35.015Z</time></trkpt><trkpt lat="45.63732318347326" lon="8.524259205149534"><ele>262.0</ele><time>2026-04-19T15:19:36.015Z</time></trkpt><trkpt lat="45.63716480325757" lon="8.524427860936513"><ele>262.0</ele><time>2026-04-19T15:19:37.015Z</time></trkpt><trkpt lat="45.63700761640424" lon="8.524597598384043"><ele>262.3333333333333</ele><time>2026-04-19T15:19:38.015Z</time></trkpt><trkpt lat="45.63685325452222" lon="8.524768387874406"><ele>262.6666666666667</ele><time>2026-04-19T15:19:39.015Z</time></trkpt><trkpt lat="45.63669880712679" lon="8.52494193073559"><ele>263.0</ele><time>2026-04-19T15:19:40.015Z</time></trkpt><trkpt lat="45.636543684581895" lon="8.525115358803895"><ele>263.0</ele><time>2026-04-19T15:19:41.015Z</time></trkpt><trkpt lat="45.63638854070667" lon="8.52529045847804"><ele>263.0</ele><time>2026-04-19T15:19:42.015Z</time></trkpt><trkpt lat="45.63623902729154" lon="8.525460876581059"><ele>263.0</ele><time>2026-04-19T15:19:43.015Z</time></trkpt><trkpt lat="45.63609663442311" lon="8.525623321413024"><ele>262.0</ele><time>2026-04-19T15:19:44.015Z</time></trkpt><trkpt lat="45.6359607482594" lon="8.525780967005975"><ele>261.0</ele><time>2026-04-19T15:19:45.015Z</time></trkpt><trkpt lat="45.63582661418002" lon="8.525936738659427"><ele>260.0</ele><time>2026-04-19T15:19:46.015Z</time></trkpt><trkpt lat="45.63569346155161" lon="8.526092727847042"><ele>260.33333333333337</ele><time>2026-04-19T15:19:47.015Z</time></trkpt><trkpt lat="45.63556059559483" lon="8.52625080661569"><ele>260.6666666666667</ele><time>2026-04-19T15:19:48.015Z</time></trkpt><trkpt lat="45.63542843093176" lon="8.526414630562082"><ele>261.0</ele><time>2026-04-19T15:19:49.015Z</time></trkpt><trkpt lat="45.63529761376377" lon="8.526589153917596"><ele>260.3333333333333</ele><time>2026-04-19T15:19:50.015Z</time></trkpt><trkpt lat="45.63516959020009" lon="8.526774797880245"><ele>259.66666666666663</ele><time>2026-04-19T15:19:51.015Z</time></trkpt><trkpt lat="45.635040638736164" lon="8.526962465130804"><ele>259.0</ele><time>2026-04-19T15:19:52.015Z</time></trkpt><trkpt lat="45.6349194051168" lon="8.52714844241563"><ele>259.0</ele><time>2026-04-19T15:19:53.016Z</time></trkpt><trkpt lat="45.63480536526999" lon="8.527329629643694"><ele>259.0</ele><time>2026-04-19T15:19:54.016Z</time></trkpt><trkpt lat="45.63470322704559" lon="8.527518044389256"><ele>259.0</ele><time>2026-04-19T15:19:55.016Z</time></trkpt><trkpt lat="45.63462714564125" lon="8.527726010362967"><ele>259.0</ele><time>2026-04-19T15:19:56.016Z</time></trkpt><trkpt lat="45.63457782877427" lon="8.527951834036314"><ele>259.0</ele><time>2026-04-19T15:19:57.016Z</time></trkpt><trkpt lat="45.63454014087885" lon="8.528187520119953"><ele>259.0</ele><time>2026-04-19T15:19:58.016Z</time></trkpt><trkpt lat="45.634503429798805" lon="8.528418408311191"><ele>258.66666666666663</ele><time>2026-04-19T15:19:59.016Z</time></trkpt><trkpt lat="45.634467297789726" lon="8.528629999222824"><ele>258.3333333333333</ele><time>2026-04-19T15:20:00.016Z</time></trkpt><trkpt lat="45.634428044256545" lon="8.528840417589983"><ele>258.0</ele><time>2026-04-19T15:20:01.016Z</time></trkpt><trkpt lat="45.63438970519569" lon="8.5290531237787"><ele>257.6666666666667</ele><time>2026-04-19T15:20:02.016Z</time></trkpt><trkpt lat="45.63435180967622" lon="8.529265956266524"><ele>257.33333333333337</ele><time>2026-04-19T15:20:03.016Z</time></trkpt><trkpt lat="45.63431266322536" lon="8.529481359166002"><ele>257.0</ele><time>2026-04-19T15:20:04.016Z</time></trkpt><trkpt lat="45.63427257523193" lon="8.52970001298523"><ele>257.6666666666667</ele><time>2026-04-19T15:20:05.016Z</time></trkpt><trkpt lat="45.634234691078255" lon="8.52991869328363"><ele>258.3333333333333</ele><time>2026-04-19T15:20:06.016Z</time></trkpt><trkpt lat="45.63419503119624" lon="8.530140166618917"><ele>259.0</ele><time>2026-04-19T15:20:07.016Z</time></trkpt><trkpt lat="45.63415681811097" lon="8.530357353967878"><ele>259.3333333333333</ele><time>2026-04-19T15:20:08.016Z</time></trkpt><trkpt lat="45.63411988683034" lon="8.53057141004345"><ele>259.6666666666667</ele><time>2026-04-19T15:20:09.016Z</time></trkpt><trkpt lat="45.63408226903223" lon="8.530785017080927"><ele>260.0</ele><time>2026-04-19T15:20:10.016Z</time></trkpt><trkpt lat="45.63404408390829" lon="8.530995931354578"><ele>260.0</ele><time>2026-04-19T15:20:11.016Z</time></trkpt><trkpt lat="45.634008077103346" lon="8.531203783864752"><ele>260.0</ele><time>2026-04-19T15:20:12.016Z</time></trkpt><trkpt lat="45.63397297293475" lon="8.531408930869718"><ele>260.0</ele><time>2026-04-19T15:20:13.016Z</time></trkpt><trkpt lat="45.63393816252109" lon="8.531612416114218"><ele>260.0</ele><time>2026-04-19T15:20:14.016Z</time></trkpt><trkpt lat="45.63390418234418" lon="8.531811324266128"><ele>260.25</ele><time>2026-04-19T15:20:15.016Z</time></trkpt><trkpt lat="45.633870343468125" lon="8.532007368915886"><ele>260.5</ele><time>2026-04-19T15:20:16.016Z</time></trkpt><trkpt lat="45.63383339384275" lon="8.532200569316288"><ele>260.75</ele><time>2026-04-19T15:20:17.016Z</time></trkpt><trkpt lat="45.63379526422603" lon="8.5323907343817"><ele>261.0</ele><time>2026-04-19T15:20:18.016Z</time></trkpt><trkpt lat="45.63375934211915" lon="8.532581204000182"><ele>261.0</ele><time>2026-04-19T15:20:19.016Z</time></trkpt><trkpt lat="45.63372677638737" lon="8.532773302045106"><ele>261.0</ele><time>2026-04-19T15:20:20.016Z</time></trkpt><trkpt lat="45.63370359068291" lon="8.532965490052485"><ele>261.0</ele><time>2026-04-19T15:20:21.016Z</time></trkpt><trkpt lat="45.633697183583756" lon="8.533166354893384"><ele>261.0</ele><time>2026-04-19T15:20:22.016Z</time></trkpt><trkpt lat="45.633705962050286" lon="8.53337269701322"><ele>261.0</ele><time>2026-04-19T15:20:23.016Z</time></trkpt><trkpt lat="45.63372504699773" lon="8.533585137763867"><ele>261.0</ele><time>2026-04-19T15:20:24.016Z</time></trkpt><trkpt lat="45.633744519911154" lon="8.533795736820348"><ele>261.0</ele><time>2026-04-19T15:20:25.016Z</time></trkpt><trkpt lat="45.63375736343703" lon="8.53399519877248"><ele>261.0</ele><time>2026-04-19T15:20:26.016Z</time></trkpt><trkpt lat="45.633769346843536" lon="8.534191318421325"><ele>261.0</ele><time>2026-04-19T15:20:27.017Z</time></trkpt><trkpt lat="45.633785380344904" lon="8.534387627137834"><ele>261.0</ele><time>2026-04-19T15:20:28.017Z</time></trkpt><trkpt lat="45.63380203661771" lon="8.534580548080703"><ele>261.0</ele><time>2026-04-19T15:20:29.017Z</time></trkpt><trkpt lat="45.63381503363724" lon="8.53477174701305"><ele>261.0</ele><time>2026-04-19T15:20:30.017Z</time></trkpt><trkpt lat="45.633823496962144" lon="8.53495528764611"><ele>261.5</ele><time>2026-04-19T15:20:31.017Z</time></trkpt><trkpt lat="45.63383515147838" lon="8.535132162015241"><ele>262.0</ele><time>2026-04-19T15:20:32.017Z</time></trkpt><trkpt lat="45.63384604483427" lon="8.535311834191218"><ele>262.5</ele><time>2026-04-19T15:20:33.017Z</time></trkpt><trkpt lat="45.63385888611811" lon="8.535491180136876"><ele>263.0</ele><time>2026-04-19T15:20:34.017Z</time></trkpt><trkpt lat="45.63386979441476" lon="8.535667069420318"><ele>263.0</ele><time>2026-04-19T15:20:35.017Z</time></trkpt><trkpt lat="45.63388252202" lon="8.535842197200687"><ele>263.0</ele><time>2026-04-19T15:20:36.017Z</time></trkpt><trkpt lat="45.63389553426392" lon="8.536022426362468"><ele>263.0</ele><time>2026-04-19T15:20:37.017Z</time></trkpt><trkpt lat="45.633909446657775" lon="8.53620984624565"><ele>263.0</ele><time>2026-04-19T15:20:38.017Z</time></trkpt><trkpt lat="45.633924885637974" lon="8.53640598208414"><ele>262.5</ele><time>2026-04-19T15:20:39.017Z</time></trkpt><trkpt lat="45.63394046986476" lon="8.5366021053586"><ele>262.0</ele><time>2026-04-19T15:20:40.017Z</time></trkpt><trkpt lat="45.6339558183096" lon="8.536801104743002"><ele>261.5</ele><time>2026-04-19T15:20:41.017Z</time></trkpt><trkpt lat="45.633972037639786" lon="8.537001603093389"><ele>261.0</ele><time>2026-04-19T15:20:42.017Z</time></trkpt><trkpt lat="45.63398740765222" lon="8.537197888511002"><ele>260.0</ele><time>2026-04-19T15:20:43.017Z</time></trkpt><trkpt lat="45.63399832802372" lon="8.53738461406288"><ele>259.0</ele><time>2026-04-19T15:20:44.017Z</time></trkpt><trkpt lat="45.63400789504608" lon="8.537562357235403"><ele>258.0</ele><time>2026-04-19T15:20:45.017Z</time></trkpt><trkpt lat="45.63402149462233" lon="8.537736438205908"><ele>257.0</ele><time>2026-04-19T15:20:46.017Z</time></trkpt><trkpt lat="45.63404415776735" lon="8.537910143630059"><ele>256.5</ele><time>2026-04-19T15:20:47.017Z</time></trkpt><trkpt lat="45.6340703409583" lon="8.538089106583719"><ele>256.0</ele><time>2026-04-19T15:20:48.017Z</time></trkpt><trkpt lat="45.634101040094215" lon="8.53827498686741"><ele>255.5</ele><time>2026-04-19T15:20:49.017Z</time></trkpt><trkpt lat="45.63412269940773" lon="8.538464437649473"><ele>255.0</ele><time>2026-04-19T15:20:50.017Z</time></trkpt><trkpt lat="45.63415146616306" lon="8.538624754550678"><ele>255.0</ele><time>2026-04-19T15:20:51.017Z</time></trkpt><trkpt lat="45.634185018785494" lon="8.538790051382694"><ele>255.0</ele><time>2026-04-19T15:20:52.017Z</time></trkpt><trkpt lat="45.63420064402754" lon="8.538945630298858"><ele>255.0</ele><time>2026-04-19T15:20:53.017Z</time></trkpt><trkpt lat="45.63421960852097" lon="8.539096108147412"><ele>255.0</ele><time>2026-04-19T15:20:54.017Z</time></trkpt><trkpt lat="45.63423746662914" lon="8.539248425483885"><ele>255.0</ele><time>2026-04-19T15:20:55.017Z</time></trkpt><trkpt lat="45.63427315394458" lon="8.539381302272774"><ele>255.0</ele><time>2026-04-19T15:20:56.017Z</time></trkpt><trkpt lat="45.63430785739815" lon="8.539503299471116"><ele>255.0</ele><time>2026-04-19T15:20:57.017Z</time></trkpt><trkpt lat="45.63432887073269" lon="8.53960719092785"><ele>255.0</ele><time>2026-04-19T15:20:58.017Z</time></trkpt><trkpt lat="45.63432078920759" lon="8.539752287472467"><ele>255.0</ele><time>2026-04-19T15:21:00.018Z</time></trkpt><trkpt lat="45.63427778423172" lon="8.539828358726297"><ele>255.0</ele><time>2026-04-19T15:21:02.018Z</time></trkpt><trkpt lat="45.63420983968063" lon="8.539826709718255"><ele>255.0</ele><time>2026-04-19T15:21:04.018Z</time></trkpt><trkpt lat="45.634090538575" lon="8.539810718780496"><ele>255.16666666666666</ele><time>2026-04-19T15:21:12.018Z</time></trkpt><trkpt lat="45.63406299559863" lon="8.539940722801449"><ele>255.33333333333331</ele><time>2026-04-19T15:21:25.015Z</time></trkpt><trkpt lat="45.63407248553591" lon="8.5400965458512"><ele>255.5</ele><time>2026-04-19T15:21:27.015Z</time></trkpt><trkpt lat="45.63407349304782" lon="8.54019766261682"><ele>255.66666666666666</ele><time>2026-04-19T15:21:28.015Z</time></trkpt><trkpt lat="45.63408807682018" lon="8.540302270066341"><ele>255.83333333333331</ele><time>2026-04-19T15:21:29.015Z</time></trkpt><trkpt lat="45.634098362299106" lon="8.540415752405591"><ele>256.0</ele><time>2026-04-19T15:21:30.015Z</time></trkpt><trkpt lat="45.6341097651775" lon="8.54054495285532"><ele>256.0</ele><time>2026-04-19T15:21:31.015Z</time></trkpt><trkpt lat="45.63412156696452" lon="8.54067848565555"><ele>256.0</ele><time>2026-04-19T15:21:32.015Z</time></trkpt><trkpt lat="45.6341284489793" lon="8.540808995701395"><ele>256.0</ele><time>2026-04-19T15:21:33.015Z</time></trkpt><trkpt lat="45.634140816679874" lon="8.540944745934713"><ele>256.0</ele><time>2026-04-19T15:21:34.015Z</time></trkpt><trkpt lat="45.63415379957803" lon="8.541086285289476"><ele>256.0</ele><time>2026-04-19T15:21:35.015Z</time></trkpt><trkpt lat="45.63416783163141" lon="8.541232269755646"><ele>256.16666666666663</ele><time>2026-04-19T15:21:36.015Z</time></trkpt><trkpt lat="45.63417210718912" lon="8.54138415150439"><ele>256.3333333333333</ele><time>2026-04-19T15:21:37.015Z</time></trkpt><trkpt lat="45.63416877926195" lon="8.541526175514255"><ele>256.5</ele><time>2026-04-19T15:21:38.015Z</time></trkpt><trkpt lat="45.634145982775905" lon="8.541649769431858"><ele>256.6666666666667</ele><time>2026-04-19T15:21:39.015Z</time></trkpt><trkpt lat="45.63412363284383" lon="8.541749206697602"><ele>256.83333333333337</ele><time>2026-04-19T15:21:40.015Z</time></trkpt><trkpt lat="45.63409510113665" lon="8.54184931472453"><ele>257.0</ele><time>2026-04-19T15:21:41.015Z</time></trkpt><trkpt lat="45.63407163100574" lon="8.541945403542742"><ele>257.4</ele><time>2026-04-19T15:21:42.015Z</time></trkpt><trkpt lat="45.634036310392005" lon="8.542051116054717"><ele>257.79999999999995</ele><time>2026-04-19T15:21:43.015Z</time></trkpt><trkpt lat="45.63398633523052" lon="8.542169834229526"><ele>258.2</ele><time>2026-04-19T15:21:44.015Z</time></trkpt><trkpt lat="45.63394578023792" lon="8.542318757037652"><ele>258.59999999999997</ele><time>2026-04-19T15:21:45.015Z</time></trkpt><trkpt lat="45.63389767876034" lon="8.542472636352962"><ele>259.0</ele><time>2026-04-19T15:21:46.015Z</time></trkpt><trkpt lat="45.6338506866626" lon="8.542636935836157"><ele>259.0</ele><time>2026-04-19T15:21:47.015Z</time></trkpt><trkpt lat="45.63379610951096" lon="8.542795930335275"><ele>259.0</ele><time>2026-04-19T15:21:48.015Z</time></trkpt><trkpt lat="45.63374254405003" lon="8.54295356117836"><ele>259.0</ele><time>2026-04-19T15:21:49.015Z</time></trkpt><trkpt lat="45.63369058410425" lon="8.543103480161276"><ele>259.0</ele><time>2026-04-19T15:21:50.015Z</time></trkpt><trkpt lat="45.6336333733387" lon="8.543248419931496"><ele>259.25</ele><time>2026-04-19T15:21:51.015Z</time></trkpt><trkpt lat="45.633566331375214" lon="8.543388244785536"><ele>259.5</ele><time>2026-04-19T15:21:52.015Z</time></trkpt><trkpt lat="45.633504341025215" lon="8.543529740555444"><ele>259.75</ele><time>2026-04-19T15:21:53.015Z</time></trkpt><trkpt lat="45.63346066733045" lon="8.543682910370014"><ele>260.0</ele><time>2026-04-19T15:21:54.015Z</time></trkpt><trkpt lat="45.633429080786925" lon="8.543830349777176"><ele>260.75</ele><time>2026-04-19T15:21:55.015Z</time></trkpt><trkpt lat="45.63341649533364" lon="8.544003100651329"><ele>261.5</ele><time>2026-04-19T15:21:56.015Z</time></trkpt><trkpt lat="45.633410195796536" lon="8.544186821614666"><ele>262.25</ele><time>2026-04-19T15:21:57.015Z</time></trkpt><trkpt lat="45.63341723434479" lon="8.544381785970684"><ele>263.0</ele><time>2026-04-19T15:21:58.016Z</time></trkpt><trkpt lat="45.633435294502455" lon="8.544580672897988"><ele>263.0</ele><time>2026-04-19T15:21:59.016Z</time></trkpt><trkpt lat="45.6334554348129" lon="8.544784041179433"><ele>263.0</ele><time>2026-04-19T15:22:00.016Z</time></trkpt><trkpt lat="45.63347060853771" lon="8.54499871195703"><ele>263.0</ele><time>2026-04-19T15:22:01.016Z</time></trkpt><trkpt lat="45.633487199800975" lon="8.545218631639862"><ele>263.0</ele><time>2026-04-19T15:22:02.016Z</time></trkpt><trkpt lat="45.63350169118747" lon="8.545436300974886"><ele>262.6666666666667</ele><time>2026-04-19T15:22:03.016Z</time></trkpt><trkpt lat="45.63351094503715" lon="8.545648877099344"><ele>262.3333333333333</ele><time>2026-04-19T15:22:04.016Z</time></trkpt><trkpt lat="45.63352145274923" lon="8.545866930024882"><ele>262.0</ele><time>2026-04-19T15:22:05.016Z</time></trkpt><trkpt lat="45.633536589563896" lon="8.546088587682627"><ele>262.0</ele><time>2026-04-19T15:22:06.016Z</time></trkpt><trkpt lat="45.63355102841538" lon="8.546315243048705"><ele>262.0</ele><time>2026-04-19T15:22:07.016Z</time></trkpt><trkpt lat="45.63356388465029" lon="8.546541761511532"><ele>262.0</ele><time>2026-04-19T15:22:08.016Z</time></trkpt><trkpt lat="45.63357418267523" lon="8.546773813523368"><ele>262.0</ele><time>2026-04-19T15:22:09.016Z</time></trkpt><trkpt lat="45.633584632782295" lon="8.547009176589356"><ele>262.0</ele><time>2026-04-19T15:22:10.016Z</time></trkpt><trkpt lat="45.63359660011249" lon="8.547248548269542"><ele>262.0</ele><time>2026-04-19T15:22:11.016Z</time></trkpt><trkpt lat="45.633611844622244" lon="8.547491465328974"><ele>262.0</ele><time>2026-04-19T15:22:12.016Z</time></trkpt><trkpt lat="45.63362674833694" lon="8.547736259770502"><ele>262.0</ele><time>2026-04-19T15:22:13.016Z</time></trkpt><trkpt lat="45.63364200691719" lon="8.547980395193333"><ele>262.0</ele><time>2026-04-19T15:22:14.016Z</time></trkpt><trkpt lat="45.63365727841084" lon="8.548224160859919"><ele>262.0</ele><time>2026-04-19T15:22:15.016Z</time></trkpt><trkpt lat="45.63367734987919" lon="8.548466422205573"><ele>262.0</ele><time>2026-04-19T15:22:16.016Z</time></trkpt><trkpt lat="45.63369336254288" lon="8.548705895381476"><ele>262.0</ele><time>2026-04-19T15:22:17.016Z</time></trkpt><trkpt lat="45.63371293516872" lon="8.548946029614353"><ele>262.0</ele><time>2026-04-19T15:22:18.016Z</time></trkpt><trkpt lat="45.633733999762214" lon="8.549184799063974"><ele>262.0</ele><time>2026-04-19T15:22:19.016Z</time></trkpt><trkpt lat="45.633751457547966" lon="8.549422691953756"><ele>262.0</ele><time>2026-04-19T15:22:20.016Z</time></trkpt><trkpt lat="45.63376567659001" lon="8.549664581503272"><ele>262.0</ele><time>2026-04-19T15:22:21.016Z</time></trkpt><trkpt lat="45.63378659811334" lon="8.549899943625784"><ele>262.0</ele><time>2026-04-19T15:22:22.016Z</time></trkpt><trkpt lat="45.63381078366987" lon="8.550136021391188"><ele>262.0</ele><time>2026-04-19T15:22:23.016Z</time></trkpt><trkpt lat="45.633825618182385" lon="8.550373481892056"><ele>261.3333333333333</ele><time>2026-04-19T15:22:24.016Z</time></trkpt><trkpt lat="45.63383891537387" lon="8.550618292263264"><ele>260.6666666666667</ele><time>2026-04-19T15:22:25.016Z</time></trkpt><trkpt lat="45.63385365548876" lon="8.550861542827548"><ele>260.0</ele><time>2026-04-19T15:22:26.016Z</time></trkpt><trkpt lat="45.63386272489119" lon="8.55110556983996"><ele>260.33333333333337</ele><time>2026-04-19T15:22:27.016Z</time></trkpt><trkpt lat="45.633868706745105" lon="8.551351310084973"><ele>260.6666666666667</ele><time>2026-04-19T15:22:28.016Z</time></trkpt><trkpt lat="45.63387201821257" lon="8.551592859009618"><ele>261.0</ele><time>2026-04-19T15:22:29.016Z</time></trkpt><trkpt lat="45.63387745271443" lon="8.551837817220196"><ele>260.3333333333333</ele><time>2026-04-19T15:22:30.016Z</time></trkpt><trkpt lat="45.63388898710672" lon="8.552086585765231"><ele>259.66666666666663</ele><time>2026-04-19T15:22:31.016Z</time></trkpt><trkpt lat="45.63389695845139" lon="8.552336633193232"><ele>259.0</ele><time>2026-04-19T15:22:32.017Z</time></trkpt><trkpt lat="45.63390677769413" lon="8.552584678177693"><ele>259.0</ele><time>2026-04-19T15:22:33.017Z</time></trkpt><trkpt lat="45.633929488841126" lon="8.552835465081388"><ele>259.0</ele><time>2026-04-19T15:22:34.017Z</time></trkpt><trkpt lat="45.63396089653055" lon="8.553089681896974"><ele>259.0</ele><time>2026-04-19T15:22:35.017Z</time></trkpt><trkpt lat="45.63398660443087" lon="8.553340099670208"><ele>259.0</ele><time>2026-04-19T15:22:36.017Z</time></trkpt><trkpt lat="45.63401173779949" lon="8.553589902555084"><ele>259.0</ele><time>2026-04-19T15:22:37.017Z</time></trkpt><trkpt lat="45.634033384381645" lon="8.553838320367417"><ele>259.0</ele><time>2026-04-19T15:22:38.017Z</time></trkpt><trkpt lat="45.63405381127661" lon="8.55408444862416"><ele>259.3333333333333</ele><time>2026-04-19T15:22:39.017Z</time></trkpt><trkpt lat="45.63407761865097" lon="8.554328033776876"><ele>259.6666666666667</ele><time>2026-04-19T15:22:40.017Z</time></trkpt><trkpt lat="45.63410836819842" lon="8.554570007624788"><ele>260.0</ele><time>2026-04-19T15:22:41.017Z</time></trkpt><trkpt lat="45.63414158299213" lon="8.554812852639762"><ele>260.33333333333337</ele><time>2026-04-19T15:22:42.017Z</time></trkpt><trkpt lat="45.63417776273363" lon="8.555053829861903"><ele>260.6666666666667</ele><time>2026-04-19T15:22:43.017Z</time></trkpt><trkpt lat="45.6342146362735" lon="8.555290217604833"><ele>261.0</ele><time>2026-04-19T15:22:44.017Z</time></trkpt><trkpt lat="45.634249818391446" lon="8.555517883701736"><ele>260.0</ele><time>2026-04-19T15:22:45.017Z</time></trkpt><trkpt lat="45.63428771442729" lon="8.555740475396798"><ele>259.0</ele><time>2026-04-19T15:22:46.017Z</time></trkpt><trkpt lat="45.634319542044146" lon="8.555957082565337"><ele>258.0</ele><time>2026-04-19T15:22:47.017Z</time></trkpt><trkpt lat="45.63434947392092" lon="8.556169103476869"><ele>258.3333333333333</ele><time>2026-04-19T15:22:48.017Z</time></trkpt><trkpt lat="45.6343824227317" lon="8.556380974548684"><ele>258.66666666666663</ele><time>2026-04-19T15:22:49.017Z</time></trkpt><trkpt lat="45.634415218669055" lon="8.556593950236566"><ele>259.0</ele><time>2026-04-19T15:22:50.017Z</time></trkpt><trkpt lat="45.634454700021344" lon="8.556803973908112"><ele>260.0</ele><time>2026-04-19T15:22:51.017Z</time></trkpt><trkpt lat="45.63450543312747" lon="8.557014253563832"><ele>261.0</ele><time>2026-04-19T15:22:52.017Z</time></trkpt><trkpt lat="45.634562329972745" lon="8.55722526434881"><ele>262.0</ele><time>2026-04-19T15:22:53.017Z</time></trkpt><trkpt lat="45.63462219019458" lon="8.557436824007812"><ele>262.0</ele><time>2026-04-19T15:22:54.017Z</time></trkpt><trkpt lat="45.63468890958173" lon="8.557648287715796"><ele>262.0</ele><time>2026-04-19T15:22:55.017Z</time></trkpt><trkpt lat="45.634758994286" lon="8.55786487103562"><ele>262.0</ele><time>2026-04-19T15:22:56.017Z</time></trkpt><trkpt lat="45.634826897179956" lon="8.558081893814395"><ele>262.3333333333333</ele><time>2026-04-19T15:22:57.017Z</time></trkpt><trkpt lat="45.63488748733061" lon="8.558306074521203"><ele>262.6666666666667</ele><time>2026-04-19T15:22:58.017Z</time></trkpt><trkpt lat="45.63493272858983" lon="8.558535683435045"><ele>263.0</ele><time>2026-04-19T15:22:59.017Z</time></trkpt><trkpt lat="45.634963873979146" lon="8.55877055612029"><ele>262.75</ele><time>2026-04-19T15:23:00.017Z</time></trkpt><trkpt lat="45.63499133019468" lon="8.55899329122005"><ele>262.5</ele><time>2026-04-19T15:23:01.017Z</time></trkpt><trkpt lat="45.63501104695785" lon="8.559203634404026"><ele>262.25</ele><time>2026-04-19T15:23:02.017Z</time></trkpt><trkpt lat="45.634999839541734" lon="8.559397406842335"><ele>262.0</ele><time>2026-04-19T15:23:03.017Z</time></trkpt><trkpt lat="45.634972489093144" lon="8.559570000264292"><ele>262.0</ele><time>2026-04-19T15:23:04.017Z</time></trkpt><trkpt lat="45.63492689956559" lon="8.559730524995079"><ele>262.0</ele><time>2026-04-19T15:23:05.018Z</time></trkpt><trkpt lat="45.63485099288375" lon="8.559874652761977"><ele>262.0</ele><time>2026-04-19T15:23:06.018Z</time></trkpt><trkpt lat="45.63479399857819" lon="8.56003126974917"><ele>262.0</ele><time>2026-04-19T15:23:07.018Z</time></trkpt><trkpt lat="45.634759365733835" lon="8.56020350231808"><ele>262.0</ele><time>2026-04-19T15:23:08.018Z</time></trkpt><trkpt lat="45.634726229180345" lon="8.56039999137027"><ele>262.0</ele><time>2026-04-19T15:23:09.018Z</time></trkpt><trkpt lat="45.63469441947916" lon="8.560601466088343"><ele>262.0</ele><time>2026-04-19T15:23:10.018Z</time></trkpt><trkpt lat="45.63465284983192" lon="8.560809144877892"><ele>262.0</ele><time>2026-04-19T15:23:11.018Z</time></trkpt><trkpt lat="45.634598345623594" lon="8.561018875977323"><ele>261.66666666666663</ele><time>2026-04-19T15:23:12.018Z</time></trkpt><trkpt lat="45.634540732323984" lon="8.561225368528406"><ele>261.3333333333333</ele><time>2026-04-19T15:23:13.018Z</time></trkpt><trkpt lat="45.6344829150673" lon="8.561429251549596"><ele>261.0</ele><time>2026-04-19T15:23:14.018Z</time></trkpt><trkpt lat="45.634427458526055" lon="8.56161366050961"><ele>261.0</ele><time>2026-04-19T15:23:15.018Z</time></trkpt><trkpt lat="45.634363721384865" lon="8.561778858433174"><ele>261.0</ele><time>2026-04-19T15:23:16.018Z</time></trkpt><trkpt lat="45.63429210045716" lon="8.561914891934995"><ele>261.0</ele><time>2026-04-19T15:23:17.018Z</time></trkpt><trkpt lat="45.63420781122329" lon="8.56201210108177"><ele>261.0</ele><time>2026-04-19T15:23:18.018Z</time></trkpt><trkpt lat="45.63411018379133" lon="8.562088632341585"><ele>261.25</ele><time>2026-04-19T15:23:19.018Z</time></trkpt><trkpt lat="45.63401551477944" lon="8.562196641768574"><ele>261.5</ele><time>2026-04-19T15:23:20.018Z</time></trkpt><trkpt lat="45.63393453280014" lon="8.562349562884625"><ele>261.75</ele><time>2026-04-19T15:23:21.018Z</time></trkpt><trkpt lat="45.633860500074036" lon="8.562527590390603"><ele>262.0</ele><time>2026-04-19T15:23:22.015Z</time></trkpt><trkpt lat="45.63379493491923" lon="8.562729994699472"><ele>262.0</ele><time>2026-04-19T15:23:23.015Z</time></trkpt><trkpt lat="45.633746600876044" lon="8.562948471337396"><ele>262.0</ele><time>2026-04-19T15:23:24.015Z</time></trkpt><trkpt lat="45.633696496565264" lon="8.56315400385839"><ele>262.0</ele><time>2026-04-19T15:23:25.015Z</time></trkpt><trkpt lat="45.63364279122709" lon="8.563344619839256"><ele>262.25</ele><time>2026-04-19T15:23:26.015Z</time></trkpt><trkpt lat="45.633598923957415" lon="8.56353250537124"><ele>262.5</ele><time>2026-04-19T15:23:27.015Z</time></trkpt><trkpt lat="45.633584754934" lon="8.563714984898738"><ele>262.75</ele><time>2026-04-19T15:23:28.015Z</time></trkpt><trkpt lat="45.633610735564304" lon="8.563906047015271"><ele>263.0</ele><time>2026-04-19T15:23:29.015Z</time></trkpt><trkpt lat="45.633641665060715" lon="8.564098378205475"><ele>263.0</ele><time>2026-04-19T15:23:30.015Z</time></trkpt><trkpt lat="45.63366832102472" lon="8.564296137992942"><ele>263.0</ele><time>2026-04-19T15:23:31.015Z</time></trkpt><trkpt lat="45.63368965368203" lon="8.564499570788499"><ele>263.0</ele><time>2026-04-19T15:23:32.015Z</time></trkpt><trkpt lat="45.63370047983045" lon="8.564702813586551"><ele>263.0</ele><time>2026-04-19T15:23:33.015Z</time></trkpt><trkpt lat="45.633718298787066" lon="8.564905070184103"><ele>263.0</ele><time>2026-04-19T15:23:34.015Z</time></trkpt><trkpt lat="45.63374150847726" lon="8.565114459174278"><ele>263.0</ele><time>2026-04-19T15:23:35.015Z</time></trkpt><trkpt lat="45.63378226779586" lon="8.565325647847468"><ele>263.0</ele><time>2026-04-19T15:23:36.015Z</time></trkpt><trkpt lat="45.63382947535592" lon="8.565537973232727"><ele>263.33333333333337</ele><time>2026-04-19T15:23:37.015Z</time></trkpt><trkpt lat="45.633878193944284" lon="8.565749325964408"><ele>263.6666666666667</ele><time>2026-04-19T15:23:38.015Z</time></trkpt><trkpt lat="45.633933740383796" lon="8.565958462065414"><ele>264.0</ele><time>2026-04-19T15:23:39.015Z</time></trkpt><trkpt lat="45.63399041057969" lon="8.566168903840904"><ele>264.0</ele><time>2026-04-19T15:23:40.015Z</time></trkpt><trkpt lat="45.634057379757785" lon="8.566372662388407"><ele>264.0</ele><time>2026-04-19T15:23:41.015Z</time></trkpt><trkpt lat="45.634134492615175" lon="8.566569172018799"><ele>264.0</ele><time>2026-04-19T15:23:42.015Z</time></trkpt><trkpt lat="45.63420965211516" lon="8.566766675946663"><ele>264.0</ele><time>2026-04-19T15:23:43.015Z</time></trkpt><trkpt lat="45.63428093303397" lon="8.566970255492857"><ele>264.0</ele><time>2026-04-19T15:23:44.015Z</time></trkpt><trkpt lat="45.634354684329296" lon="8.56716938798701"><ele>264.0</ele><time>2026-04-19T15:23:45.015Z</time></trkpt><trkpt lat="45.634435499717526" lon="8.567364145415276"><ele>264.3333333333333</ele><time>2026-04-19T15:23:46.015Z</time></trkpt><trkpt lat="45.63451928092677" lon="8.567563313811377"><ele>264.66666666666663</ele><time>2026-04-19T15:23:47.015Z</time></trkpt><trkpt lat="45.634599431544565" lon="8.567749119000881"><ele>265.0</ele><time>2026-04-19T15:23:48.015Z</time></trkpt><trkpt lat="45.6346820713785" lon="8.567918291996955"><ele>265.0</ele><time>2026-04-19T15:23:49.015Z</time></trkpt><trkpt lat="45.63474877614404" lon="8.568093800048201"><ele>265.0</ele><time>2026-04-19T15:23:50.015Z</time></trkpt><trkpt lat="45.63479168375318" lon="8.568276954168978"><ele>265.0</ele><time>2026-04-19T15:23:51.015Z</time></trkpt><trkpt lat="45.63480644300673" lon="8.56847094487288"><ele>265.0</ele><time>2026-04-19T15:23:52.015Z</time></trkpt><trkpt lat="45.634798401558726" lon="8.568663480351"><ele>265.75</ele><time>2026-04-19T15:23:53.015Z</time></trkpt><trkpt lat="45.634782977318196" lon="8.56885719122783"><ele>266.5</ele><time>2026-04-19T15:23:54.015Z</time></trkpt><trkpt lat="45.634771109408895" lon="8.569052879240248"><ele>267.25</ele><time>2026-04-19T15:23:55.015Z</time></trkpt><trkpt lat="45.634763203540224" lon="8.56925850784694"><ele>268.0</ele><time>2026-04-19T15:23:56.015Z</time></trkpt><trkpt lat="45.63476093623593" lon="8.569470057661908"><ele>268.5</ele><time>2026-04-19T15:23:57.015Z</time></trkpt><trkpt lat="45.63475366658321" lon="8.569686283489633"><ele>269.0</ele><time>2026-04-19T15:23:58.015Z</time></trkpt><trkpt lat="45.63474757151167" lon="8.569899376107914"><ele>269.5</ele><time>2026-04-19T15:23:59.015Z</time></trkpt><trkpt lat="45.63473502379868" lon="8.57009661640362"><ele>270.0</ele><time>2026-04-19T15:24:00.015Z</time></trkpt><trkpt lat="45.63472219170655" lon="8.570275478992164"><ele>270.0</ele><time>2026-04-19T15:24:01.015Z</time></trkpt><trkpt lat="45.634718497750185" lon="8.57044368946924"><ele>270.0</ele><time>2026-04-19T15:24:02.015Z</time></trkpt><trkpt lat="45.63472956978759" lon="8.570603774627873"><ele>270.0</ele><time>2026-04-19T15:24:03.015Z</time></trkpt><trkpt lat="45.63475982743175" lon="8.570764018674307"><ele>270.0</ele><time>2026-04-19T15:24:04.015Z</time></trkpt><trkpt lat="45.634799694940604" lon="8.570922196706373"><ele>270.0</ele><time>2026-04-19T15:24:05.015Z</time></trkpt><trkpt lat="45.63486084113187" lon="8.571069673552591"><ele>270.0</ele><time>2026-04-19T15:24:06.015Z</time></trkpt><trkpt lat="45.63493531612709" lon="8.57120672220277"><ele>270.0</ele><time>2026-04-19T15:24:07.015Z</time></trkpt><trkpt lat="45.635013711738175" lon="8.571349587037828"><ele>270.0</ele><time>2026-04-19T15:24:08.015Z</time></trkpt><trkpt lat="45.635081389570495" lon="8.571493553179465"><ele>270.0</ele><time>2026-04-19T15:24:09.016Z</time></trkpt><trkpt lat="45.635130845203925" lon="8.57164222478926"><ele>270.0</ele><time>2026-04-19T15:24:10.016Z</time></trkpt><trkpt lat="45.63515069726807" lon="8.571812920460058"><ele>270.0</ele><time>2026-04-19T15:24:11.016Z</time></trkpt><trkpt lat="45.63513500145478" lon="8.571976417137202"><ele>270.0</ele><time>2026-04-19T15:24:12.016Z</time></trkpt><trkpt lat="45.635082607701335" lon="8.572122770582036"><ele>270.0</ele><time>2026-04-19T15:24:13.016Z</time></trkpt><trkpt lat="45.63501279994796" lon="8.572261734355697"><ele>270.0</ele><time>2026-04-19T15:24:14.016Z</time></trkpt><trkpt lat="45.634923538848895" lon="8.572381316708"><ele>270.0</ele><time>2026-04-19T15:24:15.016Z</time></trkpt><trkpt lat="45.63481382678839" lon="8.572458312739986"><ele>270.0</ele><time>2026-04-19T15:24:16.016Z</time></trkpt><trkpt lat="45.63468527828465" lon="8.5724980076338"><ele>270.0</ele><time>2026-04-19T15:24:17.016Z</time></trkpt><trkpt lat="45.634546907069094" lon="8.5725228304926"><ele>270.0</ele><time>2026-04-19T15:24:18.016Z</time></trkpt><trkpt lat="45.63440013499956" lon="8.572550415024775"><ele>270.0</ele><time>2026-04-19T15:24:19.016Z</time></trkpt><trkpt lat="45.63425219564099" lon="8.572576632396494"><ele>270.0</ele><time>2026-04-19T15:24:20.016Z</time></trkpt><trkpt lat="45.634108279955186" lon="8.572567531238812"><ele>269.75</ele><time>2026-04-19T15:24:21.016Z</time></trkpt><trkpt lat="45.63397185826776" lon="8.572533923433658"><ele>269.5</ele><time>2026-04-19T15:24:22.016Z</time></trkpt><trkpt lat="45.63383457852999" lon="8.572522201441862"><ele>269.25</ele><time>2026-04-19T15:24:23.016Z</time></trkpt><trkpt lat="45.63369197910455" lon="8.572556463710661"><ele>269.0</ele><time>2026-04-19T15:24:24.016Z</time></trkpt><trkpt lat="45.63355443037816" lon="8.572636655567656"><ele>269.0</ele><time>2026-04-19T15:24:25.016Z</time></trkpt><trkpt lat="45.63342078602238" lon="8.572751211968104"><ele>269.0</ele><time>2026-04-19T15:24:26.016Z</time></trkpt><trkpt lat="45.63328613754181" lon="8.57287371307668"><ele>269.0</ele><time>2026-04-19T15:24:27.016Z</time></trkpt><trkpt lat="45.63314657643304" lon="8.572994291080851"><ele>269.0</ele><time>2026-04-19T15:24:28.016Z</time></trkpt><trkpt lat="45.6330045388395" lon="8.573112132195055"><ele>269.0</ele><time>2026-04-19T15:24:29.016Z</time></trkpt><trkpt lat="45.63286134416991" lon="8.573233542514599"><ele>269.0</ele><time>2026-04-19T15:24:30.016Z</time></trkpt><trkpt lat="45.63271494721706" lon="8.573358566079701"><ele>268.6666666666667</ele><time>2026-04-19T15:24:31.016Z</time></trkpt><trkpt lat="45.632568423548626" lon="8.573485180276943"><ele>268.3333333333333</ele><time>2026-04-19T15:24:32.016Z</time></trkpt><trkpt lat="45.63242163057028" lon="8.573615324890572"><ele>268.0</ele><time>2026-04-19T15:24:33.016Z</time></trkpt><trkpt lat="45.632279677176896" lon="8.57374029478865"><ele>268.0</ele><time>2026-04-19T15:24:34.016Z</time></trkpt><trkpt lat="45.632142306663305" lon="8.573860636572887"><ele>268.0</ele><time>2026-04-19T15:24:35.016Z</time></trkpt><trkpt lat="45.63201171809301" lon="8.573987322088596"><ele>268.0</ele><time>2026-04-19T15:24:36.016Z</time></trkpt><trkpt lat="45.631891686280554" lon="8.57412993882278"><ele>268.0</ele><time>2026-04-19T15:24:37.016Z</time></trkpt><trkpt lat="45.63179570751777" lon="8.574289740386586"><ele>268.0</ele><time>2026-04-19T15:24:38.016Z</time></trkpt><trkpt lat="45.631707233156554" lon="8.57444832895323"><ele>268.0</ele><time>2026-04-19T15:24:39.016Z</time></trkpt><trkpt lat="45.63160398595663" lon="8.574591265070675"><ele>268.0</ele><time>2026-04-19T15:24:40.016Z</time></trkpt><trkpt lat="45.63147812253277" lon="8.574710856663472"><ele>268.0</ele><time>2026-04-19T15:24:41.016Z</time></trkpt><trkpt lat="45.631339489042205" lon="8.574808589574033"><ele>268.0</ele><time>2026-04-19T15:24:42.017Z</time></trkpt><trkpt lat="45.63119144134681" lon="8.574894941783839"><ele>268.0</ele><time>2026-04-19T15:24:43.017Z</time></trkpt><trkpt lat="45.63104177702896" lon="8.57498396338793"><ele>267.0</ele><time>2026-04-19T15:24:44.017Z</time></trkpt><trkpt lat="45.63089176193956" lon="8.575081843617815"><ele>266.0</ele><time>2026-04-19T15:24:45.017Z</time></trkpt><trkpt lat="45.630739632388774" lon="8.575182678588051"><ele>265.0</ele><time>2026-04-19T15:24:46.017Z</time></trkpt><trkpt lat="45.630589388939136" lon="8.57528685551404"><ele>265.0</ele><time>2026-04-19T15:24:47.017Z</time></trkpt><trkpt lat="45.63044621029973" lon="8.575409723183187"><ele>265.0</ele><time>2026-04-19T15:24:48.017Z</time></trkpt><trkpt lat="45.630311532487916" lon="8.575552094100775"><ele>265.0</ele><time>2026-04-19T15:24:49.017Z</time></trkpt><trkpt lat="45.6301724522827" lon="8.575688526686701"><ele>265.0</ele><time>2026-04-19T15:24:50.017Z</time></trkpt><trkpt lat="45.63002468908727" lon="8.575795160437629"><ele>265.0</ele><time>2026-04-19T15:24:51.017Z</time></trkpt><trkpt lat="45.62987338690723" lon="8.575888695488734"><ele>265.0</ele><time>2026-04-19T15:24:52.017Z</time></trkpt><trkpt lat="45.62972198413089" lon="8.57598353294946"><ele>265.0</ele><time>2026-04-19T15:24:53.017Z</time></trkpt><trkpt lat="45.62957717237105" lon="8.576077917926234"><ele>265.0</ele><time>2026-04-19T15:24:54.017Z</time></trkpt><trkpt lat="45.629434567884594" lon="8.576172492734164"><ele>265.0</ele><time>2026-04-19T15:24:55.017Z</time></trkpt><trkpt lat="45.629292068585066" lon="8.576269049410742"><ele>264.75</ele><time>2026-04-19T15:24:56.017Z</time></trkpt><trkpt lat="45.629154402770666" lon="8.57636735542531"><ele>264.5</ele><time>2026-04-19T15:24:57.017Z</time></trkpt><trkpt lat="45.62902519501697" lon="8.576459837482965"><ele>264.25</ele><time>2026-04-19T15:24:58.017Z</time></trkpt><trkpt lat="45.62890911336594" lon="8.576553406173641"><ele>264.0</ele><time>2026-04-19T15:24:59.017Z</time></trkpt><trkpt lat="45.628819432441695" lon="8.5766646780899"><ele>264.0</ele><time>2026-04-19T15:25:00.017Z</time></trkpt><trkpt lat="45.62876697399961" lon="8.576800027495398"><ele>264.0</ele><time>2026-04-19T15:25:01.017Z</time></trkpt><trkpt lat="45.62874906833174" lon="8.576962731996288"><ele>264.0</ele><time>2026-04-19T15:25:02.017Z</time></trkpt><trkpt lat="45.62876318691851" lon="8.57713517970336"><ele>264.0</ele><time>2026-04-19T15:25:03.017Z</time></trkpt><trkpt lat="45.6287928650408" lon="8.577311808853175"><ele>264.75</ele><time>2026-04-19T15:25:04.017Z</time></trkpt><trkpt lat="45.62881678016377" lon="8.577496378916113"><ele>265.5</ele><time>2026-04-19T15:25:05.017Z</time></trkpt><trkpt lat="45.628833164186965" lon="8.577688597989033"><ele>266.25</ele><time>2026-04-19T15:25:06.017Z</time></trkpt><trkpt lat="45.62884662410245" lon="8.577884147127298"><ele>267.0</ele><time>2026-04-19T15:25:07.017Z</time></trkpt><trkpt lat="45.62886783091006" lon="8.578083651208901"><ele>268.5</ele><time>2026-04-19T15:25:08.017Z</time></trkpt><trkpt lat="45.62888531015104" lon="8.578285602020962"><ele>270.0</ele><time>2026-04-19T15:25:09.017Z</time></trkpt><trkpt lat="45.62890424027576" lon="8.578484547709268"><ele>271.5</ele><time>2026-04-19T15:25:10.017Z</time></trkpt><trkpt lat="45.628928216132806" lon="8.57867928644672"><ele>273.0</ele><time>2026-04-19T15:25:11.017Z</time></trkpt><trkpt lat="45.62895455857637" lon="8.578867617592692"><ele>273.5</ele><time>2026-04-19T15:25:12.017Z</time></trkpt><trkpt lat="45.62898420347727" lon="8.579047426066401"><ele>274.0</ele><time>2026-04-19T15:25:13.017Z</time></trkpt><trkpt lat="45.62901783737148" lon="8.579216815083296"><ele>274.5</ele><time>2026-04-19T15:25:14.017Z</time></trkpt><trkpt lat="45.62904813222894" lon="8.579379712389471"><ele>275.0</ele><time>2026-04-19T15:25:15.018Z</time></trkpt><trkpt lat="45.62906918527607" lon="8.579545076097043"><ele>275.0</ele><time>2026-04-19T15:25:16.018Z</time></trkpt><trkpt lat="45.62906476699071" lon="8.579724249434717"><ele>275.0</ele><time>2026-04-19T15:25:17.018Z</time></trkpt><trkpt lat="45.62903654878951" lon="8.579908425483563"><ele>275.0</ele><time>2026-04-19T15:25:18.018Z</time></trkpt><trkpt lat="45.62899198603761" lon="8.580096695314333"><ele>275.0</ele><time>2026-04-19T15:25:19.018Z</time></trkpt><trkpt lat="45.628942868845975" lon="8.580294051944716"><ele>274.0</ele><time>2026-04-19T15:25:20.018Z</time></trkpt><trkpt lat="45.62889862781377" lon="8.58050155209659"><ele>273.0</ele><time>2026-04-19T15:25:21.018Z</time></trkpt><trkpt lat="45.62885782400526" lon="8.580719864064562"><ele>272.0</ele><time>2026-04-19T15:25:22.018Z</time></trkpt><trkpt lat="45.62881264410429" lon="8.580944345653425"><ele>272.0</ele><time>2026-04-19T15:25:23.018Z</time></trkpt><trkpt lat="45.62876686335927" lon="8.581171283071852"><ele>272.0</ele><time>2026-04-19T15:25:24.018Z</time></trkpt><trkpt lat="45.62872210452119" lon="8.581402336894751"><ele>272.0</ele><time>2026-04-19T15:25:25.018Z</time></trkpt><trkpt lat="45.62867593051535" lon="8.581632501271727"><ele>271.33333333333337</ele><time>2026-04-19T15:25:26.018Z</time></trkpt><trkpt lat="45.6286308905769" lon="8.581856407580437"><ele>270.6666666666667</ele><time>2026-04-19T15:25:27.018Z</time></trkpt><trkpt lat="45.62858496013288" lon="8.582077099316837"><ele>270.0</ele><time>2026-04-19T15:25:28.016Z</time></trkpt><trkpt lat="45.628539886984996" lon="8.582288688558585"><ele>269.75</ele><time>2026-04-19T15:25:29.015Z</time></trkpt><trkpt lat="45.62849601857546" lon="8.582490486814534"><ele>269.5</ele><time>2026-04-19T15:25:30.015Z</time></trkpt><trkpt lat="45.62846129542137" lon="8.582679878341349"><ele>269.25</ele><time>2026-04-19T15:25:31.016Z</time></trkpt><trkpt lat="45.628431012580165" lon="8.582850852834545"><ele>269.0</ele><time>2026-04-19T15:25:32.016Z</time></trkpt><trkpt lat="45.62838511272609" lon="8.582994209119953"><ele>269.0</ele><time>2026-04-19T15:25:33.016Z</time></trkpt><trkpt lat="45.628314966721945" lon="8.583094710880236"><ele>269.0</ele><time>2026-04-19T15:25:34.015Z</time></trkpt><trkpt lat="45.62822525249746" lon="8.58315756890187"><ele>269.0</ele><time>2026-04-19T15:25:35.015Z</time></trkpt><trkpt lat="45.628131384348464" lon="8.583206972889446"><ele>269.0</ele><time>2026-04-19T15:25:36.016Z</time></trkpt><trkpt lat="45.62802893922347" lon="8.583259762941971"><ele>269.0</ele><time>2026-04-19T15:25:37.015Z</time></trkpt><trkpt lat="45.6279212449422" lon="8.583320099347528"><ele>269.0</ele><time>2026-04-19T15:25:38.015Z</time></trkpt><trkpt lat="45.627815415403425" lon="8.583385812239074"><ele>269.0</ele><time>2026-04-19T15:25:39.015Z</time></trkpt><trkpt lat="45.62771875638982" lon="8.583470879267244"><ele>269.0</ele><time>2026-04-19T15:25:40.015Z</time></trkpt><trkpt lat="45.627659535498545" lon="8.583582775912177"><ele>269.0</ele><time>2026-04-19T15:25:41.015Z</time></trkpt><trkpt lat="45.62763290100689" lon="8.583699575005145"><ele>269.0</ele><time>2026-04-19T15:25:42.015Z</time></trkpt><trkpt lat="45.62763159188662" lon="8.583837722823285"><ele>268.59999999999997</ele><time>2026-04-19T15:25:43.015Z</time></trkpt><trkpt lat="45.627656371268394" lon="8.58397023840047"><ele>268.2</ele><time>2026-04-19T15:25:44.015Z</time></trkpt><trkpt lat="45.62769290910431" lon="8.584099618323581"><ele>267.79999999999995</ele><time>2026-04-19T15:25:45.015Z</time></trkpt><trkpt lat="45.62772941847668" lon="8.5842334898863"><ele>267.4</ele><time>2026-04-19T15:25:46.015Z</time></trkpt><trkpt lat="45.627762460201055" lon="8.584366180404215"><ele>267.0</ele><time>2026-04-19T15:25:47.015Z</time></trkpt><trkpt lat="45.627791425853744" lon="8.58448334134034"><ele>269.4</ele><time>2026-04-19T15:25:48.015Z</time></trkpt><trkpt lat="45.62782305734044" lon="8.584610989386174"><ele>271.79999999999995</ele><time>2026-04-19T15:25:49.015Z</time></trkpt><trkpt lat="45.62785823980996" lon="8.584745728676193"><ele>274.2</ele><time>2026-04-19T15:25:50.015Z</time></trkpt><trkpt lat="45.62789448911512" lon="8.584887857219801"><ele>276.59999999999997</ele><time>2026-04-19T15:25:51.015Z</time></trkpt><trkpt lat="45.627931746794594" lon="8.585041446596115"><ele>279.0</ele><time>2026-04-19T15:25:52.015Z</time></trkpt><trkpt lat="45.62797109972327" lon="8.58520034627573"><ele>280.5</ele><time>2026-04-19T15:25:53.015Z</time></trkpt><trkpt lat="45.628011081435645" lon="8.585363497180378"><ele>282.0</ele><time>2026-04-19T15:25:54.015Z</time></trkpt><trkpt lat="45.62805080324773" lon="8.585529793079413"><ele>283.5</ele><time>2026-04-19T15:25:55.015Z</time></trkpt><trkpt lat="45.628088169191756" lon="8.585699335574702"><ele>285.0</ele><time>2026-04-19T15:25:56.015Z</time></trkpt><trkpt lat="45.62812936514712" lon="8.585865557863306"><ele>285.0</ele><time>2026-04-19T15:25:57.015Z</time></trkpt><trkpt lat="45.62816787951907" lon="8.586021864001763"><ele>285.0</ele><time>2026-04-19T15:25:58.015Z</time></trkpt><trkpt lat="45.62818459550429" lon="8.586163594403965"><ele>285.0</ele><time>2026-04-19T15:25:59.015Z</time></trkpt><trkpt lat="45.628174823519835" lon="8.58630260037044"><ele>285.0</ele><time>2026-04-19T15:26:00.015Z</time></trkpt><trkpt lat="45.628149951198566" lon="8.586442649255472"><ele>285.0</ele><time>2026-04-19T15:26:01.015Z</time></trkpt><trkpt lat="45.628117670848546" lon="8.58658801035434"><ele>286.0</ele><time>2026-04-19T15:26:02.015Z</time></trkpt><trkpt lat="45.62807316772405" lon="8.586730520608691"><ele>287.0</ele><time>2026-04-19T15:26:03.015Z</time></trkpt><trkpt lat="45.628006755374635" lon="8.586863465767484"><ele>288.0</ele><time>2026-04-19T15:26:04.015Z</time></trkpt><trkpt lat="45.6279287778218" lon="8.586984665144984"><ele>289.0</ele><time>2026-04-19T15:26:05.015Z</time></trkpt><trkpt lat="45.62784766957236" lon="8.587085074188513"><ele>290.0</ele><time>2026-04-19T15:26:06.016Z</time></trkpt><trkpt lat="45.62776175762903" lon="8.58716317866976"><ele>290.0</ele><time>2026-04-19T15:26:07.016Z</time></trkpt><trkpt lat="45.62766925688787" lon="8.587214129209034"><ele>290.0</ele><time>2026-04-19T15:26:08.016Z</time></trkpt><trkpt lat="45.627565286028386" lon="8.58723576949128"><ele>290.0</ele><time>2026-04-19T15:26:09.016Z</time></trkpt><trkpt lat="45.62745591448048" lon="8.587235179369548"><ele>290.0</ele><time>2026-04-19T15:26:10.016Z</time></trkpt><trkpt lat="45.62734575283571" lon="8.587234299885859"><ele>290.0</ele><time>2026-04-19T15:26:11.016Z</time></trkpt><trkpt lat="45.627235526215955" lon="8.587236951598305"><ele>290.0</ele><time>2026-04-19T15:26:12.016Z</time></trkpt><trkpt lat="45.627136199901436" lon="8.587253320571882"><ele>290.0</ele><time>2026-04-19T15:26:13.016Z</time></trkpt><trkpt lat="45.62704916452486" lon="8.587310359747931"><ele>290.0</ele><time>2026-04-19T15:26:14.016Z</time></trkpt><trkpt lat="45.626981026004735" lon="8.587411895744362"><ele>290.0</ele><time>2026-04-19T15:26:15.016Z</time></trkpt><trkpt lat="45.62693747940599" lon="8.587555508443575"><ele>290.0</ele><time>2026-04-19T15:26:16.016Z</time></trkpt><trkpt lat="45.626916328544574" lon="8.587720310977192"><ele>289.5</ele><time>2026-04-19T15:26:17.016Z</time></trkpt><trkpt lat="45.62689431111157" lon="8.587900129528323"><ele>289.0</ele><time>2026-04-19T15:26:18.016Z</time></trkpt><trkpt lat="45.62686529447263" lon="8.588082995585403"><ele>288.5</ele><time>2026-04-19T15:26:19.016Z</time></trkpt><trkpt lat="45.6268381706823" lon="8.588272669374787"><ele>288.0</ele><time>2026-04-19T15:26:20.016Z</time></trkpt><trkpt lat="45.626814034505" lon="8.588466035111024"><ele>288.0</ele><time>2026-04-19T15:26:21.016Z</time></trkpt><trkpt lat="45.6267882977565" lon="8.58865849063707"><ele>288.0</ele><time>2026-04-19T15:26:22.016Z</time></trkpt><trkpt lat="45.6267643536595" lon="8.58884123943128"><ele>288.0</ele><time>2026-04-19T15:26:23.016Z</time></trkpt><trkpt lat="45.626734619483614" lon="8.589021216459964"><ele>288.0</ele><time>2026-04-19T15:26:24.016Z</time></trkpt><trkpt lat="45.62670429828966" lon="8.589197506206569"><ele>288.5</ele><time>2026-04-19T15:26:25.016Z</time></trkpt><trkpt lat="45.62667873749128" lon="8.589377125344763"><ele>289.0</ele><time>2026-04-19T15:26:26.016Z</time></trkpt><trkpt lat="45.6266585787226" lon="8.589561687851395"><ele>289.5</ele><time>2026-04-19T15:26:27.016Z</time></trkpt><trkpt lat="45.6266322007395" lon="8.589742520802167"><ele>290.0</ele><time>2026-04-19T15:26:28.016Z</time></trkpt><trkpt lat="45.62660002111467" lon="8.589907582391215"><ele>290.0</ele><time>2026-04-19T15:26:29.016Z</time></trkpt><trkpt lat="45.62656061261108" lon="8.590070206428253"><ele>290.0</ele><time>2026-04-19T15:26:30.016Z</time></trkpt><trkpt lat="45.62652050392808" lon="8.59024359961837"><ele>290.0</ele><time>2026-04-19T15:26:31.016Z</time></trkpt><trkpt lat="45.62647784977319" lon="8.59042475425941"><ele>290.0</ele><time>2026-04-19T15:26:32.016Z</time></trkpt><trkpt lat="45.62643488045825" lon="8.590614463072098"><ele>289.0</ele><time>2026-04-19T15:26:33.016Z</time></trkpt><trkpt lat="45.62639222934106" lon="8.590803126911663"><ele>288.0</ele><time>2026-04-19T15:26:34.016Z</time></trkpt><trkpt lat="45.626346600879614" lon="8.590980766321783"><ele>287.0</ele><time>2026-04-19T15:26:35.016Z</time></trkpt><trkpt lat="45.62632311361153" lon="8.591168415002809"><ele>286.0</ele><time>2026-04-19T15:26:36.016Z</time></trkpt><trkpt lat="45.62632435316341" lon="8.591362070139638"><ele>285.0</ele><time>2026-04-19T15:26:37.016Z</time></trkpt><trkpt lat="45.626338838645744" lon="8.591554804888782"><ele>284.0</ele><time>2026-04-19T15:26:38.016Z</time></trkpt><trkpt lat="45.62634533345766" lon="8.5917435897254"><ele>283.0</ele><time>2026-04-19T15:26:39.016Z</time></trkpt><trkpt lat="45.62635076927021" lon="8.591927542099642"><ele>282.0</ele><time>2026-04-19T15:26:40.017Z</time></trkpt><trkpt lat="45.62635001689631" lon="8.592099173703792"><ele>282.0</ele><time>2026-04-19T15:26:41.017Z</time></trkpt><trkpt lat="45.626320585877" lon="8.592237980423697"><ele>282.0</ele><time>2026-04-19T15:26:42.017Z</time></trkpt><trkpt lat="45.62625872932519" lon="8.592339789212877"><ele>282.0</ele><time>2026-04-19T15:26:43.017Z</time></trkpt><trkpt lat="45.62617155180228" lon="8.592397271323259"><ele>282.0</ele><time>2026-04-19T15:26:44.017Z</time></trkpt><trkpt lat="45.62607872757203" lon="8.592456322871255"><ele>282.0</ele><time>2026-04-19T15:26:45.017Z</time></trkpt><trkpt lat="45.625993491991785" lon="8.59254917314946"><ele>282.2</ele><time>2026-04-19T15:26:46.017Z</time></trkpt><trkpt lat="45.6259144369259" lon="8.592677192509912"><ele>282.4</ele><time>2026-04-19T15:26:47.017Z</time></trkpt><trkpt lat="45.62585509030125" lon="8.592813856595365"><ele>282.6</ele><time>2026-04-19T15:26:48.017Z</time></trkpt><trkpt lat="45.6258290884515" lon="8.59295096183603"><ele>282.8</ele><time>2026-04-19T15:26:49.017Z</time></trkpt><trkpt lat="45.62582870548342" lon="8.593101608309828"><ele>283.0</ele><time>2026-04-19T15:26:50.017Z</time></trkpt><trkpt lat="45.62583790456795" lon="8.593262448083772"><ele>283.0</ele><time>2026-04-19T15:26:51.017Z</time></trkpt><trkpt lat="45.62584803300424" lon="8.593428078461544"><ele>283.0</ele><time>2026-04-19T15:26:52.017Z</time></trkpt><trkpt lat="45.625856035028285" lon="8.593602242646618"><ele>283.0</ele><time>2026-04-19T15:26:53.017Z</time></trkpt><trkpt lat="45.6258662993571" lon="8.593777212463662"><ele>283.0</ele><time>2026-04-19T15:26:54.017Z</time></trkpt><trkpt lat="45.625877648746396" lon="8.59394992159071"><ele>283.0</ele><time>2026-04-19T15:26:55.017Z</time></trkpt><trkpt lat="45.62588504212046" lon="8.594101833383263"><ele>283.0</ele><time>2026-04-19T15:26:56.017Z</time></trkpt><trkpt lat="45.6258815187729" lon="8.594234948220945"><ele>283.0</ele><time>2026-04-19T15:26:57.017Z</time></trkpt><trkpt lat="45.625864468620385" lon="8.594352296305107"><ele>283.0</ele><time>2026-04-19T15:26:58.017Z</time></trkpt><trkpt lat="45.62582555408182" lon="8.594457700420488"><ele>283.0</ele><time>2026-04-19T15:26:59.017Z</time></trkpt><trkpt lat="45.62575953511407" lon="8.594551932935504"><ele>283.0</ele><time>2026-04-19T15:27:00.017Z</time></trkpt><trkpt lat="45.62568396732409" lon="8.59462867679529"><ele>283.0</ele><time>2026-04-19T15:27:01.017Z</time></trkpt><trkpt lat="45.625612524306554" lon="8.594706225333056"><ele>283.0</ele><time>2026-04-19T15:27:02.017Z</time></trkpt><trkpt lat="45.62555607432954" lon="8.59481173642974"><ele>283.0</ele><time>2026-04-19T15:27:03.017Z</time></trkpt><trkpt lat="45.6255283735635" lon="8.594953245382278"><ele>283.0</ele><time>2026-04-19T15:27:04.017Z</time></trkpt><trkpt lat="45.62550925056439" lon="8.595121600479546"><ele>283.0</ele><time>2026-04-19T15:27:05.017Z</time></trkpt><trkpt lat="45.62548403437577" lon="8.595305067201027"><ele>283.0</ele><time>2026-04-19T15:27:06.017Z</time></trkpt><trkpt lat="45.625454193596674" lon="8.59549184382559"><ele>283.0</ele><time>2026-04-19T15:27:07.017Z</time></trkpt><trkpt lat="45.62542248587719" lon="8.595693844137571"><ele>283.0</ele><time>2026-04-19T15:27:08.017Z</time></trkpt><trkpt lat="45.62539100981454" lon="8.595905005974645"><ele>282.3333333333333</ele><time>2026-04-19T15:27:09.017Z</time></trkpt><trkpt lat="45.6253543683531" lon="8.596126339972663"><ele>281.6666666666667</ele><time>2026-04-19T15:27:10.017Z</time></trkpt><trkpt lat="45.62531211862613" lon="8.596358623126449"><ele>281.0</ele><time>2026-04-19T15:27:11.017Z</time></trkpt><trkpt lat="45.62526586333693" lon="8.596600989904353"><ele>279.0</ele><time>2026-04-19T15:27:12.017Z</time></trkpt><trkpt lat="45.62522210790312" lon="8.596851698043546"><ele>277.0</ele><time>2026-04-19T15:27:13.018Z</time></trkpt><trkpt lat="45.625184339240626" lon="8.597097409614785"><ele>275.0</ele><time>2026-04-19T15:27:14.018Z</time></trkpt><trkpt lat="45.62514398424474" lon="8.597350447395355"><ele>271.6666666666667</ele><time>2026-04-19T15:27:15.018Z</time></trkpt><trkpt lat="45.62510050204166" lon="8.597606972442497"><ele>268.3333333333333</ele><time>2026-04-19T15:27:16.018Z</time></trkpt><trkpt lat="45.625054992817425" lon="8.597868218254328"><ele>265.0</ele><time>2026-04-19T15:27:17.018Z</time></trkpt><trkpt lat="45.62501135306176" lon="8.598135184377828"><ele>264.0</ele><time>2026-04-19T15:27:18.018Z</time></trkpt><trkpt lat="45.624969170465384" lon="8.598403511147119"><ele>263.0</ele><time>2026-04-19T15:27:19.018Z</time></trkpt><trkpt lat="45.624925823289715" lon="8.598667818715484"><ele>262.0</ele><time>2026-04-19T15:27:20.018Z</time></trkpt><trkpt lat="45.62488412742197" lon="8.598928162449202"><ele>261.3333333333333</ele><time>2026-04-19T15:27:21.018Z</time></trkpt><trkpt lat="45.624843668138396" lon="8.599178641731106"><ele>260.6666666666667</ele><time>2026-04-19T15:27:22.018Z</time></trkpt><trkpt lat="45.62480447186833" lon="8.599418648381395"><ele>260.0</ele><time>2026-04-19T15:27:23.018Z</time></trkpt><trkpt lat="45.62476769589503" lon="8.59964106557301"><ele>260.0</ele><time>2026-04-19T15:27:24.018Z</time></trkpt><trkpt lat="45.62473471978042" lon="8.599842971014777"><ele>260.0</ele><time>2026-04-19T15:27:25.018Z</time></trkpt><trkpt lat="45.624695359626195" lon="8.600038045398685"><ele>260.0</ele><time>2026-04-19T15:27:26.018Z</time></trkpt><trkpt lat="45.624641893735635" lon="8.600222466547446"><ele>260.0</ele><time>2026-04-19T15:27:27.018Z</time></trkpt><trkpt lat="45.624567894454756" lon="8.600384807353986"><ele>259.0</ele><time>2026-04-19T15:27:28.018Z</time></trkpt><trkpt lat="45.624470920683585" lon="8.600508592118679"><ele>258.0</ele><time>2026-04-19T15:27:29.018Z</time></trkpt><trkpt lat="45.62435394964755" lon="8.600603361677061"><ele>257.0</ele><time>2026-04-19T15:27:30.018Z</time></trkpt><trkpt lat="45.62423579741004" lon="8.60070783063763"><ele>256.0</ele><time>2026-04-19T15:27:31.018Z</time></trkpt><trkpt lat="45.62412560458421" lon="8.600803015051563"><ele>256.0</ele><time>2026-04-19T15:27:32.018Z</time></trkpt><trkpt lat="45.624020750623274" lon="8.600892747159875"><ele>256.0</ele><time>2026-04-19T15:27:33.018Z</time></trkpt><trkpt lat="45.623927210938255" lon="8.600982644548841"><ele>256.0</ele><time>2026-04-19T15:27:34.016Z</time></trkpt><trkpt lat="45.62386329923083" lon="8.601082241059274"><ele>256.0</ele><time>2026-04-19T15:27:35.016Z</time></trkpt><trkpt lat="45.623832586558144" lon="8.601205680322897"><ele>256.0</ele><time>2026-04-19T15:27:36.016Z</time></trkpt><trkpt lat="45.62383518891944" lon="8.601345635987606"><ele>256.2</ele><time>2026-04-19T15:27:37.016Z</time></trkpt><trkpt lat="45.62383695711705" lon="8.601493469691288"><ele>256.40000000000003</ele><time>2026-04-19T15:27:38.015Z</time></trkpt><trkpt lat="45.62384178368368" lon="8.601624340408055"><ele>256.6</ele><time>2026-04-19T15:27:39.015Z</time></trkpt><trkpt lat="45.62383871689297" lon="8.6017539757274"><ele>256.8</ele><time>2026-04-19T15:27:40.016Z</time></trkpt><trkpt lat="45.62381362133048" lon="8.601877568844692"><ele>257.0</ele><time>2026-04-19T15:27:41.016Z</time></trkpt><trkpt lat="45.62376001279162" lon="8.60198338995587"><ele>257.2</ele><time>2026-04-19T15:27:42.016Z</time></trkpt><trkpt lat="45.62367616223925" lon="8.60205639634183"><ele>257.4</ele><time>2026-04-19T15:27:43.016Z</time></trkpt><trkpt lat="45.62357826553514" lon="8.602111984200718"><ele>257.6</ele><time>2026-04-19T15:27:44.015Z</time></trkpt><trkpt lat="45.623474465173096" lon="8.602188759022026"><ele>257.8</ele><time>2026-04-19T15:27:45.015Z</time></trkpt><trkpt lat="45.62336812909148" lon="8.602290976405536"><ele>258.0</ele><time>2026-04-19T15:27:46.016Z</time></trkpt><trkpt lat="45.623262819962825" lon="8.60239823971078"><ele>257.0</ele><time>2026-04-19T15:27:47.015Z</time></trkpt><trkpt lat="45.6231531989467" lon="8.602491743338296"><ele>256.0</ele><time>2026-04-19T15:27:48.015Z</time></trkpt><trkpt lat="45.62303435047767" lon="8.602577959898804"><ele>255.0</ele><time>2026-04-19T15:27:49.015Z</time></trkpt><trkpt lat="45.62290894162589" lon="8.602651205834237"><ele>254.0</ele><time>2026-04-19T15:27:50.015Z</time></trkpt><trkpt lat="45.622785556668056" lon="8.602728776814219"><ele>253.5</ele><time>2026-04-19T15:27:51.015Z</time></trkpt><trkpt lat="45.62266593049033" lon="8.60281001435164"><ele>253.0</ele><time>2026-04-19T15:27:52.015Z</time></trkpt><trkpt lat="45.62254752368379" lon="8.60289041625923"><ele>252.5</ele><time>2026-04-19T15:27:53.015Z</time></trkpt><trkpt lat="45.6224335761006" lon="8.602971682189033"><ele>252.0</ele><time>2026-04-19T15:27:54.015Z</time></trkpt><trkpt lat="45.62231968295622" lon="8.603050296117019"><ele>252.6</ele><time>2026-04-19T15:27:55.015Z</time></trkpt><trkpt lat="45.6222184893225" lon="8.603109607044855"><ele>253.2</ele><time>2026-04-19T15:27:56.015Z</time></trkpt><trkpt lat="45.622122551995744" lon="8.603160719234028"><ele>253.8</ele><time>2026-04-19T15:27:57.015Z</time></trkpt><trkpt lat="45.62203328264552" lon="8.603207609207717"><ele>254.4</ele><time>2026-04-19T15:27:58.016Z</time></trkpt><trkpt lat="45.621951238615274" lon="8.603250438351887"><ele>255.0</ele><time>2026-04-19T15:27:59.016Z</time></trkpt><trkpt lat="45.62187553677169" lon="8.603296876333426"><ele>255.0</ele><time>2026-04-19T15:28:00.016Z</time></trkpt><trkpt lat="45.62180128602064" lon="8.603345059995688"><ele>255.0</ele><time>2026-04-19T15:28:01.016Z</time></trkpt><trkpt lat="45.621728762831474" lon="8.603379812810552"><ele>255.0</ele><time>2026-04-19T15:28:02.016Z</time></trkpt><trkpt lat="45.62166156323493" lon="8.603416683353231"><ele>255.0</ele><time>2026-04-19T15:28:03.016Z</time></trkpt><trkpt lat="45.62159506939659" lon="8.603456080835219"><ele>255.0</ele><time>2026-04-19T15:28:04.016Z</time></trkpt><trkpt lat="45.621519954938385" lon="8.603502680937313"><ele>255.0</ele><time>2026-04-19T15:28:05.016Z</time></trkpt><trkpt lat="45.621442579437215" lon="8.603553844373081"><ele>255.0</ele><time>2026-04-19T15:28:06.016Z</time></trkpt><trkpt lat="45.621361626899734" lon="8.603602150560059"><ele>255.0</ele><time>2026-04-19T15:28:07.016Z</time></trkpt><trkpt lat="45.62127033460933" lon="8.603647819085754"><ele>255.0</ele><time>2026-04-19T15:28:08.016Z</time></trkpt><trkpt lat="45.62117579869386" lon="8.603695150092806"><ele>255.0</ele><time>2026-04-19T15:28:09.016Z</time></trkpt><trkpt lat="45.62107384023811" lon="8.60373195087658"><ele>255.0</ele><time>2026-04-19T15:28:10.016Z</time></trkpt><trkpt lat="45.62098569399456" lon="8.603762354884184"><ele>255.33333333333334</ele><time>2026-04-19T15:28:11.016Z</time></trkpt><trkpt lat="45.62090648786816" lon="8.603790313690052"><ele>255.66666666666669</ele><time>2026-04-19T15:28:12.016Z</time></trkpt><trkpt lat="45.62082762135199" lon="8.60383301297614"><ele>256.0</ele><time>2026-04-19T15:28:13.016Z</time></trkpt><trkpt lat="45.620751250313155" lon="8.603856016924556"><ele>256.33333333333337</ele><time>2026-04-19T15:28:14.016Z</time></trkpt><trkpt lat="45.62067025590682" lon="8.60385607249005"><ele>256.6666666666667</ele><time>2026-04-19T15:28:15.016Z</time></trkpt><trkpt lat="45.62058852464797" lon="8.603861693206898"><ele>257.0</ele><time>2026-04-19T15:28:16.016Z</time></trkpt><trkpt lat="45.620508825260906" lon="8.603867270792211"><ele>257.0</ele><time>2026-04-19T15:28:17.016Z</time></trkpt><trkpt lat="45.62043534337243" lon="8.603881914196934"><ele>257.0</ele><time>2026-04-19T15:28:18.016Z</time></trkpt><trkpt lat="45.62035518758098" lon="8.603894824294885"><ele>257.0</ele><time>2026-04-19T15:28:19.016Z</time></trkpt><trkpt lat="45.62027328907884" lon="8.60391997619945"><ele>257.0</ele><time>2026-04-19T15:28:20.016Z</time></trkpt><trkpt lat="45.62019544766532" lon="8.60393893123097"><ele>257.0</ele><time>2026-04-19T15:28:21.016Z</time></trkpt><trkpt lat="45.620103997452624" lon="8.603950334430348"><ele>257.0</ele><time>2026-04-19T15:28:22.016Z</time></trkpt><trkpt lat="45.620015723464256" lon="8.603984993101522"><ele>256.6</ele><time>2026-04-19T15:28:23.016Z</time></trkpt><trkpt lat="45.619926711179026" lon="8.60402680923822"><ele>256.2</ele><time>2026-04-19T15:28:24.016Z</time></trkpt><trkpt lat="45.61983162351778" lon="8.604089093624598"><ele>255.8</ele><time>2026-04-19T15:28:25.016Z</time></trkpt><trkpt lat="45.619738212647945" lon="8.604132896248668"><ele>255.4</ele><time>2026-04-19T15:28:26.016Z</time></trkpt><trkpt lat="45.619642726255805" lon="8.604174357113223"><ele>255.0</ele><time>2026-04-19T15:28:27.016Z</time></trkpt><trkpt lat="45.61956118679865" lon="8.604220639450114"><ele>255.0</ele><time>2026-04-19T15:28:28.016Z</time></trkpt><trkpt lat="45.619492385902035" lon="8.604266901316812"><ele>255.0</ele><time>2026-04-19T15:28:29.016Z</time></trkpt><trkpt lat="45.619428831864994" lon="8.604304377873053"><ele>255.0</ele><time>2026-04-19T15:28:30.016Z</time></trkpt><trkpt lat="45.619366128795164" lon="8.604342069760571"><ele>255.0</ele><time>2026-04-19T15:28:31.017Z</time></trkpt><trkpt lat="45.619252949466365" lon="8.604406108496102"><ele>255.0</ele><time>2026-04-19T15:28:33.017Z</time></trkpt><trkpt lat="45.6191955540568" lon="8.604451368519278"><ele>255.0</ele><time>2026-04-19T15:28:34.017Z</time></trkpt><trkpt lat="45.61913788621778" lon="8.604512438476725"><ele>254.66666666666666</ele><time>2026-04-19T15:28:35.017Z</time></trkpt><trkpt lat="45.619051532852026" lon="8.604561990970089"><ele>254.33333333333331</ele><time>2026-04-19T15:28:36.017Z</time></trkpt><trkpt lat="45.61896892843308" lon="8.604616034006758"><ele>254.0</ele><time>2026-04-19T15:28:37.017Z</time></trkpt><trkpt lat="45.618887224085796" lon="8.604672895575561"><ele>253.66666666666666</ele><time>2026-04-19T15:28:38.017Z</time></trkpt><trkpt lat="45.61880795525897" lon="8.604707668130393"><ele>253.33333333333331</ele><time>2026-04-19T15:28:39.017Z</time></trkpt><trkpt lat="45.61872899198837" lon="8.604735261875115"><ele>253.0</ele><time>2026-04-19T15:28:40.017Z</time></trkpt><trkpt lat="45.61864145020357" lon="8.604766247979557"><ele>252.83333333333331</ele><time>2026-04-19T15:28:41.017Z</time></trkpt><trkpt lat="45.61855835906226" lon="8.604798306805037"><ele>252.66666666666666</ele><time>2026-04-19T15:28:42.017Z</time></trkpt><trkpt lat="45.61847569259003" lon="8.604842668694186"><ele>252.5</ele><time>2026-04-19T15:28:43.017Z</time></trkpt><trkpt lat="45.61839668290035" lon="8.604869413566396"><ele>252.33333333333331</ele><time>2026-04-19T15:28:44.017Z</time></trkpt><trkpt lat="45.61831253788853" lon="8.604908186928359"><ele>252.16666666666666</ele><time>2026-04-19T15:28:45.017Z</time></trkpt><trkpt lat="45.61823023345613" lon="8.60493914579075"><ele>252.0</ele><time>2026-04-19T15:28:46.017Z</time></trkpt><trkpt lat="45.618150160055606" lon="8.60495879300783"><ele>252.0</ele><time>2026-04-19T15:28:47.017Z</time></trkpt><trkpt lat="45.618053465342804" lon="8.60502153061213"><ele>252.0</ele><time>2026-04-19T15:28:49.017Z</time></trkpt><trkpt lat="45.61803462163938" lon="8.605118009180664"><ele>252.0</ele><time>2026-04-19T15:28:51.017Z</time></trkpt><trkpt lat="45.61805149281058" lon="8.605214696098397"><ele>252.0</ele><time>2026-04-19T15:28:52.017Z</time></trkpt><trkpt lat="45.618085964217194" lon="8.605314601173399"><ele>252.0</ele><time>2026-04-19T15:28:53.017Z</time></trkpt><trkpt lat="45.61810732558787" lon="8.60540925408267"><ele>252.0</ele><time>2026-04-19T15:28:54.017Z</time></trkpt><trkpt lat="45.618144919268794" lon="8.605534600227328"><ele>251.83333333333334</ele><time>2026-04-19T15:28:56.017Z</time></trkpt><trkpt lat="45.61817719505548" lon="8.60565919691921"><ele>251.66666666666669</ele><time>2026-04-19T15:28:58.017Z</time></trkpt><trkpt lat="45.6181968905333" lon="8.605758675465896"><ele>251.5</ele><time>2026-04-19T15:29:00.017Z</time></trkpt><trkpt lat="45.61818869525872" lon="8.605860006245905"><ele>251.33333333333334</ele><time>2026-04-19T15:29:03.017Z</time></trkpt><trkpt lat="45.61809442903199" lon="8.605913090274388"><ele>251.16666666666669</ele><time>2026-04-19T15:29:05.018Z</time></trkpt><trkpt lat="45.618009808445954" lon="8.60591417776346"><ele>251.0</ele><time>2026-04-19T15:29:06.018Z</time></trkpt><trkpt lat="45.61792972052929" lon="8.605954983994208"><ele>251.00000000000003</ele><time>2026-04-19T15:29:07.018Z</time></trkpt><trkpt lat="45.6178492434529" lon="8.60601290048894"><ele>251.0</ele><time>2026-04-19T15:29:08.018Z</time></trkpt><trkpt lat="45.61777664662666" lon="8.606080436881625"><ele>251.0</ele><time>2026-04-19T15:29:09.018Z</time></trkpt><trkpt lat="45.61771623116086" lon="8.606158357728678"><ele>251.0</ele><time>2026-04-19T15:29:10.018Z</time></trkpt><trkpt lat="45.6176722787827" lon="8.606256307229335"><ele>251.00000000000003</ele><time>2026-04-19T15:29:11.018Z</time></trkpt><trkpt lat="45.617652507734114" lon="8.606371669395054"><ele>251.0</ele><time>2026-04-19T15:29:12.018Z</time></trkpt><trkpt lat="45.6176449439765" lon="8.606500934354083"><ele>250.8</ele><time>2026-04-19T15:29:13.018Z</time></trkpt><trkpt lat="45.617658771852504" lon="8.606640242736841"><ele>250.60000000000002</ele><time>2026-04-19T15:29:14.018Z</time></trkpt><trkpt lat="45.61766132415079" lon="8.60677743053528"><ele>250.4</ele><time>2026-04-19T15:29:15.018Z</time></trkpt><trkpt lat="45.617659485271595" lon="8.606908660687536"><ele>250.2</ele><time>2026-04-19T15:29:16.018Z</time></trkpt><trkpt lat="45.617652750114445" lon="8.607034352349023"><ele>250.0</ele><time>2026-04-19T15:29:17.018Z</time></trkpt><trkpt lat="45.617634116705126" lon="8.607161588065681"><ele>249.4</ele><time>2026-04-19T15:29:18.018Z</time></trkpt><trkpt lat="45.617614617536375" lon="8.60728275995903"><ele>248.8</ele><time>2026-04-19T15:29:19.018Z</time></trkpt><trkpt lat="45.61759758973047" lon="8.60739865790922"><ele>248.2</ele><time>2026-04-19T15:29:20.018Z</time></trkpt><trkpt lat="45.617582371334876" lon="8.607518919205784"><ele>247.6</ele><time>2026-04-19T15:29:21.018Z</time></trkpt><trkpt lat="45.61756806015197" lon="8.60765139173593"><ele>247.0</ele><time>2026-04-19T15:29:22.018Z</time></trkpt><trkpt lat="45.61754814570777" lon="8.607794259600164"><ele>246.25</ele><time>2026-04-19T15:29:23.018Z</time></trkpt><trkpt lat="45.61753141501204" lon="8.607938827221032"><ele>245.5</ele><time>2026-04-19T15:29:24.018Z</time></trkpt><trkpt lat="45.61751598882012" lon="8.608091120535724"><ele>244.75</ele><time>2026-04-19T15:29:25.018Z</time></trkpt><trkpt lat="45.61750744212067" lon="8.60825958846186"><ele>244.0</ele><time>2026-04-19T15:29:26.018Z</time></trkpt><trkpt lat="45.61749991252178" lon="8.60843530129099"><ele>244.0</ele><time>2026-04-19T15:29:27.018Z</time></trkpt><trkpt lat="45.617493434728914" lon="8.608608576811086"><ele>244.0</ele><time>2026-04-19T15:29:28.018Z</time></trkpt><trkpt lat="45.61748575910343" lon="8.608782291605669"><ele>244.0</ele><time>2026-04-19T15:29:29.018Z</time></trkpt><trkpt lat="45.61747944744425" lon="8.608956906139637"><ele>244.0</ele><time>2026-04-19T15:29:30.018Z</time></trkpt><trkpt lat="45.61747844112551" lon="8.609129725202608"><ele>243.5</ele><time>2026-04-19T15:29:31.018Z</time></trkpt><trkpt lat="45.6174862860091" lon="8.609299835870004"><ele>243.0</ele><time>2026-04-19T15:29:32.018Z</time></trkpt><trkpt lat="45.617503921163554" lon="8.609462768683713"><ele>242.5</ele><time>2026-04-19T15:29:33.018Z</time></trkpt><trkpt lat="45.61752597268319" lon="8.609617425289018"><ele>242.0</ele><time>2026-04-19T15:29:34.018Z</time></trkpt><trkpt lat="45.61754746887075" lon="8.60976781411436"><ele>242.0</ele><time>2026-04-19T15:29:35.018Z</time></trkpt><trkpt lat="45.61757081848187" lon="8.60991316926868"><ele>242.0</ele><time>2026-04-19T15:29:36.018Z</time></trkpt><trkpt lat="45.61759083622139" lon="8.6100549788693"><ele>242.0</ele><time>2026-04-19T15:29:37.018Z</time></trkpt><trkpt lat="45.61760638781702" lon="8.610197202329969"><ele>242.0</ele><time>2026-04-19T15:29:38.019Z</time></trkpt><trkpt lat="45.61761527764538" lon="8.610328854941837"><ele>242.0</ele><time>2026-04-19T15:29:39.019Z</time></trkpt><trkpt lat="45.61761444885514" lon="8.610447268751114"><ele>242.00000000000003</ele><time>2026-04-19T15:29:40.016Z</time></trkpt><trkpt lat="45.61760721996449" lon="8.610554136449126"><ele>242.0</ele><time>2026-04-19T15:29:41.016Z</time></trkpt><trkpt lat="45.617581354200325" lon="8.610660102591334"><ele>242.0</ele><time>2026-04-19T15:29:42.016Z</time></trkpt><trkpt lat="45.617540329175235" lon="8.610766916628167"><ele>242.0</ele><time>2026-04-19T15:29:43.016Z</time></trkpt><trkpt lat="45.61748571383257" lon="8.610867464518558"><ele>242.00000000000003</ele><time>2026-04-19T15:29:44.015Z</time></trkpt><trkpt lat="45.61741071749391" lon="8.610948207622682"><ele>242.0</ele><time>2026-04-19T15:29:45.015Z</time></trkpt><trkpt lat="45.61732078529179" lon="8.611011646652932"><ele>242.0</ele><time>2026-04-19T15:29:46.015Z</time></trkpt><trkpt lat="45.61722183823475" lon="8.61106654275494"><ele>242.0</ele><time>2026-04-19T15:29:47.016Z</time></trkpt><trkpt lat="45.61711337819223" lon="8.611121066789321"><ele>242.0</ele><time>2026-04-19T15:29:48.016Z</time></trkpt><trkpt lat="45.61699863589442" lon="8.611187435697012"><ele>242.0</ele><time>2026-04-19T15:29:49.015Z</time></trkpt><trkpt lat="45.616874104684435" lon="8.611268128397924"><ele>241.33333333333334</ele><time>2026-04-19T15:29:50.015Z</time></trkpt><trkpt lat="45.616735704795" lon="8.611368177381843"><ele>240.66666666666669</ele><time>2026-04-19T15:29:51.015Z</time></trkpt><trkpt lat="45.616580824656246" lon="8.611486267502233"><ele>240.0</ele><time>2026-04-19T15:29:52.015Z</time></trkpt><trkpt lat="45.61642479424367" lon="8.611608230192875"><ele>240.0</ele><time>2026-04-19T15:29:53.016Z</time></trkpt><trkpt lat="45.616256923723434" lon="8.611735957502919"><ele>240.0</ele><time>2026-04-19T15:29:54.016Z</time></trkpt><trkpt lat="45.61608603800173" lon="8.611865004074271"><ele>240.0</ele><time>2026-04-19T15:29:55.016Z</time></trkpt><trkpt lat="45.61592741917078" lon="8.61198601806565"><ele>240.0</ele><time>2026-04-19T15:29:56.016Z</time></trkpt><trkpt lat="45.61577740008746" lon="8.612100221633138"><ele>240.0</ele><time>2026-04-19T15:29:57.016Z</time></trkpt><trkpt lat="45.61562535638666" lon="8.612217828020924"><ele>240.0</ele><time>2026-04-19T15:29:58.016Z</time></trkpt><trkpt lat="45.61547314128601" lon="8.61233552798149"><ele>240.0</ele><time>2026-04-19T15:29:59.016Z</time></trkpt><trkpt lat="45.61532869044279" lon="8.612454973866368"><ele>240.0</ele><time>2026-04-19T15:30:00.016Z</time></trkpt><trkpt lat="45.61518528796218" lon="8.61258073800435"><ele>240.0</ele><time>2026-04-19T15:30:01.016Z</time></trkpt><trkpt lat="45.615046314749435" lon="8.612724505580001"><ele>239.66666666666669</ele><time>2026-04-19T15:30:02.016Z</time></trkpt><trkpt lat="45.61491382739832" lon="8.612892489952614"><ele>239.33333333333334</ele><time>2026-04-19T15:30:03.016Z</time></trkpt><trkpt lat="45.61479303188022" lon="8.613064600135102"><ele>239.0</ele><time>2026-04-19T15:30:04.016Z</time></trkpt><trkpt lat="45.61468149428214" lon="8.613238011870443"><ele>239.0</ele><time>2026-04-19T15:30:05.016Z</time></trkpt><trkpt lat="45.61456868855509" lon="8.613413004460352"><ele>239.0</ele><time>2026-04-19T15:30:06.016Z</time></trkpt><trkpt lat="45.614453855761276" lon="8.613590524407131"><ele>239.0</ele><time>2026-04-19T15:30:07.016Z</time></trkpt><trkpt lat="45.61433681216494" lon="8.613770926969673"><ele>239.33333333333334</ele><time>2026-04-19T15:30:08.016Z</time></trkpt><trkpt lat="45.6142201820506" lon="8.613953106506832"><ele>239.66666666666669</ele><time>2026-04-19T15:30:09.016Z</time></trkpt><trkpt lat="45.61410309349109" lon="8.614135975256005"><ele>240.0</ele><time>2026-04-19T15:30:10.016Z</time></trkpt><trkpt lat="45.613984687324674" lon="8.614317146686773"><ele>240.0</ele><time>2026-04-19T15:30:11.016Z</time></trkpt><trkpt lat="45.61386602090506" lon="8.614499504866274"><ele>240.0</ele><time>2026-04-19T15:30:12.016Z</time></trkpt><trkpt lat="45.613746988825746" lon="8.614683132583087"><ele>240.0</ele><time>2026-04-19T15:30:13.016Z</time></trkpt><trkpt lat="45.61362803309609" lon="8.614868062668675"><ele>240.0</ele><time>2026-04-19T15:30:14.016Z</time></trkpt><trkpt lat="45.61350737063792" lon="8.615053805827655"><ele>240.0</ele><time>2026-04-19T15:30:15.016Z</time></trkpt><trkpt lat="45.61338617018224" lon="8.615241969564229"><ele>240.0</ele><time>2026-04-19T15:30:16.016Z</time></trkpt><trkpt lat="45.613263152198314" lon="8.61542875950611"><ele>239.66666666666669</ele><time>2026-04-19T15:30:17.016Z</time></trkpt><trkpt lat="45.61313693754406" lon="8.615622116561381"><ele>239.33333333333334</ele><time>2026-04-19T15:30:18.016Z</time></trkpt><trkpt lat="45.61301145144987" lon="8.615819282284448"><ele>239.0</ele><time>2026-04-19T15:30:19.016Z</time></trkpt><trkpt lat="45.612884987448346" lon="8.616023537905095"><ele>239.33333333333334</ele><time>2026-04-19T15:30:20.016Z</time></trkpt><trkpt lat="45.61275681681572" lon="8.616226858267476"><ele>239.66666666666669</ele><time>2026-04-19T15:30:21.017Z</time></trkpt><trkpt lat="45.612627993679986" lon="8.616425527405797"><ele>240.0</ele><time>2026-04-19T15:30:22.017Z</time></trkpt><trkpt lat="45.61249767546057" lon="8.616628283706214"><ele>240.0</ele><time>2026-04-19T15:30:23.017Z</time></trkpt><trkpt lat="45.61236665623349" lon="8.616832017031456"><ele>240.0</ele><time>2026-04-19T15:30:24.017Z</time></trkpt><trkpt lat="45.612234298575984" lon="8.617034849318213"><ele>240.0</ele><time>2026-04-19T15:30:25.017Z</time></trkpt><trkpt lat="45.6121014060834" lon="8.617234754664977"><ele>239.33333333333331</ele><time>2026-04-19T15:30:26.017Z</time></trkpt><trkpt lat="45.61197054139235" lon="8.617431051367168"><ele>238.66666666666666</ele><time>2026-04-19T15:30:27.017Z</time></trkpt><trkpt lat="45.61184537265514" lon="8.617627394220504"><ele>238.0</ele><time>2026-04-19T15:30:28.017Z</time></trkpt><trkpt lat="45.611717388108566" lon="8.61782212983693"><ele>237.66666666666666</ele><time>2026-04-19T15:30:29.017Z</time></trkpt><trkpt lat="45.61158923288106" lon="8.618019246692777"><ele>237.33333333333331</ele><time>2026-04-19T15:30:30.017Z</time></trkpt><trkpt lat="45.61146033298467" lon="8.618216208115546"><ele>237.0</ele><time>2026-04-19T15:30:31.017Z</time></trkpt><trkpt lat="45.6113320892043" lon="8.618411890571958"><ele>237.0</ele><time>2026-04-19T15:30:32.017Z</time></trkpt><trkpt lat="45.611203722382434" lon="8.618611710926348"><ele>237.0</ele><time>2026-04-19T15:30:33.017Z</time></trkpt><trkpt lat="45.61107412499597" lon="8.61881121430667"><ele>237.0</ele><time>2026-04-19T15:30:34.017Z</time></trkpt><trkpt lat="45.610947308366136" lon="8.619005988691294"><ele>236.66666666666669</ele><time>2026-04-19T15:30:35.017Z</time></trkpt><trkpt lat="45.610820312452866" lon="8.619192600555694"><ele>236.33333333333334</ele><time>2026-04-19T15:30:36.017Z</time></trkpt><trkpt lat="45.610687420604116" lon="8.61937112862476"><ele>236.0</ele><time>2026-04-19T15:30:37.017Z</time></trkpt><trkpt lat="45.61054477925059" lon="8.619534776438371"><ele>236.0</ele><time>2026-04-19T15:30:38.017Z</time></trkpt><trkpt lat="45.610393030163706" lon="8.61968441148652"><ele>236.0</ele><time>2026-04-19T15:30:39.017Z</time></trkpt><trkpt lat="45.61022994674424" lon="8.619815315311351"><ele>236.0</ele><time>2026-04-19T15:30:40.017Z</time></trkpt><trkpt lat="45.61005799140254" lon="8.619926592825175"><ele>236.0</ele><time>2026-04-19T15:30:41.017Z</time></trkpt><trkpt lat="45.60987834342378" lon="8.620021978370584"><ele>236.0</ele><time>2026-04-19T15:30:42.017Z</time></trkpt><trkpt lat="45.60969533330053" lon="8.620106622941702"><ele>236.0</ele><time>2026-04-19T15:30:43.017Z</time></trkpt><trkpt lat="45.609509985434286" lon="8.620191692245076"><ele>235.66666666666669</ele><time>2026-04-19T15:30:44.017Z</time></trkpt><trkpt lat="45.60932462896666" lon="8.620278023808519"><ele>235.33333333333331</ele><time>2026-04-19T15:30:45.017Z</time></trkpt><trkpt lat="45.60913857200134" lon="8.62036422709065"><ele>235.0</ele><time>2026-04-19T15:30:46.017Z</time></trkpt><trkpt lat="45.608954703968095" lon="8.620448970720481"><ele>235.0</ele><time>2026-04-19T15:30:47.017Z</time></trkpt><trkpt lat="45.608772991607864" lon="8.620530979467041"><ele>235.0</ele><time>2026-04-19T15:30:48.017Z</time></trkpt><trkpt lat="45.60859144449166" lon="8.620610221200735"><ele>235.0</ele><time>2026-04-19T15:30:49.017Z</time></trkpt><trkpt lat="45.608409120303236" lon="8.62068941119219"><ele>235.0</ele><time>2026-04-19T15:30:50.017Z</time></trkpt><trkpt lat="45.60822669603369" lon="8.62077298411178"><ele>235.0</ele><time>2026-04-19T15:30:51.017Z</time></trkpt><trkpt lat="45.60804128242015" lon="8.620860563010037"><ele>235.0</ele><time>2026-04-19T15:30:52.017Z</time></trkpt><trkpt lat="45.60785629391076" lon="8.620949974098785"><ele>235.0</ele><time>2026-04-19T15:30:53.017Z</time></trkpt><trkpt lat="45.60767201533437" lon="8.621046335863152"><ele>235.0</ele><time>2026-04-19T15:30:54.018Z</time></trkpt><trkpt lat="45.60749208885863" lon="8.621153365891603"><ele>235.0</ele><time>2026-04-19T15:30:55.018Z</time></trkpt><trkpt lat="45.607314130799146" lon="8.621270605440309"><ele>235.0</ele><time>2026-04-19T15:30:56.018Z</time></trkpt><trkpt lat="45.60713592375171" lon="8.62139064364363"><ele>235.0</ele><time>2026-04-19T15:30:57.018Z</time></trkpt><trkpt lat="45.60695748912211" lon="8.621505148423935"><ele>235.0</ele><time>2026-04-19T15:30:58.018Z</time></trkpt><trkpt lat="45.60677478097377" lon="8.621616138751852"><ele>235.0</ele><time>2026-04-19T15:30:59.018Z</time></trkpt><trkpt lat="45.606591808678765" lon="8.621722831280612"><ele>235.0</ele><time>2026-04-19T15:31:00.018Z</time></trkpt><trkpt lat="45.60640739714725" lon="8.621825790553636"><ele>235.0</ele><time>2026-04-19T15:31:01.018Z</time></trkpt><trkpt lat="45.60622281350799" lon="8.621926195650042"><ele>234.33333333333331</ele><time>2026-04-19T15:31:02.018Z</time></trkpt><trkpt lat="45.60603598942673" lon="8.622017086459328"><ele>233.66666666666669</ele><time>2026-04-19T15:31:03.018Z</time></trkpt><trkpt lat="45.60585047548469" lon="8.62209887987044"><ele>233.0</ele><time>2026-04-19T15:31:04.018Z</time></trkpt><trkpt lat="45.60566617041996" lon="8.62217754864973"><ele>233.0</ele><time>2026-04-19T15:31:05.018Z</time></trkpt><trkpt lat="45.60548328289623" lon="8.622252908682443"><ele>233.0</ele><time>2026-04-19T15:31:06.018Z</time></trkpt><trkpt lat="45.60530211576973" lon="8.62232613787578"><ele>233.0</ele><time>2026-04-19T15:31:07.018Z</time></trkpt><trkpt lat="45.605121914819726" lon="8.622397699444468"><ele>233.33333333333334</ele><time>2026-04-19T15:31:08.018Z</time></trkpt><trkpt lat="45.60494011962439" lon="8.622468909150113"><ele>233.66666666666669</ele><time>2026-04-19T15:31:09.018Z</time></trkpt><trkpt lat="45.60475700206881" lon="8.62253784450297"><ele>234.0</ele><time>2026-04-19T15:31:10.018Z</time></trkpt><trkpt lat="45.6045731358982" lon="8.622609075827057"><ele>233.33333333333331</ele><time>2026-04-19T15:31:11.018Z</time></trkpt><trkpt lat="45.604389957007236" lon="8.622686574309068"><ele>232.66666666666666</ele><time>2026-04-19T15:31:12.018Z</time></trkpt><trkpt lat="45.60420415843093" lon="8.622762928638245"><ele>232.0</ele><time>2026-04-19T15:31:13.018Z</time></trkpt><trkpt lat="45.604017431063866" lon="8.622835134397489"><ele>232.0</ele><time>2026-04-19T15:31:14.018Z</time></trkpt><trkpt lat="45.603834330898934" lon="8.622908451755166"><ele>232.0</ele><time>2026-04-19T15:31:15.018Z</time></trkpt><trkpt lat="45.60365454822515" lon="8.62298550643506"><ele>232.0</ele><time>2026-04-19T15:31:16.018Z</time></trkpt><trkpt lat="45.603476706583116" lon="8.623066229673036"><ele>231.66666666666666</ele><time>2026-04-19T15:31:17.018Z</time></trkpt><trkpt lat="45.60329786648883" lon="8.623146089061516"><ele>231.33333333333331</ele><time>2026-04-19T15:31:18.018Z</time></trkpt><trkpt lat="45.60312151731383" lon="8.623221715833392"><ele>231.0</ele><time>2026-04-19T15:31:19.018Z</time></trkpt><trkpt lat="45.602946733766444" lon="8.623296914975798"><ele>231.33333333333331</ele><time>2026-04-19T15:31:20.018Z</time></trkpt><trkpt lat="45.60277823478384" lon="8.623372056081218"><ele>231.66666666666666</ele><time>2026-04-19T15:31:21.018Z</time></trkpt><trkpt lat="45.60261347788221" lon="8.62344886917034"><ele>232.0</ele><time>2026-04-19T15:31:22.018Z</time></trkpt><trkpt lat="45.60244924699815" lon="8.623526122850338"><ele>232.0</ele><time>2026-04-19T15:31:23.018Z</time></trkpt><trkpt lat="45.602285359138364" lon="8.62359955148751"><ele>232.0</ele><time>2026-04-19T15:31:24.018Z</time></trkpt><trkpt lat="45.60212135794389" lon="8.623673392843259"><ele>232.0</ele><time>2026-04-19T15:31:25.018Z</time></trkpt><trkpt lat="45.601963466043635" lon="8.623747716210644"><ele>232.0</ele><time>2026-04-19T15:31:26.018Z</time></trkpt><trkpt lat="45.6018147450677" lon="8.623816225054034"><ele>232.0</ele><time>2026-04-19T15:31:27.019Z</time></trkpt><trkpt lat="45.60167473796214" lon="8.62387997462527"><ele>232.0</ele><time>2026-04-19T15:31:28.019Z</time></trkpt><trkpt lat="45.601542614351004" lon="8.623942740708223"><ele>232.0</ele><time>2026-04-19T15:31:29.019Z</time></trkpt><trkpt lat="45.601419272673255" lon="8.624005079818387"><ele>232.0</ele><time>2026-04-19T15:31:30.019Z</time></trkpt><trkpt lat="45.60130381600471" lon="8.624061600616143"><ele>232.0</ele><time>2026-04-19T15:31:31.019Z</time></trkpt><trkpt lat="45.60120501977192" lon="8.62411842311299"><ele>232.0</ele><time>2026-04-19T15:31:32.019Z</time></trkpt><trkpt lat="45.60111423314914" lon="8.624160211417678"><ele>232.0</ele><time>2026-04-19T15:31:33.019Z</time></trkpt><trkpt lat="45.60102731129485" lon="8.624193730961624"><ele>232.0</ele><time>2026-04-19T15:31:34.019Z</time></trkpt><trkpt lat="45.60094115209442" lon="8.624229977413949"><ele>231.8</ele><time>2026-04-19T15:31:35.019Z</time></trkpt><trkpt lat="45.600850058697944" lon="8.624273099846981"><ele>231.6</ele><time>2026-04-19T15:31:36.019Z</time></trkpt><trkpt lat="45.60074955102125" lon="8.6243183987248"><ele>231.40000000000003</ele><time>2026-04-19T15:31:37.019Z</time></trkpt><trkpt lat="45.600640076119745" lon="8.624360100943083"><ele>231.20000000000002</ele><time>2026-04-19T15:31:38.019Z</time></trkpt><trkpt lat="45.600525443554766" lon="8.624407567880306"><ele>231.0</ele><time>2026-04-19T15:31:39.019Z</time></trkpt><trkpt lat="45.600408455504194" lon="8.62445725704561"><ele>231.25</ele><time>2026-04-19T15:31:40.019Z</time></trkpt><trkpt lat="45.60028589633346" lon="8.624510086411519"><ele>231.5</ele><time>2026-04-19T15:31:41.019Z</time></trkpt><trkpt lat="45.60016115215768" lon="8.624562669422337"><ele>231.75</ele><time>2026-04-19T15:31:42.019Z</time></trkpt><trkpt lat="45.60004594036826" lon="8.624604795555188"><ele>232.0</ele><time>2026-04-19T15:31:43.019Z</time></trkpt><trkpt lat="45.59992896747882" lon="8.624654110591008"><ele>232.0</ele><time>2026-04-19T15:31:44.019Z</time></trkpt><trkpt lat="45.599813458767414" lon="8.624695485362405"><ele>232.0</ele><time>2026-04-19T15:31:45.019Z</time></trkpt><trkpt lat="45.59970725507215" lon="8.624728912415966"><ele>232.0</ele><time>2026-04-19T15:31:46.015Z</time></trkpt><trkpt lat="45.59960815422274" lon="8.624775726497557"><ele>232.0</ele><time>2026-04-19T15:31:47.016Z</time></trkpt><trkpt lat="45.59951508041816" lon="8.624818328279819"><ele>232.0</ele><time>2026-04-19T15:31:48.016Z</time></trkpt><trkpt lat="45.59943074260707" lon="8.624853131572245"><ele>232.16666666666666</ele><time>2026-04-19T15:31:49.015Z</time></trkpt><trkpt lat="45.59935115495587" lon="8.624886060486888"><ele>232.33333333333331</ele><time>2026-04-19T15:31:50.015Z</time></trkpt><trkpt lat="45.59927370578015" lon="8.62491651683897"><ele>232.5</ele><time>2026-04-19T15:31:51.015Z</time></trkpt><trkpt lat="45.59919307051477" lon="8.624952574877653"><ele>232.66666666666669</ele><time>2026-04-19T15:31:52.016Z</time></trkpt><trkpt lat="45.59910881858765" lon="8.62498404903708"><ele>232.83333333333334</ele><time>2026-04-19T15:31:53.015Z</time></trkpt><trkpt lat="45.599015554686474" lon="8.625023364213884"><ele>233.0</ele><time>2026-04-19T15:31:54.015Z</time></trkpt><trkpt lat="45.59891699394188" lon="8.62506507225151"><ele>233.0</ele><time>2026-04-19T15:31:55.015Z</time></trkpt><trkpt lat="45.59881453651013" lon="8.625104423980794"><ele>233.0</ele><time>2026-04-19T15:31:56.015Z</time></trkpt><trkpt lat="45.59870519652936" lon="8.625150274491004"><ele>233.0</ele><time>2026-04-19T15:31:57.015Z</time></trkpt><trkpt lat="45.59859082750196" lon="8.62520588132308"><ele>233.0</ele><time>2026-04-19T15:31:58.016Z</time></trkpt><trkpt lat="45.59847703041773" lon="8.625298114325231"><ele>232.25</ele><time>2026-04-19T15:31:59.016Z</time></trkpt><trkpt lat="45.59836325854002" lon="8.625409520501686"><ele>231.5</ele><time>2026-04-19T15:32:00.016Z</time></trkpt><trkpt lat="45.59825606772987" lon="8.625540822325174"><ele>230.75</ele><time>2026-04-19T15:32:01.016Z</time></trkpt><trkpt lat="45.59814799070457" lon="8.625669173431675"><ele>230.0</ele><time>2026-04-19T15:32:02.016Z</time></trkpt><trkpt lat="45.5980338759356" lon="8.625780529260943"><ele>230.0</ele><time>2026-04-19T15:32:03.016Z</time></trkpt><trkpt lat="45.597905149779194" lon="8.625866267428787"><ele>230.0</ele><time>2026-04-19T15:32:04.016Z</time></trkpt><trkpt lat="45.59776551141332" lon="8.625929125152144"><ele>230.0</ele><time>2026-04-19T15:32:05.016Z</time></trkpt><trkpt lat="45.59762144174593" lon="8.625980774458062"><ele>230.0</ele><time>2026-04-19T15:32:06.016Z</time></trkpt><trkpt lat="45.59747900896844" lon="8.62603076740572"><ele>229.75</ele><time>2026-04-19T15:32:07.016Z</time></trkpt><trkpt lat="45.597334481964864" lon="8.626089868317653"><ele>229.5</ele><time>2026-04-19T15:32:08.016Z</time></trkpt><trkpt lat="45.59719637421805" lon="8.62615139531044"><ele>229.25</ele><time>2026-04-19T15:32:09.016Z</time></trkpt><trkpt lat="45.59705891535724" lon="8.626208173038005"><ele>229.0</ele><time>2026-04-19T15:32:10.016Z</time></trkpt><trkpt lat="45.59692315856489" lon="8.62626594366571"><ele>229.75</ele><time>2026-04-19T15:32:11.016Z</time></trkpt><trkpt lat="45.5967884607991" lon="8.626321836178343"><ele>230.5</ele><time>2026-04-19T15:32:12.016Z</time></trkpt><trkpt lat="45.59664785359884" lon="8.6263761022602"><ele>231.25</ele><time>2026-04-19T15:32:13.016Z</time></trkpt><trkpt lat="45.596511012127664" lon="8.626424376030819"><ele>232.0</ele><time>2026-04-19T15:32:14.016Z</time></trkpt><trkpt lat="45.596373875176035" lon="8.62646678358233"><ele>232.0</ele><time>2026-04-19T15:32:15.016Z</time></trkpt><trkpt lat="45.59623743859934" lon="8.626507622188765"><ele>232.0</ele><time>2026-04-19T15:32:16.016Z</time></trkpt><trkpt lat="45.59610070945372" lon="8.626534479083015"><ele>232.0</ele><time>2026-04-19T15:32:17.016Z</time></trkpt><trkpt lat="45.59596078098818" lon="8.626539672835525"><ele>232.0</ele><time>2026-04-19T15:32:18.016Z</time></trkpt><trkpt lat="45.595822892673674" lon="8.626547596211584"><ele>231.5</ele><time>2026-04-19T15:32:19.016Z</time></trkpt><trkpt lat="45.59568815817316" lon="8.626555183571499"><ele>231.0</ele><time>2026-04-19T15:32:20.016Z</time></trkpt><trkpt lat="45.59556012108507" lon="8.62656922672366"><ele>230.5</ele><time>2026-04-19T15:32:21.016Z</time></trkpt><trkpt lat="45.59544315245926" lon="8.626580382795396"><ele>230.0</ele><time>2026-04-19T15:32:22.016Z</time></trkpt><trkpt lat="45.59533370111873" lon="8.626591699575583"><ele>230.00000000000003</ele><time>2026-04-19T15:32:23.016Z</time></trkpt><trkpt lat="45.595237006468786" lon="8.626592690712446"><ele>230.0</ele><time>2026-04-19T15:32:24.016Z</time></trkpt><trkpt lat="45.595149812607424" lon="8.62660413128271"><ele>230.0</ele><time>2026-04-19T15:32:25.017Z</time></trkpt><trkpt lat="45.595075971058975" lon="8.626611666053794"><ele>230.0</ele><time>2026-04-19T15:32:26.017Z</time></trkpt><trkpt lat="45.59500799367604" lon="8.626607760754242"><ele>230.00000000000003</ele><time>2026-04-19T15:32:27.017Z</time></trkpt><trkpt lat="45.59494211940829" lon="8.626591888514463"><ele>230.0</ele><time>2026-04-19T15:32:28.017Z</time></trkpt><trkpt lat="45.59483259316079" lon="8.626542363197897"><ele>230.00000000000003</ele><time>2026-04-19T15:32:30.017Z</time></trkpt><trkpt lat="45.59474505925186" lon="8.626573148086507"><ele>230.0</ele><time>2026-04-19T15:32:32.017Z</time></trkpt><trkpt lat="45.59472596718444" lon="8.62671336782902"><ele>230.0</ele><time>2026-04-19T15:32:34.017Z</time></trkpt><trkpt lat="45.59475497206075" lon="8.626805946158676"><ele>230.0</ele><time>2026-04-19T15:32:35.017Z</time></trkpt><trkpt lat="45.59478121667119" lon="8.626912281359523"><ele>230.00000000000003</ele><time>2026-04-19T15:32:36.017Z</time></trkpt><trkpt lat="45.59479673335209" lon="8.627032052688845"><ele>230.0</ele><time>2026-04-19T15:32:37.017Z</time></trkpt><trkpt lat="45.59479649445188" lon="8.627157111980019"><ele>230.6</ele><time>2026-04-19T15:32:38.017Z</time></trkpt><trkpt lat="45.59479608195086" lon="8.627292328440708"><ele>231.2</ele><time>2026-04-19T15:32:39.017Z</time></trkpt><trkpt lat="45.59479678928202" lon="8.627421527175894"><ele>231.8</ele><time>2026-04-19T15:32:40.017Z</time></trkpt><trkpt lat="45.59479823301641" lon="8.62754271179657"><ele>232.4</ele><time>2026-04-19T15:32:41.017Z</time></trkpt><trkpt lat="45.594801415512784" lon="8.627678006776161"><ele>233.0</ele><time>2026-04-19T15:32:42.017Z</time></trkpt><trkpt lat="45.59480204497102" lon="8.627821596833936"><ele>233.60000000000002</ele><time>2026-04-19T15:32:43.017Z</time></trkpt><trkpt lat="45.59480120632626" lon="8.627974176465043"><ele>234.20000000000002</ele><time>2026-04-19T15:32:44.017Z</time></trkpt><trkpt lat="45.59480487596394" lon="8.628133645304636"><ele>234.8</ele><time>2026-04-19T15:32:45.017Z</time></trkpt><trkpt lat="45.594809315455905" lon="8.628296529783736"><ele>235.4</ele><time>2026-04-19T15:32:46.017Z</time></trkpt><trkpt lat="45.59481551519661" lon="8.62845702293783"><ele>236.0</ele><time>2026-04-19T15:32:47.017Z</time></trkpt><trkpt lat="45.594824187760544" lon="8.628611436090681"><ele>236.60000000000002</ele><time>2026-04-19T15:32:48.017Z</time></trkpt><trkpt lat="45.59483130604835" lon="8.628762264761592"><ele>237.20000000000002</ele><time>2026-04-19T15:32:49.017Z</time></trkpt><trkpt lat="45.59483570060763" lon="8.628911697399129"><ele>237.79999999999998</ele><time>2026-04-19T15:32:50.017Z</time></trkpt><trkpt lat="45.59484145829147" lon="8.62906255510324"><ele>238.39999999999998</ele><time>2026-04-19T15:32:51.017Z</time></trkpt><trkpt lat="45.594848326178905" lon="8.629216418251268"><ele>239.0</ele><time>2026-04-19T15:32:52.017Z</time></trkpt><trkpt lat="45.594852684857166" lon="8.629373001510896"><ele>239.2</ele><time>2026-04-19T15:32:53.017Z</time></trkpt><trkpt lat="45.59486206078637" lon="8.629530405276915"><ele>239.39999999999998</ele><time>2026-04-19T15:32:54.017Z</time></trkpt><trkpt lat="45.594866833516015" lon="8.62967752862027"><ele>239.6</ele><time>2026-04-19T15:32:55.017Z</time></trkpt><trkpt lat="45.59486261426946" lon="8.629817786669147"><ele>239.8</ele><time>2026-04-19T15:32:56.017Z</time></trkpt><trkpt lat="45.594864442269056" lon="8.629959275011485"><ele>240.0</ele><time>2026-04-19T15:32:57.017Z</time></trkpt><trkpt lat="45.59486976895418" lon="8.630102733759026"><ele>240.0</ele><time>2026-04-19T15:32:58.018Z</time></trkpt><trkpt lat="45.59487507358747" lon="8.630256489245822"><ele>240.0</ele><time>2026-04-19T15:32:59.018Z</time></trkpt><trkpt lat="45.594879672751794" lon="8.6304139406399"><ele>240.0</ele><time>2026-04-19T15:33:00.018Z</time></trkpt><trkpt lat="45.59488498239634" lon="8.630574462271163"><ele>240.0</ele><time>2026-04-19T15:33:01.018Z</time></trkpt><trkpt lat="45.59488475872493" lon="8.63073594539896"><ele>240.0</ele><time>2026-04-19T15:33:02.018Z</time></trkpt><trkpt lat="45.59488602918548" lon="8.630890368611634"><ele>239.6</ele><time>2026-04-19T15:33:03.018Z</time></trkpt><trkpt lat="45.59488610512739" lon="8.631044973317959"><ele>239.2</ele><time>2026-04-19T15:33:04.018Z</time></trkpt><trkpt lat="45.59488832363619" lon="8.631201206138687"><ele>238.8</ele><time>2026-04-19T15:33:05.018Z</time></trkpt><trkpt lat="45.59488913481324" lon="8.631364399688492"><ele>238.4</ele><time>2026-04-19T15:33:06.018Z</time></trkpt><trkpt lat="45.59489363729085" lon="8.6315229437131"><ele>238.0</ele><time>2026-04-19T15:33:07.018Z</time></trkpt><trkpt lat="45.59489864664997" lon="8.631670430900154"><ele>238.0</ele><time>2026-04-19T15:33:08.018Z</time></trkpt><trkpt lat="45.594909074544056" lon="8.6318125142787"><ele>238.0</ele><time>2026-04-19T15:33:09.018Z</time></trkpt><trkpt lat="45.59491105534701" lon="8.631943777689985"><ele>238.0</ele><time>2026-04-19T15:33:10.018Z</time></trkpt><trkpt lat="45.594908562184756" lon="8.632075986833891"><ele>238.0</ele><time>2026-04-19T15:33:11.018Z</time></trkpt><trkpt lat="45.59490564054748" lon="8.632208533701801"><ele>238.0</ele><time>2026-04-19T15:33:12.018Z</time></trkpt><trkpt lat="45.594902905492404" lon="8.632343995899038"><ele>237.99999999999997</ele><time>2026-04-19T15:33:13.018Z</time></trkpt><trkpt lat="45.59490183035127" lon="8.632471711996144"><ele>238.0</ele><time>2026-04-19T15:33:14.018Z</time></trkpt><trkpt lat="45.59489467549389" lon="8.632591015361866"><ele>238.0</ele><time>2026-04-19T15:33:15.018Z</time></trkpt><trkpt lat="45.594872567192816" lon="8.63270161155128"><ele>238.0</ele><time>2026-04-19T15:33:16.018Z</time></trkpt><trkpt lat="45.59484718672067" lon="8.632814411399115"><ele>237.99999999999997</ele><time>2026-04-19T15:33:17.018Z</time></trkpt><trkpt lat="45.59483820890158" lon="8.632941101471536"><ele>238.0</ele><time>2026-04-19T15:33:18.018Z</time></trkpt><trkpt lat="45.59485094372569" lon="8.63307510514245"><ele>237.60000000000002</ele><time>2026-04-19T15:33:19.018Z</time></trkpt><trkpt lat="45.594881914034794" lon="8.633204245216785"><ele>237.20000000000002</ele><time>2026-04-19T15:33:20.018Z</time></trkpt><trkpt lat="45.59492218370677" lon="8.633331457516531"><ele>236.8</ele><time>2026-04-19T15:33:21.018Z</time></trkpt><trkpt lat="45.59496239182997" lon="8.63345676696171"><ele>236.4</ele><time>2026-04-19T15:33:22.018Z</time></trkpt><trkpt lat="45.59499956821777" lon="8.633567007184856"><ele>236.0</ele><time>2026-04-19T15:33:23.018Z</time></trkpt><trkpt lat="45.59503401170107" lon="8.633668297582988"><ele>235.83333333333334</ele><time>2026-04-19T15:33:24.018Z</time></trkpt><trkpt lat="45.59506668331059" lon="8.633760138754266"><ele>235.66666666666669</ele><time>2026-04-19T15:33:25.018Z</time></trkpt><trkpt lat="45.59510255599195" lon="8.633858893599648"><ele>235.5</ele><time>2026-04-19T15:33:26.018Z</time></trkpt><trkpt lat="45.59512844444553" lon="8.633950760587828"><ele>235.33333333333331</ele><time>2026-04-19T15:33:27.018Z</time></trkpt><trkpt lat="45.595170445584266" lon="8.634085454795743"><ele>235.16666666666666</ele><time>2026-04-19T15:33:29.018Z</time></trkpt><trkpt lat="45.59521176217975" lon="8.63417952972245"><ele>235.0</ele><time>2026-04-19T15:33:32.019Z</time></trkpt><trkpt lat="45.59525312477038" lon="8.634294978568477"><ele>235.0</ele><time>2026-04-19T15:33:35.019Z</time></trkpt><trkpt lat="45.5952501783135" lon="8.634453171217912"><ele>235.0</ele><time>2026-04-19T15:33:37.019Z</time></trkpt><trkpt lat="45.5952015458338" lon="8.634564500163288"><ele>235.0</ele><time>2026-04-19T15:33:38.019Z</time></trkpt><trkpt lat="45.59514258709855" lon="8.634682056664685"><ele>235.0</ele><time>2026-04-19T15:33:39.019Z</time></trkpt><trkpt lat="45.595110709105214" lon="8.634810842505352"><ele>235.0</ele><time>2026-04-19T15:33:40.019Z</time></trkpt><trkpt lat="45.59506300309033" lon="8.634952740131245"><ele>234.4</ele><time>2026-04-19T15:33:41.019Z</time></trkpt><trkpt lat="45.595008555022815" lon="8.635084422605507"><ele>233.8</ele><time>2026-04-19T15:33:42.019Z</time></trkpt><trkpt lat="45.59495081557861" lon="8.635224526290946"><ele>233.2</ele><time>2026-04-19T15:33:43.019Z</time></trkpt><trkpt lat="45.59489044472235" lon="8.635367997469826"><ele>232.6</ele><time>2026-04-19T15:33:44.019Z</time></trkpt><trkpt lat="45.59484037318005" lon="8.635503457421537"><ele>232.0</ele><time>2026-04-19T15:33:45.019Z</time></trkpt><trkpt lat="45.594788006316854" lon="8.635622706331956"><ele>231.99999999999997</ele><time>2026-04-19T15:33:46.019Z</time></trkpt><trkpt lat="45.59474144709068" lon="8.63572674937417"><ele>232.0</ele><time>2026-04-19T15:33:47.019Z</time></trkpt><trkpt lat="45.594695070562835" lon="8.635816932980985"><ele>232.0</ele><time>2026-04-19T15:33:48.019Z</time></trkpt><trkpt lat="45.59462896442704" lon="8.635875346410911"><ele>232.0</ele><time>2026-04-19T15:33:49.019Z</time></trkpt><trkpt lat="45.59455270787148" lon="8.635916436598217"><ele>231.99999999999997</ele><time>2026-04-19T15:33:50.019Z</time></trkpt><trkpt lat="45.594460503442434" lon="8.635946961143222"><ele>232.0</ele><time>2026-04-19T15:33:51.019Z</time></trkpt><trkpt lat="45.59436545345439" lon="8.635974616977782"><ele>232.39999999999998</ele><time>2026-04-19T15:33:52.016Z</time></trkpt><trkpt lat="45.59427320549111" lon="8.636000404451307"><ele>232.79999999999998</ele><time>2026-04-19T15:33:53.015Z</time></trkpt><trkpt lat="45.594178449325554" lon="8.636028657925507"><ele>233.2</ele><time>2026-04-19T15:33:54.015Z</time></trkpt><trkpt lat="45.594083321794855" lon="8.636060216516974"><ele>233.6</ele><time>2026-04-19T15:33:55.015Z</time></trkpt><trkpt lat="45.593992566805156" lon="8.636084701465343"><ele>234.0</ele><time>2026-04-19T15:33:56.015Z</time></trkpt><trkpt lat="45.5938900341981" lon="8.636093184174516"><ele>234.0</ele><time>2026-04-19T15:33:57.015Z</time></trkpt><trkpt lat="45.59378179400648" lon="8.636100648602342"><ele>234.0</ele><time>2026-04-19T15:33:58.015Z</time></trkpt><trkpt lat="45.593668148129076" lon="8.636105655456827"><ele>234.0</ele><time>2026-04-19T15:33:59.015Z</time></trkpt><trkpt lat="45.593546899266364" lon="8.636121891128651"><ele>234.0</ele><time>2026-04-19T15:34:00.015Z</time></trkpt><trkpt lat="45.59329706300738" lon="8.636126420365834"><ele>234.25</ele><time>2026-04-19T15:34:02.015Z</time></trkpt><trkpt lat="45.593170573363096" lon="8.636120769241941"><ele>234.5</ele><time>2026-04-19T15:34:03.015Z</time></trkpt><trkpt lat="45.593043484961434" lon="8.636111621705586"><ele>234.75</ele><time>2026-04-19T15:34:04.015Z</time></trkpt><trkpt lat="45.592912704009905" lon="8.636102440212408"><ele>235.0</ele><time>2026-04-19T15:34:05.015Z</time></trkpt><trkpt lat="45.59277803663805" lon="8.636083992555724"><ele>234.5</ele><time>2026-04-19T15:34:06.015Z</time></trkpt><trkpt lat="45.59263958578704" lon="8.636071702880546"><ele>234.0</ele><time>2026-04-19T15:34:07.015Z</time></trkpt><trkpt lat="45.592511481531666" lon="8.636060431968199"><ele>233.5</ele><time>2026-04-19T15:34:08.015Z</time></trkpt><trkpt lat="45.59238825479357" lon="8.636055841277807"><ele>233.0</ele><time>2026-04-19T15:34:09.015Z</time></trkpt><trkpt lat="45.592272488946676" lon="8.636056926222727"><ele>233.0</ele><time>2026-04-19T15:34:10.015Z</time></trkpt><trkpt lat="45.59216547162146" lon="8.636039625089648"><ele>233.0</ele><time>2026-04-19T15:34:11.015Z</time></trkpt><trkpt lat="45.59206030006905" lon="8.635987379752644"><ele>233.0</ele><time>2026-04-19T15:34:12.015Z</time></trkpt><trkpt lat="45.59196508116412" lon="8.635904627679103"><ele>233.0</ele><time>2026-04-19T15:34:13.015Z</time></trkpt><trkpt lat="45.59188662680146" lon="8.63578604567497"><ele>233.0</ele><time>2026-04-19T15:34:14.015Z</time></trkpt><trkpt lat="45.59182948954356" lon="8.635629637627813"><ele>232.75</ele><time>2026-04-19T15:34:15.015Z</time></trkpt><trkpt lat="45.591775338841856" lon="8.63546952752697"><ele>232.5</ele><time>2026-04-19T15:34:16.015Z</time></trkpt><trkpt lat="45.591725121299575" lon="8.635292797670482"><ele>232.25</ele><time>2026-04-19T15:34:17.015Z</time></trkpt><trkpt lat="45.591672730796894" lon="8.635135524880234"><ele>232.0</ele><time>2026-04-19T15:34:18.015Z</time></trkpt><trkpt lat="45.591604352046055" lon="8.634982636496607"><ele>232.5</ele><time>2026-04-19T15:34:19.015Z</time></trkpt><trkpt lat="45.59151279444627" lon="8.634852459023502"><ele>233.0</ele><time>2026-04-19T15:34:20.015Z</time></trkpt><trkpt lat="45.591408671810015" lon="8.634743518147172"><ele>233.5</ele><time>2026-04-19T15:34:21.015Z</time></trkpt><trkpt lat="45.59131701050239" lon="8.634642826458547"><ele>234.0</ele><time>2026-04-19T15:34:22.015Z</time></trkpt><trkpt lat="45.59123830026758" lon="8.63455429550264"><ele>234.0</ele><time>2026-04-19T15:34:23.015Z</time></trkpt><trkpt lat="45.5911715452302" lon="8.634477781487474"><ele>234.0</ele><time>2026-04-19T15:34:24.015Z</time></trkpt><trkpt lat="45.591109361817146" lon="8.634417109371734"><ele>234.0</ele><time>2026-04-19T15:34:25.015Z</time></trkpt><trkpt lat="45.59103412360038" lon="8.634386595229937"><ele>234.0</ele><time>2026-04-19T15:34:26.015Z</time></trkpt><trkpt lat="45.59095924359192" lon="8.634369037151878"><ele>234.0</ele><time>2026-04-19T15:34:27.015Z</time></trkpt><trkpt lat="45.590872399415005" lon="8.6343801964765"><ele>234.0</ele><time>2026-04-19T15:34:28.015Z</time></trkpt><trkpt lat="45.590765990885636" lon="8.634406516588205"><ele>234.0</ele><time>2026-04-19T15:34:29.016Z</time></trkpt><trkpt lat="45.59065290087049" lon="8.634433926285888"><ele>234.0</ele><time>2026-04-19T15:34:30.016Z</time></trkpt><trkpt lat="45.590530100469046" lon="8.634456024816188"><ele>234.0</ele><time>2026-04-19T15:34:31.016Z</time></trkpt><trkpt lat="45.59040262002763" lon="8.634493814685081"><ele>234.0</ele><time>2026-04-19T15:34:32.016Z</time></trkpt><trkpt lat="45.59027216591706" lon="8.634518517105665"><ele>233.75</ele><time>2026-04-19T15:34:33.016Z</time></trkpt><trkpt lat="45.59014885878226" lon="8.63454865071913"><ele>233.5</ele><time>2026-04-19T15:34:34.016Z</time></trkpt><trkpt lat="45.59002355945458" lon="8.63457434360266"><ele>233.25</ele><time>2026-04-19T15:34:35.016Z</time></trkpt><trkpt lat="45.589897033660776" lon="8.63460082233407"><ele>233.0</ele><time>2026-04-19T15:34:36.016Z</time></trkpt><trkpt lat="45.58978002683615" lon="8.634628661177699"><ele>233.0</ele><time>2026-04-19T15:34:37.016Z</time></trkpt><trkpt lat="45.5896724710936" lon="8.634648006309552"><ele>233.0</ele><time>2026-04-19T15:34:38.016Z</time></trkpt><trkpt lat="45.58957181554836" lon="8.634658677210064"><ele>233.0</ele><time>2026-04-19T15:34:39.016Z</time></trkpt><trkpt lat="45.589466636720765" lon="8.634642331089879"><ele>233.0</ele><time>2026-04-19T15:34:40.016Z</time></trkpt><trkpt lat="45.5893559695458" lon="8.634604055309756"><ele>233.0</ele><time>2026-04-19T15:34:41.016Z</time></trkpt><trkpt lat="45.589237486296696" lon="8.634557229290882"><ele>233.0</ele><time>2026-04-19T15:34:42.016Z</time></trkpt><trkpt lat="45.589110368153946" lon="8.634504438648385"><ele>233.0</ele><time>2026-04-19T15:34:43.016Z</time></trkpt><trkpt lat="45.58897425253716" lon="8.63444326862052"><ele>233.0</ele><time>2026-04-19T15:34:44.016Z</time></trkpt><trkpt lat="45.58883664306353" lon="8.634381187117256"><ele>233.0</ele><time>2026-04-19T15:34:45.016Z</time></trkpt><trkpt lat="45.58869826769863" lon="8.634318747036609"><ele>232.75</ele><time>2026-04-19T15:34:46.016Z</time></trkpt><trkpt lat="45.58855392913539" lon="8.634273936587938"><ele>232.5</ele><time>2026-04-19T15:34:47.016Z</time></trkpt><trkpt lat="45.58841385258928" lon="8.634226600727008"><ele>232.25</ele><time>2026-04-19T15:34:48.016Z</time></trkpt><trkpt lat="45.588281445322544" lon="8.634174810437084"><ele>232.0</ele><time>2026-04-19T15:34:49.016Z</time></trkpt><trkpt lat="45.58815684171413" lon="8.634128443166272"><ele>232.0</ele><time>2026-04-19T15:34:50.016Z</time></trkpt><trkpt lat="45.588023641949924" lon="8.634100534252429"><ele>232.0</ele><time>2026-04-19T15:34:51.016Z</time></trkpt><trkpt lat="45.587884764328685" lon="8.634091290821317"><ele>232.0</ele><time>2026-04-19T15:34:52.016Z</time></trkpt><trkpt lat="45.58774140881373" lon="8.63409416111005"><ele>232.0</ele><time>2026-04-19T15:34:53.016Z</time></trkpt><trkpt lat="45.58759426651031" lon="8.634098587088063"><ele>232.0</ele><time>2026-04-19T15:34:54.016Z</time></trkpt><trkpt lat="45.58744380545961" lon="8.634102461009787"><ele>232.0</ele><time>2026-04-19T15:34:55.016Z</time></trkpt><trkpt lat="45.587285930301405" lon="8.63410543002442"><ele>232.0</ele><time>2026-04-19T15:34:56.016Z</time></trkpt><trkpt lat="45.58712716370375" lon="8.63411023448584"><ele>231.33333333333331</ele><time>2026-04-19T15:34:57.016Z</time></trkpt><trkpt lat="45.58696771412294" lon="8.634113119134259"><ele>230.66666666666669</ele><time>2026-04-19T15:34:58.016Z</time></trkpt><trkpt lat="45.5868075271855" lon="8.634116260404928"><ele>230.0</ele><time>2026-04-19T15:34:59.016Z</time></trkpt><trkpt lat="45.58664658257812" lon="8.634118944158008"><ele>230.0</ele><time>2026-04-19T15:35:00.016Z</time></trkpt><trkpt lat="45.58648553868917" lon="8.634113666259317"><ele>230.0</ele><time>2026-04-19T15:35:01.016Z</time></trkpt><trkpt lat="45.58632535271457" lon="8.634092645680399"><ele>230.0</ele><time>2026-04-19T15:35:02.017Z</time></trkpt><trkpt lat="45.58616361745737" lon="8.634065505864067"><ele>229.66666666666669</ele><time>2026-04-19T15:35:03.017Z</time></trkpt><trkpt lat="45.586000603067546" lon="8.63403353755317"><ele>229.33333333333331</ele><time>2026-04-19T15:35:04.017Z</time></trkpt><trkpt lat="45.585835218762504" lon="8.634002151163441"><ele>229.0</ele><time>2026-04-19T15:35:05.017Z</time></trkpt><trkpt lat="45.58567449480232" lon="8.633968464738054"><ele>229.0</ele><time>2026-04-19T15:35:06.017Z</time></trkpt><trkpt lat="45.585520521419696" lon="8.633938046625731"><ele>229.0</ele><time>2026-04-19T15:35:07.017Z</time></trkpt><trkpt lat="45.58537867882404" lon="8.633907901784319"><ele>229.0</ele><time>2026-04-19T15:35:08.017Z</time></trkpt><trkpt lat="45.58523743097958" lon="8.63387946038564"><ele>229.0</ele><time>2026-04-19T15:35:09.017Z</time></trkpt><trkpt lat="45.58509472874186" lon="8.633859928199975"><ele>228.25</ele><time>2026-04-19T15:35:10.017Z</time></trkpt><trkpt lat="45.58496088090778" lon="8.633842253606717"><ele>227.5</ele><time>2026-04-19T15:35:11.017Z</time></trkpt><trkpt lat="45.584835249241706" lon="8.63381277359679"><ele>226.75</ele><time>2026-04-19T15:35:12.017Z</time></trkpt><trkpt lat="45.584717728357276" lon="8.633766839140955"><ele>226.0</ele><time>2026-04-19T15:35:13.017Z</time></trkpt><trkpt lat="45.58460848591712" lon="8.633690450461552"><ele>226.20000000000002</ele><time>2026-04-19T15:35:14.017Z</time></trkpt><trkpt lat="45.58451065051009" lon="8.633601109935231"><ele>226.40000000000003</ele><time>2026-04-19T15:35:15.017Z</time></trkpt><trkpt lat="45.58442329817685" lon="8.633506029872784"><ele>226.6</ele><time>2026-04-19T15:35:16.017Z</time></trkpt><trkpt lat="45.58432747997762" lon="8.633442381869955"><ele>226.8</ele><time>2026-04-19T15:35:17.017Z</time></trkpt><trkpt lat="45.584218364310196" lon="8.633425012089985"><ele>227.0</ele><time>2026-04-19T15:35:18.017Z</time></trkpt><trkpt lat="45.58410140842243" lon="8.633447517603102"><ele>227.0</ele><time>2026-04-19T15:35:19.017Z</time></trkpt><trkpt lat="45.58396453402386" lon="8.63348886573371"><ele>227.0</ele><time>2026-04-19T15:35:20.017Z</time></trkpt><trkpt lat="45.58383617536376" lon="8.633545025521085"><ele>227.0</ele><time>2026-04-19T15:35:21.017Z</time></trkpt><trkpt lat="45.58369764984709" lon="8.633589912181003"><ele>227.0</ele><time>2026-04-19T15:35:22.017Z</time></trkpt><trkpt lat="45.58355648301017" lon="8.633624063596724"><ele>226.25</ele><time>2026-04-19T15:35:23.017Z</time></trkpt><trkpt lat="45.583419477788816" lon="8.633654423692946"><ele>225.5</ele><time>2026-04-19T15:35:24.017Z</time></trkpt><trkpt lat="45.58328470294587" lon="8.633691678084224"><ele>224.75</ele><time>2026-04-19T15:35:25.017Z</time></trkpt><trkpt lat="45.58314643807725" lon="8.6337282805152"><ele>224.0</ele><time>2026-04-19T15:35:26.017Z</time></trkpt><trkpt lat="45.58301587171254" lon="8.633762883811904"><ele>224.0</ele><time>2026-04-19T15:35:27.017Z</time></trkpt><trkpt lat="45.58289309126104" lon="8.633796875093239"><ele>224.0</ele><time>2026-04-19T15:35:28.017Z</time></trkpt><trkpt lat="45.582778870124365" lon="8.633819533529564"><ele>224.0</ele><time>2026-04-19T15:35:29.017Z</time></trkpt><trkpt lat="45.58266425111766" lon="8.633818415510788"><ele>224.0</ele><time>2026-04-19T15:35:30.017Z</time></trkpt><trkpt lat="45.58254097426384" lon="8.633790931879837"><ele>223.75</ele><time>2026-04-19T15:35:31.017Z</time></trkpt><trkpt lat="45.58240654444038" lon="8.63375709099306"><ele>223.5</ele><time>2026-04-19T15:35:32.017Z</time></trkpt><trkpt lat="45.58226420951926" lon="8.633722149042178"><ele>223.25</ele><time>2026-04-19T15:35:33.017Z</time></trkpt><trkpt lat="45.582120912011845" lon="8.633690673569697"><ele>223.0</ele><time>2026-04-19T15:35:34.017Z</time></trkpt><trkpt lat="45.5819848962412" lon="8.633666645499929"><ele>223.66666666666666</ele><time>2026-04-19T15:35:35.018Z</time></trkpt><trkpt lat="45.58183893885593" lon="8.633630652814045"><ele>224.33333333333331</ele><time>2026-04-19T15:35:36.018Z</time></trkpt><trkpt lat="45.58168621273042" lon="8.63359586214939"><ele>225.0</ele><time>2026-04-19T15:35:37.018Z</time></trkpt><trkpt lat="45.58152761866589" lon="8.633568273191052"><ele>225.0</ele><time>2026-04-19T15:35:38.018Z</time></trkpt><trkpt lat="45.58136488830818" lon="8.633537553039089"><ele>225.0</ele><time>2026-04-19T15:35:39.018Z</time></trkpt><trkpt lat="45.581199563362084" lon="8.63350695189581"><ele>225.0</ele><time>2026-04-19T15:35:40.018Z</time></trkpt><trkpt lat="45.58102940218876" lon="8.63346983420502"><ele>224.66666666666669</ele><time>2026-04-19T15:35:41.018Z</time></trkpt><trkpt lat="45.58085669114918" lon="8.633431441576661"><ele>224.33333333333334</ele><time>2026-04-19T15:35:42.018Z</time></trkpt><trkpt lat="45.58068406505323" lon="8.633398310529373"><ele>224.0</ele><time>2026-04-19T15:35:43.018Z</time></trkpt><trkpt lat="45.5805136023762" lon="8.633365440073986"><ele>224.0</ele><time>2026-04-19T15:35:44.018Z</time></trkpt><trkpt lat="45.58035418592312" lon="8.633332365015463"><ele>224.0</ele><time>2026-04-19T15:35:45.018Z</time></trkpt><trkpt lat="45.5801991107479" lon="8.633300162144327"><ele>224.0</ele><time>2026-04-19T15:35:46.018Z</time></trkpt><trkpt lat="45.58004074264991" lon="8.633271229447356"><ele>224.33333333333334</ele><time>2026-04-19T15:35:47.018Z</time></trkpt><trkpt lat="45.57988049827201" lon="8.633242576765886"><ele>224.66666666666669</ele><time>2026-04-19T15:35:48.018Z</time></trkpt><trkpt lat="45.57971743714366" lon="8.633214584566002"><ele>225.0</ele><time>2026-04-19T15:35:49.018Z</time></trkpt><trkpt lat="45.57955311105339" lon="8.633188736743417"><ele>224.33333333333331</ele><time>2026-04-19T15:35:50.018Z</time></trkpt><trkpt lat="45.579388534823885" lon="8.633162480359431"><ele>223.66666666666666</ele><time>2026-04-19T15:35:51.018Z</time></trkpt><trkpt lat="45.579220117639814" lon="8.633143901754641"><ele>223.0</ele><time>2026-04-19T15:35:52.018Z</time></trkpt><trkpt lat="45.579051518028606" lon="8.633126401069507"><ele>223.0</ele><time>2026-04-19T15:35:53.018Z</time></trkpt><trkpt lat="45.57887895133492" lon="8.63310781148066"><ele>223.0</ele><time>2026-04-19T15:35:54.018Z</time></trkpt><trkpt lat="45.578704692752595" lon="8.633087391401931"><ele>223.0</ele><time>2026-04-19T15:35:55.018Z</time></trkpt><trkpt lat="45.57852900358192" lon="8.633068903167722"><ele>222.66666666666666</ele><time>2026-04-19T15:35:56.018Z</time></trkpt><trkpt lat="45.57834984153111" lon="8.633051212115351"><ele>222.33333333333331</ele><time>2026-04-19T15:35:57.018Z</time></trkpt><trkpt lat="45.57816986605282" lon="8.633039081563362"><ele>222.0</ele><time>2026-04-19T15:35:58.015Z</time></trkpt><trkpt lat="45.5779893029481" lon="8.633029655486984"><ele>222.33333333333331</ele><time>2026-04-19T15:35:59.015Z</time></trkpt><trkpt lat="45.577808270772394" lon="8.633016090329853"><ele>222.66666666666666</ele><time>2026-04-19T15:36:00.015Z</time></trkpt><trkpt lat="45.57762979088313" lon="8.632998805994458"><ele>223.0</ele><time>2026-04-19T15:36:01.015Z</time></trkpt><trkpt lat="45.57745961676739" lon="8.63298284593843"><ele>223.0</ele><time>2026-04-19T15:36:02.015Z</time></trkpt><trkpt lat="45.5773026591133" lon="8.632967126242995"><ele>223.0</ele><time>2026-04-19T15:36:03.015Z</time></trkpt><trkpt lat="45.5771616310542" lon="8.632950344386874"><ele>223.0</ele><time>2026-04-19T15:36:04.015Z</time></trkpt><trkpt lat="45.57704649823545" lon="8.632941585373876"><ele>223.0</ele><time>2026-04-19T15:36:05.015Z</time></trkpt><trkpt lat="45.576964798292316" lon="8.632951332376438"><ele>223.0</ele><time>2026-04-19T15:36:06.015Z</time></trkpt><trkpt lat="45.576899424423786" lon="8.632995408073976"><ele>223.0</ele><time>2026-04-19T15:36:07.015Z</time></trkpt><trkpt lat="45.57686144924437" lon="8.633163298944146"><ele>223.0</ele><time>2026-04-19T15:36:09.015Z</time></trkpt><trkpt lat="45.57687674127483" lon="8.63328338235821"><ele>223.0</ele><time>2026-04-19T15:36:10.015Z</time></trkpt><trkpt lat="45.57689297731255" lon="8.633417520598766"><ele>223.0</ele><time>2026-04-19T15:36:11.015Z</time></trkpt><trkpt lat="45.57690887704224" lon="8.633574073586939"><ele>223.4</ele><time>2026-04-19T15:36:12.015Z</time></trkpt><trkpt lat="45.57692771568795" lon="8.633743860427927"><ele>223.8</ele><time>2026-04-19T15:36:13.015Z</time></trkpt><trkpt lat="45.57694161118904" lon="8.633901393082859"><ele>224.2</ele><time>2026-04-19T15:36:14.015Z</time></trkpt><trkpt lat="45.57695506893442" lon="8.634037266536149"><ele>224.6</ele><time>2026-04-19T15:36:15.015Z</time></trkpt><trkpt lat="45.576954903292766" lon="8.634142801255349"><ele>225.0</ele><time>2026-04-19T15:36:16.015Z</time></trkpt><trkpt lat="45.57689149251302" lon="8.634287329761161"><ele>225.0</ele><time>2026-04-19T15:36:18.015Z</time></trkpt><trkpt lat="45.57681947579971" lon="8.634323519113023"><ele>225.0</ele><time>2026-04-19T15:36:19.015Z</time></trkpt><trkpt lat="45.57672638011504" lon="8.634328579912939"><ele>225.0</ele><time>2026-04-19T15:36:20.015Z</time></trkpt><trkpt lat="45.57661668611329" lon="8.634320691039774"><ele>225.0</ele><time>2026-04-19T15:36:21.015Z</time></trkpt><trkpt lat="45.576492581699576" lon="8.634316337683625"><ele>225.0</ele><time>2026-04-19T15:36:22.015Z</time></trkpt><trkpt lat="45.576369357510664" lon="8.634324973743604"><ele>225.0</ele><time>2026-04-19T15:36:23.015Z</time></trkpt><trkpt lat="45.57622968388571" lon="8.634331533822694"><ele>225.0</ele><time>2026-04-19T15:36:24.015Z</time></trkpt><trkpt lat="45.57607922025755" lon="8.634326633405394"><ele>225.0</ele><time>2026-04-19T15:36:25.015Z</time></trkpt><trkpt lat="45.57593275850551" lon="8.634316807007126"><ele>225.0</ele><time>2026-04-19T15:36:26.015Z</time></trkpt><trkpt lat="45.57577551157473" lon="8.63431318519617"><ele>224.33333333333331</ele><time>2026-04-19T15:36:27.015Z</time></trkpt><trkpt lat="45.57561093729958" lon="8.634316754176137"><ele>223.66666666666666</ele><time>2026-04-19T15:36:28.015Z</time></trkpt><trkpt lat="45.5754392071741" lon="8.634323872610645"><ele>223.0</ele><time>2026-04-19T15:36:29.015Z</time></trkpt><trkpt lat="45.57527208976212" lon="8.634327977630111"><ele>222.5</ele><time>2026-04-19T15:36:30.015Z</time></trkpt><trkpt lat="45.57512045782643" lon="8.634310998773108"><ele>222.0</ele><time>2026-04-19T15:36:31.015Z</time></trkpt><trkpt lat="45.5749703804958" lon="8.634291581688696"><ele>221.5</ele><time>2026-04-19T15:36:32.016Z</time></trkpt><trkpt lat="45.57483900033669" lon="8.63421555773092"><ele>221.0</ele><time>2026-04-19T15:36:33.016Z</time></trkpt><trkpt lat="45.574701554871226" lon="8.634129047844972"><ele>221.0</ele><time>2026-04-19T15:36:34.016Z</time></trkpt><trkpt lat="45.57457666268459" lon="8.634051703340884"><ele>221.00000000000003</ele><time>2026-04-19T15:36:35.016Z</time></trkpt><trkpt lat="45.574466105189394" lon="8.633983570936222"><ele>221.00000000000003</ele><time>2026-04-19T15:36:36.016Z</time></trkpt><trkpt lat="45.57437140172245" lon="8.633934338151613"><ele>221.0</ele><time>2026-04-19T15:36:37.016Z</time></trkpt><trkpt lat="45.574285528286254" lon="8.633918805392979"><ele>221.0</ele><time>2026-04-19T15:36:38.016Z</time></trkpt><trkpt lat="45.57420554052876" lon="8.633942510741614"><ele>220.83333333333334</ele><time>2026-04-19T15:36:39.016Z</time></trkpt><trkpt lat="45.574126070837025" lon="8.633985141878398"><ele>220.66666666666669</ele><time>2026-04-19T15:36:40.016Z</time></trkpt><trkpt lat="45.57404182784907" lon="8.634027369010257"><ele>220.5</ele><time>2026-04-19T15:36:41.016Z</time></trkpt><trkpt lat="45.57396385284458" lon="8.634081432398427"><ele>220.33333333333331</ele><time>2026-04-19T15:36:42.016Z</time></trkpt><trkpt lat="45.57390049967265" lon="8.63415908413968"><ele>220.16666666666666</ele><time>2026-04-19T15:36:43.016Z</time></trkpt><trkpt lat="45.573876811647466" lon="8.634267803480467"><ele>220.0</ele><time>2026-04-19T15:36:44.016Z</time></trkpt><trkpt lat="45.57388557162718" lon="8.634388343032622"><ele>219.99999999999997</ele><time>2026-04-19T15:36:45.016Z</time></trkpt><trkpt lat="45.573911628706966" lon="8.634524360540214"><ele>220.0</ele><time>2026-04-19T15:36:46.016Z</time></trkpt><trkpt lat="45.57391433083929" lon="8.634646088967092"><ele>220.0</ele><time>2026-04-19T15:36:47.016Z</time></trkpt><trkpt lat="45.573874562404455" lon="8.634732124124362"><ele>220.0</ele><time>2026-04-19T15:36:48.016Z</time></trkpt><trkpt lat="45.57379834359392" lon="8.634776830262261"><ele>219.99999999999997</ele><time>2026-04-19T15:36:49.016Z</time></trkpt><trkpt lat="45.57370647672415" lon="8.634827800360156"><ele>220.0</ele><time>2026-04-19T15:36:50.016Z</time></trkpt><trkpt lat="45.57359846435657" lon="8.634884611015035"><ele>220.0</ele><time>2026-04-19T15:36:51.016Z</time></trkpt><trkpt lat="45.57347402489862" lon="8.63494369652481"><ele>220.0</ele><time>2026-04-19T15:36:52.016Z</time></trkpt><trkpt lat="45.573356148339556" lon="8.635002121989412"><ele>220.0</ele><time>2026-04-19T15:36:53.016Z</time></trkpt><trkpt lat="45.57322782450115" lon="8.635069080634342"><ele>220.0</ele><time>2026-04-19T15:36:54.016Z</time></trkpt><trkpt lat="45.57306671543244" lon="8.635147289198793"><ele>220.0</ele><time>2026-04-19T15:36:55.016Z</time></trkpt><trkpt lat="45.572928932997435" lon="8.635226925075381"><ele>220.0</ele><time>2026-04-19T15:36:56.016Z</time></trkpt><trkpt lat="45.57280322582745" lon="8.635305933065748"><ele>220.0</ele><time>2026-04-19T15:36:57.016Z</time></trkpt><trkpt lat="45.5726879964674" lon="8.635379639377275"><ele>220.0</ele><time>2026-04-19T15:36:58.016Z</time></trkpt><trkpt lat="45.57257959814549" lon="8.635442725150149"><ele>220.25</ele><time>2026-04-19T15:36:59.016Z</time></trkpt><trkpt lat="45.5724747921479" lon="8.635488748732481"><ele>220.5</ele><time>2026-04-19T15:37:00.016Z</time></trkpt><trkpt lat="45.57236660447839" lon="8.635509434064268"><ele>220.75</ele><time>2026-04-19T15:37:01.016Z</time></trkpt><trkpt lat="45.572249460592715" lon="8.635497170115064"><ele>221.0</ele><time>2026-04-19T15:37:02.016Z</time></trkpt><trkpt lat="45.572114765414106" lon="8.635465247690174"><ele>221.33333333333334</ele><time>2026-04-19T15:37:03.016Z</time></trkpt><trkpt lat="45.57196918005811" lon="8.635435347643975"><ele>221.66666666666669</ele><time>2026-04-19T15:37:04.016Z</time></trkpt><trkpt lat="45.571818863047255" lon="8.635398856136158"><ele>222.0</ele><time>2026-04-19T15:37:05.017Z</time></trkpt><trkpt lat="45.57166288032901" lon="8.635363271241228"><ele>222.0</ele><time>2026-04-19T15:37:06.017Z</time></trkpt><trkpt lat="45.571498754572914" lon="8.635310360999837"><ele>222.0</ele><time>2026-04-19T15:37:07.017Z</time></trkpt><trkpt lat="45.5713365169608" lon="8.635261039474624"><ele>222.0</ele><time>2026-04-19T15:37:08.017Z</time></trkpt><trkpt lat="45.5711773204257" lon="8.635218316443652"><ele>221.0</ele><time>2026-04-19T15:37:09.017Z</time></trkpt><trkpt lat="45.57101741163691" lon="8.635171452148885"><ele>220.0</ele><time>2026-04-19T15:37:10.017Z</time></trkpt><trkpt lat="45.570863569622354" lon="8.635125121891122"><ele>219.0</ele><time>2026-04-19T15:37:11.017Z</time></trkpt><trkpt lat="45.57071552401111" lon="8.635081000918696"><ele>219.0</ele><time>2026-04-19T15:37:12.017Z</time></trkpt><trkpt lat="45.570576998659725" lon="8.635048861073233"><ele>219.0</ele><time>2026-04-19T15:37:13.017Z</time></trkpt><trkpt lat="45.57043644133568" lon="8.635047677413207"><ele>219.0</ele><time>2026-04-19T15:37:14.017Z</time></trkpt><trkpt lat="45.57030635409805" lon="8.635044185267452"><ele>219.0</ele><time>2026-04-19T15:37:15.017Z</time></trkpt><trkpt lat="45.57017505549622" lon="8.635083516204265"><ele>218.0</ele><time>2026-04-19T15:37:16.017Z</time></trkpt><trkpt lat="45.570048389495234" lon="8.635156084589317"><ele>217.0</ele><time>2026-04-19T15:37:17.017Z</time></trkpt><trkpt lat="45.569917159730544" lon="8.635231987628156"><ele>216.0</ele><time>2026-04-19T15:37:18.017Z</time></trkpt><trkpt lat="45.56978741831512" lon="8.635338114927627"><ele>215.0</ele><time>2026-04-19T15:37:19.017Z</time></trkpt><trkpt lat="45.56966322586491" lon="8.635418350543379"><ele>215.0</ele><time>2026-04-19T15:37:20.017Z</time></trkpt><trkpt lat="45.56954346669165" lon="8.635472605871493"><ele>215.0</ele><time>2026-04-19T15:37:21.017Z</time></trkpt><trkpt lat="45.56942560419379" lon="8.635520660378935"><ele>215.0</ele><time>2026-04-19T15:37:22.017Z</time></trkpt><trkpt lat="45.56931940617512" lon="8.635565849373085"><ele>215.0</ele><time>2026-04-19T15:37:23.017Z</time></trkpt><trkpt lat="45.56922318849023" lon="8.635604349098584"><ele>214.50000000000003</ele><time>2026-04-19T15:37:24.017Z</time></trkpt><trkpt lat="45.5691464772031" lon="8.63562950522845"><ele>214.0</ele><time>2026-04-19T15:37:25.017Z</time></trkpt><trkpt lat="45.56908558508507" lon="8.63565311018305"><ele>213.5</ele><time>2026-04-19T15:37:26.017Z</time></trkpt><trkpt lat="45.5690253980354" lon="8.63568189811252"><ele>213.0</ele><time>2026-04-19T15:37:28.017Z</time></trkpt><trkpt lat="45.568980912814176" lon="8.635809903057984"><ele>212.50000000000003</ele><time>2026-04-19T15:37:35.017Z</time></trkpt><trkpt lat="45.56900413308715" lon="8.635894057268985"><ele>212.0</ele><time>2026-04-19T15:37:36.017Z</time></trkpt><trkpt lat="45.56903780905684" lon="8.636004858904219"><ele>212.0</ele><time>2026-04-19T15:37:37.017Z</time></trkpt><trkpt lat="45.56907690718984" lon="8.636131063583626"><ele>212.0</ele><time>2026-04-19T15:37:38.018Z</time></trkpt><trkpt lat="45.569118203218785" lon="8.636270353491142"><ele>212.0</ele><time>2026-04-19T15:37:39.018Z</time></trkpt><trkpt lat="45.5691641562501" lon="8.636411506404782"><ele>212.0</ele><time>2026-04-19T15:37:40.018Z</time></trkpt><trkpt lat="45.56920901721286" lon="8.63657967254604"><ele>212.0</ele><time>2026-04-19T15:37:41.018Z</time></trkpt><trkpt lat="45.569274065049036" lon="8.636738353457384"><ele>211.39999999999998</ele><time>2026-04-19T15:37:42.018Z</time></trkpt><trkpt lat="45.56934336383663" lon="8.636873317571412"><ele>210.79999999999998</ele><time>2026-04-19T15:37:43.018Z</time></trkpt><trkpt lat="45.56940474209303" lon="8.637000892119302"><ele>210.2</ele><time>2026-04-19T15:37:44.018Z</time></trkpt><trkpt lat="45.56946851846448" lon="8.63712445707706"><ele>209.6</ele><time>2026-04-19T15:37:45.018Z</time></trkpt><trkpt lat="45.56952947428601" lon="8.637215810658256"><ele>209.0</ele><time>2026-04-19T15:37:46.018Z</time></trkpt><trkpt lat="45.56961017143915" lon="8.637326534794422"><ele>207.6</ele><time>2026-04-19T15:37:48.018Z</time></trkpt><trkpt lat="45.569568670520255" lon="8.637433482177125"><ele>206.2</ele><time>2026-04-19T15:37:51.018Z</time></trkpt><trkpt lat="45.56943607718545" lon="8.637460172525444"><ele>204.79999999999998</ele><time>2026-04-19T15:37:53.018Z</time></trkpt><trkpt lat="45.56935258025181" lon="8.637458651000635"><ele>203.39999999999998</ele><time>2026-04-19T15:37:54.018Z</time></trkpt><trkpt lat="45.56925161471171" lon="8.637454593650173"><ele>202.0</ele><time>2026-04-19T15:37:55.018Z</time></trkpt><trkpt lat="45.56914140491266" lon="8.637455049353019"><ele>202.0</ele><time>2026-04-19T15:37:56.018Z</time></trkpt><trkpt lat="45.56903051809801" lon="8.637483802266289"><ele>202.0</ele><time>2026-04-19T15:37:57.018Z</time></trkpt><trkpt lat="45.56891741132134" lon="8.637529264857967"><ele>202.0</ele><time>2026-04-19T15:37:58.018Z</time></trkpt><trkpt lat="45.56880325166751" lon="8.637583082539065"><ele>202.0</ele><time>2026-04-19T15:37:59.018Z</time></trkpt><trkpt lat="45.56868582714453" lon="8.637647213747263"><ele>201.0</ele><time>2026-04-19T15:38:00.018Z</time></trkpt><trkpt lat="45.56856495464938" lon="8.637721704199338"><ele>200.0</ele><time>2026-04-19T15:38:01.018Z</time></trkpt><trkpt lat="45.5684330984822" lon="8.63781425722313"><ele>199.0</ele><time>2026-04-19T15:38:02.018Z</time></trkpt><trkpt lat="45.56829987904285" lon="8.637900500121612"><ele>198.0</ele><time>2026-04-19T15:38:03.018Z</time></trkpt><trkpt lat="45.568170882318945" lon="8.637981347046988"><ele>198.0</ele><time>2026-04-19T15:38:04.015Z</time></trkpt><trkpt lat="45.56804643729263" lon="8.638054206135347"><ele>198.0</ele><time>2026-04-19T15:38:05.015Z</time></trkpt><trkpt lat="45.56793012722974" lon="8.63812021384566"><ele>198.0</ele><time>2026-04-19T15:38:06.015Z</time></trkpt><trkpt lat="45.567827841157964" lon="8.638184325407211"><ele>198.0</ele><time>2026-04-19T15:38:07.015Z</time></trkpt><trkpt lat="45.5677305821527" lon="8.638244405317382"><ele>197.33333333333334</ele><time>2026-04-19T15:38:08.015Z</time></trkpt><trkpt lat="45.56764057826899" lon="8.638297950110719"><ele>196.66666666666669</ele><time>2026-04-19T15:38:09.015Z</time></trkpt><trkpt lat="45.56756631898147" lon="8.638343770159688"><ele>196.0</ele><time>2026-04-19T15:38:10.015Z</time></trkpt><trkpt lat="45.567496558719604" lon="8.638455989820388"><ele>195.33333333333334</ele><time>2026-04-19T15:38:12.015Z</time></trkpt><trkpt lat="45.56750220245677" lon="8.638553630627108"><ele>194.66666666666669</ele><time>2026-04-19T15:38:13.015Z</time></trkpt><trkpt lat="45.56752010300378" lon="8.638669390742594"><ele>194.0</ele><time>2026-04-19T15:38:14.015Z</time></trkpt><trkpt lat="45.56755905439036" lon="8.638804438230366"><ele>194.0</ele><time>2026-04-19T15:38:15.015Z</time></trkpt><trkpt lat="45.56758187699434" lon="8.638936157703462"><ele>194.0</ele><time>2026-04-19T15:38:16.015Z</time></trkpt><trkpt lat="45.5676054989025" lon="8.639085340041765"><ele>194.0</ele><time>2026-04-19T15:38:17.015Z</time></trkpt><trkpt lat="45.567625932747355" lon="8.63923369921196"><ele>194.0</ele><time>2026-04-19T15:38:18.015Z</time></trkpt><trkpt lat="45.56764459898247" lon="8.639393861080181"><ele>194.0</ele><time>2026-04-19T15:38:19.015Z</time></trkpt><trkpt lat="45.56765162498933" lon="8.639543811027746"><ele>193.75</ele><time>2026-04-19T15:38:20.015Z</time></trkpt><trkpt lat="45.567682390027954" lon="8.639713474672098"><ele>193.5</ele><time>2026-04-19T15:38:21.015Z</time></trkpt><trkpt lat="45.567707271643634" lon="8.63988340477239"><ele>193.25</ele><time>2026-04-19T15:38:22.015Z</time></trkpt><trkpt lat="45.56773758059019" lon="8.640043078954594"><ele>193.0</ele><time>2026-04-19T15:38:23.015Z</time></trkpt><trkpt lat="45.567785790437995" lon="8.640208427500253"><ele>193.0</ele><time>2026-04-19T15:38:24.015Z</time></trkpt><trkpt lat="45.56782362443733" lon="8.640381926082423"><ele>193.0</ele><time>2026-04-19T15:38:25.015Z</time></trkpt><trkpt lat="45.5678605640457" lon="8.640559530808769"><ele>193.0</ele><time>2026-04-19T15:38:26.015Z</time></trkpt><trkpt lat="45.5678989289793" lon="8.640732577779593"><ele>193.0</ele><time>2026-04-19T15:38:27.015Z</time></trkpt><trkpt lat="45.56793112458967" lon="8.640898427716985"><ele>193.2</ele><time>2026-04-19T15:38:28.015Z</time></trkpt><trkpt lat="45.56796639865421" lon="8.641058402930321"><ele>193.4</ele><time>2026-04-19T15:38:29.015Z</time></trkpt><trkpt lat="45.567991231033844" lon="8.64120565183398"><ele>193.6</ele><time>2026-04-19T15:38:30.015Z</time></trkpt><trkpt lat="45.568010374375206" lon="8.64135703092124"><ele>193.79999999999998</ele><time>2026-04-19T15:38:31.015Z</time></trkpt><trkpt lat="45.56802613712652" lon="8.64151310248902"><ele>194.0</ele><time>2026-04-19T15:38:32.015Z</time></trkpt><trkpt lat="45.56804435850204" lon="8.641659365090733"><ele>194.00000000000003</ele><time>2026-04-19T15:38:33.015Z</time></trkpt><trkpt lat="45.568059154009035" lon="8.641795851073837"><ele>194.0</ele><time>2026-04-19T15:38:34.015Z</time></trkpt><trkpt lat="45.56806349679501" lon="8.641911076325894"><ele>194.0</ele><time>2026-04-19T15:38:35.015Z</time></trkpt><trkpt lat="45.568071750208716" lon="8.64204642871155"><ele>194.0</ele><time>2026-04-19T15:38:37.015Z</time></trkpt><trkpt lat="45.56810580027236" lon="8.64214699335708"><ele>194.00000000000003</ele><time>2026-04-19T15:38:42.015Z</time></trkpt><trkpt lat="45.5681550206693" lon="8.64221549130847"><ele>194.0</ele><time>2026-04-19T15:38:51.016Z</time></trkpt><trkpt lat="45.56822682123096" lon="8.642255108249502"><ele>194.2</ele><time>2026-04-19T15:38:53.016Z</time></trkpt><trkpt lat="45.568159600370976" lon="8.642340028884913"><ele>194.39999999999998</ele><time>2026-04-19T15:38:55.016Z</time></trkpt><trkpt lat="45.568041709905685" lon="8.64234734610139"><ele>194.6</ele><time>2026-04-19T15:38:57.016Z</time></trkpt><trkpt lat="45.567967488364275" lon="8.642330475913079"><ele>194.8</ele><time>2026-04-19T15:38:58.016Z</time></trkpt><trkpt lat="45.56790111017078" lon="8.64232707655302"><ele>195.0</ele><time>2026-04-19T15:38:59.016Z</time></trkpt><trkpt lat="45.56777807148472" lon="8.64231993531089"><ele>194.66666666666666</ele><time>2026-04-19T15:39:01.016Z</time></trkpt><trkpt lat="45.567709443247416" lon="8.642304744945292"><ele>194.33333333333331</ele><time>2026-04-19T15:39:02.016Z</time></trkpt><trkpt lat="45.567642428861866" lon="8.642304438435003"><ele>194.0</ele><time>2026-04-19T15:39:03.016Z</time></trkpt><trkpt lat="45.56757781163721" lon="8.642292630896177"><ele>193.66666666666666</ele><time>2026-04-19T15:39:04.016Z</time></trkpt><trkpt lat="45.56744552631731" lon="8.642282364994713"><ele>193.33333333333331</ele><time>2026-04-19T15:39:06.016Z</time></trkpt><trkpt lat="45.56737862241654" lon="8.642283802382158"><ele>193.0</ele><time>2026-04-19T15:39:07.016Z</time></trkpt><trkpt lat="45.56731218834043" lon="8.642272899274584"><ele>192.99999999999997</ele><time>2026-04-19T15:39:08.016Z</time></trkpt><trkpt lat="45.56724563300741" lon="8.642269573698051"><ele>193.0</ele><time>2026-04-19T15:39:09.016Z</time></trkpt><trkpt lat="45.56718118924017" lon="8.64226727024854"><ele>193.0</ele><time>2026-04-19T15:39:10.016Z</time></trkpt><trkpt lat="45.56711168265359" lon="8.64226656052449"><ele>193.0</ele><time>2026-04-19T15:39:11.016Z</time></trkpt><trkpt lat="45.56702932865994" lon="8.642254028743867"><ele>192.99999999999997</ele><time>2026-04-19T15:39:12.016Z</time></trkpt><trkpt lat="45.566944576479656" lon="8.642236327699825"><ele>193.0</ele><time>2026-04-19T15:39:13.016Z</time></trkpt><trkpt lat="45.56685564205473" lon="8.64221768586229"><ele>192.8</ele><time>2026-04-19T15:39:14.016Z</time></trkpt><trkpt lat="45.566757972030146" lon="8.642223608355275"><ele>192.60000000000002</ele><time>2026-04-19T15:39:15.016Z</time></trkpt><trkpt lat="45.56665973119369" lon="8.642210778982731"><ele>192.39999999999998</ele><time>2026-04-19T15:39:16.016Z</time></trkpt><trkpt lat="45.56656184837154" lon="8.642193097081572"><ele>192.2</ele><time>2026-04-19T15:39:17.016Z</time></trkpt><trkpt lat="45.56647102611873" lon="8.642169366585629"><ele>192.0</ele><time>2026-04-19T15:39:18.016Z</time></trkpt><trkpt lat="45.56637731091482" lon="8.64214686735037"><ele>192.0</ele><time>2026-04-19T15:39:19.016Z</time></trkpt><trkpt lat="45.56628171534327" lon="8.64213211485714"><ele>192.0</ele><time>2026-04-19T15:39:20.016Z</time></trkpt><trkpt lat="45.56618233934143" lon="8.64211251623348"><ele>192.0</ele><time>2026-04-19T15:39:21.016Z</time></trkpt><trkpt lat="45.56607867549177" lon="8.642093616092664"><ele>192.0</ele><time>2026-04-19T15:39:22.016Z</time></trkpt><trkpt lat="45.565969790065864" lon="8.642079956884553"><ele>192.0</ele><time>2026-04-19T15:39:23.017Z</time></trkpt><trkpt lat="45.56585890996631" lon="8.642063711528227"><ele>191.75</ele><time>2026-04-19T15:39:24.017Z</time></trkpt><trkpt lat="45.56574744702514" lon="8.642045602056672"><ele>191.5</ele><time>2026-04-19T15:39:25.017Z</time></trkpt><trkpt lat="45.56563161349517" lon="8.642034925516159"><ele>191.25</ele><time>2026-04-19T15:39:26.017Z</time></trkpt><trkpt lat="45.565519159158846" lon="8.642013055830486"><ele>191.0</ele><time>2026-04-19T15:39:27.017Z</time></trkpt><trkpt lat="45.56540314857783" lon="8.641992031644731"><ele>191.0</ele><time>2026-04-19T15:39:28.017Z</time></trkpt><trkpt lat="45.565284243453455" lon="8.64198347235609"><ele>191.0</ele><time>2026-04-19T15:39:29.017Z</time></trkpt><trkpt lat="45.56516619029721" lon="8.64197134336074"><ele>191.0</ele><time>2026-04-19T15:39:30.017Z</time></trkpt><trkpt lat="45.56504996238727" lon="8.641950433426985"><ele>191.0</ele><time>2026-04-19T15:39:31.017Z</time></trkpt><trkpt lat="45.56493647680738" lon="8.641931690882368"><ele>191.0</ele><time>2026-04-19T15:39:32.017Z</time></trkpt><trkpt lat="45.564832866703" lon="8.64191529546804"><ele>191.0</ele><time>2026-04-19T15:39:33.017Z</time></trkpt><trkpt lat="45.56474187991218" lon="8.641899638523947"><ele>191.0</ele><time>2026-04-19T15:39:34.017Z</time></trkpt><trkpt lat="45.56467139081004" lon="8.641888975594869"><ele>191.0</ele><time>2026-04-19T15:39:35.017Z</time></trkpt><trkpt lat="45.564584421980925" lon="8.641920335952781"><ele>191.0</ele><time>2026-04-19T15:39:37.017Z</time></trkpt><trkpt lat="45.56454942464634" lon="8.642071920269515"><ele>191.0</ele><time>2026-04-19T15:39:39.017Z</time></trkpt><trkpt lat="45.56455714395979" lon="8.642190712675081"><ele>191.0</ele><time>2026-04-19T15:39:40.017Z</time></trkpt><trkpt lat="45.56456211114819" lon="8.642310611427796"><ele>191.0</ele><time>2026-04-19T15:39:41.017Z</time></trkpt><trkpt lat="45.56456401323909" lon="8.642453999289053"><ele>191.0</ele><time>2026-04-19T15:39:42.017Z</time></trkpt><trkpt lat="45.564558148920455" lon="8.642607246768192"><ele>191.0</ele><time>2026-04-19T15:39:43.017Z</time></trkpt><trkpt lat="45.564552874095554" lon="8.642769901095322"><ele>190.75</ele><time>2026-04-19T15:39:44.017Z</time></trkpt><trkpt lat="45.564549119967864" lon="8.6429328537826"><ele>190.5</ele><time>2026-04-19T15:39:45.017Z</time></trkpt><trkpt lat="45.56455004450035" lon="8.643118886219174"><ele>190.25</ele><time>2026-04-19T15:39:46.017Z</time></trkpt><trkpt lat="45.56455910707706" lon="8.643324463720212"><ele>190.0</ele><time>2026-04-19T15:39:47.017Z</time></trkpt><trkpt lat="45.564565109168186" lon="8.643539531675057"><ele>190.25</ele><time>2026-04-19T15:39:48.017Z</time></trkpt><trkpt lat="45.56456434748603" lon="8.643750904616224"><ele>190.5</ele><time>2026-04-19T15:39:49.017Z</time></trkpt><trkpt lat="45.56456648414783" lon="8.643939827557713"><ele>190.75</ele><time>2026-04-19T15:39:50.017Z</time></trkpt><trkpt lat="45.56456788880876" lon="8.644117980056594"><ele>191.0</ele><time>2026-04-19T15:39:51.017Z</time></trkpt><trkpt lat="45.56456928229884" lon="8.644274833459162"><ele>191.0</ele><time>2026-04-19T15:39:52.017Z</time></trkpt><trkpt lat="45.564574324004894" lon="8.644402400257162"><ele>191.0</ele><time>2026-04-19T15:39:53.017Z</time></trkpt><trkpt lat="45.564575902876456" lon="8.644508644834497"><ele>191.0</ele><time>2026-04-19T15:39:54.017Z</time></trkpt><trkpt lat="45.56455410180768" lon="8.644645992850785"><ele>191.0</ele><time>2026-04-19T15:39:56.017Z</time></trkpt><trkpt lat="45.56443971544218" lon="8.644764045125893"><ele>191.0</ele><time>2026-04-19T15:39:58.018Z</time></trkpt><trkpt lat="45.56434483318791" lon="8.64481316358738"><ele>191.25</ele><time>2026-04-19T15:39:59.018Z</time></trkpt><trkpt lat="45.56423529571154" lon="8.644862890661566"><ele>191.5</ele><time>2026-04-19T15:40:00.018Z</time></trkpt><trkpt lat="45.56412464595723" lon="8.644911164456314"><ele>191.75</ele><time>2026-04-19T15:40:01.018Z</time></trkpt><trkpt lat="45.5640015957309" lon="8.64497428634052"><ele>192.0</ele><time>2026-04-19T15:40:02.018Z</time></trkpt><trkpt lat="45.56387032616782" lon="8.645038838746272"><ele>192.0</ele><time>2026-04-19T15:40:03.018Z</time></trkpt><trkpt lat="45.563744172079936" lon="8.645101577822338"><ele>192.0</ele><time>2026-04-19T15:40:04.018Z</time></trkpt><trkpt lat="45.563611943355944" lon="8.645167400922215"><ele>192.0</ele><time>2026-04-19T15:40:05.018Z</time></trkpt><trkpt lat="45.56346768030871" lon="8.645233850990094"><ele>192.0</ele><time>2026-04-19T15:40:06.018Z</time></trkpt><trkpt lat="45.56331941104275" lon="8.645302131718982"><ele>191.33333333333334</ele><time>2026-04-19T15:40:07.018Z</time></trkpt><trkpt lat="45.56317065583355" lon="8.645372813015614"><ele>190.66666666666669</ele><time>2026-04-19T15:40:08.018Z</time></trkpt><trkpt lat="45.56302790481662" lon="8.645441319571004"><ele>190.0</ele><time>2026-04-19T15:40:09.018Z</time></trkpt><trkpt lat="45.56288133142727" lon="8.645512653457796"><ele>190.0</ele><time>2026-04-19T15:40:10.015Z</time></trkpt><trkpt lat="45.562725560303235" lon="8.645582552864315"><ele>190.0</ele><time>2026-04-19T15:40:11.015Z</time></trkpt><trkpt lat="45.56256779745624" lon="8.645654196160182"><ele>190.0</ele><time>2026-04-19T15:40:12.015Z</time></trkpt><trkpt lat="45.562412387341766" lon="8.645731058065639"><ele>190.0</ele><time>2026-04-19T15:40:13.015Z</time></trkpt><trkpt lat="45.56225165672355" lon="8.645810988934437"><ele>190.0</ele><time>2026-04-19T15:40:14.015Z</time></trkpt><trkpt lat="45.56208873316515" lon="8.645891909726913"><ele>190.0</ele><time>2026-04-19T15:40:15.015Z</time></trkpt><trkpt lat="45.561925928130705" lon="8.645974101021338"><ele>189.0</ele><time>2026-04-19T15:40:16.015Z</time></trkpt><trkpt lat="45.56175992702367" lon="8.64605325046169"><ele>188.0</ele><time>2026-04-19T15:40:17.015Z</time></trkpt><trkpt lat="45.56159488560453" lon="8.646136518969783"><ele>187.0</ele><time>2026-04-19T15:40:18.015Z</time></trkpt><trkpt lat="45.561427710218446" lon="8.646218516955956"><ele>187.0</ele><time>2026-04-19T15:40:19.015Z</time></trkpt><trkpt lat="45.56125944168372" lon="8.646299070646945"><ele>187.0</ele><time>2026-04-19T15:40:20.015Z</time></trkpt><trkpt lat="45.56108918322089" lon="8.646379631603267"><ele>187.0</ele><time>2026-04-19T15:40:21.015Z</time></trkpt><trkpt lat="45.56091909252056" lon="8.646462501972445"><ele>186.33333333333334</ele><time>2026-04-19T15:40:22.015Z</time></trkpt><trkpt lat="45.56074765786475" lon="8.646547422767927"><ele>185.66666666666666</ele><time>2026-04-19T15:40:23.015Z</time></trkpt><trkpt lat="45.56057609450571" lon="8.64663319192947"><ele>185.0</ele><time>2026-04-19T15:40:24.015Z</time></trkpt><trkpt lat="45.56040521326004" lon="8.646720077298907"><ele>185.33333333333331</ele><time>2026-04-19T15:40:25.015Z</time></trkpt><trkpt lat="45.56023088418839" lon="8.646801862450365"><ele>185.66666666666666</ele><time>2026-04-19T15:40:26.015Z</time></trkpt><trkpt lat="45.56005638545637" lon="8.646883833770142"><ele>186.0</ele><time>2026-04-19T15:40:27.015Z</time></trkpt><trkpt lat="45.559881572229614" lon="8.646967014918669"><ele>186.0</ele><time>2026-04-19T15:40:28.015Z</time></trkpt><trkpt lat="45.55970641600674" lon="8.647052172212383"><ele>186.0</ele><time>2026-04-19T15:40:29.015Z</time></trkpt><trkpt lat="45.55953145136522" lon="8.647137055117616"><ele>186.0</ele><time>2026-04-19T15:40:30.015Z</time></trkpt><trkpt lat="45.55935719139378" lon="8.647222188155688"><ele>186.66666666666666</ele><time>2026-04-19T15:40:31.015Z</time></trkpt><trkpt lat="45.55918025496634" lon="8.64730645287835"><ele>187.33333333333331</ele><time>2026-04-19T15:40:32.015Z</time></trkpt><trkpt lat="45.559002404208265" lon="8.647390638920978"><ele>188.0</ele><time>2026-04-19T15:40:33.015Z</time></trkpt><trkpt lat="45.55882411585594" lon="8.647477035736088"><ele>187.66666666666666</ele><time>2026-04-19T15:40:34.015Z</time></trkpt><trkpt lat="45.55864574753401" lon="8.647566633933003"><ele>187.33333333333334</ele><time>2026-04-19T15:40:35.015Z</time></trkpt><trkpt lat="45.558469862923076" lon="8.647657087390753"><ele>187.0</ele><time>2026-04-19T15:40:36.015Z</time></trkpt><trkpt lat="45.55829585854504" lon="8.647747821850984"><ele>187.0</ele><time>2026-04-19T15:40:37.015Z</time></trkpt><trkpt lat="45.55812175207406" lon="8.64783464240676"><ele>187.0</ele><time>2026-04-19T15:40:38.015Z</time></trkpt><trkpt lat="45.557945742169764" lon="8.64791956821809"><ele>187.0</ele><time>2026-04-19T15:40:39.015Z</time></trkpt><trkpt lat="45.55776978597403" lon="8.648002949893463"><ele>187.66666666666669</ele><time>2026-04-19T15:40:40.015Z</time></trkpt><trkpt lat="45.55759501026223" lon="8.648080725910388"><ele>188.33333333333334</ele><time>2026-04-19T15:40:41.015Z</time></trkpt><trkpt lat="45.557417641760416" lon="8.648153526958945"><ele>189.0</ele><time>2026-04-19T15:40:42.015Z</time></trkpt><trkpt lat="45.55723900891477" lon="8.648214368811578"><ele>189.0</ele><time>2026-04-19T15:40:43.015Z</time></trkpt><trkpt lat="45.557056211402674" lon="8.648264510631867"><ele>189.0</ele><time>2026-04-19T15:40:44.015Z</time></trkpt><trkpt lat="45.55687330614233" lon="8.648301244511833"><ele>189.0</ele><time>2026-04-19T15:40:45.015Z</time></trkpt><trkpt lat="45.556691646847376" lon="8.64832560917518"><ele>188.33333333333334</ele><time>2026-04-19T15:40:46.015Z</time></trkpt><trkpt lat="45.55650974224707" lon="8.648339197888868"><ele>187.66666666666669</ele><time>2026-04-19T15:40:47.015Z</time></trkpt><trkpt lat="45.55632728909167" lon="8.6483385296805"><ele>187.0</ele><time>2026-04-19T15:40:48.016Z</time></trkpt><trkpt lat="45.556142689030686" lon="8.648334045074423"><ele>186.66666666666669</ele><time>2026-04-19T15:40:49.016Z</time></trkpt><trkpt lat="45.555957471667696" lon="8.648331171502718"><ele>186.33333333333334</ele><time>2026-04-19T15:40:50.016Z</time></trkpt><trkpt lat="45.555772147479246" lon="8.64832864102725"><ele>186.0</ele><time>2026-04-19T15:40:51.016Z</time></trkpt><trkpt lat="45.55558897818129" lon="8.648324269793203"><ele>186.0</ele><time>2026-04-19T15:40:52.016Z</time></trkpt><trkpt lat="45.55540502035007" lon="8.648317252955243"><ele>186.0</ele><time>2026-04-19T15:40:53.016Z</time></trkpt><trkpt lat="45.555220369178464" lon="8.648314246711012"><ele>186.0</ele><time>2026-04-19T15:40:54.016Z</time></trkpt><trkpt lat="45.555034837367735" lon="8.64831400063955"><ele>186.0</ele><time>2026-04-19T15:40:55.016Z</time></trkpt><trkpt lat="45.554848700496954" lon="8.64831857038393"><ele>186.0</ele><time>2026-04-19T15:40:56.016Z</time></trkpt><trkpt lat="45.554664114684684" lon="8.648320307456004"><ele>186.0</ele><time>2026-04-19T15:40:57.016Z</time></trkpt><trkpt lat="45.554479311114314" lon="8.648330742173389"><ele>185.33333333333334</ele><time>2026-04-19T15:40:58.016Z</time></trkpt><trkpt lat="45.55429372918341" lon="8.648347586726588"><ele>184.66666666666669</ele><time>2026-04-19T15:40:59.016Z</time></trkpt><trkpt lat="45.55410927137414" lon="8.648369123232808"><ele>184.0</ele><time>2026-04-19T15:41:00.016Z</time></trkpt><trkpt lat="45.55392784990703" lon="8.648403228513422"><ele>184.0</ele><time>2026-04-19T15:41:01.016Z</time></trkpt><trkpt lat="45.55374561541283" lon="8.648452681209198"><ele>184.0</ele><time>2026-04-19T15:41:02.016Z</time></trkpt><trkpt lat="45.55356671982868" lon="8.648507406379114"><ele>184.0</ele><time>2026-04-19T15:41:03.016Z</time></trkpt><trkpt lat="45.55338087539468" lon="8.648571015642833"><ele>184.0</ele><time>2026-04-19T15:41:04.016Z</time></trkpt><trkpt lat="45.5532007090226" lon="8.648630536634556"><ele>184.0</ele><time>2026-04-19T15:41:05.016Z</time></trkpt><trkpt lat="45.55301247814437" lon="8.64869382826171"><ele>184.0</ele><time>2026-04-19T15:41:06.016Z</time></trkpt><trkpt lat="45.552820310948675" lon="8.648761012302296"><ele>184.0</ele><time>2026-04-19T15:41:07.016Z</time></trkpt><trkpt lat="45.55262270458042" lon="8.648830234670042"><ele>184.0</ele><time>2026-04-19T15:41:08.016Z</time></trkpt><trkpt lat="45.55242165045425" lon="8.648898891498508"><ele>184.0</ele><time>2026-04-19T15:41:09.016Z</time></trkpt><trkpt lat="45.55221724950324" lon="8.648972277824974"><ele>183.66666666666669</ele><time>2026-04-19T15:41:10.016Z</time></trkpt><trkpt lat="45.55200887612721" lon="8.649047931413788"><ele>183.33333333333334</ele><time>2026-04-19T15:41:11.016Z</time></trkpt><trkpt lat="45.55179858821324" lon="8.649124978419957"><ele>183.0</ele><time>2026-04-19T15:41:12.016Z</time></trkpt><trkpt lat="45.55158763417371" lon="8.649202885318855"><ele>183.0</ele><time>2026-04-19T15:41:13.016Z</time></trkpt><trkpt lat="45.55137370522001" lon="8.64928036102363"><ele>183.0</ele><time>2026-04-19T15:41:14.016Z</time></trkpt><trkpt lat="45.55115801272407" lon="8.649361822640385"><ele>183.0</ele><time>2026-04-19T15:41:15.016Z</time></trkpt><trkpt lat="45.55094277442017" lon="8.649444683974885"><ele>183.0</ele><time>2026-04-19T15:41:16.016Z</time></trkpt><trkpt lat="45.55072849795828" lon="8.649530152297045"><ele>183.0</ele><time>2026-04-19T15:41:17.016Z</time></trkpt><trkpt lat="45.5505180790237" lon="8.64961272296528"><ele>183.0</ele><time>2026-04-19T15:41:18.016Z</time></trkpt><trkpt lat="45.55031000031842" lon="8.649689898944702"><ele>183.0</ele><time>2026-04-19T15:41:19.016Z</time></trkpt><trkpt lat="45.550103565224155" lon="8.649765594473964"><ele>183.0</ele><time>2026-04-19T15:41:20.016Z</time></trkpt><trkpt lat="45.54989713139551" lon="8.649841174753147"><ele>183.0</ele><time>2026-04-19T15:41:21.017Z</time></trkpt><trkpt lat="45.54969139388858" lon="8.649914269119982"><ele>183.33333333333334</ele><time>2026-04-19T15:41:22.017Z</time></trkpt><trkpt lat="45.54948597882508" lon="8.649987707139704"><ele>183.66666666666669</ele><time>2026-04-19T15:41:23.017Z</time></trkpt><trkpt lat="45.5492800692623" lon="8.650063261476436"><ele>184.0</ele><time>2026-04-19T15:41:24.017Z</time></trkpt><trkpt lat="45.5490733234091" lon="8.650138999414207"><ele>184.0</ele><time>2026-04-19T15:41:25.017Z</time></trkpt><trkpt lat="45.54886531142781" lon="8.65021522899429"><ele>184.0</ele><time>2026-04-19T15:41:26.017Z</time></trkpt><trkpt lat="45.54865583982869" lon="8.650290921811386"><ele>184.0</ele><time>2026-04-19T15:41:27.017Z</time></trkpt><trkpt lat="45.54844670375387" lon="8.650369686168318"><ele>184.0</ele><time>2026-04-19T15:41:28.017Z</time></trkpt><trkpt lat="45.54823732987399" lon="8.650445981588597"><ele>184.0</ele><time>2026-04-19T15:41:29.017Z</time></trkpt><trkpt lat="45.54802913692501" lon="8.650521078103976"><ele>184.0</ele><time>2026-04-19T15:41:30.017Z</time></trkpt><trkpt lat="45.547821592755156" lon="8.650596563296256"><ele>184.0</ele><time>2026-04-19T15:41:31.017Z</time></trkpt><trkpt lat="45.54761394054819" lon="8.65067538778331"><ele>184.0</ele><time>2026-04-19T15:41:32.017Z</time></trkpt><trkpt lat="45.54740677055651" lon="8.650751605362915"><ele>184.0</ele><time>2026-04-19T15:41:33.017Z</time></trkpt><trkpt lat="45.54720188127083" lon="8.65082523493762"><ele>183.33333333333334</ele><time>2026-04-19T15:41:34.017Z</time></trkpt><trkpt lat="45.54699894067492" lon="8.650902448873673"><ele>182.66666666666666</ele><time>2026-04-19T15:41:35.017Z</time></trkpt><trkpt lat="45.54679860321745" lon="8.650978961203778"><ele>182.0</ele><time>2026-04-19T15:41:36.017Z</time></trkpt><trkpt lat="45.54659905894525" lon="8.651052681102854"><ele>182.0</ele><time>2026-04-19T15:41:37.017Z</time></trkpt><trkpt lat="45.54640150565389" lon="8.651124083567089"><ele>182.0</ele><time>2026-04-19T15:41:38.017Z</time></trkpt><trkpt lat="45.54620310082258" lon="8.651195820102721"><ele>182.0</ele><time>2026-04-19T15:41:39.017Z</time></trkpt><trkpt lat="45.54600736404204" lon="8.651265591859824"><ele>181.66666666666666</ele><time>2026-04-19T15:41:40.017Z</time></trkpt><trkpt lat="45.54581103120866" lon="8.651335851346515"><ele>181.33333333333334</ele><time>2026-04-19T15:41:41.017Z</time></trkpt><trkpt lat="45.54561285953921" lon="8.651400006938783"><ele>181.0</ele><time>2026-04-19T15:41:42.017Z</time></trkpt><trkpt lat="45.5454088494762" lon="8.651461902368126"><ele>181.33333333333334</ele><time>2026-04-19T15:41:43.017Z</time></trkpt><trkpt lat="45.545202249115434" lon="8.651527599584528"><ele>181.66666666666666</ele><time>2026-04-19T15:41:44.017Z</time></trkpt><trkpt lat="45.54499633423415" lon="8.651595153868262"><ele>182.0</ele><time>2026-04-19T15:41:45.017Z</time></trkpt><trkpt lat="45.54479000782054" lon="8.651665134753422"><ele>182.0</ele><time>2026-04-19T15:41:46.017Z</time></trkpt><trkpt lat="45.544582279844676" lon="8.651738615524456"><ele>182.0</ele><time>2026-04-19T15:41:47.017Z</time></trkpt><trkpt lat="45.54437420391133" lon="8.651813816023768"><ele>182.0</ele><time>2026-04-19T15:41:48.017Z</time></trkpt><trkpt lat="45.544165750440925" lon="8.651895167699292"><ele>182.0</ele><time>2026-04-19T15:41:49.017Z</time></trkpt><trkpt lat="45.54395722902823" lon="8.651976973766592"><ele>182.0</ele><time>2026-04-19T15:41:50.017Z</time></trkpt><trkpt lat="45.54375230176214" lon="8.652059390985828"><ele>182.0</ele><time>2026-04-19T15:41:51.017Z</time></trkpt><trkpt lat="45.54354926244385" lon="8.652142314226223"><ele>182.0</ele><time>2026-04-19T15:41:52.017Z</time></trkpt><trkpt lat="45.5433485188724" lon="8.652226916075966"><ele>182.0</ele><time>2026-04-19T15:41:53.017Z</time></trkpt><trkpt lat="45.5431494693548" lon="8.652311720502315"><ele>182.0</ele><time>2026-04-19T15:41:54.017Z</time></trkpt><trkpt lat="45.542950613938125" lon="8.652392766326933"><ele>182.0</ele><time>2026-04-19T15:41:55.018Z</time></trkpt><trkpt lat="45.542751843020184" lon="8.652474325007258"><ele>182.0</ele><time>2026-04-19T15:41:56.018Z</time></trkpt><trkpt lat="45.54255398639869" lon="8.652550517708072"><ele>182.0</ele><time>2026-04-19T15:41:57.018Z</time></trkpt><trkpt lat="45.54235573466278" lon="8.65262816428721"><ele>182.0</ele><time>2026-04-19T15:41:58.018Z</time></trkpt><trkpt lat="45.54215853236554" lon="8.652704425761936"><ele>182.0</ele><time>2026-04-19T15:41:59.018Z</time></trkpt><trkpt lat="45.5419623660632" lon="8.652786701795462"><ele>182.0</ele><time>2026-04-19T15:42:00.018Z</time></trkpt><trkpt lat="45.54176466667713" lon="8.652870952460665"><ele>180.66666666666666</ele><time>2026-04-19T15:42:01.018Z</time></trkpt><trkpt lat="45.541571490415464" lon="8.652963203714025"><ele>179.33333333333334</ele><time>2026-04-19T15:42:02.018Z</time></trkpt><trkpt lat="45.541365876583164" lon="8.653043286981639"><ele>178.0</ele><time>2026-04-19T15:42:03.018Z</time></trkpt><trkpt lat="45.541162933605754" lon="8.653123520965918"><ele>178.0</ele><time>2026-04-19T15:42:04.018Z</time></trkpt><trkpt lat="45.5409595182644" lon="8.653205501279603"><ele>178.0</ele><time>2026-04-19T15:42:05.018Z</time></trkpt><trkpt lat="45.54074977791052" lon="8.653288974992908"><ele>178.0</ele><time>2026-04-19T15:42:06.018Z</time></trkpt><trkpt lat="45.54054236103964" lon="8.653374183592845"><ele>178.0</ele><time>2026-04-19T15:42:07.018Z</time></trkpt><trkpt lat="45.540331809443316" lon="8.653459952900217"><ele>178.0</ele><time>2026-04-19T15:42:08.018Z</time></trkpt><trkpt lat="45.54011972401112" lon="8.653546217072835"><ele>178.0</ele><time>2026-04-19T15:42:09.018Z</time></trkpt><trkpt lat="45.53991135365941" lon="8.65363032103111"><ele>178.33333333333334</ele><time>2026-04-19T15:42:10.018Z</time></trkpt><trkpt lat="45.539705451265306" lon="8.653715718940706"><ele>178.66666666666666</ele><time>2026-04-19T15:42:11.018Z</time></trkpt><trkpt lat="45.53950221651294" lon="8.653796359661797"><ele>179.0</ele><time>2026-04-19T15:42:12.018Z</time></trkpt><trkpt lat="45.53929865712298" lon="8.65387547608796"><ele>179.0</ele><time>2026-04-19T15:42:13.018Z</time></trkpt><trkpt lat="45.53909623354157" lon="8.653959244695724"><ele>179.0</ele><time>2026-04-19T15:42:14.018Z</time></trkpt><trkpt lat="45.53889144227099" lon="8.654043806901294"><ele>179.0</ele><time>2026-04-19T15:42:15.018Z</time></trkpt><trkpt lat="45.53868751187597" lon="8.654129694717856"><ele>179.33333333333331</ele><time>2026-04-19T15:42:16.015Z</time></trkpt><trkpt lat="45.53848154633163" lon="8.65421568899681"><ele>179.66666666666666</ele><time>2026-04-19T15:42:17.015Z</time></trkpt><trkpt lat="45.53827530792363" lon="8.654297840892278"><ele>180.0</ele><time>2026-04-19T15:42:18.015Z</time></trkpt><trkpt lat="45.53806927440773" lon="8.654380203210838"><ele>179.33333333333334</ele><time>2026-04-19T15:42:19.015Z</time></trkpt><trkpt lat="45.53786408312859" lon="8.654469961754568"><ele>178.66666666666669</ele><time>2026-04-19T15:42:20.015Z</time></trkpt><trkpt lat="45.537659167598584" lon="8.654563854230057"><ele>178.0</ele><time>2026-04-19T15:42:21.015Z</time></trkpt><trkpt lat="45.53745288001719" lon="8.654652969635194"><ele>178.0</ele><time>2026-04-19T15:42:22.015Z</time></trkpt><trkpt lat="45.53724665281896" lon="8.654736065833198"><ele>178.0</ele><time>2026-04-19T15:42:23.015Z</time></trkpt><trkpt lat="45.537040750468904" lon="8.654819838101746"><ele>178.0</ele><time>2026-04-19T15:42:24.015Z</time></trkpt><trkpt lat="45.53683477193223" lon="8.654904144578529"><ele>178.33333333333334</ele><time>2026-04-19T15:42:25.015Z</time></trkpt><trkpt lat="45.53663090393185" lon="8.654987777388023"><ele>178.66666666666666</ele><time>2026-04-19T15:42:26.015Z</time></trkpt><trkpt lat="45.53642687928409" lon="8.655069613853458"><ele>179.0</ele><time>2026-04-19T15:42:27.015Z</time></trkpt><trkpt lat="45.53622504070919" lon="8.655155081900194"><ele>178.66666666666666</ele><time>2026-04-19T15:42:28.015Z</time></trkpt><trkpt lat="45.536022915067996" lon="8.655235326092917"><ele>178.33333333333334</ele><time>2026-04-19T15:42:29.015Z</time></trkpt><trkpt lat="45.535819785136965" lon="8.655295378267006"><ele>178.0</ele><time>2026-04-19T15:42:30.015Z</time></trkpt><trkpt lat="45.535612422853006" lon="8.655324677379072"><ele>177.66666666666669</ele><time>2026-04-19T15:42:31.015Z</time></trkpt><trkpt lat="45.53540486392908" lon="8.655332034829293"><ele>177.33333333333334</ele><time>2026-04-19T15:42:32.015Z</time></trkpt><trkpt lat="45.53519733044382" lon="8.655313511345028"><ele>177.0</ele><time>2026-04-19T15:42:33.015Z</time></trkpt><trkpt lat="45.53499426429631" lon="8.655264267197463"><ele>177.0</ele><time>2026-04-19T15:42:34.015Z</time></trkpt><trkpt lat="45.53479064816556" lon="8.655188833038084"><ele>177.0</ele><time>2026-04-19T15:42:35.015Z</time></trkpt><trkpt lat="45.53459246508589" lon="8.655090727926606"><ele>177.0</ele><time>2026-04-19T15:42:36.015Z</time></trkpt><trkpt lat="45.53439003023336" lon="8.65499044985233"><ele>177.66666666666666</ele><time>2026-04-19T15:42:37.015Z</time></trkpt><trkpt lat="45.534188822466476" lon="8.654891663775677"><ele>178.33333333333331</ele><time>2026-04-19T15:42:38.015Z</time></trkpt><trkpt lat="45.53398935947485" lon="8.654796857751942"><ele>179.0</ele><time>2026-04-19T15:42:39.015Z</time></trkpt><trkpt lat="45.53379456017168" lon="8.654704240792412"><ele>178.33333333333331</ele><time>2026-04-19T15:42:40.015Z</time></trkpt><trkpt lat="45.533603931041824" lon="8.654614968950774"><ele>177.66666666666666</ele><time>2026-04-19T15:42:41.016Z</time></trkpt><trkpt lat="45.53341850425669" lon="8.65452589610579"><ele>177.0</ele><time>2026-04-19T15:42:42.016Z</time></trkpt><trkpt lat="45.53323548333666" lon="8.65444180547556"><ele>177.0</ele><time>2026-04-19T15:42:43.016Z</time></trkpt><trkpt lat="45.533058926958695" lon="8.654356884812564"><ele>177.0</ele><time>2026-04-19T15:42:44.016Z</time></trkpt><trkpt lat="45.532887170970355" lon="8.654273376807954"><ele>177.0</ele><time>2026-04-19T15:42:45.016Z</time></trkpt><trkpt lat="45.532720385065495" lon="8.654192274715813"><ele>177.33333333333334</ele><time>2026-04-19T15:42:46.016Z</time></trkpt><trkpt lat="45.53256377072714" lon="8.654116338278815"><ele>177.66666666666669</ele><time>2026-04-19T15:42:47.016Z</time></trkpt><trkpt lat="45.53241615287467" lon="8.654045009682408"><ele>178.0</ele><time>2026-04-19T15:42:48.016Z</time></trkpt><trkpt lat="45.53227676507781" lon="8.653976618754047"><ele>178.0</ele><time>2026-04-19T15:42:49.016Z</time></trkpt><trkpt lat="45.53214353248754" lon="8.653908890341452"><ele>178.0</ele><time>2026-04-19T15:42:50.016Z</time></trkpt><trkpt lat="45.53201759752752" lon="8.653841947248974"><ele>178.0</ele><time>2026-04-19T15:42:51.016Z</time></trkpt><trkpt lat="45.531902644894124" lon="8.653773172533946"><ele>178.0</ele><time>2026-04-19T15:42:52.016Z</time></trkpt><trkpt lat="45.53179796374974" lon="8.653700241898107"><ele>177.4</ele><time>2026-04-19T15:42:53.016Z</time></trkpt><trkpt lat="45.53171545586108" lon="8.65360715317119"><ele>176.8</ele><time>2026-04-19T15:42:54.016Z</time></trkpt><trkpt lat="45.53165641175735" lon="8.65348469111828"><ele>176.2</ele><time>2026-04-19T15:42:55.016Z</time></trkpt><trkpt lat="45.53159944405635" lon="8.653361665539341"><ele>175.6</ele><time>2026-04-19T15:42:56.016Z</time></trkpt><trkpt lat="45.53152485449185" lon="8.653273006186456"><ele>175.0</ele><time>2026-04-19T15:42:57.016Z</time></trkpt><trkpt lat="45.53143418630671" lon="8.653237381362842"><ele>175.0</ele><time>2026-04-19T15:42:58.016Z</time></trkpt><trkpt lat="45.5313386790645" lon="8.65325088235146"><ele>175.0</ele><time>2026-04-19T15:42:59.016Z</time></trkpt><trkpt lat="45.53124007443956" lon="8.653302332434857"><ele>175.0</ele><time>2026-04-19T15:43:00.016Z</time></trkpt><trkpt lat="45.53115417766949" lon="8.653399405235568"><ele>175.0</ele><time>2026-04-19T15:43:01.016Z</time></trkpt><trkpt lat="45.53107524862271" lon="8.653518417876585"><ele>175.0</ele><time>2026-04-19T15:43:02.016Z</time></trkpt><trkpt lat="45.53098394042018" lon="8.653638921113755"><ele>174.75</ele><time>2026-04-19T15:43:03.016Z</time></trkpt><trkpt lat="45.530876129905614" lon="8.653737240150127"><ele>174.5</ele><time>2026-04-19T15:43:04.016Z</time></trkpt><trkpt lat="45.53076009592139" lon="8.65382333699089"><ele>174.25</ele><time>2026-04-19T15:43:05.016Z</time></trkpt><trkpt lat="45.53064047634415" lon="8.653926130759013"><ele>174.0</ele><time>2026-04-19T15:43:06.016Z</time></trkpt><trkpt lat="45.53051393422771" lon="8.654040839745848"><ele>173.33333333333334</ele><time>2026-04-19T15:43:07.016Z</time></trkpt><trkpt lat="45.53038273661644" lon="8.654160643217676"><ele>172.66666666666669</ele><time>2026-04-19T15:43:08.016Z</time></trkpt><trkpt lat="45.53024678958588" lon="8.65428209175298"><ele>172.0</ele><time>2026-04-19T15:43:09.016Z</time></trkpt><trkpt lat="45.530107359297496" lon="8.654403986802462"><ele>173.0</ele><time>2026-04-19T15:43:10.016Z</time></trkpt><trkpt lat="45.52996108585023" lon="8.654530204524315"><ele>174.0</ele><time>2026-04-19T15:43:11.016Z</time></trkpt><trkpt lat="45.52981137267348" lon="8.654661672662021"><ele>175.0</ele><time>2026-04-19T15:43:12.016Z</time></trkpt><trkpt lat="45.52966272242672" lon="8.654792676099206"><ele>175.0</ele><time>2026-04-19T15:43:13.016Z</time></trkpt><trkpt lat="45.52951353786193" lon="8.654924883665476"><ele>175.0</ele><time>2026-04-19T15:43:14.017Z</time></trkpt><trkpt lat="45.5293606144072" lon="8.655060229897995"><ele>175.0</ele><time>2026-04-19T15:43:15.017Z</time></trkpt><trkpt lat="45.52920459653095" lon="8.655194850742896"><ele>176.0</ele><time>2026-04-19T15:43:16.017Z</time></trkpt><trkpt lat="45.52904971004745" lon="8.655333139779719"><ele>177.0</ele><time>2026-04-19T15:43:17.017Z</time></trkpt><trkpt lat="45.52889359276427" lon="8.655472175834547"><ele>178.0</ele><time>2026-04-19T15:43:18.017Z</time></trkpt><trkpt lat="45.52874054415312" lon="8.655612712879472"><ele>177.66666666666669</ele><time>2026-04-19T15:43:19.017Z</time></trkpt><trkpt lat="45.52859069265205" lon="8.65574772987158"><ele>177.33333333333334</ele><time>2026-04-19T15:43:20.017Z</time></trkpt><trkpt lat="45.528440500169445" lon="8.655883602251814"><ele>177.0</ele><time>2026-04-19T15:43:21.017Z</time></trkpt><trkpt lat="45.52829066510862" lon="8.656017455081585"><ele>177.66666666666666</ele><time>2026-04-19T15:43:22.017Z</time></trkpt><trkpt lat="45.52814137646828" lon="8.65614928134945"><ele>178.33333333333331</ele><time>2026-04-19T15:43:23.017Z</time></trkpt><trkpt lat="45.52799237710002" lon="8.65628007977653"><ele>179.0</ele><time>2026-04-19T15:43:24.017Z</time></trkpt><trkpt lat="45.527842223511094" lon="8.656407132201318"><ele>177.66666666666666</ele><time>2026-04-19T15:43:25.017Z</time></trkpt><trkpt lat="45.52769321421018" lon="8.65653376847982"><ele>176.33333333333334</ele><time>2026-04-19T15:43:26.017Z</time></trkpt><trkpt lat="45.52754510449034" lon="8.656656944785912"><ele>175.0</ele><time>2026-04-19T15:43:27.017Z</time></trkpt><trkpt lat="45.52739959006134" lon="8.656782605580105"><ele>175.0</ele><time>2026-04-19T15:43:28.017Z</time></trkpt><trkpt lat="45.527252509222436" lon="8.65690428924843"><ele>175.0</ele><time>2026-04-19T15:43:29.017Z</time></trkpt><trkpt lat="45.527106797167924" lon="8.657027265465063"><ele>175.0</ele><time>2026-04-19T15:43:30.017Z</time></trkpt><trkpt lat="45.52696420371708" lon="8.657152543577581"><ele>175.0</ele><time>2026-04-19T15:43:31.017Z</time></trkpt><trkpt lat="45.526826702176116" lon="8.657277826089505"><ele>175.0</ele><time>2026-04-19T15:43:32.017Z</time></trkpt><trkpt lat="45.52669111581687" lon="8.657396115837342"><ele>175.0</ele><time>2026-04-19T15:43:33.017Z</time></trkpt><trkpt lat="45.52655772554957" lon="8.657493069070709"><ele>175.0</ele><time>2026-04-19T15:43:34.017Z</time></trkpt><trkpt lat="45.5264296828881" lon="8.657571715515434"><ele>175.0</ele><time>2026-04-19T15:43:35.017Z</time></trkpt><trkpt lat="45.526316001917735" lon="8.657625426626849"><ele>175.0</ele><time>2026-04-19T15:43:36.017Z</time></trkpt><trkpt lat="45.52621098431078" lon="8.657663985196649"><ele>175.0</ele><time>2026-04-19T15:43:37.017Z</time></trkpt><trkpt lat="45.52611858623835" lon="8.65768898940849"><ele>175.0</ele><time>2026-04-19T15:43:38.017Z</time></trkpt><trkpt lat="45.52603544776171" lon="8.657687220571619"><ele>175.0</ele><time>2026-04-19T15:43:39.017Z</time></trkpt><trkpt lat="45.52596091191398" lon="8.657664304325142"><ele>175.0</ele><time>2026-04-19T15:43:40.017Z</time></trkpt><trkpt lat="45.52588629331256" lon="8.657642165075005"><ele>175.0</ele><time>2026-04-19T15:43:41.017Z</time></trkpt><trkpt lat="45.52580851014467" lon="8.65764208460039"><ele>175.0</ele><time>2026-04-19T15:43:42.017Z</time></trkpt><trkpt lat="45.525729796972314" lon="8.657687493143792"><ele>175.0</ele><time>2026-04-19T15:43:43.017Z</time></trkpt><trkpt lat="45.52566710845809" lon="8.657772931652998"><ele>175.0</ele><time>2026-04-19T15:43:44.017Z</time></trkpt><trkpt lat="45.52560280400192" lon="8.657866392680313"><ele>175.0</ele><time>2026-04-19T15:43:45.017Z</time></trkpt><trkpt lat="45.52551935776718" lon="8.657946143487148"><ele>175.0</ele><time>2026-04-19T15:43:46.017Z</time></trkpt><trkpt lat="45.52542998058107" lon="8.65801129267304"><ele>175.0</ele><time>2026-04-19T15:43:47.018Z</time></trkpt><trkpt lat="45.525329718406226" lon="8.658073046550795"><ele>175.0</ele><time>2026-04-19T15:43:48.018Z</time></trkpt><trkpt lat="45.52522097443041" lon="8.658138428963515"><ele>175.25</ele><time>2026-04-19T15:43:49.018Z</time></trkpt><trkpt lat="45.52510529402911" lon="8.658196075305614"><ele>175.5</ele><time>2026-04-19T15:43:50.018Z</time></trkpt><trkpt lat="45.52498664312244" lon="8.658236932127569"><ele>175.75</ele><time>2026-04-19T15:43:51.018Z</time></trkpt><trkpt lat="45.5248631436399" lon="8.65825946189976"><ele>176.0</ele><time>2026-04-19T15:43:52.018Z</time></trkpt><trkpt lat="45.52473156006045" lon="8.658261289954117"><ele>176.0</ele><time>2026-04-19T15:43:53.018Z</time></trkpt><trkpt lat="45.52459267782383" lon="8.658256717917105"><ele>176.0</ele><time>2026-04-19T15:43:54.018Z</time></trkpt><trkpt lat="45.524450579325645" lon="8.658251904958167"><ele>176.0</ele><time>2026-04-19T15:43:55.018Z</time></trkpt><trkpt lat="45.52430099606955" lon="8.658246760468927"><ele>176.0</ele><time>2026-04-19T15:43:56.018Z</time></trkpt><trkpt lat="45.52414568304974" lon="8.65824526219923"><ele>175.33333333333331</ele><time>2026-04-19T15:43:57.018Z</time></trkpt><trkpt lat="45.52398468645865" lon="8.65824933830178"><ele>174.66666666666666</ele><time>2026-04-19T15:43:58.018Z</time></trkpt><trkpt lat="45.52381994151483" lon="8.658254573240557"><ele>174.0</ele><time>2026-04-19T15:43:59.018Z</time></trkpt><trkpt lat="45.523661151669636" lon="8.658258312277283"><ele>174.0</ele><time>2026-04-19T15:44:00.018Z</time></trkpt><trkpt lat="45.52349977582106" lon="8.65826344663354"><ele>174.0</ele><time>2026-04-19T15:44:01.018Z</time></trkpt><trkpt lat="45.52333193941297" lon="8.658274075907613"><ele>174.0</ele><time>2026-04-19T15:44:02.018Z</time></trkpt><trkpt lat="45.52315543718234" lon="8.658279678400115"><ele>174.0</ele><time>2026-04-19T15:44:03.018Z</time></trkpt><trkpt lat="45.52297180608843" lon="8.65828849940073"><ele>174.0</ele><time>2026-04-19T15:44:04.018Z</time></trkpt><trkpt lat="45.52280371815205" lon="8.658287966568052"><ele>174.0</ele><time>2026-04-19T15:44:05.018Z</time></trkpt><trkpt lat="45.522644692575305" lon="8.65828298763669"><ele>173.25</ele><time>2026-04-19T15:44:06.018Z</time></trkpt><trkpt lat="45.52249380736522" lon="8.658281738103488"><ele>172.5</ele><time>2026-04-19T15:44:07.018Z</time></trkpt><trkpt lat="45.52235655104483" lon="8.658282267918795"><ele>171.75</ele><time>2026-04-19T15:44:08.018Z</time></trkpt><trkpt lat="45.5222355443029" lon="8.658280586794769"><ele>171.0</ele><time>2026-04-19T15:44:09.018Z</time></trkpt><trkpt lat="45.52212575687506" lon="8.658277268037262"><ele>170.83333333333334</ele><time>2026-04-19T15:44:10.018Z</time></trkpt><trkpt lat="45.52202505734656" lon="8.658258533532097"><ele>170.66666666666666</ele><time>2026-04-19T15:44:11.018Z</time></trkpt><trkpt lat="45.521937321823216" lon="8.658222784877692"><ele>170.5</ele><time>2026-04-19T15:44:12.018Z</time></trkpt><trkpt lat="45.52186335471344" lon="8.658165004260123"><ele>170.33333333333331</ele><time>2026-04-19T15:44:13.018Z</time></trkpt><trkpt lat="45.52179569385428" lon="8.658119235242657"><ele>170.16666666666666</ele><time>2026-04-19T15:44:14.018Z</time></trkpt><trkpt lat="45.521721746396295" lon="8.658126049394117"><ele>170.0</ele><time>2026-04-19T15:44:15.018Z</time></trkpt><trkpt lat="45.5216378060512" lon="8.658176184069795"><ele>170.0</ele><time>2026-04-19T15:44:16.018Z</time></trkpt><trkpt lat="45.52152605082623" lon="8.658223555336551"><ele>170.0</ele><time>2026-04-19T15:44:17.018Z</time></trkpt><trkpt lat="45.52139414740829" lon="8.65825547196804"><ele>170.0</ele><time>2026-04-19T15:44:18.018Z</time></trkpt><trkpt lat="45.52126574367256" lon="8.658261618316075"><ele>170.0</ele><time>2026-04-19T15:44:19.018Z</time></trkpt><trkpt lat="45.52112870469244" lon="8.658263462686913"><ele>169.33333333333331</ele><time>2026-04-19T15:44:20.018Z</time></trkpt><trkpt lat="45.52098001550257" lon="8.658269936202"><ele>168.66666666666666</ele><time>2026-04-19T15:44:21.019Z</time></trkpt><trkpt lat="45.520824958400745" lon="8.658282689271351"><ele>168.0</ele><time>2026-04-19T15:44:22.015Z</time></trkpt><trkpt lat="45.52066024812585" lon="8.658300708716006"><ele>168.0</ele><time>2026-04-19T15:44:23.015Z</time></trkpt><trkpt lat="45.52048981939523" lon="8.658323501552648"><ele>168.0</ele><time>2026-04-19T15:44:24.015Z</time></trkpt><trkpt lat="45.52031413339723" lon="8.658354070067155"><ele>168.0</ele><time>2026-04-19T15:44:25.015Z</time></trkpt><trkpt lat="45.52013649192734" lon="8.658385913766715"><ele>168.0</ele><time>2026-04-19T15:44:26.015Z</time></trkpt><trkpt lat="45.519960299757244" lon="8.658419785018495"><ele>168.0</ele><time>2026-04-19T15:44:27.015Z</time></trkpt><trkpt lat="45.51977053642053" lon="8.658455517345072"><ele>168.0</ele><time>2026-04-19T15:44:28.015Z</time></trkpt><trkpt lat="45.519572733438025" lon="8.658493096715036"><ele>167.33333333333334</ele><time>2026-04-19T15:44:29.015Z</time></trkpt><trkpt lat="45.51936804145146" lon="8.658532042633215"><ele>166.66666666666669</ele><time>2026-04-19T15:44:30.015Z</time></trkpt><trkpt lat="45.519159788739316" lon="8.658575126576226"><ele>166.0</ele><time>2026-04-19T15:44:31.015Z</time></trkpt><trkpt lat="45.51895242402428" lon="8.65862579447015"><ele>166.0</ele><time>2026-04-19T15:44:32.014Z</time></trkpt><trkpt lat="45.51874256085253" lon="8.658681947235893"><ele>166.0</ele><time>2026-04-19T15:44:33.015Z</time></trkpt><trkpt lat="45.51852982026936" lon="8.658749191878917"><ele>166.0</ele><time>2026-04-19T15:44:34.015Z</time></trkpt><trkpt lat="45.51831396400893" lon="8.658820652585511"><ele>166.5</ele><time>2026-04-19T15:44:35.014Z</time></trkpt><trkpt lat="45.51809545778394" lon="8.658893212901459"><ele>167.0</ele><time>2026-04-19T15:44:36.015Z</time></trkpt><trkpt lat="45.5178766661713" lon="8.658975619904528"><ele>167.5</ele><time>2026-04-19T15:44:37.015Z</time></trkpt><trkpt lat="45.51765818427134" lon="8.659068204116299"><ele>168.0</ele><time>2026-04-19T15:44:38.015Z</time></trkpt><trkpt lat="45.51743974700523" lon="8.659168439715389"><ele>168.0</ele><time>2026-04-19T15:44:39.015Z</time></trkpt><trkpt lat="45.51722176235115" lon="8.659273426668253"><ele>168.0</ele><time>2026-04-19T15:44:40.015Z</time></trkpt><trkpt lat="45.51700500161533" lon="8.659384876740162"><ele>166.5</ele><time>2026-04-19T15:44:41.015Z</time></trkpt><trkpt lat="45.516790491532056" lon="8.659502269917205"><ele>165.0</ele><time>2026-04-19T15:44:42.015Z</time></trkpt><trkpt lat="45.5165793324098" lon="8.659623965267356"><ele>165.0</ele><time>2026-04-19T15:44:43.015Z</time></trkpt><trkpt lat="45.5163715375637" lon="8.659748412572611"><ele>165.0</ele><time>2026-04-19T15:44:44.015Z</time></trkpt><trkpt lat="45.51616949049654" lon="8.659876644161494"><ele>165.0</ele><time>2026-04-19T15:44:45.015Z</time></trkpt><trkpt lat="45.51596957149917" lon="8.660008348638247"><ele>165.0</ele><time>2026-04-19T15:44:46.015Z</time></trkpt><trkpt lat="45.515774799603996" lon="8.66014374877334"><ele>165.0</ele><time>2026-04-19T15:44:47.015Z</time></trkpt><trkpt lat="45.515586028893125" lon="8.660280154095066"><ele>165.0</ele><time>2026-04-19T15:44:48.015Z</time></trkpt><trkpt lat="45.51540028693257" lon="8.660416212292523"><ele>165.0</ele><time>2026-04-19T15:44:49.015Z</time></trkpt><trkpt lat="45.51521997363517" lon="8.660544204531659"><ele>165.0</ele><time>2026-04-19T15:44:50.015Z</time></trkpt><trkpt lat="45.5150484081042" lon="8.660663214430647"><ele>165.0</ele><time>2026-04-19T15:44:51.015Z</time></trkpt><trkpt lat="45.51487989440835" lon="8.660779363432598"><ele>165.0</ele><time>2026-04-19T15:44:52.015Z</time></trkpt><trkpt lat="45.514712327020646" lon="8.660896071197099"><ele>165.0</ele><time>2026-04-19T15:44:53.015Z</time></trkpt><trkpt lat="45.5145449541536" lon="8.661009830137173"><ele>165.0</ele><time>2026-04-19T15:44:54.015Z</time></trkpt><trkpt lat="45.514380066408776" lon="8.661123958118356"><ele>164.33333333333334</ele><time>2026-04-19T15:44:55.015Z</time></trkpt><trkpt lat="45.514216639858454" lon="8.66123652452427"><ele>163.66666666666669</ele><time>2026-04-19T15:44:56.015Z</time></trkpt><trkpt lat="45.514056985807265" lon="8.661350136185774"><ele>163.0</ele><time>2026-04-19T15:44:57.015Z</time></trkpt><trkpt lat="45.513901016683164" lon="8.661471147106122"><ele>163.0</ele><time>2026-04-19T15:44:58.015Z</time></trkpt><trkpt lat="45.5137507625593" lon="8.661608488998175"><ele>163.0</ele><time>2026-04-19T15:44:59.015Z</time></trkpt><trkpt lat="45.51360684105726" lon="8.661754995232135"><ele>163.0</ele><time>2026-04-19T15:45:00.015Z</time></trkpt><trkpt lat="45.51347120625736" lon="8.66191001996522"><ele>164.33333333333334</ele><time>2026-04-19T15:45:01.015Z</time></trkpt><trkpt lat="45.51334639278368" lon="8.662078718084507"><ele>165.66666666666666</ele><time>2026-04-19T15:45:02.015Z</time></trkpt><trkpt lat="45.513231621470055" lon="8.66225690683483"><ele>167.0</ele><time>2026-04-19T15:45:03.015Z</time></trkpt><trkpt lat="45.51312259598724" lon="8.662435101085272"><ele>167.0</ele><time>2026-04-19T15:45:04.015Z</time></trkpt><trkpt lat="45.51301887535412" lon="8.66261138915337"><ele>167.0</ele><time>2026-04-19T15:45:05.015Z</time></trkpt><trkpt lat="45.512916315881675" lon="8.662783245743123"><ele>167.0</ele><time>2026-04-19T15:45:06.015Z</time></trkpt><trkpt lat="45.512815474832955" lon="8.66294941977917"><ele>167.0</ele><time>2026-04-19T15:45:07.015Z</time></trkpt><trkpt lat="45.51271661597648" lon="8.663114736239079"><ele>167.0</ele><time>2026-04-19T15:45:08.015Z</time></trkpt><trkpt lat="45.51261794798101" lon="8.663278764850958"><ele>167.0</ele><time>2026-04-19T15:45:09.015Z</time></trkpt><trkpt lat="45.51251887309592" lon="8.663438781724054"><ele>167.0</ele><time>2026-04-19T15:45:10.016Z</time></trkpt><trkpt lat="45.51241648625211" lon="8.663598364103965"><ele>167.0</ele><time>2026-04-19T15:45:11.016Z</time></trkpt><trkpt lat="45.51231408944118" lon="8.663758127140515"><ele>167.0</ele><time>2026-04-19T15:45:12.016Z</time></trkpt><trkpt lat="45.51221339166696" lon="8.663915439594788"><ele>166.66666666666666</ele><time>2026-04-19T15:45:13.016Z</time></trkpt><trkpt lat="45.51211496864811" lon="8.664077163984485"><ele>166.33333333333334</ele><time>2026-04-19T15:45:14.016Z</time></trkpt><trkpt lat="45.51201509713874" lon="8.664242917181847"><ele>166.0</ele><time>2026-04-19T15:45:15.016Z</time></trkpt><trkpt lat="45.51191521796367" lon="8.664406258759922"><ele>165.66666666666669</ele><time>2026-04-19T15:45:16.016Z</time></trkpt><trkpt lat="45.51181284616331" lon="8.664565407302614"><ele>165.33333333333334</ele><time>2026-04-19T15:45:17.016Z</time></trkpt><trkpt lat="45.51171051450556" lon="8.664725131147295"><ele>165.0</ele><time>2026-04-19T15:45:18.016Z</time></trkpt><trkpt lat="45.51160823300199" lon="8.664884539248936"><ele>165.0</ele><time>2026-04-19T15:45:19.016Z</time></trkpt><trkpt lat="45.51150574830762" lon="8.665046443556705"><ele>165.0</ele><time>2026-04-19T15:45:20.016Z</time></trkpt><trkpt lat="45.51140226968708" lon="8.665212066015874"><ele>165.0</ele><time>2026-04-19T15:45:21.016Z</time></trkpt><trkpt lat="45.51130327237751" lon="8.665366932875974"><ele>165.0</ele><time>2026-04-19T15:45:22.016Z</time></trkpt><trkpt lat="45.51120458749549" lon="8.665504897697472"><ele>165.0</ele><time>2026-04-19T15:45:23.016Z</time></trkpt><trkpt lat="45.511100928762616" lon="8.665629620018615"><ele>165.0</ele><time>2026-04-19T15:45:24.016Z</time></trkpt><trkpt lat="45.51099013219519" lon="8.665749319557301"><ele>165.0</ele><time>2026-04-19T15:45:25.016Z</time></trkpt><trkpt lat="45.51087016805551" lon="8.665861315206081"><ele>165.0</ele><time>2026-04-19T15:45:26.016Z</time></trkpt><trkpt lat="45.51075081884115" lon="8.665964302941582"><ele>165.0</ele><time>2026-04-19T15:45:27.016Z</time></trkpt><trkpt lat="45.51063423896747" lon="8.666056272072604"><ele>165.0</ele><time>2026-04-19T15:45:28.016Z</time></trkpt><trkpt lat="45.510519204529494" lon="8.666138109753064"><ele>165.0</ele><time>2026-04-19T15:45:29.016Z</time></trkpt><trkpt lat="45.510414173679" lon="8.66620302546519"><ele>165.5</ele><time>2026-04-19T15:45:30.016Z</time></trkpt><trkpt lat="45.51032353009005" lon="8.666260314096066"><ele>166.0</ele><time>2026-04-19T15:45:31.016Z</time></trkpt><trkpt lat="45.51023971774843" lon="8.666299333513422"><ele>166.5</ele><time>2026-04-19T15:45:32.016Z</time></trkpt><trkpt lat="45.51015420548047" lon="8.666344788380306"><ele>167.0</ele><time>2026-04-19T15:45:33.016Z</time></trkpt><trkpt lat="45.510077648402245" lon="8.666390499359618"><ele>167.5</ele><time>2026-04-19T15:45:34.016Z</time></trkpt><trkpt lat="45.50999710438203" lon="8.666436499904004"><ele>168.0</ele><time>2026-04-19T15:45:35.016Z</time></trkpt><trkpt lat="45.509922019002694" lon="8.666473814455236"><ele>168.0</ele><time>2026-04-19T15:45:36.016Z</time></trkpt><trkpt lat="45.509850094791204" lon="8.66649779102226"><ele>168.0</ele><time>2026-04-19T15:45:37.016Z</time></trkpt><trkpt lat="45.509771207485365" lon="8.666510811266068"><ele>168.0</ele><time>2026-04-19T15:45:38.016Z</time></trkpt><trkpt lat="45.50968625153919" lon="8.666545326630104"><ele>168.0</ele><time>2026-04-19T15:45:39.016Z</time></trkpt><trkpt lat="45.5095956613187" lon="8.666605573412179"><ele>168.0</ele><time>2026-04-19T15:45:40.016Z</time></trkpt><trkpt lat="45.5094880286362" lon="8.66666240921674"><ele>167.25</ele><time>2026-04-19T15:45:41.016Z</time></trkpt><trkpt lat="45.509368958298786" lon="8.66670866536064"><ele>166.5</ele><time>2026-04-19T15:45:42.016Z</time></trkpt><trkpt lat="45.50924354491863" lon="8.666762722504764"><ele>165.75</ele><time>2026-04-19T15:45:43.017Z</time></trkpt><trkpt lat="45.5091172908923" lon="8.666831236959315"><ele>165.0</ele><time>2026-04-19T15:45:44.017Z</time></trkpt><trkpt lat="45.508992732134956" lon="8.666892071200886"><ele>164.75</ele><time>2026-04-19T15:45:45.017Z</time></trkpt><trkpt lat="45.508863130833326" lon="8.666954662628175"><ele>164.5</ele><time>2026-04-19T15:45:46.017Z</time></trkpt><trkpt lat="45.508733928477554" lon="8.667026449676056"><ele>164.25</ele><time>2026-04-19T15:45:47.017Z</time></trkpt><trkpt lat="45.5086008675506" lon="8.667089070220129"><ele>164.0</ele><time>2026-04-19T15:45:48.017Z</time></trkpt><trkpt lat="45.508465764192366" lon="8.667146737603671"><ele>164.0</ele><time>2026-04-19T15:45:49.017Z</time></trkpt><trkpt lat="45.508333049727725" lon="8.667201995745538"><ele>164.0</ele><time>2026-04-19T15:45:50.017Z</time></trkpt><trkpt lat="45.508194503501656" lon="8.667263995866808"><ele>164.0</ele><time>2026-04-19T15:45:51.017Z</time></trkpt><trkpt lat="45.50805293379903" lon="8.667329756541115"><ele>164.0</ele><time>2026-04-19T15:45:52.017Z</time></trkpt><trkpt lat="45.507912153329954" lon="8.667394838179774"><ele>164.5</ele><time>2026-04-19T15:45:53.017Z</time></trkpt><trkpt lat="45.50777219722921" lon="8.667457050744062"><ele>165.0</ele><time>2026-04-19T15:45:54.017Z</time></trkpt><trkpt lat="45.50763383020276" lon="8.667518794987048"><ele>165.5</ele><time>2026-04-19T15:45:55.017Z</time></trkpt><trkpt lat="45.50749776312254" lon="8.667580907580314"><ele>166.0</ele><time>2026-04-19T15:45:56.017Z</time></trkpt><trkpt lat="45.50736530984611" lon="8.667652270511368"><ele>166.0</ele><time>2026-04-19T15:45:57.017Z</time></trkpt><trkpt lat="45.507241715997594" lon="8.667714213777067"><ele>166.0</ele><time>2026-04-19T15:45:58.017Z</time></trkpt><trkpt lat="45.50712489924974" lon="8.667771911088858"><ele>166.0</ele><time>2026-04-19T15:45:59.017Z</time></trkpt><trkpt lat="45.50701130781874" lon="8.667828393369735"><ele>166.0</ele><time>2026-04-19T15:46:00.017Z</time></trkpt><trkpt lat="45.506898019620564" lon="8.667885676136024"><ele>166.0</ele><time>2026-04-19T15:46:01.017Z</time></trkpt><trkpt lat="45.50678095989458" lon="8.667937379364126"><ele>166.0</ele><time>2026-04-19T15:46:02.017Z</time></trkpt><trkpt lat="45.50666632359949" lon="8.667994210890427"><ele>166.0</ele><time>2026-04-19T15:46:03.017Z</time></trkpt><trkpt lat="45.506552941573666" lon="8.668046874557351"><ele>166.0</ele><time>2026-04-19T15:46:04.017Z</time></trkpt><trkpt lat="45.506444792525805" lon="8.668104445446573"><ele>166.0</ele><time>2026-04-19T15:46:05.017Z</time></trkpt><trkpt lat="45.506340609495595" lon="8.668148348600036"><ele>166.0</ele><time>2026-04-19T15:46:06.017Z</time></trkpt><trkpt lat="45.506234212980566" lon="8.668189228683373"><ele>166.0</ele><time>2026-04-19T15:46:07.017Z</time></trkpt><trkpt lat="45.50612901667543" lon="8.668244881081812"><ele>166.0</ele><time>2026-04-19T15:46:08.017Z</time></trkpt><trkpt lat="45.50601811212362" lon="8.66829590020661"><ele>166.0</ele><time>2026-04-19T15:46:09.017Z</time></trkpt><trkpt lat="45.50590408264322" lon="8.668337540144437"><ele>165.5</ele><time>2026-04-19T15:46:10.017Z</time></trkpt><trkpt lat="45.505790478381584" lon="8.668389442074542"><ele>165.0</ele><time>2026-04-19T15:46:11.017Z</time></trkpt><trkpt lat="45.5056775044111" lon="8.66845332102204"><ele>164.5</ele><time>2026-04-19T15:46:12.017Z</time></trkpt><trkpt lat="45.50557069416288" lon="8.668516725651946"><ele>164.0</ele><time>2026-04-19T15:46:13.017Z</time></trkpt><trkpt lat="45.5054655317803" lon="8.66858102441252"><ele>163.5</ele><time>2026-04-19T15:46:14.017Z</time></trkpt><trkpt lat="45.50535716005564" lon="8.668641048619758"><ele>163.0</ele><time>2026-04-19T15:46:15.017Z</time></trkpt><trkpt lat="45.505243485752935" lon="8.66870543987876"><ele>162.5</ele><time>2026-04-19T15:46:16.018Z</time></trkpt><trkpt lat="45.50513280186826" lon="8.668779106169572"><ele>162.0</ele><time>2026-04-19T15:46:17.018Z</time></trkpt><trkpt lat="45.50501938727274" lon="8.668856981454857"><ele>162.0</ele><time>2026-04-19T15:46:18.018Z</time></trkpt><trkpt lat="45.504906134197235" lon="8.668929749543876"><ele>162.0</ele><time>2026-04-19T15:46:19.018Z</time></trkpt><trkpt lat="45.50478991057995" lon="8.668996267776363"><ele>162.0</ele><time>2026-04-19T15:46:20.018Z</time></trkpt><trkpt lat="45.5046713781537" lon="8.669061889003736"><ele>162.0</ele><time>2026-04-19T15:46:21.018Z</time></trkpt><trkpt lat="45.504551326659225" lon="8.669127393045773"><ele>162.25</ele><time>2026-04-19T15:46:22.018Z</time></trkpt><trkpt lat="45.504430420280826" lon="8.669188522712393"><ele>162.5</ele><time>2026-04-19T15:46:23.018Z</time></trkpt><trkpt lat="45.5043057260698" lon="8.669248974993227"><ele>162.75</ele><time>2026-04-19T15:46:24.018Z</time></trkpt><trkpt lat="45.50418088252545" lon="8.669311391820676"><ele>163.0</ele><time>2026-04-19T15:46:25.018Z</time></trkpt><trkpt lat="45.504052011813066" lon="8.669373272999263"><ele>163.0</ele><time>2026-04-19T15:46:26.018Z</time></trkpt><trkpt lat="45.5039186425029" lon="8.669431617183458"><ele>163.0</ele><time>2026-04-19T15:46:27.018Z</time></trkpt><trkpt lat="45.50378345760801" lon="8.669487634126625"><ele>163.0</ele><time>2026-04-19T15:46:28.014Z</time></trkpt><trkpt lat="45.5036443836349" lon="8.669545064858635"><ele>163.0</ele><time>2026-04-19T15:46:29.015Z</time></trkpt><trkpt lat="45.50350708098779" lon="8.669602688078212"><ele>163.0</ele><time>2026-04-19T15:46:30.015Z</time></trkpt><trkpt lat="45.503368552330556" lon="8.66966151594471"><ele>163.0</ele><time>2026-04-19T15:46:31.015Z</time></trkpt><trkpt lat="45.503227709617555" lon="8.66971623608267"><ele>163.0</ele><time>2026-04-19T15:46:32.015Z</time></trkpt><trkpt lat="45.503083718279846" lon="8.66977515654943"><ele>163.0</ele><time>2026-04-19T15:46:33.015Z</time></trkpt><trkpt lat="45.50294049335289" lon="8.669837439459135"><ele>163.0</ele><time>2026-04-19T15:46:34.015Z</time></trkpt><trkpt lat="45.50279825570015" lon="8.669895245068378"><ele>163.0</ele><time>2026-04-19T15:46:35.015Z</time></trkpt><trkpt lat="45.50266360030929" lon="8.669960810294823"><ele>163.0</ele><time>2026-04-19T15:46:36.015Z</time></trkpt><trkpt lat="45.50253388215642" lon="8.670029087383432"><ele>163.0</ele><time>2026-04-19T15:46:37.014Z</time></trkpt><trkpt lat="45.50240280155329" lon="8.670102777364987"><ele>163.0</ele><time>2026-04-19T15:46:38.015Z</time></trkpt><trkpt lat="45.50227003610056" lon="8.670173997053512"><ele>163.0</ele><time>2026-04-19T15:46:39.015Z</time></trkpt><trkpt lat="45.50213267763183" lon="8.670250138138247"><ele>163.0</ele><time>2026-04-19T15:46:40.014Z</time></trkpt><trkpt lat="45.501996495189594" lon="8.670333141104816"><ele>163.0</ele><time>2026-04-19T15:46:41.015Z</time></trkpt><trkpt lat="45.501859253927115" lon="8.670416456673491"><ele>162.75</ele><time>2026-04-19T15:46:42.015Z</time></trkpt><trkpt lat="45.5017222579242" lon="8.670494250969838"><ele>162.5</ele><time>2026-04-19T15:46:43.015Z</time></trkpt><trkpt lat="45.50158714675368" lon="8.670570067829384"><ele>162.25</ele><time>2026-04-19T15:46:44.015Z</time></trkpt><trkpt lat="45.50145424601296" lon="8.670641853428098"><ele>162.0</ele><time>2026-04-19T15:46:45.015Z</time></trkpt><trkpt lat="45.501320616489735" lon="8.670705945123599"><ele>162.25</ele><time>2026-04-19T15:46:46.015Z</time></trkpt><trkpt lat="45.501198304153945" lon="8.67076783772832"><ele>162.5</ele><time>2026-04-19T15:46:47.015Z</time></trkpt><trkpt lat="45.501076943838534" lon="8.670827388411261"><ele>162.75</ele><time>2026-04-19T15:46:48.015Z</time></trkpt><trkpt lat="45.500963712427335" lon="8.670886347467325"><ele>163.0</ele><time>2026-04-19T15:46:49.015Z</time></trkpt><trkpt lat="45.50085776147718" lon="8.670944055230548"><ele>163.0</ele><time>2026-04-19T15:46:50.016Z</time></trkpt><trkpt lat="45.500749284762065" lon="8.671000500747432"><ele>163.0</ele><time>2026-04-19T15:46:51.016Z</time></trkpt><trkpt lat="45.50064128678398" lon="8.67106098629365"><ele>163.0</ele><time>2026-04-19T15:46:52.016Z</time></trkpt><trkpt lat="45.500520612208064" lon="8.671112489372497"><ele>163.0</ele><time>2026-04-19T15:46:53.016Z</time></trkpt><trkpt lat="45.50040256933608" lon="8.671168892218171"><ele>163.0</ele><time>2026-04-19T15:46:54.016Z</time></trkpt><trkpt lat="45.50028234468156" lon="8.671220835077811"><ele>163.0</ele><time>2026-04-19T15:46:55.016Z</time></trkpt><trkpt lat="45.50016874107559" lon="8.671265760862914"><ele>163.0</ele><time>2026-04-19T15:46:56.016Z</time></trkpt><trkpt lat="45.500058959969344" lon="8.671318364187972"><ele>163.0</ele><time>2026-04-19T15:46:57.016Z</time></trkpt><trkpt lat="45.499953481180135" lon="8.67138491486313"><ele>163.0</ele><time>2026-04-19T15:46:58.016Z</time></trkpt><trkpt lat="45.49985517665039" lon="8.671454081615096"><ele>163.0</ele><time>2026-04-19T15:46:59.016Z</time></trkpt><trkpt lat="45.499759176343275" lon="8.67152168534731"><ele>163.0</ele><time>2026-04-19T15:47:00.016Z</time></trkpt><trkpt lat="45.49966924019282" lon="8.671571972560956"><ele>163.0</ele><time>2026-04-19T15:47:01.016Z</time></trkpt><trkpt lat="45.49958809049312" lon="8.671619611166614"><ele>163.0</ele><time>2026-04-19T15:47:02.016Z</time></trkpt><trkpt lat="45.499522414576326" lon="8.67165697469628"><ele>163.0</ele><time>2026-04-19T15:47:03.016Z</time></trkpt><trkpt lat="45.499427326329354" lon="8.671719457862004"><ele>163.0</ele><time>2026-04-19T15:47:05.016Z</time></trkpt><trkpt lat="45.4993418861715" lon="8.671796454135562"><ele>163.0</ele><time>2026-04-19T15:47:07.016Z</time></trkpt><trkpt lat="45.49923347855896" lon="8.671852729906384"><ele>163.0</ele><time>2026-04-19T15:47:09.016Z</time></trkpt><trkpt lat="45.49912605150942" lon="8.671930842900332"><ele>163.0</ele><time>2026-04-19T15:47:11.016Z</time></trkpt><trkpt lat="45.49905605524454" lon="8.671988266001724"><ele>163.0</ele><time>2026-04-19T15:47:12.016Z</time></trkpt><trkpt lat="45.498976933738284" lon="8.672048684362439"><ele>163.0</ele><time>2026-04-19T15:47:13.016Z</time></trkpt><trkpt lat="45.49889383175003" lon="8.672103034231046"><ele>163.0</ele><time>2026-04-19T15:47:14.016Z</time></trkpt><trkpt lat="45.498805859290826" lon="8.672161211321416"><ele>163.0</ele><time>2026-04-19T15:47:15.016Z</time></trkpt><trkpt lat="45.4987115132405" lon="8.672232742183246"><ele>163.0</ele><time>2026-04-19T15:47:16.016Z</time></trkpt><trkpt lat="45.49860503731082" lon="8.672305002960135"><ele>163.0</ele><time>2026-04-19T15:47:17.016Z</time></trkpt><trkpt lat="45.49850233142417" lon="8.67237938582317"><ele>163.0</ele><time>2026-04-19T15:47:18.016Z</time></trkpt><trkpt lat="45.49840692284548" lon="8.672452515700067"><ele>163.0</ele><time>2026-04-19T15:47:19.016Z</time></trkpt><trkpt lat="45.49833337341257" lon="8.6725488220489"><ele>163.0</ele><time>2026-04-19T15:47:20.016Z</time></trkpt><trkpt lat="45.498279340986194" lon="8.672686208468502"><ele>163.0</ele><time>2026-04-19T15:47:21.016Z</time></trkpt><trkpt lat="45.498229041302636" lon="8.672849986233688"><ele>162.25</ele><time>2026-04-19T15:47:22.016Z</time></trkpt><trkpt lat="45.49817307674065" lon="8.673024993133955"><ele>161.5</ele><time>2026-04-19T15:47:23.017Z</time></trkpt><trkpt lat="45.49810905284585" lon="8.673190069011222"><ele>160.75</ele><time>2026-04-19T15:47:24.017Z</time></trkpt><trkpt lat="45.498046784450246" lon="8.673349854698193"><ele>160.0</ele><time>2026-04-19T15:47:25.017Z</time></trkpt><trkpt lat="45.49798855391757" lon="8.673516126520164"><ele>160.0</ele><time>2026-04-19T15:47:26.017Z</time></trkpt><trkpt lat="45.4979334384178" lon="8.67368162744782"><ele>160.0</ele><time>2026-04-19T15:47:27.017Z</time></trkpt><trkpt lat="45.49787745370207" lon="8.673845769156788"><ele>160.0</ele><time>2026-04-19T15:47:28.017Z</time></trkpt><trkpt lat="45.49782374023073" lon="8.674014878706204"><ele>160.0</ele><time>2026-04-19T15:47:29.017Z</time></trkpt><trkpt lat="45.49776410107588" lon="8.674178177926688"><ele>160.33333333333334</ele><time>2026-04-19T15:47:30.017Z</time></trkpt><trkpt lat="45.49771189024622" lon="8.674333388324213"><ele>160.66666666666666</ele><time>2026-04-19T15:47:31.017Z</time></trkpt><trkpt lat="45.49765058280702" lon="8.674493060349539"><ele>161.0</ele><time>2026-04-19T15:47:32.017Z</time></trkpt><trkpt lat="45.49754101877613" lon="8.674794827603714"><ele>161.0</ele><time>2026-04-19T15:47:34.017Z</time></trkpt><trkpt lat="45.49749733008552" lon="8.67496965075654"><ele>161.0</ele><time>2026-04-19T15:47:35.017Z</time></trkpt><trkpt lat="45.49748680048296" lon="8.675166991551986"><ele>161.0</ele><time>2026-04-19T15:47:36.017Z</time></trkpt><trkpt lat="45.49749185242159" lon="8.675361154680685"><ele>161.0</ele><time>2026-04-19T15:47:37.017Z</time></trkpt><trkpt lat="45.497488033276504" lon="8.675542466678568"><ele>161.0</ele><time>2026-04-19T15:47:38.017Z</time></trkpt><trkpt lat="45.49748544003357" lon="8.675709431160035"><ele>161.0</ele><time>2026-04-19T15:47:39.017Z</time></trkpt><trkpt lat="45.497478403116595" lon="8.67586701531232"><ele>161.0</ele><time>2026-04-19T15:47:40.017Z</time></trkpt><trkpt lat="45.497468123867364" lon="8.67601245165465"><ele>161.0</ele><time>2026-04-19T15:47:41.017Z</time></trkpt><trkpt lat="45.49744208230134" lon="8.67614169908245"><ele>161.0</ele><time>2026-04-19T15:47:42.017Z</time></trkpt><trkpt lat="45.4974078512016" lon="8.676280379740959"><ele>161.0</ele><time>2026-04-19T15:47:43.017Z</time></trkpt><trkpt lat="45.497372931538266" lon="8.676415225098342"><ele>161.0</ele><time>2026-04-19T15:47:44.017Z</time></trkpt><trkpt lat="45.49733023097565" lon="8.676553020393689"><ele>161.0</ele><time>2026-04-19T15:47:45.017Z</time></trkpt><trkpt lat="45.49729019963575" lon="8.676675654954597"><ele>161.0</ele><time>2026-04-19T15:47:46.017Z</time></trkpt><trkpt lat="45.49724825393264" lon="8.67681198705003"><ele>161.0</ele><time>2026-04-19T15:47:47.017Z</time></trkpt><trkpt lat="45.49721066787905" lon="8.676959780734403"><ele>161.0</ele><time>2026-04-19T15:47:48.017Z</time></trkpt><trkpt lat="45.49717348339652" lon="8.677098760533282"><ele>161.0</ele><time>2026-04-19T15:47:49.017Z</time></trkpt><trkpt lat="45.49712978729132" lon="8.677234825239413"><ele>161.0</ele><time>2026-04-19T15:47:50.017Z</time></trkpt><trkpt lat="45.49708562721177" lon="8.677380846662148"><ele>161.0</ele><time>2026-04-19T15:47:51.017Z</time></trkpt><trkpt lat="45.497043975211305" lon="8.6775195062167"><ele>161.0</ele><time>2026-04-19T15:47:52.017Z</time></trkpt><trkpt lat="45.49700119638885" lon="8.677661668172902"><ele>161.0</ele><time>2026-04-19T15:47:53.017Z</time></trkpt><trkpt lat="45.49695432007484" lon="8.677800997001091"><ele>161.0</ele><time>2026-04-19T15:47:54.017Z</time></trkpt><trkpt lat="45.496906662120495" lon="8.677931970811516"><ele>161.0</ele><time>2026-04-19T15:47:55.017Z</time></trkpt><trkpt lat="45.496859158067664" lon="8.67805907797568"><ele>161.0</ele><time>2026-04-19T15:47:56.017Z</time></trkpt><trkpt lat="45.49681708090314" lon="8.678190474215798"><ele>161.0</ele><time>2026-04-19T15:47:57.018Z</time></trkpt><trkpt lat="45.49678327740033" lon="8.678326440694851"><ele>161.0</ele><time>2026-04-19T15:47:58.018Z</time></trkpt><trkpt lat="45.49674842745437" lon="8.678467971630033"><ele>161.0</ele><time>2026-04-19T15:47:59.018Z</time></trkpt><trkpt lat="45.49671028432101" lon="8.678610842605297"><ele>161.0</ele><time>2026-04-19T15:48:00.018Z</time></trkpt><trkpt lat="45.49666675260392" lon="8.678759827266132"><ele>161.0</ele><time>2026-04-19T15:48:01.018Z</time></trkpt><trkpt lat="45.49662123977022" lon="8.678910194616035"><ele>161.0</ele><time>2026-04-19T15:48:02.018Z</time></trkpt><trkpt lat="45.4965731716629" lon="8.67907102294495"><ele>161.0</ele><time>2026-04-19T15:48:03.018Z</time></trkpt><trkpt lat="45.49652399872569" lon="8.67922912518693"><ele>161.0</ele><time>2026-04-19T15:48:04.018Z</time></trkpt><trkpt lat="45.49647413080336" lon="8.679396384045196"><ele>161.0</ele><time>2026-04-19T15:48:05.018Z</time></trkpt><trkpt lat="45.49642391058428" lon="8.679575017650098"><ele>161.0</ele><time>2026-04-19T15:48:06.018Z</time></trkpt><trkpt lat="45.49637047851344" lon="8.67976620797575"><ele>160.66666666666666</ele><time>2026-04-19T15:48:07.018Z</time></trkpt><trkpt lat="45.49631250483384" lon="8.67996724922675"><ele>160.33333333333334</ele><time>2026-04-19T15:48:08.018Z</time></trkpt><trkpt lat="45.49625155824949" lon="8.680172205448153"><ele>160.0</ele><time>2026-04-19T15:48:09.018Z</time></trkpt><trkpt lat="45.49618929706925" lon="8.680383660922425"><ele>160.0</ele><time>2026-04-19T15:48:10.018Z</time></trkpt><trkpt lat="45.496133501872116" lon="8.680584203814266"><ele>160.0</ele><time>2026-04-19T15:48:11.018Z</time></trkpt><trkpt lat="45.496083286900586" lon="8.680760523890882"><ele>160.0</ele><time>2026-04-19T15:48:12.018Z</time></trkpt><trkpt lat="45.49603683608047" lon="8.680931756761536"><ele>160.0</ele><time>2026-04-19T15:48:13.018Z</time></trkpt><trkpt lat="45.49599367416702" lon="8.68109481861456"><ele>160.4</ele><time>2026-04-19T15:48:14.018Z</time></trkpt><trkpt lat="45.49595693770698" lon="8.681248018942838"><ele>160.8</ele><time>2026-04-19T15:48:15.018Z</time></trkpt><trkpt lat="45.495928986308584" lon="8.68139260742056"><ele>161.2</ele><time>2026-04-19T15:48:16.018Z</time></trkpt><trkpt lat="45.495908100889274" lon="8.681524130421865"><ele>161.6</ele><time>2026-04-19T15:48:17.018Z</time></trkpt><trkpt lat="45.49588100107716" lon="8.681651781523238"><ele>162.0</ele><time>2026-04-19T15:48:18.018Z</time></trkpt><trkpt lat="45.49584113622638" lon="8.681790535633358"><ele>161.25</ele><time>2026-04-19T15:48:19.018Z</time></trkpt><trkpt lat="45.49578073854821" lon="8.681932041033301"><ele>160.5</ele><time>2026-04-19T15:48:20.018Z</time></trkpt><trkpt lat="45.49571313733506" lon="8.682079757243633"><ele>159.75</ele><time>2026-04-19T15:48:21.018Z</time></trkpt><trkpt lat="45.49564889854819" lon="8.682232717517383"><ele>159.0</ele><time>2026-04-19T15:48:22.018Z</time></trkpt><trkpt lat="45.49558566859056" lon="8.682391363916283"><ele>159.0</ele><time>2026-04-19T15:48:23.018Z</time></trkpt><trkpt lat="45.495515056307724" lon="8.682560088179729"><ele>159.0</ele><time>2026-04-19T15:48:24.018Z</time></trkpt><trkpt lat="45.495438260591754" lon="8.682722509913006"><ele>159.0</ele><time>2026-04-19T15:48:25.018Z</time></trkpt><trkpt lat="45.49536108832524" lon="8.682883047639676"><ele>159.0</ele><time>2026-04-19T15:48:26.018Z</time></trkpt><trkpt lat="45.49527730698503" lon="8.683040617556683"><ele>158.5</ele><time>2026-04-19T15:48:27.018Z</time></trkpt><trkpt lat="45.495182082985195" lon="8.68319578703071"><ele>158.0</ele><time>2026-04-19T15:48:28.018Z</time></trkpt><trkpt lat="45.49508092733848" lon="8.683338521722025"><ele>157.5</ele><time>2026-04-19T15:48:29.018Z</time></trkpt><trkpt lat="45.494983980203465" lon="8.68346803689642"><ele>157.0</ele><time>2026-04-19T15:48:30.019Z</time></trkpt><trkpt lat="45.49489154656306" lon="8.683582820385306"><ele>157.0</ele><time>2026-04-19T15:48:31.019Z</time></trkpt><trkpt lat="45.49480107283464" lon="8.683708201588642"><ele>157.0</ele><time>2026-04-19T15:48:32.019Z</time></trkpt><trkpt lat="45.49471659114375" lon="8.68383647186408"><ele>157.0</ele><time>2026-04-19T15:48:33.019Z</time></trkpt><trkpt lat="45.49464598865281" lon="8.683976181365027"><ele>157.0</ele><time>2026-04-19T15:48:34.014Z</time></trkpt><trkpt lat="45.494594237015875" lon="8.684130809549833"><ele>157.0</ele><time>2026-04-19T15:48:35.014Z</time></trkpt><trkpt lat="45.49454096009757" lon="8.684295490549715"><ele>157.0</ele><time>2026-04-19T15:48:36.014Z</time></trkpt><trkpt lat="45.494485181463325" lon="8.684454809107383"><ele>157.0</ele><time>2026-04-19T15:48:37.014Z</time></trkpt><trkpt lat="45.494429166474696" lon="8.684617378036888"><ele>157.0</ele><time>2026-04-19T15:48:38.015Z</time></trkpt><trkpt lat="45.49437169708352" lon="8.684785977332842"><ele>157.25</ele><time>2026-04-19T15:48:39.015Z</time></trkpt><trkpt lat="45.494306096796564" lon="8.68494802809525"><ele>157.5</ele><time>2026-04-19T15:48:40.014Z</time></trkpt><trkpt lat="45.49423462190709" lon="8.685094382514283"><ele>157.75</ele><time>2026-04-19T15:48:41.014Z</time></trkpt><trkpt lat="45.494158688639175" lon="8.68522730382706"><ele>158.0</ele><time>2026-04-19T15:48:42.014Z</time></trkpt><trkpt lat="45.49407997906097" lon="8.685341589245903"><ele>157.75</ele><time>2026-04-19T15:48:43.014Z</time></trkpt><trkpt lat="45.4939852339091" lon="8.685439127995885"><ele>157.5</ele><time>2026-04-19T15:48:44.015Z</time></trkpt><trkpt lat="45.49387747828861" lon="8.685517179833091"><ele>157.25</ele><time>2026-04-19T15:48:45.015Z</time></trkpt><trkpt lat="45.493762400770144" lon="8.685578359657002"><ele>157.0</ele><time>2026-04-19T15:48:46.015Z</time></trkpt><trkpt lat="45.49364138823437" lon="8.685626544140538"><ele>157.0</ele><time>2026-04-19T15:48:47.015Z</time></trkpt><trkpt lat="45.49350723832058" lon="8.685679728804068"><ele>157.0</ele><time>2026-04-19T15:48:48.015Z</time></trkpt><trkpt lat="45.493370912457166" lon="8.685730619011215"><ele>157.0</ele><time>2026-04-19T15:48:49.015Z</time></trkpt><trkpt lat="45.49323500571498" lon="8.685783504713529"><ele>157.0</ele><time>2026-04-19T15:48:50.015Z</time></trkpt><trkpt lat="45.49310596664125" lon="8.685835011889381"><ele>157.0</ele><time>2026-04-19T15:48:51.015Z</time></trkpt><trkpt lat="45.49297848430347" lon="8.685889116731895"><ele>157.0</ele><time>2026-04-19T15:48:52.015Z</time></trkpt><trkpt lat="45.49285203033447" lon="8.685942358328933"><ele>157.0</ele><time>2026-04-19T15:48:53.015Z</time></trkpt><trkpt lat="45.49272359625203" lon="8.686002918717517"><ele>157.0</ele><time>2026-04-19T15:48:54.015Z</time></trkpt><trkpt lat="45.49259128987439" lon="8.686063200141554"><ele>156.5</ele><time>2026-04-19T15:48:55.015Z</time></trkpt><trkpt lat="45.49246185694205" lon="8.686123297661238"><ele>156.0</ele><time>2026-04-19T15:48:56.015Z</time></trkpt><trkpt lat="45.49233404839379" lon="8.686183947383178"><ele>155.5</ele><time>2026-04-19T15:48:57.015Z</time></trkpt><trkpt lat="45.49220653343086" lon="8.686251282372202"><ele>155.0</ele><time>2026-04-19T15:48:58.015Z</time></trkpt><trkpt lat="45.49209274725008" lon="8.68632218997681"><ele>155.5</ele><time>2026-04-19T15:48:59.015Z</time></trkpt><trkpt lat="45.491987920969066" lon="8.686399884669711"><ele>156.0</ele><time>2026-04-19T15:49:00.015Z</time></trkpt><trkpt lat="45.491880440590826" lon="8.686482501465614"><ele>156.5</ele><time>2026-04-19T15:49:01.015Z</time></trkpt><trkpt lat="45.4917581517791" lon="8.686546724575054"><ele>157.0</ele><time>2026-04-19T15:49:02.015Z</time></trkpt><trkpt lat="45.49163146481231" lon="8.686598344372666"><ele>157.0</ele><time>2026-04-19T15:49:03.015Z</time></trkpt><trkpt lat="45.49149322813832" lon="8.686638507130969"><ele>157.0</ele><time>2026-04-19T15:49:04.015Z</time></trkpt><trkpt lat="45.49134452949042" lon="8.686675552103965"><ele>157.0</ele><time>2026-04-19T15:49:05.015Z</time></trkpt><trkpt lat="45.49118874796703" lon="8.68670704383123"><ele>157.0</ele><time>2026-04-19T15:49:06.015Z</time></trkpt><trkpt lat="45.49104074366159" lon="8.686746910936227"><ele>157.33333333333334</ele><time>2026-04-19T15:49:07.015Z</time></trkpt><trkpt lat="45.49089110567346" lon="8.686790372093535"><ele>157.66666666666666</ele><time>2026-04-19T15:49:08.015Z</time></trkpt><trkpt lat="45.490740857192975" lon="8.686841968255179"><ele>158.0</ele><time>2026-04-19T15:49:09.015Z</time></trkpt><trkpt lat="45.49060500727942" lon="8.68690642415067"><ele>158.0</ele><time>2026-04-19T15:49:10.016Z</time></trkpt><trkpt lat="45.49047526324851" lon="8.686975579344248"><ele>158.0</ele><time>2026-04-19T15:49:11.016Z</time></trkpt><trkpt lat="45.49035078494535" lon="8.687049375208014"><ele>158.0</ele><time>2026-04-19T15:49:12.016Z</time></trkpt><trkpt lat="45.49021979458613" lon="8.687119268935627"><ele>158.0</ele><time>2026-04-19T15:49:13.016Z</time></trkpt><trkpt lat="45.49008756636725" lon="8.687192895218693"><ele>158.0</ele><time>2026-04-19T15:49:14.016Z</time></trkpt><trkpt lat="45.48995130772279" lon="8.687263859232514"><ele>158.0</ele><time>2026-04-19T15:49:15.016Z</time></trkpt><trkpt lat="45.489811250876315" lon="8.687339289206543"><ele>158.0</ele><time>2026-04-19T15:49:16.016Z</time></trkpt><trkpt lat="45.48967265420758" lon="8.687410902030432"><ele>158.0</ele><time>2026-04-19T15:49:17.016Z</time></trkpt><trkpt lat="45.4895365184213" lon="8.687476400304835"><ele>157.5</ele><time>2026-04-19T15:49:18.016Z</time></trkpt><trkpt lat="45.48940360666391" lon="8.687542134141209"><ele>157.0</ele><time>2026-04-19T15:49:19.016Z</time></trkpt><trkpt lat="45.48927285425591" lon="8.687603854017134"><ele>156.5</ele><time>2026-04-19T15:49:20.016Z</time></trkpt><trkpt lat="45.489134778723496" lon="8.687662573842974"><ele>156.0</ele><time>2026-04-19T15:49:21.016Z</time></trkpt><trkpt lat="45.48899633608349" lon="8.687721605695083"><ele>156.25</ele><time>2026-04-19T15:49:22.016Z</time></trkpt><trkpt lat="45.48885924584971" lon="8.687777952916395"><ele>156.5</ele><time>2026-04-19T15:49:23.016Z</time></trkpt><trkpt lat="45.488723833828615" lon="8.687834840661404"><ele>156.75</ele><time>2026-04-19T15:49:24.016Z</time></trkpt><trkpt lat="45.488588889480944" lon="8.68788576069037"><ele>157.0</ele><time>2026-04-19T15:49:25.016Z</time></trkpt><trkpt lat="45.48845603591169" lon="8.68793129584493"><ele>157.25</ele><time>2026-04-19T15:49:26.016Z</time></trkpt><trkpt lat="45.48832559547424" lon="8.687978872497581"><ele>157.5</ele><time>2026-04-19T15:49:27.016Z</time></trkpt><trkpt lat="45.48819490078344" lon="8.688032417864969"><ele>157.75</ele><time>2026-04-19T15:49:28.016Z</time></trkpt><trkpt lat="45.488071639384486" lon="8.688089788241543"><ele>158.0</ele><time>2026-04-19T15:49:29.016Z</time></trkpt><trkpt lat="45.48795843638108" lon="8.688134899626808"><ele>157.66666666666666</ele><time>2026-04-19T15:49:30.016Z</time></trkpt><trkpt lat="45.487854651500875" lon="8.688179058557168"><ele>157.33333333333331</ele><time>2026-04-19T15:49:31.016Z</time></trkpt><trkpt lat="45.48776375182597" lon="8.688219719633718"><ele>157.0</ele><time>2026-04-19T15:49:32.016Z</time></trkpt><trkpt lat="45.48768124641521" lon="8.688269660591057"><ele>156.66666666666666</ele><time>2026-04-19T15:49:33.016Z</time></trkpt><trkpt lat="45.48760662570263" lon="8.688319148949436"><ele>156.33333333333334</ele><time>2026-04-19T15:49:34.016Z</time></trkpt><trkpt lat="45.48754415169292" lon="8.688371210700101"><ele>156.0</ele><time>2026-04-19T15:49:35.016Z</time></trkpt><trkpt lat="45.487470830576264" lon="8.688466460553972"><ele>156.0</ele><time>2026-04-19T15:49:37.016Z</time></trkpt><trkpt lat="45.48739493185889" lon="8.688511233133807"><ele>156.0</ele><time>2026-04-19T15:49:39.016Z</time></trkpt><trkpt lat="45.4872804507335" lon="8.68850031744076"><ele>156.0</ele><time>2026-04-19T15:49:41.016Z</time></trkpt><trkpt lat="45.4872048866674" lon="8.688493390360549"><ele>156.0</ele><time>2026-04-19T15:49:42.016Z</time></trkpt><trkpt lat="45.487128560132504" lon="8.688499015350196"><ele>156.0</ele><time>2026-04-19T15:49:43.016Z</time></trkpt><trkpt lat="45.48704221748841" lon="8.688521915323998"><ele>156.0</ele><time>2026-04-19T15:49:44.017Z</time></trkpt><trkpt lat="45.48695442530965" lon="8.68856471185919"><ele>156.0</ele><time>2026-04-19T15:49:45.017Z</time></trkpt><trkpt lat="45.4868604252315" lon="8.688617775079823"><ele>156.0</ele><time>2026-04-19T15:49:46.017Z</time></trkpt><trkpt lat="45.486748690360244" lon="8.688680237704467"><ele>156.0</ele><time>2026-04-19T15:49:47.017Z</time></trkpt><trkpt lat="45.486637709747164" lon="8.688737327824779"><ele>156.0</ele><time>2026-04-19T15:49:48.017Z</time></trkpt><trkpt lat="45.48652542815812" lon="8.688791777735313"><ele>156.0</ele><time>2026-04-19T15:49:49.017Z</time></trkpt><trkpt lat="45.486415072489905" lon="8.68884989152163"><ele>156.0</ele><time>2026-04-19T15:49:50.017Z</time></trkpt><trkpt lat="45.486296783468845" lon="8.68892155179533"><ele>156.0</ele><time>2026-04-19T15:49:51.017Z</time></trkpt><trkpt lat="45.48617636706708" lon="8.688984856785046"><ele>156.0</ele><time>2026-04-19T15:49:52.017Z</time></trkpt><trkpt lat="45.4860578724016" lon="8.689036841699721"><ele>155.5</ele><time>2026-04-19T15:49:53.017Z</time></trkpt><trkpt lat="45.48593736718292" lon="8.689080692638402"><ele>155.0</ele><time>2026-04-19T15:49:54.017Z</time></trkpt><trkpt lat="45.4858200184971" lon="8.68911713182494"><ele>154.5</ele><time>2026-04-19T15:49:55.017Z</time></trkpt><trkpt lat="45.485703913176465" lon="8.689159498012993"><ele>154.0</ele><time>2026-04-19T15:49:56.017Z</time></trkpt><trkpt lat="45.4855893612467" lon="8.689210664928234"><ele>154.0</ele><time>2026-04-19T15:49:57.017Z</time></trkpt><trkpt lat="45.48547105898165" lon="8.689264040073674"><ele>154.0</ele><time>2026-04-19T15:49:58.017Z</time></trkpt><trkpt lat="45.48535164736545" lon="8.689321538866608"><ele>154.0</ele><time>2026-04-19T15:49:59.017Z</time></trkpt><trkpt lat="45.48523393472313" lon="8.689381950090908"><ele>154.0</ele><time>2026-04-19T15:50:00.017Z</time></trkpt><trkpt lat="45.48511229411065" lon="8.68943372620135"><ele>154.25</ele><time>2026-04-19T15:50:01.017Z</time></trkpt><trkpt lat="45.484990069898764" lon="8.689489332691656"><ele>154.5</ele><time>2026-04-19T15:50:02.017Z</time></trkpt><trkpt lat="45.484864852098774" lon="8.689543628778374"><ele>154.75</ele><time>2026-04-19T15:50:03.017Z</time></trkpt><trkpt lat="45.484744469919384" lon="8.689602620878196"><ele>155.0</ele><time>2026-04-19T15:50:04.017Z</time></trkpt><trkpt lat="45.48463575385482" lon="8.689662053895923"><ele>154.66666666666666</ele><time>2026-04-19T15:50:05.017Z</time></trkpt><trkpt lat="45.48453605243387" lon="8.689710699718898"><ele>154.33333333333331</ele><time>2026-04-19T15:50:06.017Z</time></trkpt><trkpt lat="45.48445041053573" lon="8.689757641463387"><ele>154.0</ele><time>2026-04-19T15:50:07.017Z</time></trkpt><trkpt lat="45.48436935699991" lon="8.689806347212448"><ele>153.66666666666666</ele><time>2026-04-19T15:50:08.017Z</time></trkpt><trkpt lat="45.484299293077775" lon="8.689864841222196"><ele>153.33333333333334</ele><time>2026-04-19T15:50:09.017Z</time></trkpt><trkpt lat="45.48423363551565" lon="8.689928102679428"><ele>153.0</ele><time>2026-04-19T15:50:10.017Z</time></trkpt><trkpt lat="45.48418953237677" lon="8.68999797854936"><ele>153.0</ele><time>2026-04-19T15:50:11.017Z</time></trkpt><trkpt lat="45.484141383075674" lon="8.690143050518419"><ele>153.0</ele><time>2026-04-19T15:50:13.017Z</time></trkpt><trkpt lat="45.4841520370875" lon="8.690236170217323"><ele>153.0</ele><time>2026-04-19T15:50:15.017Z</time></trkpt><trkpt lat="45.48418937401281" lon="8.690321519392732"><ele>153.0</ele><time>2026-04-19T15:50:17.018Z</time></trkpt><trkpt lat="45.48422495380698" lon="8.690460433662686"><ele>153.0</ele><time>2026-04-19T15:50:19.018Z</time></trkpt><trkpt lat="45.48427179651004" lon="8.690624345685306"><ele>153.16666666666666</ele><time>2026-04-19T15:50:21.018Z</time></trkpt><trkpt lat="45.48430394055556" lon="8.690722205368079"><ele>153.33333333333334</ele><time>2026-04-19T15:50:22.018Z</time></trkpt><trkpt lat="45.484340272458105" lon="8.690836898150764"><ele>153.5</ele><time>2026-04-19T15:50:23.018Z</time></trkpt><trkpt lat="45.484371820751655" lon="8.690948333642913"><ele>153.66666666666669</ele><time>2026-04-19T15:50:24.018Z</time></trkpt><trkpt lat="45.48439738098631" lon="8.69106461694099"><ele>153.83333333333334</ele><time>2026-04-19T15:50:25.018Z</time></trkpt><trkpt lat="45.48442710769228" lon="8.69119796651105"><ele>154.0</ele><time>2026-04-19T15:50:26.018Z</time></trkpt><trkpt lat="45.48445401734503" lon="8.69132031485937"><ele>154.0</ele><time>2026-04-19T15:50:27.018Z</time></trkpt><trkpt lat="45.484479900821874" lon="8.691436000370164"><ele>154.0</ele><time>2026-04-19T15:50:28.018Z</time></trkpt><trkpt lat="45.484506519323574" lon="8.691559282975062"><ele>154.0</ele><time>2026-04-19T15:50:29.018Z</time></trkpt><trkpt lat="45.48453271246028" lon="8.691686570042922"><ele>154.0</ele><time>2026-04-19T15:50:30.018Z</time></trkpt><trkpt lat="45.4845671154862" lon="8.691816103398223"><ele>154.0</ele><time>2026-04-19T15:50:31.018Z</time></trkpt><trkpt lat="45.48460112342854" lon="8.691950254441233"><ele>154.2</ele><time>2026-04-19T15:50:32.018Z</time></trkpt><trkpt lat="45.48463282787383" lon="8.692082821672379"><ele>154.4</ele><time>2026-04-19T15:50:33.018Z</time></trkpt><trkpt lat="45.48466319073472" lon="8.692221950097153"><ele>154.6</ele><time>2026-04-19T15:50:34.018Z</time></trkpt><trkpt lat="45.48468790595421" lon="8.69234793505719"><ele>154.8</ele><time>2026-04-19T15:50:35.018Z</time></trkpt><trkpt lat="45.484709833525805" lon="8.692479147806296"><ele>155.0</ele><time>2026-04-19T15:50:36.018Z</time></trkpt><trkpt lat="45.48473732591921" lon="8.692613525967936"><ele>155.0</ele><time>2026-04-19T15:50:37.018Z</time></trkpt><trkpt lat="45.484766168658155" lon="8.69273884597095"><ele>155.0</ele><time>2026-04-19T15:50:38.018Z</time></trkpt><trkpt lat="45.48479147338769" lon="8.692853202548594"><ele>155.0</ele><time>2026-04-19T15:50:39.018Z</time></trkpt><trkpt lat="45.484816690731876" lon="8.692945015786233"><ele>155.0</ele><time>2026-04-19T15:50:40.015Z</time></trkpt><trkpt lat="45.48483921982567" lon="8.693030761348457"><ele>155.0</ele><time>2026-04-19T15:50:41.014Z</time></trkpt><trkpt lat="45.484880566528304" lon="8.693106089892408"><ele>155.0</ele><time>2026-04-19T15:50:44.014Z</time></trkpt><trkpt lat="45.48493237643353" lon="8.693186582512256"><ele>154.8</ele><time>2026-04-19T15:50:46.015Z</time></trkpt><trkpt lat="45.48496769416361" lon="8.693274348192173"><ele>154.6</ele><time>2026-04-19T15:50:47.014Z</time></trkpt><trkpt lat="45.48499525015141" lon="8.693385498145764"><ele>154.4</ele><time>2026-04-19T15:50:48.014Z</time></trkpt><trkpt lat="45.485020522124046" lon="8.693516080591104"><ele>154.2</ele><time>2026-04-19T15:50:49.014Z</time></trkpt><trkpt lat="45.48504351908747" lon="8.693655809143557"><ele>154.0</ele><time>2026-04-19T15:50:50.014Z</time></trkpt><trkpt lat="45.48507256506275" lon="8.693810895752854"><ele>154.5</ele><time>2026-04-19T15:50:51.014Z</time></trkpt><trkpt lat="45.485098222643046" lon="8.693982284344589"><ele>155.0</ele><time>2026-04-19T15:50:52.014Z</time></trkpt><trkpt lat="45.48512054650084" lon="8.69414504207649"><ele>155.5</ele><time>2026-04-19T15:50:53.014Z</time></trkpt><trkpt lat="45.48514073328453" lon="8.694320287531367"><ele>156.0</ele><time>2026-04-19T15:50:54.015Z</time></trkpt><trkpt lat="45.48515910653917" lon="8.694497896405572"><ele>156.0</ele><time>2026-04-19T15:50:55.015Z</time></trkpt><trkpt lat="45.485169975618334" lon="8.69468851343932"><ele>156.0</ele><time>2026-04-19T15:50:56.015Z</time></trkpt><trkpt lat="45.48518648619991" lon="8.694868316608371"><ele>156.0</ele><time>2026-04-19T15:50:57.015Z</time></trkpt><trkpt lat="45.48521037767905" lon="8.695048141430542"><ele>156.0</ele><time>2026-04-19T15:50:58.015Z</time></trkpt><trkpt lat="45.48523757492091" lon="8.695234170151467"><ele>155.75</ele><time>2026-04-19T15:50:59.015Z</time></trkpt><trkpt lat="45.485276796929625" lon="8.695401128194074"><ele>155.5</ele><time>2026-04-19T15:51:00.015Z</time></trkpt><trkpt lat="45.48532203979515" lon="8.695555786405292"><ele>155.25</ele><time>2026-04-19T15:51:01.015Z</time></trkpt><trkpt lat="45.48536211555407" lon="8.695701854387664"><ele>155.0</ele><time>2026-04-19T15:51:02.015Z</time></trkpt><trkpt lat="45.48540469774403" lon="8.695836286998514"><ele>155.0</ele><time>2026-04-19T15:51:03.015Z</time></trkpt><trkpt lat="45.48543379286844" lon="8.695960867766479"><ele>155.0</ele><time>2026-04-19T15:51:04.015Z</time></trkpt><trkpt lat="45.48545196124697" lon="8.69607505214029"><ele>155.0</ele><time>2026-04-19T15:51:05.015Z</time></trkpt><trkpt lat="45.48545424729064" lon="8.69618822647869"><ele>155.0</ele><time>2026-04-19T15:51:06.015Z</time></trkpt><trkpt lat="45.48543806858664" lon="8.696309130492072"><ele>155.0</ele><time>2026-04-19T15:51:07.015Z</time></trkpt><trkpt lat="45.4854251838687" lon="8.696455244199635"><ele>155.0</ele><time>2026-04-19T15:51:08.015Z</time></trkpt><trkpt lat="45.485449199888606" lon="8.696601374750312"><ele>155.0</ele><time>2026-04-19T15:51:09.015Z</time></trkpt><trkpt lat="45.4854875163487" lon="8.696747235010031"><ele>155.0</ele><time>2026-04-19T15:51:10.015Z</time></trkpt><trkpt lat="45.48552755071624" lon="8.696912160258469"><ele>155.0</ele><time>2026-04-19T15:51:11.015Z</time></trkpt><trkpt lat="45.48556754991161" lon="8.697078177856168"><ele>155.0</ele><time>2026-04-19T15:51:12.015Z</time></trkpt><trkpt lat="45.48559826002759" lon="8.697243669673698"><ele>155.0</ele><time>2026-04-19T15:51:13.015Z</time></trkpt><trkpt lat="45.48562911556698" lon="8.697392777420392"><ele>155.0</ele><time>2026-04-19T15:51:14.015Z</time></trkpt><trkpt lat="45.485665853069904" lon="8.697525707136641"><ele>155.0</ele><time>2026-04-19T15:51:15.015Z</time></trkpt><trkpt lat="45.485714107883254" lon="8.697637166254738"><ele>155.0</ele><time>2026-04-19T15:51:16.015Z</time></trkpt><trkpt lat="45.48576063953665" lon="8.697735773618025"><ele>155.0</ele><time>2026-04-19T15:51:17.015Z</time></trkpt><trkpt lat="45.485795063633155" lon="8.697832330990428"><ele>154.6</ele><time>2026-04-19T15:51:18.015Z</time></trkpt><trkpt lat="45.4858238934833" lon="8.697980117570939"><ele>154.2</ele><time>2026-04-19T15:51:20.015Z</time></trkpt><trkpt lat="45.48579666035231" lon="8.698085837804875"><ele>153.8</ele><time>2026-04-19T15:51:23.015Z</time></trkpt><trkpt lat="45.485699194012504" lon="8.698054113608224"><ele>153.4</ele><time>2026-04-19T15:51:26.015Z</time></trkpt><trkpt lat="45.48558406489719" lon="8.697960138879267"><ele>153.0</ele><time>2026-04-19T15:51:28.016Z</time></trkpt><trkpt lat="45.485515201444365" lon="8.697918266306388"><ele>153.0</ele><time>2026-04-19T15:51:29.016Z</time></trkpt><trkpt lat="45.48544553362566" lon="8.697873108997623"><ele>153.0</ele><time>2026-04-19T15:51:30.016Z</time></trkpt><trkpt lat="45.485360679381145" lon="8.697816953077409"><ele>153.0</ele><time>2026-04-19T15:51:31.016Z</time></trkpt><trkpt lat="45.485278521561" lon="8.697766024423922"><ele>153.0</ele><time>2026-04-19T15:51:32.016Z</time></trkpt><trkpt lat="45.48520215100019" lon="8.697736024676287"><ele>153.0</ele><time>2026-04-19T15:51:33.016Z</time></trkpt><trkpt lat="45.48513135107771" lon="8.697701108016322"><ele>153.0</ele><time>2026-04-19T15:51:34.016Z</time></trkpt><trkpt lat="45.4850724087257" lon="8.697667253237256"><ele>155.0</ele><time>2026-04-19T15:51:35.016Z</time></trkpt><trkpt lat="45.485016027652264" lon="8.697598913972048"><ele>155.0</ele><time>2026-04-19T15:51:38.016Z</time></trkpt><trkpt lat="45.48496302432598" lon="8.697683065948096"><ele>155.0</ele><time>2026-04-19T15:52:00.016Z</time></trkpt><trkpt lat="45.48496155986626" lon="8.69759132384176"><ele>155.0</ele><time>2026-04-19T15:52:06.94Z</time></trkpt><trkpt lat="45.48493916346787" lon="8.697499465803174"><ele>155.0</ele><time>2026-04-19T15:52:09.941Z</time></trkpt></trkseg></trk></gpx>